<?xml version="1.0" encoding="UTF-8" standalone="no" ?>
<gpx xmlns="http://www.topografix.com/GPX/1/1" creator="www.cicloide.com" version="1.1" xmlns:xsi="http://www.w3.org/2001/XMLSchema-instance" xsi:schemaLocation="http://www.topografix.com/GPX/1/1 http://www.topografix.com/GPX/1/1/gpx.xsd">
  <trk>
    <name>www.cicloide.com 341366</name>
    <desc>www.cicloide.com 341366</desc>
    <trkseg>
      <trkpt lat="42.458165000" lon="-2.464033000">
        <ele>405.30</ele>
        <time>2016-10-29T04:58:32Z</time>
      </trkpt>
      <trkpt lat="42.458185000" lon="-2.464041000">
        <ele>405.00</ele>
        <time>2016-10-29T04:58:33Z</time>
      </trkpt>
      <trkpt lat="42.458242000" lon="-2.464069000">
        <ele>405.00</ele>
        <time>2016-10-29T04:58:37Z</time>
      </trkpt>
      <trkpt lat="42.458270000" lon="-2.464092000">
        <ele>405.00</ele>
        <time>2016-10-29T04:58:41Z</time>
      </trkpt>
      <trkpt lat="42.458232000" lon="-2.464097000">
        <ele>405.00</ele>
        <time>2016-10-29T04:58:45Z</time>
      </trkpt>
      <trkpt lat="42.458275000" lon="-2.464107000">
        <ele>405.00</ele>
        <time>2016-10-29T04:58:49Z</time>
      </trkpt>
      <trkpt lat="42.458367000" lon="-2.464142000">
        <ele>405.00</ele>
        <time>2016-10-29T04:58:53Z</time>
      </trkpt>
      <trkpt lat="42.458439000" lon="-2.464364000">
        <ele>405.60</ele>
        <time>2016-10-29T04:58:56Z</time>
      </trkpt>
      <trkpt lat="42.458483000" lon="-2.464472000">
        <ele>405.70</ele>
        <time>2016-10-29T04:58:57Z</time>
      </trkpt>
      <trkpt lat="42.458510000" lon="-2.464535000">
        <ele>405.70</ele>
        <time>2016-10-29T04:58:58Z</time>
      </trkpt>
      <trkpt lat="42.458534000" lon="-2.464574000">
        <ele>405.70</ele>
        <time>2016-10-29T04:58:59Z</time>
      </trkpt>
      <trkpt lat="42.458557000" lon="-2.464614000">
        <ele>405.70</ele>
        <time>2016-10-29T04:59:00Z</time>
      </trkpt>
      <trkpt lat="42.458578000" lon="-2.464651000">
        <ele>405.80</ele>
        <time>2016-10-29T04:59:01Z</time>
      </trkpt>
      <trkpt lat="42.458729000" lon="-2.464940000">
        <ele>405.00</ele>
        <time>2016-10-29T04:59:06Z</time>
      </trkpt>
      <trkpt lat="42.458801000" lon="-2.465031000">
        <ele>405.80</ele>
        <time>2016-10-29T04:59:11Z</time>
      </trkpt>
      <trkpt lat="42.458802000" lon="-2.465034000">
        <ele>405.90</ele>
        <time>2016-10-29T04:59:12Z</time>
      </trkpt>
      <trkpt lat="42.458802000" lon="-2.465035000">
        <ele>405.90</ele>
        <time>2016-10-29T04:59:13Z</time>
      </trkpt>
      <trkpt lat="42.458803000" lon="-2.465038000">
        <ele>405.90</ele>
        <time>2016-10-29T04:59:14Z</time>
      </trkpt>
      <trkpt lat="42.458803000" lon="-2.465040000">
        <ele>405.90</ele>
        <time>2016-10-29T04:59:15Z</time>
      </trkpt>
      <trkpt lat="42.458802000" lon="-2.465044000">
        <ele>405.80</ele>
        <time>2016-10-29T04:59:16Z</time>
      </trkpt>
      <trkpt lat="42.458804000" lon="-2.465051000">
        <ele>405.70</ele>
        <time>2016-10-29T04:59:17Z</time>
      </trkpt>
      <trkpt lat="42.458804000" lon="-2.465056000">
        <ele>405.50</ele>
        <time>2016-10-29T04:59:18Z</time>
      </trkpt>
      <trkpt lat="42.458806000" lon="-2.465059000">
        <ele>405.40</ele>
        <time>2016-10-29T04:59:19Z</time>
      </trkpt>
      <trkpt lat="42.458807000" lon="-2.465062000">
        <ele>405.30</ele>
        <time>2016-10-29T04:59:20Z</time>
      </trkpt>
      <trkpt lat="42.458806000" lon="-2.465068000">
        <ele>405.20</ele>
        <time>2016-10-29T04:59:21Z</time>
      </trkpt>
      <trkpt lat="42.458804000" lon="-2.465073000">
        <ele>405.10</ele>
        <time>2016-10-29T04:59:22Z</time>
      </trkpt>
      <trkpt lat="42.458805000" lon="-2.465076000">
        <ele>405.10</ele>
        <time>2016-10-29T04:59:23Z</time>
      </trkpt>
      <trkpt lat="42.458808000" lon="-2.465077000">
        <ele>405.10</ele>
        <time>2016-10-29T04:59:24Z</time>
      </trkpt>
      <trkpt lat="42.458809000" lon="-2.465079000">
        <ele>405.20</ele>
        <time>2016-10-29T04:59:25Z</time>
      </trkpt>
      <trkpt lat="42.458809000" lon="-2.465080000">
        <ele>405.20</ele>
        <time>2016-10-29T04:59:26Z</time>
      </trkpt>
      <trkpt lat="42.458811000" lon="-2.465081000">
        <ele>405.20</ele>
        <time>2016-10-29T04:59:27Z</time>
      </trkpt>
      <trkpt lat="42.458815000" lon="-2.465084000">
        <ele>405.30</ele>
        <time>2016-10-29T04:59:28Z</time>
      </trkpt>
      <trkpt lat="42.458817000" lon="-2.465084000">
        <ele>405.30</ele>
        <time>2016-10-29T04:59:29Z</time>
      </trkpt>
      <trkpt lat="42.458820000" lon="-2.465082000">
        <ele>405.40</ele>
        <time>2016-10-29T04:59:30Z</time>
      </trkpt>
      <trkpt lat="42.458822000" lon="-2.465080000">
        <ele>405.40</ele>
        <time>2016-10-29T04:59:31Z</time>
      </trkpt>
      <trkpt lat="42.458831000" lon="-2.465084000">
        <ele>405.30</ele>
        <time>2016-10-29T04:59:32Z</time>
      </trkpt>
      <trkpt lat="42.458841000" lon="-2.465090000">
        <ele>405.30</ele>
        <time>2016-10-29T04:59:33Z</time>
      </trkpt>
      <trkpt lat="42.458849000" lon="-2.465094000">
        <ele>405.10</ele>
        <time>2016-10-29T04:59:34Z</time>
      </trkpt>
      <trkpt lat="42.458854000" lon="-2.465096000">
        <ele>405.00</ele>
        <time>2016-10-29T04:59:35Z</time>
      </trkpt>
      <trkpt lat="42.458857000" lon="-2.465097000">
        <ele>404.90</ele>
        <time>2016-10-29T04:59:36Z</time>
      </trkpt>
      <trkpt lat="42.458860000" lon="-2.465097000">
        <ele>404.80</ele>
        <time>2016-10-29T04:59:37Z</time>
      </trkpt>
      <trkpt lat="42.458887000" lon="-2.465101000">
        <ele>405.10</ele>
        <time>2016-10-29T04:59:39Z</time>
      </trkpt>
      <trkpt lat="42.458897000" lon="-2.465104000">
        <ele>405.20</ele>
        <time>2016-10-29T04:59:40Z</time>
      </trkpt>
      <trkpt lat="42.458905000" lon="-2.465109000">
        <ele>405.30</ele>
        <time>2016-10-29T04:59:41Z</time>
      </trkpt>
      <trkpt lat="42.458912000" lon="-2.465114000">
        <ele>405.30</ele>
        <time>2016-10-29T04:59:42Z</time>
      </trkpt>
      <trkpt lat="42.458916000" lon="-2.465119000">
        <ele>405.40</ele>
        <time>2016-10-29T04:59:43Z</time>
      </trkpt>
      <trkpt lat="42.458905000" lon="-2.465118000">
        <ele>405.40</ele>
        <time>2016-10-29T04:59:44Z</time>
      </trkpt>
      <trkpt lat="42.458896000" lon="-2.465119000">
        <ele>405.40</ele>
        <time>2016-10-29T04:59:45Z</time>
      </trkpt>
      <trkpt lat="42.458893000" lon="-2.465121000">
        <ele>405.40</ele>
        <time>2016-10-29T04:59:46Z</time>
      </trkpt>
      <trkpt lat="42.458889000" lon="-2.465122000">
        <ele>405.40</ele>
        <time>2016-10-29T04:59:47Z</time>
      </trkpt>
      <trkpt lat="42.458887000" lon="-2.465124000">
        <ele>405.40</ele>
        <time>2016-10-29T04:59:48Z</time>
      </trkpt>
      <trkpt lat="42.458891000" lon="-2.465127000">
        <ele>405.50</ele>
        <time>2016-10-29T04:59:49Z</time>
      </trkpt>
      <trkpt lat="42.458897000" lon="-2.465129000">
        <ele>405.50</ele>
        <time>2016-10-29T04:59:50Z</time>
      </trkpt>
      <trkpt lat="42.458905000" lon="-2.465134000">
        <ele>405.60</ele>
        <time>2016-10-29T04:59:51Z</time>
      </trkpt>
      <trkpt lat="42.458914000" lon="-2.465138000">
        <ele>405.50</ele>
        <time>2016-10-29T04:59:52Z</time>
      </trkpt>
      <trkpt lat="42.458923000" lon="-2.465140000">
        <ele>405.40</ele>
        <time>2016-10-29T04:59:53Z</time>
      </trkpt>
      <trkpt lat="42.458933000" lon="-2.465143000">
        <ele>405.30</ele>
        <time>2016-10-29T04:59:54Z</time>
      </trkpt>
      <trkpt lat="42.458944000" lon="-2.465144000">
        <ele>405.30</ele>
        <time>2016-10-29T04:59:55Z</time>
      </trkpt>
      <trkpt lat="42.458958000" lon="-2.465147000">
        <ele>405.20</ele>
        <time>2016-10-29T04:59:56Z</time>
      </trkpt>
      <trkpt lat="42.458968000" lon="-2.465147000">
        <ele>405.20</ele>
        <time>2016-10-29T04:59:57Z</time>
      </trkpt>
      <trkpt lat="42.458979000" lon="-2.465148000">
        <ele>405.10</ele>
        <time>2016-10-29T04:59:58Z</time>
      </trkpt>
      <trkpt lat="42.458989000" lon="-2.465149000">
        <ele>405.10</ele>
        <time>2016-10-29T04:59:59Z</time>
      </trkpt>
      <trkpt lat="42.458997000" lon="-2.465146000">
        <ele>405.10</ele>
        <time>2016-10-29T05:00:00Z</time>
      </trkpt>
      <trkpt lat="42.459004000" lon="-2.465143000">
        <ele>405.10</ele>
        <time>2016-10-29T05:00:01Z</time>
      </trkpt>
      <trkpt lat="42.459010000" lon="-2.465141000">
        <ele>405.10</ele>
        <time>2016-10-29T05:00:02Z</time>
      </trkpt>
      <trkpt lat="42.459017000" lon="-2.465139000">
        <ele>405.10</ele>
        <time>2016-10-29T05:00:03Z</time>
      </trkpt>
      <trkpt lat="42.459023000" lon="-2.465137000">
        <ele>405.10</ele>
        <time>2016-10-29T05:00:04Z</time>
      </trkpt>
      <trkpt lat="42.459029000" lon="-2.465133000">
        <ele>405.10</ele>
        <time>2016-10-29T05:00:05Z</time>
      </trkpt>
      <trkpt lat="42.459034000" lon="-2.465128000">
        <ele>405.10</ele>
        <time>2016-10-29T05:00:06Z</time>
      </trkpt>
      <trkpt lat="42.459040000" lon="-2.465127000">
        <ele>405.00</ele>
        <time>2016-10-29T05:00:07Z</time>
      </trkpt>
      <trkpt lat="42.459049000" lon="-2.465126000">
        <ele>405.00</ele>
        <time>2016-10-29T05:00:08Z</time>
      </trkpt>
      <trkpt lat="42.459058000" lon="-2.465124000">
        <ele>405.00</ele>
        <time>2016-10-29T05:00:09Z</time>
      </trkpt>
      <trkpt lat="42.459064000" lon="-2.465126000">
        <ele>405.00</ele>
        <time>2016-10-29T05:00:10Z</time>
      </trkpt>
      <trkpt lat="42.459069000" lon="-2.465129000">
        <ele>405.00</ele>
        <time>2016-10-29T05:00:11Z</time>
      </trkpt>
      <trkpt lat="42.459075000" lon="-2.465133000">
        <ele>405.10</ele>
        <time>2016-10-29T05:00:12Z</time>
      </trkpt>
      <trkpt lat="42.459079000" lon="-2.465137000">
        <ele>405.10</ele>
        <time>2016-10-29T05:00:13Z</time>
      </trkpt>
      <trkpt lat="42.459084000" lon="-2.465139000">
        <ele>405.10</ele>
        <time>2016-10-29T05:00:14Z</time>
      </trkpt>
      <trkpt lat="42.459087000" lon="-2.465142000">
        <ele>405.10</ele>
        <time>2016-10-29T05:00:15Z</time>
      </trkpt>
      <trkpt lat="42.459089000" lon="-2.465146000">
        <ele>404.90</ele>
        <time>2016-10-29T05:00:16Z</time>
      </trkpt>
      <trkpt lat="42.459086000" lon="-2.465151000">
        <ele>404.80</ele>
        <time>2016-10-29T05:00:17Z</time>
      </trkpt>
      <trkpt lat="42.459083000" lon="-2.465155000">
        <ele>404.70</ele>
        <time>2016-10-29T05:00:18Z</time>
      </trkpt>
      <trkpt lat="42.459081000" lon="-2.465162000">
        <ele>404.60</ele>
        <time>2016-10-29T05:00:19Z</time>
      </trkpt>
      <trkpt lat="42.459079000" lon="-2.465166000">
        <ele>404.70</ele>
        <time>2016-10-29T05:00:20Z</time>
      </trkpt>
      <trkpt lat="42.459078000" lon="-2.465171000">
        <ele>404.80</ele>
        <time>2016-10-29T05:00:21Z</time>
      </trkpt>
      <trkpt lat="42.459074000" lon="-2.465176000">
        <ele>404.90</ele>
        <time>2016-10-29T05:00:22Z</time>
      </trkpt>
      <trkpt lat="42.459068000" lon="-2.465176000">
        <ele>404.90</ele>
        <time>2016-10-29T05:00:23Z</time>
      </trkpt>
      <trkpt lat="42.459061000" lon="-2.465175000">
        <ele>404.90</ele>
        <time>2016-10-29T05:00:24Z</time>
      </trkpt>
      <trkpt lat="42.459054000" lon="-2.465174000">
        <ele>405.00</ele>
        <time>2016-10-29T05:00:25Z</time>
      </trkpt>
      <trkpt lat="42.459047000" lon="-2.465174000">
        <ele>405.00</ele>
        <time>2016-10-29T05:00:26Z</time>
      </trkpt>
      <trkpt lat="42.459037000" lon="-2.465178000">
        <ele>405.00</ele>
        <time>2016-10-29T05:00:27Z</time>
      </trkpt>
      <trkpt lat="42.459031000" lon="-2.465181000">
        <ele>405.00</ele>
        <time>2016-10-29T05:00:28Z</time>
      </trkpt>
      <trkpt lat="42.459026000" lon="-2.465184000">
        <ele>405.00</ele>
        <time>2016-10-29T05:00:29Z</time>
      </trkpt>
      <trkpt lat="42.459022000" lon="-2.465185000">
        <ele>405.00</ele>
        <time>2016-10-29T05:00:30Z</time>
      </trkpt>
      <trkpt lat="42.459019000" lon="-2.465185000">
        <ele>405.00</ele>
        <time>2016-10-29T05:00:31Z</time>
      </trkpt>
      <trkpt lat="42.459017000" lon="-2.465188000">
        <ele>405.00</ele>
        <time>2016-10-29T05:00:32Z</time>
      </trkpt>
      <trkpt lat="42.459012000" lon="-2.465187000">
        <ele>405.00</ele>
        <time>2016-10-29T05:00:33Z</time>
      </trkpt>
      <trkpt lat="42.459005000" lon="-2.465187000">
        <ele>405.00</ele>
        <time>2016-10-29T05:00:34Z</time>
      </trkpt>
      <trkpt lat="42.459002000" lon="-2.465186000">
        <ele>405.00</ele>
        <time>2016-10-29T05:00:35Z</time>
      </trkpt>
      <trkpt lat="42.458998000" lon="-2.465188000">
        <ele>405.00</ele>
        <time>2016-10-29T05:00:36Z</time>
      </trkpt>
      <trkpt lat="42.458997000" lon="-2.465190000">
        <ele>405.00</ele>
        <time>2016-10-29T05:00:37Z</time>
      </trkpt>
      <trkpt lat="42.458999000" lon="-2.465193000">
        <ele>405.00</ele>
        <time>2016-10-29T05:00:38Z</time>
      </trkpt>
      <trkpt lat="42.459007000" lon="-2.465197000">
        <ele>404.90</ele>
        <time>2016-10-29T05:00:40Z</time>
      </trkpt>
      <trkpt lat="42.459013000" lon="-2.465200000">
        <ele>404.90</ele>
        <time>2016-10-29T05:00:41Z</time>
      </trkpt>
      <trkpt lat="42.459018000" lon="-2.465201000">
        <ele>405.00</ele>
        <time>2016-10-29T05:00:42Z</time>
      </trkpt>
      <trkpt lat="42.459025000" lon="-2.465202000">
        <ele>405.10</ele>
        <time>2016-10-29T05:00:43Z</time>
      </trkpt>
      <trkpt lat="42.459031000" lon="-2.465204000">
        <ele>405.20</ele>
        <time>2016-10-29T05:00:44Z</time>
      </trkpt>
      <trkpt lat="42.459039000" lon="-2.465209000">
        <ele>405.20</ele>
        <time>2016-10-29T05:00:45Z</time>
      </trkpt>
      <trkpt lat="42.459046000" lon="-2.465214000">
        <ele>405.20</ele>
        <time>2016-10-29T05:00:46Z</time>
      </trkpt>
      <trkpt lat="42.459050000" lon="-2.465217000">
        <ele>405.30</ele>
        <time>2016-10-29T05:00:47Z</time>
      </trkpt>
      <trkpt lat="42.459054000" lon="-2.465222000">
        <ele>405.30</ele>
        <time>2016-10-29T05:00:48Z</time>
      </trkpt>
      <trkpt lat="42.459058000" lon="-2.465226000">
        <ele>405.30</ele>
        <time>2016-10-29T05:00:49Z</time>
      </trkpt>
      <trkpt lat="42.459063000" lon="-2.465229000">
        <ele>405.30</ele>
        <time>2016-10-29T05:00:50Z</time>
      </trkpt>
      <trkpt lat="42.459065000" lon="-2.465230000">
        <ele>405.20</ele>
        <time>2016-10-29T05:00:51Z</time>
      </trkpt>
      <trkpt lat="42.459069000" lon="-2.465232000">
        <ele>405.20</ele>
        <time>2016-10-29T05:00:52Z</time>
      </trkpt>
      <trkpt lat="42.459072000" lon="-2.465231000">
        <ele>405.20</ele>
        <time>2016-10-29T05:00:53Z</time>
      </trkpt>
      <trkpt lat="42.459075000" lon="-2.465229000">
        <ele>405.20</ele>
        <time>2016-10-29T05:00:54Z</time>
      </trkpt>
      <trkpt lat="42.459079000" lon="-2.465225000">
        <ele>405.20</ele>
        <time>2016-10-29T05:00:55Z</time>
      </trkpt>
      <trkpt lat="42.459085000" lon="-2.465223000">
        <ele>405.20</ele>
        <time>2016-10-29T05:00:56Z</time>
      </trkpt>
      <trkpt lat="42.459088000" lon="-2.465222000">
        <ele>405.20</ele>
        <time>2016-10-29T05:00:57Z</time>
      </trkpt>
      <trkpt lat="42.459091000" lon="-2.465223000">
        <ele>405.20</ele>
        <time>2016-10-29T05:00:58Z</time>
      </trkpt>
      <trkpt lat="42.459095000" lon="-2.465224000">
        <ele>405.20</ele>
        <time>2016-10-29T05:00:59Z</time>
      </trkpt>
      <trkpt lat="42.459099000" lon="-2.465224000">
        <ele>405.20</ele>
        <time>2016-10-29T05:01:00Z</time>
      </trkpt>
      <trkpt lat="42.459100000" lon="-2.465224000">
        <ele>405.20</ele>
        <time>2016-10-29T05:01:01Z</time>
      </trkpt>
      <trkpt lat="42.459100000" lon="-2.465225000">
        <ele>405.20</ele>
        <time>2016-10-29T05:01:02Z</time>
      </trkpt>
      <trkpt lat="42.459099000" lon="-2.465224000">
        <ele>405.20</ele>
        <time>2016-10-29T05:01:03Z</time>
      </trkpt>
      <trkpt lat="42.459095000" lon="-2.465222000">
        <ele>405.10</ele>
        <time>2016-10-29T05:01:04Z</time>
      </trkpt>
      <trkpt lat="42.459092000" lon="-2.465222000">
        <ele>405.10</ele>
        <time>2016-10-29T05:01:05Z</time>
      </trkpt>
      <trkpt lat="42.459090000" lon="-2.465220000">
        <ele>405.10</ele>
        <time>2016-10-29T05:01:06Z</time>
      </trkpt>
      <trkpt lat="42.459086000" lon="-2.465217000">
        <ele>405.10</ele>
        <time>2016-10-29T05:01:07Z</time>
      </trkpt>
      <trkpt lat="42.459082000" lon="-2.465214000">
        <ele>405.10</ele>
        <time>2016-10-29T05:01:08Z</time>
      </trkpt>
      <trkpt lat="42.459077000" lon="-2.465213000">
        <ele>405.00</ele>
        <time>2016-10-29T05:01:09Z</time>
      </trkpt>
      <trkpt lat="42.459071000" lon="-2.465212000">
        <ele>405.10</ele>
        <time>2016-10-29T05:01:10Z</time>
      </trkpt>
      <trkpt lat="42.459065000" lon="-2.465209000">
        <ele>405.10</ele>
        <time>2016-10-29T05:01:11Z</time>
      </trkpt>
      <trkpt lat="42.459056000" lon="-2.465205000">
        <ele>405.00</ele>
        <time>2016-10-29T05:01:12Z</time>
      </trkpt>
      <trkpt lat="42.459047000" lon="-2.465200000">
        <ele>405.00</ele>
        <time>2016-10-29T05:01:13Z</time>
      </trkpt>
      <trkpt lat="42.459038000" lon="-2.465195000">
        <ele>405.00</ele>
        <time>2016-10-29T05:01:14Z</time>
      </trkpt>
      <trkpt lat="42.459030000" lon="-2.465192000">
        <ele>404.90</ele>
        <time>2016-10-29T05:01:15Z</time>
      </trkpt>
      <trkpt lat="42.459024000" lon="-2.465190000">
        <ele>404.90</ele>
        <time>2016-10-29T05:01:16Z</time>
      </trkpt>
      <trkpt lat="42.459020000" lon="-2.465190000">
        <ele>404.90</ele>
        <time>2016-10-29T05:01:17Z</time>
      </trkpt>
      <trkpt lat="42.459019000" lon="-2.465188000">
        <ele>405.00</ele>
        <time>2016-10-29T05:01:18Z</time>
      </trkpt>
      <trkpt lat="42.459019000" lon="-2.465188000">
        <ele>405.10</ele>
        <time>2016-10-29T05:01:19Z</time>
      </trkpt>
      <trkpt lat="42.459023000" lon="-2.465194000">
        <ele>405.20</ele>
        <time>2016-10-29T05:01:20Z</time>
      </trkpt>
      <trkpt lat="42.459026000" lon="-2.465199000">
        <ele>405.20</ele>
        <time>2016-10-29T05:01:21Z</time>
      </trkpt>
      <trkpt lat="42.459026000" lon="-2.465201000">
        <ele>405.30</ele>
        <time>2016-10-29T05:01:22Z</time>
      </trkpt>
      <trkpt lat="42.459024000" lon="-2.465201000">
        <ele>405.30</ele>
        <time>2016-10-29T05:01:23Z</time>
      </trkpt>
      <trkpt lat="42.459024000" lon="-2.465199000">
        <ele>405.10</ele>
        <time>2016-10-29T05:01:24Z</time>
      </trkpt>
      <trkpt lat="42.459026000" lon="-2.465197000">
        <ele>405.00</ele>
        <time>2016-10-29T05:01:25Z</time>
      </trkpt>
      <trkpt lat="42.459026000" lon="-2.465195000">
        <ele>404.90</ele>
        <time>2016-10-29T05:01:26Z</time>
      </trkpt>
      <trkpt lat="42.459028000" lon="-2.465188000">
        <ele>404.80</ele>
        <time>2016-10-29T05:01:27Z</time>
      </trkpt>
      <trkpt lat="42.459030000" lon="-2.465180000">
        <ele>404.90</ele>
        <time>2016-10-29T05:01:28Z</time>
      </trkpt>
      <trkpt lat="42.459030000" lon="-2.465174000">
        <ele>404.90</ele>
        <time>2016-10-29T05:01:29Z</time>
      </trkpt>
      <trkpt lat="42.459029000" lon="-2.465168000">
        <ele>405.00</ele>
        <time>2016-10-29T05:01:30Z</time>
      </trkpt>
      <trkpt lat="42.459029000" lon="-2.465163000">
        <ele>405.10</ele>
        <time>2016-10-29T05:01:31Z</time>
      </trkpt>
      <trkpt lat="42.459027000" lon="-2.465158000">
        <ele>405.10</ele>
        <time>2016-10-29T05:01:32Z</time>
      </trkpt>
      <trkpt lat="42.459026000" lon="-2.465150000">
        <ele>405.10</ele>
        <time>2016-10-29T05:01:33Z</time>
      </trkpt>
      <trkpt lat="42.459021000" lon="-2.465146000">
        <ele>405.10</ele>
        <time>2016-10-29T05:01:34Z</time>
      </trkpt>
      <trkpt lat="42.459020000" lon="-2.465143000">
        <ele>405.20</ele>
        <time>2016-10-29T05:01:35Z</time>
      </trkpt>
      <trkpt lat="42.459018000" lon="-2.465142000">
        <ele>405.10</ele>
        <time>2016-10-29T05:01:36Z</time>
      </trkpt>
      <trkpt lat="42.459018000" lon="-2.465142000">
        <ele>405.10</ele>
        <time>2016-10-29T05:01:37Z</time>
      </trkpt>
      <trkpt lat="42.459018000" lon="-2.465143000">
        <ele>405.10</ele>
        <time>2016-10-29T05:01:38Z</time>
      </trkpt>
      <trkpt lat="42.459016000" lon="-2.465146000">
        <ele>405.10</ele>
        <time>2016-10-29T05:01:39Z</time>
      </trkpt>
      <trkpt lat="42.459015000" lon="-2.465148000">
        <ele>405.10</ele>
        <time>2016-10-29T05:01:41Z</time>
      </trkpt>
      <trkpt lat="42.459014000" lon="-2.465148000">
        <ele>405.00</ele>
        <time>2016-10-29T05:01:42Z</time>
      </trkpt>
      <trkpt lat="42.459013000" lon="-2.465147000">
        <ele>405.00</ele>
        <time>2016-10-29T05:01:43Z</time>
      </trkpt>
      <trkpt lat="42.459012000" lon="-2.465149000">
        <ele>405.00</ele>
        <time>2016-10-29T05:01:44Z</time>
      </trkpt>
      <trkpt lat="42.459012000" lon="-2.465152000">
        <ele>405.10</ele>
        <time>2016-10-29T05:01:45Z</time>
      </trkpt>
      <trkpt lat="42.459014000" lon="-2.465155000">
        <ele>405.20</ele>
        <time>2016-10-29T05:01:46Z</time>
      </trkpt>
      <trkpt lat="42.459016000" lon="-2.465158000">
        <ele>405.20</ele>
        <time>2016-10-29T05:01:47Z</time>
      </trkpt>
      <trkpt lat="42.459019000" lon="-2.465159000">
        <ele>405.20</ele>
        <time>2016-10-29T05:01:48Z</time>
      </trkpt>
      <trkpt lat="42.459020000" lon="-2.465163000">
        <ele>405.20</ele>
        <time>2016-10-29T05:01:49Z</time>
      </trkpt>
      <trkpt lat="42.459021000" lon="-2.465167000">
        <ele>405.30</ele>
        <time>2016-10-29T05:01:50Z</time>
      </trkpt>
      <trkpt lat="42.459021000" lon="-2.465173000">
        <ele>405.30</ele>
        <time>2016-10-29T05:01:51Z</time>
      </trkpt>
      <trkpt lat="42.459022000" lon="-2.465174000">
        <ele>405.10</ele>
        <time>2016-10-29T05:01:52Z</time>
      </trkpt>
      <trkpt lat="42.459021000" lon="-2.465174000">
        <ele>405.00</ele>
        <time>2016-10-29T05:01:53Z</time>
      </trkpt>
      <trkpt lat="42.459018000" lon="-2.465171000">
        <ele>404.80</ele>
        <time>2016-10-29T05:01:54Z</time>
      </trkpt>
      <trkpt lat="42.459016000" lon="-2.465169000">
        <ele>404.80</ele>
        <time>2016-10-29T05:01:55Z</time>
      </trkpt>
      <trkpt lat="42.459013000" lon="-2.465165000">
        <ele>404.70</ele>
        <time>2016-10-29T05:01:56Z</time>
      </trkpt>
      <trkpt lat="42.459010000" lon="-2.465161000">
        <ele>404.70</ele>
        <time>2016-10-29T05:01:57Z</time>
      </trkpt>
      <trkpt lat="42.459007000" lon="-2.465158000">
        <ele>404.60</ele>
        <time>2016-10-29T05:01:58Z</time>
      </trkpt>
      <trkpt lat="42.459006000" lon="-2.465155000">
        <ele>404.60</ele>
        <time>2016-10-29T05:01:59Z</time>
      </trkpt>
      <trkpt lat="42.459007000" lon="-2.465152000">
        <ele>404.60</ele>
        <time>2016-10-29T05:02:00Z</time>
      </trkpt>
      <trkpt lat="42.459008000" lon="-2.465149000">
        <ele>404.70</ele>
        <time>2016-10-29T05:02:01Z</time>
      </trkpt>
      <trkpt lat="42.459010000" lon="-2.465146000">
        <ele>404.70</ele>
        <time>2016-10-29T05:02:02Z</time>
      </trkpt>
      <trkpt lat="42.459012000" lon="-2.465146000">
        <ele>404.80</ele>
        <time>2016-10-29T05:02:03Z</time>
      </trkpt>
      <trkpt lat="42.459014000" lon="-2.465146000">
        <ele>404.80</ele>
        <time>2016-10-29T05:02:04Z</time>
      </trkpt>
      <trkpt lat="42.459018000" lon="-2.465146000">
        <ele>404.90</ele>
        <time>2016-10-29T05:02:05Z</time>
      </trkpt>
      <trkpt lat="42.459022000" lon="-2.465148000">
        <ele>404.80</ele>
        <time>2016-10-29T05:02:06Z</time>
      </trkpt>
      <trkpt lat="42.459023000" lon="-2.465149000">
        <ele>404.70</ele>
        <time>2016-10-29T05:02:07Z</time>
      </trkpt>
      <trkpt lat="42.459021000" lon="-2.465149000">
        <ele>404.60</ele>
        <time>2016-10-29T05:02:08Z</time>
      </trkpt>
      <trkpt lat="42.459019000" lon="-2.465148000">
        <ele>404.60</ele>
        <time>2016-10-29T05:02:09Z</time>
      </trkpt>
      <trkpt lat="42.459015000" lon="-2.465146000">
        <ele>404.50</ele>
        <time>2016-10-29T05:02:10Z</time>
      </trkpt>
      <trkpt lat="42.459014000" lon="-2.465145000">
        <ele>404.50</ele>
        <time>2016-10-29T05:02:11Z</time>
      </trkpt>
      <trkpt lat="42.459014000" lon="-2.465145000">
        <ele>404.60</ele>
        <time>2016-10-29T05:02:12Z</time>
      </trkpt>
      <trkpt lat="42.459011000" lon="-2.465148000">
        <ele>404.70</ele>
        <time>2016-10-29T05:02:13Z</time>
      </trkpt>
      <trkpt lat="42.459009000" lon="-2.465149000">
        <ele>404.70</ele>
        <time>2016-10-29T05:02:14Z</time>
      </trkpt>
      <trkpt lat="42.459007000" lon="-2.465151000">
        <ele>404.80</ele>
        <time>2016-10-29T05:02:15Z</time>
      </trkpt>
      <trkpt lat="42.459008000" lon="-2.465154000">
        <ele>405.00</ele>
        <time>2016-10-29T05:02:16Z</time>
      </trkpt>
      <trkpt lat="42.459009000" lon="-2.465157000">
        <ele>405.10</ele>
        <time>2016-10-29T05:02:17Z</time>
      </trkpt>
      <trkpt lat="42.459010000" lon="-2.465158000">
        <ele>405.10</ele>
        <time>2016-10-29T05:02:18Z</time>
      </trkpt>
      <trkpt lat="42.459012000" lon="-2.465158000">
        <ele>405.00</ele>
        <time>2016-10-29T05:02:19Z</time>
      </trkpt>
      <trkpt lat="42.459014000" lon="-2.465159000">
        <ele>405.00</ele>
        <time>2016-10-29T05:02:20Z</time>
      </trkpt>
      <trkpt lat="42.459017000" lon="-2.465157000">
        <ele>405.00</ele>
        <time>2016-10-29T05:02:21Z</time>
      </trkpt>
      <trkpt lat="42.459021000" lon="-2.465154000">
        <ele>405.00</ele>
        <time>2016-10-29T05:02:22Z</time>
      </trkpt>
      <trkpt lat="42.459031000" lon="-2.465147000">
        <ele>405.00</ele>
        <time>2016-10-29T05:02:23Z</time>
      </trkpt>
      <trkpt lat="42.459035000" lon="-2.465146000">
        <ele>405.10</ele>
        <time>2016-10-29T05:02:24Z</time>
      </trkpt>
      <trkpt lat="42.459039000" lon="-2.465144000">
        <ele>405.20</ele>
        <time>2016-10-29T05:02:25Z</time>
      </trkpt>
      <trkpt lat="42.459039000" lon="-2.465146000">
        <ele>405.30</ele>
        <time>2016-10-29T05:02:26Z</time>
      </trkpt>
      <trkpt lat="42.459038000" lon="-2.465149000">
        <ele>405.30</ele>
        <time>2016-10-29T05:02:27Z</time>
      </trkpt>
      <trkpt lat="42.459044000" lon="-2.465147000">
        <ele>405.40</ele>
        <time>2016-10-29T05:02:28Z</time>
      </trkpt>
      <trkpt lat="42.459046000" lon="-2.465145000">
        <ele>405.40</ele>
        <time>2016-10-29T05:02:29Z</time>
      </trkpt>
      <trkpt lat="42.459041000" lon="-2.465147000">
        <ele>405.20</ele>
        <time>2016-10-29T05:02:30Z</time>
      </trkpt>
      <trkpt lat="42.459036000" lon="-2.465148000">
        <ele>405.10</ele>
        <time>2016-10-29T05:02:31Z</time>
      </trkpt>
      <trkpt lat="42.459039000" lon="-2.465144000">
        <ele>405.20</ele>
        <time>2016-10-29T05:02:32Z</time>
      </trkpt>
      <trkpt lat="42.459041000" lon="-2.465141000">
        <ele>405.30</ele>
        <time>2016-10-29T05:02:33Z</time>
      </trkpt>
      <trkpt lat="42.459044000" lon="-2.465142000">
        <ele>405.20</ele>
        <time>2016-10-29T05:02:34Z</time>
      </trkpt>
      <trkpt lat="42.459047000" lon="-2.465143000">
        <ele>405.10</ele>
        <time>2016-10-29T05:02:35Z</time>
      </trkpt>
      <trkpt lat="42.459050000" lon="-2.465143000">
        <ele>405.10</ele>
        <time>2016-10-29T05:02:36Z</time>
      </trkpt>
      <trkpt lat="42.459052000" lon="-2.465143000">
        <ele>405.10</ele>
        <time>2016-10-29T05:02:37Z</time>
      </trkpt>
      <trkpt lat="42.459054000" lon="-2.465147000">
        <ele>405.00</ele>
        <time>2016-10-29T05:02:38Z</time>
      </trkpt>
      <trkpt lat="42.459058000" lon="-2.465150000">
        <ele>404.90</ele>
        <time>2016-10-29T05:02:39Z</time>
      </trkpt>
      <trkpt lat="42.459062000" lon="-2.465154000">
        <ele>404.80</ele>
        <time>2016-10-29T05:02:40Z</time>
      </trkpt>
      <trkpt lat="42.459070000" lon="-2.465157000">
        <ele>404.60</ele>
        <time>2016-10-29T05:02:42Z</time>
      </trkpt>
      <trkpt lat="42.459073000" lon="-2.465157000">
        <ele>404.60</ele>
        <time>2016-10-29T05:02:43Z</time>
      </trkpt>
      <trkpt lat="42.459073000" lon="-2.465154000">
        <ele>404.70</ele>
        <time>2016-10-29T05:02:44Z</time>
      </trkpt>
      <trkpt lat="42.459071000" lon="-2.465152000">
        <ele>404.80</ele>
        <time>2016-10-29T05:02:45Z</time>
      </trkpt>
      <trkpt lat="42.459067000" lon="-2.465151000">
        <ele>404.90</ele>
        <time>2016-10-29T05:02:46Z</time>
      </trkpt>
      <trkpt lat="42.459063000" lon="-2.465148000">
        <ele>405.00</ele>
        <time>2016-10-29T05:02:47Z</time>
      </trkpt>
      <trkpt lat="42.459059000" lon="-2.465146000">
        <ele>405.00</ele>
        <time>2016-10-29T05:02:48Z</time>
      </trkpt>
      <trkpt lat="42.459054000" lon="-2.465142000">
        <ele>405.00</ele>
        <time>2016-10-29T05:02:49Z</time>
      </trkpt>
      <trkpt lat="42.459051000" lon="-2.465141000">
        <ele>405.10</ele>
        <time>2016-10-29T05:02:50Z</time>
      </trkpt>
      <trkpt lat="42.459047000" lon="-2.465143000">
        <ele>405.10</ele>
        <time>2016-10-29T05:02:51Z</time>
      </trkpt>
      <trkpt lat="42.459043000" lon="-2.465144000">
        <ele>405.10</ele>
        <time>2016-10-29T05:02:52Z</time>
      </trkpt>
      <trkpt lat="42.459041000" lon="-2.465144000">
        <ele>405.10</ele>
        <time>2016-10-29T05:02:53Z</time>
      </trkpt>
      <trkpt lat="42.459036000" lon="-2.465146000">
        <ele>405.00</ele>
        <time>2016-10-29T05:02:54Z</time>
      </trkpt>
      <trkpt lat="42.459032000" lon="-2.465148000">
        <ele>404.90</ele>
        <time>2016-10-29T05:02:55Z</time>
      </trkpt>
      <trkpt lat="42.459026000" lon="-2.465149000">
        <ele>404.80</ele>
        <time>2016-10-29T05:02:56Z</time>
      </trkpt>
      <trkpt lat="42.459023000" lon="-2.465152000">
        <ele>404.70</ele>
        <time>2016-10-29T05:02:57Z</time>
      </trkpt>
      <trkpt lat="42.459019000" lon="-2.465153000">
        <ele>404.70</ele>
        <time>2016-10-29T05:02:58Z</time>
      </trkpt>
      <trkpt lat="42.459012000" lon="-2.465153000">
        <ele>404.70</ele>
        <time>2016-10-29T05:02:59Z</time>
      </trkpt>
      <trkpt lat="42.459007000" lon="-2.465152000">
        <ele>404.80</ele>
        <time>2016-10-29T05:03:00Z</time>
      </trkpt>
      <trkpt lat="42.459000000" lon="-2.465151000">
        <ele>404.80</ele>
        <time>2016-10-29T05:03:01Z</time>
      </trkpt>
      <trkpt lat="42.458995000" lon="-2.465149000">
        <ele>404.90</ele>
        <time>2016-10-29T05:03:02Z</time>
      </trkpt>
      <trkpt lat="42.458990000" lon="-2.465148000">
        <ele>404.90</ele>
        <time>2016-10-29T05:03:03Z</time>
      </trkpt>
      <trkpt lat="42.458986000" lon="-2.465147000">
        <ele>404.90</ele>
        <time>2016-10-29T05:03:04Z</time>
      </trkpt>
      <trkpt lat="42.458984000" lon="-2.465148000">
        <ele>404.90</ele>
        <time>2016-10-29T05:03:05Z</time>
      </trkpt>
      <trkpt lat="42.458984000" lon="-2.465150000">
        <ele>404.90</ele>
        <time>2016-10-29T05:03:06Z</time>
      </trkpt>
      <trkpt lat="42.458984000" lon="-2.465152000">
        <ele>404.80</ele>
        <time>2016-10-29T05:03:07Z</time>
      </trkpt>
      <trkpt lat="42.458984000" lon="-2.465152000">
        <ele>404.80</ele>
        <time>2016-10-29T05:03:08Z</time>
      </trkpt>
      <trkpt lat="42.458984000" lon="-2.465153000">
        <ele>404.80</ele>
        <time>2016-10-29T05:03:09Z</time>
      </trkpt>
      <trkpt lat="42.458983000" lon="-2.465152000">
        <ele>404.70</ele>
        <time>2016-10-29T05:03:10Z</time>
      </trkpt>
      <trkpt lat="42.458981000" lon="-2.465151000">
        <ele>404.70</ele>
        <time>2016-10-29T05:03:11Z</time>
      </trkpt>
      <trkpt lat="42.458978000" lon="-2.465148000">
        <ele>404.60</ele>
        <time>2016-10-29T05:03:12Z</time>
      </trkpt>
      <trkpt lat="42.458974000" lon="-2.465145000">
        <ele>404.60</ele>
        <time>2016-10-29T05:03:13Z</time>
      </trkpt>
      <trkpt lat="42.458972000" lon="-2.465141000">
        <ele>404.50</ele>
        <time>2016-10-29T05:03:14Z</time>
      </trkpt>
      <trkpt lat="42.458969000" lon="-2.465137000">
        <ele>404.50</ele>
        <time>2016-10-29T05:03:15Z</time>
      </trkpt>
      <trkpt lat="42.458967000" lon="-2.465131000">
        <ele>404.50</ele>
        <time>2016-10-29T05:03:16Z</time>
      </trkpt>
      <trkpt lat="42.458966000" lon="-2.465125000">
        <ele>404.50</ele>
        <time>2016-10-29T05:03:17Z</time>
      </trkpt>
      <trkpt lat="42.458967000" lon="-2.465119000">
        <ele>404.40</ele>
        <time>2016-10-29T05:03:18Z</time>
      </trkpt>
      <trkpt lat="42.458969000" lon="-2.465117000">
        <ele>404.40</ele>
        <time>2016-10-29T05:03:19Z</time>
      </trkpt>
      <trkpt lat="42.458971000" lon="-2.465112000">
        <ele>404.40</ele>
        <time>2016-10-29T05:03:20Z</time>
      </trkpt>
      <trkpt lat="42.458973000" lon="-2.465109000">
        <ele>404.30</ele>
        <time>2016-10-29T05:03:21Z</time>
      </trkpt>
      <trkpt lat="42.458974000" lon="-2.465106000">
        <ele>404.30</ele>
        <time>2016-10-29T05:03:22Z</time>
      </trkpt>
      <trkpt lat="42.458972000" lon="-2.465103000">
        <ele>404.30</ele>
        <time>2016-10-29T05:03:23Z</time>
      </trkpt>
      <trkpt lat="42.458971000" lon="-2.465100000">
        <ele>404.30</ele>
        <time>2016-10-29T05:03:24Z</time>
      </trkpt>
      <trkpt lat="42.458968000" lon="-2.465097000">
        <ele>404.30</ele>
        <time>2016-10-29T05:03:25Z</time>
      </trkpt>
      <trkpt lat="42.458963000" lon="-2.465096000">
        <ele>404.30</ele>
        <time>2016-10-29T05:03:26Z</time>
      </trkpt>
      <trkpt lat="42.458959000" lon="-2.465096000">
        <ele>404.30</ele>
        <time>2016-10-29T05:03:27Z</time>
      </trkpt>
      <trkpt lat="42.458955000" lon="-2.465096000">
        <ele>404.30</ele>
        <time>2016-10-29T05:03:28Z</time>
      </trkpt>
      <trkpt lat="42.458953000" lon="-2.465097000">
        <ele>404.40</ele>
        <time>2016-10-29T05:03:29Z</time>
      </trkpt>
      <trkpt lat="42.458952000" lon="-2.465095000">
        <ele>404.30</ele>
        <time>2016-10-29T05:03:30Z</time>
      </trkpt>
      <trkpt lat="42.458952000" lon="-2.465094000">
        <ele>404.30</ele>
        <time>2016-10-29T05:03:31Z</time>
      </trkpt>
      <trkpt lat="42.458951000" lon="-2.465093000">
        <ele>404.40</ele>
        <time>2016-10-29T05:03:32Z</time>
      </trkpt>
      <trkpt lat="42.458952000" lon="-2.465092000">
        <ele>404.40</ele>
        <time>2016-10-29T05:03:33Z</time>
      </trkpt>
      <trkpt lat="42.458954000" lon="-2.465093000">
        <ele>404.40</ele>
        <time>2016-10-29T05:03:34Z</time>
      </trkpt>
      <trkpt lat="42.458956000" lon="-2.465094000">
        <ele>404.40</ele>
        <time>2016-10-29T05:03:35Z</time>
      </trkpt>
      <trkpt lat="42.458960000" lon="-2.465096000">
        <ele>404.50</ele>
        <time>2016-10-29T05:03:36Z</time>
      </trkpt>
      <trkpt lat="42.458963000" lon="-2.465099000">
        <ele>404.60</ele>
        <time>2016-10-29T05:03:37Z</time>
      </trkpt>
      <trkpt lat="42.458965000" lon="-2.465100000">
        <ele>404.70</ele>
        <time>2016-10-29T05:03:38Z</time>
      </trkpt>
      <trkpt lat="42.458966000" lon="-2.465102000">
        <ele>404.70</ele>
        <time>2016-10-29T05:03:39Z</time>
      </trkpt>
      <trkpt lat="42.458965000" lon="-2.465102000">
        <ele>404.80</ele>
        <time>2016-10-29T05:03:40Z</time>
      </trkpt>
      <trkpt lat="42.458965000" lon="-2.465102000">
        <ele>404.80</ele>
        <time>2016-10-29T05:03:41Z</time>
      </trkpt>
      <trkpt lat="42.458964000" lon="-2.465102000">
        <ele>404.80</ele>
        <time>2016-10-29T05:03:43Z</time>
      </trkpt>
      <trkpt lat="42.458964000" lon="-2.465102000">
        <ele>404.80</ele>
        <time>2016-10-29T05:03:44Z</time>
      </trkpt>
      <trkpt lat="42.458963000" lon="-2.465101000">
        <ele>404.90</ele>
        <time>2016-10-29T05:03:45Z</time>
      </trkpt>
      <trkpt lat="42.458962000" lon="-2.465097000">
        <ele>404.80</ele>
        <time>2016-10-29T05:03:46Z</time>
      </trkpt>
      <trkpt lat="42.458962000" lon="-2.465094000">
        <ele>404.80</ele>
        <time>2016-10-29T05:03:47Z</time>
      </trkpt>
      <trkpt lat="42.458962000" lon="-2.465094000">
        <ele>404.70</ele>
        <time>2016-10-29T05:03:48Z</time>
      </trkpt>
      <trkpt lat="42.458961000" lon="-2.465092000">
        <ele>404.60</ele>
        <time>2016-10-29T05:03:49Z</time>
      </trkpt>
      <trkpt lat="42.458962000" lon="-2.465090000">
        <ele>404.60</ele>
        <time>2016-10-29T05:03:50Z</time>
      </trkpt>
      <trkpt lat="42.458964000" lon="-2.465089000">
        <ele>404.50</ele>
        <time>2016-10-29T05:03:51Z</time>
      </trkpt>
      <trkpt lat="42.458963000" lon="-2.465087000">
        <ele>404.50</ele>
        <time>2016-10-29T05:03:52Z</time>
      </trkpt>
      <trkpt lat="42.458963000" lon="-2.465083000">
        <ele>404.50</ele>
        <time>2016-10-29T05:03:53Z</time>
      </trkpt>
      <trkpt lat="42.458963000" lon="-2.465079000">
        <ele>404.50</ele>
        <time>2016-10-29T05:03:54Z</time>
      </trkpt>
      <trkpt lat="42.458963000" lon="-2.465075000">
        <ele>404.60</ele>
        <time>2016-10-29T05:03:55Z</time>
      </trkpt>
      <trkpt lat="42.458964000" lon="-2.465072000">
        <ele>404.70</ele>
        <time>2016-10-29T05:03:56Z</time>
      </trkpt>
      <trkpt lat="42.458965000" lon="-2.465067000">
        <ele>404.80</ele>
        <time>2016-10-29T05:03:57Z</time>
      </trkpt>
      <trkpt lat="42.458965000" lon="-2.465064000">
        <ele>404.80</ele>
        <time>2016-10-29T05:03:58Z</time>
      </trkpt>
      <trkpt lat="42.458965000" lon="-2.465061000">
        <ele>404.70</ele>
        <time>2016-10-29T05:03:59Z</time>
      </trkpt>
      <trkpt lat="42.458965000" lon="-2.465060000">
        <ele>404.70</ele>
        <time>2016-10-29T05:04:00Z</time>
      </trkpt>
      <trkpt lat="42.458965000" lon="-2.465061000">
        <ele>404.60</ele>
        <time>2016-10-29T05:04:01Z</time>
      </trkpt>
      <trkpt lat="42.458964000" lon="-2.465061000">
        <ele>404.60</ele>
        <time>2016-10-29T05:04:02Z</time>
      </trkpt>
      <trkpt lat="42.458962000" lon="-2.465062000">
        <ele>404.50</ele>
        <time>2016-10-29T05:04:03Z</time>
      </trkpt>
      <trkpt lat="42.458961000" lon="-2.465061000">
        <ele>404.60</ele>
        <time>2016-10-29T05:04:04Z</time>
      </trkpt>
      <trkpt lat="42.458959000" lon="-2.465060000">
        <ele>404.60</ele>
        <time>2016-10-29T05:04:05Z</time>
      </trkpt>
      <trkpt lat="42.458957000" lon="-2.465060000">
        <ele>404.60</ele>
        <time>2016-10-29T05:04:06Z</time>
      </trkpt>
      <trkpt lat="42.458955000" lon="-2.465059000">
        <ele>404.60</ele>
        <time>2016-10-29T05:04:07Z</time>
      </trkpt>
      <trkpt lat="42.458953000" lon="-2.465058000">
        <ele>404.60</ele>
        <time>2016-10-29T05:04:08Z</time>
      </trkpt>
      <trkpt lat="42.458950000" lon="-2.465057000">
        <ele>404.50</ele>
        <time>2016-10-29T05:04:09Z</time>
      </trkpt>
      <trkpt lat="42.458949000" lon="-2.465058000">
        <ele>404.50</ele>
        <time>2016-10-29T05:04:10Z</time>
      </trkpt>
      <trkpt lat="42.458947000" lon="-2.465058000">
        <ele>404.40</ele>
        <time>2016-10-29T05:04:11Z</time>
      </trkpt>
      <trkpt lat="42.458945000" lon="-2.465058000">
        <ele>404.30</ele>
        <time>2016-10-29T05:04:12Z</time>
      </trkpt>
      <trkpt lat="42.458944000" lon="-2.465058000">
        <ele>404.30</ele>
        <time>2016-10-29T05:04:13Z</time>
      </trkpt>
      <trkpt lat="42.458947000" lon="-2.465062000">
        <ele>404.50</ele>
        <time>2016-10-29T05:04:14Z</time>
      </trkpt>
      <trkpt lat="42.458951000" lon="-2.465065000">
        <ele>404.60</ele>
        <time>2016-10-29T05:04:15Z</time>
      </trkpt>
      <trkpt lat="42.458955000" lon="-2.465068000">
        <ele>404.70</ele>
        <time>2016-10-29T05:04:16Z</time>
      </trkpt>
      <trkpt lat="42.458961000" lon="-2.465072000">
        <ele>404.80</ele>
        <time>2016-10-29T05:04:17Z</time>
      </trkpt>
      <trkpt lat="42.458970000" lon="-2.465077000">
        <ele>404.80</ele>
        <time>2016-10-29T05:04:18Z</time>
      </trkpt>
      <trkpt lat="42.458969000" lon="-2.465080000">
        <ele>404.80</ele>
        <time>2016-10-29T05:04:19Z</time>
      </trkpt>
      <trkpt lat="42.458969000" lon="-2.465082000">
        <ele>404.70</ele>
        <time>2016-10-29T05:04:20Z</time>
      </trkpt>
      <trkpt lat="42.458968000" lon="-2.465086000">
        <ele>404.60</ele>
        <time>2016-10-29T05:04:21Z</time>
      </trkpt>
      <trkpt lat="42.458968000" lon="-2.465088000">
        <ele>404.50</ele>
        <time>2016-10-29T05:04:22Z</time>
      </trkpt>
      <trkpt lat="42.458969000" lon="-2.465089000">
        <ele>404.40</ele>
        <time>2016-10-29T05:04:23Z</time>
      </trkpt>
      <trkpt lat="42.458968000" lon="-2.465091000">
        <ele>404.30</ele>
        <time>2016-10-29T05:04:24Z</time>
      </trkpt>
      <trkpt lat="42.458964000" lon="-2.465092000">
        <ele>404.30</ele>
        <time>2016-10-29T05:04:25Z</time>
      </trkpt>
      <trkpt lat="42.458960000" lon="-2.465092000">
        <ele>404.20</ele>
        <time>2016-10-29T05:04:26Z</time>
      </trkpt>
      <trkpt lat="42.458955000" lon="-2.465091000">
        <ele>404.20</ele>
        <time>2016-10-29T05:04:27Z</time>
      </trkpt>
      <trkpt lat="42.458952000" lon="-2.465091000">
        <ele>404.20</ele>
        <time>2016-10-29T05:04:28Z</time>
      </trkpt>
      <trkpt lat="42.458948000" lon="-2.465090000">
        <ele>404.20</ele>
        <time>2016-10-29T05:04:29Z</time>
      </trkpt>
      <trkpt lat="42.458943000" lon="-2.465090000">
        <ele>404.10</ele>
        <time>2016-10-29T05:04:30Z</time>
      </trkpt>
      <trkpt lat="42.458935000" lon="-2.465088000">
        <ele>404.00</ele>
        <time>2016-10-29T05:04:31Z</time>
      </trkpt>
      <trkpt lat="42.458930000" lon="-2.465085000">
        <ele>404.00</ele>
        <time>2016-10-29T05:04:32Z</time>
      </trkpt>
      <trkpt lat="42.458924000" lon="-2.465080000">
        <ele>404.00</ele>
        <time>2016-10-29T05:04:33Z</time>
      </trkpt>
      <trkpt lat="42.458919000" lon="-2.465078000">
        <ele>404.10</ele>
        <time>2016-10-29T05:04:34Z</time>
      </trkpt>
      <trkpt lat="42.458915000" lon="-2.465082000">
        <ele>404.10</ele>
        <time>2016-10-29T05:04:35Z</time>
      </trkpt>
      <trkpt lat="42.458913000" lon="-2.465089000">
        <ele>404.20</ele>
        <time>2016-10-29T05:04:36Z</time>
      </trkpt>
      <trkpt lat="42.458912000" lon="-2.465091000">
        <ele>404.20</ele>
        <time>2016-10-29T05:04:37Z</time>
      </trkpt>
      <trkpt lat="42.458914000" lon="-2.465098000">
        <ele>404.30</ele>
        <time>2016-10-29T05:04:38Z</time>
      </trkpt>
      <trkpt lat="42.458914000" lon="-2.465104000">
        <ele>404.30</ele>
        <time>2016-10-29T05:04:39Z</time>
      </trkpt>
      <trkpt lat="42.458916000" lon="-2.465111000">
        <ele>404.40</ele>
        <time>2016-10-29T05:04:40Z</time>
      </trkpt>
      <trkpt lat="42.458915000" lon="-2.465118000">
        <ele>404.50</ele>
        <time>2016-10-29T05:04:41Z</time>
      </trkpt>
      <trkpt lat="42.458916000" lon="-2.465126000">
        <ele>404.50</ele>
        <time>2016-10-29T05:04:42Z</time>
      </trkpt>
      <trkpt lat="42.458919000" lon="-2.465138000">
        <ele>404.50</ele>
        <time>2016-10-29T05:04:44Z</time>
      </trkpt>
      <trkpt lat="42.458923000" lon="-2.465141000">
        <ele>404.50</ele>
        <time>2016-10-29T05:04:45Z</time>
      </trkpt>
      <trkpt lat="42.458923000" lon="-2.465141000">
        <ele>404.50</ele>
        <time>2016-10-29T05:04:46Z</time>
      </trkpt>
      <trkpt lat="42.458922000" lon="-2.465142000">
        <ele>404.50</ele>
        <time>2016-10-29T05:04:47Z</time>
      </trkpt>
      <trkpt lat="42.458913000" lon="-2.465149000">
        <ele>404.40</ele>
        <time>2016-10-29T05:04:48Z</time>
      </trkpt>
      <trkpt lat="42.458903000" lon="-2.465153000">
        <ele>404.40</ele>
        <time>2016-10-29T05:04:49Z</time>
      </trkpt>
      <trkpt lat="42.458893000" lon="-2.465146000">
        <ele>404.40</ele>
        <time>2016-10-29T05:04:50Z</time>
      </trkpt>
      <trkpt lat="42.458885000" lon="-2.465142000">
        <ele>404.40</ele>
        <time>2016-10-29T05:04:51Z</time>
      </trkpt>
      <trkpt lat="42.458876000" lon="-2.465141000">
        <ele>404.40</ele>
        <time>2016-10-29T05:04:52Z</time>
      </trkpt>
      <trkpt lat="42.458868000" lon="-2.465139000">
        <ele>404.40</ele>
        <time>2016-10-29T05:04:53Z</time>
      </trkpt>
      <trkpt lat="42.458860000" lon="-2.465138000">
        <ele>404.30</ele>
        <time>2016-10-29T05:04:54Z</time>
      </trkpt>
      <trkpt lat="42.458842000" lon="-2.465128000">
        <ele>404.30</ele>
        <time>2016-10-29T05:04:55Z</time>
      </trkpt>
      <trkpt lat="42.458831000" lon="-2.465123000">
        <ele>404.30</ele>
        <time>2016-10-29T05:04:56Z</time>
      </trkpt>
      <trkpt lat="42.458825000" lon="-2.465114000">
        <ele>404.20</ele>
        <time>2016-10-29T05:04:57Z</time>
      </trkpt>
      <trkpt lat="42.458819000" lon="-2.465116000">
        <ele>404.20</ele>
        <time>2016-10-29T05:04:58Z</time>
      </trkpt>
      <trkpt lat="42.458809000" lon="-2.465131000">
        <ele>404.10</ele>
        <time>2016-10-29T05:04:59Z</time>
      </trkpt>
      <trkpt lat="42.458795000" lon="-2.465158000">
        <ele>404.20</ele>
        <time>2016-10-29T05:05:00Z</time>
      </trkpt>
      <trkpt lat="42.458789000" lon="-2.465179000">
        <ele>404.30</ele>
        <time>2016-10-29T05:05:01Z</time>
      </trkpt>
      <trkpt lat="42.458771000" lon="-2.465205000">
        <ele>404.30</ele>
        <time>2016-10-29T05:05:02Z</time>
      </trkpt>
      <trkpt lat="42.458756000" lon="-2.465228000">
        <ele>404.30</ele>
        <time>2016-10-29T05:05:03Z</time>
      </trkpt>
      <trkpt lat="42.458747000" lon="-2.465251000">
        <ele>404.30</ele>
        <time>2016-10-29T05:05:04Z</time>
      </trkpt>
      <trkpt lat="42.458746000" lon="-2.465259000">
        <ele>404.30</ele>
        <time>2016-10-29T05:05:05Z</time>
      </trkpt>
      <trkpt lat="42.458738000" lon="-2.465264000">
        <ele>404.30</ele>
        <time>2016-10-29T05:05:06Z</time>
      </trkpt>
      <trkpt lat="42.458738000" lon="-2.465264000">
        <ele>404.30</ele>
        <time>2016-10-29T05:05:07Z</time>
      </trkpt>
      <trkpt lat="42.458728000" lon="-2.465274000">
        <ele>404.30</ele>
        <time>2016-10-29T05:05:08Z</time>
      </trkpt>
      <trkpt lat="42.458726000" lon="-2.465277000">
        <ele>404.40</ele>
        <time>2016-10-29T05:05:09Z</time>
      </trkpt>
      <trkpt lat="42.458721000" lon="-2.465279000">
        <ele>404.40</ele>
        <time>2016-10-29T05:05:10Z</time>
      </trkpt>
      <trkpt lat="42.458717000" lon="-2.465283000">
        <ele>404.40</ele>
        <time>2016-10-29T05:05:11Z</time>
      </trkpt>
      <trkpt lat="42.458719000" lon="-2.465280000">
        <ele>404.40</ele>
        <time>2016-10-29T05:05:12Z</time>
      </trkpt>
      <trkpt lat="42.458698000" lon="-2.465302000">
        <ele>404.40</ele>
        <time>2016-10-29T05:05:13Z</time>
      </trkpt>
      <trkpt lat="42.458668000" lon="-2.465332000">
        <ele>404.30</ele>
        <time>2016-10-29T05:05:14Z</time>
      </trkpt>
      <trkpt lat="42.458645000" lon="-2.465356000">
        <ele>404.30</ele>
        <time>2016-10-29T05:05:15Z</time>
      </trkpt>
      <trkpt lat="42.458635000" lon="-2.465363000">
        <ele>404.50</ele>
        <time>2016-10-29T05:05:16Z</time>
      </trkpt>
      <trkpt lat="42.458626000" lon="-2.465369000">
        <ele>404.60</ele>
        <time>2016-10-29T05:05:17Z</time>
      </trkpt>
      <trkpt lat="42.458617000" lon="-2.465369000">
        <ele>404.60</ele>
        <time>2016-10-29T05:05:18Z</time>
      </trkpt>
      <trkpt lat="42.458609000" lon="-2.465370000">
        <ele>404.70</ele>
        <time>2016-10-29T05:05:19Z</time>
      </trkpt>
      <trkpt lat="42.458603000" lon="-2.465371000">
        <ele>404.90</ele>
        <time>2016-10-29T05:05:20Z</time>
      </trkpt>
      <trkpt lat="42.458599000" lon="-2.465375000">
        <ele>405.00</ele>
        <time>2016-10-29T05:05:21Z</time>
      </trkpt>
      <trkpt lat="42.458600000" lon="-2.465377000">
        <ele>405.00</ele>
        <time>2016-10-29T05:05:22Z</time>
      </trkpt>
      <trkpt lat="42.458600000" lon="-2.465379000">
        <ele>405.10</ele>
        <time>2016-10-29T05:05:23Z</time>
      </trkpt>
      <trkpt lat="42.458602000" lon="-2.465380000">
        <ele>405.10</ele>
        <time>2016-10-29T05:05:24Z</time>
      </trkpt>
      <trkpt lat="42.458603000" lon="-2.465378000">
        <ele>405.10</ele>
        <time>2016-10-29T05:05:25Z</time>
      </trkpt>
      <trkpt lat="42.458604000" lon="-2.465377000">
        <ele>405.10</ele>
        <time>2016-10-29T05:05:26Z</time>
      </trkpt>
      <trkpt lat="42.458605000" lon="-2.465377000">
        <ele>405.00</ele>
        <time>2016-10-29T05:05:27Z</time>
      </trkpt>
      <trkpt lat="42.458607000" lon="-2.465376000">
        <ele>405.00</ele>
        <time>2016-10-29T05:05:28Z</time>
      </trkpt>
      <trkpt lat="42.458615000" lon="-2.465372000">
        <ele>405.00</ele>
        <time>2016-10-29T05:05:29Z</time>
      </trkpt>
      <trkpt lat="42.458624000" lon="-2.465374000">
        <ele>405.10</ele>
        <time>2016-10-29T05:05:30Z</time>
      </trkpt>
      <trkpt lat="42.458630000" lon="-2.465372000">
        <ele>405.00</ele>
        <time>2016-10-29T05:05:31Z</time>
      </trkpt>
      <trkpt lat="42.458646000" lon="-2.465356000">
        <ele>405.00</ele>
        <time>2016-10-29T05:05:32Z</time>
      </trkpt>
      <trkpt lat="42.458657000" lon="-2.465346000">
        <ele>404.90</ele>
        <time>2016-10-29T05:05:33Z</time>
      </trkpt>
      <trkpt lat="42.458683000" lon="-2.465354000">
        <ele>404.80</ele>
        <time>2016-10-29T05:05:34Z</time>
      </trkpt>
      <trkpt lat="42.458697000" lon="-2.465355000">
        <ele>404.70</ele>
        <time>2016-10-29T05:05:35Z</time>
      </trkpt>
      <trkpt lat="42.458715000" lon="-2.465343000">
        <ele>404.70</ele>
        <time>2016-10-29T05:05:36Z</time>
      </trkpt>
      <trkpt lat="42.458731000" lon="-2.465322000">
        <ele>404.60</ele>
        <time>2016-10-29T05:05:37Z</time>
      </trkpt>
      <trkpt lat="42.458744000" lon="-2.465317000">
        <ele>404.60</ele>
        <time>2016-10-29T05:05:38Z</time>
      </trkpt>
      <trkpt lat="42.458757000" lon="-2.465312000">
        <ele>404.50</ele>
        <time>2016-10-29T05:05:39Z</time>
      </trkpt>
      <trkpt lat="42.458772000" lon="-2.465306000">
        <ele>404.50</ele>
        <time>2016-10-29T05:05:40Z</time>
      </trkpt>
      <trkpt lat="42.458802000" lon="-2.465264000">
        <ele>404.40</ele>
        <time>2016-10-29T05:05:41Z</time>
      </trkpt>
      <trkpt lat="42.458837000" lon="-2.465236000">
        <ele>404.40</ele>
        <time>2016-10-29T05:05:42Z</time>
      </trkpt>
      <trkpt lat="42.458868000" lon="-2.465220000">
        <ele>404.30</ele>
        <time>2016-10-29T05:05:43Z</time>
      </trkpt>
      <trkpt lat="42.458907000" lon="-2.465195000">
        <ele>404.50</ele>
        <time>2016-10-29T05:05:45Z</time>
      </trkpt>
      <trkpt lat="42.458930000" lon="-2.465199000">
        <ele>404.70</ele>
        <time>2016-10-29T05:05:46Z</time>
      </trkpt>
      <trkpt lat="42.458959000" lon="-2.465209000">
        <ele>405.00</ele>
        <time>2016-10-29T05:05:47Z</time>
      </trkpt>
      <trkpt lat="42.458986000" lon="-2.465216000">
        <ele>405.20</ele>
        <time>2016-10-29T05:05:48Z</time>
      </trkpt>
      <trkpt lat="42.459009000" lon="-2.465225000">
        <ele>405.50</ele>
        <time>2016-10-29T05:05:49Z</time>
      </trkpt>
      <trkpt lat="42.459034000" lon="-2.465231000">
        <ele>405.70</ele>
        <time>2016-10-29T05:05:50Z</time>
      </trkpt>
      <trkpt lat="42.459059000" lon="-2.465239000">
        <ele>405.90</ele>
        <time>2016-10-29T05:05:51Z</time>
      </trkpt>
      <trkpt lat="42.459078000" lon="-2.465252000">
        <ele>406.10</ele>
        <time>2016-10-29T05:05:52Z</time>
      </trkpt>
      <trkpt lat="42.459095000" lon="-2.465265000">
        <ele>406.20</ele>
        <time>2016-10-29T05:05:53Z</time>
      </trkpt>
      <trkpt lat="42.459116000" lon="-2.465279000">
        <ele>406.30</ele>
        <time>2016-10-29T05:05:54Z</time>
      </trkpt>
      <trkpt lat="42.459136000" lon="-2.465292000">
        <ele>406.40</ele>
        <time>2016-10-29T05:05:55Z</time>
      </trkpt>
      <trkpt lat="42.459157000" lon="-2.465312000">
        <ele>406.50</ele>
        <time>2016-10-29T05:05:56Z</time>
      </trkpt>
      <trkpt lat="42.459173000" lon="-2.465331000">
        <ele>406.70</ele>
        <time>2016-10-29T05:05:57Z</time>
      </trkpt>
      <trkpt lat="42.459186000" lon="-2.465350000">
        <ele>406.80</ele>
        <time>2016-10-29T05:05:58Z</time>
      </trkpt>
      <trkpt lat="42.459202000" lon="-2.465366000">
        <ele>406.90</ele>
        <time>2016-10-29T05:05:59Z</time>
      </trkpt>
      <trkpt lat="42.459220000" lon="-2.465382000">
        <ele>406.90</ele>
        <time>2016-10-29T05:06:00Z</time>
      </trkpt>
      <trkpt lat="42.459243000" lon="-2.465405000">
        <ele>407.20</ele>
        <time>2016-10-29T05:06:01Z</time>
      </trkpt>
      <trkpt lat="42.459258000" lon="-2.465429000">
        <ele>407.40</ele>
        <time>2016-10-29T05:06:02Z</time>
      </trkpt>
      <trkpt lat="42.459270000" lon="-2.465446000">
        <ele>407.60</ele>
        <time>2016-10-29T05:06:03Z</time>
      </trkpt>
      <trkpt lat="42.459284000" lon="-2.465464000">
        <ele>407.70</ele>
        <time>2016-10-29T05:06:04Z</time>
      </trkpt>
      <trkpt lat="42.459296000" lon="-2.465483000">
        <ele>407.90</ele>
        <time>2016-10-29T05:06:05Z</time>
      </trkpt>
      <trkpt lat="42.459309000" lon="-2.465512000">
        <ele>408.00</ele>
        <time>2016-10-29T05:06:06Z</time>
      </trkpt>
      <trkpt lat="42.459327000" lon="-2.465531000">
        <ele>408.10</ele>
        <time>2016-10-29T05:06:07Z</time>
      </trkpt>
      <trkpt lat="42.459347000" lon="-2.465554000">
        <ele>408.20</ele>
        <time>2016-10-29T05:06:08Z</time>
      </trkpt>
      <trkpt lat="42.459363000" lon="-2.465567000">
        <ele>408.20</ele>
        <time>2016-10-29T05:06:09Z</time>
      </trkpt>
      <trkpt lat="42.459376000" lon="-2.465586000">
        <ele>408.30</ele>
        <time>2016-10-29T05:06:10Z</time>
      </trkpt>
      <trkpt lat="42.459390000" lon="-2.465604000">
        <ele>408.30</ele>
        <time>2016-10-29T05:06:11Z</time>
      </trkpt>
      <trkpt lat="42.459401000" lon="-2.465630000">
        <ele>408.30</ele>
        <time>2016-10-29T05:06:12Z</time>
      </trkpt>
      <trkpt lat="42.459405000" lon="-2.465656000">
        <ele>408.50</ele>
        <time>2016-10-29T05:06:13Z</time>
      </trkpt>
      <trkpt lat="42.459401000" lon="-2.465682000">
        <ele>408.60</ele>
        <time>2016-10-29T05:06:14Z</time>
      </trkpt>
      <trkpt lat="42.459395000" lon="-2.465712000">
        <ele>408.60</ele>
        <time>2016-10-29T05:06:15Z</time>
      </trkpt>
      <trkpt lat="42.459390000" lon="-2.465740000">
        <ele>408.70</ele>
        <time>2016-10-29T05:06:16Z</time>
      </trkpt>
      <trkpt lat="42.459384000" lon="-2.465762000">
        <ele>408.70</ele>
        <time>2016-10-29T05:06:17Z</time>
      </trkpt>
      <trkpt lat="42.459377000" lon="-2.465786000">
        <ele>408.80</ele>
        <time>2016-10-29T05:06:18Z</time>
      </trkpt>
      <trkpt lat="42.459373000" lon="-2.465809000">
        <ele>408.80</ele>
        <time>2016-10-29T05:06:19Z</time>
      </trkpt>
      <trkpt lat="42.459367000" lon="-2.465835000">
        <ele>408.80</ele>
        <time>2016-10-29T05:06:20Z</time>
      </trkpt>
      <trkpt lat="42.459365000" lon="-2.465864000">
        <ele>408.80</ele>
        <time>2016-10-29T05:06:21Z</time>
      </trkpt>
      <trkpt lat="42.459365000" lon="-2.465888000">
        <ele>408.90</ele>
        <time>2016-10-29T05:06:22Z</time>
      </trkpt>
      <trkpt lat="42.459362000" lon="-2.465917000">
        <ele>408.90</ele>
        <time>2016-10-29T05:06:23Z</time>
      </trkpt>
      <trkpt lat="42.459358000" lon="-2.465945000">
        <ele>408.90</ele>
        <time>2016-10-29T05:06:24Z</time>
      </trkpt>
      <trkpt lat="42.459356000" lon="-2.465971000">
        <ele>408.70</ele>
        <time>2016-10-29T05:06:25Z</time>
      </trkpt>
      <trkpt lat="42.459348000" lon="-2.465994000">
        <ele>408.70</ele>
        <time>2016-10-29T05:06:26Z</time>
      </trkpt>
      <trkpt lat="42.459341000" lon="-2.466020000">
        <ele>408.60</ele>
        <time>2016-10-29T05:06:27Z</time>
      </trkpt>
      <trkpt lat="42.459333000" lon="-2.466047000">
        <ele>408.50</ele>
        <time>2016-10-29T05:06:28Z</time>
      </trkpt>
      <trkpt lat="42.459331000" lon="-2.466077000">
        <ele>408.50</ele>
        <time>2016-10-29T05:06:29Z</time>
      </trkpt>
      <trkpt lat="42.459325000" lon="-2.466101000">
        <ele>408.50</ele>
        <time>2016-10-29T05:06:30Z</time>
      </trkpt>
      <trkpt lat="42.459317000" lon="-2.466124000">
        <ele>408.50</ele>
        <time>2016-10-29T05:06:31Z</time>
      </trkpt>
      <trkpt lat="42.459310000" lon="-2.466152000">
        <ele>408.50</ele>
        <time>2016-10-29T05:06:32Z</time>
      </trkpt>
      <trkpt lat="42.459304000" lon="-2.466175000">
        <ele>408.70</ele>
        <time>2016-10-29T05:06:33Z</time>
      </trkpt>
      <trkpt lat="42.459299000" lon="-2.466204000">
        <ele>408.80</ele>
        <time>2016-10-29T05:06:34Z</time>
      </trkpt>
      <trkpt lat="42.459293000" lon="-2.466232000">
        <ele>408.80</ele>
        <time>2016-10-29T05:06:35Z</time>
      </trkpt>
      <trkpt lat="42.459287000" lon="-2.466255000">
        <ele>408.90</ele>
        <time>2016-10-29T05:06:36Z</time>
      </trkpt>
      <trkpt lat="42.459281000" lon="-2.466282000">
        <ele>408.80</ele>
        <time>2016-10-29T05:06:37Z</time>
      </trkpt>
      <trkpt lat="42.459275000" lon="-2.466310000">
        <ele>408.70</ele>
        <time>2016-10-29T05:06:38Z</time>
      </trkpt>
      <trkpt lat="42.459271000" lon="-2.466339000">
        <ele>408.70</ele>
        <time>2016-10-29T05:06:39Z</time>
      </trkpt>
      <trkpt lat="42.459263000" lon="-2.466370000">
        <ele>408.70</ele>
        <time>2016-10-29T05:06:40Z</time>
      </trkpt>
      <trkpt lat="42.459253000" lon="-2.466399000">
        <ele>408.60</ele>
        <time>2016-10-29T05:06:41Z</time>
      </trkpt>
      <trkpt lat="42.459241000" lon="-2.466426000">
        <ele>408.60</ele>
        <time>2016-10-29T05:06:42Z</time>
      </trkpt>
      <trkpt lat="42.459231000" lon="-2.466448000">
        <ele>408.60</ele>
        <time>2016-10-29T05:06:43Z</time>
      </trkpt>
      <trkpt lat="42.459218000" lon="-2.466476000">
        <ele>408.60</ele>
        <time>2016-10-29T05:06:44Z</time>
      </trkpt>
      <trkpt lat="42.459196000" lon="-2.466534000">
        <ele>408.60</ele>
        <time>2016-10-29T05:06:46Z</time>
      </trkpt>
      <trkpt lat="42.459186000" lon="-2.466559000">
        <ele>408.60</ele>
        <time>2016-10-29T05:06:47Z</time>
      </trkpt>
      <trkpt lat="42.459178000" lon="-2.466586000">
        <ele>408.60</ele>
        <time>2016-10-29T05:06:48Z</time>
      </trkpt>
      <trkpt lat="42.459171000" lon="-2.466610000">
        <ele>408.70</ele>
        <time>2016-10-29T05:06:49Z</time>
      </trkpt>
      <trkpt lat="42.459165000" lon="-2.466639000">
        <ele>408.80</ele>
        <time>2016-10-29T05:06:50Z</time>
      </trkpt>
      <trkpt lat="42.459162000" lon="-2.466671000">
        <ele>408.80</ele>
        <time>2016-10-29T05:06:51Z</time>
      </trkpt>
      <trkpt lat="42.459159000" lon="-2.466702000">
        <ele>408.90</ele>
        <time>2016-10-29T05:06:52Z</time>
      </trkpt>
      <trkpt lat="42.459157000" lon="-2.466735000">
        <ele>408.90</ele>
        <time>2016-10-29T05:06:53Z</time>
      </trkpt>
      <trkpt lat="42.459154000" lon="-2.466769000">
        <ele>409.00</ele>
        <time>2016-10-29T05:06:54Z</time>
      </trkpt>
      <trkpt lat="42.459154000" lon="-2.466799000">
        <ele>408.80</ele>
        <time>2016-10-29T05:06:55Z</time>
      </trkpt>
      <trkpt lat="42.459152000" lon="-2.466829000">
        <ele>408.70</ele>
        <time>2016-10-29T05:06:56Z</time>
      </trkpt>
      <trkpt lat="42.459150000" lon="-2.466865000">
        <ele>408.50</ele>
        <time>2016-10-29T05:06:57Z</time>
      </trkpt>
      <trkpt lat="42.459149000" lon="-2.466895000">
        <ele>408.40</ele>
        <time>2016-10-29T05:06:58Z</time>
      </trkpt>
      <trkpt lat="42.459146000" lon="-2.466926000">
        <ele>408.30</ele>
        <time>2016-10-29T05:06:59Z</time>
      </trkpt>
      <trkpt lat="42.459148000" lon="-2.466958000">
        <ele>408.20</ele>
        <time>2016-10-29T05:07:00Z</time>
      </trkpt>
      <trkpt lat="42.459148000" lon="-2.466988000">
        <ele>408.40</ele>
        <time>2016-10-29T05:07:01Z</time>
      </trkpt>
      <trkpt lat="42.459146000" lon="-2.467013000">
        <ele>408.40</ele>
        <time>2016-10-29T05:07:02Z</time>
      </trkpt>
      <trkpt lat="42.459148000" lon="-2.467041000">
        <ele>408.50</ele>
        <time>2016-10-29T05:07:03Z</time>
      </trkpt>
      <trkpt lat="42.459152000" lon="-2.467066000">
        <ele>408.60</ele>
        <time>2016-10-29T05:07:04Z</time>
      </trkpt>
      <trkpt lat="42.459151000" lon="-2.467095000">
        <ele>408.60</ele>
        <time>2016-10-29T05:07:05Z</time>
      </trkpt>
      <trkpt lat="42.459152000" lon="-2.467128000">
        <ele>408.60</ele>
        <time>2016-10-29T05:07:06Z</time>
      </trkpt>
      <trkpt lat="42.459155000" lon="-2.467160000">
        <ele>408.60</ele>
        <time>2016-10-29T05:07:07Z</time>
      </trkpt>
      <trkpt lat="42.459155000" lon="-2.467189000">
        <ele>408.60</ele>
        <time>2016-10-29T05:07:08Z</time>
      </trkpt>
      <trkpt lat="42.459151000" lon="-2.467217000">
        <ele>408.50</ele>
        <time>2016-10-29T05:07:09Z</time>
      </trkpt>
      <trkpt lat="42.459148000" lon="-2.467250000">
        <ele>408.50</ele>
        <time>2016-10-29T05:07:10Z</time>
      </trkpt>
      <trkpt lat="42.459149000" lon="-2.467282000">
        <ele>408.60</ele>
        <time>2016-10-29T05:07:11Z</time>
      </trkpt>
      <trkpt lat="42.459146000" lon="-2.467318000">
        <ele>408.70</ele>
        <time>2016-10-29T05:07:12Z</time>
      </trkpt>
      <trkpt lat="42.459146000" lon="-2.467355000">
        <ele>408.80</ele>
        <time>2016-10-29T05:07:13Z</time>
      </trkpt>
      <trkpt lat="42.459146000" lon="-2.467387000">
        <ele>408.90</ele>
        <time>2016-10-29T05:07:14Z</time>
      </trkpt>
      <trkpt lat="42.459142000" lon="-2.467421000">
        <ele>408.90</ele>
        <time>2016-10-29T05:07:15Z</time>
      </trkpt>
      <trkpt lat="42.459140000" lon="-2.467448000">
        <ele>409.00</ele>
        <time>2016-10-29T05:07:16Z</time>
      </trkpt>
      <trkpt lat="42.459140000" lon="-2.467477000">
        <ele>409.00</ele>
        <time>2016-10-29T05:07:17Z</time>
      </trkpt>
      <trkpt lat="42.459143000" lon="-2.467504000">
        <ele>409.10</ele>
        <time>2016-10-29T05:07:18Z</time>
      </trkpt>
      <trkpt lat="42.459145000" lon="-2.467534000">
        <ele>409.10</ele>
        <time>2016-10-29T05:07:19Z</time>
      </trkpt>
      <trkpt lat="42.459144000" lon="-2.467564000">
        <ele>409.10</ele>
        <time>2016-10-29T05:07:20Z</time>
      </trkpt>
      <trkpt lat="42.459138000" lon="-2.467595000">
        <ele>409.20</ele>
        <time>2016-10-29T05:07:21Z</time>
      </trkpt>
      <trkpt lat="42.459133000" lon="-2.467624000">
        <ele>409.20</ele>
        <time>2016-10-29T05:07:22Z</time>
      </trkpt>
      <trkpt lat="42.459130000" lon="-2.467655000">
        <ele>409.20</ele>
        <time>2016-10-29T05:07:23Z</time>
      </trkpt>
      <trkpt lat="42.459124000" lon="-2.467681000">
        <ele>409.20</ele>
        <time>2016-10-29T05:07:24Z</time>
      </trkpt>
      <trkpt lat="42.459122000" lon="-2.467707000">
        <ele>409.20</ele>
        <time>2016-10-29T05:07:25Z</time>
      </trkpt>
      <trkpt lat="42.459115000" lon="-2.467734000">
        <ele>409.20</ele>
        <time>2016-10-29T05:07:26Z</time>
      </trkpt>
      <trkpt lat="42.459107000" lon="-2.467759000">
        <ele>409.50</ele>
        <time>2016-10-29T05:07:27Z</time>
      </trkpt>
      <trkpt lat="42.459097000" lon="-2.467782000">
        <ele>409.70</ele>
        <time>2016-10-29T05:07:28Z</time>
      </trkpt>
      <trkpt lat="42.459087000" lon="-2.467803000">
        <ele>409.90</ele>
        <time>2016-10-29T05:07:29Z</time>
      </trkpt>
      <trkpt lat="42.459075000" lon="-2.467825000">
        <ele>410.10</ele>
        <time>2016-10-29T05:07:30Z</time>
      </trkpt>
      <trkpt lat="42.459063000" lon="-2.467846000">
        <ele>410.30</ele>
        <time>2016-10-29T05:07:31Z</time>
      </trkpt>
      <trkpt lat="42.459050000" lon="-2.467870000">
        <ele>410.40</ele>
        <time>2016-10-29T05:07:32Z</time>
      </trkpt>
      <trkpt lat="42.459036000" lon="-2.467887000">
        <ele>410.50</ele>
        <time>2016-10-29T05:07:33Z</time>
      </trkpt>
      <trkpt lat="42.459016000" lon="-2.467903000">
        <ele>410.60</ele>
        <time>2016-10-29T05:07:34Z</time>
      </trkpt>
      <trkpt lat="42.458998000" lon="-2.467918000">
        <ele>410.50</ele>
        <time>2016-10-29T05:07:35Z</time>
      </trkpt>
      <trkpt lat="42.458981000" lon="-2.467931000">
        <ele>410.50</ele>
        <time>2016-10-29T05:07:36Z</time>
      </trkpt>
      <trkpt lat="42.458962000" lon="-2.467944000">
        <ele>410.70</ele>
        <time>2016-10-29T05:07:37Z</time>
      </trkpt>
      <trkpt lat="42.458941000" lon="-2.467954000">
        <ele>410.80</ele>
        <time>2016-10-29T05:07:38Z</time>
      </trkpt>
      <trkpt lat="42.458922000" lon="-2.467967000">
        <ele>410.90</ele>
        <time>2016-10-29T05:07:39Z</time>
      </trkpt>
      <trkpt lat="42.458901000" lon="-2.467983000">
        <ele>411.00</ele>
        <time>2016-10-29T05:07:40Z</time>
      </trkpt>
      <trkpt lat="42.458882000" lon="-2.467989000">
        <ele>411.00</ele>
        <time>2016-10-29T05:07:41Z</time>
      </trkpt>
      <trkpt lat="42.458860000" lon="-2.467999000">
        <ele>411.10</ele>
        <time>2016-10-29T05:07:42Z</time>
      </trkpt>
      <trkpt lat="42.458840000" lon="-2.468007000">
        <ele>411.10</ele>
        <time>2016-10-29T05:07:43Z</time>
      </trkpt>
      <trkpt lat="42.458821000" lon="-2.468017000">
        <ele>411.10</ele>
        <time>2016-10-29T05:07:44Z</time>
      </trkpt>
      <trkpt lat="42.458801000" lon="-2.468023000">
        <ele>411.30</ele>
        <time>2016-10-29T05:07:45Z</time>
      </trkpt>
      <trkpt lat="42.458756000" lon="-2.468035000">
        <ele>411.50</ele>
        <time>2016-10-29T05:07:47Z</time>
      </trkpt>
      <trkpt lat="42.458736000" lon="-2.468036000">
        <ele>411.50</ele>
        <time>2016-10-29T05:07:48Z</time>
      </trkpt>
      <trkpt lat="42.458717000" lon="-2.468039000">
        <ele>411.60</ele>
        <time>2016-10-29T05:07:49Z</time>
      </trkpt>
      <trkpt lat="42.458699000" lon="-2.468042000">
        <ele>411.60</ele>
        <time>2016-10-29T05:07:50Z</time>
      </trkpt>
      <trkpt lat="42.458682000" lon="-2.468042000">
        <ele>411.60</ele>
        <time>2016-10-29T05:07:51Z</time>
      </trkpt>
      <trkpt lat="42.458660000" lon="-2.468046000">
        <ele>411.60</ele>
        <time>2016-10-29T05:07:52Z</time>
      </trkpt>
      <trkpt lat="42.458639000" lon="-2.468042000">
        <ele>411.70</ele>
        <time>2016-10-29T05:07:53Z</time>
      </trkpt>
      <trkpt lat="42.458616000" lon="-2.468046000">
        <ele>411.80</ele>
        <time>2016-10-29T05:07:54Z</time>
      </trkpt>
      <trkpt lat="42.458596000" lon="-2.468047000">
        <ele>411.90</ele>
        <time>2016-10-29T05:07:55Z</time>
      </trkpt>
      <trkpt lat="42.458577000" lon="-2.468045000">
        <ele>411.90</ele>
        <time>2016-10-29T05:07:56Z</time>
      </trkpt>
      <trkpt lat="42.458556000" lon="-2.468046000">
        <ele>412.00</ele>
        <time>2016-10-29T05:07:57Z</time>
      </trkpt>
      <trkpt lat="42.458537000" lon="-2.468046000">
        <ele>412.00</ele>
        <time>2016-10-29T05:07:58Z</time>
      </trkpt>
      <trkpt lat="42.458518000" lon="-2.468043000">
        <ele>412.00</ele>
        <time>2016-10-29T05:07:59Z</time>
      </trkpt>
      <trkpt lat="42.458498000" lon="-2.468039000">
        <ele>412.10</ele>
        <time>2016-10-29T05:08:00Z</time>
      </trkpt>
      <trkpt lat="42.458477000" lon="-2.468041000">
        <ele>412.10</ele>
        <time>2016-10-29T05:08:01Z</time>
      </trkpt>
      <trkpt lat="42.458455000" lon="-2.468041000">
        <ele>412.10</ele>
        <time>2016-10-29T05:08:02Z</time>
      </trkpt>
      <trkpt lat="42.458431000" lon="-2.468043000">
        <ele>412.20</ele>
        <time>2016-10-29T05:08:03Z</time>
      </trkpt>
      <trkpt lat="42.458408000" lon="-2.468049000">
        <ele>412.20</ele>
        <time>2016-10-29T05:08:04Z</time>
      </trkpt>
      <trkpt lat="42.458385000" lon="-2.468055000">
        <ele>412.30</ele>
        <time>2016-10-29T05:08:05Z</time>
      </trkpt>
      <trkpt lat="42.458365000" lon="-2.468061000">
        <ele>412.30</ele>
        <time>2016-10-29T05:08:06Z</time>
      </trkpt>
      <trkpt lat="42.458347000" lon="-2.468065000">
        <ele>412.30</ele>
        <time>2016-10-29T05:08:07Z</time>
      </trkpt>
      <trkpt lat="42.458330000" lon="-2.468071000">
        <ele>412.30</ele>
        <time>2016-10-29T05:08:08Z</time>
      </trkpt>
      <trkpt lat="42.458314000" lon="-2.468082000">
        <ele>412.30</ele>
        <time>2016-10-29T05:08:09Z</time>
      </trkpt>
      <trkpt lat="42.458299000" lon="-2.468098000">
        <ele>412.30</ele>
        <time>2016-10-29T05:08:10Z</time>
      </trkpt>
      <trkpt lat="42.458287000" lon="-2.468115000">
        <ele>412.40</ele>
        <time>2016-10-29T05:08:11Z</time>
      </trkpt>
      <trkpt lat="42.458274000" lon="-2.468137000">
        <ele>412.50</ele>
        <time>2016-10-29T05:08:12Z</time>
      </trkpt>
      <trkpt lat="42.458264000" lon="-2.468159000">
        <ele>412.50</ele>
        <time>2016-10-29T05:08:13Z</time>
      </trkpt>
      <trkpt lat="42.458255000" lon="-2.468184000">
        <ele>412.50</ele>
        <time>2016-10-29T05:08:14Z</time>
      </trkpt>
      <trkpt lat="42.458245000" lon="-2.468211000">
        <ele>412.60</ele>
        <time>2016-10-29T05:08:15Z</time>
      </trkpt>
      <trkpt lat="42.458237000" lon="-2.468236000">
        <ele>412.70</ele>
        <time>2016-10-29T05:08:16Z</time>
      </trkpt>
      <trkpt lat="42.458238000" lon="-2.468264000">
        <ele>412.70</ele>
        <time>2016-10-29T05:08:17Z</time>
      </trkpt>
      <trkpt lat="42.458245000" lon="-2.468298000">
        <ele>412.70</ele>
        <time>2016-10-29T05:08:18Z</time>
      </trkpt>
      <trkpt lat="42.458250000" lon="-2.468327000">
        <ele>412.70</ele>
        <time>2016-10-29T05:08:19Z</time>
      </trkpt>
      <trkpt lat="42.458249000" lon="-2.468356000">
        <ele>412.80</ele>
        <time>2016-10-29T05:08:20Z</time>
      </trkpt>
      <trkpt lat="42.458253000" lon="-2.468382000">
        <ele>412.80</ele>
        <time>2016-10-29T05:08:21Z</time>
      </trkpt>
      <trkpt lat="42.458258000" lon="-2.468407000">
        <ele>412.90</ele>
        <time>2016-10-29T05:08:22Z</time>
      </trkpt>
      <trkpt lat="42.458263000" lon="-2.468432000">
        <ele>412.90</ele>
        <time>2016-10-29T05:08:23Z</time>
      </trkpt>
      <trkpt lat="42.458268000" lon="-2.468457000">
        <ele>413.00</ele>
        <time>2016-10-29T05:08:24Z</time>
      </trkpt>
      <trkpt lat="42.458270000" lon="-2.468483000">
        <ele>413.00</ele>
        <time>2016-10-29T05:08:25Z</time>
      </trkpt>
      <trkpt lat="42.458272000" lon="-2.468510000">
        <ele>413.00</ele>
        <time>2016-10-29T05:08:26Z</time>
      </trkpt>
      <trkpt lat="42.458275000" lon="-2.468537000">
        <ele>413.00</ele>
        <time>2016-10-29T05:08:27Z</time>
      </trkpt>
      <trkpt lat="42.458281000" lon="-2.468566000">
        <ele>412.90</ele>
        <time>2016-10-29T05:08:28Z</time>
      </trkpt>
      <trkpt lat="42.458283000" lon="-2.468590000">
        <ele>412.90</ele>
        <time>2016-10-29T05:08:29Z</time>
      </trkpt>
      <trkpt lat="42.458288000" lon="-2.468616000">
        <ele>412.90</ele>
        <time>2016-10-29T05:08:30Z</time>
      </trkpt>
      <trkpt lat="42.458290000" lon="-2.468640000">
        <ele>412.90</ele>
        <time>2016-10-29T05:08:31Z</time>
      </trkpt>
      <trkpt lat="42.458290000" lon="-2.468672000">
        <ele>412.80</ele>
        <time>2016-10-29T05:08:32Z</time>
      </trkpt>
      <trkpt lat="42.458290000" lon="-2.468701000">
        <ele>412.80</ele>
        <time>2016-10-29T05:08:33Z</time>
      </trkpt>
      <trkpt lat="42.458291000" lon="-2.468728000">
        <ele>412.80</ele>
        <time>2016-10-29T05:08:34Z</time>
      </trkpt>
      <trkpt lat="42.458292000" lon="-2.468758000">
        <ele>412.80</ele>
        <time>2016-10-29T05:08:35Z</time>
      </trkpt>
      <trkpt lat="42.458294000" lon="-2.468789000">
        <ele>412.80</ele>
        <time>2016-10-29T05:08:36Z</time>
      </trkpt>
      <trkpt lat="42.458295000" lon="-2.468822000">
        <ele>412.70</ele>
        <time>2016-10-29T05:08:37Z</time>
      </trkpt>
      <trkpt lat="42.458300000" lon="-2.468851000">
        <ele>412.70</ele>
        <time>2016-10-29T05:08:38Z</time>
      </trkpt>
      <trkpt lat="42.458302000" lon="-2.468880000">
        <ele>412.70</ele>
        <time>2016-10-29T05:08:39Z</time>
      </trkpt>
      <trkpt lat="42.458305000" lon="-2.468913000">
        <ele>412.60</ele>
        <time>2016-10-29T05:08:40Z</time>
      </trkpt>
      <trkpt lat="42.458307000" lon="-2.468945000">
        <ele>412.80</ele>
        <time>2016-10-29T05:08:41Z</time>
      </trkpt>
      <trkpt lat="42.458308000" lon="-2.468980000">
        <ele>412.90</ele>
        <time>2016-10-29T05:08:42Z</time>
      </trkpt>
      <trkpt lat="42.458312000" lon="-2.469009000">
        <ele>413.10</ele>
        <time>2016-10-29T05:08:43Z</time>
      </trkpt>
      <trkpt lat="42.458314000" lon="-2.469038000">
        <ele>413.20</ele>
        <time>2016-10-29T05:08:44Z</time>
      </trkpt>
      <trkpt lat="42.458318000" lon="-2.469068000">
        <ele>413.30</ele>
        <time>2016-10-29T05:08:45Z</time>
      </trkpt>
      <trkpt lat="42.458320000" lon="-2.469099000">
        <ele>413.40</ele>
        <time>2016-10-29T05:08:46Z</time>
      </trkpt>
      <trkpt lat="42.458322000" lon="-2.469165000">
        <ele>413.50</ele>
        <time>2016-10-29T05:08:48Z</time>
      </trkpt>
      <trkpt lat="42.458323000" lon="-2.469199000">
        <ele>413.50</ele>
        <time>2016-10-29T05:08:49Z</time>
      </trkpt>
      <trkpt lat="42.458322000" lon="-2.469236000">
        <ele>413.50</ele>
        <time>2016-10-29T05:08:50Z</time>
      </trkpt>
      <trkpt lat="42.458326000" lon="-2.469272000">
        <ele>413.50</ele>
        <time>2016-10-29T05:08:51Z</time>
      </trkpt>
      <trkpt lat="42.458328000" lon="-2.469311000">
        <ele>413.50</ele>
        <time>2016-10-29T05:08:52Z</time>
      </trkpt>
      <trkpt lat="42.458329000" lon="-2.469350000">
        <ele>413.50</ele>
        <time>2016-10-29T05:08:53Z</time>
      </trkpt>
      <trkpt lat="42.458332000" lon="-2.469391000">
        <ele>413.60</ele>
        <time>2016-10-29T05:08:54Z</time>
      </trkpt>
      <trkpt lat="42.458334000" lon="-2.469426000">
        <ele>413.50</ele>
        <time>2016-10-29T05:08:55Z</time>
      </trkpt>
      <trkpt lat="42.458335000" lon="-2.469463000">
        <ele>413.40</ele>
        <time>2016-10-29T05:08:56Z</time>
      </trkpt>
      <trkpt lat="42.458335000" lon="-2.469505000">
        <ele>413.40</ele>
        <time>2016-10-29T05:08:57Z</time>
      </trkpt>
      <trkpt lat="42.458337000" lon="-2.469546000">
        <ele>413.30</ele>
        <time>2016-10-29T05:08:58Z</time>
      </trkpt>
      <trkpt lat="42.458338000" lon="-2.469587000">
        <ele>413.20</ele>
        <time>2016-10-29T05:08:59Z</time>
      </trkpt>
      <trkpt lat="42.458341000" lon="-2.469628000">
        <ele>413.10</ele>
        <time>2016-10-29T05:09:00Z</time>
      </trkpt>
      <trkpt lat="42.458342000" lon="-2.469671000">
        <ele>413.00</ele>
        <time>2016-10-29T05:09:01Z</time>
      </trkpt>
      <trkpt lat="42.458344000" lon="-2.469714000">
        <ele>412.90</ele>
        <time>2016-10-29T05:09:02Z</time>
      </trkpt>
      <trkpt lat="42.458339000" lon="-2.469756000">
        <ele>412.90</ele>
        <time>2016-10-29T05:09:03Z</time>
      </trkpt>
      <trkpt lat="42.458337000" lon="-2.469796000">
        <ele>412.90</ele>
        <time>2016-10-29T05:09:04Z</time>
      </trkpt>
      <trkpt lat="42.458335000" lon="-2.469835000">
        <ele>412.90</ele>
        <time>2016-10-29T05:09:05Z</time>
      </trkpt>
      <trkpt lat="42.458331000" lon="-2.469869000">
        <ele>413.00</ele>
        <time>2016-10-29T05:09:06Z</time>
      </trkpt>
      <trkpt lat="42.458330000" lon="-2.469907000">
        <ele>413.00</ele>
        <time>2016-10-29T05:09:07Z</time>
      </trkpt>
      <trkpt lat="42.458328000" lon="-2.469946000">
        <ele>413.00</ele>
        <time>2016-10-29T05:09:08Z</time>
      </trkpt>
      <trkpt lat="42.458323000" lon="-2.469987000">
        <ele>413.00</ele>
        <time>2016-10-29T05:09:09Z</time>
      </trkpt>
      <trkpt lat="42.458316000" lon="-2.470026000">
        <ele>413.00</ele>
        <time>2016-10-29T05:09:10Z</time>
      </trkpt>
      <trkpt lat="42.458314000" lon="-2.470060000">
        <ele>413.00</ele>
        <time>2016-10-29T05:09:11Z</time>
      </trkpt>
      <trkpt lat="42.458312000" lon="-2.470094000">
        <ele>413.00</ele>
        <time>2016-10-29T05:09:12Z</time>
      </trkpt>
      <trkpt lat="42.458304000" lon="-2.470131000">
        <ele>412.80</ele>
        <time>2016-10-29T05:09:13Z</time>
      </trkpt>
      <trkpt lat="42.458300000" lon="-2.470171000">
        <ele>412.70</ele>
        <time>2016-10-29T05:09:14Z</time>
      </trkpt>
      <trkpt lat="42.458294000" lon="-2.470208000">
        <ele>412.70</ele>
        <time>2016-10-29T05:09:15Z</time>
      </trkpt>
      <trkpt lat="42.458287000" lon="-2.470248000">
        <ele>412.60</ele>
        <time>2016-10-29T05:09:16Z</time>
      </trkpt>
      <trkpt lat="42.458278000" lon="-2.470286000">
        <ele>412.70</ele>
        <time>2016-10-29T05:09:17Z</time>
      </trkpt>
      <trkpt lat="42.458270000" lon="-2.470323000">
        <ele>412.70</ele>
        <time>2016-10-29T05:09:18Z</time>
      </trkpt>
      <trkpt lat="42.458259000" lon="-2.470357000">
        <ele>412.80</ele>
        <time>2016-10-29T05:09:19Z</time>
      </trkpt>
      <trkpt lat="42.458251000" lon="-2.470391000">
        <ele>412.80</ele>
        <time>2016-10-29T05:09:20Z</time>
      </trkpt>
      <trkpt lat="42.458239000" lon="-2.470429000">
        <ele>412.80</ele>
        <time>2016-10-29T05:09:21Z</time>
      </trkpt>
      <trkpt lat="42.458226000" lon="-2.470469000">
        <ele>412.80</ele>
        <time>2016-10-29T05:09:22Z</time>
      </trkpt>
      <trkpt lat="42.458216000" lon="-2.470503000">
        <ele>412.90</ele>
        <time>2016-10-29T05:09:23Z</time>
      </trkpt>
      <trkpt lat="42.458204000" lon="-2.470537000">
        <ele>412.90</ele>
        <time>2016-10-29T05:09:24Z</time>
      </trkpt>
      <trkpt lat="42.458191000" lon="-2.470576000">
        <ele>412.90</ele>
        <time>2016-10-29T05:09:25Z</time>
      </trkpt>
      <trkpt lat="42.458178000" lon="-2.470613000">
        <ele>412.90</ele>
        <time>2016-10-29T05:09:26Z</time>
      </trkpt>
      <trkpt lat="42.458161000" lon="-2.470648000">
        <ele>412.90</ele>
        <time>2016-10-29T05:09:27Z</time>
      </trkpt>
      <trkpt lat="42.458145000" lon="-2.470678000">
        <ele>412.90</ele>
        <time>2016-10-29T05:09:28Z</time>
      </trkpt>
      <trkpt lat="42.458127000" lon="-2.470707000">
        <ele>412.80</ele>
        <time>2016-10-29T05:09:29Z</time>
      </trkpt>
      <trkpt lat="42.458110000" lon="-2.470733000">
        <ele>412.80</ele>
        <time>2016-10-29T05:09:30Z</time>
      </trkpt>
      <trkpt lat="42.458093000" lon="-2.470758000">
        <ele>412.70</ele>
        <time>2016-10-29T05:09:31Z</time>
      </trkpt>
      <trkpt lat="42.458072000" lon="-2.470787000">
        <ele>412.70</ele>
        <time>2016-10-29T05:09:32Z</time>
      </trkpt>
      <trkpt lat="42.458055000" lon="-2.470819000">
        <ele>412.80</ele>
        <time>2016-10-29T05:09:33Z</time>
      </trkpt>
      <trkpt lat="42.458039000" lon="-2.470848000">
        <ele>412.80</ele>
        <time>2016-10-29T05:09:34Z</time>
      </trkpt>
      <trkpt lat="42.458022000" lon="-2.470880000">
        <ele>412.80</ele>
        <time>2016-10-29T05:09:35Z</time>
      </trkpt>
      <trkpt lat="42.458010000" lon="-2.470902000">
        <ele>412.80</ele>
        <time>2016-10-29T05:09:36Z</time>
      </trkpt>
      <trkpt lat="42.457994000" lon="-2.470931000">
        <ele>412.90</ele>
        <time>2016-10-29T05:09:37Z</time>
      </trkpt>
      <trkpt lat="42.457976000" lon="-2.470963000">
        <ele>412.90</ele>
        <time>2016-10-29T05:09:38Z</time>
      </trkpt>
      <trkpt lat="42.457961000" lon="-2.470992000">
        <ele>413.00</ele>
        <time>2016-10-29T05:09:39Z</time>
      </trkpt>
      <trkpt lat="42.457945000" lon="-2.471022000">
        <ele>413.00</ele>
        <time>2016-10-29T05:09:40Z</time>
      </trkpt>
      <trkpt lat="42.457929000" lon="-2.471050000">
        <ele>413.10</ele>
        <time>2016-10-29T05:09:41Z</time>
      </trkpt>
      <trkpt lat="42.457913000" lon="-2.471084000">
        <ele>413.10</ele>
        <time>2016-10-29T05:09:42Z</time>
      </trkpt>
      <trkpt lat="42.457897000" lon="-2.471121000">
        <ele>413.20</ele>
        <time>2016-10-29T05:09:43Z</time>
      </trkpt>
      <trkpt lat="42.457882000" lon="-2.471153000">
        <ele>413.20</ele>
        <time>2016-10-29T05:09:44Z</time>
      </trkpt>
      <trkpt lat="42.457870000" lon="-2.471186000">
        <ele>413.20</ele>
        <time>2016-10-29T05:09:45Z</time>
      </trkpt>
      <trkpt lat="42.457858000" lon="-2.471221000">
        <ele>413.30</ele>
        <time>2016-10-29T05:09:46Z</time>
      </trkpt>
      <trkpt lat="42.457844000" lon="-2.471259000">
        <ele>413.30</ele>
        <time>2016-10-29T05:09:47Z</time>
      </trkpt>
      <trkpt lat="42.457817000" lon="-2.471332000">
        <ele>413.60</ele>
        <time>2016-10-29T05:09:49Z</time>
      </trkpt>
      <trkpt lat="42.457808000" lon="-2.471369000">
        <ele>413.70</ele>
        <time>2016-10-29T05:09:50Z</time>
      </trkpt>
      <trkpt lat="42.457792000" lon="-2.471403000">
        <ele>413.80</ele>
        <time>2016-10-29T05:09:51Z</time>
      </trkpt>
      <trkpt lat="42.457780000" lon="-2.471439000">
        <ele>413.90</ele>
        <time>2016-10-29T05:09:52Z</time>
      </trkpt>
      <trkpt lat="42.457769000" lon="-2.471472000">
        <ele>413.90</ele>
        <time>2016-10-29T05:09:53Z</time>
      </trkpt>
      <trkpt lat="42.457753000" lon="-2.471508000">
        <ele>414.00</ele>
        <time>2016-10-29T05:09:54Z</time>
      </trkpt>
      <trkpt lat="42.457739000" lon="-2.471548000">
        <ele>413.70</ele>
        <time>2016-10-29T05:09:55Z</time>
      </trkpt>
      <trkpt lat="42.457728000" lon="-2.471590000">
        <ele>413.60</ele>
        <time>2016-10-29T05:09:56Z</time>
      </trkpt>
      <trkpt lat="42.457716000" lon="-2.471639000">
        <ele>413.40</ele>
        <time>2016-10-29T05:09:57Z</time>
      </trkpt>
      <trkpt lat="42.457702000" lon="-2.471687000">
        <ele>413.30</ele>
        <time>2016-10-29T05:09:58Z</time>
      </trkpt>
      <trkpt lat="42.457686000" lon="-2.471735000">
        <ele>413.20</ele>
        <time>2016-10-29T05:09:59Z</time>
      </trkpt>
      <trkpt lat="42.457667000" lon="-2.471782000">
        <ele>413.10</ele>
        <time>2016-10-29T05:10:00Z</time>
      </trkpt>
      <trkpt lat="42.457646000" lon="-2.471834000">
        <ele>413.00</ele>
        <time>2016-10-29T05:10:01Z</time>
      </trkpt>
      <trkpt lat="42.457630000" lon="-2.471887000">
        <ele>413.00</ele>
        <time>2016-10-29T05:10:02Z</time>
      </trkpt>
      <trkpt lat="42.457611000" lon="-2.471945000">
        <ele>412.90</ele>
        <time>2016-10-29T05:10:03Z</time>
      </trkpt>
      <trkpt lat="42.457583000" lon="-2.471994000">
        <ele>412.90</ele>
        <time>2016-10-29T05:10:04Z</time>
      </trkpt>
      <trkpt lat="42.457552000" lon="-2.472027000">
        <ele>412.80</ele>
        <time>2016-10-29T05:10:05Z</time>
      </trkpt>
      <trkpt lat="42.457512000" lon="-2.472051000">
        <ele>412.70</ele>
        <time>2016-10-29T05:10:06Z</time>
      </trkpt>
      <trkpt lat="42.457470000" lon="-2.472090000">
        <ele>412.20</ele>
        <time>2016-10-29T05:10:07Z</time>
      </trkpt>
      <trkpt lat="42.457447000" lon="-2.472152000">
        <ele>411.80</ele>
        <time>2016-10-29T05:10:08Z</time>
      </trkpt>
      <trkpt lat="42.457427000" lon="-2.472213000">
        <ele>411.40</ele>
        <time>2016-10-29T05:10:09Z</time>
      </trkpt>
      <trkpt lat="42.457412000" lon="-2.472266000">
        <ele>411.20</ele>
        <time>2016-10-29T05:10:10Z</time>
      </trkpt>
      <trkpt lat="42.457397000" lon="-2.472319000">
        <ele>411.00</ele>
        <time>2016-10-29T05:10:11Z</time>
      </trkpt>
      <trkpt lat="42.457384000" lon="-2.472369000">
        <ele>410.90</ele>
        <time>2016-10-29T05:10:12Z</time>
      </trkpt>
      <trkpt lat="42.457368000" lon="-2.472416000">
        <ele>410.80</ele>
        <time>2016-10-29T05:10:13Z</time>
      </trkpt>
      <trkpt lat="42.457357000" lon="-2.472457000">
        <ele>410.70</ele>
        <time>2016-10-29T05:10:14Z</time>
      </trkpt>
      <trkpt lat="42.457349000" lon="-2.472495000">
        <ele>410.50</ele>
        <time>2016-10-29T05:10:15Z</time>
      </trkpt>
      <trkpt lat="42.457343000" lon="-2.472532000">
        <ele>410.40</ele>
        <time>2016-10-29T05:10:16Z</time>
      </trkpt>
      <trkpt lat="42.457338000" lon="-2.472571000">
        <ele>410.30</ele>
        <time>2016-10-29T05:10:17Z</time>
      </trkpt>
      <trkpt lat="42.457337000" lon="-2.472610000">
        <ele>410.20</ele>
        <time>2016-10-29T05:10:18Z</time>
      </trkpt>
      <trkpt lat="42.457340000" lon="-2.472650000">
        <ele>410.30</ele>
        <time>2016-10-29T05:10:19Z</time>
      </trkpt>
      <trkpt lat="42.457339000" lon="-2.472690000">
        <ele>410.30</ele>
        <time>2016-10-29T05:10:20Z</time>
      </trkpt>
      <trkpt lat="42.457335000" lon="-2.472734000">
        <ele>410.40</ele>
        <time>2016-10-29T05:10:21Z</time>
      </trkpt>
      <trkpt lat="42.457328000" lon="-2.472773000">
        <ele>410.40</ele>
        <time>2016-10-29T05:10:22Z</time>
      </trkpt>
      <trkpt lat="42.457317000" lon="-2.472809000">
        <ele>410.50</ele>
        <time>2016-10-29T05:10:23Z</time>
      </trkpt>
      <trkpt lat="42.457300000" lon="-2.472840000">
        <ele>410.60</ele>
        <time>2016-10-29T05:10:24Z</time>
      </trkpt>
      <trkpt lat="42.457283000" lon="-2.472868000">
        <ele>410.50</ele>
        <time>2016-10-29T05:10:25Z</time>
      </trkpt>
      <trkpt lat="42.457260000" lon="-2.472890000">
        <ele>410.50</ele>
        <time>2016-10-29T05:10:26Z</time>
      </trkpt>
      <trkpt lat="42.457236000" lon="-2.472912000">
        <ele>410.80</ele>
        <time>2016-10-29T05:10:27Z</time>
      </trkpt>
      <trkpt lat="42.457214000" lon="-2.472935000">
        <ele>410.90</ele>
        <time>2016-10-29T05:10:28Z</time>
      </trkpt>
      <trkpt lat="42.457197000" lon="-2.472955000">
        <ele>410.80</ele>
        <time>2016-10-29T05:10:29Z</time>
      </trkpt>
      <trkpt lat="42.457180000" lon="-2.472977000">
        <ele>410.70</ele>
        <time>2016-10-29T05:10:30Z</time>
      </trkpt>
      <trkpt lat="42.457168000" lon="-2.472998000">
        <ele>410.70</ele>
        <time>2016-10-29T05:10:31Z</time>
      </trkpt>
      <trkpt lat="42.457154000" lon="-2.473010000">
        <ele>410.60</ele>
        <time>2016-10-29T05:10:32Z</time>
      </trkpt>
      <trkpt lat="42.457136000" lon="-2.473025000">
        <ele>410.60</ele>
        <time>2016-10-29T05:10:33Z</time>
      </trkpt>
      <trkpt lat="42.457113000" lon="-2.473038000">
        <ele>410.50</ele>
        <time>2016-10-29T05:10:34Z</time>
      </trkpt>
      <trkpt lat="42.457081000" lon="-2.473044000">
        <ele>410.60</ele>
        <time>2016-10-29T05:10:35Z</time>
      </trkpt>
      <trkpt lat="42.457049000" lon="-2.473045000">
        <ele>410.70</ele>
        <time>2016-10-29T05:10:36Z</time>
      </trkpt>
      <trkpt lat="42.457014000" lon="-2.473038000">
        <ele>410.90</ele>
        <time>2016-10-29T05:10:37Z</time>
      </trkpt>
      <trkpt lat="42.456982000" lon="-2.473028000">
        <ele>411.00</ele>
        <time>2016-10-29T05:10:38Z</time>
      </trkpt>
      <trkpt lat="42.456952000" lon="-2.473013000">
        <ele>411.20</ele>
        <time>2016-10-29T05:10:39Z</time>
      </trkpt>
      <trkpt lat="42.456922000" lon="-2.473001000">
        <ele>411.30</ele>
        <time>2016-10-29T05:10:40Z</time>
      </trkpt>
      <trkpt lat="42.456891000" lon="-2.472995000">
        <ele>411.60</ele>
        <time>2016-10-29T05:10:41Z</time>
      </trkpt>
      <trkpt lat="42.456862000" lon="-2.472989000">
        <ele>411.80</ele>
        <time>2016-10-29T05:10:42Z</time>
      </trkpt>
      <trkpt lat="42.456834000" lon="-2.472992000">
        <ele>412.00</ele>
        <time>2016-10-29T05:10:43Z</time>
      </trkpt>
      <trkpt lat="42.456810000" lon="-2.473003000">
        <ele>412.10</ele>
        <time>2016-10-29T05:10:44Z</time>
      </trkpt>
      <trkpt lat="42.456788000" lon="-2.473025000">
        <ele>412.20</ele>
        <time>2016-10-29T05:10:45Z</time>
      </trkpt>
      <trkpt lat="42.456769000" lon="-2.473047000">
        <ele>412.20</ele>
        <time>2016-10-29T05:10:46Z</time>
      </trkpt>
      <trkpt lat="42.456751000" lon="-2.473071000">
        <ele>412.30</ele>
        <time>2016-10-29T05:10:47Z</time>
      </trkpt>
      <trkpt lat="42.456734000" lon="-2.473097000">
        <ele>412.30</ele>
        <time>2016-10-29T05:10:48Z</time>
      </trkpt>
      <trkpt lat="42.456705000" lon="-2.473151000">
        <ele>412.30</ele>
        <time>2016-10-29T05:10:50Z</time>
      </trkpt>
      <trkpt lat="42.456688000" lon="-2.473178000">
        <ele>412.50</ele>
        <time>2016-10-29T05:10:51Z</time>
      </trkpt>
      <trkpt lat="42.456671000" lon="-2.473210000">
        <ele>412.60</ele>
        <time>2016-10-29T05:10:52Z</time>
      </trkpt>
      <trkpt lat="42.456656000" lon="-2.473236000">
        <ele>412.90</ele>
        <time>2016-10-29T05:10:53Z</time>
      </trkpt>
      <trkpt lat="42.456642000" lon="-2.473264000">
        <ele>413.20</ele>
        <time>2016-10-29T05:10:54Z</time>
      </trkpt>
      <trkpt lat="42.456629000" lon="-2.473291000">
        <ele>413.30</ele>
        <time>2016-10-29T05:10:55Z</time>
      </trkpt>
      <trkpt lat="42.456616000" lon="-2.473320000">
        <ele>413.50</ele>
        <time>2016-10-29T05:10:56Z</time>
      </trkpt>
      <trkpt lat="42.456601000" lon="-2.473349000">
        <ele>413.60</ele>
        <time>2016-10-29T05:10:57Z</time>
      </trkpt>
      <trkpt lat="42.456585000" lon="-2.473379000">
        <ele>413.70</ele>
        <time>2016-10-29T05:10:58Z</time>
      </trkpt>
      <trkpt lat="42.456573000" lon="-2.473411000">
        <ele>413.90</ele>
        <time>2016-10-29T05:10:59Z</time>
      </trkpt>
      <trkpt lat="42.456559000" lon="-2.473443000">
        <ele>414.10</ele>
        <time>2016-10-29T05:11:00Z</time>
      </trkpt>
      <trkpt lat="42.456550000" lon="-2.473475000">
        <ele>414.30</ele>
        <time>2016-10-29T05:11:01Z</time>
      </trkpt>
      <trkpt lat="42.456539000" lon="-2.473508000">
        <ele>414.50</ele>
        <time>2016-10-29T05:11:02Z</time>
      </trkpt>
      <trkpt lat="42.456527000" lon="-2.473539000">
        <ele>414.60</ele>
        <time>2016-10-29T05:11:03Z</time>
      </trkpt>
      <trkpt lat="42.456517000" lon="-2.473571000">
        <ele>414.70</ele>
        <time>2016-10-29T05:11:04Z</time>
      </trkpt>
      <trkpt lat="42.456509000" lon="-2.473604000">
        <ele>414.70</ele>
        <time>2016-10-29T05:11:05Z</time>
      </trkpt>
      <trkpt lat="42.456501000" lon="-2.473633000">
        <ele>414.80</ele>
        <time>2016-10-29T05:11:06Z</time>
      </trkpt>
      <trkpt lat="42.456496000" lon="-2.473665000">
        <ele>414.80</ele>
        <time>2016-10-29T05:11:07Z</time>
      </trkpt>
      <trkpt lat="42.456491000" lon="-2.473699000">
        <ele>414.70</ele>
        <time>2016-10-29T05:11:08Z</time>
      </trkpt>
      <trkpt lat="42.456489000" lon="-2.473735000">
        <ele>414.80</ele>
        <time>2016-10-29T05:11:09Z</time>
      </trkpt>
      <trkpt lat="42.456484000" lon="-2.473772000">
        <ele>414.80</ele>
        <time>2016-10-29T05:11:10Z</time>
      </trkpt>
      <trkpt lat="42.456480000" lon="-2.473810000">
        <ele>415.10</ele>
        <time>2016-10-29T05:11:11Z</time>
      </trkpt>
      <trkpt lat="42.456476000" lon="-2.473850000">
        <ele>415.30</ele>
        <time>2016-10-29T05:11:12Z</time>
      </trkpt>
      <trkpt lat="42.456474000" lon="-2.473887000">
        <ele>415.50</ele>
        <time>2016-10-29T05:11:13Z</time>
      </trkpt>
      <trkpt lat="42.456470000" lon="-2.473922000">
        <ele>415.70</ele>
        <time>2016-10-29T05:11:14Z</time>
      </trkpt>
      <trkpt lat="42.456466000" lon="-2.473957000">
        <ele>415.90</ele>
        <time>2016-10-29T05:11:15Z</time>
      </trkpt>
      <trkpt lat="42.456460000" lon="-2.473993000">
        <ele>416.10</ele>
        <time>2016-10-29T05:11:16Z</time>
      </trkpt>
      <trkpt lat="42.456459000" lon="-2.474031000">
        <ele>416.10</ele>
        <time>2016-10-29T05:11:17Z</time>
      </trkpt>
      <trkpt lat="42.456455000" lon="-2.474069000">
        <ele>416.20</ele>
        <time>2016-10-29T05:11:18Z</time>
      </trkpt>
      <trkpt lat="42.456449000" lon="-2.474104000">
        <ele>416.30</ele>
        <time>2016-10-29T05:11:19Z</time>
      </trkpt>
      <trkpt lat="42.456445000" lon="-2.474142000">
        <ele>416.30</ele>
        <time>2016-10-29T05:11:20Z</time>
      </trkpt>
      <trkpt lat="42.456443000" lon="-2.474178000">
        <ele>416.40</ele>
        <time>2016-10-29T05:11:21Z</time>
      </trkpt>
      <trkpt lat="42.456444000" lon="-2.474212000">
        <ele>416.40</ele>
        <time>2016-10-29T05:11:22Z</time>
      </trkpt>
      <trkpt lat="42.456442000" lon="-2.474249000">
        <ele>416.50</ele>
        <time>2016-10-29T05:11:23Z</time>
      </trkpt>
      <trkpt lat="42.456437000" lon="-2.474284000">
        <ele>416.50</ele>
        <time>2016-10-29T05:11:24Z</time>
      </trkpt>
      <trkpt lat="42.456435000" lon="-2.474320000">
        <ele>416.60</ele>
        <time>2016-10-29T05:11:25Z</time>
      </trkpt>
      <trkpt lat="42.456433000" lon="-2.474355000">
        <ele>416.60</ele>
        <time>2016-10-29T05:11:26Z</time>
      </trkpt>
      <trkpt lat="42.456434000" lon="-2.474388000">
        <ele>416.70</ele>
        <time>2016-10-29T05:11:27Z</time>
      </trkpt>
      <trkpt lat="42.456435000" lon="-2.474423000">
        <ele>416.70</ele>
        <time>2016-10-29T05:11:28Z</time>
      </trkpt>
      <trkpt lat="42.456434000" lon="-2.474459000">
        <ele>416.90</ele>
        <time>2016-10-29T05:11:29Z</time>
      </trkpt>
      <trkpt lat="42.456436000" lon="-2.474493000">
        <ele>417.00</ele>
        <time>2016-10-29T05:11:30Z</time>
      </trkpt>
      <trkpt lat="42.456436000" lon="-2.474527000">
        <ele>417.10</ele>
        <time>2016-10-29T05:11:31Z</time>
      </trkpt>
      <trkpt lat="42.456435000" lon="-2.474564000">
        <ele>417.20</ele>
        <time>2016-10-29T05:11:32Z</time>
      </trkpt>
      <trkpt lat="42.456431000" lon="-2.474603000">
        <ele>417.30</ele>
        <time>2016-10-29T05:11:33Z</time>
      </trkpt>
      <trkpt lat="42.456425000" lon="-2.474642000">
        <ele>417.40</ele>
        <time>2016-10-29T05:11:34Z</time>
      </trkpt>
      <trkpt lat="42.456417000" lon="-2.474677000">
        <ele>417.50</ele>
        <time>2016-10-29T05:11:35Z</time>
      </trkpt>
      <trkpt lat="42.456410000" lon="-2.474718000">
        <ele>417.50</ele>
        <time>2016-10-29T05:11:36Z</time>
      </trkpt>
      <trkpt lat="42.456403000" lon="-2.474758000">
        <ele>417.60</ele>
        <time>2016-10-29T05:11:37Z</time>
      </trkpt>
      <trkpt lat="42.456396000" lon="-2.474793000">
        <ele>417.60</ele>
        <time>2016-10-29T05:11:38Z</time>
      </trkpt>
      <trkpt lat="42.456388000" lon="-2.474829000">
        <ele>417.70</ele>
        <time>2016-10-29T05:11:39Z</time>
      </trkpt>
      <trkpt lat="42.456380000" lon="-2.474864000">
        <ele>417.70</ele>
        <time>2016-10-29T05:11:40Z</time>
      </trkpt>
      <trkpt lat="42.456368000" lon="-2.474899000">
        <ele>417.80</ele>
        <time>2016-10-29T05:11:41Z</time>
      </trkpt>
      <trkpt lat="42.456357000" lon="-2.474935000">
        <ele>417.80</ele>
        <time>2016-10-29T05:11:42Z</time>
      </trkpt>
      <trkpt lat="42.456347000" lon="-2.474971000">
        <ele>417.80</ele>
        <time>2016-10-29T05:11:43Z</time>
      </trkpt>
      <trkpt lat="42.456336000" lon="-2.475009000">
        <ele>417.80</ele>
        <time>2016-10-29T05:11:44Z</time>
      </trkpt>
      <trkpt lat="42.456321000" lon="-2.475044000">
        <ele>417.80</ele>
        <time>2016-10-29T05:11:45Z</time>
      </trkpt>
      <trkpt lat="42.456307000" lon="-2.475082000">
        <ele>417.80</ele>
        <time>2016-10-29T05:11:46Z</time>
      </trkpt>
      <trkpt lat="42.456293000" lon="-2.475120000">
        <ele>417.70</ele>
        <time>2016-10-29T05:11:47Z</time>
      </trkpt>
      <trkpt lat="42.456280000" lon="-2.475157000">
        <ele>417.60</ele>
        <time>2016-10-29T05:11:48Z</time>
      </trkpt>
      <trkpt lat="42.456267000" lon="-2.475196000">
        <ele>417.50</ele>
        <time>2016-10-29T05:11:49Z</time>
      </trkpt>
      <trkpt lat="42.456238000" lon="-2.475274000">
        <ele>417.50</ele>
        <time>2016-10-29T05:11:51Z</time>
      </trkpt>
      <trkpt lat="42.456223000" lon="-2.475305000">
        <ele>417.50</ele>
        <time>2016-10-29T05:11:52Z</time>
      </trkpt>
      <trkpt lat="42.456206000" lon="-2.475342000">
        <ele>417.50</ele>
        <time>2016-10-29T05:11:53Z</time>
      </trkpt>
      <trkpt lat="42.456192000" lon="-2.475379000">
        <ele>417.60</ele>
        <time>2016-10-29T05:11:54Z</time>
      </trkpt>
      <trkpt lat="42.456175000" lon="-2.475417000">
        <ele>417.60</ele>
        <time>2016-10-29T05:11:55Z</time>
      </trkpt>
      <trkpt lat="42.456164000" lon="-2.475454000">
        <ele>417.70</ele>
        <time>2016-10-29T05:11:56Z</time>
      </trkpt>
      <trkpt lat="42.456149000" lon="-2.475490000">
        <ele>417.50</ele>
        <time>2016-10-29T05:11:57Z</time>
      </trkpt>
      <trkpt lat="42.456135000" lon="-2.475526000">
        <ele>417.40</ele>
        <time>2016-10-29T05:11:58Z</time>
      </trkpt>
      <trkpt lat="42.456125000" lon="-2.475568000">
        <ele>417.30</ele>
        <time>2016-10-29T05:11:59Z</time>
      </trkpt>
      <trkpt lat="42.456119000" lon="-2.475610000">
        <ele>417.20</ele>
        <time>2016-10-29T05:12:00Z</time>
      </trkpt>
      <trkpt lat="42.456113000" lon="-2.475653000">
        <ele>417.20</ele>
        <time>2016-10-29T05:12:01Z</time>
      </trkpt>
      <trkpt lat="42.456107000" lon="-2.475697000">
        <ele>417.20</ele>
        <time>2016-10-29T05:12:02Z</time>
      </trkpt>
      <trkpt lat="42.456103000" lon="-2.475742000">
        <ele>417.30</ele>
        <time>2016-10-29T05:12:03Z</time>
      </trkpt>
      <trkpt lat="42.456096000" lon="-2.475790000">
        <ele>417.30</ele>
        <time>2016-10-29T05:12:04Z</time>
      </trkpt>
      <trkpt lat="42.456093000" lon="-2.475834000">
        <ele>417.30</ele>
        <time>2016-10-29T05:12:05Z</time>
      </trkpt>
      <trkpt lat="42.456089000" lon="-2.475879000">
        <ele>417.30</ele>
        <time>2016-10-29T05:12:06Z</time>
      </trkpt>
      <trkpt lat="42.456083000" lon="-2.475924000">
        <ele>417.40</ele>
        <time>2016-10-29T05:12:07Z</time>
      </trkpt>
      <trkpt lat="42.456079000" lon="-2.475969000">
        <ele>417.60</ele>
        <time>2016-10-29T05:12:08Z</time>
      </trkpt>
      <trkpt lat="42.456074000" lon="-2.476012000">
        <ele>417.50</ele>
        <time>2016-10-29T05:12:09Z</time>
      </trkpt>
      <trkpt lat="42.456074000" lon="-2.476056000">
        <ele>417.50</ele>
        <time>2016-10-29T05:12:10Z</time>
      </trkpt>
      <trkpt lat="42.456069000" lon="-2.476105000">
        <ele>417.50</ele>
        <time>2016-10-29T05:12:11Z</time>
      </trkpt>
      <trkpt lat="42.456062000" lon="-2.476158000">
        <ele>417.50</ele>
        <time>2016-10-29T05:12:12Z</time>
      </trkpt>
      <trkpt lat="42.456054000" lon="-2.476214000">
        <ele>417.40</ele>
        <time>2016-10-29T05:12:13Z</time>
      </trkpt>
      <trkpt lat="42.456047000" lon="-2.476269000">
        <ele>417.40</ele>
        <time>2016-10-29T05:12:14Z</time>
      </trkpt>
      <trkpt lat="42.456038000" lon="-2.476328000">
        <ele>417.40</ele>
        <time>2016-10-29T05:12:15Z</time>
      </trkpt>
      <trkpt lat="42.456028000" lon="-2.476388000">
        <ele>417.30</ele>
        <time>2016-10-29T05:12:16Z</time>
      </trkpt>
      <trkpt lat="42.456018000" lon="-2.476451000">
        <ele>416.80</ele>
        <time>2016-10-29T05:12:17Z</time>
      </trkpt>
      <trkpt lat="42.456008000" lon="-2.476511000">
        <ele>416.40</ele>
        <time>2016-10-29T05:12:18Z</time>
      </trkpt>
      <trkpt lat="42.455997000" lon="-2.476575000">
        <ele>416.10</ele>
        <time>2016-10-29T05:12:19Z</time>
      </trkpt>
      <trkpt lat="42.455987000" lon="-2.476643000">
        <ele>415.90</ele>
        <time>2016-10-29T05:12:20Z</time>
      </trkpt>
      <trkpt lat="42.455979000" lon="-2.476706000">
        <ele>415.50</ele>
        <time>2016-10-29T05:12:21Z</time>
      </trkpt>
      <trkpt lat="42.455964000" lon="-2.476779000">
        <ele>415.20</ele>
        <time>2016-10-29T05:12:22Z</time>
      </trkpt>
      <trkpt lat="42.455946000" lon="-2.476857000">
        <ele>414.70</ele>
        <time>2016-10-29T05:12:23Z</time>
      </trkpt>
      <trkpt lat="42.455926000" lon="-2.476934000">
        <ele>414.40</ele>
        <time>2016-10-29T05:12:24Z</time>
      </trkpt>
      <trkpt lat="42.455907000" lon="-2.477011000">
        <ele>413.90</ele>
        <time>2016-10-29T05:12:25Z</time>
      </trkpt>
      <trkpt lat="42.455888000" lon="-2.477086000">
        <ele>413.50</ele>
        <time>2016-10-29T05:12:26Z</time>
      </trkpt>
      <trkpt lat="42.455870000" lon="-2.477162000">
        <ele>412.90</ele>
        <time>2016-10-29T05:12:27Z</time>
      </trkpt>
      <trkpt lat="42.455854000" lon="-2.477236000">
        <ele>412.40</ele>
        <time>2016-10-29T05:12:28Z</time>
      </trkpt>
      <trkpt lat="42.455835000" lon="-2.477299000">
        <ele>412.00</ele>
        <time>2016-10-29T05:12:29Z</time>
      </trkpt>
      <trkpt lat="42.455816000" lon="-2.477353000">
        <ele>411.80</ele>
        <time>2016-10-29T05:12:30Z</time>
      </trkpt>
      <trkpt lat="42.455797000" lon="-2.477397000">
        <ele>411.20</ele>
        <time>2016-10-29T05:12:31Z</time>
      </trkpt>
      <trkpt lat="42.455770000" lon="-2.477434000">
        <ele>410.70</ele>
        <time>2016-10-29T05:12:32Z</time>
      </trkpt>
      <trkpt lat="42.455737000" lon="-2.477456000">
        <ele>410.30</ele>
        <time>2016-10-29T05:12:33Z</time>
      </trkpt>
      <trkpt lat="42.455697000" lon="-2.477464000">
        <ele>410.00</ele>
        <time>2016-10-29T05:12:34Z</time>
      </trkpt>
      <trkpt lat="42.455655000" lon="-2.477469000">
        <ele>409.80</ele>
        <time>2016-10-29T05:12:35Z</time>
      </trkpt>
      <trkpt lat="42.455625000" lon="-2.477463000">
        <ele>409.60</ele>
        <time>2016-10-29T05:12:36Z</time>
      </trkpt>
      <trkpt lat="42.455595000" lon="-2.477460000">
        <ele>409.40</ele>
        <time>2016-10-29T05:12:37Z</time>
      </trkpt>
      <trkpt lat="42.455562000" lon="-2.477452000">
        <ele>409.20</ele>
        <time>2016-10-29T05:12:38Z</time>
      </trkpt>
      <trkpt lat="42.455451000" lon="-2.477424000">
        <ele>408.00</ele>
        <time>2016-10-29T05:12:40Z</time>
      </trkpt>
      <trkpt lat="42.455319000" lon="-2.477518000">
        <ele>408.00</ele>
        <time>2016-10-29T05:12:44Z</time>
      </trkpt>
      <trkpt lat="42.455300000" lon="-2.477635000">
        <ele>408.40</ele>
        <time>2016-10-29T05:12:47Z</time>
      </trkpt>
      <trkpt lat="42.455298000" lon="-2.477679000">
        <ele>408.40</ele>
        <time>2016-10-29T05:12:48Z</time>
      </trkpt>
      <trkpt lat="42.455296000" lon="-2.477721000">
        <ele>408.60</ele>
        <time>2016-10-29T05:12:49Z</time>
      </trkpt>
      <trkpt lat="42.455292000" lon="-2.477767000">
        <ele>408.70</ele>
        <time>2016-10-29T05:12:50Z</time>
      </trkpt>
      <trkpt lat="42.455283000" lon="-2.477856000">
        <ele>409.10</ele>
        <time>2016-10-29T05:12:52Z</time>
      </trkpt>
      <trkpt lat="42.455280000" lon="-2.477906000">
        <ele>409.40</ele>
        <time>2016-10-29T05:12:53Z</time>
      </trkpt>
      <trkpt lat="42.455277000" lon="-2.477954000">
        <ele>409.60</ele>
        <time>2016-10-29T05:12:54Z</time>
      </trkpt>
      <trkpt lat="42.455273000" lon="-2.478001000">
        <ele>409.80</ele>
        <time>2016-10-29T05:12:55Z</time>
      </trkpt>
      <trkpt lat="42.455266000" lon="-2.478046000">
        <ele>409.90</ele>
        <time>2016-10-29T05:12:56Z</time>
      </trkpt>
      <trkpt lat="42.455258000" lon="-2.478091000">
        <ele>410.10</ele>
        <time>2016-10-29T05:12:57Z</time>
      </trkpt>
      <trkpt lat="42.455252000" lon="-2.478137000">
        <ele>410.20</ele>
        <time>2016-10-29T05:12:58Z</time>
      </trkpt>
      <trkpt lat="42.455243000" lon="-2.478181000">
        <ele>410.30</ele>
        <time>2016-10-29T05:12:59Z</time>
      </trkpt>
      <trkpt lat="42.455234000" lon="-2.478227000">
        <ele>410.40</ele>
        <time>2016-10-29T05:13:00Z</time>
      </trkpt>
      <trkpt lat="42.455225000" lon="-2.478273000">
        <ele>410.50</ele>
        <time>2016-10-29T05:13:01Z</time>
      </trkpt>
      <trkpt lat="42.455216000" lon="-2.478319000">
        <ele>410.60</ele>
        <time>2016-10-29T05:13:02Z</time>
      </trkpt>
      <trkpt lat="42.455206000" lon="-2.478368000">
        <ele>410.80</ele>
        <time>2016-10-29T05:13:03Z</time>
      </trkpt>
      <trkpt lat="42.455197000" lon="-2.478415000">
        <ele>411.00</ele>
        <time>2016-10-29T05:13:04Z</time>
      </trkpt>
      <trkpt lat="42.455187000" lon="-2.478464000">
        <ele>411.10</ele>
        <time>2016-10-29T05:13:05Z</time>
      </trkpt>
      <trkpt lat="42.455178000" lon="-2.478514000">
        <ele>411.30</ele>
        <time>2016-10-29T05:13:06Z</time>
      </trkpt>
      <trkpt lat="42.455170000" lon="-2.478561000">
        <ele>411.30</ele>
        <time>2016-10-29T05:13:07Z</time>
      </trkpt>
      <trkpt lat="42.455161000" lon="-2.478608000">
        <ele>411.40</ele>
        <time>2016-10-29T05:13:08Z</time>
      </trkpt>
      <trkpt lat="42.455154000" lon="-2.478654000">
        <ele>411.50</ele>
        <time>2016-10-29T05:13:09Z</time>
      </trkpt>
      <trkpt lat="42.455144000" lon="-2.478696000">
        <ele>411.50</ele>
        <time>2016-10-29T05:13:10Z</time>
      </trkpt>
      <trkpt lat="42.455132000" lon="-2.478738000">
        <ele>411.50</ele>
        <time>2016-10-29T05:13:11Z</time>
      </trkpt>
      <trkpt lat="42.455122000" lon="-2.478780000">
        <ele>411.50</ele>
        <time>2016-10-29T05:13:12Z</time>
      </trkpt>
      <trkpt lat="42.455115000" lon="-2.478823000">
        <ele>411.60</ele>
        <time>2016-10-29T05:13:13Z</time>
      </trkpt>
      <trkpt lat="42.455108000" lon="-2.478868000">
        <ele>411.60</ele>
        <time>2016-10-29T05:13:14Z</time>
      </trkpt>
      <trkpt lat="42.455103000" lon="-2.478914000">
        <ele>411.50</ele>
        <time>2016-10-29T05:13:15Z</time>
      </trkpt>
      <trkpt lat="42.455096000" lon="-2.478958000">
        <ele>411.50</ele>
        <time>2016-10-29T05:13:16Z</time>
      </trkpt>
      <trkpt lat="42.455090000" lon="-2.479000000">
        <ele>411.40</ele>
        <time>2016-10-29T05:13:17Z</time>
      </trkpt>
      <trkpt lat="42.455081000" lon="-2.479045000">
        <ele>411.30</ele>
        <time>2016-10-29T05:13:18Z</time>
      </trkpt>
      <trkpt lat="42.455075000" lon="-2.479091000">
        <ele>411.30</ele>
        <time>2016-10-29T05:13:19Z</time>
      </trkpt>
      <trkpt lat="42.455069000" lon="-2.479138000">
        <ele>411.20</ele>
        <time>2016-10-29T05:13:20Z</time>
      </trkpt>
      <trkpt lat="42.455067000" lon="-2.479186000">
        <ele>411.30</ele>
        <time>2016-10-29T05:13:21Z</time>
      </trkpt>
      <trkpt lat="42.455063000" lon="-2.479235000">
        <ele>411.30</ele>
        <time>2016-10-29T05:13:22Z</time>
      </trkpt>
      <trkpt lat="42.455057000" lon="-2.479285000">
        <ele>411.30</ele>
        <time>2016-10-29T05:13:23Z</time>
      </trkpt>
      <trkpt lat="42.455049000" lon="-2.479332000">
        <ele>411.30</ele>
        <time>2016-10-29T05:13:24Z</time>
      </trkpt>
      <trkpt lat="42.455046000" lon="-2.479381000">
        <ele>411.30</ele>
        <time>2016-10-29T05:13:25Z</time>
      </trkpt>
      <trkpt lat="42.455043000" lon="-2.479428000">
        <ele>411.20</ele>
        <time>2016-10-29T05:13:26Z</time>
      </trkpt>
      <trkpt lat="42.455038000" lon="-2.479478000">
        <ele>411.20</ele>
        <time>2016-10-29T05:13:27Z</time>
      </trkpt>
      <trkpt lat="42.455032000" lon="-2.479527000">
        <ele>411.20</ele>
        <time>2016-10-29T05:13:28Z</time>
      </trkpt>
      <trkpt lat="42.455024000" lon="-2.479577000">
        <ele>411.20</ele>
        <time>2016-10-29T05:13:29Z</time>
      </trkpt>
      <trkpt lat="42.455014000" lon="-2.479627000">
        <ele>411.20</ele>
        <time>2016-10-29T05:13:30Z</time>
      </trkpt>
      <trkpt lat="42.455001000" lon="-2.479675000">
        <ele>411.30</ele>
        <time>2016-10-29T05:13:31Z</time>
      </trkpt>
      <trkpt lat="42.454988000" lon="-2.479716000">
        <ele>411.40</ele>
        <time>2016-10-29T05:13:32Z</time>
      </trkpt>
      <trkpt lat="42.454969000" lon="-2.479760000">
        <ele>411.40</ele>
        <time>2016-10-29T05:13:33Z</time>
      </trkpt>
      <trkpt lat="42.454947000" lon="-2.479799000">
        <ele>411.40</ele>
        <time>2016-10-29T05:13:34Z</time>
      </trkpt>
      <trkpt lat="42.454926000" lon="-2.479837000">
        <ele>411.60</ele>
        <time>2016-10-29T05:13:35Z</time>
      </trkpt>
      <trkpt lat="42.454905000" lon="-2.479875000">
        <ele>411.70</ele>
        <time>2016-10-29T05:13:36Z</time>
      </trkpt>
      <trkpt lat="42.454883000" lon="-2.479917000">
        <ele>411.60</ele>
        <time>2016-10-29T05:13:37Z</time>
      </trkpt>
      <trkpt lat="42.454862000" lon="-2.479953000">
        <ele>411.60</ele>
        <time>2016-10-29T05:13:38Z</time>
      </trkpt>
      <trkpt lat="42.454841000" lon="-2.479989000">
        <ele>411.50</ele>
        <time>2016-10-29T05:13:39Z</time>
      </trkpt>
      <trkpt lat="42.454823000" lon="-2.480030000">
        <ele>411.50</ele>
        <time>2016-10-29T05:13:40Z</time>
      </trkpt>
      <trkpt lat="42.454806000" lon="-2.480071000">
        <ele>411.40</ele>
        <time>2016-10-29T05:13:41Z</time>
      </trkpt>
      <trkpt lat="42.454790000" lon="-2.480108000">
        <ele>411.40</ele>
        <time>2016-10-29T05:13:42Z</time>
      </trkpt>
      <trkpt lat="42.454770000" lon="-2.480146000">
        <ele>411.50</ele>
        <time>2016-10-29T05:13:43Z</time>
      </trkpt>
      <trkpt lat="42.454752000" lon="-2.480182000">
        <ele>411.50</ele>
        <time>2016-10-29T05:13:44Z</time>
      </trkpt>
      <trkpt lat="42.454732000" lon="-2.480229000">
        <ele>411.50</ele>
        <time>2016-10-29T05:13:45Z</time>
      </trkpt>
      <trkpt lat="42.454712000" lon="-2.480267000">
        <ele>411.50</ele>
        <time>2016-10-29T05:13:46Z</time>
      </trkpt>
      <trkpt lat="42.454691000" lon="-2.480308000">
        <ele>411.60</ele>
        <time>2016-10-29T05:13:47Z</time>
      </trkpt>
      <trkpt lat="42.454670000" lon="-2.480349000">
        <ele>411.60</ele>
        <time>2016-10-29T05:13:48Z</time>
      </trkpt>
      <trkpt lat="42.454649000" lon="-2.480393000">
        <ele>411.50</ele>
        <time>2016-10-29T05:13:49Z</time>
      </trkpt>
      <trkpt lat="42.454630000" lon="-2.480431000">
        <ele>411.40</ele>
        <time>2016-10-29T05:13:50Z</time>
      </trkpt>
      <trkpt lat="42.454610000" lon="-2.480466000">
        <ele>411.30</ele>
        <time>2016-10-29T05:13:51Z</time>
      </trkpt>
      <trkpt lat="42.454570000" lon="-2.480542000">
        <ele>411.30</ele>
        <time>2016-10-29T05:13:53Z</time>
      </trkpt>
      <trkpt lat="42.454552000" lon="-2.480580000">
        <ele>411.40</ele>
        <time>2016-10-29T05:13:54Z</time>
      </trkpt>
      <trkpt lat="42.454532000" lon="-2.480621000">
        <ele>411.40</ele>
        <time>2016-10-29T05:13:55Z</time>
      </trkpt>
      <trkpt lat="42.454512000" lon="-2.480661000">
        <ele>411.40</ele>
        <time>2016-10-29T05:13:56Z</time>
      </trkpt>
      <trkpt lat="42.454494000" lon="-2.480703000">
        <ele>411.50</ele>
        <time>2016-10-29T05:13:57Z</time>
      </trkpt>
      <trkpt lat="42.454475000" lon="-2.480742000">
        <ele>411.50</ele>
        <time>2016-10-29T05:13:58Z</time>
      </trkpt>
      <trkpt lat="42.454456000" lon="-2.480780000">
        <ele>411.50</ele>
        <time>2016-10-29T05:13:59Z</time>
      </trkpt>
      <trkpt lat="42.454437000" lon="-2.480825000">
        <ele>411.50</ele>
        <time>2016-10-29T05:14:00Z</time>
      </trkpt>
      <trkpt lat="42.454420000" lon="-2.480867000">
        <ele>411.60</ele>
        <time>2016-10-29T05:14:01Z</time>
      </trkpt>
      <trkpt lat="42.454400000" lon="-2.480908000">
        <ele>411.60</ele>
        <time>2016-10-29T05:14:02Z</time>
      </trkpt>
      <trkpt lat="42.454382000" lon="-2.480946000">
        <ele>411.70</ele>
        <time>2016-10-29T05:14:03Z</time>
      </trkpt>
      <trkpt lat="42.454363000" lon="-2.480989000">
        <ele>411.70</ele>
        <time>2016-10-29T05:14:04Z</time>
      </trkpt>
      <trkpt lat="42.454343000" lon="-2.481034000">
        <ele>411.80</ele>
        <time>2016-10-29T05:14:05Z</time>
      </trkpt>
      <trkpt lat="42.454322000" lon="-2.481076000">
        <ele>411.80</ele>
        <time>2016-10-29T05:14:06Z</time>
      </trkpt>
      <trkpt lat="42.454302000" lon="-2.481118000">
        <ele>411.80</ele>
        <time>2016-10-29T05:14:07Z</time>
      </trkpt>
      <trkpt lat="42.454282000" lon="-2.481159000">
        <ele>411.70</ele>
        <time>2016-10-29T05:14:08Z</time>
      </trkpt>
      <trkpt lat="42.454261000" lon="-2.481199000">
        <ele>411.80</ele>
        <time>2016-10-29T05:14:09Z</time>
      </trkpt>
      <trkpt lat="42.454241000" lon="-2.481240000">
        <ele>411.80</ele>
        <time>2016-10-29T05:14:10Z</time>
      </trkpt>
      <trkpt lat="42.454221000" lon="-2.481281000">
        <ele>411.90</ele>
        <time>2016-10-29T05:14:11Z</time>
      </trkpt>
      <trkpt lat="42.454202000" lon="-2.481321000">
        <ele>411.90</ele>
        <time>2016-10-29T05:14:12Z</time>
      </trkpt>
      <trkpt lat="42.454185000" lon="-2.481362000">
        <ele>412.00</ele>
        <time>2016-10-29T05:14:13Z</time>
      </trkpt>
      <trkpt lat="42.454166000" lon="-2.481404000">
        <ele>412.00</ele>
        <time>2016-10-29T05:14:14Z</time>
      </trkpt>
      <trkpt lat="42.454147000" lon="-2.481448000">
        <ele>411.90</ele>
        <time>2016-10-29T05:14:15Z</time>
      </trkpt>
      <trkpt lat="42.454128000" lon="-2.481489000">
        <ele>411.90</ele>
        <time>2016-10-29T05:14:16Z</time>
      </trkpt>
      <trkpt lat="42.454112000" lon="-2.481533000">
        <ele>411.90</ele>
        <time>2016-10-29T05:14:17Z</time>
      </trkpt>
      <trkpt lat="42.454093000" lon="-2.481573000">
        <ele>411.80</ele>
        <time>2016-10-29T05:14:18Z</time>
      </trkpt>
      <trkpt lat="42.454075000" lon="-2.481614000">
        <ele>411.90</ele>
        <time>2016-10-29T05:14:19Z</time>
      </trkpt>
      <trkpt lat="42.454058000" lon="-2.481658000">
        <ele>411.90</ele>
        <time>2016-10-29T05:14:20Z</time>
      </trkpt>
      <trkpt lat="42.454040000" lon="-2.481699000">
        <ele>412.00</ele>
        <time>2016-10-29T05:14:21Z</time>
      </trkpt>
      <trkpt lat="42.454024000" lon="-2.481740000">
        <ele>412.00</ele>
        <time>2016-10-29T05:14:22Z</time>
      </trkpt>
      <trkpt lat="42.454008000" lon="-2.481782000">
        <ele>412.00</ele>
        <time>2016-10-29T05:14:23Z</time>
      </trkpt>
      <trkpt lat="42.453992000" lon="-2.481825000">
        <ele>412.00</ele>
        <time>2016-10-29T05:14:24Z</time>
      </trkpt>
      <trkpt lat="42.453976000" lon="-2.481865000">
        <ele>411.90</ele>
        <time>2016-10-29T05:14:25Z</time>
      </trkpt>
      <trkpt lat="42.453960000" lon="-2.481908000">
        <ele>411.90</ele>
        <time>2016-10-29T05:14:26Z</time>
      </trkpt>
      <trkpt lat="42.453945000" lon="-2.481947000">
        <ele>411.90</ele>
        <time>2016-10-29T05:14:27Z</time>
      </trkpt>
      <trkpt lat="42.453928000" lon="-2.481989000">
        <ele>411.80</ele>
        <time>2016-10-29T05:14:28Z</time>
      </trkpt>
      <trkpt lat="42.453913000" lon="-2.482032000">
        <ele>411.80</ele>
        <time>2016-10-29T05:14:29Z</time>
      </trkpt>
      <trkpt lat="42.453896000" lon="-2.482075000">
        <ele>411.80</ele>
        <time>2016-10-29T05:14:30Z</time>
      </trkpt>
      <trkpt lat="42.453881000" lon="-2.482119000">
        <ele>411.70</ele>
        <time>2016-10-29T05:14:31Z</time>
      </trkpt>
      <trkpt lat="42.453865000" lon="-2.482164000">
        <ele>411.70</ele>
        <time>2016-10-29T05:14:32Z</time>
      </trkpt>
      <trkpt lat="42.453852000" lon="-2.482207000">
        <ele>411.80</ele>
        <time>2016-10-29T05:14:33Z</time>
      </trkpt>
      <trkpt lat="42.453839000" lon="-2.482251000">
        <ele>411.80</ele>
        <time>2016-10-29T05:14:34Z</time>
      </trkpt>
      <trkpt lat="42.453825000" lon="-2.482293000">
        <ele>412.10</ele>
        <time>2016-10-29T05:14:35Z</time>
      </trkpt>
      <trkpt lat="42.453811000" lon="-2.482335000">
        <ele>412.20</ele>
        <time>2016-10-29T05:14:36Z</time>
      </trkpt>
      <trkpt lat="42.453795000" lon="-2.482380000">
        <ele>412.30</ele>
        <time>2016-10-29T05:14:37Z</time>
      </trkpt>
      <trkpt lat="42.453780000" lon="-2.482427000">
        <ele>412.40</ele>
        <time>2016-10-29T05:14:38Z</time>
      </trkpt>
      <trkpt lat="42.453765000" lon="-2.482471000">
        <ele>412.40</ele>
        <time>2016-10-29T05:14:39Z</time>
      </trkpt>
      <trkpt lat="42.453750000" lon="-2.482512000">
        <ele>412.30</ele>
        <time>2016-10-29T05:14:40Z</time>
      </trkpt>
      <trkpt lat="42.453734000" lon="-2.482554000">
        <ele>412.30</ele>
        <time>2016-10-29T05:14:41Z</time>
      </trkpt>
      <trkpt lat="42.453722000" lon="-2.482599000">
        <ele>412.30</ele>
        <time>2016-10-29T05:14:42Z</time>
      </trkpt>
      <trkpt lat="42.453708000" lon="-2.482646000">
        <ele>412.30</ele>
        <time>2016-10-29T05:14:43Z</time>
      </trkpt>
      <trkpt lat="42.453694000" lon="-2.482685000">
        <ele>412.20</ele>
        <time>2016-10-29T05:14:44Z</time>
      </trkpt>
      <trkpt lat="42.453679000" lon="-2.482727000">
        <ele>412.30</ele>
        <time>2016-10-29T05:14:45Z</time>
      </trkpt>
      <trkpt lat="42.453665000" lon="-2.482770000">
        <ele>412.30</ele>
        <time>2016-10-29T05:14:46Z</time>
      </trkpt>
      <trkpt lat="42.453653000" lon="-2.482813000">
        <ele>412.20</ele>
        <time>2016-10-29T05:14:47Z</time>
      </trkpt>
      <trkpt lat="42.453637000" lon="-2.482858000">
        <ele>412.20</ele>
        <time>2016-10-29T05:14:48Z</time>
      </trkpt>
      <trkpt lat="42.453622000" lon="-2.482899000">
        <ele>412.20</ele>
        <time>2016-10-29T05:14:49Z</time>
      </trkpt>
      <trkpt lat="42.453608000" lon="-2.482944000">
        <ele>412.10</ele>
        <time>2016-10-29T05:14:50Z</time>
      </trkpt>
      <trkpt lat="42.453593000" lon="-2.482983000">
        <ele>412.10</ele>
        <time>2016-10-29T05:14:51Z</time>
      </trkpt>
      <trkpt lat="42.453578000" lon="-2.483027000">
        <ele>412.10</ele>
        <time>2016-10-29T05:14:52Z</time>
      </trkpt>
      <trkpt lat="42.453550000" lon="-2.483117000">
        <ele>412.10</ele>
        <time>2016-10-29T05:14:54Z</time>
      </trkpt>
      <trkpt lat="42.453533000" lon="-2.483165000">
        <ele>412.20</ele>
        <time>2016-10-29T05:14:55Z</time>
      </trkpt>
      <trkpt lat="42.453522000" lon="-2.483208000">
        <ele>412.20</ele>
        <time>2016-10-29T05:14:56Z</time>
      </trkpt>
      <trkpt lat="42.453514000" lon="-2.483251000">
        <ele>412.30</ele>
        <time>2016-10-29T05:14:57Z</time>
      </trkpt>
      <trkpt lat="42.453505000" lon="-2.483297000">
        <ele>412.30</ele>
        <time>2016-10-29T05:14:58Z</time>
      </trkpt>
      <trkpt lat="42.453496000" lon="-2.483349000">
        <ele>412.40</ele>
        <time>2016-10-29T05:14:59Z</time>
      </trkpt>
      <trkpt lat="42.453488000" lon="-2.483393000">
        <ele>412.40</ele>
        <time>2016-10-29T05:15:00Z</time>
      </trkpt>
      <trkpt lat="42.453480000" lon="-2.483441000">
        <ele>412.50</ele>
        <time>2016-10-29T05:15:01Z</time>
      </trkpt>
      <trkpt lat="42.453471000" lon="-2.483489000">
        <ele>412.50</ele>
        <time>2016-10-29T05:15:02Z</time>
      </trkpt>
      <trkpt lat="42.453464000" lon="-2.483533000">
        <ele>412.60</ele>
        <time>2016-10-29T05:15:03Z</time>
      </trkpt>
      <trkpt lat="42.453458000" lon="-2.483580000">
        <ele>412.60</ele>
        <time>2016-10-29T05:15:04Z</time>
      </trkpt>
      <trkpt lat="42.453452000" lon="-2.483625000">
        <ele>412.60</ele>
        <time>2016-10-29T05:15:05Z</time>
      </trkpt>
      <trkpt lat="42.453447000" lon="-2.483668000">
        <ele>412.60</ele>
        <time>2016-10-29T05:15:06Z</time>
      </trkpt>
      <trkpt lat="42.453442000" lon="-2.483716000">
        <ele>412.60</ele>
        <time>2016-10-29T05:15:07Z</time>
      </trkpt>
      <trkpt lat="42.453435000" lon="-2.483764000">
        <ele>412.60</ele>
        <time>2016-10-29T05:15:08Z</time>
      </trkpt>
      <trkpt lat="42.453428000" lon="-2.483811000">
        <ele>412.60</ele>
        <time>2016-10-29T05:15:09Z</time>
      </trkpt>
      <trkpt lat="42.453420000" lon="-2.483855000">
        <ele>412.60</ele>
        <time>2016-10-29T05:15:10Z</time>
      </trkpt>
      <trkpt lat="42.453413000" lon="-2.483904000">
        <ele>412.50</ele>
        <time>2016-10-29T05:15:11Z</time>
      </trkpt>
      <trkpt lat="42.453406000" lon="-2.483953000">
        <ele>412.40</ele>
        <time>2016-10-29T05:15:12Z</time>
      </trkpt>
      <trkpt lat="42.453399000" lon="-2.483995000">
        <ele>412.40</ele>
        <time>2016-10-29T05:15:13Z</time>
      </trkpt>
      <trkpt lat="42.453396000" lon="-2.484040000">
        <ele>412.40</ele>
        <time>2016-10-29T05:15:14Z</time>
      </trkpt>
      <trkpt lat="42.453390000" lon="-2.484089000">
        <ele>412.30</ele>
        <time>2016-10-29T05:15:15Z</time>
      </trkpt>
      <trkpt lat="42.453382000" lon="-2.484140000">
        <ele>412.20</ele>
        <time>2016-10-29T05:15:16Z</time>
      </trkpt>
      <trkpt lat="42.453376000" lon="-2.484193000">
        <ele>412.20</ele>
        <time>2016-10-29T05:15:17Z</time>
      </trkpt>
      <trkpt lat="42.453369000" lon="-2.484241000">
        <ele>412.10</ele>
        <time>2016-10-29T05:15:18Z</time>
      </trkpt>
      <trkpt lat="42.453361000" lon="-2.484286000">
        <ele>412.10</ele>
        <time>2016-10-29T05:15:19Z</time>
      </trkpt>
      <trkpt lat="42.453354000" lon="-2.484333000">
        <ele>412.10</ele>
        <time>2016-10-29T05:15:20Z</time>
      </trkpt>
      <trkpt lat="42.453347000" lon="-2.484381000">
        <ele>412.10</ele>
        <time>2016-10-29T05:15:21Z</time>
      </trkpt>
      <trkpt lat="42.453339000" lon="-2.484425000">
        <ele>412.10</ele>
        <time>2016-10-29T05:15:22Z</time>
      </trkpt>
      <trkpt lat="42.453330000" lon="-2.484471000">
        <ele>412.30</ele>
        <time>2016-10-29T05:15:23Z</time>
      </trkpt>
      <trkpt lat="42.453324000" lon="-2.484519000">
        <ele>412.40</ele>
        <time>2016-10-29T05:15:24Z</time>
      </trkpt>
      <trkpt lat="42.453317000" lon="-2.484565000">
        <ele>412.30</ele>
        <time>2016-10-29T05:15:25Z</time>
      </trkpt>
      <trkpt lat="42.453309000" lon="-2.484613000">
        <ele>412.20</ele>
        <time>2016-10-29T05:15:26Z</time>
      </trkpt>
      <trkpt lat="42.453301000" lon="-2.484661000">
        <ele>412.30</ele>
        <time>2016-10-29T05:15:27Z</time>
      </trkpt>
      <trkpt lat="42.453294000" lon="-2.484706000">
        <ele>412.30</ele>
        <time>2016-10-29T05:15:28Z</time>
      </trkpt>
      <trkpt lat="42.453286000" lon="-2.484753000">
        <ele>412.20</ele>
        <time>2016-10-29T05:15:29Z</time>
      </trkpt>
      <trkpt lat="42.453277000" lon="-2.484799000">
        <ele>412.20</ele>
        <time>2016-10-29T05:15:30Z</time>
      </trkpt>
      <trkpt lat="42.453270000" lon="-2.484844000">
        <ele>412.20</ele>
        <time>2016-10-29T05:15:31Z</time>
      </trkpt>
      <trkpt lat="42.453261000" lon="-2.484890000">
        <ele>412.20</ele>
        <time>2016-10-29T05:15:32Z</time>
      </trkpt>
      <trkpt lat="42.453254000" lon="-2.484934000">
        <ele>412.30</ele>
        <time>2016-10-29T05:15:33Z</time>
      </trkpt>
      <trkpt lat="42.453249000" lon="-2.484983000">
        <ele>412.30</ele>
        <time>2016-10-29T05:15:34Z</time>
      </trkpt>
      <trkpt lat="42.453242000" lon="-2.485027000">
        <ele>412.40</ele>
        <time>2016-10-29T05:15:35Z</time>
      </trkpt>
      <trkpt lat="42.453237000" lon="-2.485071000">
        <ele>412.40</ele>
        <time>2016-10-29T05:15:36Z</time>
      </trkpt>
      <trkpt lat="42.453231000" lon="-2.485116000">
        <ele>412.40</ele>
        <time>2016-10-29T05:15:37Z</time>
      </trkpt>
      <trkpt lat="42.453225000" lon="-2.485157000">
        <ele>412.40</ele>
        <time>2016-10-29T05:15:38Z</time>
      </trkpt>
      <trkpt lat="42.453218000" lon="-2.485201000">
        <ele>412.40</ele>
        <time>2016-10-29T05:15:39Z</time>
      </trkpt>
      <trkpt lat="42.453211000" lon="-2.485250000">
        <ele>412.40</ele>
        <time>2016-10-29T05:15:40Z</time>
      </trkpt>
      <trkpt lat="42.453203000" lon="-2.485298000">
        <ele>412.40</ele>
        <time>2016-10-29T05:15:41Z</time>
      </trkpt>
      <trkpt lat="42.453197000" lon="-2.485346000">
        <ele>412.40</ele>
        <time>2016-10-29T05:15:42Z</time>
      </trkpt>
      <trkpt lat="42.453191000" lon="-2.485393000">
        <ele>412.50</ele>
        <time>2016-10-29T05:15:43Z</time>
      </trkpt>
      <trkpt lat="42.453185000" lon="-2.485439000">
        <ele>412.50</ele>
        <time>2016-10-29T05:15:44Z</time>
      </trkpt>
      <trkpt lat="42.453177000" lon="-2.485484000">
        <ele>412.50</ele>
        <time>2016-10-29T05:15:45Z</time>
      </trkpt>
      <trkpt lat="42.453168000" lon="-2.485531000">
        <ele>412.50</ele>
        <time>2016-10-29T05:15:46Z</time>
      </trkpt>
      <trkpt lat="42.453163000" lon="-2.485577000">
        <ele>412.50</ele>
        <time>2016-10-29T05:15:47Z</time>
      </trkpt>
      <trkpt lat="42.453155000" lon="-2.485621000">
        <ele>412.50</ele>
        <time>2016-10-29T05:15:48Z</time>
      </trkpt>
      <trkpt lat="42.453148000" lon="-2.485666000">
        <ele>412.70</ele>
        <time>2016-10-29T05:15:49Z</time>
      </trkpt>
      <trkpt lat="42.453143000" lon="-2.485710000">
        <ele>412.80</ele>
        <time>2016-10-29T05:15:50Z</time>
      </trkpt>
      <trkpt lat="42.453136000" lon="-2.485751000">
        <ele>412.90</ele>
        <time>2016-10-29T05:15:51Z</time>
      </trkpt>
      <trkpt lat="42.453130000" lon="-2.485791000">
        <ele>413.00</ele>
        <time>2016-10-29T05:15:52Z</time>
      </trkpt>
      <trkpt lat="42.453128000" lon="-2.485834000">
        <ele>413.00</ele>
        <time>2016-10-29T05:15:53Z</time>
      </trkpt>
      <trkpt lat="42.453122000" lon="-2.485923000">
        <ele>413.00</ele>
        <time>2016-10-29T05:15:55Z</time>
      </trkpt>
      <trkpt lat="42.453117000" lon="-2.485971000">
        <ele>413.00</ele>
        <time>2016-10-29T05:15:56Z</time>
      </trkpt>
      <trkpt lat="42.453118000" lon="-2.486023000">
        <ele>413.00</ele>
        <time>2016-10-29T05:15:57Z</time>
      </trkpt>
      <trkpt lat="42.453116000" lon="-2.486076000">
        <ele>413.10</ele>
        <time>2016-10-29T05:15:58Z</time>
      </trkpt>
      <trkpt lat="42.453111000" lon="-2.486128000">
        <ele>413.10</ele>
        <time>2016-10-29T05:15:59Z</time>
      </trkpt>
      <trkpt lat="42.453106000" lon="-2.486180000">
        <ele>413.20</ele>
        <time>2016-10-29T05:16:00Z</time>
      </trkpt>
      <trkpt lat="42.453102000" lon="-2.486226000">
        <ele>413.20</ele>
        <time>2016-10-29T05:16:01Z</time>
      </trkpt>
      <trkpt lat="42.453097000" lon="-2.486272000">
        <ele>413.30</ele>
        <time>2016-10-29T05:16:02Z</time>
      </trkpt>
      <trkpt lat="42.453093000" lon="-2.486319000">
        <ele>413.20</ele>
        <time>2016-10-29T05:16:03Z</time>
      </trkpt>
      <trkpt lat="42.453089000" lon="-2.486368000">
        <ele>413.20</ele>
        <time>2016-10-29T05:16:04Z</time>
      </trkpt>
      <trkpt lat="42.453084000" lon="-2.486415000">
        <ele>413.10</ele>
        <time>2016-10-29T05:16:05Z</time>
      </trkpt>
      <trkpt lat="42.453080000" lon="-2.486464000">
        <ele>413.00</ele>
        <time>2016-10-29T05:16:06Z</time>
      </trkpt>
      <trkpt lat="42.453074000" lon="-2.486511000">
        <ele>413.00</ele>
        <time>2016-10-29T05:16:07Z</time>
      </trkpt>
      <trkpt lat="42.453070000" lon="-2.486558000">
        <ele>413.00</ele>
        <time>2016-10-29T05:16:08Z</time>
      </trkpt>
      <trkpt lat="42.453066000" lon="-2.486604000">
        <ele>413.10</ele>
        <time>2016-10-29T05:16:09Z</time>
      </trkpt>
      <trkpt lat="42.453063000" lon="-2.486651000">
        <ele>413.20</ele>
        <time>2016-10-29T05:16:10Z</time>
      </trkpt>
      <trkpt lat="42.453058000" lon="-2.486697000">
        <ele>413.30</ele>
        <time>2016-10-29T05:16:11Z</time>
      </trkpt>
      <trkpt lat="42.453050000" lon="-2.486745000">
        <ele>413.40</ele>
        <time>2016-10-29T05:16:12Z</time>
      </trkpt>
      <trkpt lat="42.453042000" lon="-2.486792000">
        <ele>413.50</ele>
        <time>2016-10-29T05:16:13Z</time>
      </trkpt>
      <trkpt lat="42.453034000" lon="-2.486838000">
        <ele>413.60</ele>
        <time>2016-10-29T05:16:14Z</time>
      </trkpt>
      <trkpt lat="42.453024000" lon="-2.486880000">
        <ele>413.60</ele>
        <time>2016-10-29T05:16:15Z</time>
      </trkpt>
      <trkpt lat="42.453011000" lon="-2.486924000">
        <ele>413.60</ele>
        <time>2016-10-29T05:16:16Z</time>
      </trkpt>
      <trkpt lat="42.452998000" lon="-2.486967000">
        <ele>413.60</ele>
        <time>2016-10-29T05:16:17Z</time>
      </trkpt>
      <trkpt lat="42.452982000" lon="-2.487007000">
        <ele>413.50</ele>
        <time>2016-10-29T05:16:18Z</time>
      </trkpt>
      <trkpt lat="42.452967000" lon="-2.487047000">
        <ele>413.50</ele>
        <time>2016-10-29T05:16:19Z</time>
      </trkpt>
      <trkpt lat="42.452952000" lon="-2.487089000">
        <ele>413.50</ele>
        <time>2016-10-29T05:16:20Z</time>
      </trkpt>
      <trkpt lat="42.452935000" lon="-2.487127000">
        <ele>413.70</ele>
        <time>2016-10-29T05:16:21Z</time>
      </trkpt>
      <trkpt lat="42.452920000" lon="-2.487165000">
        <ele>413.90</ele>
        <time>2016-10-29T05:16:22Z</time>
      </trkpt>
      <trkpt lat="42.452903000" lon="-2.487203000">
        <ele>414.00</ele>
        <time>2016-10-29T05:16:23Z</time>
      </trkpt>
      <trkpt lat="42.452886000" lon="-2.487240000">
        <ele>414.10</ele>
        <time>2016-10-29T05:16:24Z</time>
      </trkpt>
      <trkpt lat="42.452870000" lon="-2.487281000">
        <ele>414.20</ele>
        <time>2016-10-29T05:16:25Z</time>
      </trkpt>
      <trkpt lat="42.452855000" lon="-2.487318000">
        <ele>414.20</ele>
        <time>2016-10-29T05:16:26Z</time>
      </trkpt>
      <trkpt lat="42.452838000" lon="-2.487357000">
        <ele>414.20</ele>
        <time>2016-10-29T05:16:27Z</time>
      </trkpt>
      <trkpt lat="42.452824000" lon="-2.487396000">
        <ele>414.30</ele>
        <time>2016-10-29T05:16:28Z</time>
      </trkpt>
      <trkpt lat="42.452806000" lon="-2.487435000">
        <ele>414.40</ele>
        <time>2016-10-29T05:16:29Z</time>
      </trkpt>
      <trkpt lat="42.452789000" lon="-2.487475000">
        <ele>414.40</ele>
        <time>2016-10-29T05:16:30Z</time>
      </trkpt>
      <trkpt lat="42.452772000" lon="-2.487515000">
        <ele>414.50</ele>
        <time>2016-10-29T05:16:31Z</time>
      </trkpt>
      <trkpt lat="42.452755000" lon="-2.487556000">
        <ele>414.50</ele>
        <time>2016-10-29T05:16:32Z</time>
      </trkpt>
      <trkpt lat="42.452739000" lon="-2.487597000">
        <ele>414.50</ele>
        <time>2016-10-29T05:16:33Z</time>
      </trkpt>
      <trkpt lat="42.452721000" lon="-2.487638000">
        <ele>414.50</ele>
        <time>2016-10-29T05:16:34Z</time>
      </trkpt>
      <trkpt lat="42.452703000" lon="-2.487678000">
        <ele>414.60</ele>
        <time>2016-10-29T05:16:35Z</time>
      </trkpt>
      <trkpt lat="42.452686000" lon="-2.487717000">
        <ele>414.60</ele>
        <time>2016-10-29T05:16:36Z</time>
      </trkpt>
      <trkpt lat="42.452672000" lon="-2.487754000">
        <ele>414.60</ele>
        <time>2016-10-29T05:16:37Z</time>
      </trkpt>
      <trkpt lat="42.452656000" lon="-2.487792000">
        <ele>414.70</ele>
        <time>2016-10-29T05:16:38Z</time>
      </trkpt>
      <trkpt lat="42.452643000" lon="-2.487831000">
        <ele>414.70</ele>
        <time>2016-10-29T05:16:39Z</time>
      </trkpt>
      <trkpt lat="42.452627000" lon="-2.487868000">
        <ele>414.80</ele>
        <time>2016-10-29T05:16:40Z</time>
      </trkpt>
      <trkpt lat="42.452611000" lon="-2.487911000">
        <ele>414.80</ele>
        <time>2016-10-29T05:16:41Z</time>
      </trkpt>
      <trkpt lat="42.452597000" lon="-2.487953000">
        <ele>414.80</ele>
        <time>2016-10-29T05:16:42Z</time>
      </trkpt>
      <trkpt lat="42.452583000" lon="-2.487993000">
        <ele>414.70</ele>
        <time>2016-10-29T05:16:43Z</time>
      </trkpt>
      <trkpt lat="42.452567000" lon="-2.488035000">
        <ele>414.70</ele>
        <time>2016-10-29T05:16:44Z</time>
      </trkpt>
      <trkpt lat="42.452550000" lon="-2.488076000">
        <ele>414.70</ele>
        <time>2016-10-29T05:16:45Z</time>
      </trkpt>
      <trkpt lat="42.452535000" lon="-2.488118000">
        <ele>414.70</ele>
        <time>2016-10-29T05:16:46Z</time>
      </trkpt>
      <trkpt lat="42.452518000" lon="-2.488159000">
        <ele>414.70</ele>
        <time>2016-10-29T05:16:47Z</time>
      </trkpt>
      <trkpt lat="42.452502000" lon="-2.488200000">
        <ele>414.70</ele>
        <time>2016-10-29T05:16:48Z</time>
      </trkpt>
      <trkpt lat="42.452486000" lon="-2.488242000">
        <ele>414.80</ele>
        <time>2016-10-29T05:16:49Z</time>
      </trkpt>
      <trkpt lat="42.452469000" lon="-2.488283000">
        <ele>414.80</ele>
        <time>2016-10-29T05:16:50Z</time>
      </trkpt>
      <trkpt lat="42.452453000" lon="-2.488325000">
        <ele>415.00</ele>
        <time>2016-10-29T05:16:51Z</time>
      </trkpt>
      <trkpt lat="42.452437000" lon="-2.488367000">
        <ele>415.20</ele>
        <time>2016-10-29T05:16:52Z</time>
      </trkpt>
      <trkpt lat="42.452421000" lon="-2.488410000">
        <ele>415.30</ele>
        <time>2016-10-29T05:16:53Z</time>
      </trkpt>
      <trkpt lat="42.452403000" lon="-2.488454000">
        <ele>415.40</ele>
        <time>2016-10-29T05:16:54Z</time>
      </trkpt>
      <trkpt lat="42.452371000" lon="-2.488538000">
        <ele>415.40</ele>
        <time>2016-10-29T05:16:56Z</time>
      </trkpt>
      <trkpt lat="42.452355000" lon="-2.488577000">
        <ele>415.30</ele>
        <time>2016-10-29T05:16:57Z</time>
      </trkpt>
      <trkpt lat="42.452341000" lon="-2.488620000">
        <ele>415.20</ele>
        <time>2016-10-29T05:16:58Z</time>
      </trkpt>
      <trkpt lat="42.452324000" lon="-2.488663000">
        <ele>415.30</ele>
        <time>2016-10-29T05:16:59Z</time>
      </trkpt>
      <trkpt lat="42.452306000" lon="-2.488706000">
        <ele>415.30</ele>
        <time>2016-10-29T05:17:00Z</time>
      </trkpt>
      <trkpt lat="42.452291000" lon="-2.488749000">
        <ele>415.40</ele>
        <time>2016-10-29T05:17:01Z</time>
      </trkpt>
      <trkpt lat="42.452276000" lon="-2.488791000">
        <ele>415.40</ele>
        <time>2016-10-29T05:17:02Z</time>
      </trkpt>
      <trkpt lat="42.452259000" lon="-2.488832000">
        <ele>415.40</ele>
        <time>2016-10-29T05:17:03Z</time>
      </trkpt>
      <trkpt lat="42.452242000" lon="-2.488876000">
        <ele>415.50</ele>
        <time>2016-10-29T05:17:04Z</time>
      </trkpt>
      <trkpt lat="42.452226000" lon="-2.488918000">
        <ele>415.50</ele>
        <time>2016-10-29T05:17:05Z</time>
      </trkpt>
      <trkpt lat="42.452210000" lon="-2.488961000">
        <ele>415.60</ele>
        <time>2016-10-29T05:17:06Z</time>
      </trkpt>
      <trkpt lat="42.452194000" lon="-2.489003000">
        <ele>415.60</ele>
        <time>2016-10-29T05:17:07Z</time>
      </trkpt>
      <trkpt lat="42.452178000" lon="-2.489045000">
        <ele>415.70</ele>
        <time>2016-10-29T05:17:08Z</time>
      </trkpt>
      <trkpt lat="42.452162000" lon="-2.489086000">
        <ele>415.70</ele>
        <time>2016-10-29T05:17:09Z</time>
      </trkpt>
      <trkpt lat="42.452146000" lon="-2.489127000">
        <ele>415.70</ele>
        <time>2016-10-29T05:17:10Z</time>
      </trkpt>
      <trkpt lat="42.452129000" lon="-2.489168000">
        <ele>415.70</ele>
        <time>2016-10-29T05:17:11Z</time>
      </trkpt>
      <trkpt lat="42.452113000" lon="-2.489210000">
        <ele>415.60</ele>
        <time>2016-10-29T05:17:12Z</time>
      </trkpt>
      <trkpt lat="42.452097000" lon="-2.489250000">
        <ele>415.60</ele>
        <time>2016-10-29T05:17:13Z</time>
      </trkpt>
      <trkpt lat="42.452082000" lon="-2.489290000">
        <ele>415.60</ele>
        <time>2016-10-29T05:17:14Z</time>
      </trkpt>
      <trkpt lat="42.452064000" lon="-2.489332000">
        <ele>415.60</ele>
        <time>2016-10-29T05:17:15Z</time>
      </trkpt>
      <trkpt lat="42.452048000" lon="-2.489373000">
        <ele>415.60</ele>
        <time>2016-10-29T05:17:16Z</time>
      </trkpt>
      <trkpt lat="42.452031000" lon="-2.489416000">
        <ele>415.60</ele>
        <time>2016-10-29T05:17:17Z</time>
      </trkpt>
      <trkpt lat="42.452018000" lon="-2.489458000">
        <ele>415.60</ele>
        <time>2016-10-29T05:17:18Z</time>
      </trkpt>
      <trkpt lat="42.452003000" lon="-2.489501000">
        <ele>415.50</ele>
        <time>2016-10-29T05:17:19Z</time>
      </trkpt>
      <trkpt lat="42.451988000" lon="-2.489539000">
        <ele>415.50</ele>
        <time>2016-10-29T05:17:20Z</time>
      </trkpt>
      <trkpt lat="42.451971000" lon="-2.489580000">
        <ele>415.50</ele>
        <time>2016-10-29T05:17:21Z</time>
      </trkpt>
      <trkpt lat="42.451957000" lon="-2.489621000">
        <ele>415.50</ele>
        <time>2016-10-29T05:17:22Z</time>
      </trkpt>
      <trkpt lat="42.451942000" lon="-2.489658000">
        <ele>415.70</ele>
        <time>2016-10-29T05:17:23Z</time>
      </trkpt>
      <trkpt lat="42.451926000" lon="-2.489697000">
        <ele>415.90</ele>
        <time>2016-10-29T05:17:24Z</time>
      </trkpt>
      <trkpt lat="42.451909000" lon="-2.489735000">
        <ele>416.10</ele>
        <time>2016-10-29T05:17:25Z</time>
      </trkpt>
      <trkpt lat="42.451894000" lon="-2.489776000">
        <ele>416.20</ele>
        <time>2016-10-29T05:17:26Z</time>
      </trkpt>
      <trkpt lat="42.451878000" lon="-2.489814000">
        <ele>416.30</ele>
        <time>2016-10-29T05:17:27Z</time>
      </trkpt>
      <trkpt lat="42.451862000" lon="-2.489854000">
        <ele>416.40</ele>
        <time>2016-10-29T05:17:28Z</time>
      </trkpt>
      <trkpt lat="42.451846000" lon="-2.489895000">
        <ele>416.50</ele>
        <time>2016-10-29T05:17:29Z</time>
      </trkpt>
      <trkpt lat="42.451831000" lon="-2.489936000">
        <ele>416.60</ele>
        <time>2016-10-29T05:17:30Z</time>
      </trkpt>
      <trkpt lat="42.451814000" lon="-2.489978000">
        <ele>416.80</ele>
        <time>2016-10-29T05:17:31Z</time>
      </trkpt>
      <trkpt lat="42.451797000" lon="-2.490019000">
        <ele>416.90</ele>
        <time>2016-10-29T05:17:32Z</time>
      </trkpt>
      <trkpt lat="42.451781000" lon="-2.490062000">
        <ele>416.90</ele>
        <time>2016-10-29T05:17:33Z</time>
      </trkpt>
      <trkpt lat="42.451768000" lon="-2.490105000">
        <ele>417.00</ele>
        <time>2016-10-29T05:17:34Z</time>
      </trkpt>
      <trkpt lat="42.451751000" lon="-2.490144000">
        <ele>417.00</ele>
        <time>2016-10-29T05:17:35Z</time>
      </trkpt>
      <trkpt lat="42.451735000" lon="-2.490186000">
        <ele>417.10</ele>
        <time>2016-10-29T05:17:36Z</time>
      </trkpt>
      <trkpt lat="42.451721000" lon="-2.490227000">
        <ele>417.10</ele>
        <time>2016-10-29T05:17:37Z</time>
      </trkpt>
      <trkpt lat="42.451708000" lon="-2.490271000">
        <ele>417.10</ele>
        <time>2016-10-29T05:17:38Z</time>
      </trkpt>
      <trkpt lat="42.451693000" lon="-2.490314000">
        <ele>417.00</ele>
        <time>2016-10-29T05:17:39Z</time>
      </trkpt>
      <trkpt lat="42.451681000" lon="-2.490355000">
        <ele>417.00</ele>
        <time>2016-10-29T05:17:40Z</time>
      </trkpt>
      <trkpt lat="42.451671000" lon="-2.490400000">
        <ele>417.10</ele>
        <time>2016-10-29T05:17:41Z</time>
      </trkpt>
      <trkpt lat="42.451660000" lon="-2.490445000">
        <ele>417.20</ele>
        <time>2016-10-29T05:17:42Z</time>
      </trkpt>
      <trkpt lat="42.451652000" lon="-2.490488000">
        <ele>417.20</ele>
        <time>2016-10-29T05:17:43Z</time>
      </trkpt>
      <trkpt lat="42.451641000" lon="-2.490531000">
        <ele>417.30</ele>
        <time>2016-10-29T05:17:44Z</time>
      </trkpt>
      <trkpt lat="42.451629000" lon="-2.490573000">
        <ele>417.30</ele>
        <time>2016-10-29T05:17:45Z</time>
      </trkpt>
      <trkpt lat="42.451621000" lon="-2.490615000">
        <ele>417.30</ele>
        <time>2016-10-29T05:17:46Z</time>
      </trkpt>
      <trkpt lat="42.451612000" lon="-2.490656000">
        <ele>417.40</ele>
        <time>2016-10-29T05:17:47Z</time>
      </trkpt>
      <trkpt lat="42.451601000" lon="-2.490704000">
        <ele>417.40</ele>
        <time>2016-10-29T05:17:48Z</time>
      </trkpt>
      <trkpt lat="42.451593000" lon="-2.490747000">
        <ele>417.40</ele>
        <time>2016-10-29T05:17:49Z</time>
      </trkpt>
      <trkpt lat="42.451584000" lon="-2.490791000">
        <ele>417.40</ele>
        <time>2016-10-29T05:17:50Z</time>
      </trkpt>
      <trkpt lat="42.451577000" lon="-2.490839000">
        <ele>417.50</ele>
        <time>2016-10-29T05:17:51Z</time>
      </trkpt>
      <trkpt lat="42.451566000" lon="-2.490883000">
        <ele>417.50</ele>
        <time>2016-10-29T05:17:52Z</time>
      </trkpt>
      <trkpt lat="42.451556000" lon="-2.490927000">
        <ele>417.50</ele>
        <time>2016-10-29T05:17:53Z</time>
      </trkpt>
      <trkpt lat="42.451547000" lon="-2.490970000">
        <ele>417.60</ele>
        <time>2016-10-29T05:17:54Z</time>
      </trkpt>
      <trkpt lat="42.451537000" lon="-2.491014000">
        <ele>417.70</ele>
        <time>2016-10-29T05:17:55Z</time>
      </trkpt>
      <trkpt lat="42.451514000" lon="-2.491103000">
        <ele>417.90</ele>
        <time>2016-10-29T05:17:57Z</time>
      </trkpt>
      <trkpt lat="42.451502000" lon="-2.491145000">
        <ele>418.00</ele>
        <time>2016-10-29T05:17:58Z</time>
      </trkpt>
      <trkpt lat="42.451488000" lon="-2.491188000">
        <ele>418.10</ele>
        <time>2016-10-29T05:17:59Z</time>
      </trkpt>
      <trkpt lat="42.451474000" lon="-2.491229000">
        <ele>418.20</ele>
        <time>2016-10-29T05:18:00Z</time>
      </trkpt>
      <trkpt lat="42.451463000" lon="-2.491273000">
        <ele>418.30</ele>
        <time>2016-10-29T05:18:01Z</time>
      </trkpt>
      <trkpt lat="42.451452000" lon="-2.491315000">
        <ele>418.40</ele>
        <time>2016-10-29T05:18:02Z</time>
      </trkpt>
      <trkpt lat="42.451442000" lon="-2.491359000">
        <ele>418.30</ele>
        <time>2016-10-29T05:18:03Z</time>
      </trkpt>
      <trkpt lat="42.451432000" lon="-2.491400000">
        <ele>418.30</ele>
        <time>2016-10-29T05:18:04Z</time>
      </trkpt>
      <trkpt lat="42.451422000" lon="-2.491441000">
        <ele>418.20</ele>
        <time>2016-10-29T05:18:05Z</time>
      </trkpt>
      <trkpt lat="42.451411000" lon="-2.491484000">
        <ele>418.20</ele>
        <time>2016-10-29T05:18:06Z</time>
      </trkpt>
      <trkpt lat="42.451401000" lon="-2.491527000">
        <ele>418.20</ele>
        <time>2016-10-29T05:18:07Z</time>
      </trkpt>
      <trkpt lat="42.451389000" lon="-2.491569000">
        <ele>418.10</ele>
        <time>2016-10-29T05:18:08Z</time>
      </trkpt>
      <trkpt lat="42.451378000" lon="-2.491609000">
        <ele>418.10</ele>
        <time>2016-10-29T05:18:09Z</time>
      </trkpt>
      <trkpt lat="42.451368000" lon="-2.491651000">
        <ele>418.10</ele>
        <time>2016-10-29T05:18:10Z</time>
      </trkpt>
      <trkpt lat="42.451358000" lon="-2.491692000">
        <ele>418.10</ele>
        <time>2016-10-29T05:18:11Z</time>
      </trkpt>
      <trkpt lat="42.451349000" lon="-2.491729000">
        <ele>418.10</ele>
        <time>2016-10-29T05:18:12Z</time>
      </trkpt>
      <trkpt lat="42.451338000" lon="-2.491770000">
        <ele>418.20</ele>
        <time>2016-10-29T05:18:13Z</time>
      </trkpt>
      <trkpt lat="42.451327000" lon="-2.491810000">
        <ele>418.20</ele>
        <time>2016-10-29T05:18:14Z</time>
      </trkpt>
      <trkpt lat="42.451312000" lon="-2.491851000">
        <ele>418.40</ele>
        <time>2016-10-29T05:18:15Z</time>
      </trkpt>
      <trkpt lat="42.451299000" lon="-2.491895000">
        <ele>418.60</ele>
        <time>2016-10-29T05:18:16Z</time>
      </trkpt>
      <trkpt lat="42.451286000" lon="-2.491938000">
        <ele>418.70</ele>
        <time>2016-10-29T05:18:17Z</time>
      </trkpt>
      <trkpt lat="42.451276000" lon="-2.491984000">
        <ele>418.90</ele>
        <time>2016-10-29T05:18:18Z</time>
      </trkpt>
      <trkpt lat="42.451264000" lon="-2.492029000">
        <ele>419.00</ele>
        <time>2016-10-29T05:18:19Z</time>
      </trkpt>
      <trkpt lat="42.451252000" lon="-2.492073000">
        <ele>419.10</ele>
        <time>2016-10-29T05:18:20Z</time>
      </trkpt>
      <trkpt lat="42.451238000" lon="-2.492118000">
        <ele>419.10</ele>
        <time>2016-10-29T05:18:21Z</time>
      </trkpt>
      <trkpt lat="42.451226000" lon="-2.492160000">
        <ele>419.20</ele>
        <time>2016-10-29T05:18:22Z</time>
      </trkpt>
      <trkpt lat="42.451213000" lon="-2.492203000">
        <ele>419.20</ele>
        <time>2016-10-29T05:18:23Z</time>
      </trkpt>
      <trkpt lat="42.451201000" lon="-2.492249000">
        <ele>419.20</ele>
        <time>2016-10-29T05:18:24Z</time>
      </trkpt>
      <trkpt lat="42.451189000" lon="-2.492294000">
        <ele>419.30</ele>
        <time>2016-10-29T05:18:25Z</time>
      </trkpt>
      <trkpt lat="42.451178000" lon="-2.492337000">
        <ele>419.40</ele>
        <time>2016-10-29T05:18:26Z</time>
      </trkpt>
      <trkpt lat="42.451166000" lon="-2.492378000">
        <ele>419.50</ele>
        <time>2016-10-29T05:18:27Z</time>
      </trkpt>
      <trkpt lat="42.451154000" lon="-2.492424000">
        <ele>419.60</ele>
        <time>2016-10-29T05:18:28Z</time>
      </trkpt>
      <trkpt lat="42.451142000" lon="-2.492466000">
        <ele>419.50</ele>
        <time>2016-10-29T05:18:29Z</time>
      </trkpt>
      <trkpt lat="42.451132000" lon="-2.492509000">
        <ele>419.50</ele>
        <time>2016-10-29T05:18:30Z</time>
      </trkpt>
      <trkpt lat="42.451122000" lon="-2.492555000">
        <ele>419.50</ele>
        <time>2016-10-29T05:18:31Z</time>
      </trkpt>
      <trkpt lat="42.451111000" lon="-2.492598000">
        <ele>419.50</ele>
        <time>2016-10-29T05:18:32Z</time>
      </trkpt>
      <trkpt lat="42.451098000" lon="-2.492643000">
        <ele>419.70</ele>
        <time>2016-10-29T05:18:33Z</time>
      </trkpt>
      <trkpt lat="42.451089000" lon="-2.492688000">
        <ele>419.80</ele>
        <time>2016-10-29T05:18:34Z</time>
      </trkpt>
      <trkpt lat="42.451079000" lon="-2.492728000">
        <ele>419.90</ele>
        <time>2016-10-29T05:18:35Z</time>
      </trkpt>
      <trkpt lat="42.451069000" lon="-2.492774000">
        <ele>420.00</ele>
        <time>2016-10-29T05:18:36Z</time>
      </trkpt>
      <trkpt lat="42.451058000" lon="-2.492820000">
        <ele>420.00</ele>
        <time>2016-10-29T05:18:37Z</time>
      </trkpt>
      <trkpt lat="42.451048000" lon="-2.492861000">
        <ele>420.00</ele>
        <time>2016-10-29T05:18:38Z</time>
      </trkpt>
      <trkpt lat="42.451037000" lon="-2.492905000">
        <ele>420.00</ele>
        <time>2016-10-29T05:18:39Z</time>
      </trkpt>
      <trkpt lat="42.451029000" lon="-2.492949000">
        <ele>420.00</ele>
        <time>2016-10-29T05:18:40Z</time>
      </trkpt>
      <trkpt lat="42.451016000" lon="-2.492993000">
        <ele>420.00</ele>
        <time>2016-10-29T05:18:41Z</time>
      </trkpt>
      <trkpt lat="42.451007000" lon="-2.493034000">
        <ele>420.10</ele>
        <time>2016-10-29T05:18:42Z</time>
      </trkpt>
      <trkpt lat="42.451001000" lon="-2.493080000">
        <ele>420.20</ele>
        <time>2016-10-29T05:18:43Z</time>
      </trkpt>
      <trkpt lat="42.450992000" lon="-2.493120000">
        <ele>420.30</ele>
        <time>2016-10-29T05:18:44Z</time>
      </trkpt>
      <trkpt lat="42.450980000" lon="-2.493165000">
        <ele>420.40</ele>
        <time>2016-10-29T05:18:45Z</time>
      </trkpt>
      <trkpt lat="42.450966000" lon="-2.493207000">
        <ele>420.50</ele>
        <time>2016-10-29T05:18:46Z</time>
      </trkpt>
      <trkpt lat="42.450956000" lon="-2.493248000">
        <ele>420.60</ele>
        <time>2016-10-29T05:18:47Z</time>
      </trkpt>
      <trkpt lat="42.450946000" lon="-2.493294000">
        <ele>420.70</ele>
        <time>2016-10-29T05:18:48Z</time>
      </trkpt>
      <trkpt lat="42.450933000" lon="-2.493337000">
        <ele>420.80</ele>
        <time>2016-10-29T05:18:49Z</time>
      </trkpt>
      <trkpt lat="42.450922000" lon="-2.493381000">
        <ele>420.80</ele>
        <time>2016-10-29T05:18:50Z</time>
      </trkpt>
      <trkpt lat="42.450911000" lon="-2.493425000">
        <ele>420.70</ele>
        <time>2016-10-29T05:18:51Z</time>
      </trkpt>
      <trkpt lat="42.450897000" lon="-2.493469000">
        <ele>420.70</ele>
        <time>2016-10-29T05:18:52Z</time>
      </trkpt>
      <trkpt lat="42.450882000" lon="-2.493514000">
        <ele>420.60</ele>
        <time>2016-10-29T05:18:53Z</time>
      </trkpt>
      <trkpt lat="42.450866000" lon="-2.493558000">
        <ele>420.60</ele>
        <time>2016-10-29T05:18:54Z</time>
      </trkpt>
      <trkpt lat="42.450851000" lon="-2.493602000">
        <ele>420.60</ele>
        <time>2016-10-29T05:18:55Z</time>
      </trkpt>
      <trkpt lat="42.450836000" lon="-2.493646000">
        <ele>420.50</ele>
        <time>2016-10-29T05:18:56Z</time>
      </trkpt>
      <trkpt lat="42.450808000" lon="-2.493726000">
        <ele>420.40</ele>
        <time>2016-10-29T05:18:58Z</time>
      </trkpt>
      <trkpt lat="42.450795000" lon="-2.493765000">
        <ele>420.40</ele>
        <time>2016-10-29T05:18:59Z</time>
      </trkpt>
      <trkpt lat="42.450781000" lon="-2.493803000">
        <ele>420.40</ele>
        <time>2016-10-29T05:19:00Z</time>
      </trkpt>
      <trkpt lat="42.450770000" lon="-2.493845000">
        <ele>420.40</ele>
        <time>2016-10-29T05:19:01Z</time>
      </trkpt>
      <trkpt lat="42.450764000" lon="-2.493886000">
        <ele>420.50</ele>
        <time>2016-10-29T05:19:02Z</time>
      </trkpt>
      <trkpt lat="42.450753000" lon="-2.493936000">
        <ele>420.50</ele>
        <time>2016-10-29T05:19:03Z</time>
      </trkpt>
      <trkpt lat="42.450741000" lon="-2.493984000">
        <ele>420.50</ele>
        <time>2016-10-29T05:19:04Z</time>
      </trkpt>
      <trkpt lat="42.450727000" lon="-2.494029000">
        <ele>420.50</ele>
        <time>2016-10-29T05:19:05Z</time>
      </trkpt>
      <trkpt lat="42.450712000" lon="-2.494078000">
        <ele>420.60</ele>
        <time>2016-10-29T05:19:06Z</time>
      </trkpt>
      <trkpt lat="42.450695000" lon="-2.494122000">
        <ele>420.70</ele>
        <time>2016-10-29T05:19:07Z</time>
      </trkpt>
      <trkpt lat="42.450679000" lon="-2.494168000">
        <ele>420.70</ele>
        <time>2016-10-29T05:19:08Z</time>
      </trkpt>
      <trkpt lat="42.450664000" lon="-2.494213000">
        <ele>420.80</ele>
        <time>2016-10-29T05:19:09Z</time>
      </trkpt>
      <trkpt lat="42.450651000" lon="-2.494258000">
        <ele>420.90</ele>
        <time>2016-10-29T05:19:10Z</time>
      </trkpt>
      <trkpt lat="42.450637000" lon="-2.494301000">
        <ele>421.10</ele>
        <time>2016-10-29T05:19:11Z</time>
      </trkpt>
      <trkpt lat="42.450623000" lon="-2.494343000">
        <ele>421.20</ele>
        <time>2016-10-29T05:19:12Z</time>
      </trkpt>
      <trkpt lat="42.450610000" lon="-2.494383000">
        <ele>421.40</ele>
        <time>2016-10-29T05:19:13Z</time>
      </trkpt>
      <trkpt lat="42.450599000" lon="-2.494421000">
        <ele>421.40</ele>
        <time>2016-10-29T05:19:14Z</time>
      </trkpt>
      <trkpt lat="42.450585000" lon="-2.494463000">
        <ele>421.40</ele>
        <time>2016-10-29T05:19:15Z</time>
      </trkpt>
      <trkpt lat="42.450570000" lon="-2.494503000">
        <ele>421.30</ele>
        <time>2016-10-29T05:19:16Z</time>
      </trkpt>
      <trkpt lat="42.450557000" lon="-2.494541000">
        <ele>421.30</ele>
        <time>2016-10-29T05:19:17Z</time>
      </trkpt>
      <trkpt lat="42.450545000" lon="-2.494578000">
        <ele>421.30</ele>
        <time>2016-10-29T05:19:18Z</time>
      </trkpt>
      <trkpt lat="42.450533000" lon="-2.494619000">
        <ele>421.40</ele>
        <time>2016-10-29T05:19:19Z</time>
      </trkpt>
      <trkpt lat="42.450521000" lon="-2.494660000">
        <ele>421.40</ele>
        <time>2016-10-29T05:19:20Z</time>
      </trkpt>
      <trkpt lat="42.450509000" lon="-2.494699000">
        <ele>421.50</ele>
        <time>2016-10-29T05:19:21Z</time>
      </trkpt>
      <trkpt lat="42.450502000" lon="-2.494739000">
        <ele>421.60</ele>
        <time>2016-10-29T05:19:22Z</time>
      </trkpt>
      <trkpt lat="42.450491000" lon="-2.494784000">
        <ele>421.80</ele>
        <time>2016-10-29T05:19:23Z</time>
      </trkpt>
      <trkpt lat="42.450476000" lon="-2.494830000">
        <ele>421.90</ele>
        <time>2016-10-29T05:19:24Z</time>
      </trkpt>
      <trkpt lat="42.450460000" lon="-2.494873000">
        <ele>422.00</ele>
        <time>2016-10-29T05:19:25Z</time>
      </trkpt>
      <trkpt lat="42.450443000" lon="-2.494914000">
        <ele>422.10</ele>
        <time>2016-10-29T05:19:26Z</time>
      </trkpt>
      <trkpt lat="42.450430000" lon="-2.494956000">
        <ele>422.30</ele>
        <time>2016-10-29T05:19:27Z</time>
      </trkpt>
      <trkpt lat="42.450413000" lon="-2.494994000">
        <ele>422.40</ele>
        <time>2016-10-29T05:19:28Z</time>
      </trkpt>
      <trkpt lat="42.450394000" lon="-2.495026000">
        <ele>422.50</ele>
        <time>2016-10-29T05:19:29Z</time>
      </trkpt>
      <trkpt lat="42.450369000" lon="-2.495047000">
        <ele>422.60</ele>
        <time>2016-10-29T05:19:30Z</time>
      </trkpt>
      <trkpt lat="42.450341000" lon="-2.495058000">
        <ele>422.70</ele>
        <time>2016-10-29T05:19:31Z</time>
      </trkpt>
      <trkpt lat="42.450310000" lon="-2.495055000">
        <ele>422.80</ele>
        <time>2016-10-29T05:19:32Z</time>
      </trkpt>
      <trkpt lat="42.450277000" lon="-2.495041000">
        <ele>422.90</ele>
        <time>2016-10-29T05:19:33Z</time>
      </trkpt>
      <trkpt lat="42.450249000" lon="-2.495017000">
        <ele>423.00</ele>
        <time>2016-10-29T05:19:34Z</time>
      </trkpt>
      <trkpt lat="42.450224000" lon="-2.494987000">
        <ele>423.00</ele>
        <time>2016-10-29T05:19:35Z</time>
      </trkpt>
      <trkpt lat="42.450198000" lon="-2.494960000">
        <ele>423.10</ele>
        <time>2016-10-29T05:19:36Z</time>
      </trkpt>
      <trkpt lat="42.450171000" lon="-2.494936000">
        <ele>423.20</ele>
        <time>2016-10-29T05:19:37Z</time>
      </trkpt>
      <trkpt lat="42.450142000" lon="-2.494926000">
        <ele>423.20</ele>
        <time>2016-10-29T05:19:38Z</time>
      </trkpt>
      <trkpt lat="42.450108000" lon="-2.494931000">
        <ele>423.50</ele>
        <time>2016-10-29T05:19:39Z</time>
      </trkpt>
      <trkpt lat="42.450076000" lon="-2.494948000">
        <ele>423.70</ele>
        <time>2016-10-29T05:19:40Z</time>
      </trkpt>
      <trkpt lat="42.450050000" lon="-2.494977000">
        <ele>423.90</ele>
        <time>2016-10-29T05:19:41Z</time>
      </trkpt>
      <trkpt lat="42.450031000" lon="-2.495006000">
        <ele>424.00</ele>
        <time>2016-10-29T05:19:42Z</time>
      </trkpt>
      <trkpt lat="42.450014000" lon="-2.495036000">
        <ele>424.30</ele>
        <time>2016-10-29T05:19:43Z</time>
      </trkpt>
      <trkpt lat="42.450003000" lon="-2.495073000">
        <ele>424.50</ele>
        <time>2016-10-29T05:19:44Z</time>
      </trkpt>
      <trkpt lat="42.449997000" lon="-2.495112000">
        <ele>424.50</ele>
        <time>2016-10-29T05:19:45Z</time>
      </trkpt>
      <trkpt lat="42.449989000" lon="-2.495154000">
        <ele>424.50</ele>
        <time>2016-10-29T05:19:46Z</time>
      </trkpt>
      <trkpt lat="42.449981000" lon="-2.495195000">
        <ele>424.70</ele>
        <time>2016-10-29T05:19:47Z</time>
      </trkpt>
      <trkpt lat="42.449977000" lon="-2.495240000">
        <ele>424.80</ele>
        <time>2016-10-29T05:19:48Z</time>
      </trkpt>
      <trkpt lat="42.449975000" lon="-2.495283000">
        <ele>424.90</ele>
        <time>2016-10-29T05:19:49Z</time>
      </trkpt>
      <trkpt lat="42.449975000" lon="-2.495324000">
        <ele>425.00</ele>
        <time>2016-10-29T05:19:50Z</time>
      </trkpt>
      <trkpt lat="42.449977000" lon="-2.495364000">
        <ele>425.20</ele>
        <time>2016-10-29T05:19:51Z</time>
      </trkpt>
      <trkpt lat="42.449977000" lon="-2.495407000">
        <ele>425.40</ele>
        <time>2016-10-29T05:19:52Z</time>
      </trkpt>
      <trkpt lat="42.449977000" lon="-2.495449000">
        <ele>425.50</ele>
        <time>2016-10-29T05:19:53Z</time>
      </trkpt>
      <trkpt lat="42.449978000" lon="-2.495489000">
        <ele>425.50</ele>
        <time>2016-10-29T05:19:54Z</time>
      </trkpt>
      <trkpt lat="42.449979000" lon="-2.495530000">
        <ele>425.70</ele>
        <time>2016-10-29T05:19:55Z</time>
      </trkpt>
      <trkpt lat="42.449981000" lon="-2.495571000">
        <ele>425.80</ele>
        <time>2016-10-29T05:19:56Z</time>
      </trkpt>
      <trkpt lat="42.449982000" lon="-2.495614000">
        <ele>426.00</ele>
        <time>2016-10-29T05:19:57Z</time>
      </trkpt>
      <trkpt lat="42.449988000" lon="-2.495699000">
        <ele>426.20</ele>
        <time>2016-10-29T05:19:59Z</time>
      </trkpt>
      <trkpt lat="42.449988000" lon="-2.495739000">
        <ele>426.20</ele>
        <time>2016-10-29T05:20:00Z</time>
      </trkpt>
      <trkpt lat="42.449989000" lon="-2.495779000">
        <ele>426.30</ele>
        <time>2016-10-29T05:20:01Z</time>
      </trkpt>
      <trkpt lat="42.449989000" lon="-2.495821000">
        <ele>426.30</ele>
        <time>2016-10-29T05:20:02Z</time>
      </trkpt>
      <trkpt lat="42.449991000" lon="-2.495863000">
        <ele>426.40</ele>
        <time>2016-10-29T05:20:03Z</time>
      </trkpt>
      <trkpt lat="42.449994000" lon="-2.495907000">
        <ele>426.40</ele>
        <time>2016-10-29T05:20:04Z</time>
      </trkpt>
      <trkpt lat="42.449995000" lon="-2.495949000">
        <ele>426.50</ele>
        <time>2016-10-29T05:20:05Z</time>
      </trkpt>
      <trkpt lat="42.449996000" lon="-2.495989000">
        <ele>426.50</ele>
        <time>2016-10-29T05:20:06Z</time>
      </trkpt>
      <trkpt lat="42.449999000" lon="-2.496031000">
        <ele>426.70</ele>
        <time>2016-10-29T05:20:07Z</time>
      </trkpt>
      <trkpt lat="42.450001000" lon="-2.496073000">
        <ele>426.80</ele>
        <time>2016-10-29T05:20:08Z</time>
      </trkpt>
      <trkpt lat="42.450005000" lon="-2.496117000">
        <ele>426.90</ele>
        <time>2016-10-29T05:20:09Z</time>
      </trkpt>
      <trkpt lat="42.450007000" lon="-2.496161000">
        <ele>427.10</ele>
        <time>2016-10-29T05:20:10Z</time>
      </trkpt>
      <trkpt lat="42.450008000" lon="-2.496202000">
        <ele>427.20</ele>
        <time>2016-10-29T05:20:11Z</time>
      </trkpt>
      <trkpt lat="42.450007000" lon="-2.496245000">
        <ele>427.30</ele>
        <time>2016-10-29T05:20:12Z</time>
      </trkpt>
      <trkpt lat="42.450003000" lon="-2.496287000">
        <ele>427.60</ele>
        <time>2016-10-29T05:20:13Z</time>
      </trkpt>
      <trkpt lat="42.450002000" lon="-2.496330000">
        <ele>427.80</ele>
        <time>2016-10-29T05:20:14Z</time>
      </trkpt>
      <trkpt lat="42.450001000" lon="-2.496373000">
        <ele>427.90</ele>
        <time>2016-10-29T05:20:15Z</time>
      </trkpt>
      <trkpt lat="42.449995000" lon="-2.496415000">
        <ele>428.10</ele>
        <time>2016-10-29T05:20:16Z</time>
      </trkpt>
      <trkpt lat="42.449990000" lon="-2.496456000">
        <ele>428.20</ele>
        <time>2016-10-29T05:20:17Z</time>
      </trkpt>
      <trkpt lat="42.449983000" lon="-2.496497000">
        <ele>428.30</ele>
        <time>2016-10-29T05:20:18Z</time>
      </trkpt>
      <trkpt lat="42.449974000" lon="-2.496538000">
        <ele>428.40</ele>
        <time>2016-10-29T05:20:19Z</time>
      </trkpt>
      <trkpt lat="42.449964000" lon="-2.496582000">
        <ele>428.50</ele>
        <time>2016-10-29T05:20:20Z</time>
      </trkpt>
      <trkpt lat="42.449958000" lon="-2.496627000">
        <ele>428.80</ele>
        <time>2016-10-29T05:20:21Z</time>
      </trkpt>
      <trkpt lat="42.449953000" lon="-2.496667000">
        <ele>429.00</ele>
        <time>2016-10-29T05:20:22Z</time>
      </trkpt>
      <trkpt lat="42.449952000" lon="-2.496707000">
        <ele>429.10</ele>
        <time>2016-10-29T05:20:23Z</time>
      </trkpt>
      <trkpt lat="42.449952000" lon="-2.496749000">
        <ele>429.20</ele>
        <time>2016-10-29T05:20:24Z</time>
      </trkpt>
      <trkpt lat="42.449952000" lon="-2.496790000">
        <ele>429.50</ele>
        <time>2016-10-29T05:20:25Z</time>
      </trkpt>
      <trkpt lat="42.449953000" lon="-2.496834000">
        <ele>429.70</ele>
        <time>2016-10-29T05:20:26Z</time>
      </trkpt>
      <trkpt lat="42.449953000" lon="-2.496879000">
        <ele>429.90</ele>
        <time>2016-10-29T05:20:27Z</time>
      </trkpt>
      <trkpt lat="42.449955000" lon="-2.496923000">
        <ele>430.00</ele>
        <time>2016-10-29T05:20:28Z</time>
      </trkpt>
      <trkpt lat="42.449958000" lon="-2.496963000">
        <ele>430.10</ele>
        <time>2016-10-29T05:20:29Z</time>
      </trkpt>
      <trkpt lat="42.449957000" lon="-2.497004000">
        <ele>430.20</ele>
        <time>2016-10-29T05:20:30Z</time>
      </trkpt>
      <trkpt lat="42.449957000" lon="-2.497046000">
        <ele>430.40</ele>
        <time>2016-10-29T05:20:31Z</time>
      </trkpt>
      <trkpt lat="42.449956000" lon="-2.497090000">
        <ele>430.50</ele>
        <time>2016-10-29T05:20:32Z</time>
      </trkpt>
      <trkpt lat="42.449955000" lon="-2.497136000">
        <ele>430.60</ele>
        <time>2016-10-29T05:20:33Z</time>
      </trkpt>
      <trkpt lat="42.449955000" lon="-2.497175000">
        <ele>430.70</ele>
        <time>2016-10-29T05:20:34Z</time>
      </trkpt>
      <trkpt lat="42.449954000" lon="-2.497218000">
        <ele>431.00</ele>
        <time>2016-10-29T05:20:35Z</time>
      </trkpt>
      <trkpt lat="42.449953000" lon="-2.497259000">
        <ele>431.20</ele>
        <time>2016-10-29T05:20:36Z</time>
      </trkpt>
      <trkpt lat="42.449950000" lon="-2.497302000">
        <ele>431.60</ele>
        <time>2016-10-29T05:20:37Z</time>
      </trkpt>
      <trkpt lat="42.449947000" lon="-2.497341000">
        <ele>431.80</ele>
        <time>2016-10-29T05:20:38Z</time>
      </trkpt>
      <trkpt lat="42.449944000" lon="-2.497384000">
        <ele>432.00</ele>
        <time>2016-10-29T05:20:39Z</time>
      </trkpt>
      <trkpt lat="42.449936000" lon="-2.497425000">
        <ele>432.10</ele>
        <time>2016-10-29T05:20:40Z</time>
      </trkpt>
      <trkpt lat="42.449928000" lon="-2.497464000">
        <ele>432.10</ele>
        <time>2016-10-29T05:20:41Z</time>
      </trkpt>
      <trkpt lat="42.449920000" lon="-2.497503000">
        <ele>432.20</ele>
        <time>2016-10-29T05:20:42Z</time>
      </trkpt>
      <trkpt lat="42.449910000" lon="-2.497544000">
        <ele>432.20</ele>
        <time>2016-10-29T05:20:43Z</time>
      </trkpt>
      <trkpt lat="42.449905000" lon="-2.497582000">
        <ele>432.20</ele>
        <time>2016-10-29T05:20:44Z</time>
      </trkpt>
      <trkpt lat="42.449895000" lon="-2.497619000">
        <ele>432.30</ele>
        <time>2016-10-29T05:20:45Z</time>
      </trkpt>
      <trkpt lat="42.449882000" lon="-2.497655000">
        <ele>432.50</ele>
        <time>2016-10-29T05:20:46Z</time>
      </trkpt>
      <trkpt lat="42.449869000" lon="-2.497692000">
        <ele>432.60</ele>
        <time>2016-10-29T05:20:47Z</time>
      </trkpt>
      <trkpt lat="42.449853000" lon="-2.497728000">
        <ele>432.70</ele>
        <time>2016-10-29T05:20:48Z</time>
      </trkpt>
      <trkpt lat="42.449834000" lon="-2.497763000">
        <ele>432.90</ele>
        <time>2016-10-29T05:20:49Z</time>
      </trkpt>
      <trkpt lat="42.449812000" lon="-2.497790000">
        <ele>433.10</ele>
        <time>2016-10-29T05:20:50Z</time>
      </trkpt>
      <trkpt lat="42.449787000" lon="-2.497811000">
        <ele>433.30</ele>
        <time>2016-10-29T05:20:51Z</time>
      </trkpt>
      <trkpt lat="42.449762000" lon="-2.497839000">
        <ele>433.50</ele>
        <time>2016-10-29T05:20:52Z</time>
      </trkpt>
      <trkpt lat="42.449739000" lon="-2.497857000">
        <ele>433.80</ele>
        <time>2016-10-29T05:20:53Z</time>
      </trkpt>
      <trkpt lat="42.449708000" lon="-2.497884000">
        <ele>434.00</ele>
        <time>2016-10-29T05:20:54Z</time>
      </trkpt>
      <trkpt lat="42.449679000" lon="-2.497907000">
        <ele>434.20</ele>
        <time>2016-10-29T05:20:55Z</time>
      </trkpt>
      <trkpt lat="42.449649000" lon="-2.497929000">
        <ele>434.30</ele>
        <time>2016-10-29T05:20:56Z</time>
      </trkpt>
      <trkpt lat="42.449621000" lon="-2.497952000">
        <ele>434.60</ele>
        <time>2016-10-29T05:20:57Z</time>
      </trkpt>
      <trkpt lat="42.449595000" lon="-2.497975000">
        <ele>434.70</ele>
        <time>2016-10-29T05:20:58Z</time>
      </trkpt>
      <trkpt lat="42.449539000" lon="-2.498021000">
        <ele>435.00</ele>
        <time>2016-10-29T05:21:00Z</time>
      </trkpt>
      <trkpt lat="42.449509000" lon="-2.498043000">
        <ele>435.00</ele>
        <time>2016-10-29T05:21:01Z</time>
      </trkpt>
      <trkpt lat="42.449481000" lon="-2.498069000">
        <ele>435.10</ele>
        <time>2016-10-29T05:21:02Z</time>
      </trkpt>
      <trkpt lat="42.449452000" lon="-2.498097000">
        <ele>435.10</ele>
        <time>2016-10-29T05:21:03Z</time>
      </trkpt>
      <trkpt lat="42.449426000" lon="-2.498124000">
        <ele>435.20</ele>
        <time>2016-10-29T05:21:04Z</time>
      </trkpt>
      <trkpt lat="42.449399000" lon="-2.498146000">
        <ele>435.30</ele>
        <time>2016-10-29T05:21:05Z</time>
      </trkpt>
      <trkpt lat="42.449369000" lon="-2.498171000">
        <ele>435.40</ele>
        <time>2016-10-29T05:21:06Z</time>
      </trkpt>
      <trkpt lat="42.449340000" lon="-2.498192000">
        <ele>435.40</ele>
        <time>2016-10-29T05:21:07Z</time>
      </trkpt>
      <trkpt lat="42.449313000" lon="-2.498215000">
        <ele>435.50</ele>
        <time>2016-10-29T05:21:08Z</time>
      </trkpt>
      <trkpt lat="42.449285000" lon="-2.498231000">
        <ele>435.50</ele>
        <time>2016-10-29T05:21:09Z</time>
      </trkpt>
      <trkpt lat="42.449253000" lon="-2.498246000">
        <ele>435.50</ele>
        <time>2016-10-29T05:21:10Z</time>
      </trkpt>
      <trkpt lat="42.449218000" lon="-2.498253000">
        <ele>435.50</ele>
        <time>2016-10-29T05:21:11Z</time>
      </trkpt>
      <trkpt lat="42.449182000" lon="-2.498258000">
        <ele>435.50</ele>
        <time>2016-10-29T05:21:12Z</time>
      </trkpt>
      <trkpt lat="42.449138000" lon="-2.498260000">
        <ele>435.40</ele>
        <time>2016-10-29T05:21:13Z</time>
      </trkpt>
      <trkpt lat="42.449089000" lon="-2.498255000">
        <ele>435.30</ele>
        <time>2016-10-29T05:21:14Z</time>
      </trkpt>
      <trkpt lat="42.449037000" lon="-2.498249000">
        <ele>435.10</ele>
        <time>2016-10-29T05:21:15Z</time>
      </trkpt>
      <trkpt lat="42.448978000" lon="-2.498242000">
        <ele>435.00</ele>
        <time>2016-10-29T05:21:16Z</time>
      </trkpt>
      <trkpt lat="42.448922000" lon="-2.498239000">
        <ele>434.70</ele>
        <time>2016-10-29T05:21:17Z</time>
      </trkpt>
      <trkpt lat="42.448878000" lon="-2.498240000">
        <ele>434.50</ele>
        <time>2016-10-29T05:21:18Z</time>
      </trkpt>
      <trkpt lat="42.448842000" lon="-2.498252000">
        <ele>434.30</ele>
        <time>2016-10-29T05:21:19Z</time>
      </trkpt>
      <trkpt lat="42.448813000" lon="-2.498271000">
        <ele>434.10</ele>
        <time>2016-10-29T05:21:20Z</time>
      </trkpt>
      <trkpt lat="42.448800000" lon="-2.498310000">
        <ele>434.00</ele>
        <time>2016-10-29T05:21:21Z</time>
      </trkpt>
      <trkpt lat="42.448792000" lon="-2.498357000">
        <ele>433.80</ele>
        <time>2016-10-29T05:21:22Z</time>
      </trkpt>
      <trkpt lat="42.448790000" lon="-2.498408000">
        <ele>433.70</ele>
        <time>2016-10-29T05:21:23Z</time>
      </trkpt>
      <trkpt lat="42.448793000" lon="-2.498464000">
        <ele>433.60</ele>
        <time>2016-10-29T05:21:24Z</time>
      </trkpt>
      <trkpt lat="42.448791000" lon="-2.498522000">
        <ele>433.20</ele>
        <time>2016-10-29T05:21:25Z</time>
      </trkpt>
      <trkpt lat="42.448782000" lon="-2.498582000">
        <ele>433.00</ele>
        <time>2016-10-29T05:21:26Z</time>
      </trkpt>
      <trkpt lat="42.448765000" lon="-2.498644000">
        <ele>432.80</ele>
        <time>2016-10-29T05:21:27Z</time>
      </trkpt>
      <trkpt lat="42.448743000" lon="-2.498705000">
        <ele>432.70</ele>
        <time>2016-10-29T05:21:28Z</time>
      </trkpt>
      <trkpt lat="42.448718000" lon="-2.498767000">
        <ele>432.60</ele>
        <time>2016-10-29T05:21:29Z</time>
      </trkpt>
      <trkpt lat="42.448690000" lon="-2.498826000">
        <ele>432.50</ele>
        <time>2016-10-29T05:21:30Z</time>
      </trkpt>
      <trkpt lat="42.448662000" lon="-2.498884000">
        <ele>432.40</ele>
        <time>2016-10-29T05:21:31Z</time>
      </trkpt>
      <trkpt lat="42.448629000" lon="-2.498938000">
        <ele>432.30</ele>
        <time>2016-10-29T05:21:32Z</time>
      </trkpt>
      <trkpt lat="42.448592000" lon="-2.498985000">
        <ele>432.10</ele>
        <time>2016-10-29T05:21:33Z</time>
      </trkpt>
      <trkpt lat="42.448551000" lon="-2.499023000">
        <ele>432.00</ele>
        <time>2016-10-29T05:21:34Z</time>
      </trkpt>
      <trkpt lat="42.448509000" lon="-2.499053000">
        <ele>431.90</ele>
        <time>2016-10-29T05:21:35Z</time>
      </trkpt>
      <trkpt lat="42.448465000" lon="-2.499081000">
        <ele>431.80</ele>
        <time>2016-10-29T05:21:36Z</time>
      </trkpt>
      <trkpt lat="42.448424000" lon="-2.499106000">
        <ele>431.80</ele>
        <time>2016-10-29T05:21:37Z</time>
      </trkpt>
      <trkpt lat="42.448384000" lon="-2.499133000">
        <ele>431.80</ele>
        <time>2016-10-29T05:21:38Z</time>
      </trkpt>
      <trkpt lat="42.448351000" lon="-2.499170000">
        <ele>431.70</ele>
        <time>2016-10-29T05:21:39Z</time>
      </trkpt>
      <trkpt lat="42.448325000" lon="-2.499209000">
        <ele>431.60</ele>
        <time>2016-10-29T05:21:40Z</time>
      </trkpt>
      <trkpt lat="42.448306000" lon="-2.499255000">
        <ele>431.50</ele>
        <time>2016-10-29T05:21:41Z</time>
      </trkpt>
      <trkpt lat="42.448289000" lon="-2.499309000">
        <ele>431.50</ele>
        <time>2016-10-29T05:21:42Z</time>
      </trkpt>
      <trkpt lat="42.448271000" lon="-2.499369000">
        <ele>431.40</ele>
        <time>2016-10-29T05:21:43Z</time>
      </trkpt>
      <trkpt lat="42.448251000" lon="-2.499430000">
        <ele>431.40</ele>
        <time>2016-10-29T05:21:44Z</time>
      </trkpt>
      <trkpt lat="42.448233000" lon="-2.499491000">
        <ele>431.30</ele>
        <time>2016-10-29T05:21:45Z</time>
      </trkpt>
      <trkpt lat="42.448211000" lon="-2.499561000">
        <ele>431.20</ele>
        <time>2016-10-29T05:21:46Z</time>
      </trkpt>
      <trkpt lat="42.448187000" lon="-2.499633000">
        <ele>430.90</ele>
        <time>2016-10-29T05:21:47Z</time>
      </trkpt>
      <trkpt lat="42.448154000" lon="-2.499704000">
        <ele>430.70</ele>
        <time>2016-10-29T05:21:48Z</time>
      </trkpt>
      <trkpt lat="42.448112000" lon="-2.499770000">
        <ele>430.40</ele>
        <time>2016-10-29T05:21:49Z</time>
      </trkpt>
      <trkpt lat="42.448060000" lon="-2.499821000">
        <ele>430.20</ele>
        <time>2016-10-29T05:21:50Z</time>
      </trkpt>
      <trkpt lat="42.448009000" lon="-2.499858000">
        <ele>430.00</ele>
        <time>2016-10-29T05:21:51Z</time>
      </trkpt>
      <trkpt lat="42.447962000" lon="-2.499887000">
        <ele>429.80</ele>
        <time>2016-10-29T05:21:52Z</time>
      </trkpt>
      <trkpt lat="42.447924000" lon="-2.499909000">
        <ele>429.70</ele>
        <time>2016-10-29T05:21:53Z</time>
      </trkpt>
      <trkpt lat="42.447893000" lon="-2.499922000">
        <ele>429.70</ele>
        <time>2016-10-29T05:21:54Z</time>
      </trkpt>
      <trkpt lat="42.447865000" lon="-2.499930000">
        <ele>429.90</ele>
        <time>2016-10-29T05:21:55Z</time>
      </trkpt>
      <trkpt lat="42.447838000" lon="-2.499927000">
        <ele>430.10</ele>
        <time>2016-10-29T05:21:56Z</time>
      </trkpt>
      <trkpt lat="42.447809000" lon="-2.499919000">
        <ele>430.20</ele>
        <time>2016-10-29T05:21:57Z</time>
      </trkpt>
      <trkpt lat="42.447780000" lon="-2.499903000">
        <ele>430.30</ele>
        <time>2016-10-29T05:21:58Z</time>
      </trkpt>
      <trkpt lat="42.447749000" lon="-2.499890000">
        <ele>430.30</ele>
        <time>2016-10-29T05:21:59Z</time>
      </trkpt>
      <trkpt lat="42.447682000" lon="-2.499903000">
        <ele>430.60</ele>
        <time>2016-10-29T05:22:01Z</time>
      </trkpt>
      <trkpt lat="42.447647000" lon="-2.499926000">
        <ele>430.80</ele>
        <time>2016-10-29T05:22:02Z</time>
      </trkpt>
      <trkpt lat="42.447610000" lon="-2.499959000">
        <ele>431.20</ele>
        <time>2016-10-29T05:22:03Z</time>
      </trkpt>
      <trkpt lat="42.447581000" lon="-2.499998000">
        <ele>431.50</ele>
        <time>2016-10-29T05:22:04Z</time>
      </trkpt>
      <trkpt lat="42.447561000" lon="-2.500040000">
        <ele>432.00</ele>
        <time>2016-10-29T05:22:05Z</time>
      </trkpt>
      <trkpt lat="42.447542000" lon="-2.500078000">
        <ele>432.40</ele>
        <time>2016-10-29T05:22:06Z</time>
      </trkpt>
      <trkpt lat="42.447525000" lon="-2.500112000">
        <ele>432.70</ele>
        <time>2016-10-29T05:22:07Z</time>
      </trkpt>
      <trkpt lat="42.447508000" lon="-2.500145000">
        <ele>433.00</ele>
        <time>2016-10-29T05:22:08Z</time>
      </trkpt>
      <trkpt lat="42.447492000" lon="-2.500178000">
        <ele>433.40</ele>
        <time>2016-10-29T05:22:09Z</time>
      </trkpt>
      <trkpt lat="42.447474000" lon="-2.500210000">
        <ele>433.80</ele>
        <time>2016-10-29T05:22:10Z</time>
      </trkpt>
      <trkpt lat="42.447453000" lon="-2.500241000">
        <ele>434.10</ele>
        <time>2016-10-29T05:22:11Z</time>
      </trkpt>
      <trkpt lat="42.447433000" lon="-2.500268000">
        <ele>434.30</ele>
        <time>2016-10-29T05:22:12Z</time>
      </trkpt>
      <trkpt lat="42.447415000" lon="-2.500294000">
        <ele>434.70</ele>
        <time>2016-10-29T05:22:13Z</time>
      </trkpt>
      <trkpt lat="42.447396000" lon="-2.500318000">
        <ele>435.00</ele>
        <time>2016-10-29T05:22:14Z</time>
      </trkpt>
      <trkpt lat="42.447373000" lon="-2.500339000">
        <ele>435.30</ele>
        <time>2016-10-29T05:22:15Z</time>
      </trkpt>
      <trkpt lat="42.447349000" lon="-2.500358000">
        <ele>435.50</ele>
        <time>2016-10-29T05:22:16Z</time>
      </trkpt>
      <trkpt lat="42.447323000" lon="-2.500371000">
        <ele>436.00</ele>
        <time>2016-10-29T05:22:17Z</time>
      </trkpt>
      <trkpt lat="42.447294000" lon="-2.500382000">
        <ele>436.40</ele>
        <time>2016-10-29T05:22:18Z</time>
      </trkpt>
      <trkpt lat="42.447265000" lon="-2.500390000">
        <ele>436.60</ele>
        <time>2016-10-29T05:22:19Z</time>
      </trkpt>
      <trkpt lat="42.447234000" lon="-2.500393000">
        <ele>436.90</ele>
        <time>2016-10-29T05:22:20Z</time>
      </trkpt>
      <trkpt lat="42.447204000" lon="-2.500389000">
        <ele>437.00</ele>
        <time>2016-10-29T05:22:21Z</time>
      </trkpt>
      <trkpt lat="42.447174000" lon="-2.500375000">
        <ele>437.10</ele>
        <time>2016-10-29T05:22:22Z</time>
      </trkpt>
      <trkpt lat="42.447147000" lon="-2.500359000">
        <ele>437.20</ele>
        <time>2016-10-29T05:22:23Z</time>
      </trkpt>
      <trkpt lat="42.447123000" lon="-2.500339000">
        <ele>437.30</ele>
        <time>2016-10-29T05:22:24Z</time>
      </trkpt>
      <trkpt lat="42.447101000" lon="-2.500316000">
        <ele>437.40</ele>
        <time>2016-10-29T05:22:25Z</time>
      </trkpt>
      <trkpt lat="42.447082000" lon="-2.500289000">
        <ele>437.50</ele>
        <time>2016-10-29T05:22:26Z</time>
      </trkpt>
      <trkpt lat="42.447061000" lon="-2.500266000">
        <ele>437.80</ele>
        <time>2016-10-29T05:22:27Z</time>
      </trkpt>
      <trkpt lat="42.447041000" lon="-2.500240000">
        <ele>438.10</ele>
        <time>2016-10-29T05:22:28Z</time>
      </trkpt>
      <trkpt lat="42.447024000" lon="-2.500212000">
        <ele>438.30</ele>
        <time>2016-10-29T05:22:29Z</time>
      </trkpt>
      <trkpt lat="42.447007000" lon="-2.500186000">
        <ele>438.40</ele>
        <time>2016-10-29T05:22:30Z</time>
      </trkpt>
      <trkpt lat="42.446989000" lon="-2.500158000">
        <ele>438.50</ele>
        <time>2016-10-29T05:22:31Z</time>
      </trkpt>
      <trkpt lat="42.446971000" lon="-2.500126000">
        <ele>438.60</ele>
        <time>2016-10-29T05:22:32Z</time>
      </trkpt>
      <trkpt lat="42.446954000" lon="-2.500092000">
        <ele>438.80</ele>
        <time>2016-10-29T05:22:33Z</time>
      </trkpt>
      <trkpt lat="42.446935000" lon="-2.500058000">
        <ele>438.90</ele>
        <time>2016-10-29T05:22:34Z</time>
      </trkpt>
      <trkpt lat="42.446915000" lon="-2.500019000">
        <ele>439.00</ele>
        <time>2016-10-29T05:22:35Z</time>
      </trkpt>
      <trkpt lat="42.446893000" lon="-2.499978000">
        <ele>439.10</ele>
        <time>2016-10-29T05:22:36Z</time>
      </trkpt>
      <trkpt lat="42.446866000" lon="-2.499936000">
        <ele>439.20</ele>
        <time>2016-10-29T05:22:37Z</time>
      </trkpt>
      <trkpt lat="42.446839000" lon="-2.499895000">
        <ele>439.20</ele>
        <time>2016-10-29T05:22:38Z</time>
      </trkpt>
      <trkpt lat="42.446810000" lon="-2.499856000">
        <ele>439.10</ele>
        <time>2016-10-29T05:22:39Z</time>
      </trkpt>
      <trkpt lat="42.446778000" lon="-2.499819000">
        <ele>439.00</ele>
        <time>2016-10-29T05:22:40Z</time>
      </trkpt>
      <trkpt lat="42.446747000" lon="-2.499784000">
        <ele>438.80</ele>
        <time>2016-10-29T05:22:41Z</time>
      </trkpt>
      <trkpt lat="42.446713000" lon="-2.499751000">
        <ele>438.60</ele>
        <time>2016-10-29T05:22:42Z</time>
      </trkpt>
      <trkpt lat="42.446679000" lon="-2.499722000">
        <ele>438.50</ele>
        <time>2016-10-29T05:22:43Z</time>
      </trkpt>
      <trkpt lat="42.446643000" lon="-2.499695000">
        <ele>438.40</ele>
        <time>2016-10-29T05:22:44Z</time>
      </trkpt>
      <trkpt lat="42.446606000" lon="-2.499666000">
        <ele>438.30</ele>
        <time>2016-10-29T05:22:45Z</time>
      </trkpt>
      <trkpt lat="42.446571000" lon="-2.499633000">
        <ele>438.20</ele>
        <time>2016-10-29T05:22:46Z</time>
      </trkpt>
      <trkpt lat="42.446537000" lon="-2.499602000">
        <ele>438.30</ele>
        <time>2016-10-29T05:22:47Z</time>
      </trkpt>
      <trkpt lat="42.446504000" lon="-2.499569000">
        <ele>438.30</ele>
        <time>2016-10-29T05:22:48Z</time>
      </trkpt>
      <trkpt lat="42.446472000" lon="-2.499533000">
        <ele>438.30</ele>
        <time>2016-10-29T05:22:49Z</time>
      </trkpt>
      <trkpt lat="42.446445000" lon="-2.499495000">
        <ele>438.30</ele>
        <time>2016-10-29T05:22:50Z</time>
      </trkpt>
      <trkpt lat="42.446419000" lon="-2.499457000">
        <ele>438.30</ele>
        <time>2016-10-29T05:22:51Z</time>
      </trkpt>
      <trkpt lat="42.446395000" lon="-2.499418000">
        <ele>438.30</ele>
        <time>2016-10-29T05:22:52Z</time>
      </trkpt>
      <trkpt lat="42.446370000" lon="-2.499376000">
        <ele>438.30</ele>
        <time>2016-10-29T05:22:53Z</time>
      </trkpt>
      <trkpt lat="42.446346000" lon="-2.499336000">
        <ele>438.30</ele>
        <time>2016-10-29T05:22:54Z</time>
      </trkpt>
      <trkpt lat="42.446322000" lon="-2.499301000">
        <ele>438.10</ele>
        <time>2016-10-29T05:22:55Z</time>
      </trkpt>
      <trkpt lat="42.446297000" lon="-2.499270000">
        <ele>438.00</ele>
        <time>2016-10-29T05:22:56Z</time>
      </trkpt>
      <trkpt lat="42.446271000" lon="-2.499238000">
        <ele>437.90</ele>
        <time>2016-10-29T05:22:57Z</time>
      </trkpt>
      <trkpt lat="42.446238000" lon="-2.499212000">
        <ele>437.80</ele>
        <time>2016-10-29T05:22:58Z</time>
      </trkpt>
      <trkpt lat="42.446203000" lon="-2.499187000">
        <ele>437.80</ele>
        <time>2016-10-29T05:22:59Z</time>
      </trkpt>
      <trkpt lat="42.446162000" lon="-2.499171000">
        <ele>437.80</ele>
        <time>2016-10-29T05:23:00Z</time>
      </trkpt>
      <trkpt lat="42.446084000" lon="-2.499146000">
        <ele>438.00</ele>
        <time>2016-10-29T05:23:02Z</time>
      </trkpt>
      <trkpt lat="42.446047000" lon="-2.499138000">
        <ele>438.10</ele>
        <time>2016-10-29T05:23:03Z</time>
      </trkpt>
      <trkpt lat="42.446010000" lon="-2.499133000">
        <ele>438.10</ele>
        <time>2016-10-29T05:23:04Z</time>
      </trkpt>
      <trkpt lat="42.445972000" lon="-2.499135000">
        <ele>438.20</ele>
        <time>2016-10-29T05:23:05Z</time>
      </trkpt>
      <trkpt lat="42.445934000" lon="-2.499142000">
        <ele>438.20</ele>
        <time>2016-10-29T05:23:06Z</time>
      </trkpt>
      <trkpt lat="42.445896000" lon="-2.499143000">
        <ele>438.20</ele>
        <time>2016-10-29T05:23:07Z</time>
      </trkpt>
      <trkpt lat="42.445856000" lon="-2.499145000">
        <ele>438.10</ele>
        <time>2016-10-29T05:23:08Z</time>
      </trkpt>
      <trkpt lat="42.445817000" lon="-2.499150000">
        <ele>438.10</ele>
        <time>2016-10-29T05:23:09Z</time>
      </trkpt>
      <trkpt lat="42.445776000" lon="-2.499158000">
        <ele>438.10</ele>
        <time>2016-10-29T05:23:10Z</time>
      </trkpt>
      <trkpt lat="42.445733000" lon="-2.499164000">
        <ele>438.20</ele>
        <time>2016-10-29T05:23:11Z</time>
      </trkpt>
      <trkpt lat="42.445692000" lon="-2.499172000">
        <ele>438.20</ele>
        <time>2016-10-29T05:23:12Z</time>
      </trkpt>
      <trkpt lat="42.445651000" lon="-2.499180000">
        <ele>438.20</ele>
        <time>2016-10-29T05:23:13Z</time>
      </trkpt>
      <trkpt lat="42.445612000" lon="-2.499186000">
        <ele>438.30</ele>
        <time>2016-10-29T05:23:14Z</time>
      </trkpt>
      <trkpt lat="42.445573000" lon="-2.499193000">
        <ele>438.30</ele>
        <time>2016-10-29T05:23:15Z</time>
      </trkpt>
      <trkpt lat="42.445536000" lon="-2.499203000">
        <ele>438.30</ele>
        <time>2016-10-29T05:23:16Z</time>
      </trkpt>
      <trkpt lat="42.445499000" lon="-2.499210000">
        <ele>438.30</ele>
        <time>2016-10-29T05:23:17Z</time>
      </trkpt>
      <trkpt lat="42.445464000" lon="-2.499217000">
        <ele>438.30</ele>
        <time>2016-10-29T05:23:18Z</time>
      </trkpt>
      <trkpt lat="42.445432000" lon="-2.499230000">
        <ele>438.50</ele>
        <time>2016-10-29T05:23:19Z</time>
      </trkpt>
      <trkpt lat="42.445401000" lon="-2.499244000">
        <ele>438.60</ele>
        <time>2016-10-29T05:23:20Z</time>
      </trkpt>
      <trkpt lat="42.445369000" lon="-2.499254000">
        <ele>438.80</ele>
        <time>2016-10-29T05:23:21Z</time>
      </trkpt>
      <trkpt lat="42.445339000" lon="-2.499261000">
        <ele>438.80</ele>
        <time>2016-10-29T05:23:22Z</time>
      </trkpt>
      <trkpt lat="42.445310000" lon="-2.499267000">
        <ele>438.90</ele>
        <time>2016-10-29T05:23:23Z</time>
      </trkpt>
      <trkpt lat="42.445281000" lon="-2.499281000">
        <ele>438.90</ele>
        <time>2016-10-29T05:23:24Z</time>
      </trkpt>
      <trkpt lat="42.445250000" lon="-2.499294000">
        <ele>438.90</ele>
        <time>2016-10-29T05:23:25Z</time>
      </trkpt>
      <trkpt lat="42.445219000" lon="-2.499306000">
        <ele>438.90</ele>
        <time>2016-10-29T05:23:26Z</time>
      </trkpt>
      <trkpt lat="42.445189000" lon="-2.499320000">
        <ele>438.80</ele>
        <time>2016-10-29T05:23:27Z</time>
      </trkpt>
      <trkpt lat="42.445157000" lon="-2.499333000">
        <ele>438.80</ele>
        <time>2016-10-29T05:23:28Z</time>
      </trkpt>
      <trkpt lat="42.445125000" lon="-2.499352000">
        <ele>438.70</ele>
        <time>2016-10-29T05:23:29Z</time>
      </trkpt>
      <trkpt lat="42.445091000" lon="-2.499367000">
        <ele>438.70</ele>
        <time>2016-10-29T05:23:30Z</time>
      </trkpt>
      <trkpt lat="42.445058000" lon="-2.499384000">
        <ele>438.70</ele>
        <time>2016-10-29T05:23:31Z</time>
      </trkpt>
      <trkpt lat="42.445024000" lon="-2.499403000">
        <ele>438.60</ele>
        <time>2016-10-29T05:23:32Z</time>
      </trkpt>
      <trkpt lat="42.444992000" lon="-2.499422000">
        <ele>438.70</ele>
        <time>2016-10-29T05:23:33Z</time>
      </trkpt>
      <trkpt lat="42.444959000" lon="-2.499443000">
        <ele>438.70</ele>
        <time>2016-10-29T05:23:34Z</time>
      </trkpt>
      <trkpt lat="42.444924000" lon="-2.499461000">
        <ele>438.70</ele>
        <time>2016-10-29T05:23:35Z</time>
      </trkpt>
      <trkpt lat="42.444894000" lon="-2.499488000">
        <ele>438.60</ele>
        <time>2016-10-29T05:23:36Z</time>
      </trkpt>
      <trkpt lat="42.444865000" lon="-2.499516000">
        <ele>438.60</ele>
        <time>2016-10-29T05:23:37Z</time>
      </trkpt>
      <trkpt lat="42.444833000" lon="-2.499540000">
        <ele>438.60</ele>
        <time>2016-10-29T05:23:38Z</time>
      </trkpt>
      <trkpt lat="42.444801000" lon="-2.499565000">
        <ele>438.60</ele>
        <time>2016-10-29T05:23:39Z</time>
      </trkpt>
      <trkpt lat="42.444767000" lon="-2.499585000">
        <ele>438.50</ele>
        <time>2016-10-29T05:23:40Z</time>
      </trkpt>
      <trkpt lat="42.444735000" lon="-2.499606000">
        <ele>438.50</ele>
        <time>2016-10-29T05:23:41Z</time>
      </trkpt>
      <trkpt lat="42.444704000" lon="-2.499618000">
        <ele>438.50</ele>
        <time>2016-10-29T05:23:42Z</time>
      </trkpt>
      <trkpt lat="42.444673000" lon="-2.499626000">
        <ele>438.50</ele>
        <time>2016-10-29T05:23:43Z</time>
      </trkpt>
      <trkpt lat="42.444640000" lon="-2.499621000">
        <ele>438.50</ele>
        <time>2016-10-29T05:23:44Z</time>
      </trkpt>
      <trkpt lat="42.444608000" lon="-2.499603000">
        <ele>438.60</ele>
        <time>2016-10-29T05:23:45Z</time>
      </trkpt>
      <trkpt lat="42.444577000" lon="-2.499584000">
        <ele>438.60</ele>
        <time>2016-10-29T05:23:46Z</time>
      </trkpt>
      <trkpt lat="42.444546000" lon="-2.499564000">
        <ele>438.60</ele>
        <time>2016-10-29T05:23:47Z</time>
      </trkpt>
      <trkpt lat="42.444514000" lon="-2.499536000">
        <ele>438.70</ele>
        <time>2016-10-29T05:23:48Z</time>
      </trkpt>
      <trkpt lat="42.444485000" lon="-2.499511000">
        <ele>438.70</ele>
        <time>2016-10-29T05:23:49Z</time>
      </trkpt>
      <trkpt lat="42.444458000" lon="-2.499482000">
        <ele>438.70</ele>
        <time>2016-10-29T05:23:50Z</time>
      </trkpt>
      <trkpt lat="42.444433000" lon="-2.499453000">
        <ele>439.00</ele>
        <time>2016-10-29T05:23:51Z</time>
      </trkpt>
      <trkpt lat="42.444412000" lon="-2.499422000">
        <ele>439.20</ele>
        <time>2016-10-29T05:23:52Z</time>
      </trkpt>
      <trkpt lat="42.444390000" lon="-2.499384000">
        <ele>439.30</ele>
        <time>2016-10-29T05:23:53Z</time>
      </trkpt>
      <trkpt lat="42.444367000" lon="-2.499347000">
        <ele>439.40</ele>
        <time>2016-10-29T05:23:54Z</time>
      </trkpt>
      <trkpt lat="42.444345000" lon="-2.499311000">
        <ele>439.40</ele>
        <time>2016-10-29T05:23:55Z</time>
      </trkpt>
      <trkpt lat="42.444320000" lon="-2.499276000">
        <ele>439.40</ele>
        <time>2016-10-29T05:23:56Z</time>
      </trkpt>
      <trkpt lat="42.444296000" lon="-2.499237000">
        <ele>439.30</ele>
        <time>2016-10-29T05:23:57Z</time>
      </trkpt>
      <trkpt lat="42.444275000" lon="-2.499202000">
        <ele>439.30</ele>
        <time>2016-10-29T05:23:58Z</time>
      </trkpt>
      <trkpt lat="42.444255000" lon="-2.499167000">
        <ele>439.40</ele>
        <time>2016-10-29T05:23:59Z</time>
      </trkpt>
      <trkpt lat="42.444232000" lon="-2.499133000">
        <ele>439.50</ele>
        <time>2016-10-29T05:24:00Z</time>
      </trkpt>
      <trkpt lat="42.444213000" lon="-2.499103000">
        <ele>439.70</ele>
        <time>2016-10-29T05:24:01Z</time>
      </trkpt>
      <trkpt lat="42.444173000" lon="-2.499037000">
        <ele>440.00</ele>
        <time>2016-10-29T05:24:03Z</time>
      </trkpt>
      <trkpt lat="42.444152000" lon="-2.499006000">
        <ele>440.20</ele>
        <time>2016-10-29T05:24:04Z</time>
      </trkpt>
      <trkpt lat="42.444132000" lon="-2.498974000">
        <ele>440.50</ele>
        <time>2016-10-29T05:24:05Z</time>
      </trkpt>
      <trkpt lat="42.444109000" lon="-2.498946000">
        <ele>440.80</ele>
        <time>2016-10-29T05:24:06Z</time>
      </trkpt>
      <trkpt lat="42.444087000" lon="-2.498919000">
        <ele>440.90</ele>
        <time>2016-10-29T05:24:07Z</time>
      </trkpt>
      <trkpt lat="42.444059000" lon="-2.498895000">
        <ele>441.10</ele>
        <time>2016-10-29T05:24:08Z</time>
      </trkpt>
      <trkpt lat="42.444031000" lon="-2.498871000">
        <ele>441.20</ele>
        <time>2016-10-29T05:24:09Z</time>
      </trkpt>
      <trkpt lat="42.444004000" lon="-2.498848000">
        <ele>441.40</ele>
        <time>2016-10-29T05:24:10Z</time>
      </trkpt>
      <trkpt lat="42.443973000" lon="-2.498827000">
        <ele>441.50</ele>
        <time>2016-10-29T05:24:11Z</time>
      </trkpt>
      <trkpt lat="42.443941000" lon="-2.498811000">
        <ele>441.50</ele>
        <time>2016-10-29T05:24:12Z</time>
      </trkpt>
      <trkpt lat="42.443908000" lon="-2.498794000">
        <ele>441.60</ele>
        <time>2016-10-29T05:24:13Z</time>
      </trkpt>
      <trkpt lat="42.443877000" lon="-2.498780000">
        <ele>441.60</ele>
        <time>2016-10-29T05:24:14Z</time>
      </trkpt>
      <trkpt lat="42.443844000" lon="-2.498766000">
        <ele>441.70</ele>
        <time>2016-10-29T05:24:15Z</time>
      </trkpt>
      <trkpt lat="42.443811000" lon="-2.498753000">
        <ele>441.80</ele>
        <time>2016-10-29T05:24:16Z</time>
      </trkpt>
      <trkpt lat="42.443778000" lon="-2.498740000">
        <ele>441.80</ele>
        <time>2016-10-29T05:24:17Z</time>
      </trkpt>
      <trkpt lat="42.443745000" lon="-2.498728000">
        <ele>441.90</ele>
        <time>2016-10-29T05:24:18Z</time>
      </trkpt>
      <trkpt lat="42.443710000" lon="-2.498723000">
        <ele>442.00</ele>
        <time>2016-10-29T05:24:19Z</time>
      </trkpt>
      <trkpt lat="42.443672000" lon="-2.498726000">
        <ele>442.00</ele>
        <time>2016-10-29T05:24:20Z</time>
      </trkpt>
      <trkpt lat="42.443635000" lon="-2.498734000">
        <ele>442.20</ele>
        <time>2016-10-29T05:24:21Z</time>
      </trkpt>
      <trkpt lat="42.443599000" lon="-2.498746000">
        <ele>442.40</ele>
        <time>2016-10-29T05:24:22Z</time>
      </trkpt>
      <trkpt lat="42.443565000" lon="-2.498765000">
        <ele>442.50</ele>
        <time>2016-10-29T05:24:23Z</time>
      </trkpt>
      <trkpt lat="42.443534000" lon="-2.498784000">
        <ele>442.50</ele>
        <time>2016-10-29T05:24:24Z</time>
      </trkpt>
      <trkpt lat="42.443508000" lon="-2.498809000">
        <ele>442.60</ele>
        <time>2016-10-29T05:24:25Z</time>
      </trkpt>
      <trkpt lat="42.443484000" lon="-2.498838000">
        <ele>442.70</ele>
        <time>2016-10-29T05:24:26Z</time>
      </trkpt>
      <trkpt lat="42.443460000" lon="-2.498869000">
        <ele>443.00</ele>
        <time>2016-10-29T05:24:27Z</time>
      </trkpt>
      <trkpt lat="42.443439000" lon="-2.498901000">
        <ele>443.30</ele>
        <time>2016-10-29T05:24:28Z</time>
      </trkpt>
      <trkpt lat="42.443418000" lon="-2.498933000">
        <ele>443.40</ele>
        <time>2016-10-29T05:24:29Z</time>
      </trkpt>
      <trkpt lat="42.443399000" lon="-2.498964000">
        <ele>443.60</ele>
        <time>2016-10-29T05:24:30Z</time>
      </trkpt>
      <trkpt lat="42.443375000" lon="-2.498994000">
        <ele>443.70</ele>
        <time>2016-10-29T05:24:31Z</time>
      </trkpt>
      <trkpt lat="42.443351000" lon="-2.499022000">
        <ele>443.70</ele>
        <time>2016-10-29T05:24:32Z</time>
      </trkpt>
      <trkpt lat="42.443328000" lon="-2.499048000">
        <ele>443.80</ele>
        <time>2016-10-29T05:24:33Z</time>
      </trkpt>
      <trkpt lat="42.443305000" lon="-2.499071000">
        <ele>443.80</ele>
        <time>2016-10-29T05:24:34Z</time>
      </trkpt>
      <trkpt lat="42.443281000" lon="-2.499091000">
        <ele>444.00</ele>
        <time>2016-10-29T05:24:35Z</time>
      </trkpt>
      <trkpt lat="42.443255000" lon="-2.499111000">
        <ele>444.10</ele>
        <time>2016-10-29T05:24:36Z</time>
      </trkpt>
      <trkpt lat="42.443228000" lon="-2.499122000">
        <ele>444.30</ele>
        <time>2016-10-29T05:24:37Z</time>
      </trkpt>
      <trkpt lat="42.443201000" lon="-2.499133000">
        <ele>444.40</ele>
        <time>2016-10-29T05:24:38Z</time>
      </trkpt>
      <trkpt lat="42.443178000" lon="-2.499137000">
        <ele>444.50</ele>
        <time>2016-10-29T05:24:39Z</time>
      </trkpt>
      <trkpt lat="42.443154000" lon="-2.499144000">
        <ele>444.50</ele>
        <time>2016-10-29T05:24:40Z</time>
      </trkpt>
      <trkpt lat="42.443132000" lon="-2.499146000">
        <ele>444.60</ele>
        <time>2016-10-29T05:24:41Z</time>
      </trkpt>
      <trkpt lat="42.443108000" lon="-2.499133000">
        <ele>444.70</ele>
        <time>2016-10-29T05:24:42Z</time>
      </trkpt>
      <trkpt lat="42.443084000" lon="-2.499112000">
        <ele>444.90</ele>
        <time>2016-10-29T05:24:43Z</time>
      </trkpt>
      <trkpt lat="42.443066000" lon="-2.499082000">
        <ele>445.10</ele>
        <time>2016-10-29T05:24:44Z</time>
      </trkpt>
      <trkpt lat="42.443045000" lon="-2.499055000">
        <ele>445.40</ele>
        <time>2016-10-29T05:24:45Z</time>
      </trkpt>
      <trkpt lat="42.443025000" lon="-2.499030000">
        <ele>445.60</ele>
        <time>2016-10-29T05:24:46Z</time>
      </trkpt>
      <trkpt lat="42.443008000" lon="-2.499001000">
        <ele>445.90</ele>
        <time>2016-10-29T05:24:47Z</time>
      </trkpt>
      <trkpt lat="42.442984000" lon="-2.498981000">
        <ele>446.20</ele>
        <time>2016-10-29T05:24:48Z</time>
      </trkpt>
      <trkpt lat="42.442960000" lon="-2.498968000">
        <ele>446.30</ele>
        <time>2016-10-29T05:24:49Z</time>
      </trkpt>
      <trkpt lat="42.442935000" lon="-2.498968000">
        <ele>446.50</ele>
        <time>2016-10-29T05:24:50Z</time>
      </trkpt>
      <trkpt lat="42.442908000" lon="-2.498976000">
        <ele>446.70</ele>
        <time>2016-10-29T05:24:51Z</time>
      </trkpt>
      <trkpt lat="42.442881000" lon="-2.498976000">
        <ele>446.90</ele>
        <time>2016-10-29T05:24:52Z</time>
      </trkpt>
      <trkpt lat="42.442853000" lon="-2.498985000">
        <ele>447.00</ele>
        <time>2016-10-29T05:24:53Z</time>
      </trkpt>
      <trkpt lat="42.442822000" lon="-2.498994000">
        <ele>447.10</ele>
        <time>2016-10-29T05:24:54Z</time>
      </trkpt>
      <trkpt lat="42.442789000" lon="-2.499005000">
        <ele>447.20</ele>
        <time>2016-10-29T05:24:55Z</time>
      </trkpt>
      <trkpt lat="42.442760000" lon="-2.499012000">
        <ele>447.20</ele>
        <time>2016-10-29T05:24:56Z</time>
      </trkpt>
      <trkpt lat="42.442731000" lon="-2.499013000">
        <ele>447.20</ele>
        <time>2016-10-29T05:24:57Z</time>
      </trkpt>
      <trkpt lat="42.442698000" lon="-2.499014000">
        <ele>447.20</ele>
        <time>2016-10-29T05:24:58Z</time>
      </trkpt>
      <trkpt lat="42.442665000" lon="-2.499013000">
        <ele>447.00</ele>
        <time>2016-10-29T05:24:59Z</time>
      </trkpt>
      <trkpt lat="42.442629000" lon="-2.499012000">
        <ele>446.90</ele>
        <time>2016-10-29T05:25:00Z</time>
      </trkpt>
      <trkpt lat="42.442589000" lon="-2.499013000">
        <ele>446.90</ele>
        <time>2016-10-29T05:25:01Z</time>
      </trkpt>
      <trkpt lat="42.442549000" lon="-2.499019000">
        <ele>446.90</ele>
        <time>2016-10-29T05:25:02Z</time>
      </trkpt>
      <trkpt lat="42.442475000" lon="-2.499019000">
        <ele>446.70</ele>
        <time>2016-10-29T05:25:04Z</time>
      </trkpt>
      <trkpt lat="42.442441000" lon="-2.499012000">
        <ele>446.60</ele>
        <time>2016-10-29T05:25:05Z</time>
      </trkpt>
      <trkpt lat="42.442408000" lon="-2.499009000">
        <ele>446.50</ele>
        <time>2016-10-29T05:25:06Z</time>
      </trkpt>
      <trkpt lat="42.442375000" lon="-2.499003000">
        <ele>446.50</ele>
        <time>2016-10-29T05:25:07Z</time>
      </trkpt>
      <trkpt lat="42.442344000" lon="-2.498998000">
        <ele>446.50</ele>
        <time>2016-10-29T05:25:08Z</time>
      </trkpt>
      <trkpt lat="42.442313000" lon="-2.498994000">
        <ele>446.60</ele>
        <time>2016-10-29T05:25:09Z</time>
      </trkpt>
      <trkpt lat="42.442284000" lon="-2.498993000">
        <ele>446.70</ele>
        <time>2016-10-29T05:25:10Z</time>
      </trkpt>
      <trkpt lat="42.442253000" lon="-2.498994000">
        <ele>446.80</ele>
        <time>2016-10-29T05:25:11Z</time>
      </trkpt>
      <trkpt lat="42.442224000" lon="-2.498991000">
        <ele>446.90</ele>
        <time>2016-10-29T05:25:12Z</time>
      </trkpt>
      <trkpt lat="42.442193000" lon="-2.498992000">
        <ele>446.90</ele>
        <time>2016-10-29T05:25:13Z</time>
      </trkpt>
      <trkpt lat="42.442158000" lon="-2.499001000">
        <ele>446.90</ele>
        <time>2016-10-29T05:25:14Z</time>
      </trkpt>
      <trkpt lat="42.442125000" lon="-2.499010000">
        <ele>446.90</ele>
        <time>2016-10-29T05:25:15Z</time>
      </trkpt>
      <trkpt lat="42.442089000" lon="-2.499023000">
        <ele>446.90</ele>
        <time>2016-10-29T05:25:16Z</time>
      </trkpt>
      <trkpt lat="42.442054000" lon="-2.499045000">
        <ele>446.90</ele>
        <time>2016-10-29T05:25:17Z</time>
      </trkpt>
      <trkpt lat="42.442023000" lon="-2.499068000">
        <ele>446.90</ele>
        <time>2016-10-29T05:25:18Z</time>
      </trkpt>
      <trkpt lat="42.441994000" lon="-2.499086000">
        <ele>446.80</ele>
        <time>2016-10-29T05:25:19Z</time>
      </trkpt>
      <trkpt lat="42.441966000" lon="-2.499106000">
        <ele>446.80</ele>
        <time>2016-10-29T05:25:20Z</time>
      </trkpt>
      <trkpt lat="42.441940000" lon="-2.499120000">
        <ele>446.70</ele>
        <time>2016-10-29T05:25:21Z</time>
      </trkpt>
      <trkpt lat="42.441915000" lon="-2.499139000">
        <ele>446.70</ele>
        <time>2016-10-29T05:25:22Z</time>
      </trkpt>
      <trkpt lat="42.441891000" lon="-2.499160000">
        <ele>446.70</ele>
        <time>2016-10-29T05:25:23Z</time>
      </trkpt>
      <trkpt lat="42.441873000" lon="-2.499184000">
        <ele>446.80</ele>
        <time>2016-10-29T05:25:24Z</time>
      </trkpt>
      <trkpt lat="42.441857000" lon="-2.499212000">
        <ele>447.00</ele>
        <time>2016-10-29T05:25:25Z</time>
      </trkpt>
      <trkpt lat="42.441849000" lon="-2.499239000">
        <ele>447.10</ele>
        <time>2016-10-29T05:25:26Z</time>
      </trkpt>
      <trkpt lat="42.441845000" lon="-2.499271000">
        <ele>447.70</ele>
        <time>2016-10-29T05:25:27Z</time>
      </trkpt>
      <trkpt lat="42.441844000" lon="-2.499309000">
        <ele>448.10</ele>
        <time>2016-10-29T05:25:28Z</time>
      </trkpt>
      <trkpt lat="42.441849000" lon="-2.499350000">
        <ele>448.40</ele>
        <time>2016-10-29T05:25:29Z</time>
      </trkpt>
      <trkpt lat="42.441851000" lon="-2.499394000">
        <ele>448.70</ele>
        <time>2016-10-29T05:25:30Z</time>
      </trkpt>
      <trkpt lat="42.441850000" lon="-2.499435000">
        <ele>448.70</ele>
        <time>2016-10-29T05:25:31Z</time>
      </trkpt>
      <trkpt lat="42.441845000" lon="-2.499477000">
        <ele>448.70</ele>
        <time>2016-10-29T05:25:32Z</time>
      </trkpt>
      <trkpt lat="42.441836000" lon="-2.499519000">
        <ele>448.80</ele>
        <time>2016-10-29T05:25:33Z</time>
      </trkpt>
      <trkpt lat="42.441824000" lon="-2.499561000">
        <ele>448.80</ele>
        <time>2016-10-29T05:25:34Z</time>
      </trkpt>
      <trkpt lat="42.441809000" lon="-2.499599000">
        <ele>448.80</ele>
        <time>2016-10-29T05:25:35Z</time>
      </trkpt>
      <trkpt lat="42.441790000" lon="-2.499636000">
        <ele>448.80</ele>
        <time>2016-10-29T05:25:36Z</time>
      </trkpt>
      <trkpt lat="42.441769000" lon="-2.499669000">
        <ele>448.80</ele>
        <time>2016-10-29T05:25:37Z</time>
      </trkpt>
      <trkpt lat="42.441743000" lon="-2.499699000">
        <ele>448.80</ele>
        <time>2016-10-29T05:25:38Z</time>
      </trkpt>
      <trkpt lat="42.441711000" lon="-2.499726000">
        <ele>448.70</ele>
        <time>2016-10-29T05:25:39Z</time>
      </trkpt>
      <trkpt lat="42.441678000" lon="-2.499758000">
        <ele>448.60</ele>
        <time>2016-10-29T05:25:40Z</time>
      </trkpt>
      <trkpt lat="42.441641000" lon="-2.499788000">
        <ele>448.50</ele>
        <time>2016-10-29T05:25:41Z</time>
      </trkpt>
      <trkpt lat="42.441601000" lon="-2.499820000">
        <ele>448.50</ele>
        <time>2016-10-29T05:25:42Z</time>
      </trkpt>
      <trkpt lat="42.441559000" lon="-2.499850000">
        <ele>448.40</ele>
        <time>2016-10-29T05:25:43Z</time>
      </trkpt>
      <trkpt lat="42.441515000" lon="-2.499883000">
        <ele>448.40</ele>
        <time>2016-10-29T05:25:44Z</time>
      </trkpt>
      <trkpt lat="42.441474000" lon="-2.499916000">
        <ele>448.20</ele>
        <time>2016-10-29T05:25:45Z</time>
      </trkpt>
      <trkpt lat="42.441432000" lon="-2.499949000">
        <ele>448.00</ele>
        <time>2016-10-29T05:25:46Z</time>
      </trkpt>
      <trkpt lat="42.441395000" lon="-2.499984000">
        <ele>447.70</ele>
        <time>2016-10-29T05:25:47Z</time>
      </trkpt>
      <trkpt lat="42.441363000" lon="-2.500020000">
        <ele>447.60</ele>
        <time>2016-10-29T05:25:48Z</time>
      </trkpt>
      <trkpt lat="42.441331000" lon="-2.500058000">
        <ele>447.40</ele>
        <time>2016-10-29T05:25:49Z</time>
      </trkpt>
      <trkpt lat="42.441304000" lon="-2.500089000">
        <ele>447.30</ele>
        <time>2016-10-29T05:25:50Z</time>
      </trkpt>
      <trkpt lat="42.441283000" lon="-2.500128000">
        <ele>447.20</ele>
        <time>2016-10-29T05:25:51Z</time>
      </trkpt>
      <trkpt lat="42.441265000" lon="-2.500166000">
        <ele>447.20</ele>
        <time>2016-10-29T05:25:52Z</time>
      </trkpt>
      <trkpt lat="42.441247000" lon="-2.500201000">
        <ele>447.10</ele>
        <time>2016-10-29T05:25:53Z</time>
      </trkpt>
      <trkpt lat="42.441233000" lon="-2.500234000">
        <ele>447.10</ele>
        <time>2016-10-29T05:25:54Z</time>
      </trkpt>
      <trkpt lat="42.441220000" lon="-2.500270000">
        <ele>447.10</ele>
        <time>2016-10-29T05:25:55Z</time>
      </trkpt>
      <trkpt lat="42.441205000" lon="-2.500307000">
        <ele>447.10</ele>
        <time>2016-10-29T05:25:56Z</time>
      </trkpt>
      <trkpt lat="42.441190000" lon="-2.500344000">
        <ele>447.30</ele>
        <time>2016-10-29T05:25:57Z</time>
      </trkpt>
      <trkpt lat="42.441175000" lon="-2.500383000">
        <ele>447.40</ele>
        <time>2016-10-29T05:25:58Z</time>
      </trkpt>
      <trkpt lat="42.441158000" lon="-2.500420000">
        <ele>447.60</ele>
        <time>2016-10-29T05:25:59Z</time>
      </trkpt>
      <trkpt lat="42.441140000" lon="-2.500459000">
        <ele>447.60</ele>
        <time>2016-10-29T05:26:00Z</time>
      </trkpt>
      <trkpt lat="42.441124000" lon="-2.500498000">
        <ele>447.70</ele>
        <time>2016-10-29T05:26:01Z</time>
      </trkpt>
      <trkpt lat="42.441108000" lon="-2.500537000">
        <ele>447.70</ele>
        <time>2016-10-29T05:26:02Z</time>
      </trkpt>
      <trkpt lat="42.441090000" lon="-2.500577000">
        <ele>447.80</ele>
        <time>2016-10-29T05:26:03Z</time>
      </trkpt>
      <trkpt lat="42.441051000" lon="-2.500659000">
        <ele>447.80</ele>
        <time>2016-10-29T05:26:05Z</time>
      </trkpt>
      <trkpt lat="42.441030000" lon="-2.500698000">
        <ele>447.80</ele>
        <time>2016-10-29T05:26:06Z</time>
      </trkpt>
      <trkpt lat="42.441009000" lon="-2.500740000">
        <ele>447.70</ele>
        <time>2016-10-29T05:26:07Z</time>
      </trkpt>
      <trkpt lat="42.440987000" lon="-2.500777000">
        <ele>447.70</ele>
        <time>2016-10-29T05:26:08Z</time>
      </trkpt>
      <trkpt lat="42.440962000" lon="-2.500814000">
        <ele>447.70</ele>
        <time>2016-10-29T05:26:09Z</time>
      </trkpt>
      <trkpt lat="42.440936000" lon="-2.500854000">
        <ele>447.60</ele>
        <time>2016-10-29T05:26:10Z</time>
      </trkpt>
      <trkpt lat="42.440908000" lon="-2.500894000">
        <ele>447.70</ele>
        <time>2016-10-29T05:26:11Z</time>
      </trkpt>
      <trkpt lat="42.440883000" lon="-2.500935000">
        <ele>447.70</ele>
        <time>2016-10-29T05:26:12Z</time>
      </trkpt>
      <trkpt lat="42.440857000" lon="-2.500973000">
        <ele>447.70</ele>
        <time>2016-10-29T05:26:13Z</time>
      </trkpt>
      <trkpt lat="42.440833000" lon="-2.501010000">
        <ele>447.80</ele>
        <time>2016-10-29T05:26:14Z</time>
      </trkpt>
      <trkpt lat="42.440808000" lon="-2.501048000">
        <ele>447.70</ele>
        <time>2016-10-29T05:26:15Z</time>
      </trkpt>
      <trkpt lat="42.440781000" lon="-2.501087000">
        <ele>447.60</ele>
        <time>2016-10-29T05:26:16Z</time>
      </trkpt>
      <trkpt lat="42.440758000" lon="-2.501121000">
        <ele>447.50</ele>
        <time>2016-10-29T05:26:17Z</time>
      </trkpt>
      <trkpt lat="42.440736000" lon="-2.501159000">
        <ele>447.50</ele>
        <time>2016-10-29T05:26:18Z</time>
      </trkpt>
      <trkpt lat="42.440712000" lon="-2.501198000">
        <ele>447.60</ele>
        <time>2016-10-29T05:26:19Z</time>
      </trkpt>
      <trkpt lat="42.440686000" lon="-2.501232000">
        <ele>447.60</ele>
        <time>2016-10-29T05:26:20Z</time>
      </trkpt>
      <trkpt lat="42.440659000" lon="-2.501266000">
        <ele>447.70</ele>
        <time>2016-10-29T05:26:21Z</time>
      </trkpt>
      <trkpt lat="42.440632000" lon="-2.501298000">
        <ele>447.80</ele>
        <time>2016-10-29T05:26:22Z</time>
      </trkpt>
      <trkpt lat="42.440609000" lon="-2.501328000">
        <ele>447.90</ele>
        <time>2016-10-29T05:26:23Z</time>
      </trkpt>
      <trkpt lat="42.440582000" lon="-2.501360000">
        <ele>447.90</ele>
        <time>2016-10-29T05:26:24Z</time>
      </trkpt>
      <trkpt lat="42.440556000" lon="-2.501391000">
        <ele>447.90</ele>
        <time>2016-10-29T05:26:25Z</time>
      </trkpt>
      <trkpt lat="42.440532000" lon="-2.501423000">
        <ele>447.90</ele>
        <time>2016-10-29T05:26:26Z</time>
      </trkpt>
      <trkpt lat="42.440509000" lon="-2.501458000">
        <ele>447.90</ele>
        <time>2016-10-29T05:26:27Z</time>
      </trkpt>
      <trkpt lat="42.440487000" lon="-2.501494000">
        <ele>447.80</ele>
        <time>2016-10-29T05:26:28Z</time>
      </trkpt>
      <trkpt lat="42.440470000" lon="-2.501535000">
        <ele>447.80</ele>
        <time>2016-10-29T05:26:29Z</time>
      </trkpt>
      <trkpt lat="42.440454000" lon="-2.501581000">
        <ele>447.80</ele>
        <time>2016-10-29T05:26:30Z</time>
      </trkpt>
      <trkpt lat="42.440443000" lon="-2.501629000">
        <ele>447.80</ele>
        <time>2016-10-29T05:26:31Z</time>
      </trkpt>
      <trkpt lat="42.440433000" lon="-2.501679000">
        <ele>447.80</ele>
        <time>2016-10-29T05:26:32Z</time>
      </trkpt>
      <trkpt lat="42.440422000" lon="-2.501734000">
        <ele>447.80</ele>
        <time>2016-10-29T05:26:33Z</time>
      </trkpt>
      <trkpt lat="42.440411000" lon="-2.501786000">
        <ele>447.80</ele>
        <time>2016-10-29T05:26:34Z</time>
      </trkpt>
      <trkpt lat="42.440398000" lon="-2.501836000">
        <ele>447.60</ele>
        <time>2016-10-29T05:26:35Z</time>
      </trkpt>
      <trkpt lat="42.440387000" lon="-2.501885000">
        <ele>447.50</ele>
        <time>2016-10-29T05:26:36Z</time>
      </trkpt>
      <trkpt lat="42.440375000" lon="-2.501935000">
        <ele>447.40</ele>
        <time>2016-10-29T05:26:37Z</time>
      </trkpt>
      <trkpt lat="42.440358000" lon="-2.501986000">
        <ele>447.30</ele>
        <time>2016-10-29T05:26:38Z</time>
      </trkpt>
      <trkpt lat="42.440342000" lon="-2.502039000">
        <ele>447.20</ele>
        <time>2016-10-29T05:26:39Z</time>
      </trkpt>
      <trkpt lat="42.440325000" lon="-2.502089000">
        <ele>447.10</ele>
        <time>2016-10-29T05:26:40Z</time>
      </trkpt>
      <trkpt lat="42.440308000" lon="-2.502140000">
        <ele>447.10</ele>
        <time>2016-10-29T05:26:41Z</time>
      </trkpt>
      <trkpt lat="42.440295000" lon="-2.502191000">
        <ele>447.20</ele>
        <time>2016-10-29T05:26:42Z</time>
      </trkpt>
      <trkpt lat="42.440281000" lon="-2.502244000">
        <ele>447.10</ele>
        <time>2016-10-29T05:26:43Z</time>
      </trkpt>
      <trkpt lat="42.440268000" lon="-2.502297000">
        <ele>447.00</ele>
        <time>2016-10-29T05:26:44Z</time>
      </trkpt>
      <trkpt lat="42.440254000" lon="-2.502349000">
        <ele>447.00</ele>
        <time>2016-10-29T05:26:45Z</time>
      </trkpt>
      <trkpt lat="42.440240000" lon="-2.502401000">
        <ele>447.10</ele>
        <time>2016-10-29T05:26:46Z</time>
      </trkpt>
      <trkpt lat="42.440230000" lon="-2.502453000">
        <ele>447.10</ele>
        <time>2016-10-29T05:26:47Z</time>
      </trkpt>
      <trkpt lat="42.440223000" lon="-2.502505000">
        <ele>447.10</ele>
        <time>2016-10-29T05:26:48Z</time>
      </trkpt>
      <trkpt lat="42.440217000" lon="-2.502557000">
        <ele>447.10</ele>
        <time>2016-10-29T05:26:49Z</time>
      </trkpt>
      <trkpt lat="42.440211000" lon="-2.502608000">
        <ele>447.10</ele>
        <time>2016-10-29T05:26:50Z</time>
      </trkpt>
      <trkpt lat="42.440205000" lon="-2.502661000">
        <ele>447.00</ele>
        <time>2016-10-29T05:26:51Z</time>
      </trkpt>
      <trkpt lat="42.440203000" lon="-2.502712000">
        <ele>446.90</ele>
        <time>2016-10-29T05:26:52Z</time>
      </trkpt>
      <trkpt lat="42.440197000" lon="-2.502763000">
        <ele>446.80</ele>
        <time>2016-10-29T05:26:53Z</time>
      </trkpt>
      <trkpt lat="42.440191000" lon="-2.502812000">
        <ele>446.80</ele>
        <time>2016-10-29T05:26:54Z</time>
      </trkpt>
      <trkpt lat="42.440184000" lon="-2.502864000">
        <ele>446.70</ele>
        <time>2016-10-29T05:26:55Z</time>
      </trkpt>
      <trkpt lat="42.440173000" lon="-2.502915000">
        <ele>446.70</ele>
        <time>2016-10-29T05:26:56Z</time>
      </trkpt>
      <trkpt lat="42.440163000" lon="-2.502964000">
        <ele>446.70</ele>
        <time>2016-10-29T05:26:57Z</time>
      </trkpt>
      <trkpt lat="42.440152000" lon="-2.503013000">
        <ele>446.70</ele>
        <time>2016-10-29T05:26:58Z</time>
      </trkpt>
      <trkpt lat="42.440140000" lon="-2.503062000">
        <ele>446.80</ele>
        <time>2016-10-29T05:26:59Z</time>
      </trkpt>
      <trkpt lat="42.440127000" lon="-2.503111000">
        <ele>446.90</ele>
        <time>2016-10-29T05:27:00Z</time>
      </trkpt>
      <trkpt lat="42.440114000" lon="-2.503162000">
        <ele>446.90</ele>
        <time>2016-10-29T05:27:01Z</time>
      </trkpt>
      <trkpt lat="42.440101000" lon="-2.503208000">
        <ele>447.00</ele>
        <time>2016-10-29T05:27:02Z</time>
      </trkpt>
      <trkpt lat="42.440087000" lon="-2.503255000">
        <ele>447.00</ele>
        <time>2016-10-29T05:27:03Z</time>
      </trkpt>
      <trkpt lat="42.440075000" lon="-2.503299000">
        <ele>447.00</ele>
        <time>2016-10-29T05:27:04Z</time>
      </trkpt>
      <trkpt lat="42.440046000" lon="-2.503396000">
        <ele>447.30</ele>
        <time>2016-10-29T05:27:06Z</time>
      </trkpt>
      <trkpt lat="42.440033000" lon="-2.503446000">
        <ele>447.30</ele>
        <time>2016-10-29T05:27:07Z</time>
      </trkpt>
      <trkpt lat="42.440018000" lon="-2.503496000">
        <ele>447.30</ele>
        <time>2016-10-29T05:27:08Z</time>
      </trkpt>
      <trkpt lat="42.440004000" lon="-2.503542000">
        <ele>447.40</ele>
        <time>2016-10-29T05:27:09Z</time>
      </trkpt>
      <trkpt lat="42.439992000" lon="-2.503589000">
        <ele>447.50</ele>
        <time>2016-10-29T05:27:10Z</time>
      </trkpt>
      <trkpt lat="42.439978000" lon="-2.503637000">
        <ele>447.40</ele>
        <time>2016-10-29T05:27:11Z</time>
      </trkpt>
      <trkpt lat="42.439967000" lon="-2.503680000">
        <ele>447.40</ele>
        <time>2016-10-29T05:27:12Z</time>
      </trkpt>
      <trkpt lat="42.439957000" lon="-2.503724000">
        <ele>447.50</ele>
        <time>2016-10-29T05:27:13Z</time>
      </trkpt>
      <trkpt lat="42.439946000" lon="-2.503768000">
        <ele>447.50</ele>
        <time>2016-10-29T05:27:14Z</time>
      </trkpt>
      <trkpt lat="42.439934000" lon="-2.503813000">
        <ele>447.70</ele>
        <time>2016-10-29T05:27:15Z</time>
      </trkpt>
      <trkpt lat="42.439924000" lon="-2.503857000">
        <ele>447.90</ele>
        <time>2016-10-29T05:27:16Z</time>
      </trkpt>
      <trkpt lat="42.439914000" lon="-2.503901000">
        <ele>448.00</ele>
        <time>2016-10-29T05:27:17Z</time>
      </trkpt>
      <trkpt lat="42.439907000" lon="-2.503945000">
        <ele>448.10</ele>
        <time>2016-10-29T05:27:18Z</time>
      </trkpt>
      <trkpt lat="42.439898000" lon="-2.503988000">
        <ele>448.00</ele>
        <time>2016-10-29T05:27:19Z</time>
      </trkpt>
      <trkpt lat="42.439889000" lon="-2.504031000">
        <ele>448.00</ele>
        <time>2016-10-29T05:27:20Z</time>
      </trkpt>
      <trkpt lat="42.439883000" lon="-2.504073000">
        <ele>448.00</ele>
        <time>2016-10-29T05:27:21Z</time>
      </trkpt>
      <trkpt lat="42.439877000" lon="-2.504114000">
        <ele>447.90</ele>
        <time>2016-10-29T05:27:22Z</time>
      </trkpt>
      <trkpt lat="42.439869000" lon="-2.504157000">
        <ele>447.90</ele>
        <time>2016-10-29T05:27:23Z</time>
      </trkpt>
      <trkpt lat="42.439862000" lon="-2.504200000">
        <ele>447.90</ele>
        <time>2016-10-29T05:27:24Z</time>
      </trkpt>
      <trkpt lat="42.439854000" lon="-2.504244000">
        <ele>447.90</ele>
        <time>2016-10-29T05:27:25Z</time>
      </trkpt>
      <trkpt lat="42.439847000" lon="-2.504291000">
        <ele>447.90</ele>
        <time>2016-10-29T05:27:26Z</time>
      </trkpt>
      <trkpt lat="42.439842000" lon="-2.504335000">
        <ele>447.80</ele>
        <time>2016-10-29T05:27:27Z</time>
      </trkpt>
      <trkpt lat="42.439836000" lon="-2.504380000">
        <ele>447.70</ele>
        <time>2016-10-29T05:27:28Z</time>
      </trkpt>
      <trkpt lat="42.439829000" lon="-2.504428000">
        <ele>447.70</ele>
        <time>2016-10-29T05:27:29Z</time>
      </trkpt>
      <trkpt lat="42.439822000" lon="-2.504475000">
        <ele>447.80</ele>
        <time>2016-10-29T05:27:30Z</time>
      </trkpt>
      <trkpt lat="42.439815000" lon="-2.504518000">
        <ele>447.80</ele>
        <time>2016-10-29T05:27:31Z</time>
      </trkpt>
      <trkpt lat="42.439808000" lon="-2.504562000">
        <ele>447.80</ele>
        <time>2016-10-29T05:27:32Z</time>
      </trkpt>
      <trkpt lat="42.439800000" lon="-2.504606000">
        <ele>447.90</ele>
        <time>2016-10-29T05:27:33Z</time>
      </trkpt>
      <trkpt lat="42.439791000" lon="-2.504649000">
        <ele>448.00</ele>
        <time>2016-10-29T05:27:34Z</time>
      </trkpt>
      <trkpt lat="42.439781000" lon="-2.504686000">
        <ele>447.90</ele>
        <time>2016-10-29T05:27:35Z</time>
      </trkpt>
      <trkpt lat="42.439773000" lon="-2.504729000">
        <ele>447.90</ele>
        <time>2016-10-29T05:27:36Z</time>
      </trkpt>
      <trkpt lat="42.439766000" lon="-2.504772000">
        <ele>447.90</ele>
        <time>2016-10-29T05:27:37Z</time>
      </trkpt>
      <trkpt lat="42.439755000" lon="-2.504814000">
        <ele>447.80</ele>
        <time>2016-10-29T05:27:38Z</time>
      </trkpt>
      <trkpt lat="42.439745000" lon="-2.504857000">
        <ele>447.80</ele>
        <time>2016-10-29T05:27:39Z</time>
      </trkpt>
      <trkpt lat="42.439734000" lon="-2.504897000">
        <ele>447.70</ele>
        <time>2016-10-29T05:27:40Z</time>
      </trkpt>
      <trkpt lat="42.439723000" lon="-2.504935000">
        <ele>447.80</ele>
        <time>2016-10-29T05:27:41Z</time>
      </trkpt>
      <trkpt lat="42.439713000" lon="-2.504973000">
        <ele>447.90</ele>
        <time>2016-10-29T05:27:42Z</time>
      </trkpt>
      <trkpt lat="42.439698000" lon="-2.505013000">
        <ele>448.10</ele>
        <time>2016-10-29T05:27:43Z</time>
      </trkpt>
      <trkpt lat="42.439680000" lon="-2.505052000">
        <ele>448.20</ele>
        <time>2016-10-29T05:27:44Z</time>
      </trkpt>
      <trkpt lat="42.439661000" lon="-2.505088000">
        <ele>448.30</ele>
        <time>2016-10-29T05:27:45Z</time>
      </trkpt>
      <trkpt lat="42.439637000" lon="-2.505117000">
        <ele>448.40</ele>
        <time>2016-10-29T05:27:46Z</time>
      </trkpt>
      <trkpt lat="42.439614000" lon="-2.505151000">
        <ele>448.20</ele>
        <time>2016-10-29T05:27:47Z</time>
      </trkpt>
      <trkpt lat="42.439592000" lon="-2.505182000">
        <ele>448.00</ele>
        <time>2016-10-29T05:27:48Z</time>
      </trkpt>
      <trkpt lat="42.439571000" lon="-2.505213000">
        <ele>447.80</ele>
        <time>2016-10-29T05:27:49Z</time>
      </trkpt>
      <trkpt lat="42.439548000" lon="-2.505244000">
        <ele>447.70</ele>
        <time>2016-10-29T05:27:50Z</time>
      </trkpt>
      <trkpt lat="42.439525000" lon="-2.505278000">
        <ele>447.80</ele>
        <time>2016-10-29T05:27:51Z</time>
      </trkpt>
      <trkpt lat="42.439502000" lon="-2.505313000">
        <ele>447.90</ele>
        <time>2016-10-29T05:27:52Z</time>
      </trkpt>
      <trkpt lat="42.439478000" lon="-2.505350000">
        <ele>448.00</ele>
        <time>2016-10-29T05:27:53Z</time>
      </trkpt>
      <trkpt lat="42.439455000" lon="-2.505388000">
        <ele>448.00</ele>
        <time>2016-10-29T05:27:54Z</time>
      </trkpt>
      <trkpt lat="42.439433000" lon="-2.505423000">
        <ele>448.00</ele>
        <time>2016-10-29T05:27:55Z</time>
      </trkpt>
      <trkpt lat="42.439410000" lon="-2.505452000">
        <ele>448.10</ele>
        <time>2016-10-29T05:27:56Z</time>
      </trkpt>
      <trkpt lat="42.439387000" lon="-2.505483000">
        <ele>448.10</ele>
        <time>2016-10-29T05:27:57Z</time>
      </trkpt>
      <trkpt lat="42.439363000" lon="-2.505512000">
        <ele>448.10</ele>
        <time>2016-10-29T05:27:58Z</time>
      </trkpt>
      <trkpt lat="42.439341000" lon="-2.505545000">
        <ele>448.10</ele>
        <time>2016-10-29T05:27:59Z</time>
      </trkpt>
      <trkpt lat="42.439317000" lon="-2.505579000">
        <ele>448.10</ele>
        <time>2016-10-29T05:28:00Z</time>
      </trkpt>
      <trkpt lat="42.439292000" lon="-2.505615000">
        <ele>448.10</ele>
        <time>2016-10-29T05:28:01Z</time>
      </trkpt>
      <trkpt lat="42.439269000" lon="-2.505648000">
        <ele>448.10</ele>
        <time>2016-10-29T05:28:02Z</time>
      </trkpt>
      <trkpt lat="42.439246000" lon="-2.505681000">
        <ele>448.00</ele>
        <time>2016-10-29T05:28:03Z</time>
      </trkpt>
      <trkpt lat="42.439222000" lon="-2.505718000">
        <ele>447.90</ele>
        <time>2016-10-29T05:28:04Z</time>
      </trkpt>
      <trkpt lat="42.439203000" lon="-2.505755000">
        <ele>448.00</ele>
        <time>2016-10-29T05:28:05Z</time>
      </trkpt>
      <trkpt lat="42.439160000" lon="-2.505824000">
        <ele>448.10</ele>
        <time>2016-10-29T05:28:07Z</time>
      </trkpt>
      <trkpt lat="42.439139000" lon="-2.505859000">
        <ele>448.20</ele>
        <time>2016-10-29T05:28:08Z</time>
      </trkpt>
      <trkpt lat="42.439121000" lon="-2.505895000">
        <ele>448.20</ele>
        <time>2016-10-29T05:28:09Z</time>
      </trkpt>
      <trkpt lat="42.439102000" lon="-2.505927000">
        <ele>448.30</ele>
        <time>2016-10-29T05:28:10Z</time>
      </trkpt>
      <trkpt lat="42.439083000" lon="-2.505959000">
        <ele>448.20</ele>
        <time>2016-10-29T05:28:11Z</time>
      </trkpt>
      <trkpt lat="42.439068000" lon="-2.505988000">
        <ele>448.20</ele>
        <time>2016-10-29T05:28:12Z</time>
      </trkpt>
      <trkpt lat="42.439052000" lon="-2.506021000">
        <ele>448.20</ele>
        <time>2016-10-29T05:28:13Z</time>
      </trkpt>
      <trkpt lat="42.439035000" lon="-2.506052000">
        <ele>448.20</ele>
        <time>2016-10-29T05:28:14Z</time>
      </trkpt>
      <trkpt lat="42.439023000" lon="-2.506083000">
        <ele>448.40</ele>
        <time>2016-10-29T05:28:15Z</time>
      </trkpt>
      <trkpt lat="42.439006000" lon="-2.506118000">
        <ele>448.60</ele>
        <time>2016-10-29T05:28:16Z</time>
      </trkpt>
      <trkpt lat="42.438989000" lon="-2.506150000">
        <ele>448.80</ele>
        <time>2016-10-29T05:28:17Z</time>
      </trkpt>
      <trkpt lat="42.438972000" lon="-2.506185000">
        <ele>448.90</ele>
        <time>2016-10-29T05:28:18Z</time>
      </trkpt>
      <trkpt lat="42.438953000" lon="-2.506222000">
        <ele>449.10</ele>
        <time>2016-10-29T05:28:19Z</time>
      </trkpt>
      <trkpt lat="42.438939000" lon="-2.506256000">
        <ele>449.20</ele>
        <time>2016-10-29T05:28:20Z</time>
      </trkpt>
      <trkpt lat="42.438923000" lon="-2.506291000">
        <ele>449.30</ele>
        <time>2016-10-29T05:28:21Z</time>
      </trkpt>
      <trkpt lat="42.438907000" lon="-2.506323000">
        <ele>449.40</ele>
        <time>2016-10-29T05:28:22Z</time>
      </trkpt>
      <trkpt lat="42.438894000" lon="-2.506354000">
        <ele>449.40</ele>
        <time>2016-10-29T05:28:23Z</time>
      </trkpt>
      <trkpt lat="42.438881000" lon="-2.506386000">
        <ele>449.50</ele>
        <time>2016-10-29T05:28:24Z</time>
      </trkpt>
      <trkpt lat="42.438870000" lon="-2.506418000">
        <ele>449.60</ele>
        <time>2016-10-29T05:28:25Z</time>
      </trkpt>
      <trkpt lat="42.438857000" lon="-2.506448000">
        <ele>449.60</ele>
        <time>2016-10-29T05:28:26Z</time>
      </trkpt>
      <trkpt lat="42.438846000" lon="-2.506473000">
        <ele>449.80</ele>
        <time>2016-10-29T05:28:27Z</time>
      </trkpt>
      <trkpt lat="42.438832000" lon="-2.506499000">
        <ele>450.00</ele>
        <time>2016-10-29T05:28:28Z</time>
      </trkpt>
      <trkpt lat="42.438819000" lon="-2.506523000">
        <ele>450.10</ele>
        <time>2016-10-29T05:28:29Z</time>
      </trkpt>
      <trkpt lat="42.438808000" lon="-2.506548000">
        <ele>450.10</ele>
        <time>2016-10-29T05:28:30Z</time>
      </trkpt>
      <trkpt lat="42.438795000" lon="-2.506575000">
        <ele>450.30</ele>
        <time>2016-10-29T05:28:31Z</time>
      </trkpt>
      <trkpt lat="42.438781000" lon="-2.506606000">
        <ele>450.50</ele>
        <time>2016-10-29T05:28:32Z</time>
      </trkpt>
      <trkpt lat="42.438770000" lon="-2.506633000">
        <ele>450.90</ele>
        <time>2016-10-29T05:28:33Z</time>
      </trkpt>
      <trkpt lat="42.438760000" lon="-2.506660000">
        <ele>451.30</ele>
        <time>2016-10-29T05:28:34Z</time>
      </trkpt>
      <trkpt lat="42.438748000" lon="-2.506683000">
        <ele>451.50</ele>
        <time>2016-10-29T05:28:35Z</time>
      </trkpt>
      <trkpt lat="42.438738000" lon="-2.506707000">
        <ele>451.70</ele>
        <time>2016-10-29T05:28:36Z</time>
      </trkpt>
      <trkpt lat="42.438725000" lon="-2.506734000">
        <ele>452.00</ele>
        <time>2016-10-29T05:28:37Z</time>
      </trkpt>
      <trkpt lat="42.438710000" lon="-2.506758000">
        <ele>452.10</ele>
        <time>2016-10-29T05:28:38Z</time>
      </trkpt>
      <trkpt lat="42.438696000" lon="-2.506782000">
        <ele>452.40</ele>
        <time>2016-10-29T05:28:39Z</time>
      </trkpt>
      <trkpt lat="42.438683000" lon="-2.506806000">
        <ele>452.60</ele>
        <time>2016-10-29T05:28:40Z</time>
      </trkpt>
      <trkpt lat="42.438666000" lon="-2.506835000">
        <ele>452.70</ele>
        <time>2016-10-29T05:28:41Z</time>
      </trkpt>
      <trkpt lat="42.438653000" lon="-2.506862000">
        <ele>452.80</ele>
        <time>2016-10-29T05:28:42Z</time>
      </trkpt>
      <trkpt lat="42.438641000" lon="-2.506891000">
        <ele>452.90</ele>
        <time>2016-10-29T05:28:43Z</time>
      </trkpt>
      <trkpt lat="42.438627000" lon="-2.506920000">
        <ele>452.90</ele>
        <time>2016-10-29T05:28:44Z</time>
      </trkpt>
      <trkpt lat="42.438613000" lon="-2.506951000">
        <ele>453.10</ele>
        <time>2016-10-29T05:28:45Z</time>
      </trkpt>
      <trkpt lat="42.438599000" lon="-2.506982000">
        <ele>453.20</ele>
        <time>2016-10-29T05:28:46Z</time>
      </trkpt>
      <trkpt lat="42.438586000" lon="-2.507016000">
        <ele>453.50</ele>
        <time>2016-10-29T05:28:47Z</time>
      </trkpt>
      <trkpt lat="42.438570000" lon="-2.507051000">
        <ele>453.70</ele>
        <time>2016-10-29T05:28:48Z</time>
      </trkpt>
      <trkpt lat="42.438554000" lon="-2.507084000">
        <ele>454.00</ele>
        <time>2016-10-29T05:28:49Z</time>
      </trkpt>
      <trkpt lat="42.438538000" lon="-2.507117000">
        <ele>454.10</ele>
        <time>2016-10-29T05:28:50Z</time>
      </trkpt>
      <trkpt lat="42.438522000" lon="-2.507147000">
        <ele>454.30</ele>
        <time>2016-10-29T05:28:51Z</time>
      </trkpt>
      <trkpt lat="42.438508000" lon="-2.507177000">
        <ele>454.50</ele>
        <time>2016-10-29T05:28:52Z</time>
      </trkpt>
      <trkpt lat="42.438494000" lon="-2.507212000">
        <ele>454.60</ele>
        <time>2016-10-29T05:28:53Z</time>
      </trkpt>
      <trkpt lat="42.438480000" lon="-2.507245000">
        <ele>454.70</ele>
        <time>2016-10-29T05:28:54Z</time>
      </trkpt>
      <trkpt lat="42.438466000" lon="-2.507282000">
        <ele>454.80</ele>
        <time>2016-10-29T05:28:55Z</time>
      </trkpt>
      <trkpt lat="42.438453000" lon="-2.507324000">
        <ele>454.80</ele>
        <time>2016-10-29T05:28:56Z</time>
      </trkpt>
      <trkpt lat="42.438441000" lon="-2.507363000">
        <ele>454.80</ele>
        <time>2016-10-29T05:28:57Z</time>
      </trkpt>
      <trkpt lat="42.438431000" lon="-2.507408000">
        <ele>454.70</ele>
        <time>2016-10-29T05:28:58Z</time>
      </trkpt>
      <trkpt lat="42.438420000" lon="-2.507452000">
        <ele>454.70</ele>
        <time>2016-10-29T05:28:59Z</time>
      </trkpt>
      <trkpt lat="42.438408000" lon="-2.507499000">
        <ele>454.70</ele>
        <time>2016-10-29T05:29:00Z</time>
      </trkpt>
      <trkpt lat="42.438396000" lon="-2.507549000">
        <ele>454.80</ele>
        <time>2016-10-29T05:29:01Z</time>
      </trkpt>
      <trkpt lat="42.438383000" lon="-2.507600000">
        <ele>454.80</ele>
        <time>2016-10-29T05:29:02Z</time>
      </trkpt>
      <trkpt lat="42.438372000" lon="-2.507655000">
        <ele>454.80</ele>
        <time>2016-10-29T05:29:03Z</time>
      </trkpt>
      <trkpt lat="42.438362000" lon="-2.507711000">
        <ele>454.80</ele>
        <time>2016-10-29T05:29:04Z</time>
      </trkpt>
      <trkpt lat="42.438350000" lon="-2.507772000">
        <ele>454.60</ele>
        <time>2016-10-29T05:29:05Z</time>
      </trkpt>
      <trkpt lat="42.438340000" lon="-2.507827000">
        <ele>454.40</ele>
        <time>2016-10-29T05:29:06Z</time>
      </trkpt>
      <trkpt lat="42.438315000" lon="-2.507952000">
        <ele>454.10</ele>
        <time>2016-10-29T05:29:08Z</time>
      </trkpt>
      <trkpt lat="42.438302000" lon="-2.508018000">
        <ele>454.00</ele>
        <time>2016-10-29T05:29:09Z</time>
      </trkpt>
      <trkpt lat="42.438287000" lon="-2.508086000">
        <ele>453.90</ele>
        <time>2016-10-29T05:29:10Z</time>
      </trkpt>
      <trkpt lat="42.438275000" lon="-2.508155000">
        <ele>453.80</ele>
        <time>2016-10-29T05:29:11Z</time>
      </trkpt>
      <trkpt lat="42.438260000" lon="-2.508227000">
        <ele>453.80</ele>
        <time>2016-10-29T05:29:12Z</time>
      </trkpt>
      <trkpt lat="42.438247000" lon="-2.508297000">
        <ele>453.40</ele>
        <time>2016-10-29T05:29:13Z</time>
      </trkpt>
      <trkpt lat="42.438237000" lon="-2.508369000">
        <ele>453.10</ele>
        <time>2016-10-29T05:29:14Z</time>
      </trkpt>
      <trkpt lat="42.438228000" lon="-2.508435000">
        <ele>452.80</ele>
        <time>2016-10-29T05:29:15Z</time>
      </trkpt>
      <trkpt lat="42.438216000" lon="-2.508506000">
        <ele>452.60</ele>
        <time>2016-10-29T05:29:16Z</time>
      </trkpt>
      <trkpt lat="42.438203000" lon="-2.508576000">
        <ele>452.40</ele>
        <time>2016-10-29T05:29:17Z</time>
      </trkpt>
      <trkpt lat="42.438193000" lon="-2.508642000">
        <ele>452.20</ele>
        <time>2016-10-29T05:29:18Z</time>
      </trkpt>
      <trkpt lat="42.438182000" lon="-2.508710000">
        <ele>452.00</ele>
        <time>2016-10-29T05:29:19Z</time>
      </trkpt>
      <trkpt lat="42.438170000" lon="-2.508778000">
        <ele>451.80</ele>
        <time>2016-10-29T05:29:20Z</time>
      </trkpt>
      <trkpt lat="42.438158000" lon="-2.508847000">
        <ele>451.70</ele>
        <time>2016-10-29T05:29:21Z</time>
      </trkpt>
      <trkpt lat="42.438145000" lon="-2.508917000">
        <ele>451.60</ele>
        <time>2016-10-29T05:29:22Z</time>
      </trkpt>
      <trkpt lat="42.438133000" lon="-2.508986000">
        <ele>451.50</ele>
        <time>2016-10-29T05:29:23Z</time>
      </trkpt>
      <trkpt lat="42.438123000" lon="-2.509054000">
        <ele>451.50</ele>
        <time>2016-10-29T05:29:24Z</time>
      </trkpt>
      <trkpt lat="42.438110000" lon="-2.509126000">
        <ele>451.40</ele>
        <time>2016-10-29T05:29:25Z</time>
      </trkpt>
      <trkpt lat="42.438096000" lon="-2.509195000">
        <ele>451.40</ele>
        <time>2016-10-29T05:29:26Z</time>
      </trkpt>
      <trkpt lat="42.438084000" lon="-2.509266000">
        <ele>451.10</ele>
        <time>2016-10-29T05:29:27Z</time>
      </trkpt>
      <trkpt lat="42.438071000" lon="-2.509339000">
        <ele>450.80</ele>
        <time>2016-10-29T05:29:28Z</time>
      </trkpt>
      <trkpt lat="42.438056000" lon="-2.509410000">
        <ele>450.60</ele>
        <time>2016-10-29T05:29:29Z</time>
      </trkpt>
      <trkpt lat="42.438044000" lon="-2.509483000">
        <ele>450.40</ele>
        <time>2016-10-29T05:29:30Z</time>
      </trkpt>
      <trkpt lat="42.438032000" lon="-2.509554000">
        <ele>450.30</ele>
        <time>2016-10-29T05:29:31Z</time>
      </trkpt>
      <trkpt lat="42.438019000" lon="-2.509624000">
        <ele>450.30</ele>
        <time>2016-10-29T05:29:32Z</time>
      </trkpt>
      <trkpt lat="42.438006000" lon="-2.509691000">
        <ele>450.00</ele>
        <time>2016-10-29T05:29:33Z</time>
      </trkpt>
      <trkpt lat="42.437995000" lon="-2.509758000">
        <ele>449.90</ele>
        <time>2016-10-29T05:29:34Z</time>
      </trkpt>
      <trkpt lat="42.437987000" lon="-2.509820000">
        <ele>449.60</ele>
        <time>2016-10-29T05:29:35Z</time>
      </trkpt>
      <trkpt lat="42.437980000" lon="-2.509885000">
        <ele>449.40</ele>
        <time>2016-10-29T05:29:36Z</time>
      </trkpt>
      <trkpt lat="42.437977000" lon="-2.509947000">
        <ele>449.20</ele>
        <time>2016-10-29T05:29:37Z</time>
      </trkpt>
      <trkpt lat="42.437976000" lon="-2.510009000">
        <ele>449.00</ele>
        <time>2016-10-29T05:29:38Z</time>
      </trkpt>
      <trkpt lat="42.437975000" lon="-2.510078000">
        <ele>448.90</ele>
        <time>2016-10-29T05:29:39Z</time>
      </trkpt>
      <trkpt lat="42.437978000" lon="-2.510141000">
        <ele>448.80</ele>
        <time>2016-10-29T05:29:40Z</time>
      </trkpt>
      <trkpt lat="42.437975000" lon="-2.510194000">
        <ele>448.80</ele>
        <time>2016-10-29T05:29:41Z</time>
      </trkpt>
      <trkpt lat="42.437959000" lon="-2.510243000">
        <ele>448.80</ele>
        <time>2016-10-29T05:29:42Z</time>
      </trkpt>
      <trkpt lat="42.437929000" lon="-2.510271000">
        <ele>448.80</ele>
        <time>2016-10-29T05:29:43Z</time>
      </trkpt>
      <trkpt lat="42.437898000" lon="-2.510288000">
        <ele>448.80</ele>
        <time>2016-10-29T05:29:44Z</time>
      </trkpt>
      <trkpt lat="42.437865000" lon="-2.510297000">
        <ele>448.80</ele>
        <time>2016-10-29T05:29:45Z</time>
      </trkpt>
      <trkpt lat="42.437830000" lon="-2.510306000">
        <ele>448.80</ele>
        <time>2016-10-29T05:29:46Z</time>
      </trkpt>
      <trkpt lat="42.437796000" lon="-2.510316000">
        <ele>448.90</ele>
        <time>2016-10-29T05:29:47Z</time>
      </trkpt>
      <trkpt lat="42.437761000" lon="-2.510328000">
        <ele>448.90</ele>
        <time>2016-10-29T05:29:48Z</time>
      </trkpt>
      <trkpt lat="42.437727000" lon="-2.510337000">
        <ele>448.90</ele>
        <time>2016-10-29T05:29:49Z</time>
      </trkpt>
      <trkpt lat="42.437692000" lon="-2.510349000">
        <ele>449.00</ele>
        <time>2016-10-29T05:29:50Z</time>
      </trkpt>
      <trkpt lat="42.437659000" lon="-2.510359000">
        <ele>449.00</ele>
        <time>2016-10-29T05:29:51Z</time>
      </trkpt>
      <trkpt lat="42.437625000" lon="-2.510370000">
        <ele>449.10</ele>
        <time>2016-10-29T05:29:52Z</time>
      </trkpt>
      <trkpt lat="42.437592000" lon="-2.510383000">
        <ele>449.30</ele>
        <time>2016-10-29T05:29:53Z</time>
      </trkpt>
      <trkpt lat="42.437559000" lon="-2.510391000">
        <ele>449.60</ele>
        <time>2016-10-29T05:29:54Z</time>
      </trkpt>
      <trkpt lat="42.437527000" lon="-2.510403000">
        <ele>449.70</ele>
        <time>2016-10-29T05:29:55Z</time>
      </trkpt>
      <trkpt lat="42.437494000" lon="-2.510410000">
        <ele>449.80</ele>
        <time>2016-10-29T05:29:56Z</time>
      </trkpt>
      <trkpt lat="42.437461000" lon="-2.510418000">
        <ele>449.90</ele>
        <time>2016-10-29T05:29:57Z</time>
      </trkpt>
      <trkpt lat="42.437430000" lon="-2.510430000">
        <ele>449.90</ele>
        <time>2016-10-29T05:29:58Z</time>
      </trkpt>
      <trkpt lat="42.437397000" lon="-2.510441000">
        <ele>449.90</ele>
        <time>2016-10-29T05:29:59Z</time>
      </trkpt>
      <trkpt lat="42.437366000" lon="-2.510452000">
        <ele>449.90</ele>
        <time>2016-10-29T05:30:00Z</time>
      </trkpt>
      <trkpt lat="42.437336000" lon="-2.510462000">
        <ele>450.10</ele>
        <time>2016-10-29T05:30:01Z</time>
      </trkpt>
      <trkpt lat="42.437303000" lon="-2.510475000">
        <ele>450.30</ele>
        <time>2016-10-29T05:30:02Z</time>
      </trkpt>
      <trkpt lat="42.437271000" lon="-2.510489000">
        <ele>450.40</ele>
        <time>2016-10-29T05:30:03Z</time>
      </trkpt>
      <trkpt lat="42.437241000" lon="-2.510504000">
        <ele>450.50</ele>
        <time>2016-10-29T05:30:04Z</time>
      </trkpt>
      <trkpt lat="42.437212000" lon="-2.510519000">
        <ele>450.50</ele>
        <time>2016-10-29T05:30:05Z</time>
      </trkpt>
      <trkpt lat="42.437183000" lon="-2.510533000">
        <ele>450.60</ele>
        <time>2016-10-29T05:30:06Z</time>
      </trkpt>
      <trkpt lat="42.437153000" lon="-2.510549000">
        <ele>450.60</ele>
        <time>2016-10-29T05:30:07Z</time>
      </trkpt>
      <trkpt lat="42.437092000" lon="-2.510577000">
        <ele>450.70</ele>
        <time>2016-10-29T05:30:09Z</time>
      </trkpt>
      <trkpt lat="42.437062000" lon="-2.510599000">
        <ele>450.70</ele>
        <time>2016-10-29T05:30:10Z</time>
      </trkpt>
      <trkpt lat="42.437031000" lon="-2.510611000">
        <ele>450.90</ele>
        <time>2016-10-29T05:30:11Z</time>
      </trkpt>
      <trkpt lat="42.437001000" lon="-2.510628000">
        <ele>451.00</ele>
        <time>2016-10-29T05:30:12Z</time>
      </trkpt>
      <trkpt lat="42.436970000" lon="-2.510640000">
        <ele>451.10</ele>
        <time>2016-10-29T05:30:13Z</time>
      </trkpt>
      <trkpt lat="42.436940000" lon="-2.510653000">
        <ele>451.20</ele>
        <time>2016-10-29T05:30:14Z</time>
      </trkpt>
      <trkpt lat="42.436910000" lon="-2.510663000">
        <ele>451.30</ele>
        <time>2016-10-29T05:30:15Z</time>
      </trkpt>
      <trkpt lat="42.436881000" lon="-2.510677000">
        <ele>451.30</ele>
        <time>2016-10-29T05:30:16Z</time>
      </trkpt>
      <trkpt lat="42.436850000" lon="-2.510688000">
        <ele>451.50</ele>
        <time>2016-10-29T05:30:17Z</time>
      </trkpt>
      <trkpt lat="42.436820000" lon="-2.510696000">
        <ele>451.60</ele>
        <time>2016-10-29T05:30:18Z</time>
      </trkpt>
      <trkpt lat="42.436789000" lon="-2.510708000">
        <ele>451.70</ele>
        <time>2016-10-29T05:30:19Z</time>
      </trkpt>
      <trkpt lat="42.436759000" lon="-2.510717000">
        <ele>451.80</ele>
        <time>2016-10-29T05:30:20Z</time>
      </trkpt>
      <trkpt lat="42.436728000" lon="-2.510729000">
        <ele>452.00</ele>
        <time>2016-10-29T05:30:21Z</time>
      </trkpt>
      <trkpt lat="42.436697000" lon="-2.510740000">
        <ele>452.10</ele>
        <time>2016-10-29T05:30:22Z</time>
      </trkpt>
      <trkpt lat="42.436667000" lon="-2.510749000">
        <ele>452.20</ele>
        <time>2016-10-29T05:30:23Z</time>
      </trkpt>
      <trkpt lat="42.436639000" lon="-2.510759000">
        <ele>452.20</ele>
        <time>2016-10-29T05:30:24Z</time>
      </trkpt>
      <trkpt lat="42.436611000" lon="-2.510767000">
        <ele>452.40</ele>
        <time>2016-10-29T05:30:25Z</time>
      </trkpt>
      <trkpt lat="42.436583000" lon="-2.510777000">
        <ele>452.50</ele>
        <time>2016-10-29T05:30:26Z</time>
      </trkpt>
      <trkpt lat="42.436554000" lon="-2.510789000">
        <ele>452.60</ele>
        <time>2016-10-29T05:30:27Z</time>
      </trkpt>
      <trkpt lat="42.436526000" lon="-2.510801000">
        <ele>452.70</ele>
        <time>2016-10-29T05:30:28Z</time>
      </trkpt>
      <trkpt lat="42.436498000" lon="-2.510810000">
        <ele>452.80</ele>
        <time>2016-10-29T05:30:29Z</time>
      </trkpt>
      <trkpt lat="42.436467000" lon="-2.510819000">
        <ele>452.80</ele>
        <time>2016-10-29T05:30:30Z</time>
      </trkpt>
      <trkpt lat="42.436437000" lon="-2.510829000">
        <ele>453.00</ele>
        <time>2016-10-29T05:30:31Z</time>
      </trkpt>
      <trkpt lat="42.436406000" lon="-2.510841000">
        <ele>453.10</ele>
        <time>2016-10-29T05:30:32Z</time>
      </trkpt>
      <trkpt lat="42.436376000" lon="-2.510850000">
        <ele>453.30</ele>
        <time>2016-10-29T05:30:33Z</time>
      </trkpt>
      <trkpt lat="42.436345000" lon="-2.510862000">
        <ele>453.40</ele>
        <time>2016-10-29T05:30:34Z</time>
      </trkpt>
      <trkpt lat="42.436315000" lon="-2.510872000">
        <ele>453.50</ele>
        <time>2016-10-29T05:30:35Z</time>
      </trkpt>
      <trkpt lat="42.436286000" lon="-2.510882000">
        <ele>453.60</ele>
        <time>2016-10-29T05:30:36Z</time>
      </trkpt>
      <trkpt lat="42.436254000" lon="-2.510895000">
        <ele>453.60</ele>
        <time>2016-10-29T05:30:37Z</time>
      </trkpt>
      <trkpt lat="42.436221000" lon="-2.510908000">
        <ele>453.70</ele>
        <time>2016-10-29T05:30:38Z</time>
      </trkpt>
      <trkpt lat="42.436190000" lon="-2.510919000">
        <ele>453.70</ele>
        <time>2016-10-29T05:30:39Z</time>
      </trkpt>
      <trkpt lat="42.436159000" lon="-2.510930000">
        <ele>453.70</ele>
        <time>2016-10-29T05:30:40Z</time>
      </trkpt>
      <trkpt lat="42.436128000" lon="-2.510939000">
        <ele>454.00</ele>
        <time>2016-10-29T05:30:41Z</time>
      </trkpt>
      <trkpt lat="42.436100000" lon="-2.510947000">
        <ele>454.20</ele>
        <time>2016-10-29T05:30:42Z</time>
      </trkpt>
      <trkpt lat="42.436072000" lon="-2.510954000">
        <ele>454.50</ele>
        <time>2016-10-29T05:30:43Z</time>
      </trkpt>
      <trkpt lat="42.436046000" lon="-2.510963000">
        <ele>454.80</ele>
        <time>2016-10-29T05:30:44Z</time>
      </trkpt>
      <trkpt lat="42.436022000" lon="-2.510981000">
        <ele>455.00</ele>
        <time>2016-10-29T05:30:45Z</time>
      </trkpt>
      <trkpt lat="42.436007000" lon="-2.511009000">
        <ele>455.20</ele>
        <time>2016-10-29T05:30:46Z</time>
      </trkpt>
      <trkpt lat="42.436001000" lon="-2.511040000">
        <ele>455.40</ele>
        <time>2016-10-29T05:30:47Z</time>
      </trkpt>
      <trkpt lat="42.436000000" lon="-2.511073000">
        <ele>455.60</ele>
        <time>2016-10-29T05:30:48Z</time>
      </trkpt>
      <trkpt lat="42.436006000" lon="-2.511104000">
        <ele>455.70</ele>
        <time>2016-10-29T05:30:49Z</time>
      </trkpt>
      <trkpt lat="42.436015000" lon="-2.511133000">
        <ele>455.80</ele>
        <time>2016-10-29T05:30:50Z</time>
      </trkpt>
      <trkpt lat="42.436026000" lon="-2.511164000">
        <ele>455.90</ele>
        <time>2016-10-29T05:30:51Z</time>
      </trkpt>
      <trkpt lat="42.436040000" lon="-2.511192000">
        <ele>456.00</ele>
        <time>2016-10-29T05:30:52Z</time>
      </trkpt>
      <trkpt lat="42.436051000" lon="-2.511227000">
        <ele>456.10</ele>
        <time>2016-10-29T05:30:53Z</time>
      </trkpt>
      <trkpt lat="42.436061000" lon="-2.511263000">
        <ele>456.10</ele>
        <time>2016-10-29T05:30:54Z</time>
      </trkpt>
      <trkpt lat="42.436069000" lon="-2.511298000">
        <ele>456.20</ele>
        <time>2016-10-29T05:30:55Z</time>
      </trkpt>
      <trkpt lat="42.436079000" lon="-2.511330000">
        <ele>456.30</ele>
        <time>2016-10-29T05:30:56Z</time>
      </trkpt>
      <trkpt lat="42.436084000" lon="-2.511367000">
        <ele>456.40</ele>
        <time>2016-10-29T05:30:57Z</time>
      </trkpt>
      <trkpt lat="42.436087000" lon="-2.511401000">
        <ele>456.40</ele>
        <time>2016-10-29T05:30:58Z</time>
      </trkpt>
      <trkpt lat="42.436094000" lon="-2.511434000">
        <ele>456.40</ele>
        <time>2016-10-29T05:30:59Z</time>
      </trkpt>
      <trkpt lat="42.436104000" lon="-2.511467000">
        <ele>456.50</ele>
        <time>2016-10-29T05:31:00Z</time>
      </trkpt>
      <trkpt lat="42.436111000" lon="-2.511502000">
        <ele>456.70</ele>
        <time>2016-10-29T05:31:01Z</time>
      </trkpt>
      <trkpt lat="42.436122000" lon="-2.511532000">
        <ele>456.80</ele>
        <time>2016-10-29T05:31:02Z</time>
      </trkpt>
      <trkpt lat="42.436130000" lon="-2.511565000">
        <ele>457.00</ele>
        <time>2016-10-29T05:31:03Z</time>
      </trkpt>
      <trkpt lat="42.436137000" lon="-2.511603000">
        <ele>457.10</ele>
        <time>2016-10-29T05:31:04Z</time>
      </trkpt>
      <trkpt lat="42.436141000" lon="-2.511643000">
        <ele>457.30</ele>
        <time>2016-10-29T05:31:05Z</time>
      </trkpt>
      <trkpt lat="42.436147000" lon="-2.511679000">
        <ele>457.40</ele>
        <time>2016-10-29T05:31:06Z</time>
      </trkpt>
      <trkpt lat="42.436154000" lon="-2.511717000">
        <ele>457.50</ele>
        <time>2016-10-29T05:31:07Z</time>
      </trkpt>
      <trkpt lat="42.436162000" lon="-2.511752000">
        <ele>457.50</ele>
        <time>2016-10-29T05:31:08Z</time>
      </trkpt>
      <trkpt lat="42.436179000" lon="-2.511828000">
        <ele>457.60</ele>
        <time>2016-10-29T05:31:10Z</time>
      </trkpt>
      <trkpt lat="42.436187000" lon="-2.511866000">
        <ele>457.60</ele>
        <time>2016-10-29T05:31:11Z</time>
      </trkpt>
      <trkpt lat="42.436196000" lon="-2.511907000">
        <ele>457.60</ele>
        <time>2016-10-29T05:31:12Z</time>
      </trkpt>
      <trkpt lat="42.436205000" lon="-2.511951000">
        <ele>457.50</ele>
        <time>2016-10-29T05:31:13Z</time>
      </trkpt>
      <trkpt lat="42.436217000" lon="-2.511996000">
        <ele>457.50</ele>
        <time>2016-10-29T05:31:14Z</time>
      </trkpt>
      <trkpt lat="42.436231000" lon="-2.512041000">
        <ele>457.40</ele>
        <time>2016-10-29T05:31:15Z</time>
      </trkpt>
      <trkpt lat="42.436245000" lon="-2.512087000">
        <ele>457.40</ele>
        <time>2016-10-29T05:31:16Z</time>
      </trkpt>
      <trkpt lat="42.436258000" lon="-2.512139000">
        <ele>457.10</ele>
        <time>2016-10-29T05:31:17Z</time>
      </trkpt>
      <trkpt lat="42.436270000" lon="-2.512193000">
        <ele>456.90</ele>
        <time>2016-10-29T05:31:18Z</time>
      </trkpt>
      <trkpt lat="42.436284000" lon="-2.512247000">
        <ele>456.70</ele>
        <time>2016-10-29T05:31:19Z</time>
      </trkpt>
      <trkpt lat="42.436297000" lon="-2.512302000">
        <ele>456.60</ele>
        <time>2016-10-29T05:31:20Z</time>
      </trkpt>
      <trkpt lat="42.436311000" lon="-2.512358000">
        <ele>456.50</ele>
        <time>2016-10-29T05:31:21Z</time>
      </trkpt>
      <trkpt lat="42.436324000" lon="-2.512416000">
        <ele>456.50</ele>
        <time>2016-10-29T05:31:22Z</time>
      </trkpt>
      <trkpt lat="42.436339000" lon="-2.512478000">
        <ele>456.30</ele>
        <time>2016-10-29T05:31:23Z</time>
      </trkpt>
      <trkpt lat="42.436352000" lon="-2.512543000">
        <ele>456.20</ele>
        <time>2016-10-29T05:31:24Z</time>
      </trkpt>
      <trkpt lat="42.436365000" lon="-2.512607000">
        <ele>456.10</ele>
        <time>2016-10-29T05:31:25Z</time>
      </trkpt>
      <trkpt lat="42.436383000" lon="-2.512669000">
        <ele>456.00</ele>
        <time>2016-10-29T05:31:26Z</time>
      </trkpt>
      <trkpt lat="42.436394000" lon="-2.512734000">
        <ele>455.80</ele>
        <time>2016-10-29T05:31:27Z</time>
      </trkpt>
      <trkpt lat="42.436415000" lon="-2.512802000">
        <ele>455.70</ele>
        <time>2016-10-29T05:31:28Z</time>
      </trkpt>
      <trkpt lat="42.436439000" lon="-2.512868000">
        <ele>455.60</ele>
        <time>2016-10-29T05:31:29Z</time>
      </trkpt>
      <trkpt lat="42.436447000" lon="-2.512931000">
        <ele>455.50</ele>
        <time>2016-10-29T05:31:30Z</time>
      </trkpt>
      <trkpt lat="42.436455000" lon="-2.512992000">
        <ele>455.50</ele>
        <time>2016-10-29T05:31:31Z</time>
      </trkpt>
      <trkpt lat="42.436469000" lon="-2.513049000">
        <ele>455.50</ele>
        <time>2016-10-29T05:31:32Z</time>
      </trkpt>
      <trkpt lat="42.436478000" lon="-2.513108000">
        <ele>455.40</ele>
        <time>2016-10-29T05:31:33Z</time>
      </trkpt>
      <trkpt lat="42.436492000" lon="-2.513161000">
        <ele>455.30</ele>
        <time>2016-10-29T05:31:34Z</time>
      </trkpt>
      <trkpt lat="42.436505000" lon="-2.513217000">
        <ele>455.20</ele>
        <time>2016-10-29T05:31:35Z</time>
      </trkpt>
      <trkpt lat="42.436517000" lon="-2.513267000">
        <ele>455.20</ele>
        <time>2016-10-29T05:31:36Z</time>
      </trkpt>
      <trkpt lat="42.436530000" lon="-2.513314000">
        <ele>455.10</ele>
        <time>2016-10-29T05:31:37Z</time>
      </trkpt>
      <trkpt lat="42.436545000" lon="-2.513359000">
        <ele>455.00</ele>
        <time>2016-10-29T05:31:38Z</time>
      </trkpt>
      <trkpt lat="42.436562000" lon="-2.513402000">
        <ele>455.00</ele>
        <time>2016-10-29T05:31:39Z</time>
      </trkpt>
      <trkpt lat="42.436579000" lon="-2.513445000">
        <ele>454.90</ele>
        <time>2016-10-29T05:31:40Z</time>
      </trkpt>
      <trkpt lat="42.436599000" lon="-2.513486000">
        <ele>454.80</ele>
        <time>2016-10-29T05:31:41Z</time>
      </trkpt>
      <trkpt lat="42.436618000" lon="-2.513528000">
        <ele>454.80</ele>
        <time>2016-10-29T05:31:42Z</time>
      </trkpt>
      <trkpt lat="42.436637000" lon="-2.513568000">
        <ele>454.80</ele>
        <time>2016-10-29T05:31:43Z</time>
      </trkpt>
      <trkpt lat="42.436655000" lon="-2.513608000">
        <ele>454.80</ele>
        <time>2016-10-29T05:31:44Z</time>
      </trkpt>
      <trkpt lat="42.436673000" lon="-2.513649000">
        <ele>454.80</ele>
        <time>2016-10-29T05:31:45Z</time>
      </trkpt>
      <trkpt lat="42.436690000" lon="-2.513691000">
        <ele>454.80</ele>
        <time>2016-10-29T05:31:46Z</time>
      </trkpt>
      <trkpt lat="42.436708000" lon="-2.513732000">
        <ele>454.80</ele>
        <time>2016-10-29T05:31:47Z</time>
      </trkpt>
      <trkpt lat="42.436726000" lon="-2.513772000">
        <ele>454.80</ele>
        <time>2016-10-29T05:31:48Z</time>
      </trkpt>
      <trkpt lat="42.436744000" lon="-2.513810000">
        <ele>455.00</ele>
        <time>2016-10-29T05:31:49Z</time>
      </trkpt>
      <trkpt lat="42.436762000" lon="-2.513852000">
        <ele>455.20</ele>
        <time>2016-10-29T05:31:50Z</time>
      </trkpt>
      <trkpt lat="42.436779000" lon="-2.513892000">
        <ele>455.30</ele>
        <time>2016-10-29T05:31:51Z</time>
      </trkpt>
      <trkpt lat="42.436797000" lon="-2.513929000">
        <ele>455.50</ele>
        <time>2016-10-29T05:31:52Z</time>
      </trkpt>
      <trkpt lat="42.436813000" lon="-2.513968000">
        <ele>455.60</ele>
        <time>2016-10-29T05:31:53Z</time>
      </trkpt>
      <trkpt lat="42.436830000" lon="-2.514009000">
        <ele>455.60</ele>
        <time>2016-10-29T05:31:54Z</time>
      </trkpt>
      <trkpt lat="42.436846000" lon="-2.514050000">
        <ele>455.70</ele>
        <time>2016-10-29T05:31:55Z</time>
      </trkpt>
      <trkpt lat="42.436864000" lon="-2.514090000">
        <ele>455.70</ele>
        <time>2016-10-29T05:31:56Z</time>
      </trkpt>
      <trkpt lat="42.436881000" lon="-2.514130000">
        <ele>455.80</ele>
        <time>2016-10-29T05:31:57Z</time>
      </trkpt>
      <trkpt lat="42.436897000" lon="-2.514169000">
        <ele>455.80</ele>
        <time>2016-10-29T05:31:58Z</time>
      </trkpt>
      <trkpt lat="42.436914000" lon="-2.514206000">
        <ele>455.90</ele>
        <time>2016-10-29T05:31:59Z</time>
      </trkpt>
      <trkpt lat="42.436935000" lon="-2.514243000">
        <ele>455.90</ele>
        <time>2016-10-29T05:32:00Z</time>
      </trkpt>
      <trkpt lat="42.436951000" lon="-2.514280000">
        <ele>456.00</ele>
        <time>2016-10-29T05:32:01Z</time>
      </trkpt>
      <trkpt lat="42.436966000" lon="-2.514318000">
        <ele>456.10</ele>
        <time>2016-10-29T05:32:02Z</time>
      </trkpt>
      <trkpt lat="42.436981000" lon="-2.514353000">
        <ele>456.20</ele>
        <time>2016-10-29T05:32:03Z</time>
      </trkpt>
      <trkpt lat="42.436997000" lon="-2.514388000">
        <ele>456.20</ele>
        <time>2016-10-29T05:32:04Z</time>
      </trkpt>
      <trkpt lat="42.437014000" lon="-2.514422000">
        <ele>456.30</ele>
        <time>2016-10-29T05:32:05Z</time>
      </trkpt>
      <trkpt lat="42.437029000" lon="-2.514457000">
        <ele>456.40</ele>
        <time>2016-10-29T05:32:06Z</time>
      </trkpt>
      <trkpt lat="42.437045000" lon="-2.514492000">
        <ele>456.50</ele>
        <time>2016-10-29T05:32:07Z</time>
      </trkpt>
      <trkpt lat="42.437060000" lon="-2.514524000">
        <ele>456.50</ele>
        <time>2016-10-29T05:32:08Z</time>
      </trkpt>
      <trkpt lat="42.437075000" lon="-2.514551000">
        <ele>456.60</ele>
        <time>2016-10-29T05:32:09Z</time>
      </trkpt>
      <trkpt lat="42.437105000" lon="-2.514618000">
        <ele>456.90</ele>
        <time>2016-10-29T05:32:11Z</time>
      </trkpt>
      <trkpt lat="42.437121000" lon="-2.514652000">
        <ele>457.10</ele>
        <time>2016-10-29T05:32:12Z</time>
      </trkpt>
      <trkpt lat="42.437137000" lon="-2.514683000">
        <ele>457.30</ele>
        <time>2016-10-29T05:32:13Z</time>
      </trkpt>
      <trkpt lat="42.437158000" lon="-2.514705000">
        <ele>457.40</ele>
        <time>2016-10-29T05:32:14Z</time>
      </trkpt>
      <trkpt lat="42.437179000" lon="-2.514726000">
        <ele>457.50</ele>
        <time>2016-10-29T05:32:15Z</time>
      </trkpt>
      <trkpt lat="42.437206000" lon="-2.514739000">
        <ele>457.50</ele>
        <time>2016-10-29T05:32:16Z</time>
      </trkpt>
      <trkpt lat="42.437233000" lon="-2.514742000">
        <ele>457.60</ele>
        <time>2016-10-29T05:32:17Z</time>
      </trkpt>
      <trkpt lat="42.437261000" lon="-2.514748000">
        <ele>457.60</ele>
        <time>2016-10-29T05:32:18Z</time>
      </trkpt>
      <trkpt lat="42.437287000" lon="-2.514749000">
        <ele>457.90</ele>
        <time>2016-10-29T05:32:19Z</time>
      </trkpt>
      <trkpt lat="42.437312000" lon="-2.514746000">
        <ele>458.10</ele>
        <time>2016-10-29T05:32:20Z</time>
      </trkpt>
      <trkpt lat="42.437338000" lon="-2.514742000">
        <ele>458.70</ele>
        <time>2016-10-29T05:32:21Z</time>
      </trkpt>
      <trkpt lat="42.437364000" lon="-2.514737000">
        <ele>459.10</ele>
        <time>2016-10-29T05:32:22Z</time>
      </trkpt>
      <trkpt lat="42.437386000" lon="-2.514731000">
        <ele>459.50</ele>
        <time>2016-10-29T05:32:23Z</time>
      </trkpt>
      <trkpt lat="42.437411000" lon="-2.514719000">
        <ele>459.80</ele>
        <time>2016-10-29T05:32:24Z</time>
      </trkpt>
      <trkpt lat="42.437434000" lon="-2.514704000">
        <ele>460.00</ele>
        <time>2016-10-29T05:32:25Z</time>
      </trkpt>
      <trkpt lat="42.437456000" lon="-2.514689000">
        <ele>460.10</ele>
        <time>2016-10-29T05:32:26Z</time>
      </trkpt>
      <trkpt lat="42.437478000" lon="-2.514668000">
        <ele>460.20</ele>
        <time>2016-10-29T05:32:27Z</time>
      </trkpt>
      <trkpt lat="42.437500000" lon="-2.514649000">
        <ele>460.30</ele>
        <time>2016-10-29T05:32:28Z</time>
      </trkpt>
      <trkpt lat="42.437522000" lon="-2.514631000">
        <ele>460.40</ele>
        <time>2016-10-29T05:32:29Z</time>
      </trkpt>
      <trkpt lat="42.437540000" lon="-2.514607000">
        <ele>460.40</ele>
        <time>2016-10-29T05:32:30Z</time>
      </trkpt>
      <trkpt lat="42.437562000" lon="-2.514586000">
        <ele>460.50</ele>
        <time>2016-10-29T05:32:31Z</time>
      </trkpt>
      <trkpt lat="42.437584000" lon="-2.514562000">
        <ele>460.50</ele>
        <time>2016-10-29T05:32:32Z</time>
      </trkpt>
      <trkpt lat="42.437605000" lon="-2.514538000">
        <ele>460.50</ele>
        <time>2016-10-29T05:32:33Z</time>
      </trkpt>
      <trkpt lat="42.437625000" lon="-2.514511000">
        <ele>460.60</ele>
        <time>2016-10-29T05:32:34Z</time>
      </trkpt>
      <trkpt lat="42.437646000" lon="-2.514489000">
        <ele>460.70</ele>
        <time>2016-10-29T05:32:35Z</time>
      </trkpt>
      <trkpt lat="42.437664000" lon="-2.514463000">
        <ele>460.70</ele>
        <time>2016-10-29T05:32:36Z</time>
      </trkpt>
      <trkpt lat="42.437684000" lon="-2.514448000">
        <ele>460.80</ele>
        <time>2016-10-29T05:32:37Z</time>
      </trkpt>
      <trkpt lat="42.437705000" lon="-2.514452000">
        <ele>460.80</ele>
        <time>2016-10-29T05:32:38Z</time>
      </trkpt>
      <trkpt lat="42.437716000" lon="-2.514468000">
        <ele>460.80</ele>
        <time>2016-10-29T05:32:39Z</time>
      </trkpt>
      <trkpt lat="42.437715000" lon="-2.514492000">
        <ele>460.80</ele>
        <time>2016-10-29T05:32:40Z</time>
      </trkpt>
      <trkpt lat="42.437706000" lon="-2.514516000">
        <ele>460.90</ele>
        <time>2016-10-29T05:32:41Z</time>
      </trkpt>
      <trkpt lat="42.437694000" lon="-2.514541000">
        <ele>460.90</ele>
        <time>2016-10-29T05:32:42Z</time>
      </trkpt>
      <trkpt lat="42.437680000" lon="-2.514561000">
        <ele>461.00</ele>
        <time>2016-10-29T05:32:43Z</time>
      </trkpt>
      <trkpt lat="42.437665000" lon="-2.514582000">
        <ele>461.10</ele>
        <time>2016-10-29T05:32:44Z</time>
      </trkpt>
      <trkpt lat="42.437650000" lon="-2.514603000">
        <ele>461.30</ele>
        <time>2016-10-29T05:32:45Z</time>
      </trkpt>
      <trkpt lat="42.437637000" lon="-2.514625000">
        <ele>461.50</ele>
        <time>2016-10-29T05:32:46Z</time>
      </trkpt>
      <trkpt lat="42.437624000" lon="-2.514649000">
        <ele>461.60</ele>
        <time>2016-10-29T05:32:47Z</time>
      </trkpt>
      <trkpt lat="42.437612000" lon="-2.514670000">
        <ele>461.70</ele>
        <time>2016-10-29T05:32:48Z</time>
      </trkpt>
      <trkpt lat="42.437599000" lon="-2.514691000">
        <ele>461.80</ele>
        <time>2016-10-29T05:32:49Z</time>
      </trkpt>
      <trkpt lat="42.437586000" lon="-2.514716000">
        <ele>461.90</ele>
        <time>2016-10-29T05:32:50Z</time>
      </trkpt>
      <trkpt lat="42.437573000" lon="-2.514742000">
        <ele>462.10</ele>
        <time>2016-10-29T05:32:51Z</time>
      </trkpt>
      <trkpt lat="42.437563000" lon="-2.514766000">
        <ele>462.20</ele>
        <time>2016-10-29T05:32:52Z</time>
      </trkpt>
      <trkpt lat="42.437553000" lon="-2.514792000">
        <ele>462.50</ele>
        <time>2016-10-29T05:32:53Z</time>
      </trkpt>
      <trkpt lat="42.437541000" lon="-2.514818000">
        <ele>462.70</ele>
        <time>2016-10-29T05:32:54Z</time>
      </trkpt>
      <trkpt lat="42.437530000" lon="-2.514841000">
        <ele>462.90</ele>
        <time>2016-10-29T05:32:55Z</time>
      </trkpt>
      <trkpt lat="42.437518000" lon="-2.514866000">
        <ele>463.10</ele>
        <time>2016-10-29T05:32:56Z</time>
      </trkpt>
      <trkpt lat="42.437506000" lon="-2.514893000">
        <ele>463.40</ele>
        <time>2016-10-29T05:32:57Z</time>
      </trkpt>
      <trkpt lat="42.437493000" lon="-2.514918000">
        <ele>463.60</ele>
        <time>2016-10-29T05:32:58Z</time>
      </trkpt>
      <trkpt lat="42.437481000" lon="-2.514941000">
        <ele>463.80</ele>
        <time>2016-10-29T05:32:59Z</time>
      </trkpt>
      <trkpt lat="42.437469000" lon="-2.514968000">
        <ele>463.90</ele>
        <time>2016-10-29T05:33:00Z</time>
      </trkpt>
      <trkpt lat="42.437459000" lon="-2.514993000">
        <ele>464.20</ele>
        <time>2016-10-29T05:33:01Z</time>
      </trkpt>
      <trkpt lat="42.437451000" lon="-2.515021000">
        <ele>464.50</ele>
        <time>2016-10-29T05:33:02Z</time>
      </trkpt>
      <trkpt lat="42.437443000" lon="-2.515046000">
        <ele>464.70</ele>
        <time>2016-10-29T05:33:03Z</time>
      </trkpt>
      <trkpt lat="42.437434000" lon="-2.515074000">
        <ele>464.90</ele>
        <time>2016-10-29T05:33:04Z</time>
      </trkpt>
      <trkpt lat="42.437425000" lon="-2.515096000">
        <ele>465.20</ele>
        <time>2016-10-29T05:33:05Z</time>
      </trkpt>
      <trkpt lat="42.437415000" lon="-2.515127000">
        <ele>465.40</ele>
        <time>2016-10-29T05:33:06Z</time>
      </trkpt>
      <trkpt lat="42.437405000" lon="-2.515153000">
        <ele>465.70</ele>
        <time>2016-10-29T05:33:07Z</time>
      </trkpt>
      <trkpt lat="42.437393000" lon="-2.515181000">
        <ele>465.90</ele>
        <time>2016-10-29T05:33:08Z</time>
      </trkpt>
      <trkpt lat="42.437380000" lon="-2.515209000">
        <ele>466.10</ele>
        <time>2016-10-29T05:33:09Z</time>
      </trkpt>
      <trkpt lat="42.437367000" lon="-2.515237000">
        <ele>466.30</ele>
        <time>2016-10-29T05:33:10Z</time>
      </trkpt>
      <trkpt lat="42.437337000" lon="-2.515287000">
        <ele>466.80</ele>
        <time>2016-10-29T05:33:12Z</time>
      </trkpt>
      <trkpt lat="42.437322000" lon="-2.515306000">
        <ele>467.00</ele>
        <time>2016-10-29T05:33:13Z</time>
      </trkpt>
      <trkpt lat="42.437309000" lon="-2.515328000">
        <ele>467.10</ele>
        <time>2016-10-29T05:33:14Z</time>
      </trkpt>
      <trkpt lat="42.437295000" lon="-2.515350000">
        <ele>467.50</ele>
        <time>2016-10-29T05:33:15Z</time>
      </trkpt>
      <trkpt lat="42.437285000" lon="-2.515371000">
        <ele>467.70</ele>
        <time>2016-10-29T05:33:16Z</time>
      </trkpt>
      <trkpt lat="42.437271000" lon="-2.515393000">
        <ele>468.00</ele>
        <time>2016-10-29T05:33:17Z</time>
      </trkpt>
      <trkpt lat="42.437257000" lon="-2.515412000">
        <ele>468.20</ele>
        <time>2016-10-29T05:33:18Z</time>
      </trkpt>
      <trkpt lat="42.437240000" lon="-2.515429000">
        <ele>468.40</ele>
        <time>2016-10-29T05:33:19Z</time>
      </trkpt>
      <trkpt lat="42.437226000" lon="-2.515446000">
        <ele>468.60</ele>
        <time>2016-10-29T05:33:20Z</time>
      </trkpt>
      <trkpt lat="42.437210000" lon="-2.515456000">
        <ele>468.90</ele>
        <time>2016-10-29T05:33:21Z</time>
      </trkpt>
      <trkpt lat="42.437194000" lon="-2.515470000">
        <ele>469.20</ele>
        <time>2016-10-29T05:33:22Z</time>
      </trkpt>
      <trkpt lat="42.437178000" lon="-2.515488000">
        <ele>469.40</ele>
        <time>2016-10-29T05:33:23Z</time>
      </trkpt>
      <trkpt lat="42.437164000" lon="-2.515506000">
        <ele>469.60</ele>
        <time>2016-10-29T05:33:24Z</time>
      </trkpt>
      <trkpt lat="42.437151000" lon="-2.515520000">
        <ele>469.70</ele>
        <time>2016-10-29T05:33:25Z</time>
      </trkpt>
      <trkpt lat="42.437137000" lon="-2.515536000">
        <ele>469.80</ele>
        <time>2016-10-29T05:33:26Z</time>
      </trkpt>
      <trkpt lat="42.437124000" lon="-2.515553000">
        <ele>470.10</ele>
        <time>2016-10-29T05:33:27Z</time>
      </trkpt>
      <trkpt lat="42.437107000" lon="-2.515565000">
        <ele>470.30</ele>
        <time>2016-10-29T05:33:28Z</time>
      </trkpt>
      <trkpt lat="42.437090000" lon="-2.515578000">
        <ele>470.50</ele>
        <time>2016-10-29T05:33:29Z</time>
      </trkpt>
      <trkpt lat="42.437074000" lon="-2.515592000">
        <ele>470.70</ele>
        <time>2016-10-29T05:33:30Z</time>
      </trkpt>
      <trkpt lat="42.437059000" lon="-2.515605000">
        <ele>471.10</ele>
        <time>2016-10-29T05:33:31Z</time>
      </trkpt>
      <trkpt lat="42.437042000" lon="-2.515623000">
        <ele>471.30</ele>
        <time>2016-10-29T05:33:32Z</time>
      </trkpt>
      <trkpt lat="42.437026000" lon="-2.515637000">
        <ele>471.50</ele>
        <time>2016-10-29T05:33:33Z</time>
      </trkpt>
      <trkpt lat="42.437008000" lon="-2.515657000">
        <ele>471.70</ele>
        <time>2016-10-29T05:33:34Z</time>
      </trkpt>
      <trkpt lat="42.436996000" lon="-2.515671000">
        <ele>471.90</ele>
        <time>2016-10-29T05:33:35Z</time>
      </trkpt>
      <trkpt lat="42.436981000" lon="-2.515682000">
        <ele>472.10</ele>
        <time>2016-10-29T05:33:36Z</time>
      </trkpt>
      <trkpt lat="42.436965000" lon="-2.515695000">
        <ele>472.30</ele>
        <time>2016-10-29T05:33:37Z</time>
      </trkpt>
      <trkpt lat="42.436948000" lon="-2.515707000">
        <ele>472.40</ele>
        <time>2016-10-29T05:33:38Z</time>
      </trkpt>
      <trkpt lat="42.436932000" lon="-2.515722000">
        <ele>472.70</ele>
        <time>2016-10-29T05:33:39Z</time>
      </trkpt>
      <trkpt lat="42.436915000" lon="-2.515735000">
        <ele>472.90</ele>
        <time>2016-10-29T05:33:40Z</time>
      </trkpt>
      <trkpt lat="42.436898000" lon="-2.515747000">
        <ele>473.40</ele>
        <time>2016-10-29T05:33:41Z</time>
      </trkpt>
      <trkpt lat="42.436883000" lon="-2.515760000">
        <ele>473.70</ele>
        <time>2016-10-29T05:33:42Z</time>
      </trkpt>
      <trkpt lat="42.436865000" lon="-2.515773000">
        <ele>474.00</ele>
        <time>2016-10-29T05:33:43Z</time>
      </trkpt>
      <trkpt lat="42.436849000" lon="-2.515788000">
        <ele>474.30</ele>
        <time>2016-10-29T05:33:44Z</time>
      </trkpt>
      <trkpt lat="42.436830000" lon="-2.515805000">
        <ele>474.70</ele>
        <time>2016-10-29T05:33:45Z</time>
      </trkpt>
      <trkpt lat="42.436815000" lon="-2.515818000">
        <ele>475.10</ele>
        <time>2016-10-29T05:33:46Z</time>
      </trkpt>
      <trkpt lat="42.436797000" lon="-2.515832000">
        <ele>475.40</ele>
        <time>2016-10-29T05:33:47Z</time>
      </trkpt>
      <trkpt lat="42.436782000" lon="-2.515848000">
        <ele>475.60</ele>
        <time>2016-10-29T05:33:48Z</time>
      </trkpt>
      <trkpt lat="42.436767000" lon="-2.515867000">
        <ele>475.90</ele>
        <time>2016-10-29T05:33:49Z</time>
      </trkpt>
      <trkpt lat="42.436754000" lon="-2.515887000">
        <ele>476.00</ele>
        <time>2016-10-29T05:33:50Z</time>
      </trkpt>
      <trkpt lat="42.436740000" lon="-2.515908000">
        <ele>476.20</ele>
        <time>2016-10-29T05:33:51Z</time>
      </trkpt>
      <trkpt lat="42.436725000" lon="-2.515928000">
        <ele>476.40</ele>
        <time>2016-10-29T05:33:52Z</time>
      </trkpt>
      <trkpt lat="42.436712000" lon="-2.515949000">
        <ele>476.80</ele>
        <time>2016-10-29T05:33:53Z</time>
      </trkpt>
      <trkpt lat="42.436701000" lon="-2.515971000">
        <ele>477.10</ele>
        <time>2016-10-29T05:33:54Z</time>
      </trkpt>
      <trkpt lat="42.436687000" lon="-2.515988000">
        <ele>477.30</ele>
        <time>2016-10-29T05:33:55Z</time>
      </trkpt>
      <trkpt lat="42.436676000" lon="-2.516007000">
        <ele>477.50</ele>
        <time>2016-10-29T05:33:56Z</time>
      </trkpt>
      <trkpt lat="42.436665000" lon="-2.516024000">
        <ele>477.80</ele>
        <time>2016-10-29T05:33:57Z</time>
      </trkpt>
      <trkpt lat="42.436655000" lon="-2.516041000">
        <ele>478.10</ele>
        <time>2016-10-29T05:33:58Z</time>
      </trkpt>
      <trkpt lat="42.436645000" lon="-2.516060000">
        <ele>478.30</ele>
        <time>2016-10-29T05:33:59Z</time>
      </trkpt>
      <trkpt lat="42.436630000" lon="-2.516078000">
        <ele>478.40</ele>
        <time>2016-10-29T05:34:00Z</time>
      </trkpt>
      <trkpt lat="42.436618000" lon="-2.516098000">
        <ele>478.60</ele>
        <time>2016-10-29T05:34:01Z</time>
      </trkpt>
      <trkpt lat="42.436608000" lon="-2.516117000">
        <ele>478.70</ele>
        <time>2016-10-29T05:34:02Z</time>
      </trkpt>
      <trkpt lat="42.436600000" lon="-2.516139000">
        <ele>479.10</ele>
        <time>2016-10-29T05:34:03Z</time>
      </trkpt>
      <trkpt lat="42.436591000" lon="-2.516159000">
        <ele>479.40</ele>
        <time>2016-10-29T05:34:04Z</time>
      </trkpt>
      <trkpt lat="42.436582000" lon="-2.516181000">
        <ele>479.70</ele>
        <time>2016-10-29T05:34:05Z</time>
      </trkpt>
      <trkpt lat="42.436572000" lon="-2.516205000">
        <ele>479.90</ele>
        <time>2016-10-29T05:34:06Z</time>
      </trkpt>
      <trkpt lat="42.436562000" lon="-2.516227000">
        <ele>480.20</ele>
        <time>2016-10-29T05:34:07Z</time>
      </trkpt>
      <trkpt lat="42.436556000" lon="-2.516254000">
        <ele>480.50</ele>
        <time>2016-10-29T05:34:08Z</time>
      </trkpt>
      <trkpt lat="42.436549000" lon="-2.516280000">
        <ele>480.60</ele>
        <time>2016-10-29T05:34:09Z</time>
      </trkpt>
      <trkpt lat="42.436545000" lon="-2.516308000">
        <ele>480.60</ele>
        <time>2016-10-29T05:34:10Z</time>
      </trkpt>
      <trkpt lat="42.436547000" lon="-2.516330000">
        <ele>480.80</ele>
        <time>2016-10-29T05:34:11Z</time>
      </trkpt>
      <trkpt lat="42.436557000" lon="-2.516380000">
        <ele>481.20</ele>
        <time>2016-10-29T05:34:13Z</time>
      </trkpt>
      <trkpt lat="42.436568000" lon="-2.516403000">
        <ele>481.40</ele>
        <time>2016-10-29T05:34:14Z</time>
      </trkpt>
      <trkpt lat="42.436583000" lon="-2.516422000">
        <ele>481.90</ele>
        <time>2016-10-29T05:34:15Z</time>
      </trkpt>
      <trkpt lat="42.436598000" lon="-2.516440000">
        <ele>482.20</ele>
        <time>2016-10-29T05:34:16Z</time>
      </trkpt>
      <trkpt lat="42.436612000" lon="-2.516456000">
        <ele>482.40</ele>
        <time>2016-10-29T05:34:17Z</time>
      </trkpt>
      <trkpt lat="42.436627000" lon="-2.516474000">
        <ele>482.70</ele>
        <time>2016-10-29T05:34:18Z</time>
      </trkpt>
      <trkpt lat="42.436644000" lon="-2.516487000">
        <ele>482.80</ele>
        <time>2016-10-29T05:34:19Z</time>
      </trkpt>
      <trkpt lat="42.436659000" lon="-2.516504000">
        <ele>482.90</ele>
        <time>2016-10-29T05:34:20Z</time>
      </trkpt>
      <trkpt lat="42.436673000" lon="-2.516522000">
        <ele>483.10</ele>
        <time>2016-10-29T05:34:21Z</time>
      </trkpt>
      <trkpt lat="42.436687000" lon="-2.516541000">
        <ele>483.30</ele>
        <time>2016-10-29T05:34:22Z</time>
      </trkpt>
      <trkpt lat="42.436700000" lon="-2.516559000">
        <ele>483.50</ele>
        <time>2016-10-29T05:34:23Z</time>
      </trkpt>
      <trkpt lat="42.436715000" lon="-2.516576000">
        <ele>483.60</ele>
        <time>2016-10-29T05:34:24Z</time>
      </trkpt>
      <trkpt lat="42.436729000" lon="-2.516595000">
        <ele>483.80</ele>
        <time>2016-10-29T05:34:25Z</time>
      </trkpt>
      <trkpt lat="42.436745000" lon="-2.516616000">
        <ele>483.90</ele>
        <time>2016-10-29T05:34:26Z</time>
      </trkpt>
      <trkpt lat="42.436760000" lon="-2.516635000">
        <ele>484.10</ele>
        <time>2016-10-29T05:34:27Z</time>
      </trkpt>
      <trkpt lat="42.436774000" lon="-2.516657000">
        <ele>484.30</ele>
        <time>2016-10-29T05:34:28Z</time>
      </trkpt>
      <trkpt lat="42.436789000" lon="-2.516680000">
        <ele>484.40</ele>
        <time>2016-10-29T05:34:29Z</time>
      </trkpt>
      <trkpt lat="42.436803000" lon="-2.516702000">
        <ele>484.50</ele>
        <time>2016-10-29T05:34:30Z</time>
      </trkpt>
      <trkpt lat="42.436819000" lon="-2.516725000">
        <ele>484.70</ele>
        <time>2016-10-29T05:34:31Z</time>
      </trkpt>
      <trkpt lat="42.436835000" lon="-2.516747000">
        <ele>484.80</ele>
        <time>2016-10-29T05:34:32Z</time>
      </trkpt>
      <trkpt lat="42.436849000" lon="-2.516771000">
        <ele>484.90</ele>
        <time>2016-10-29T05:34:33Z</time>
      </trkpt>
      <trkpt lat="42.436862000" lon="-2.516796000">
        <ele>485.00</ele>
        <time>2016-10-29T05:34:34Z</time>
      </trkpt>
      <trkpt lat="42.436876000" lon="-2.516826000">
        <ele>485.10</ele>
        <time>2016-10-29T05:34:35Z</time>
      </trkpt>
      <trkpt lat="42.436891000" lon="-2.516851000">
        <ele>485.20</ele>
        <time>2016-10-29T05:34:36Z</time>
      </trkpt>
      <trkpt lat="42.436906000" lon="-2.516877000">
        <ele>485.20</ele>
        <time>2016-10-29T05:34:37Z</time>
      </trkpt>
      <trkpt lat="42.436921000" lon="-2.516901000">
        <ele>485.20</ele>
        <time>2016-10-29T05:34:38Z</time>
      </trkpt>
      <trkpt lat="42.436937000" lon="-2.516926000">
        <ele>485.30</ele>
        <time>2016-10-29T05:34:39Z</time>
      </trkpt>
      <trkpt lat="42.436956000" lon="-2.516947000">
        <ele>485.40</ele>
        <time>2016-10-29T05:34:40Z</time>
      </trkpt>
      <trkpt lat="42.436978000" lon="-2.516969000">
        <ele>485.40</ele>
        <time>2016-10-29T05:34:41Z</time>
      </trkpt>
      <trkpt lat="42.437001000" lon="-2.516998000">
        <ele>485.50</ele>
        <time>2016-10-29T05:34:42Z</time>
      </trkpt>
      <trkpt lat="42.437023000" lon="-2.517026000">
        <ele>485.50</ele>
        <time>2016-10-29T05:34:43Z</time>
      </trkpt>
      <trkpt lat="42.437045000" lon="-2.517053000">
        <ele>485.50</ele>
        <time>2016-10-29T05:34:44Z</time>
      </trkpt>
      <trkpt lat="42.437063000" lon="-2.517086000">
        <ele>485.50</ele>
        <time>2016-10-29T05:34:45Z</time>
      </trkpt>
      <trkpt lat="42.437083000" lon="-2.517115000">
        <ele>485.60</ele>
        <time>2016-10-29T05:34:46Z</time>
      </trkpt>
      <trkpt lat="42.437105000" lon="-2.517142000">
        <ele>485.40</ele>
        <time>2016-10-29T05:34:47Z</time>
      </trkpt>
      <trkpt lat="42.437126000" lon="-2.517166000">
        <ele>485.20</ele>
        <time>2016-10-29T05:34:48Z</time>
      </trkpt>
      <trkpt lat="42.437145000" lon="-2.517196000">
        <ele>485.10</ele>
        <time>2016-10-29T05:34:49Z</time>
      </trkpt>
      <trkpt lat="42.437166000" lon="-2.517220000">
        <ele>485.00</ele>
        <time>2016-10-29T05:34:50Z</time>
      </trkpt>
      <trkpt lat="42.437183000" lon="-2.517250000">
        <ele>485.20</ele>
        <time>2016-10-29T05:34:51Z</time>
      </trkpt>
      <trkpt lat="42.437202000" lon="-2.517273000">
        <ele>485.30</ele>
        <time>2016-10-29T05:34:52Z</time>
      </trkpt>
      <trkpt lat="42.437222000" lon="-2.517300000">
        <ele>485.40</ele>
        <time>2016-10-29T05:34:53Z</time>
      </trkpt>
      <trkpt lat="42.437243000" lon="-2.517328000">
        <ele>485.40</ele>
        <time>2016-10-29T05:34:54Z</time>
      </trkpt>
      <trkpt lat="42.437265000" lon="-2.517352000">
        <ele>485.50</ele>
        <time>2016-10-29T05:34:55Z</time>
      </trkpt>
      <trkpt lat="42.437285000" lon="-2.517380000">
        <ele>485.50</ele>
        <time>2016-10-29T05:34:56Z</time>
      </trkpt>
      <trkpt lat="42.437306000" lon="-2.517406000">
        <ele>485.50</ele>
        <time>2016-10-29T05:34:57Z</time>
      </trkpt>
      <trkpt lat="42.437327000" lon="-2.517436000">
        <ele>485.50</ele>
        <time>2016-10-29T05:34:58Z</time>
      </trkpt>
      <trkpt lat="42.437349000" lon="-2.517465000">
        <ele>485.50</ele>
        <time>2016-10-29T05:34:59Z</time>
      </trkpt>
      <trkpt lat="42.437369000" lon="-2.517496000">
        <ele>485.60</ele>
        <time>2016-10-29T05:35:00Z</time>
      </trkpt>
      <trkpt lat="42.437389000" lon="-2.517524000">
        <ele>485.60</ele>
        <time>2016-10-29T05:35:01Z</time>
      </trkpt>
      <trkpt lat="42.437410000" lon="-2.517553000">
        <ele>485.60</ele>
        <time>2016-10-29T05:35:02Z</time>
      </trkpt>
      <trkpt lat="42.437432000" lon="-2.517583000">
        <ele>485.60</ele>
        <time>2016-10-29T05:35:03Z</time>
      </trkpt>
      <trkpt lat="42.437452000" lon="-2.517613000">
        <ele>485.60</ele>
        <time>2016-10-29T05:35:04Z</time>
      </trkpt>
      <trkpt lat="42.437472000" lon="-2.517644000">
        <ele>485.60</ele>
        <time>2016-10-29T05:35:05Z</time>
      </trkpt>
      <trkpt lat="42.437491000" lon="-2.517678000">
        <ele>485.70</ele>
        <time>2016-10-29T05:35:06Z</time>
      </trkpt>
      <trkpt lat="42.437511000" lon="-2.517711000">
        <ele>485.70</ele>
        <time>2016-10-29T05:35:07Z</time>
      </trkpt>
      <trkpt lat="42.437530000" lon="-2.517741000">
        <ele>485.70</ele>
        <time>2016-10-29T05:35:08Z</time>
      </trkpt>
      <trkpt lat="42.437548000" lon="-2.517770000">
        <ele>485.70</ele>
        <time>2016-10-29T05:35:09Z</time>
      </trkpt>
      <trkpt lat="42.437568000" lon="-2.517798000">
        <ele>485.70</ele>
        <time>2016-10-29T05:35:10Z</time>
      </trkpt>
      <trkpt lat="42.437586000" lon="-2.517829000">
        <ele>485.70</ele>
        <time>2016-10-29T05:35:11Z</time>
      </trkpt>
      <trkpt lat="42.437603000" lon="-2.517859000">
        <ele>485.80</ele>
        <time>2016-10-29T05:35:12Z</time>
      </trkpt>
      <trkpt lat="42.437637000" lon="-2.517915000">
        <ele>485.80</ele>
        <time>2016-10-29T05:35:14Z</time>
      </trkpt>
      <trkpt lat="42.437651000" lon="-2.517944000">
        <ele>485.90</ele>
        <time>2016-10-29T05:35:15Z</time>
      </trkpt>
      <trkpt lat="42.437667000" lon="-2.517974000">
        <ele>485.90</ele>
        <time>2016-10-29T05:35:16Z</time>
      </trkpt>
      <trkpt lat="42.437681000" lon="-2.518005000">
        <ele>485.90</ele>
        <time>2016-10-29T05:35:17Z</time>
      </trkpt>
      <trkpt lat="42.437696000" lon="-2.518041000">
        <ele>485.90</ele>
        <time>2016-10-29T05:35:18Z</time>
      </trkpt>
      <trkpt lat="42.437707000" lon="-2.518076000">
        <ele>486.00</ele>
        <time>2016-10-29T05:35:19Z</time>
      </trkpt>
      <trkpt lat="42.437720000" lon="-2.518112000">
        <ele>486.00</ele>
        <time>2016-10-29T05:35:20Z</time>
      </trkpt>
      <trkpt lat="42.437732000" lon="-2.518151000">
        <ele>486.00</ele>
        <time>2016-10-29T05:35:21Z</time>
      </trkpt>
      <trkpt lat="42.437745000" lon="-2.518190000">
        <ele>486.00</ele>
        <time>2016-10-29T05:35:22Z</time>
      </trkpt>
      <trkpt lat="42.437758000" lon="-2.518229000">
        <ele>486.00</ele>
        <time>2016-10-29T05:35:23Z</time>
      </trkpt>
      <trkpt lat="42.437769000" lon="-2.518266000">
        <ele>486.10</ele>
        <time>2016-10-29T05:35:24Z</time>
      </trkpt>
      <trkpt lat="42.437781000" lon="-2.518303000">
        <ele>486.20</ele>
        <time>2016-10-29T05:35:25Z</time>
      </trkpt>
      <trkpt lat="42.437790000" lon="-2.518341000">
        <ele>486.20</ele>
        <time>2016-10-29T05:35:26Z</time>
      </trkpt>
      <trkpt lat="42.437800000" lon="-2.518376000">
        <ele>486.50</ele>
        <time>2016-10-29T05:35:27Z</time>
      </trkpt>
      <trkpt lat="42.437810000" lon="-2.518410000">
        <ele>486.70</ele>
        <time>2016-10-29T05:35:28Z</time>
      </trkpt>
      <trkpt lat="42.437821000" lon="-2.518446000">
        <ele>486.90</ele>
        <time>2016-10-29T05:35:29Z</time>
      </trkpt>
      <trkpt lat="42.437831000" lon="-2.518481000">
        <ele>487.00</ele>
        <time>2016-10-29T05:35:30Z</time>
      </trkpt>
      <trkpt lat="42.437841000" lon="-2.518516000">
        <ele>487.20</ele>
        <time>2016-10-29T05:35:31Z</time>
      </trkpt>
      <trkpt lat="42.437851000" lon="-2.518548000">
        <ele>487.40</ele>
        <time>2016-10-29T05:35:32Z</time>
      </trkpt>
      <trkpt lat="42.437862000" lon="-2.518580000">
        <ele>487.50</ele>
        <time>2016-10-29T05:35:33Z</time>
      </trkpt>
      <trkpt lat="42.437871000" lon="-2.518612000">
        <ele>487.70</ele>
        <time>2016-10-29T05:35:34Z</time>
      </trkpt>
      <trkpt lat="42.437878000" lon="-2.518646000">
        <ele>487.80</ele>
        <time>2016-10-29T05:35:35Z</time>
      </trkpt>
      <trkpt lat="42.437887000" lon="-2.518679000">
        <ele>488.00</ele>
        <time>2016-10-29T05:35:36Z</time>
      </trkpt>
      <trkpt lat="42.437895000" lon="-2.518714000">
        <ele>488.30</ele>
        <time>2016-10-29T05:35:37Z</time>
      </trkpt>
      <trkpt lat="42.437906000" lon="-2.518748000">
        <ele>488.50</ele>
        <time>2016-10-29T05:35:38Z</time>
      </trkpt>
      <trkpt lat="42.437915000" lon="-2.518783000">
        <ele>488.60</ele>
        <time>2016-10-29T05:35:39Z</time>
      </trkpt>
      <trkpt lat="42.437927000" lon="-2.518818000">
        <ele>488.70</ele>
        <time>2016-10-29T05:35:40Z</time>
      </trkpt>
      <trkpt lat="42.437938000" lon="-2.518856000">
        <ele>489.00</ele>
        <time>2016-10-29T05:35:41Z</time>
      </trkpt>
      <trkpt lat="42.437949000" lon="-2.518892000">
        <ele>489.10</ele>
        <time>2016-10-29T05:35:42Z</time>
      </trkpt>
      <trkpt lat="42.437958000" lon="-2.518930000">
        <ele>489.40</ele>
        <time>2016-10-29T05:35:43Z</time>
      </trkpt>
      <trkpt lat="42.437967000" lon="-2.518963000">
        <ele>489.60</ele>
        <time>2016-10-29T05:35:44Z</time>
      </trkpt>
      <trkpt lat="42.437978000" lon="-2.519000000">
        <ele>489.80</ele>
        <time>2016-10-29T05:35:45Z</time>
      </trkpt>
      <trkpt lat="42.437988000" lon="-2.519034000">
        <ele>490.00</ele>
        <time>2016-10-29T05:35:46Z</time>
      </trkpt>
      <trkpt lat="42.438000000" lon="-2.519068000">
        <ele>490.20</ele>
        <time>2016-10-29T05:35:47Z</time>
      </trkpt>
      <trkpt lat="42.438013000" lon="-2.519099000">
        <ele>490.30</ele>
        <time>2016-10-29T05:35:48Z</time>
      </trkpt>
      <trkpt lat="42.438028000" lon="-2.519128000">
        <ele>490.40</ele>
        <time>2016-10-29T05:35:49Z</time>
      </trkpt>
      <trkpt lat="42.438042000" lon="-2.519156000">
        <ele>490.50</ele>
        <time>2016-10-29T05:35:50Z</time>
      </trkpt>
      <trkpt lat="42.438058000" lon="-2.519183000">
        <ele>490.60</ele>
        <time>2016-10-29T05:35:51Z</time>
      </trkpt>
      <trkpt lat="42.438073000" lon="-2.519211000">
        <ele>490.70</ele>
        <time>2016-10-29T05:35:52Z</time>
      </trkpt>
      <trkpt lat="42.438087000" lon="-2.519239000">
        <ele>490.70</ele>
        <time>2016-10-29T05:35:53Z</time>
      </trkpt>
      <trkpt lat="42.438100000" lon="-2.519268000">
        <ele>490.80</ele>
        <time>2016-10-29T05:35:54Z</time>
      </trkpt>
      <trkpt lat="42.438113000" lon="-2.519297000">
        <ele>490.90</ele>
        <time>2016-10-29T05:35:55Z</time>
      </trkpt>
      <trkpt lat="42.438127000" lon="-2.519323000">
        <ele>490.90</ele>
        <time>2016-10-29T05:35:56Z</time>
      </trkpt>
      <trkpt lat="42.438142000" lon="-2.519348000">
        <ele>491.00</ele>
        <time>2016-10-29T05:35:57Z</time>
      </trkpt>
      <trkpt lat="42.438158000" lon="-2.519370000">
        <ele>491.00</ele>
        <time>2016-10-29T05:35:58Z</time>
      </trkpt>
      <trkpt lat="42.438172000" lon="-2.519393000">
        <ele>491.10</ele>
        <time>2016-10-29T05:35:59Z</time>
      </trkpt>
      <trkpt lat="42.438185000" lon="-2.519417000">
        <ele>491.20</ele>
        <time>2016-10-29T05:36:00Z</time>
      </trkpt>
      <trkpt lat="42.438198000" lon="-2.519438000">
        <ele>491.60</ele>
        <time>2016-10-29T05:36:01Z</time>
      </trkpt>
      <trkpt lat="42.438209000" lon="-2.519457000">
        <ele>491.90</ele>
        <time>2016-10-29T05:36:02Z</time>
      </trkpt>
      <trkpt lat="42.438221000" lon="-2.519479000">
        <ele>492.30</ele>
        <time>2016-10-29T05:36:03Z</time>
      </trkpt>
      <trkpt lat="42.438231000" lon="-2.519503000">
        <ele>492.50</ele>
        <time>2016-10-29T05:36:04Z</time>
      </trkpt>
      <trkpt lat="42.438244000" lon="-2.519526000">
        <ele>492.80</ele>
        <time>2016-10-29T05:36:05Z</time>
      </trkpt>
      <trkpt lat="42.438259000" lon="-2.519551000">
        <ele>492.90</ele>
        <time>2016-10-29T05:36:06Z</time>
      </trkpt>
      <trkpt lat="42.438272000" lon="-2.519575000">
        <ele>493.20</ele>
        <time>2016-10-29T05:36:07Z</time>
      </trkpt>
      <trkpt lat="42.438287000" lon="-2.519599000">
        <ele>493.50</ele>
        <time>2016-10-29T05:36:08Z</time>
      </trkpt>
      <trkpt lat="42.438299000" lon="-2.519626000">
        <ele>493.70</ele>
        <time>2016-10-29T05:36:09Z</time>
      </trkpt>
      <trkpt lat="42.438313000" lon="-2.519656000">
        <ele>493.90</ele>
        <time>2016-10-29T05:36:10Z</time>
      </trkpt>
      <trkpt lat="42.438331000" lon="-2.519682000">
        <ele>494.20</ele>
        <time>2016-10-29T05:36:11Z</time>
      </trkpt>
      <trkpt lat="42.438350000" lon="-2.519706000">
        <ele>494.40</ele>
        <time>2016-10-29T05:36:12Z</time>
      </trkpt>
      <trkpt lat="42.438367000" lon="-2.519732000">
        <ele>494.60</ele>
        <time>2016-10-29T05:36:13Z</time>
      </trkpt>
      <trkpt lat="42.438403000" lon="-2.519774000">
        <ele>495.20</ele>
        <time>2016-10-29T05:36:15Z</time>
      </trkpt>
      <trkpt lat="42.438420000" lon="-2.519795000">
        <ele>495.50</ele>
        <time>2016-10-29T05:36:16Z</time>
      </trkpt>
      <trkpt lat="42.438437000" lon="-2.519817000">
        <ele>495.70</ele>
        <time>2016-10-29T05:36:17Z</time>
      </trkpt>
      <trkpt lat="42.438453000" lon="-2.519839000">
        <ele>495.90</ele>
        <time>2016-10-29T05:36:18Z</time>
      </trkpt>
      <trkpt lat="42.438466000" lon="-2.519863000">
        <ele>496.10</ele>
        <time>2016-10-29T05:36:19Z</time>
      </trkpt>
      <trkpt lat="42.438482000" lon="-2.519888000">
        <ele>496.30</ele>
        <time>2016-10-29T05:36:20Z</time>
      </trkpt>
      <trkpt lat="42.438497000" lon="-2.519914000">
        <ele>496.50</ele>
        <time>2016-10-29T05:36:21Z</time>
      </trkpt>
      <trkpt lat="42.438512000" lon="-2.519938000">
        <ele>496.70</ele>
        <time>2016-10-29T05:36:22Z</time>
      </trkpt>
      <trkpt lat="42.438527000" lon="-2.519962000">
        <ele>496.90</ele>
        <time>2016-10-29T05:36:23Z</time>
      </trkpt>
      <trkpt lat="42.438538000" lon="-2.519987000">
        <ele>497.00</ele>
        <time>2016-10-29T05:36:24Z</time>
      </trkpt>
      <trkpt lat="42.438552000" lon="-2.520012000">
        <ele>497.20</ele>
        <time>2016-10-29T05:36:25Z</time>
      </trkpt>
      <trkpt lat="42.438565000" lon="-2.520039000">
        <ele>497.30</ele>
        <time>2016-10-29T05:36:26Z</time>
      </trkpt>
      <trkpt lat="42.438577000" lon="-2.520065000">
        <ele>497.60</ele>
        <time>2016-10-29T05:36:27Z</time>
      </trkpt>
      <trkpt lat="42.438588000" lon="-2.520093000">
        <ele>497.70</ele>
        <time>2016-10-29T05:36:28Z</time>
      </trkpt>
      <trkpt lat="42.438601000" lon="-2.520119000">
        <ele>497.90</ele>
        <time>2016-10-29T05:36:29Z</time>
      </trkpt>
      <trkpt lat="42.438613000" lon="-2.520145000">
        <ele>498.00</ele>
        <time>2016-10-29T05:36:30Z</time>
      </trkpt>
      <trkpt lat="42.438624000" lon="-2.520176000">
        <ele>498.00</ele>
        <time>2016-10-29T05:36:31Z</time>
      </trkpt>
      <trkpt lat="42.438635000" lon="-2.520202000">
        <ele>498.00</ele>
        <time>2016-10-29T05:36:32Z</time>
      </trkpt>
      <trkpt lat="42.438646000" lon="-2.520229000">
        <ele>498.00</ele>
        <time>2016-10-29T05:36:33Z</time>
      </trkpt>
      <trkpt lat="42.438655000" lon="-2.520259000">
        <ele>497.90</ele>
        <time>2016-10-29T05:36:34Z</time>
      </trkpt>
      <trkpt lat="42.438665000" lon="-2.520289000">
        <ele>497.90</ele>
        <time>2016-10-29T05:36:35Z</time>
      </trkpt>
      <trkpt lat="42.438676000" lon="-2.520317000">
        <ele>498.00</ele>
        <time>2016-10-29T05:36:36Z</time>
      </trkpt>
      <trkpt lat="42.438685000" lon="-2.520347000">
        <ele>498.00</ele>
        <time>2016-10-29T05:36:37Z</time>
      </trkpt>
      <trkpt lat="42.438696000" lon="-2.520376000">
        <ele>498.00</ele>
        <time>2016-10-29T05:36:38Z</time>
      </trkpt>
      <trkpt lat="42.438710000" lon="-2.520406000">
        <ele>498.00</ele>
        <time>2016-10-29T05:36:39Z</time>
      </trkpt>
      <trkpt lat="42.438722000" lon="-2.520435000">
        <ele>498.00</ele>
        <time>2016-10-29T05:36:40Z</time>
      </trkpt>
      <trkpt lat="42.438734000" lon="-2.520462000">
        <ele>498.20</ele>
        <time>2016-10-29T05:36:41Z</time>
      </trkpt>
      <trkpt lat="42.438745000" lon="-2.520489000">
        <ele>498.30</ele>
        <time>2016-10-29T05:36:42Z</time>
      </trkpt>
      <trkpt lat="42.438758000" lon="-2.520513000">
        <ele>498.30</ele>
        <time>2016-10-29T05:36:43Z</time>
      </trkpt>
      <trkpt lat="42.438765000" lon="-2.520543000">
        <ele>498.40</ele>
        <time>2016-10-29T05:36:44Z</time>
      </trkpt>
      <trkpt lat="42.438772000" lon="-2.520572000">
        <ele>498.40</ele>
        <time>2016-10-29T05:36:45Z</time>
      </trkpt>
      <trkpt lat="42.438777000" lon="-2.520602000">
        <ele>498.50</ele>
        <time>2016-10-29T05:36:46Z</time>
      </trkpt>
      <trkpt lat="42.438788000" lon="-2.520631000">
        <ele>498.50</ele>
        <time>2016-10-29T05:36:47Z</time>
      </trkpt>
      <trkpt lat="42.438797000" lon="-2.520660000">
        <ele>498.50</ele>
        <time>2016-10-29T05:36:48Z</time>
      </trkpt>
      <trkpt lat="42.438807000" lon="-2.520690000">
        <ele>498.50</ele>
        <time>2016-10-29T05:36:49Z</time>
      </trkpt>
      <trkpt lat="42.438816000" lon="-2.520719000">
        <ele>498.50</ele>
        <time>2016-10-29T05:36:50Z</time>
      </trkpt>
      <trkpt lat="42.438825000" lon="-2.520753000">
        <ele>498.60</ele>
        <time>2016-10-29T05:36:51Z</time>
      </trkpt>
      <trkpt lat="42.438836000" lon="-2.520785000">
        <ele>498.70</ele>
        <time>2016-10-29T05:36:52Z</time>
      </trkpt>
      <trkpt lat="42.438851000" lon="-2.520811000">
        <ele>498.70</ele>
        <time>2016-10-29T05:36:53Z</time>
      </trkpt>
      <trkpt lat="42.438864000" lon="-2.520837000">
        <ele>498.80</ele>
        <time>2016-10-29T05:36:54Z</time>
      </trkpt>
      <trkpt lat="42.438881000" lon="-2.520859000">
        <ele>499.10</ele>
        <time>2016-10-29T05:36:55Z</time>
      </trkpt>
      <trkpt lat="42.438895000" lon="-2.520883000">
        <ele>499.30</ele>
        <time>2016-10-29T05:36:56Z</time>
      </trkpt>
      <trkpt lat="42.438908000" lon="-2.520908000">
        <ele>499.50</ele>
        <time>2016-10-29T05:36:57Z</time>
      </trkpt>
      <trkpt lat="42.438923000" lon="-2.520934000">
        <ele>499.70</ele>
        <time>2016-10-29T05:36:58Z</time>
      </trkpt>
      <trkpt lat="42.438938000" lon="-2.520954000">
        <ele>499.90</ele>
        <time>2016-10-29T05:36:59Z</time>
      </trkpt>
      <trkpt lat="42.438952000" lon="-2.520979000">
        <ele>500.00</ele>
        <time>2016-10-29T05:37:00Z</time>
      </trkpt>
      <trkpt lat="42.438964000" lon="-2.521002000">
        <ele>500.20</ele>
        <time>2016-10-29T05:37:01Z</time>
      </trkpt>
      <trkpt lat="42.438978000" lon="-2.521023000">
        <ele>500.30</ele>
        <time>2016-10-29T05:37:02Z</time>
      </trkpt>
      <trkpt lat="42.438997000" lon="-2.521040000">
        <ele>500.70</ele>
        <time>2016-10-29T05:37:03Z</time>
      </trkpt>
      <trkpt lat="42.439013000" lon="-2.521061000">
        <ele>501.10</ele>
        <time>2016-10-29T05:37:04Z</time>
      </trkpt>
      <trkpt lat="42.439033000" lon="-2.521081000">
        <ele>501.40</ele>
        <time>2016-10-29T05:37:05Z</time>
      </trkpt>
      <trkpt lat="42.439051000" lon="-2.521102000">
        <ele>501.60</ele>
        <time>2016-10-29T05:37:06Z</time>
      </trkpt>
      <trkpt lat="42.439069000" lon="-2.521125000">
        <ele>501.70</ele>
        <time>2016-10-29T05:37:07Z</time>
      </trkpt>
      <trkpt lat="42.439087000" lon="-2.521152000">
        <ele>501.90</ele>
        <time>2016-10-29T05:37:08Z</time>
      </trkpt>
      <trkpt lat="42.439104000" lon="-2.521184000">
        <ele>502.10</ele>
        <time>2016-10-29T05:37:09Z</time>
      </trkpt>
      <trkpt lat="42.439120000" lon="-2.521214000">
        <ele>502.30</ele>
        <time>2016-10-29T05:37:10Z</time>
      </trkpt>
      <trkpt lat="42.439134000" lon="-2.521238000">
        <ele>502.60</ele>
        <time>2016-10-29T05:37:11Z</time>
      </trkpt>
      <trkpt lat="42.439150000" lon="-2.521263000">
        <ele>502.80</ele>
        <time>2016-10-29T05:37:12Z</time>
      </trkpt>
      <trkpt lat="42.439160000" lon="-2.521291000">
        <ele>503.10</ele>
        <time>2016-10-29T05:37:13Z</time>
      </trkpt>
      <trkpt lat="42.439172000" lon="-2.521321000">
        <ele>503.40</ele>
        <time>2016-10-29T05:37:14Z</time>
      </trkpt>
      <trkpt lat="42.439184000" lon="-2.521348000">
        <ele>503.60</ele>
        <time>2016-10-29T05:37:15Z</time>
      </trkpt>
      <trkpt lat="42.439197000" lon="-2.521402000">
        <ele>504.00</ele>
        <time>2016-10-29T05:37:17Z</time>
      </trkpt>
      <trkpt lat="42.439203000" lon="-2.521431000">
        <ele>504.10</ele>
        <time>2016-10-29T05:37:18Z</time>
      </trkpt>
      <trkpt lat="42.439210000" lon="-2.521460000">
        <ele>504.20</ele>
        <time>2016-10-29T05:37:19Z</time>
      </trkpt>
      <trkpt lat="42.439218000" lon="-2.521487000">
        <ele>504.30</ele>
        <time>2016-10-29T05:37:20Z</time>
      </trkpt>
      <trkpt lat="42.439224000" lon="-2.521518000">
        <ele>504.40</ele>
        <time>2016-10-29T05:37:21Z</time>
      </trkpt>
      <trkpt lat="42.439234000" lon="-2.521554000">
        <ele>504.50</ele>
        <time>2016-10-29T05:37:22Z</time>
      </trkpt>
      <trkpt lat="42.439242000" lon="-2.521597000">
        <ele>504.60</ele>
        <time>2016-10-29T05:37:23Z</time>
      </trkpt>
      <trkpt lat="42.439254000" lon="-2.521634000">
        <ele>504.70</ele>
        <time>2016-10-29T05:37:24Z</time>
      </trkpt>
      <trkpt lat="42.439264000" lon="-2.521667000">
        <ele>504.90</ele>
        <time>2016-10-29T05:37:25Z</time>
      </trkpt>
      <trkpt lat="42.439272000" lon="-2.521697000">
        <ele>505.00</ele>
        <time>2016-10-29T05:37:26Z</time>
      </trkpt>
      <trkpt lat="42.439280000" lon="-2.521730000">
        <ele>505.20</ele>
        <time>2016-10-29T05:37:27Z</time>
      </trkpt>
      <trkpt lat="42.439290000" lon="-2.521760000">
        <ele>505.30</ele>
        <time>2016-10-29T05:37:28Z</time>
      </trkpt>
      <trkpt lat="42.439297000" lon="-2.521790000">
        <ele>505.50</ele>
        <time>2016-10-29T05:37:29Z</time>
      </trkpt>
      <trkpt lat="42.439305000" lon="-2.521819000">
        <ele>505.60</ele>
        <time>2016-10-29T05:37:30Z</time>
      </trkpt>
      <trkpt lat="42.439313000" lon="-2.521848000">
        <ele>505.70</ele>
        <time>2016-10-29T05:37:31Z</time>
      </trkpt>
      <trkpt lat="42.439322000" lon="-2.521875000">
        <ele>505.70</ele>
        <time>2016-10-29T05:37:32Z</time>
      </trkpt>
      <trkpt lat="42.439327000" lon="-2.521909000">
        <ele>505.90</ele>
        <time>2016-10-29T05:37:33Z</time>
      </trkpt>
      <trkpt lat="42.439336000" lon="-2.521939000">
        <ele>506.10</ele>
        <time>2016-10-29T05:37:34Z</time>
      </trkpt>
      <trkpt lat="42.439344000" lon="-2.521969000">
        <ele>506.30</ele>
        <time>2016-10-29T05:37:35Z</time>
      </trkpt>
      <trkpt lat="42.439353000" lon="-2.521998000">
        <ele>506.50</ele>
        <time>2016-10-29T05:37:36Z</time>
      </trkpt>
      <trkpt lat="42.439360000" lon="-2.522029000">
        <ele>506.70</ele>
        <time>2016-10-29T05:37:37Z</time>
      </trkpt>
      <trkpt lat="42.439369000" lon="-2.522060000">
        <ele>506.80</ele>
        <time>2016-10-29T05:37:38Z</time>
      </trkpt>
      <trkpt lat="42.439377000" lon="-2.522091000">
        <ele>507.00</ele>
        <time>2016-10-29T05:37:39Z</time>
      </trkpt>
      <trkpt lat="42.439387000" lon="-2.522123000">
        <ele>507.20</ele>
        <time>2016-10-29T05:37:40Z</time>
      </trkpt>
      <trkpt lat="42.439396000" lon="-2.522160000">
        <ele>507.50</ele>
        <time>2016-10-29T05:37:41Z</time>
      </trkpt>
      <trkpt lat="42.439403000" lon="-2.522194000">
        <ele>507.80</ele>
        <time>2016-10-29T05:37:42Z</time>
      </trkpt>
      <trkpt lat="42.439409000" lon="-2.522228000">
        <ele>508.20</ele>
        <time>2016-10-29T05:37:43Z</time>
      </trkpt>
      <trkpt lat="42.439417000" lon="-2.522262000">
        <ele>508.50</ele>
        <time>2016-10-29T05:37:44Z</time>
      </trkpt>
      <trkpt lat="42.439423000" lon="-2.522295000">
        <ele>508.80</ele>
        <time>2016-10-29T05:37:45Z</time>
      </trkpt>
      <trkpt lat="42.439432000" lon="-2.522324000">
        <ele>508.90</ele>
        <time>2016-10-29T05:37:46Z</time>
      </trkpt>
      <trkpt lat="42.439443000" lon="-2.522356000">
        <ele>509.10</ele>
        <time>2016-10-29T05:37:47Z</time>
      </trkpt>
      <trkpt lat="42.439453000" lon="-2.522388000">
        <ele>509.20</ele>
        <time>2016-10-29T05:37:48Z</time>
      </trkpt>
      <trkpt lat="42.439463000" lon="-2.522414000">
        <ele>509.20</ele>
        <time>2016-10-29T05:37:49Z</time>
      </trkpt>
      <trkpt lat="42.439471000" lon="-2.522442000">
        <ele>509.30</ele>
        <time>2016-10-29T05:37:50Z</time>
      </trkpt>
      <trkpt lat="42.439482000" lon="-2.522471000">
        <ele>509.50</ele>
        <time>2016-10-29T05:37:51Z</time>
      </trkpt>
      <trkpt lat="42.439493000" lon="-2.522502000">
        <ele>509.70</ele>
        <time>2016-10-29T05:37:52Z</time>
      </trkpt>
      <trkpt lat="42.439504000" lon="-2.522530000">
        <ele>509.90</ele>
        <time>2016-10-29T05:37:53Z</time>
      </trkpt>
      <trkpt lat="42.439515000" lon="-2.522557000">
        <ele>510.10</ele>
        <time>2016-10-29T05:37:54Z</time>
      </trkpt>
      <trkpt lat="42.439525000" lon="-2.522582000">
        <ele>510.20</ele>
        <time>2016-10-29T05:37:55Z</time>
      </trkpt>
      <trkpt lat="42.439537000" lon="-2.522605000">
        <ele>510.30</ele>
        <time>2016-10-29T05:37:56Z</time>
      </trkpt>
      <trkpt lat="42.439550000" lon="-2.522629000">
        <ele>510.30</ele>
        <time>2016-10-29T05:37:57Z</time>
      </trkpt>
      <trkpt lat="42.439562000" lon="-2.522650000">
        <ele>510.40</ele>
        <time>2016-10-29T05:37:58Z</time>
      </trkpt>
      <trkpt lat="42.439579000" lon="-2.522669000">
        <ele>510.50</ele>
        <time>2016-10-29T05:37:59Z</time>
      </trkpt>
      <trkpt lat="42.439593000" lon="-2.522693000">
        <ele>510.70</ele>
        <time>2016-10-29T05:38:00Z</time>
      </trkpt>
      <trkpt lat="42.439605000" lon="-2.522716000">
        <ele>510.70</ele>
        <time>2016-10-29T05:38:01Z</time>
      </trkpt>
      <trkpt lat="42.439616000" lon="-2.522742000">
        <ele>510.80</ele>
        <time>2016-10-29T05:38:02Z</time>
      </trkpt>
      <trkpt lat="42.439627000" lon="-2.522766000">
        <ele>510.90</ele>
        <time>2016-10-29T05:38:03Z</time>
      </trkpt>
      <trkpt lat="42.439639000" lon="-2.522790000">
        <ele>510.90</ele>
        <time>2016-10-29T05:38:04Z</time>
      </trkpt>
      <trkpt lat="42.439650000" lon="-2.522813000">
        <ele>510.90</ele>
        <time>2016-10-29T05:38:05Z</time>
      </trkpt>
      <trkpt lat="42.439663000" lon="-2.522834000">
        <ele>511.00</ele>
        <time>2016-10-29T05:38:06Z</time>
      </trkpt>
      <trkpt lat="42.439673000" lon="-2.522856000">
        <ele>511.00</ele>
        <time>2016-10-29T05:38:07Z</time>
      </trkpt>
      <trkpt lat="42.439686000" lon="-2.522878000">
        <ele>511.00</ele>
        <time>2016-10-29T05:38:08Z</time>
      </trkpt>
      <trkpt lat="42.439700000" lon="-2.522899000">
        <ele>511.10</ele>
        <time>2016-10-29T05:38:09Z</time>
      </trkpt>
      <trkpt lat="42.439716000" lon="-2.522920000">
        <ele>511.20</ele>
        <time>2016-10-29T05:38:10Z</time>
      </trkpt>
      <trkpt lat="42.439731000" lon="-2.522942000">
        <ele>511.40</ele>
        <time>2016-10-29T05:38:11Z</time>
      </trkpt>
      <trkpt lat="42.439746000" lon="-2.522961000">
        <ele>511.60</ele>
        <time>2016-10-29T05:38:12Z</time>
      </trkpt>
      <trkpt lat="42.439758000" lon="-2.522979000">
        <ele>511.80</ele>
        <time>2016-10-29T05:38:13Z</time>
      </trkpt>
      <trkpt lat="42.439775000" lon="-2.523002000">
        <ele>512.00</ele>
        <time>2016-10-29T05:38:14Z</time>
      </trkpt>
      <trkpt lat="42.439797000" lon="-2.523017000">
        <ele>512.20</ele>
        <time>2016-10-29T05:38:15Z</time>
      </trkpt>
      <trkpt lat="42.439812000" lon="-2.523037000">
        <ele>512.30</ele>
        <time>2016-10-29T05:38:16Z</time>
      </trkpt>
      <trkpt lat="42.439828000" lon="-2.523061000">
        <ele>512.60</ele>
        <time>2016-10-29T05:38:17Z</time>
      </trkpt>
      <trkpt lat="42.439853000" lon="-2.523093000">
        <ele>513.00</ele>
        <time>2016-10-29T05:38:19Z</time>
      </trkpt>
      <trkpt lat="42.439866000" lon="-2.523115000">
        <ele>513.10</ele>
        <time>2016-10-29T05:38:20Z</time>
      </trkpt>
      <trkpt lat="42.439880000" lon="-2.523138000">
        <ele>513.30</ele>
        <time>2016-10-29T05:38:21Z</time>
      </trkpt>
      <trkpt lat="42.439893000" lon="-2.523159000">
        <ele>513.40</ele>
        <time>2016-10-29T05:38:22Z</time>
      </trkpt>
      <trkpt lat="42.439909000" lon="-2.523185000">
        <ele>513.60</ele>
        <time>2016-10-29T05:38:23Z</time>
      </trkpt>
      <trkpt lat="42.439922000" lon="-2.523211000">
        <ele>513.80</ele>
        <time>2016-10-29T05:38:24Z</time>
      </trkpt>
      <trkpt lat="42.439934000" lon="-2.523237000">
        <ele>513.90</ele>
        <time>2016-10-29T05:38:25Z</time>
      </trkpt>
      <trkpt lat="42.439947000" lon="-2.523264000">
        <ele>514.00</ele>
        <time>2016-10-29T05:38:26Z</time>
      </trkpt>
      <trkpt lat="42.439961000" lon="-2.523292000">
        <ele>514.00</ele>
        <time>2016-10-29T05:38:27Z</time>
      </trkpt>
      <trkpt lat="42.439972000" lon="-2.523324000">
        <ele>514.00</ele>
        <time>2016-10-29T05:38:28Z</time>
      </trkpt>
      <trkpt lat="42.439982000" lon="-2.523355000">
        <ele>514.00</ele>
        <time>2016-10-29T05:38:29Z</time>
      </trkpt>
      <trkpt lat="42.439993000" lon="-2.523382000">
        <ele>514.00</ele>
        <time>2016-10-29T05:38:30Z</time>
      </trkpt>
      <trkpt lat="42.440003000" lon="-2.523409000">
        <ele>514.20</ele>
        <time>2016-10-29T05:38:31Z</time>
      </trkpt>
      <trkpt lat="42.440012000" lon="-2.523437000">
        <ele>514.40</ele>
        <time>2016-10-29T05:38:32Z</time>
      </trkpt>
      <trkpt lat="42.440022000" lon="-2.523467000">
        <ele>514.50</ele>
        <time>2016-10-29T05:38:33Z</time>
      </trkpt>
      <trkpt lat="42.440032000" lon="-2.523497000">
        <ele>514.60</ele>
        <time>2016-10-29T05:38:34Z</time>
      </trkpt>
      <trkpt lat="42.440040000" lon="-2.523532000">
        <ele>514.70</ele>
        <time>2016-10-29T05:38:35Z</time>
      </trkpt>
      <trkpt lat="42.440050000" lon="-2.523566000">
        <ele>514.70</ele>
        <time>2016-10-29T05:38:36Z</time>
      </trkpt>
      <trkpt lat="42.440057000" lon="-2.523598000">
        <ele>514.80</ele>
        <time>2016-10-29T05:38:37Z</time>
      </trkpt>
      <trkpt lat="42.440066000" lon="-2.523628000">
        <ele>514.80</ele>
        <time>2016-10-29T05:38:38Z</time>
      </trkpt>
      <trkpt lat="42.440075000" lon="-2.523656000">
        <ele>514.90</ele>
        <time>2016-10-29T05:38:39Z</time>
      </trkpt>
      <trkpt lat="42.440082000" lon="-2.523684000">
        <ele>515.00</ele>
        <time>2016-10-29T05:38:40Z</time>
      </trkpt>
      <trkpt lat="42.440089000" lon="-2.523713000">
        <ele>515.10</ele>
        <time>2016-10-29T05:38:41Z</time>
      </trkpt>
      <trkpt lat="42.440096000" lon="-2.523741000">
        <ele>515.20</ele>
        <time>2016-10-29T05:38:42Z</time>
      </trkpt>
      <trkpt lat="42.440103000" lon="-2.523772000">
        <ele>515.30</ele>
        <time>2016-10-29T05:38:43Z</time>
      </trkpt>
      <trkpt lat="42.440105000" lon="-2.523805000">
        <ele>515.40</ele>
        <time>2016-10-29T05:38:44Z</time>
      </trkpt>
      <trkpt lat="42.440107000" lon="-2.523837000">
        <ele>515.50</ele>
        <time>2016-10-29T05:38:45Z</time>
      </trkpt>
      <trkpt lat="42.440107000" lon="-2.523870000">
        <ele>515.50</ele>
        <time>2016-10-29T05:38:46Z</time>
      </trkpt>
      <trkpt lat="42.440105000" lon="-2.523900000">
        <ele>515.60</ele>
        <time>2016-10-29T05:38:47Z</time>
      </trkpt>
      <trkpt lat="42.440100000" lon="-2.523929000">
        <ele>515.70</ele>
        <time>2016-10-29T05:38:48Z</time>
      </trkpt>
      <trkpt lat="42.440096000" lon="-2.523963000">
        <ele>515.80</ele>
        <time>2016-10-29T05:38:49Z</time>
      </trkpt>
      <trkpt lat="42.440090000" lon="-2.523994000">
        <ele>515.80</ele>
        <time>2016-10-29T05:38:50Z</time>
      </trkpt>
      <trkpt lat="42.440085000" lon="-2.524026000">
        <ele>515.80</ele>
        <time>2016-10-29T05:38:51Z</time>
      </trkpt>
      <trkpt lat="42.440079000" lon="-2.524054000">
        <ele>515.90</ele>
        <time>2016-10-29T05:38:52Z</time>
      </trkpt>
      <trkpt lat="42.440071000" lon="-2.524083000">
        <ele>515.90</ele>
        <time>2016-10-29T05:38:53Z</time>
      </trkpt>
      <trkpt lat="42.440062000" lon="-2.524111000">
        <ele>515.90</ele>
        <time>2016-10-29T05:38:54Z</time>
      </trkpt>
      <trkpt lat="42.440056000" lon="-2.524141000">
        <ele>515.90</ele>
        <time>2016-10-29T05:38:55Z</time>
      </trkpt>
      <trkpt lat="42.440048000" lon="-2.524174000">
        <ele>515.90</ele>
        <time>2016-10-29T05:38:56Z</time>
      </trkpt>
      <trkpt lat="42.440042000" lon="-2.524202000">
        <ele>516.10</ele>
        <time>2016-10-29T05:38:57Z</time>
      </trkpt>
      <trkpt lat="42.440034000" lon="-2.524230000">
        <ele>516.30</ele>
        <time>2016-10-29T05:38:58Z</time>
      </trkpt>
      <trkpt lat="42.440027000" lon="-2.524258000">
        <ele>516.40</ele>
        <time>2016-10-29T05:38:59Z</time>
      </trkpt>
      <trkpt lat="42.440021000" lon="-2.524287000">
        <ele>516.60</ele>
        <time>2016-10-29T05:39:00Z</time>
      </trkpt>
      <trkpt lat="42.440012000" lon="-2.524315000">
        <ele>516.70</ele>
        <time>2016-10-29T05:39:01Z</time>
      </trkpt>
      <trkpt lat="42.440009000" lon="-2.524341000">
        <ele>516.90</ele>
        <time>2016-10-29T05:39:02Z</time>
      </trkpt>
      <trkpt lat="42.440005000" lon="-2.524366000">
        <ele>516.90</ele>
        <time>2016-10-29T05:39:03Z</time>
      </trkpt>
      <trkpt lat="42.439997000" lon="-2.524393000">
        <ele>517.00</ele>
        <time>2016-10-29T05:39:04Z</time>
      </trkpt>
      <trkpt lat="42.439995000" lon="-2.524422000">
        <ele>517.30</ele>
        <time>2016-10-29T05:39:05Z</time>
      </trkpt>
      <trkpt lat="42.439989000" lon="-2.524453000">
        <ele>517.50</ele>
        <time>2016-10-29T05:39:06Z</time>
      </trkpt>
      <trkpt lat="42.439981000" lon="-2.524480000">
        <ele>517.80</ele>
        <time>2016-10-29T05:39:07Z</time>
      </trkpt>
      <trkpt lat="42.439979000" lon="-2.524508000">
        <ele>518.00</ele>
        <time>2016-10-29T05:39:08Z</time>
      </trkpt>
      <trkpt lat="42.439972000" lon="-2.524535000">
        <ele>518.20</ele>
        <time>2016-10-29T05:39:09Z</time>
      </trkpt>
      <trkpt lat="42.439970000" lon="-2.524560000">
        <ele>518.30</ele>
        <time>2016-10-29T05:39:10Z</time>
      </trkpt>
      <trkpt lat="42.439961000" lon="-2.524588000">
        <ele>518.40</ele>
        <time>2016-10-29T05:39:11Z</time>
      </trkpt>
      <trkpt lat="42.439955000" lon="-2.524617000">
        <ele>518.50</ele>
        <time>2016-10-29T05:39:12Z</time>
      </trkpt>
      <trkpt lat="42.439951000" lon="-2.524646000">
        <ele>518.70</ele>
        <time>2016-10-29T05:39:13Z</time>
      </trkpt>
      <trkpt lat="42.439947000" lon="-2.524674000">
        <ele>518.90</ele>
        <time>2016-10-29T05:39:14Z</time>
      </trkpt>
      <trkpt lat="42.439942000" lon="-2.524705000">
        <ele>519.30</ele>
        <time>2016-10-29T05:39:15Z</time>
      </trkpt>
      <trkpt lat="42.439934000" lon="-2.524740000">
        <ele>519.60</ele>
        <time>2016-10-29T05:39:16Z</time>
      </trkpt>
      <trkpt lat="42.439931000" lon="-2.524769000">
        <ele>520.00</ele>
        <time>2016-10-29T05:39:17Z</time>
      </trkpt>
      <trkpt lat="42.439930000" lon="-2.524798000">
        <ele>520.30</ele>
        <time>2016-10-29T05:39:18Z</time>
      </trkpt>
      <trkpt lat="42.439922000" lon="-2.524846000">
        <ele>521.00</ele>
        <time>2016-10-29T05:39:20Z</time>
      </trkpt>
      <trkpt lat="42.439919000" lon="-2.524871000">
        <ele>521.30</ele>
        <time>2016-10-29T05:39:21Z</time>
      </trkpt>
      <trkpt lat="42.439913000" lon="-2.524896000">
        <ele>521.40</ele>
        <time>2016-10-29T05:39:22Z</time>
      </trkpt>
      <trkpt lat="42.439909000" lon="-2.524919000">
        <ele>521.60</ele>
        <time>2016-10-29T05:39:23Z</time>
      </trkpt>
      <trkpt lat="42.439899000" lon="-2.524943000">
        <ele>521.70</ele>
        <time>2016-10-29T05:39:24Z</time>
      </trkpt>
      <trkpt lat="42.439895000" lon="-2.524968000">
        <ele>521.70</ele>
        <time>2016-10-29T05:39:25Z</time>
      </trkpt>
      <trkpt lat="42.439898000" lon="-2.524985000">
        <ele>521.80</ele>
        <time>2016-10-29T05:39:26Z</time>
      </trkpt>
      <trkpt lat="42.439901000" lon="-2.525001000">
        <ele>522.00</ele>
        <time>2016-10-29T05:39:27Z</time>
      </trkpt>
      <trkpt lat="42.439904000" lon="-2.525018000">
        <ele>522.10</ele>
        <time>2016-10-29T05:39:28Z</time>
      </trkpt>
      <trkpt lat="42.439907000" lon="-2.525038000">
        <ele>522.20</ele>
        <time>2016-10-29T05:39:29Z</time>
      </trkpt>
      <trkpt lat="42.439904000" lon="-2.525059000">
        <ele>522.30</ele>
        <time>2016-10-29T05:39:30Z</time>
      </trkpt>
      <trkpt lat="42.439898000" lon="-2.525081000">
        <ele>522.10</ele>
        <time>2016-10-29T05:39:31Z</time>
      </trkpt>
      <trkpt lat="42.439890000" lon="-2.525109000">
        <ele>522.10</ele>
        <time>2016-10-29T05:39:32Z</time>
      </trkpt>
      <trkpt lat="42.439888000" lon="-2.525134000">
        <ele>522.00</ele>
        <time>2016-10-29T05:39:33Z</time>
      </trkpt>
      <trkpt lat="42.439887000" lon="-2.525162000">
        <ele>521.90</ele>
        <time>2016-10-29T05:39:34Z</time>
      </trkpt>
      <trkpt lat="42.439888000" lon="-2.525190000">
        <ele>522.10</ele>
        <time>2016-10-29T05:39:35Z</time>
      </trkpt>
      <trkpt lat="42.439887000" lon="-2.525214000">
        <ele>522.30</ele>
        <time>2016-10-29T05:39:36Z</time>
      </trkpt>
      <trkpt lat="42.439886000" lon="-2.525235000">
        <ele>522.40</ele>
        <time>2016-10-29T05:39:37Z</time>
      </trkpt>
      <trkpt lat="42.439885000" lon="-2.525261000">
        <ele>522.50</ele>
        <time>2016-10-29T05:39:38Z</time>
      </trkpt>
      <trkpt lat="42.439884000" lon="-2.525285000">
        <ele>522.40</ele>
        <time>2016-10-29T05:39:39Z</time>
      </trkpt>
      <trkpt lat="42.439882000" lon="-2.525310000">
        <ele>522.40</ele>
        <time>2016-10-29T05:39:40Z</time>
      </trkpt>
      <trkpt lat="42.439880000" lon="-2.525335000">
        <ele>522.30</ele>
        <time>2016-10-29T05:39:41Z</time>
      </trkpt>
      <trkpt lat="42.439878000" lon="-2.525360000">
        <ele>522.20</ele>
        <time>2016-10-29T05:39:42Z</time>
      </trkpt>
      <trkpt lat="42.439876000" lon="-2.525384000">
        <ele>522.10</ele>
        <time>2016-10-29T05:39:43Z</time>
      </trkpt>
      <trkpt lat="42.439875000" lon="-2.525407000">
        <ele>522.00</ele>
        <time>2016-10-29T05:39:44Z</time>
      </trkpt>
      <trkpt lat="42.439871000" lon="-2.525432000">
        <ele>521.90</ele>
        <time>2016-10-29T05:39:45Z</time>
      </trkpt>
      <trkpt lat="42.439872000" lon="-2.525454000">
        <ele>521.80</ele>
        <time>2016-10-29T05:39:46Z</time>
      </trkpt>
      <trkpt lat="42.439868000" lon="-2.525474000">
        <ele>521.80</ele>
        <time>2016-10-29T05:39:47Z</time>
      </trkpt>
      <trkpt lat="42.439867000" lon="-2.525495000">
        <ele>521.80</ele>
        <time>2016-10-29T05:39:48Z</time>
      </trkpt>
      <trkpt lat="42.439864000" lon="-2.525518000">
        <ele>521.70</ele>
        <time>2016-10-29T05:39:49Z</time>
      </trkpt>
      <trkpt lat="42.439861000" lon="-2.525541000">
        <ele>521.70</ele>
        <time>2016-10-29T05:39:50Z</time>
      </trkpt>
      <trkpt lat="42.439859000" lon="-2.525565000">
        <ele>521.70</ele>
        <time>2016-10-29T05:39:51Z</time>
      </trkpt>
      <trkpt lat="42.439858000" lon="-2.525590000">
        <ele>521.70</ele>
        <time>2016-10-29T05:39:52Z</time>
      </trkpt>
      <trkpt lat="42.439854000" lon="-2.525616000">
        <ele>521.70</ele>
        <time>2016-10-29T05:39:53Z</time>
      </trkpt>
      <trkpt lat="42.439854000" lon="-2.525641000">
        <ele>521.80</ele>
        <time>2016-10-29T05:39:54Z</time>
      </trkpt>
      <trkpt lat="42.439853000" lon="-2.525667000">
        <ele>521.80</ele>
        <time>2016-10-29T05:39:55Z</time>
      </trkpt>
      <trkpt lat="42.439852000" lon="-2.525699000">
        <ele>521.90</ele>
        <time>2016-10-29T05:39:56Z</time>
      </trkpt>
      <trkpt lat="42.439850000" lon="-2.525726000">
        <ele>521.90</ele>
        <time>2016-10-29T05:39:57Z</time>
      </trkpt>
      <trkpt lat="42.439849000" lon="-2.525761000">
        <ele>522.00</ele>
        <time>2016-10-29T05:39:58Z</time>
      </trkpt>
      <trkpt lat="42.439848000" lon="-2.525792000">
        <ele>521.90</ele>
        <time>2016-10-29T05:39:59Z</time>
      </trkpt>
      <trkpt lat="42.439847000" lon="-2.525825000">
        <ele>521.90</ele>
        <time>2016-10-29T05:40:00Z</time>
      </trkpt>
      <trkpt lat="42.439847000" lon="-2.525860000">
        <ele>521.90</ele>
        <time>2016-10-29T05:40:01Z</time>
      </trkpt>
      <trkpt lat="42.439845000" lon="-2.525893000">
        <ele>521.80</ele>
        <time>2016-10-29T05:40:02Z</time>
      </trkpt>
      <trkpt lat="42.439849000" lon="-2.525928000">
        <ele>521.80</ele>
        <time>2016-10-29T05:40:03Z</time>
      </trkpt>
      <trkpt lat="42.439856000" lon="-2.525956000">
        <ele>521.70</ele>
        <time>2016-10-29T05:40:04Z</time>
      </trkpt>
      <trkpt lat="42.439858000" lon="-2.525977000">
        <ele>521.70</ele>
        <time>2016-10-29T05:40:05Z</time>
      </trkpt>
      <trkpt lat="42.439860000" lon="-2.525983000">
        <ele>521.60</ele>
        <time>2016-10-29T05:40:06Z</time>
      </trkpt>
      <trkpt lat="42.439860000" lon="-2.525984000">
        <ele>521.50</ele>
        <time>2016-10-29T05:40:07Z</time>
      </trkpt>
      <trkpt lat="42.439862000" lon="-2.525989000">
        <ele>521.50</ele>
        <time>2016-10-29T05:40:08Z</time>
      </trkpt>
      <trkpt lat="42.439867000" lon="-2.525990000">
        <ele>521.40</ele>
        <time>2016-10-29T05:40:09Z</time>
      </trkpt>
      <trkpt lat="42.439870000" lon="-2.525989000">
        <ele>521.40</ele>
        <time>2016-10-29T05:40:10Z</time>
      </trkpt>
      <trkpt lat="42.439872000" lon="-2.525989000">
        <ele>521.50</ele>
        <time>2016-10-29T05:40:11Z</time>
      </trkpt>
      <trkpt lat="42.439875000" lon="-2.525990000">
        <ele>521.60</ele>
        <time>2016-10-29T05:40:12Z</time>
      </trkpt>
      <trkpt lat="42.439877000" lon="-2.525991000">
        <ele>521.60</ele>
        <time>2016-10-29T05:40:13Z</time>
      </trkpt>
      <trkpt lat="42.439878000" lon="-2.525992000">
        <ele>521.70</ele>
        <time>2016-10-29T05:40:14Z</time>
      </trkpt>
      <trkpt lat="42.439876000" lon="-2.525991000">
        <ele>521.70</ele>
        <time>2016-10-29T05:40:15Z</time>
      </trkpt>
      <trkpt lat="42.439874000" lon="-2.525989000">
        <ele>521.70</ele>
        <time>2016-10-29T05:40:16Z</time>
      </trkpt>
      <trkpt lat="42.439873000" lon="-2.525993000">
        <ele>521.70</ele>
        <time>2016-10-29T05:40:17Z</time>
      </trkpt>
      <trkpt lat="42.439876000" lon="-2.525991000">
        <ele>521.60</ele>
        <time>2016-10-29T05:40:18Z</time>
      </trkpt>
      <trkpt lat="42.439879000" lon="-2.525991000">
        <ele>521.60</ele>
        <time>2016-10-29T05:40:19Z</time>
      </trkpt>
      <trkpt lat="42.439878000" lon="-2.525994000">
        <ele>521.60</ele>
        <time>2016-10-29T05:40:21Z</time>
      </trkpt>
      <trkpt lat="42.439876000" lon="-2.525992000">
        <ele>521.60</ele>
        <time>2016-10-29T05:40:22Z</time>
      </trkpt>
      <trkpt lat="42.439877000" lon="-2.525995000">
        <ele>521.50</ele>
        <time>2016-10-29T05:40:23Z</time>
      </trkpt>
      <trkpt lat="42.439875000" lon="-2.525991000">
        <ele>521.40</ele>
        <time>2016-10-29T05:40:24Z</time>
      </trkpt>
      <trkpt lat="42.439871000" lon="-2.525989000">
        <ele>521.40</ele>
        <time>2016-10-29T05:40:25Z</time>
      </trkpt>
      <trkpt lat="42.439866000" lon="-2.525989000">
        <ele>521.40</ele>
        <time>2016-10-29T05:40:26Z</time>
      </trkpt>
      <trkpt lat="42.439864000" lon="-2.525991000">
        <ele>521.30</ele>
        <time>2016-10-29T05:40:27Z</time>
      </trkpt>
      <trkpt lat="42.439861000" lon="-2.525991000">
        <ele>521.30</ele>
        <time>2016-10-29T05:40:28Z</time>
      </trkpt>
      <trkpt lat="42.439856000" lon="-2.525994000">
        <ele>521.30</ele>
        <time>2016-10-29T05:40:29Z</time>
      </trkpt>
      <trkpt lat="42.439853000" lon="-2.525997000">
        <ele>521.30</ele>
        <time>2016-10-29T05:40:30Z</time>
      </trkpt>
      <trkpt lat="42.439850000" lon="-2.526000000">
        <ele>521.40</ele>
        <time>2016-10-29T05:40:31Z</time>
      </trkpt>
      <trkpt lat="42.439848000" lon="-2.526000000">
        <ele>521.40</ele>
        <time>2016-10-29T05:40:32Z</time>
      </trkpt>
      <trkpt lat="42.439845000" lon="-2.526001000">
        <ele>521.40</ele>
        <time>2016-10-29T05:40:33Z</time>
      </trkpt>
      <trkpt lat="42.439843000" lon="-2.525998000">
        <ele>521.50</ele>
        <time>2016-10-29T05:40:34Z</time>
      </trkpt>
      <trkpt lat="42.439841000" lon="-2.525995000">
        <ele>521.30</ele>
        <time>2016-10-29T05:40:35Z</time>
      </trkpt>
      <trkpt lat="42.439839000" lon="-2.525991000">
        <ele>521.20</ele>
        <time>2016-10-29T05:40:36Z</time>
      </trkpt>
      <trkpt lat="42.439837000" lon="-2.525992000">
        <ele>521.10</ele>
        <time>2016-10-29T05:40:37Z</time>
      </trkpt>
      <trkpt lat="42.439837000" lon="-2.525993000">
        <ele>521.00</ele>
        <time>2016-10-29T05:40:38Z</time>
      </trkpt>
      <trkpt lat="42.439840000" lon="-2.525991000">
        <ele>521.00</ele>
        <time>2016-10-29T05:40:39Z</time>
      </trkpt>
      <trkpt lat="42.439844000" lon="-2.525987000">
        <ele>520.90</ele>
        <time>2016-10-29T05:40:40Z</time>
      </trkpt>
      <trkpt lat="42.439849000" lon="-2.525982000">
        <ele>521.00</ele>
        <time>2016-10-29T05:40:41Z</time>
      </trkpt>
      <trkpt lat="42.439852000" lon="-2.525981000">
        <ele>521.00</ele>
        <time>2016-10-29T05:40:42Z</time>
      </trkpt>
      <trkpt lat="42.439856000" lon="-2.525982000">
        <ele>521.00</ele>
        <time>2016-10-29T05:40:43Z</time>
      </trkpt>
      <trkpt lat="42.439858000" lon="-2.525982000">
        <ele>521.10</ele>
        <time>2016-10-29T05:40:44Z</time>
      </trkpt>
      <trkpt lat="42.439861000" lon="-2.525981000">
        <ele>521.00</ele>
        <time>2016-10-29T05:40:45Z</time>
      </trkpt>
      <trkpt lat="42.439863000" lon="-2.525981000">
        <ele>521.00</ele>
        <time>2016-10-29T05:40:46Z</time>
      </trkpt>
      <trkpt lat="42.439866000" lon="-2.525979000">
        <ele>520.90</ele>
        <time>2016-10-29T05:40:47Z</time>
      </trkpt>
      <trkpt lat="42.439870000" lon="-2.525980000">
        <ele>520.90</ele>
        <time>2016-10-29T05:40:48Z</time>
      </trkpt>
      <trkpt lat="42.439873000" lon="-2.525982000">
        <ele>520.80</ele>
        <time>2016-10-29T05:40:49Z</time>
      </trkpt>
      <trkpt lat="42.439876000" lon="-2.525986000">
        <ele>520.80</ele>
        <time>2016-10-29T05:40:50Z</time>
      </trkpt>
      <trkpt lat="42.439879000" lon="-2.525989000">
        <ele>520.80</ele>
        <time>2016-10-29T05:40:51Z</time>
      </trkpt>
      <trkpt lat="42.439882000" lon="-2.525991000">
        <ele>520.90</ele>
        <time>2016-10-29T05:40:52Z</time>
      </trkpt>
      <trkpt lat="42.439882000" lon="-2.525993000">
        <ele>520.90</ele>
        <time>2016-10-29T05:40:53Z</time>
      </trkpt>
      <trkpt lat="42.439883000" lon="-2.525993000">
        <ele>520.90</ele>
        <time>2016-10-29T05:40:54Z</time>
      </trkpt>
      <trkpt lat="42.439885000" lon="-2.525992000">
        <ele>520.90</ele>
        <time>2016-10-29T05:40:55Z</time>
      </trkpt>
      <trkpt lat="42.439886000" lon="-2.525991000">
        <ele>520.90</ele>
        <time>2016-10-29T05:40:56Z</time>
      </trkpt>
      <trkpt lat="42.439887000" lon="-2.525994000">
        <ele>520.90</ele>
        <time>2016-10-29T05:40:57Z</time>
      </trkpt>
      <trkpt lat="42.439886000" lon="-2.525997000">
        <ele>520.90</ele>
        <time>2016-10-29T05:40:58Z</time>
      </trkpt>
      <trkpt lat="42.439884000" lon="-2.526001000">
        <ele>520.80</ele>
        <time>2016-10-29T05:40:59Z</time>
      </trkpt>
      <trkpt lat="42.439883000" lon="-2.526002000">
        <ele>520.80</ele>
        <time>2016-10-29T05:41:00Z</time>
      </trkpt>
      <trkpt lat="42.439882000" lon="-2.526001000">
        <ele>521.00</ele>
        <time>2016-10-29T05:41:01Z</time>
      </trkpt>
      <trkpt lat="42.439881000" lon="-2.526004000">
        <ele>521.10</ele>
        <time>2016-10-29T05:41:02Z</time>
      </trkpt>
      <trkpt lat="42.439880000" lon="-2.526005000">
        <ele>521.20</ele>
        <time>2016-10-29T05:41:03Z</time>
      </trkpt>
      <trkpt lat="42.439879000" lon="-2.526005000">
        <ele>521.20</ele>
        <time>2016-10-29T05:41:04Z</time>
      </trkpt>
      <trkpt lat="42.439879000" lon="-2.526001000">
        <ele>521.20</ele>
        <time>2016-10-29T05:41:05Z</time>
      </trkpt>
      <trkpt lat="42.439876000" lon="-2.525999000">
        <ele>521.20</ele>
        <time>2016-10-29T05:41:06Z</time>
      </trkpt>
      <trkpt lat="42.439874000" lon="-2.525997000">
        <ele>521.20</ele>
        <time>2016-10-29T05:41:07Z</time>
      </trkpt>
      <trkpt lat="42.439873000" lon="-2.525994000">
        <ele>521.20</ele>
        <time>2016-10-29T05:41:08Z</time>
      </trkpt>
      <trkpt lat="42.439869000" lon="-2.525993000">
        <ele>521.10</ele>
        <time>2016-10-29T05:41:09Z</time>
      </trkpt>
      <trkpt lat="42.439868000" lon="-2.525989000">
        <ele>521.10</ele>
        <time>2016-10-29T05:41:10Z</time>
      </trkpt>
      <trkpt lat="42.439865000" lon="-2.525987000">
        <ele>521.10</ele>
        <time>2016-10-29T05:41:11Z</time>
      </trkpt>
      <trkpt lat="42.439864000" lon="-2.525986000">
        <ele>521.20</ele>
        <time>2016-10-29T05:41:12Z</time>
      </trkpt>
      <trkpt lat="42.439862000" lon="-2.525984000">
        <ele>521.10</ele>
        <time>2016-10-29T05:41:13Z</time>
      </trkpt>
      <trkpt lat="42.439860000" lon="-2.525983000">
        <ele>521.00</ele>
        <time>2016-10-29T05:41:14Z</time>
      </trkpt>
      <trkpt lat="42.439856000" lon="-2.525982000">
        <ele>521.00</ele>
        <time>2016-10-29T05:41:15Z</time>
      </trkpt>
      <trkpt lat="42.439852000" lon="-2.525982000">
        <ele>520.90</ele>
        <time>2016-10-29T05:41:16Z</time>
      </trkpt>
      <trkpt lat="42.439850000" lon="-2.525980000">
        <ele>520.80</ele>
        <time>2016-10-29T05:41:17Z</time>
      </trkpt>
      <trkpt lat="42.439849000" lon="-2.525980000">
        <ele>520.70</ele>
        <time>2016-10-29T05:41:18Z</time>
      </trkpt>
      <trkpt lat="42.439848000" lon="-2.525978000">
        <ele>520.60</ele>
        <time>2016-10-29T05:41:19Z</time>
      </trkpt>
      <trkpt lat="42.439848000" lon="-2.525979000">
        <ele>520.50</ele>
        <time>2016-10-29T05:41:20Z</time>
      </trkpt>
      <trkpt lat="42.439846000" lon="-2.525980000">
        <ele>520.70</ele>
        <time>2016-10-29T05:41:22Z</time>
      </trkpt>
      <trkpt lat="42.439848000" lon="-2.525979000">
        <ele>520.80</ele>
        <time>2016-10-29T05:41:23Z</time>
      </trkpt>
      <trkpt lat="42.439851000" lon="-2.525975000">
        <ele>520.90</ele>
        <time>2016-10-29T05:41:24Z</time>
      </trkpt>
      <trkpt lat="42.439852000" lon="-2.525971000">
        <ele>520.90</ele>
        <time>2016-10-29T05:41:25Z</time>
      </trkpt>
      <trkpt lat="42.439854000" lon="-2.525967000">
        <ele>520.90</ele>
        <time>2016-10-29T05:41:26Z</time>
      </trkpt>
      <trkpt lat="42.439855000" lon="-2.525968000">
        <ele>520.90</ele>
        <time>2016-10-29T05:41:27Z</time>
      </trkpt>
      <trkpt lat="42.439855000" lon="-2.525971000">
        <ele>521.00</ele>
        <time>2016-10-29T05:41:28Z</time>
      </trkpt>
      <trkpt lat="42.439855000" lon="-2.525973000">
        <ele>521.00</ele>
        <time>2016-10-29T05:41:29Z</time>
      </trkpt>
      <trkpt lat="42.439856000" lon="-2.525976000">
        <ele>521.10</ele>
        <time>2016-10-29T05:41:30Z</time>
      </trkpt>
      <trkpt lat="42.439858000" lon="-2.525979000">
        <ele>521.10</ele>
        <time>2016-10-29T05:41:31Z</time>
      </trkpt>
      <trkpt lat="42.439860000" lon="-2.525983000">
        <ele>521.20</ele>
        <time>2016-10-29T05:41:32Z</time>
      </trkpt>
      <trkpt lat="42.439861000" lon="-2.525989000">
        <ele>521.10</ele>
        <time>2016-10-29T05:41:33Z</time>
      </trkpt>
      <trkpt lat="42.439864000" lon="-2.525992000">
        <ele>521.10</ele>
        <time>2016-10-29T05:41:34Z</time>
      </trkpt>
      <trkpt lat="42.439864000" lon="-2.525995000">
        <ele>521.10</ele>
        <time>2016-10-29T05:41:35Z</time>
      </trkpt>
      <trkpt lat="42.439866000" lon="-2.525997000">
        <ele>521.10</ele>
        <time>2016-10-29T05:41:36Z</time>
      </trkpt>
      <trkpt lat="42.439869000" lon="-2.525999000">
        <ele>521.10</ele>
        <time>2016-10-29T05:41:37Z</time>
      </trkpt>
      <trkpt lat="42.439872000" lon="-2.526000000">
        <ele>521.00</ele>
        <time>2016-10-29T05:41:38Z</time>
      </trkpt>
      <trkpt lat="42.439875000" lon="-2.526002000">
        <ele>521.00</ele>
        <time>2016-10-29T05:41:39Z</time>
      </trkpt>
      <trkpt lat="42.439877000" lon="-2.526003000">
        <ele>521.00</ele>
        <time>2016-10-29T05:41:40Z</time>
      </trkpt>
      <trkpt lat="42.439879000" lon="-2.526002000">
        <ele>521.00</ele>
        <time>2016-10-29T05:41:41Z</time>
      </trkpt>
      <trkpt lat="42.439880000" lon="-2.525998000">
        <ele>521.00</ele>
        <time>2016-10-29T05:41:42Z</time>
      </trkpt>
      <trkpt lat="42.439880000" lon="-2.525993000">
        <ele>521.00</ele>
        <time>2016-10-29T05:41:43Z</time>
      </trkpt>
      <trkpt lat="42.439882000" lon="-2.525989000">
        <ele>521.00</ele>
        <time>2016-10-29T05:41:44Z</time>
      </trkpt>
      <trkpt lat="42.439881000" lon="-2.525985000">
        <ele>521.00</ele>
        <time>2016-10-29T05:41:45Z</time>
      </trkpt>
      <trkpt lat="42.439879000" lon="-2.525983000">
        <ele>520.90</ele>
        <time>2016-10-29T05:41:46Z</time>
      </trkpt>
      <trkpt lat="42.439880000" lon="-2.525980000">
        <ele>521.00</ele>
        <time>2016-10-29T05:41:47Z</time>
      </trkpt>
      <trkpt lat="42.439881000" lon="-2.525978000">
        <ele>521.10</ele>
        <time>2016-10-29T05:41:48Z</time>
      </trkpt>
      <trkpt lat="42.439881000" lon="-2.525979000">
        <ele>521.20</ele>
        <time>2016-10-29T05:41:49Z</time>
      </trkpt>
      <trkpt lat="42.439881000" lon="-2.525980000">
        <ele>521.30</ele>
        <time>2016-10-29T05:41:50Z</time>
      </trkpt>
      <trkpt lat="42.439879000" lon="-2.525981000">
        <ele>521.30</ele>
        <time>2016-10-29T05:41:51Z</time>
      </trkpt>
      <trkpt lat="42.439877000" lon="-2.525980000">
        <ele>521.40</ele>
        <time>2016-10-29T05:41:52Z</time>
      </trkpt>
      <trkpt lat="42.439877000" lon="-2.525975000">
        <ele>521.30</ele>
        <time>2016-10-29T05:41:53Z</time>
      </trkpt>
      <trkpt lat="42.439876000" lon="-2.525971000">
        <ele>521.20</ele>
        <time>2016-10-29T05:41:54Z</time>
      </trkpt>
      <trkpt lat="42.439873000" lon="-2.525971000">
        <ele>521.20</ele>
        <time>2016-10-29T05:41:55Z</time>
      </trkpt>
      <trkpt lat="42.439871000" lon="-2.525970000">
        <ele>521.10</ele>
        <time>2016-10-29T05:41:56Z</time>
      </trkpt>
      <trkpt lat="42.439868000" lon="-2.525969000">
        <ele>521.00</ele>
        <time>2016-10-29T05:41:57Z</time>
      </trkpt>
      <trkpt lat="42.439864000" lon="-2.525968000">
        <ele>520.90</ele>
        <time>2016-10-29T05:41:58Z</time>
      </trkpt>
      <trkpt lat="42.439859000" lon="-2.525969000">
        <ele>520.80</ele>
        <time>2016-10-29T05:41:59Z</time>
      </trkpt>
      <trkpt lat="42.439856000" lon="-2.525970000">
        <ele>520.70</ele>
        <time>2016-10-29T05:42:00Z</time>
      </trkpt>
      <trkpt lat="42.439855000" lon="-2.525970000">
        <ele>520.70</ele>
        <time>2016-10-29T05:42:01Z</time>
      </trkpt>
      <trkpt lat="42.439855000" lon="-2.525972000">
        <ele>520.70</ele>
        <time>2016-10-29T05:42:02Z</time>
      </trkpt>
      <trkpt lat="42.439857000" lon="-2.525973000">
        <ele>520.70</ele>
        <time>2016-10-29T05:42:03Z</time>
      </trkpt>
      <trkpt lat="42.439860000" lon="-2.525975000">
        <ele>520.70</ele>
        <time>2016-10-29T05:42:04Z</time>
      </trkpt>
      <trkpt lat="42.439861000" lon="-2.525977000">
        <ele>520.80</ele>
        <time>2016-10-29T05:42:05Z</time>
      </trkpt>
      <trkpt lat="42.439862000" lon="-2.525979000">
        <ele>520.90</ele>
        <time>2016-10-29T05:42:06Z</time>
      </trkpt>
      <trkpt lat="42.439862000" lon="-2.525981000">
        <ele>520.90</ele>
        <time>2016-10-29T05:42:07Z</time>
      </trkpt>
      <trkpt lat="42.439862000" lon="-2.525984000">
        <ele>520.90</ele>
        <time>2016-10-29T05:42:08Z</time>
      </trkpt>
      <trkpt lat="42.439860000" lon="-2.525987000">
        <ele>520.90</ele>
        <time>2016-10-29T05:42:09Z</time>
      </trkpt>
      <trkpt lat="42.439860000" lon="-2.525993000">
        <ele>521.00</ele>
        <time>2016-10-29T05:42:10Z</time>
      </trkpt>
      <trkpt lat="42.439859000" lon="-2.525993000">
        <ele>520.70</ele>
        <time>2016-10-29T05:42:11Z</time>
      </trkpt>
      <trkpt lat="42.439860000" lon="-2.525994000">
        <ele>520.60</ele>
        <time>2016-10-29T05:42:12Z</time>
      </trkpt>
      <trkpt lat="42.439863000" lon="-2.525988000">
        <ele>520.40</ele>
        <time>2016-10-29T05:42:13Z</time>
      </trkpt>
      <trkpt lat="42.439867000" lon="-2.525982000">
        <ele>520.30</ele>
        <time>2016-10-29T05:42:14Z</time>
      </trkpt>
      <trkpt lat="42.439871000" lon="-2.525979000">
        <ele>520.50</ele>
        <time>2016-10-29T05:42:15Z</time>
      </trkpt>
      <trkpt lat="42.439874000" lon="-2.525976000">
        <ele>520.60</ele>
        <time>2016-10-29T05:42:16Z</time>
      </trkpt>
      <trkpt lat="42.439876000" lon="-2.525979000">
        <ele>520.70</ele>
        <time>2016-10-29T05:42:17Z</time>
      </trkpt>
      <trkpt lat="42.439875000" lon="-2.525978000">
        <ele>520.80</ele>
        <time>2016-10-29T05:42:18Z</time>
      </trkpt>
      <trkpt lat="42.439874000" lon="-2.525978000">
        <ele>520.70</ele>
        <time>2016-10-29T05:42:19Z</time>
      </trkpt>
      <trkpt lat="42.439873000" lon="-2.525980000">
        <ele>520.70</ele>
        <time>2016-10-29T05:42:20Z</time>
      </trkpt>
      <trkpt lat="42.439874000" lon="-2.525980000">
        <ele>520.60</ele>
        <time>2016-10-29T05:42:21Z</time>
      </trkpt>
      <trkpt lat="42.439875000" lon="-2.525977000">
        <ele>520.60</ele>
        <time>2016-10-29T05:42:23Z</time>
      </trkpt>
      <trkpt lat="42.439875000" lon="-2.525977000">
        <ele>520.70</ele>
        <time>2016-10-29T05:42:24Z</time>
      </trkpt>
      <trkpt lat="42.439876000" lon="-2.525979000">
        <ele>520.70</ele>
        <time>2016-10-29T05:42:25Z</time>
      </trkpt>
      <trkpt lat="42.439878000" lon="-2.525980000">
        <ele>520.70</ele>
        <time>2016-10-29T05:42:26Z</time>
      </trkpt>
      <trkpt lat="42.439878000" lon="-2.525981000">
        <ele>520.80</ele>
        <time>2016-10-29T05:42:27Z</time>
      </trkpt>
      <trkpt lat="42.439878000" lon="-2.525980000">
        <ele>521.00</ele>
        <time>2016-10-29T05:42:28Z</time>
      </trkpt>
      <trkpt lat="42.439877000" lon="-2.525981000">
        <ele>520.90</ele>
        <time>2016-10-29T05:42:29Z</time>
      </trkpt>
      <trkpt lat="42.439874000" lon="-2.525982000">
        <ele>520.90</ele>
        <time>2016-10-29T05:42:30Z</time>
      </trkpt>
      <trkpt lat="42.439873000" lon="-2.525985000">
        <ele>520.80</ele>
        <time>2016-10-29T05:42:31Z</time>
      </trkpt>
      <trkpt lat="42.439873000" lon="-2.525989000">
        <ele>520.80</ele>
        <time>2016-10-29T05:42:32Z</time>
      </trkpt>
      <trkpt lat="42.439874000" lon="-2.525989000">
        <ele>520.70</ele>
        <time>2016-10-29T05:42:33Z</time>
      </trkpt>
      <trkpt lat="42.439876000" lon="-2.525990000">
        <ele>520.70</ele>
        <time>2016-10-29T05:42:34Z</time>
      </trkpt>
      <trkpt lat="42.439877000" lon="-2.525993000">
        <ele>520.60</ele>
        <time>2016-10-29T05:42:35Z</time>
      </trkpt>
      <trkpt lat="42.439879000" lon="-2.525995000">
        <ele>520.60</ele>
        <time>2016-10-29T05:42:36Z</time>
      </trkpt>
      <trkpt lat="42.439881000" lon="-2.525999000">
        <ele>520.60</ele>
        <time>2016-10-29T05:42:37Z</time>
      </trkpt>
      <trkpt lat="42.439882000" lon="-2.526003000">
        <ele>520.60</ele>
        <time>2016-10-29T05:42:38Z</time>
      </trkpt>
      <trkpt lat="42.439883000" lon="-2.526007000">
        <ele>520.70</ele>
        <time>2016-10-29T05:42:39Z</time>
      </trkpt>
      <trkpt lat="42.439885000" lon="-2.526005000">
        <ele>520.90</ele>
        <time>2016-10-29T05:42:40Z</time>
      </trkpt>
      <trkpt lat="42.439888000" lon="-2.526004000">
        <ele>521.00</ele>
        <time>2016-10-29T05:42:41Z</time>
      </trkpt>
      <trkpt lat="42.439892000" lon="-2.526000000">
        <ele>521.00</ele>
        <time>2016-10-29T05:42:42Z</time>
      </trkpt>
      <trkpt lat="42.439895000" lon="-2.525997000">
        <ele>521.10</ele>
        <time>2016-10-29T05:42:43Z</time>
      </trkpt>
      <trkpt lat="42.439898000" lon="-2.525993000">
        <ele>521.10</ele>
        <time>2016-10-29T05:42:44Z</time>
      </trkpt>
      <trkpt lat="42.439898000" lon="-2.525992000">
        <ele>521.10</ele>
        <time>2016-10-29T05:42:45Z</time>
      </trkpt>
      <trkpt lat="42.439897000" lon="-2.525990000">
        <ele>521.10</ele>
        <time>2016-10-29T05:42:46Z</time>
      </trkpt>
      <trkpt lat="42.439895000" lon="-2.525989000">
        <ele>521.00</ele>
        <time>2016-10-29T05:42:47Z</time>
      </trkpt>
      <trkpt lat="42.439891000" lon="-2.525988000">
        <ele>520.90</ele>
        <time>2016-10-29T05:42:48Z</time>
      </trkpt>
      <trkpt lat="42.439891000" lon="-2.525985000">
        <ele>520.90</ele>
        <time>2016-10-29T05:42:49Z</time>
      </trkpt>
      <trkpt lat="42.439890000" lon="-2.525983000">
        <ele>520.90</ele>
        <time>2016-10-29T05:42:50Z</time>
      </trkpt>
      <trkpt lat="42.439891000" lon="-2.525982000">
        <ele>520.90</ele>
        <time>2016-10-29T05:42:51Z</time>
      </trkpt>
      <trkpt lat="42.439893000" lon="-2.525981000">
        <ele>520.90</ele>
        <time>2016-10-29T05:42:52Z</time>
      </trkpt>
      <trkpt lat="42.439894000" lon="-2.525980000">
        <ele>520.90</ele>
        <time>2016-10-29T05:42:53Z</time>
      </trkpt>
      <trkpt lat="42.439895000" lon="-2.525977000">
        <ele>521.00</ele>
        <time>2016-10-29T05:42:54Z</time>
      </trkpt>
      <trkpt lat="42.439897000" lon="-2.525975000">
        <ele>520.70</ele>
        <time>2016-10-29T05:42:55Z</time>
      </trkpt>
      <trkpt lat="42.439899000" lon="-2.525975000">
        <ele>520.60</ele>
        <time>2016-10-29T05:42:56Z</time>
      </trkpt>
      <trkpt lat="42.439897000" lon="-2.525978000">
        <ele>520.40</ele>
        <time>2016-10-29T05:42:57Z</time>
      </trkpt>
      <trkpt lat="42.439895000" lon="-2.525983000">
        <ele>520.30</ele>
        <time>2016-10-29T05:42:58Z</time>
      </trkpt>
      <trkpt lat="42.439892000" lon="-2.525986000">
        <ele>520.40</ele>
        <time>2016-10-29T05:42:59Z</time>
      </trkpt>
      <trkpt lat="42.439890000" lon="-2.525988000">
        <ele>520.50</ele>
        <time>2016-10-29T05:43:00Z</time>
      </trkpt>
      <trkpt lat="42.439887000" lon="-2.525992000">
        <ele>520.60</ele>
        <time>2016-10-29T05:43:01Z</time>
      </trkpt>
      <trkpt lat="42.439883000" lon="-2.525999000">
        <ele>520.70</ele>
        <time>2016-10-29T05:43:02Z</time>
      </trkpt>
      <trkpt lat="42.439881000" lon="-2.526001000">
        <ele>520.80</ele>
        <time>2016-10-29T05:43:03Z</time>
      </trkpt>
      <trkpt lat="42.439878000" lon="-2.526004000">
        <ele>520.90</ele>
        <time>2016-10-29T05:43:04Z</time>
      </trkpt>
      <trkpt lat="42.439875000" lon="-2.526003000">
        <ele>520.90</ele>
        <time>2016-10-29T05:43:05Z</time>
      </trkpt>
      <trkpt lat="42.439872000" lon="-2.526002000">
        <ele>520.90</ele>
        <time>2016-10-29T05:43:06Z</time>
      </trkpt>
      <trkpt lat="42.439872000" lon="-2.526002000">
        <ele>520.90</ele>
        <time>2016-10-29T05:43:07Z</time>
      </trkpt>
      <trkpt lat="42.439872000" lon="-2.526003000">
        <ele>521.00</ele>
        <time>2016-10-29T05:43:08Z</time>
      </trkpt>
      <trkpt lat="42.439871000" lon="-2.526002000">
        <ele>521.00</ele>
        <time>2016-10-29T05:43:09Z</time>
      </trkpt>
      <trkpt lat="42.439869000" lon="-2.525997000">
        <ele>521.00</ele>
        <time>2016-10-29T05:43:10Z</time>
      </trkpt>
      <trkpt lat="42.439871000" lon="-2.525997000">
        <ele>521.10</ele>
        <time>2016-10-29T05:43:11Z</time>
      </trkpt>
      <trkpt lat="42.439871000" lon="-2.525996000">
        <ele>521.10</ele>
        <time>2016-10-29T05:43:12Z</time>
      </trkpt>
      <trkpt lat="42.439872000" lon="-2.525995000">
        <ele>521.10</ele>
        <time>2016-10-29T05:43:13Z</time>
      </trkpt>
      <trkpt lat="42.439872000" lon="-2.525994000">
        <ele>521.20</ele>
        <time>2016-10-29T05:43:14Z</time>
      </trkpt>
      <trkpt lat="42.439873000" lon="-2.525996000">
        <ele>521.20</ele>
        <time>2016-10-29T05:43:15Z</time>
      </trkpt>
      <trkpt lat="42.439873000" lon="-2.525994000">
        <ele>521.20</ele>
        <time>2016-10-29T05:43:16Z</time>
      </trkpt>
      <trkpt lat="42.439874000" lon="-2.525995000">
        <ele>521.40</ele>
        <time>2016-10-29T05:43:17Z</time>
      </trkpt>
      <trkpt lat="42.439867000" lon="-2.525993000">
        <ele>521.50</ele>
        <time>2016-10-29T05:43:18Z</time>
      </trkpt>
      <trkpt lat="42.439861000" lon="-2.525991000">
        <ele>521.50</ele>
        <time>2016-10-29T05:43:19Z</time>
      </trkpt>
      <trkpt lat="42.439857000" lon="-2.525991000">
        <ele>521.60</ele>
        <time>2016-10-29T05:43:20Z</time>
      </trkpt>
      <trkpt lat="42.439858000" lon="-2.525997000">
        <ele>521.70</ele>
        <time>2016-10-29T05:43:21Z</time>
      </trkpt>
      <trkpt lat="42.439859000" lon="-2.526001000">
        <ele>521.70</ele>
        <time>2016-10-29T05:43:22Z</time>
      </trkpt>
      <trkpt lat="42.439864000" lon="-2.526005000">
        <ele>521.50</ele>
        <time>2016-10-29T05:43:24Z</time>
      </trkpt>
      <trkpt lat="42.439862000" lon="-2.526009000">
        <ele>521.30</ele>
        <time>2016-10-29T05:43:25Z</time>
      </trkpt>
      <trkpt lat="42.439861000" lon="-2.526014000">
        <ele>521.20</ele>
        <time>2016-10-29T05:43:26Z</time>
      </trkpt>
      <trkpt lat="42.439859000" lon="-2.526018000">
        <ele>521.10</ele>
        <time>2016-10-29T05:43:27Z</time>
      </trkpt>
      <trkpt lat="42.439855000" lon="-2.526021000">
        <ele>521.00</ele>
        <time>2016-10-29T05:43:28Z</time>
      </trkpt>
      <trkpt lat="42.439856000" lon="-2.526018000">
        <ele>520.90</ele>
        <time>2016-10-29T05:43:29Z</time>
      </trkpt>
      <trkpt lat="42.439857000" lon="-2.526019000">
        <ele>520.90</ele>
        <time>2016-10-29T05:43:30Z</time>
      </trkpt>
      <trkpt lat="42.439861000" lon="-2.526019000">
        <ele>521.00</ele>
        <time>2016-10-29T05:43:31Z</time>
      </trkpt>
      <trkpt lat="42.439863000" lon="-2.526021000">
        <ele>521.20</ele>
        <time>2016-10-29T05:43:32Z</time>
      </trkpt>
      <trkpt lat="42.439862000" lon="-2.526029000">
        <ele>521.10</ele>
        <time>2016-10-29T05:43:33Z</time>
      </trkpt>
      <trkpt lat="42.439860000" lon="-2.526051000">
        <ele>521.10</ele>
        <time>2016-10-29T05:43:34Z</time>
      </trkpt>
      <trkpt lat="42.439855000" lon="-2.526069000">
        <ele>521.20</ele>
        <time>2016-10-29T05:43:35Z</time>
      </trkpt>
      <trkpt lat="42.439850000" lon="-2.526075000">
        <ele>521.30</ele>
        <time>2016-10-29T05:43:36Z</time>
      </trkpt>
      <trkpt lat="42.439847000" lon="-2.526073000">
        <ele>521.30</ele>
        <time>2016-10-29T05:43:37Z</time>
      </trkpt>
      <trkpt lat="42.439844000" lon="-2.526076000">
        <ele>521.40</ele>
        <time>2016-10-29T05:43:38Z</time>
      </trkpt>
      <trkpt lat="42.439843000" lon="-2.526090000">
        <ele>521.40</ele>
        <time>2016-10-29T05:43:39Z</time>
      </trkpt>
      <trkpt lat="42.439840000" lon="-2.526107000">
        <ele>521.50</ele>
        <time>2016-10-29T05:43:40Z</time>
      </trkpt>
      <trkpt lat="42.439840000" lon="-2.526120000">
        <ele>521.50</ele>
        <time>2016-10-29T05:43:41Z</time>
      </trkpt>
      <trkpt lat="42.439839000" lon="-2.526132000">
        <ele>521.60</ele>
        <time>2016-10-29T05:43:42Z</time>
      </trkpt>
      <trkpt lat="42.439841000" lon="-2.526141000">
        <ele>521.60</ele>
        <time>2016-10-29T05:43:43Z</time>
      </trkpt>
      <trkpt lat="42.439843000" lon="-2.526165000">
        <ele>521.70</ele>
        <time>2016-10-29T05:43:44Z</time>
      </trkpt>
      <trkpt lat="42.439841000" lon="-2.526185000">
        <ele>521.70</ele>
        <time>2016-10-29T05:43:45Z</time>
      </trkpt>
      <trkpt lat="42.439839000" lon="-2.526203000">
        <ele>521.70</ele>
        <time>2016-10-29T05:43:46Z</time>
      </trkpt>
      <trkpt lat="42.439837000" lon="-2.526222000">
        <ele>521.70</ele>
        <time>2016-10-29T05:43:47Z</time>
      </trkpt>
      <trkpt lat="42.439836000" lon="-2.526240000">
        <ele>521.80</ele>
        <time>2016-10-29T05:43:48Z</time>
      </trkpt>
      <trkpt lat="42.439835000" lon="-2.526251000">
        <ele>521.80</ele>
        <time>2016-10-29T05:43:49Z</time>
      </trkpt>
      <trkpt lat="42.439831000" lon="-2.526262000">
        <ele>521.80</ele>
        <time>2016-10-29T05:43:50Z</time>
      </trkpt>
      <trkpt lat="42.439827000" lon="-2.526281000">
        <ele>521.80</ele>
        <time>2016-10-29T05:43:51Z</time>
      </trkpt>
      <trkpt lat="42.439825000" lon="-2.526301000">
        <ele>521.80</ele>
        <time>2016-10-29T05:43:52Z</time>
      </trkpt>
      <trkpt lat="42.439822000" lon="-2.526328000">
        <ele>521.60</ele>
        <time>2016-10-29T05:43:53Z</time>
      </trkpt>
      <trkpt lat="42.439820000" lon="-2.526357000">
        <ele>521.60</ele>
        <time>2016-10-29T05:43:54Z</time>
      </trkpt>
      <trkpt lat="42.439824000" lon="-2.526383000">
        <ele>521.40</ele>
        <time>2016-10-29T05:43:55Z</time>
      </trkpt>
      <trkpt lat="42.439821000" lon="-2.526413000">
        <ele>521.20</ele>
        <time>2016-10-29T05:43:56Z</time>
      </trkpt>
      <trkpt lat="42.439819000" lon="-2.526446000">
        <ele>521.10</ele>
        <time>2016-10-29T05:43:57Z</time>
      </trkpt>
      <trkpt lat="42.439816000" lon="-2.526478000">
        <ele>521.00</ele>
        <time>2016-10-29T05:43:58Z</time>
      </trkpt>
      <trkpt lat="42.439816000" lon="-2.526509000">
        <ele>520.80</ele>
        <time>2016-10-29T05:43:59Z</time>
      </trkpt>
      <trkpt lat="42.439816000" lon="-2.526535000">
        <ele>520.70</ele>
        <time>2016-10-29T05:44:00Z</time>
      </trkpt>
      <trkpt lat="42.439814000" lon="-2.526561000">
        <ele>520.60</ele>
        <time>2016-10-29T05:44:01Z</time>
      </trkpt>
      <trkpt lat="42.439812000" lon="-2.526588000">
        <ele>520.50</ele>
        <time>2016-10-29T05:44:02Z</time>
      </trkpt>
      <trkpt lat="42.439809000" lon="-2.526616000">
        <ele>520.40</ele>
        <time>2016-10-29T05:44:03Z</time>
      </trkpt>
      <trkpt lat="42.439805000" lon="-2.526644000">
        <ele>520.40</ele>
        <time>2016-10-29T05:44:04Z</time>
      </trkpt>
      <trkpt lat="42.439802000" lon="-2.526674000">
        <ele>520.30</ele>
        <time>2016-10-29T05:44:05Z</time>
      </trkpt>
      <trkpt lat="42.439800000" lon="-2.526706000">
        <ele>520.30</ele>
        <time>2016-10-29T05:44:06Z</time>
      </trkpt>
      <trkpt lat="42.439799000" lon="-2.526737000">
        <ele>520.30</ele>
        <time>2016-10-29T05:44:07Z</time>
      </trkpt>
      <trkpt lat="42.439796000" lon="-2.526772000">
        <ele>520.20</ele>
        <time>2016-10-29T05:44:08Z</time>
      </trkpt>
      <trkpt lat="42.439798000" lon="-2.526804000">
        <ele>520.10</ele>
        <time>2016-10-29T05:44:09Z</time>
      </trkpt>
      <trkpt lat="42.439797000" lon="-2.526838000">
        <ele>520.00</ele>
        <time>2016-10-29T05:44:10Z</time>
      </trkpt>
      <trkpt lat="42.439798000" lon="-2.526877000">
        <ele>520.00</ele>
        <time>2016-10-29T05:44:11Z</time>
      </trkpt>
      <trkpt lat="42.439797000" lon="-2.526918000">
        <ele>519.90</ele>
        <time>2016-10-29T05:44:12Z</time>
      </trkpt>
      <trkpt lat="42.439796000" lon="-2.526962000">
        <ele>519.90</ele>
        <time>2016-10-29T05:44:13Z</time>
      </trkpt>
      <trkpt lat="42.439795000" lon="-2.527012000">
        <ele>519.90</ele>
        <time>2016-10-29T05:44:14Z</time>
      </trkpt>
      <trkpt lat="42.439792000" lon="-2.527072000">
        <ele>519.80</ele>
        <time>2016-10-29T05:44:15Z</time>
      </trkpt>
      <trkpt lat="42.439789000" lon="-2.527138000">
        <ele>519.70</ele>
        <time>2016-10-29T05:44:16Z</time>
      </trkpt>
      <trkpt lat="42.439785000" lon="-2.527203000">
        <ele>519.40</ele>
        <time>2016-10-29T05:44:17Z</time>
      </trkpt>
      <trkpt lat="42.439778000" lon="-2.527273000">
        <ele>519.10</ele>
        <time>2016-10-29T05:44:18Z</time>
      </trkpt>
      <trkpt lat="42.439772000" lon="-2.527350000">
        <ele>518.70</ele>
        <time>2016-10-29T05:44:19Z</time>
      </trkpt>
      <trkpt lat="42.439766000" lon="-2.527428000">
        <ele>518.40</ele>
        <time>2016-10-29T05:44:20Z</time>
      </trkpt>
      <trkpt lat="42.439755000" lon="-2.527516000">
        <ele>517.90</ele>
        <time>2016-10-29T05:44:21Z</time>
      </trkpt>
      <trkpt lat="42.439746000" lon="-2.527609000">
        <ele>517.60</ele>
        <time>2016-10-29T05:44:22Z</time>
      </trkpt>
      <trkpt lat="42.439734000" lon="-2.527702000">
        <ele>517.10</ele>
        <time>2016-10-29T05:44:23Z</time>
      </trkpt>
      <trkpt lat="42.439710000" lon="-2.527901000">
        <ele>516.30</ele>
        <time>2016-10-29T05:44:25Z</time>
      </trkpt>
      <trkpt lat="42.439700000" lon="-2.528001000">
        <ele>516.00</ele>
        <time>2016-10-29T05:44:26Z</time>
      </trkpt>
      <trkpt lat="42.439686000" lon="-2.528102000">
        <ele>515.40</ele>
        <time>2016-10-29T05:44:27Z</time>
      </trkpt>
      <trkpt lat="42.439673000" lon="-2.528190000">
        <ele>515.00</ele>
        <time>2016-10-29T05:44:28Z</time>
      </trkpt>
      <trkpt lat="42.439664000" lon="-2.528270000">
        <ele>514.70</ele>
        <time>2016-10-29T05:44:29Z</time>
      </trkpt>
      <trkpt lat="42.439654000" lon="-2.528337000">
        <ele>514.50</ele>
        <time>2016-10-29T05:44:30Z</time>
      </trkpt>
      <trkpt lat="42.439643000" lon="-2.528400000">
        <ele>514.20</ele>
        <time>2016-10-29T05:44:31Z</time>
      </trkpt>
      <trkpt lat="42.439633000" lon="-2.528463000">
        <ele>514.10</ele>
        <time>2016-10-29T05:44:32Z</time>
      </trkpt>
      <trkpt lat="42.439622000" lon="-2.528525000">
        <ele>513.90</ele>
        <time>2016-10-29T05:44:33Z</time>
      </trkpt>
      <trkpt lat="42.439612000" lon="-2.528588000">
        <ele>513.80</ele>
        <time>2016-10-29T05:44:34Z</time>
      </trkpt>
      <trkpt lat="42.439604000" lon="-2.528649000">
        <ele>513.70</ele>
        <time>2016-10-29T05:44:35Z</time>
      </trkpt>
      <trkpt lat="42.439596000" lon="-2.528714000">
        <ele>513.60</ele>
        <time>2016-10-29T05:44:36Z</time>
      </trkpt>
      <trkpt lat="42.439589000" lon="-2.528783000">
        <ele>513.40</ele>
        <time>2016-10-29T05:44:37Z</time>
      </trkpt>
      <trkpt lat="42.439586000" lon="-2.528857000">
        <ele>513.30</ele>
        <time>2016-10-29T05:44:38Z</time>
      </trkpt>
      <trkpt lat="42.439583000" lon="-2.528944000">
        <ele>513.00</ele>
        <time>2016-10-29T05:44:39Z</time>
      </trkpt>
      <trkpt lat="42.439578000" lon="-2.529037000">
        <ele>512.90</ele>
        <time>2016-10-29T05:44:40Z</time>
      </trkpt>
      <trkpt lat="42.439565000" lon="-2.529139000">
        <ele>512.20</ele>
        <time>2016-10-29T05:44:41Z</time>
      </trkpt>
      <trkpt lat="42.439545000" lon="-2.529243000">
        <ele>511.80</ele>
        <time>2016-10-29T05:44:42Z</time>
      </trkpt>
      <trkpt lat="42.439523000" lon="-2.529345000">
        <ele>511.40</ele>
        <time>2016-10-29T05:44:43Z</time>
      </trkpt>
      <trkpt lat="42.439499000" lon="-2.529447000">
        <ele>511.10</ele>
        <time>2016-10-29T05:44:44Z</time>
      </trkpt>
      <trkpt lat="42.439479000" lon="-2.529551000">
        <ele>510.60</ele>
        <time>2016-10-29T05:44:45Z</time>
      </trkpt>
      <trkpt lat="42.439461000" lon="-2.529653000">
        <ele>510.20</ele>
        <time>2016-10-29T05:44:46Z</time>
      </trkpt>
      <trkpt lat="42.439442000" lon="-2.529747000">
        <ele>509.90</ele>
        <time>2016-10-29T05:44:47Z</time>
      </trkpt>
      <trkpt lat="42.439424000" lon="-2.529837000">
        <ele>509.60</ele>
        <time>2016-10-29T05:44:48Z</time>
      </trkpt>
      <trkpt lat="42.439406000" lon="-2.529922000">
        <ele>509.30</ele>
        <time>2016-10-29T05:44:49Z</time>
      </trkpt>
      <trkpt lat="42.439387000" lon="-2.530010000">
        <ele>509.00</ele>
        <time>2016-10-29T05:44:50Z</time>
      </trkpt>
      <trkpt lat="42.439369000" lon="-2.530094000">
        <ele>508.80</ele>
        <time>2016-10-29T05:44:51Z</time>
      </trkpt>
      <trkpt lat="42.439359000" lon="-2.530173000">
        <ele>508.70</ele>
        <time>2016-10-29T05:44:52Z</time>
      </trkpt>
      <trkpt lat="42.439348000" lon="-2.530247000">
        <ele>508.30</ele>
        <time>2016-10-29T05:44:53Z</time>
      </trkpt>
      <trkpt lat="42.439337000" lon="-2.530324000">
        <ele>507.90</ele>
        <time>2016-10-29T05:44:54Z</time>
      </trkpt>
      <trkpt lat="42.439324000" lon="-2.530396000">
        <ele>507.50</ele>
        <time>2016-10-29T05:44:55Z</time>
      </trkpt>
      <trkpt lat="42.439311000" lon="-2.530468000">
        <ele>507.20</ele>
        <time>2016-10-29T05:44:56Z</time>
      </trkpt>
      <trkpt lat="42.439297000" lon="-2.530538000">
        <ele>506.90</ele>
        <time>2016-10-29T05:44:57Z</time>
      </trkpt>
      <trkpt lat="42.439284000" lon="-2.530602000">
        <ele>506.70</ele>
        <time>2016-10-29T05:44:58Z</time>
      </trkpt>
      <trkpt lat="42.439268000" lon="-2.530670000">
        <ele>506.20</ele>
        <time>2016-10-29T05:44:59Z</time>
      </trkpt>
      <trkpt lat="42.439254000" lon="-2.530741000">
        <ele>505.80</ele>
        <time>2016-10-29T05:45:00Z</time>
      </trkpt>
      <trkpt lat="42.439230000" lon="-2.530809000">
        <ele>505.50</ele>
        <time>2016-10-29T05:45:01Z</time>
      </trkpt>
      <trkpt lat="42.439221000" lon="-2.530868000">
        <ele>505.30</ele>
        <time>2016-10-29T05:45:02Z</time>
      </trkpt>
      <trkpt lat="42.439210000" lon="-2.530936000">
        <ele>505.10</ele>
        <time>2016-10-29T05:45:03Z</time>
      </trkpt>
      <trkpt lat="42.439197000" lon="-2.531008000">
        <ele>505.00</ele>
        <time>2016-10-29T05:45:04Z</time>
      </trkpt>
      <trkpt lat="42.439182000" lon="-2.531077000">
        <ele>504.90</ele>
        <time>2016-10-29T05:45:05Z</time>
      </trkpt>
      <trkpt lat="42.439166000" lon="-2.531148000">
        <ele>504.80</ele>
        <time>2016-10-29T05:45:06Z</time>
      </trkpt>
      <trkpt lat="42.439152000" lon="-2.531216000">
        <ele>504.60</ele>
        <time>2016-10-29T05:45:07Z</time>
      </trkpt>
      <trkpt lat="42.439132000" lon="-2.531290000">
        <ele>504.50</ele>
        <time>2016-10-29T05:45:08Z</time>
      </trkpt>
      <trkpt lat="42.439110000" lon="-2.531359000">
        <ele>504.40</ele>
        <time>2016-10-29T05:45:09Z</time>
      </trkpt>
      <trkpt lat="42.439095000" lon="-2.531427000">
        <ele>504.30</ele>
        <time>2016-10-29T05:45:10Z</time>
      </trkpt>
      <trkpt lat="42.439077000" lon="-2.531494000">
        <ele>504.30</ele>
        <time>2016-10-29T05:45:11Z</time>
      </trkpt>
      <trkpt lat="42.439054000" lon="-2.531559000">
        <ele>504.30</ele>
        <time>2016-10-29T05:45:12Z</time>
      </trkpt>
      <trkpt lat="42.439033000" lon="-2.531627000">
        <ele>504.30</ele>
        <time>2016-10-29T05:45:13Z</time>
      </trkpt>
      <trkpt lat="42.439011000" lon="-2.531695000">
        <ele>504.30</ele>
        <time>2016-10-29T05:45:14Z</time>
      </trkpt>
      <trkpt lat="42.438988000" lon="-2.531761000">
        <ele>504.40</ele>
        <time>2016-10-29T05:45:15Z</time>
      </trkpt>
      <trkpt lat="42.438970000" lon="-2.531824000">
        <ele>504.40</ele>
        <time>2016-10-29T05:45:16Z</time>
      </trkpt>
      <trkpt lat="42.438951000" lon="-2.531883000">
        <ele>504.30</ele>
        <time>2016-10-29T05:45:17Z</time>
      </trkpt>
      <trkpt lat="42.438936000" lon="-2.531946000">
        <ele>504.30</ele>
        <time>2016-10-29T05:45:18Z</time>
      </trkpt>
      <trkpt lat="42.438921000" lon="-2.532005000">
        <ele>504.20</ele>
        <time>2016-10-29T05:45:19Z</time>
      </trkpt>
      <trkpt lat="42.438907000" lon="-2.532063000">
        <ele>504.20</ele>
        <time>2016-10-29T05:45:20Z</time>
      </trkpt>
      <trkpt lat="42.438896000" lon="-2.532121000">
        <ele>504.00</ele>
        <time>2016-10-29T05:45:21Z</time>
      </trkpt>
      <trkpt lat="42.438888000" lon="-2.532180000">
        <ele>503.90</ele>
        <time>2016-10-29T05:45:22Z</time>
      </trkpt>
      <trkpt lat="42.438882000" lon="-2.532240000">
        <ele>503.80</ele>
        <time>2016-10-29T05:45:23Z</time>
      </trkpt>
      <trkpt lat="42.438876000" lon="-2.532301000">
        <ele>503.70</ele>
        <time>2016-10-29T05:45:24Z</time>
      </trkpt>
      <trkpt lat="42.438861000" lon="-2.532433000">
        <ele>503.50</ele>
        <time>2016-10-29T05:45:26Z</time>
      </trkpt>
      <trkpt lat="42.438854000" lon="-2.532496000">
        <ele>503.30</ele>
        <time>2016-10-29T05:45:27Z</time>
      </trkpt>
      <trkpt lat="42.438852000" lon="-2.532561000">
        <ele>503.20</ele>
        <time>2016-10-29T05:45:28Z</time>
      </trkpt>
      <trkpt lat="42.438848000" lon="-2.532636000">
        <ele>503.10</ele>
        <time>2016-10-29T05:45:29Z</time>
      </trkpt>
      <trkpt lat="42.438845000" lon="-2.532711000">
        <ele>503.00</ele>
        <time>2016-10-29T05:45:30Z</time>
      </trkpt>
      <trkpt lat="42.438841000" lon="-2.532785000">
        <ele>502.90</ele>
        <time>2016-10-29T05:45:31Z</time>
      </trkpt>
      <trkpt lat="42.438839000" lon="-2.532841000">
        <ele>502.90</ele>
        <time>2016-10-29T05:45:32Z</time>
      </trkpt>
      <trkpt lat="42.438836000" lon="-2.532885000">
        <ele>502.60</ele>
        <time>2016-10-29T05:45:33Z</time>
      </trkpt>
      <trkpt lat="42.438834000" lon="-2.532935000">
        <ele>502.40</ele>
        <time>2016-10-29T05:45:34Z</time>
      </trkpt>
      <trkpt lat="42.438829000" lon="-2.532987000">
        <ele>502.30</ele>
        <time>2016-10-29T05:45:35Z</time>
      </trkpt>
      <trkpt lat="42.438827000" lon="-2.533049000">
        <ele>502.10</ele>
        <time>2016-10-29T05:45:36Z</time>
      </trkpt>
      <trkpt lat="42.438824000" lon="-2.533107000">
        <ele>502.00</ele>
        <time>2016-10-29T05:45:37Z</time>
      </trkpt>
      <trkpt lat="42.438822000" lon="-2.533166000">
        <ele>502.00</ele>
        <time>2016-10-29T05:45:38Z</time>
      </trkpt>
      <trkpt lat="42.438817000" lon="-2.533231000">
        <ele>502.00</ele>
        <time>2016-10-29T05:45:39Z</time>
      </trkpt>
      <trkpt lat="42.438809000" lon="-2.533298000">
        <ele>502.00</ele>
        <time>2016-10-29T05:45:40Z</time>
      </trkpt>
      <trkpt lat="42.438801000" lon="-2.533372000">
        <ele>502.00</ele>
        <time>2016-10-29T05:45:41Z</time>
      </trkpt>
      <trkpt lat="42.438792000" lon="-2.533449000">
        <ele>502.00</ele>
        <time>2016-10-29T05:45:42Z</time>
      </trkpt>
      <trkpt lat="42.438780000" lon="-2.533529000">
        <ele>501.90</ele>
        <time>2016-10-29T05:45:43Z</time>
      </trkpt>
      <trkpt lat="42.438765000" lon="-2.533609000">
        <ele>501.80</ele>
        <time>2016-10-29T05:45:44Z</time>
      </trkpt>
      <trkpt lat="42.438750000" lon="-2.533686000">
        <ele>501.50</ele>
        <time>2016-10-29T05:45:45Z</time>
      </trkpt>
      <trkpt lat="42.438737000" lon="-2.533761000">
        <ele>501.30</ele>
        <time>2016-10-29T05:45:46Z</time>
      </trkpt>
      <trkpt lat="42.438726000" lon="-2.533834000">
        <ele>501.20</ele>
        <time>2016-10-29T05:45:47Z</time>
      </trkpt>
      <trkpt lat="42.438716000" lon="-2.533903000">
        <ele>501.00</ele>
        <time>2016-10-29T05:45:48Z</time>
      </trkpt>
      <trkpt lat="42.438703000" lon="-2.533969000">
        <ele>501.00</ele>
        <time>2016-10-29T05:45:49Z</time>
      </trkpt>
      <trkpt lat="42.438692000" lon="-2.534029000">
        <ele>500.90</ele>
        <time>2016-10-29T05:45:50Z</time>
      </trkpt>
      <trkpt lat="42.438681000" lon="-2.534085000">
        <ele>500.80</ele>
        <time>2016-10-29T05:45:51Z</time>
      </trkpt>
      <trkpt lat="42.438671000" lon="-2.534142000">
        <ele>500.80</ele>
        <time>2016-10-29T05:45:52Z</time>
      </trkpt>
      <trkpt lat="42.438663000" lon="-2.534198000">
        <ele>500.90</ele>
        <time>2016-10-29T05:45:53Z</time>
      </trkpt>
      <trkpt lat="42.438657000" lon="-2.534257000">
        <ele>501.00</ele>
        <time>2016-10-29T05:45:54Z</time>
      </trkpt>
      <trkpt lat="42.438651000" lon="-2.534308000">
        <ele>501.10</ele>
        <time>2016-10-29T05:45:55Z</time>
      </trkpt>
      <trkpt lat="42.438646000" lon="-2.534366000">
        <ele>501.20</ele>
        <time>2016-10-29T05:45:56Z</time>
      </trkpt>
      <trkpt lat="42.438641000" lon="-2.534424000">
        <ele>501.40</ele>
        <time>2016-10-29T05:45:57Z</time>
      </trkpt>
      <trkpt lat="42.438636000" lon="-2.534479000">
        <ele>501.50</ele>
        <time>2016-10-29T05:45:58Z</time>
      </trkpt>
      <trkpt lat="42.438631000" lon="-2.534535000">
        <ele>501.80</ele>
        <time>2016-10-29T05:45:59Z</time>
      </trkpt>
      <trkpt lat="42.438623000" lon="-2.534598000">
        <ele>502.00</ele>
        <time>2016-10-29T05:46:00Z</time>
      </trkpt>
      <trkpt lat="42.438616000" lon="-2.534667000">
        <ele>502.20</ele>
        <time>2016-10-29T05:46:01Z</time>
      </trkpt>
      <trkpt lat="42.438607000" lon="-2.534741000">
        <ele>502.30</ele>
        <time>2016-10-29T05:46:02Z</time>
      </trkpt>
      <trkpt lat="42.438598000" lon="-2.534818000">
        <ele>502.10</ele>
        <time>2016-10-29T05:46:03Z</time>
      </trkpt>
      <trkpt lat="42.438591000" lon="-2.534889000">
        <ele>501.90</ele>
        <time>2016-10-29T05:46:04Z</time>
      </trkpt>
      <trkpt lat="42.438581000" lon="-2.534960000">
        <ele>501.70</ele>
        <time>2016-10-29T05:46:05Z</time>
      </trkpt>
      <trkpt lat="42.438572000" lon="-2.535029000">
        <ele>501.50</ele>
        <time>2016-10-29T05:46:06Z</time>
      </trkpt>
      <trkpt lat="42.438560000" lon="-2.535099000">
        <ele>501.20</ele>
        <time>2016-10-29T05:46:07Z</time>
      </trkpt>
      <trkpt lat="42.438549000" lon="-2.535172000">
        <ele>500.90</ele>
        <time>2016-10-29T05:46:08Z</time>
      </trkpt>
      <trkpt lat="42.438534000" lon="-2.535246000">
        <ele>500.60</ele>
        <time>2016-10-29T05:46:09Z</time>
      </trkpt>
      <trkpt lat="42.438518000" lon="-2.535321000">
        <ele>500.30</ele>
        <time>2016-10-29T05:46:10Z</time>
      </trkpt>
      <trkpt lat="42.438504000" lon="-2.535398000">
        <ele>500.10</ele>
        <time>2016-10-29T05:46:11Z</time>
      </trkpt>
      <trkpt lat="42.438489000" lon="-2.535476000">
        <ele>500.00</ele>
        <time>2016-10-29T05:46:12Z</time>
      </trkpt>
      <trkpt lat="42.438471000" lon="-2.535556000">
        <ele>499.80</ele>
        <time>2016-10-29T05:46:13Z</time>
      </trkpt>
      <trkpt lat="42.438449000" lon="-2.535625000">
        <ele>499.80</ele>
        <time>2016-10-29T05:46:14Z</time>
      </trkpt>
      <trkpt lat="42.438423000" lon="-2.535694000">
        <ele>499.60</ele>
        <time>2016-10-29T05:46:15Z</time>
      </trkpt>
      <trkpt lat="42.438397000" lon="-2.535766000">
        <ele>499.40</ele>
        <time>2016-10-29T05:46:16Z</time>
      </trkpt>
      <trkpt lat="42.438372000" lon="-2.535837000">
        <ele>499.20</ele>
        <time>2016-10-29T05:46:17Z</time>
      </trkpt>
      <trkpt lat="42.438347000" lon="-2.535905000">
        <ele>499.00</ele>
        <time>2016-10-29T05:46:18Z</time>
      </trkpt>
      <trkpt lat="42.438326000" lon="-2.535973000">
        <ele>498.80</ele>
        <time>2016-10-29T05:46:19Z</time>
      </trkpt>
      <trkpt lat="42.438303000" lon="-2.536045000">
        <ele>498.70</ele>
        <time>2016-10-29T05:46:20Z</time>
      </trkpt>
      <trkpt lat="42.438280000" lon="-2.536118000">
        <ele>498.50</ele>
        <time>2016-10-29T05:46:21Z</time>
      </trkpt>
      <trkpt lat="42.438255000" lon="-2.536190000">
        <ele>498.40</ele>
        <time>2016-10-29T05:46:22Z</time>
      </trkpt>
      <trkpt lat="42.438228000" lon="-2.536260000">
        <ele>498.30</ele>
        <time>2016-10-29T05:46:23Z</time>
      </trkpt>
      <trkpt lat="42.438202000" lon="-2.536333000">
        <ele>498.20</ele>
        <time>2016-10-29T05:46:24Z</time>
      </trkpt>
      <trkpt lat="42.438173000" lon="-2.536409000">
        <ele>497.90</ele>
        <time>2016-10-29T05:46:25Z</time>
      </trkpt>
      <trkpt lat="42.438149000" lon="-2.536468000">
        <ele>497.70</ele>
        <time>2016-10-29T05:46:26Z</time>
      </trkpt>
      <trkpt lat="42.438111000" lon="-2.536579000">
        <ele>497.20</ele>
        <time>2016-10-29T05:46:28Z</time>
      </trkpt>
      <trkpt lat="42.438093000" lon="-2.536636000">
        <ele>497.00</ele>
        <time>2016-10-29T05:46:29Z</time>
      </trkpt>
      <trkpt lat="42.438077000" lon="-2.536695000">
        <ele>496.90</ele>
        <time>2016-10-29T05:46:30Z</time>
      </trkpt>
      <trkpt lat="42.438062000" lon="-2.536758000">
        <ele>496.70</ele>
        <time>2016-10-29T05:46:31Z</time>
      </trkpt>
      <trkpt lat="42.438049000" lon="-2.536818000">
        <ele>496.50</ele>
        <time>2016-10-29T05:46:32Z</time>
      </trkpt>
      <trkpt lat="42.438035000" lon="-2.536870000">
        <ele>496.40</ele>
        <time>2016-10-29T05:46:33Z</time>
      </trkpt>
      <trkpt lat="42.438022000" lon="-2.536918000">
        <ele>496.30</ele>
        <time>2016-10-29T05:46:34Z</time>
      </trkpt>
      <trkpt lat="42.438008000" lon="-2.536964000">
        <ele>496.20</ele>
        <time>2016-10-29T05:46:35Z</time>
      </trkpt>
      <trkpt lat="42.437994000" lon="-2.537008000">
        <ele>496.10</ele>
        <time>2016-10-29T05:46:36Z</time>
      </trkpt>
      <trkpt lat="42.437982000" lon="-2.537049000">
        <ele>496.10</ele>
        <time>2016-10-29T05:46:37Z</time>
      </trkpt>
      <trkpt lat="42.437971000" lon="-2.537090000">
        <ele>496.10</ele>
        <time>2016-10-29T05:46:38Z</time>
      </trkpt>
      <trkpt lat="42.437964000" lon="-2.537131000">
        <ele>496.20</ele>
        <time>2016-10-29T05:46:39Z</time>
      </trkpt>
      <trkpt lat="42.437954000" lon="-2.537167000">
        <ele>496.30</ele>
        <time>2016-10-29T05:46:40Z</time>
      </trkpt>
      <trkpt lat="42.437941000" lon="-2.537207000">
        <ele>496.30</ele>
        <time>2016-10-29T05:46:41Z</time>
      </trkpt>
      <trkpt lat="42.437922000" lon="-2.537253000">
        <ele>496.30</ele>
        <time>2016-10-29T05:46:42Z</time>
      </trkpt>
      <trkpt lat="42.437905000" lon="-2.537290000">
        <ele>496.40</ele>
        <time>2016-10-29T05:46:43Z</time>
      </trkpt>
      <trkpt lat="42.437897000" lon="-2.537311000">
        <ele>496.40</ele>
        <time>2016-10-29T05:46:44Z</time>
      </trkpt>
      <trkpt lat="42.437889000" lon="-2.537342000">
        <ele>496.60</ele>
        <time>2016-10-29T05:46:45Z</time>
      </trkpt>
      <trkpt lat="42.437884000" lon="-2.537391000">
        <ele>496.80</ele>
        <time>2016-10-29T05:46:46Z</time>
      </trkpt>
      <trkpt lat="42.437874000" lon="-2.537430000">
        <ele>496.90</ele>
        <time>2016-10-29T05:46:47Z</time>
      </trkpt>
      <trkpt lat="42.437864000" lon="-2.537473000">
        <ele>497.10</ele>
        <time>2016-10-29T05:46:48Z</time>
      </trkpt>
      <trkpt lat="42.437843000" lon="-2.537513000">
        <ele>497.20</ele>
        <time>2016-10-29T05:46:49Z</time>
      </trkpt>
      <trkpt lat="42.437822000" lon="-2.537562000">
        <ele>497.20</ele>
        <time>2016-10-29T05:46:50Z</time>
      </trkpt>
      <trkpt lat="42.437797000" lon="-2.537603000">
        <ele>497.30</ele>
        <time>2016-10-29T05:46:51Z</time>
      </trkpt>
      <trkpt lat="42.437782000" lon="-2.537649000">
        <ele>497.30</ele>
        <time>2016-10-29T05:46:52Z</time>
      </trkpt>
      <trkpt lat="42.437767000" lon="-2.537692000">
        <ele>497.30</ele>
        <time>2016-10-29T05:46:53Z</time>
      </trkpt>
      <trkpt lat="42.437751000" lon="-2.537736000">
        <ele>497.40</ele>
        <time>2016-10-29T05:46:54Z</time>
      </trkpt>
      <trkpt lat="42.437738000" lon="-2.537778000">
        <ele>497.40</ele>
        <time>2016-10-29T05:46:55Z</time>
      </trkpt>
      <trkpt lat="42.437721000" lon="-2.537819000">
        <ele>497.40</ele>
        <time>2016-10-29T05:46:56Z</time>
      </trkpt>
      <trkpt lat="42.437702000" lon="-2.537858000">
        <ele>497.60</ele>
        <time>2016-10-29T05:46:57Z</time>
      </trkpt>
      <trkpt lat="42.437686000" lon="-2.537897000">
        <ele>497.80</ele>
        <time>2016-10-29T05:46:58Z</time>
      </trkpt>
      <trkpt lat="42.437669000" lon="-2.537941000">
        <ele>498.00</ele>
        <time>2016-10-29T05:46:59Z</time>
      </trkpt>
      <trkpt lat="42.437652000" lon="-2.537990000">
        <ele>498.30</ele>
        <time>2016-10-29T05:47:00Z</time>
      </trkpt>
      <trkpt lat="42.437634000" lon="-2.538041000">
        <ele>498.40</ele>
        <time>2016-10-29T05:47:01Z</time>
      </trkpt>
      <trkpt lat="42.437619000" lon="-2.538092000">
        <ele>498.50</ele>
        <time>2016-10-29T05:47:02Z</time>
      </trkpt>
      <trkpt lat="42.437609000" lon="-2.538144000">
        <ele>498.50</ele>
        <time>2016-10-29T05:47:03Z</time>
      </trkpt>
      <trkpt lat="42.437598000" lon="-2.538187000">
        <ele>498.40</ele>
        <time>2016-10-29T05:47:04Z</time>
      </trkpt>
      <trkpt lat="42.437588000" lon="-2.538236000">
        <ele>498.40</ele>
        <time>2016-10-29T05:47:05Z</time>
      </trkpt>
      <trkpt lat="42.437581000" lon="-2.538283000">
        <ele>498.30</ele>
        <time>2016-10-29T05:47:06Z</time>
      </trkpt>
      <trkpt lat="42.437568000" lon="-2.538327000">
        <ele>498.30</ele>
        <time>2016-10-29T05:47:07Z</time>
      </trkpt>
      <trkpt lat="42.437546000" lon="-2.538368000">
        <ele>498.30</ele>
        <time>2016-10-29T05:47:08Z</time>
      </trkpt>
      <trkpt lat="42.437522000" lon="-2.538402000">
        <ele>498.50</ele>
        <time>2016-10-29T05:47:09Z</time>
      </trkpt>
      <trkpt lat="42.437499000" lon="-2.538434000">
        <ele>498.60</ele>
        <time>2016-10-29T05:47:10Z</time>
      </trkpt>
      <trkpt lat="42.437477000" lon="-2.538465000">
        <ele>498.70</ele>
        <time>2016-10-29T05:47:11Z</time>
      </trkpt>
      <trkpt lat="42.437453000" lon="-2.538496000">
        <ele>498.70</ele>
        <time>2016-10-29T05:47:12Z</time>
      </trkpt>
      <trkpt lat="42.437431000" lon="-2.538527000">
        <ele>498.70</ele>
        <time>2016-10-29T05:47:13Z</time>
      </trkpt>
      <trkpt lat="42.437410000" lon="-2.538560000">
        <ele>498.70</ele>
        <time>2016-10-29T05:47:14Z</time>
      </trkpt>
      <trkpt lat="42.437387000" lon="-2.538593000">
        <ele>498.70</ele>
        <time>2016-10-29T05:47:15Z</time>
      </trkpt>
      <trkpt lat="42.437367000" lon="-2.538624000">
        <ele>498.70</ele>
        <time>2016-10-29T05:47:16Z</time>
      </trkpt>
      <trkpt lat="42.437344000" lon="-2.538656000">
        <ele>498.70</ele>
        <time>2016-10-29T05:47:17Z</time>
      </trkpt>
      <trkpt lat="42.437323000" lon="-2.538687000">
        <ele>498.70</ele>
        <time>2016-10-29T05:47:18Z</time>
      </trkpt>
      <trkpt lat="42.437302000" lon="-2.538721000">
        <ele>498.80</ele>
        <time>2016-10-29T05:47:19Z</time>
      </trkpt>
      <trkpt lat="42.437280000" lon="-2.538755000">
        <ele>498.90</ele>
        <time>2016-10-29T05:47:20Z</time>
      </trkpt>
      <trkpt lat="42.437257000" lon="-2.538792000">
        <ele>499.00</ele>
        <time>2016-10-29T05:47:21Z</time>
      </trkpt>
      <trkpt lat="42.437232000" lon="-2.538828000">
        <ele>499.10</ele>
        <time>2016-10-29T05:47:22Z</time>
      </trkpt>
      <trkpt lat="42.437207000" lon="-2.538863000">
        <ele>499.30</ele>
        <time>2016-10-29T05:47:23Z</time>
      </trkpt>
      <trkpt lat="42.437184000" lon="-2.538896000">
        <ele>499.40</ele>
        <time>2016-10-29T05:47:24Z</time>
      </trkpt>
      <trkpt lat="42.437162000" lon="-2.538926000">
        <ele>499.70</ele>
        <time>2016-10-29T05:47:25Z</time>
      </trkpt>
      <trkpt lat="42.437139000" lon="-2.538954000">
        <ele>499.90</ele>
        <time>2016-10-29T05:47:26Z</time>
      </trkpt>
      <trkpt lat="42.437113000" lon="-2.538983000">
        <ele>499.90</ele>
        <time>2016-10-29T05:47:27Z</time>
      </trkpt>
      <trkpt lat="42.437090000" lon="-2.539014000">
        <ele>499.90</ele>
        <time>2016-10-29T05:47:28Z</time>
      </trkpt>
      <trkpt lat="42.437040000" lon="-2.539078000">
        <ele>500.00</ele>
        <time>2016-10-29T05:47:30Z</time>
      </trkpt>
      <trkpt lat="42.437015000" lon="-2.539110000">
        <ele>500.00</ele>
        <time>2016-10-29T05:47:31Z</time>
      </trkpt>
      <trkpt lat="42.436990000" lon="-2.539143000">
        <ele>500.00</ele>
        <time>2016-10-29T05:47:32Z</time>
      </trkpt>
      <trkpt lat="42.436962000" lon="-2.539178000">
        <ele>500.10</ele>
        <time>2016-10-29T05:47:33Z</time>
      </trkpt>
      <trkpt lat="42.436934000" lon="-2.539206000">
        <ele>500.20</ele>
        <time>2016-10-29T05:47:34Z</time>
      </trkpt>
      <trkpt lat="42.436905000" lon="-2.539231000">
        <ele>500.20</ele>
        <time>2016-10-29T05:47:35Z</time>
      </trkpt>
      <trkpt lat="42.436874000" lon="-2.539260000">
        <ele>500.30</ele>
        <time>2016-10-29T05:47:36Z</time>
      </trkpt>
      <trkpt lat="42.436841000" lon="-2.539286000">
        <ele>500.30</ele>
        <time>2016-10-29T05:47:37Z</time>
      </trkpt>
      <trkpt lat="42.436805000" lon="-2.539309000">
        <ele>500.30</ele>
        <time>2016-10-29T05:47:38Z</time>
      </trkpt>
      <trkpt lat="42.436766000" lon="-2.539332000">
        <ele>500.30</ele>
        <time>2016-10-29T05:47:39Z</time>
      </trkpt>
      <trkpt lat="42.436722000" lon="-2.539354000">
        <ele>500.30</ele>
        <time>2016-10-29T05:47:40Z</time>
      </trkpt>
      <trkpt lat="42.436673000" lon="-2.539380000">
        <ele>500.10</ele>
        <time>2016-10-29T05:47:41Z</time>
      </trkpt>
      <trkpt lat="42.436621000" lon="-2.539411000">
        <ele>500.00</ele>
        <time>2016-10-29T05:47:42Z</time>
      </trkpt>
      <trkpt lat="42.436568000" lon="-2.539446000">
        <ele>499.80</ele>
        <time>2016-10-29T05:47:43Z</time>
      </trkpt>
      <trkpt lat="42.436512000" lon="-2.539489000">
        <ele>499.70</ele>
        <time>2016-10-29T05:47:44Z</time>
      </trkpt>
      <trkpt lat="42.436454000" lon="-2.539541000">
        <ele>499.40</ele>
        <time>2016-10-29T05:47:45Z</time>
      </trkpt>
      <trkpt lat="42.436393000" lon="-2.539601000">
        <ele>499.20</ele>
        <time>2016-10-29T05:47:46Z</time>
      </trkpt>
      <trkpt lat="42.436329000" lon="-2.539666000">
        <ele>498.70</ele>
        <time>2016-10-29T05:47:47Z</time>
      </trkpt>
      <trkpt lat="42.436264000" lon="-2.539737000">
        <ele>498.30</ele>
        <time>2016-10-29T05:47:48Z</time>
      </trkpt>
      <trkpt lat="42.436197000" lon="-2.539816000">
        <ele>497.70</ele>
        <time>2016-10-29T05:47:49Z</time>
      </trkpt>
      <trkpt lat="42.436130000" lon="-2.539902000">
        <ele>497.20</ele>
        <time>2016-10-29T05:47:50Z</time>
      </trkpt>
      <trkpt lat="42.436064000" lon="-2.539994000">
        <ele>496.70</ele>
        <time>2016-10-29T05:47:51Z</time>
      </trkpt>
      <trkpt lat="42.435997000" lon="-2.540090000">
        <ele>496.30</ele>
        <time>2016-10-29T05:47:52Z</time>
      </trkpt>
      <trkpt lat="42.435931000" lon="-2.540189000">
        <ele>495.60</ele>
        <time>2016-10-29T05:47:53Z</time>
      </trkpt>
      <trkpt lat="42.435863000" lon="-2.540287000">
        <ele>495.20</ele>
        <time>2016-10-29T05:47:54Z</time>
      </trkpt>
      <trkpt lat="42.435797000" lon="-2.540383000">
        <ele>494.70</ele>
        <time>2016-10-29T05:47:55Z</time>
      </trkpt>
      <trkpt lat="42.435729000" lon="-2.540480000">
        <ele>494.40</ele>
        <time>2016-10-29T05:47:56Z</time>
      </trkpt>
      <trkpt lat="42.435662000" lon="-2.540580000">
        <ele>493.60</ele>
        <time>2016-10-29T05:47:57Z</time>
      </trkpt>
      <trkpt lat="42.435597000" lon="-2.540682000">
        <ele>492.90</ele>
        <time>2016-10-29T05:47:58Z</time>
      </trkpt>
      <trkpt lat="42.435529000" lon="-2.540782000">
        <ele>492.30</ele>
        <time>2016-10-29T05:47:59Z</time>
      </trkpt>
      <trkpt lat="42.435461000" lon="-2.540877000">
        <ele>491.70</ele>
        <time>2016-10-29T05:48:00Z</time>
      </trkpt>
      <trkpt lat="42.435393000" lon="-2.540973000">
        <ele>491.30</ele>
        <time>2016-10-29T05:48:01Z</time>
      </trkpt>
      <trkpt lat="42.435325000" lon="-2.541065000">
        <ele>491.00</ele>
        <time>2016-10-29T05:48:02Z</time>
      </trkpt>
      <trkpt lat="42.435260000" lon="-2.541163000">
        <ele>490.50</ele>
        <time>2016-10-29T05:48:03Z</time>
      </trkpt>
      <trkpt lat="42.435199000" lon="-2.541264000">
        <ele>490.20</ele>
        <time>2016-10-29T05:48:04Z</time>
      </trkpt>
      <trkpt lat="42.435136000" lon="-2.541366000">
        <ele>489.90</ele>
        <time>2016-10-29T05:48:05Z</time>
      </trkpt>
      <trkpt lat="42.435082000" lon="-2.541474000">
        <ele>489.60</ele>
        <time>2016-10-29T05:48:06Z</time>
      </trkpt>
      <trkpt lat="42.435043000" lon="-2.541592000">
        <ele>489.10</ele>
        <time>2016-10-29T05:48:07Z</time>
      </trkpt>
      <trkpt lat="42.435003000" lon="-2.541711000">
        <ele>488.70</ele>
        <time>2016-10-29T05:48:08Z</time>
      </trkpt>
      <trkpt lat="42.434955000" lon="-2.541826000">
        <ele>488.20</ele>
        <time>2016-10-29T05:48:09Z</time>
      </trkpt>
      <trkpt lat="42.434906000" lon="-2.541939000">
        <ele>487.80</ele>
        <time>2016-10-29T05:48:10Z</time>
      </trkpt>
      <trkpt lat="42.434857000" lon="-2.542052000">
        <ele>486.70</ele>
        <time>2016-10-29T05:48:11Z</time>
      </trkpt>
      <trkpt lat="42.434807000" lon="-2.542163000">
        <ele>485.90</ele>
        <time>2016-10-29T05:48:12Z</time>
      </trkpt>
      <trkpt lat="42.434750000" lon="-2.542265000">
        <ele>485.20</ele>
        <time>2016-10-29T05:48:13Z</time>
      </trkpt>
      <trkpt lat="42.434686000" lon="-2.542366000">
        <ele>484.70</ele>
        <time>2016-10-29T05:48:14Z</time>
      </trkpt>
      <trkpt lat="42.434619000" lon="-2.542465000">
        <ele>484.10</ele>
        <time>2016-10-29T05:48:15Z</time>
      </trkpt>
      <trkpt lat="42.434549000" lon="-2.542554000">
        <ele>483.60</ele>
        <time>2016-10-29T05:48:16Z</time>
      </trkpt>
      <trkpt lat="42.434478000" lon="-2.542638000">
        <ele>482.80</ele>
        <time>2016-10-29T05:48:17Z</time>
      </trkpt>
      <trkpt lat="42.434408000" lon="-2.542726000">
        <ele>482.20</ele>
        <time>2016-10-29T05:48:18Z</time>
      </trkpt>
      <trkpt lat="42.434339000" lon="-2.542812000">
        <ele>481.70</ele>
        <time>2016-10-29T05:48:19Z</time>
      </trkpt>
      <trkpt lat="42.434270000" lon="-2.542901000">
        <ele>481.30</ele>
        <time>2016-10-29T05:48:20Z</time>
      </trkpt>
      <trkpt lat="42.434202000" lon="-2.542989000">
        <ele>480.60</ele>
        <time>2016-10-29T05:48:21Z</time>
      </trkpt>
      <trkpt lat="42.434134000" lon="-2.543078000">
        <ele>480.10</ele>
        <time>2016-10-29T05:48:22Z</time>
      </trkpt>
      <trkpt lat="42.434068000" lon="-2.543164000">
        <ele>479.70</ele>
        <time>2016-10-29T05:48:23Z</time>
      </trkpt>
      <trkpt lat="42.434001000" lon="-2.543253000">
        <ele>479.40</ele>
        <time>2016-10-29T05:48:24Z</time>
      </trkpt>
      <trkpt lat="42.433936000" lon="-2.543340000">
        <ele>479.10</ele>
        <time>2016-10-29T05:48:25Z</time>
      </trkpt>
      <trkpt lat="42.433870000" lon="-2.543425000">
        <ele>478.90</ele>
        <time>2016-10-29T05:48:26Z</time>
      </trkpt>
      <trkpt lat="42.433808000" lon="-2.543504000">
        <ele>478.80</ele>
        <time>2016-10-29T05:48:27Z</time>
      </trkpt>
      <trkpt lat="42.433752000" lon="-2.543575000">
        <ele>478.70</ele>
        <time>2016-10-29T05:48:28Z</time>
      </trkpt>
      <trkpt lat="42.433700000" lon="-2.543644000">
        <ele>478.40</ele>
        <time>2016-10-29T05:48:29Z</time>
      </trkpt>
      <trkpt lat="42.433606000" lon="-2.543777000">
        <ele>478.10</ele>
        <time>2016-10-29T05:48:31Z</time>
      </trkpt>
      <trkpt lat="42.433570000" lon="-2.543841000">
        <ele>478.00</ele>
        <time>2016-10-29T05:48:32Z</time>
      </trkpt>
      <trkpt lat="42.433535000" lon="-2.543906000">
        <ele>477.90</ele>
        <time>2016-10-29T05:48:33Z</time>
      </trkpt>
      <trkpt lat="42.433503000" lon="-2.543964000">
        <ele>477.90</ele>
        <time>2016-10-29T05:48:34Z</time>
      </trkpt>
      <trkpt lat="42.433476000" lon="-2.544020000">
        <ele>477.90</ele>
        <time>2016-10-29T05:48:35Z</time>
      </trkpt>
      <trkpt lat="42.433453000" lon="-2.544075000">
        <ele>477.90</ele>
        <time>2016-10-29T05:48:36Z</time>
      </trkpt>
      <trkpt lat="42.433437000" lon="-2.544128000">
        <ele>478.10</ele>
        <time>2016-10-29T05:48:37Z</time>
      </trkpt>
      <trkpt lat="42.433422000" lon="-2.544179000">
        <ele>478.30</ele>
        <time>2016-10-29T05:48:38Z</time>
      </trkpt>
      <trkpt lat="42.433409000" lon="-2.544228000">
        <ele>478.70</ele>
        <time>2016-10-29T05:48:39Z</time>
      </trkpt>
      <trkpt lat="42.433400000" lon="-2.544275000">
        <ele>478.90</ele>
        <time>2016-10-29T05:48:40Z</time>
      </trkpt>
      <trkpt lat="42.433392000" lon="-2.544324000">
        <ele>479.20</ele>
        <time>2016-10-29T05:48:41Z</time>
      </trkpt>
      <trkpt lat="42.433387000" lon="-2.544371000">
        <ele>479.40</ele>
        <time>2016-10-29T05:48:42Z</time>
      </trkpt>
      <trkpt lat="42.433385000" lon="-2.544416000">
        <ele>479.70</ele>
        <time>2016-10-29T05:48:43Z</time>
      </trkpt>
      <trkpt lat="42.433384000" lon="-2.544459000">
        <ele>479.90</ele>
        <time>2016-10-29T05:48:44Z</time>
      </trkpt>
      <trkpt lat="42.433391000" lon="-2.544502000">
        <ele>480.20</ele>
        <time>2016-10-29T05:48:45Z</time>
      </trkpt>
      <trkpt lat="42.433396000" lon="-2.544545000">
        <ele>480.30</ele>
        <time>2016-10-29T05:48:46Z</time>
      </trkpt>
      <trkpt lat="42.433399000" lon="-2.544588000">
        <ele>480.50</ele>
        <time>2016-10-29T05:48:47Z</time>
      </trkpt>
      <trkpt lat="42.433405000" lon="-2.544629000">
        <ele>480.70</ele>
        <time>2016-10-29T05:48:48Z</time>
      </trkpt>
      <trkpt lat="42.433410000" lon="-2.544672000">
        <ele>481.00</ele>
        <time>2016-10-29T05:48:49Z</time>
      </trkpt>
      <trkpt lat="42.433415000" lon="-2.544715000">
        <ele>481.30</ele>
        <time>2016-10-29T05:48:50Z</time>
      </trkpt>
      <trkpt lat="42.433419000" lon="-2.544758000">
        <ele>481.60</ele>
        <time>2016-10-29T05:48:51Z</time>
      </trkpt>
      <trkpt lat="42.433422000" lon="-2.544806000">
        <ele>481.70</ele>
        <time>2016-10-29T05:48:52Z</time>
      </trkpt>
      <trkpt lat="42.433427000" lon="-2.544852000">
        <ele>482.00</ele>
        <time>2016-10-29T05:48:53Z</time>
      </trkpt>
      <trkpt lat="42.433429000" lon="-2.544893000">
        <ele>482.10</ele>
        <time>2016-10-29T05:48:54Z</time>
      </trkpt>
      <trkpt lat="42.433426000" lon="-2.544935000">
        <ele>482.20</ele>
        <time>2016-10-29T05:48:55Z</time>
      </trkpt>
      <trkpt lat="42.433418000" lon="-2.544980000">
        <ele>482.30</ele>
        <time>2016-10-29T05:48:56Z</time>
      </trkpt>
      <trkpt lat="42.433404000" lon="-2.545021000">
        <ele>482.30</ele>
        <time>2016-10-29T05:48:57Z</time>
      </trkpt>
      <trkpt lat="42.433387000" lon="-2.545055000">
        <ele>482.30</ele>
        <time>2016-10-29T05:48:58Z</time>
      </trkpt>
      <trkpt lat="42.433363000" lon="-2.545080000">
        <ele>482.30</ele>
        <time>2016-10-29T05:48:59Z</time>
      </trkpt>
      <trkpt lat="42.433338000" lon="-2.545106000">
        <ele>482.30</ele>
        <time>2016-10-29T05:49:00Z</time>
      </trkpt>
      <trkpt lat="42.433312000" lon="-2.545124000">
        <ele>482.40</ele>
        <time>2016-10-29T05:49:01Z</time>
      </trkpt>
      <trkpt lat="42.433284000" lon="-2.545140000">
        <ele>482.40</ele>
        <time>2016-10-29T05:49:02Z</time>
      </trkpt>
      <trkpt lat="42.433259000" lon="-2.545157000">
        <ele>482.50</ele>
        <time>2016-10-29T05:49:03Z</time>
      </trkpt>
      <trkpt lat="42.433231000" lon="-2.545174000">
        <ele>482.60</ele>
        <time>2016-10-29T05:49:04Z</time>
      </trkpt>
      <trkpt lat="42.433205000" lon="-2.545194000">
        <ele>482.80</ele>
        <time>2016-10-29T05:49:05Z</time>
      </trkpt>
      <trkpt lat="42.433177000" lon="-2.545215000">
        <ele>482.90</ele>
        <time>2016-10-29T05:49:06Z</time>
      </trkpt>
      <trkpt lat="42.433148000" lon="-2.545233000">
        <ele>483.00</ele>
        <time>2016-10-29T05:49:07Z</time>
      </trkpt>
      <trkpt lat="42.433120000" lon="-2.545253000">
        <ele>483.10</ele>
        <time>2016-10-29T05:49:08Z</time>
      </trkpt>
      <trkpt lat="42.433089000" lon="-2.545272000">
        <ele>483.20</ele>
        <time>2016-10-29T05:49:09Z</time>
      </trkpt>
      <trkpt lat="42.433062000" lon="-2.545292000">
        <ele>483.20</ele>
        <time>2016-10-29T05:49:10Z</time>
      </trkpt>
      <trkpt lat="42.433033000" lon="-2.545314000">
        <ele>483.40</ele>
        <time>2016-10-29T05:49:11Z</time>
      </trkpt>
      <trkpt lat="42.433004000" lon="-2.545334000">
        <ele>483.60</ele>
        <time>2016-10-29T05:49:12Z</time>
      </trkpt>
      <trkpt lat="42.432975000" lon="-2.545356000">
        <ele>483.80</ele>
        <time>2016-10-29T05:49:13Z</time>
      </trkpt>
      <trkpt lat="42.432943000" lon="-2.545381000">
        <ele>483.90</ele>
        <time>2016-10-29T05:49:14Z</time>
      </trkpt>
      <trkpt lat="42.432912000" lon="-2.545405000">
        <ele>484.00</ele>
        <time>2016-10-29T05:49:15Z</time>
      </trkpt>
      <trkpt lat="42.432878000" lon="-2.545428000">
        <ele>484.10</ele>
        <time>2016-10-29T05:49:16Z</time>
      </trkpt>
      <trkpt lat="42.432842000" lon="-2.545455000">
        <ele>484.00</ele>
        <time>2016-10-29T05:49:17Z</time>
      </trkpt>
      <trkpt lat="42.432801000" lon="-2.545483000">
        <ele>483.90</ele>
        <time>2016-10-29T05:49:18Z</time>
      </trkpt>
      <trkpt lat="42.432762000" lon="-2.545506000">
        <ele>483.80</ele>
        <time>2016-10-29T05:49:19Z</time>
      </trkpt>
      <trkpt lat="42.432719000" lon="-2.545534000">
        <ele>483.80</ele>
        <time>2016-10-29T05:49:20Z</time>
      </trkpt>
      <trkpt lat="42.432673000" lon="-2.545564000">
        <ele>483.50</ele>
        <time>2016-10-29T05:49:21Z</time>
      </trkpt>
      <trkpt lat="42.432620000" lon="-2.545599000">
        <ele>483.40</ele>
        <time>2016-10-29T05:49:22Z</time>
      </trkpt>
      <trkpt lat="42.432565000" lon="-2.545638000">
        <ele>483.00</ele>
        <time>2016-10-29T05:49:23Z</time>
      </trkpt>
      <trkpt lat="42.432505000" lon="-2.545682000">
        <ele>482.80</ele>
        <time>2016-10-29T05:49:24Z</time>
      </trkpt>
      <trkpt lat="42.432438000" lon="-2.545728000">
        <ele>482.50</ele>
        <time>2016-10-29T05:49:25Z</time>
      </trkpt>
      <trkpt lat="42.432370000" lon="-2.545780000">
        <ele>482.30</ele>
        <time>2016-10-29T05:49:26Z</time>
      </trkpt>
      <trkpt lat="42.432298000" lon="-2.545837000">
        <ele>481.40</ele>
        <time>2016-10-29T05:49:27Z</time>
      </trkpt>
      <trkpt lat="42.432225000" lon="-2.545894000">
        <ele>480.80</ele>
        <time>2016-10-29T05:49:28Z</time>
      </trkpt>
      <trkpt lat="42.432154000" lon="-2.545960000">
        <ele>480.20</ele>
        <time>2016-10-29T05:49:29Z</time>
      </trkpt>
      <trkpt lat="42.432088000" lon="-2.546045000">
        <ele>479.70</ele>
        <time>2016-10-29T05:49:30Z</time>
      </trkpt>
      <trkpt lat="42.431989000" lon="-2.546254000">
        <ele>478.70</ele>
        <time>2016-10-29T05:49:32Z</time>
      </trkpt>
      <trkpt lat="42.431956000" lon="-2.546376000">
        <ele>478.30</ele>
        <time>2016-10-29T05:49:33Z</time>
      </trkpt>
      <trkpt lat="42.431927000" lon="-2.546500000">
        <ele>478.00</ele>
        <time>2016-10-29T05:49:34Z</time>
      </trkpt>
      <trkpt lat="42.431901000" lon="-2.546627000">
        <ele>477.10</ele>
        <time>2016-10-29T05:49:35Z</time>
      </trkpt>
      <trkpt lat="42.431872000" lon="-2.546750000">
        <ele>476.50</ele>
        <time>2016-10-29T05:49:36Z</time>
      </trkpt>
      <trkpt lat="42.431833000" lon="-2.546866000">
        <ele>476.00</ele>
        <time>2016-10-29T05:49:37Z</time>
      </trkpt>
      <trkpt lat="42.431787000" lon="-2.546976000">
        <ele>475.60</ele>
        <time>2016-10-29T05:49:38Z</time>
      </trkpt>
      <trkpt lat="42.431735000" lon="-2.547079000">
        <ele>475.30</ele>
        <time>2016-10-29T05:49:39Z</time>
      </trkpt>
      <trkpt lat="42.431679000" lon="-2.547179000">
        <ele>475.10</ele>
        <time>2016-10-29T05:49:40Z</time>
      </trkpt>
      <trkpt lat="42.431625000" lon="-2.547275000">
        <ele>474.90</ele>
        <time>2016-10-29T05:49:41Z</time>
      </trkpt>
      <trkpt lat="42.431569000" lon="-2.547366000">
        <ele>474.80</ele>
        <time>2016-10-29T05:49:42Z</time>
      </trkpt>
      <trkpt lat="42.431516000" lon="-2.547459000">
        <ele>474.50</ele>
        <time>2016-10-29T05:49:43Z</time>
      </trkpt>
      <trkpt lat="42.431469000" lon="-2.547555000">
        <ele>474.30</ele>
        <time>2016-10-29T05:49:44Z</time>
      </trkpt>
      <trkpt lat="42.431425000" lon="-2.547650000">
        <ele>474.10</ele>
        <time>2016-10-29T05:49:45Z</time>
      </trkpt>
      <trkpt lat="42.431387000" lon="-2.547749000">
        <ele>474.00</ele>
        <time>2016-10-29T05:49:46Z</time>
      </trkpt>
      <trkpt lat="42.431351000" lon="-2.547843000">
        <ele>473.70</ele>
        <time>2016-10-29T05:49:47Z</time>
      </trkpt>
      <trkpt lat="42.431312000" lon="-2.547933000">
        <ele>473.50</ele>
        <time>2016-10-29T05:49:48Z</time>
      </trkpt>
      <trkpt lat="42.431275000" lon="-2.548021000">
        <ele>473.30</ele>
        <time>2016-10-29T05:49:49Z</time>
      </trkpt>
      <trkpt lat="42.431243000" lon="-2.548104000">
        <ele>473.20</ele>
        <time>2016-10-29T05:49:50Z</time>
      </trkpt>
      <trkpt lat="42.431213000" lon="-2.548186000">
        <ele>473.20</ele>
        <time>2016-10-29T05:49:51Z</time>
      </trkpt>
      <trkpt lat="42.431179000" lon="-2.548269000">
        <ele>473.20</ele>
        <time>2016-10-29T05:49:52Z</time>
      </trkpt>
      <trkpt lat="42.431149000" lon="-2.548349000">
        <ele>473.20</ele>
        <time>2016-10-29T05:49:53Z</time>
      </trkpt>
      <trkpt lat="42.431118000" lon="-2.548428000">
        <ele>473.20</ele>
        <time>2016-10-29T05:49:54Z</time>
      </trkpt>
      <trkpt lat="42.431089000" lon="-2.548503000">
        <ele>473.20</ele>
        <time>2016-10-29T05:49:55Z</time>
      </trkpt>
      <trkpt lat="42.431061000" lon="-2.548580000">
        <ele>473.20</ele>
        <time>2016-10-29T05:49:56Z</time>
      </trkpt>
      <trkpt lat="42.431036000" lon="-2.548654000">
        <ele>473.10</ele>
        <time>2016-10-29T05:49:57Z</time>
      </trkpt>
      <trkpt lat="42.431011000" lon="-2.548725000">
        <ele>473.00</ele>
        <time>2016-10-29T05:49:58Z</time>
      </trkpt>
      <trkpt lat="42.430984000" lon="-2.548798000">
        <ele>472.90</ele>
        <time>2016-10-29T05:49:59Z</time>
      </trkpt>
      <trkpt lat="42.430956000" lon="-2.548863000">
        <ele>472.80</ele>
        <time>2016-10-29T05:50:00Z</time>
      </trkpt>
      <trkpt lat="42.430935000" lon="-2.548928000">
        <ele>472.80</ele>
        <time>2016-10-29T05:50:01Z</time>
      </trkpt>
      <trkpt lat="42.430916000" lon="-2.548985000">
        <ele>472.70</ele>
        <time>2016-10-29T05:50:02Z</time>
      </trkpt>
      <trkpt lat="42.430898000" lon="-2.549042000">
        <ele>472.70</ele>
        <time>2016-10-29T05:50:03Z</time>
      </trkpt>
      <trkpt lat="42.430880000" lon="-2.549099000">
        <ele>472.70</ele>
        <time>2016-10-29T05:50:04Z</time>
      </trkpt>
      <trkpt lat="42.430859000" lon="-2.549156000">
        <ele>472.70</ele>
        <time>2016-10-29T05:50:05Z</time>
      </trkpt>
      <trkpt lat="42.430840000" lon="-2.549210000">
        <ele>472.70</ele>
        <time>2016-10-29T05:50:06Z</time>
      </trkpt>
      <trkpt lat="42.430818000" lon="-2.549258000">
        <ele>472.90</ele>
        <time>2016-10-29T05:50:07Z</time>
      </trkpt>
      <trkpt lat="42.430797000" lon="-2.549307000">
        <ele>473.10</ele>
        <time>2016-10-29T05:50:08Z</time>
      </trkpt>
      <trkpt lat="42.430777000" lon="-2.549357000">
        <ele>473.20</ele>
        <time>2016-10-29T05:50:09Z</time>
      </trkpt>
      <trkpt lat="42.430759000" lon="-2.549407000">
        <ele>473.30</ele>
        <time>2016-10-29T05:50:10Z</time>
      </trkpt>
      <trkpt lat="42.430744000" lon="-2.549458000">
        <ele>473.30</ele>
        <time>2016-10-29T05:50:11Z</time>
      </trkpt>
      <trkpt lat="42.430728000" lon="-2.549508000">
        <ele>473.30</ele>
        <time>2016-10-29T05:50:12Z</time>
      </trkpt>
      <trkpt lat="42.430713000" lon="-2.549557000">
        <ele>473.10</ele>
        <time>2016-10-29T05:50:13Z</time>
      </trkpt>
      <trkpt lat="42.430699000" lon="-2.549605000">
        <ele>472.90</ele>
        <time>2016-10-29T05:50:14Z</time>
      </trkpt>
      <trkpt lat="42.430684000" lon="-2.549651000">
        <ele>473.00</ele>
        <time>2016-10-29T05:50:15Z</time>
      </trkpt>
      <trkpt lat="42.430669000" lon="-2.549703000">
        <ele>473.00</ele>
        <time>2016-10-29T05:50:16Z</time>
      </trkpt>
      <trkpt lat="42.430654000" lon="-2.549755000">
        <ele>473.00</ele>
        <time>2016-10-29T05:50:17Z</time>
      </trkpt>
      <trkpt lat="42.430640000" lon="-2.549807000">
        <ele>473.00</ele>
        <time>2016-10-29T05:50:18Z</time>
      </trkpt>
      <trkpt lat="42.430625000" lon="-2.549861000">
        <ele>473.00</ele>
        <time>2016-10-29T05:50:19Z</time>
      </trkpt>
      <trkpt lat="42.430611000" lon="-2.549913000">
        <ele>473.00</ele>
        <time>2016-10-29T05:50:20Z</time>
      </trkpt>
      <trkpt lat="42.430595000" lon="-2.549968000">
        <ele>473.10</ele>
        <time>2016-10-29T05:50:21Z</time>
      </trkpt>
      <trkpt lat="42.430577000" lon="-2.550026000">
        <ele>473.20</ele>
        <time>2016-10-29T05:50:22Z</time>
      </trkpt>
      <trkpt lat="42.430562000" lon="-2.550078000">
        <ele>473.00</ele>
        <time>2016-10-29T05:50:23Z</time>
      </trkpt>
      <trkpt lat="42.430548000" lon="-2.550129000">
        <ele>472.90</ele>
        <time>2016-10-29T05:50:24Z</time>
      </trkpt>
      <trkpt lat="42.430531000" lon="-2.550182000">
        <ele>473.00</ele>
        <time>2016-10-29T05:50:25Z</time>
      </trkpt>
      <trkpt lat="42.430516000" lon="-2.550235000">
        <ele>473.10</ele>
        <time>2016-10-29T05:50:26Z</time>
      </trkpt>
      <trkpt lat="42.430504000" lon="-2.550286000">
        <ele>473.10</ele>
        <time>2016-10-29T05:50:27Z</time>
      </trkpt>
      <trkpt lat="42.430492000" lon="-2.550337000">
        <ele>473.00</ele>
        <time>2016-10-29T05:50:28Z</time>
      </trkpt>
      <trkpt lat="42.430483000" lon="-2.550391000">
        <ele>473.00</ele>
        <time>2016-10-29T05:50:29Z</time>
      </trkpt>
      <trkpt lat="42.430473000" lon="-2.550444000">
        <ele>473.00</ele>
        <time>2016-10-29T05:50:30Z</time>
      </trkpt>
      <trkpt lat="42.430465000" lon="-2.550500000">
        <ele>473.00</ele>
        <time>2016-10-29T05:50:31Z</time>
      </trkpt>
      <trkpt lat="42.430451000" lon="-2.550605000">
        <ele>473.00</ele>
        <time>2016-10-29T05:50:33Z</time>
      </trkpt>
      <trkpt lat="42.430447000" lon="-2.550656000">
        <ele>473.00</ele>
        <time>2016-10-29T05:50:34Z</time>
      </trkpt>
      <trkpt lat="42.430442000" lon="-2.550706000">
        <ele>473.00</ele>
        <time>2016-10-29T05:50:35Z</time>
      </trkpt>
      <trkpt lat="42.430433000" lon="-2.550756000">
        <ele>473.00</ele>
        <time>2016-10-29T05:50:36Z</time>
      </trkpt>
      <trkpt lat="42.430424000" lon="-2.550806000">
        <ele>473.00</ele>
        <time>2016-10-29T05:50:37Z</time>
      </trkpt>
      <trkpt lat="42.430413000" lon="-2.550855000">
        <ele>473.00</ele>
        <time>2016-10-29T05:50:38Z</time>
      </trkpt>
      <trkpt lat="42.430403000" lon="-2.550904000">
        <ele>473.00</ele>
        <time>2016-10-29T05:50:39Z</time>
      </trkpt>
      <trkpt lat="42.430389000" lon="-2.550954000">
        <ele>473.00</ele>
        <time>2016-10-29T05:50:40Z</time>
      </trkpt>
      <trkpt lat="42.430377000" lon="-2.551003000">
        <ele>472.90</ele>
        <time>2016-10-29T05:50:41Z</time>
      </trkpt>
      <trkpt lat="42.430363000" lon="-2.551050000">
        <ele>472.90</ele>
        <time>2016-10-29T05:50:42Z</time>
      </trkpt>
      <trkpt lat="42.430351000" lon="-2.551096000">
        <ele>472.80</ele>
        <time>2016-10-29T05:50:43Z</time>
      </trkpt>
      <trkpt lat="42.430335000" lon="-2.551146000">
        <ele>472.80</ele>
        <time>2016-10-29T05:50:44Z</time>
      </trkpt>
      <trkpt lat="42.430317000" lon="-2.551194000">
        <ele>472.80</ele>
        <time>2016-10-29T05:50:45Z</time>
      </trkpt>
      <trkpt lat="42.430300000" lon="-2.551242000">
        <ele>472.90</ele>
        <time>2016-10-29T05:50:46Z</time>
      </trkpt>
      <trkpt lat="42.430285000" lon="-2.551293000">
        <ele>472.90</ele>
        <time>2016-10-29T05:50:47Z</time>
      </trkpt>
      <trkpt lat="42.430268000" lon="-2.551342000">
        <ele>472.90</ele>
        <time>2016-10-29T05:50:48Z</time>
      </trkpt>
      <trkpt lat="42.430250000" lon="-2.551393000">
        <ele>473.00</ele>
        <time>2016-10-29T05:50:49Z</time>
      </trkpt>
      <trkpt lat="42.430232000" lon="-2.551438000">
        <ele>473.00</ele>
        <time>2016-10-29T05:50:50Z</time>
      </trkpt>
      <trkpt lat="42.430218000" lon="-2.551488000">
        <ele>473.10</ele>
        <time>2016-10-29T05:50:51Z</time>
      </trkpt>
      <trkpt lat="42.430200000" lon="-2.551536000">
        <ele>473.10</ele>
        <time>2016-10-29T05:50:52Z</time>
      </trkpt>
      <trkpt lat="42.430181000" lon="-2.551587000">
        <ele>473.20</ele>
        <time>2016-10-29T05:50:53Z</time>
      </trkpt>
      <trkpt lat="42.430163000" lon="-2.551635000">
        <ele>473.30</ele>
        <time>2016-10-29T05:50:54Z</time>
      </trkpt>
      <trkpt lat="42.430142000" lon="-2.551682000">
        <ele>473.40</ele>
        <time>2016-10-29T05:50:55Z</time>
      </trkpt>
      <trkpt lat="42.430121000" lon="-2.551725000">
        <ele>473.50</ele>
        <time>2016-10-29T05:50:56Z</time>
      </trkpt>
      <trkpt lat="42.430102000" lon="-2.551768000">
        <ele>473.40</ele>
        <time>2016-10-29T05:50:57Z</time>
      </trkpt>
      <trkpt lat="42.430083000" lon="-2.551813000">
        <ele>473.30</ele>
        <time>2016-10-29T05:50:58Z</time>
      </trkpt>
      <trkpt lat="42.430062000" lon="-2.551855000">
        <ele>473.30</ele>
        <time>2016-10-29T05:50:59Z</time>
      </trkpt>
      <trkpt lat="42.430041000" lon="-2.551896000">
        <ele>473.30</ele>
        <time>2016-10-29T05:51:00Z</time>
      </trkpt>
      <trkpt lat="42.430015000" lon="-2.551932000">
        <ele>473.30</ele>
        <time>2016-10-29T05:51:01Z</time>
      </trkpt>
      <trkpt lat="42.429986000" lon="-2.551964000">
        <ele>473.20</ele>
        <time>2016-10-29T05:51:02Z</time>
      </trkpt>
      <trkpt lat="42.429958000" lon="-2.551992000">
        <ele>473.40</ele>
        <time>2016-10-29T05:51:03Z</time>
      </trkpt>
      <trkpt lat="42.429926000" lon="-2.552016000">
        <ele>473.40</ele>
        <time>2016-10-29T05:51:04Z</time>
      </trkpt>
      <trkpt lat="42.429894000" lon="-2.552037000">
        <ele>473.50</ele>
        <time>2016-10-29T05:51:05Z</time>
      </trkpt>
      <trkpt lat="42.429859000" lon="-2.552055000">
        <ele>473.50</ele>
        <time>2016-10-29T05:51:06Z</time>
      </trkpt>
      <trkpt lat="42.429825000" lon="-2.552067000">
        <ele>473.60</ele>
        <time>2016-10-29T05:51:07Z</time>
      </trkpt>
      <trkpt lat="42.429791000" lon="-2.552082000">
        <ele>473.60</ele>
        <time>2016-10-29T05:51:08Z</time>
      </trkpt>
      <trkpt lat="42.429756000" lon="-2.552096000">
        <ele>473.60</ele>
        <time>2016-10-29T05:51:09Z</time>
      </trkpt>
      <trkpt lat="42.429722000" lon="-2.552120000">
        <ele>473.60</ele>
        <time>2016-10-29T05:51:10Z</time>
      </trkpt>
      <trkpt lat="42.429690000" lon="-2.552144000">
        <ele>473.60</ele>
        <time>2016-10-29T05:51:11Z</time>
      </trkpt>
      <trkpt lat="42.429663000" lon="-2.552179000">
        <ele>473.60</ele>
        <time>2016-10-29T05:51:12Z</time>
      </trkpt>
      <trkpt lat="42.429642000" lon="-2.552225000">
        <ele>473.60</ele>
        <time>2016-10-29T05:51:13Z</time>
      </trkpt>
      <trkpt lat="42.429629000" lon="-2.552276000">
        <ele>473.70</ele>
        <time>2016-10-29T05:51:14Z</time>
      </trkpt>
      <trkpt lat="42.429627000" lon="-2.552328000">
        <ele>473.80</ele>
        <time>2016-10-29T05:51:15Z</time>
      </trkpt>
      <trkpt lat="42.429630000" lon="-2.552380000">
        <ele>473.90</ele>
        <time>2016-10-29T05:51:16Z</time>
      </trkpt>
      <trkpt lat="42.429640000" lon="-2.552430000">
        <ele>474.00</ele>
        <time>2016-10-29T05:51:17Z</time>
      </trkpt>
      <trkpt lat="42.429659000" lon="-2.552477000">
        <ele>474.00</ele>
        <time>2016-10-29T05:51:18Z</time>
      </trkpt>
      <trkpt lat="42.429682000" lon="-2.552519000">
        <ele>474.10</ele>
        <time>2016-10-29T05:51:19Z</time>
      </trkpt>
      <trkpt lat="42.429704000" lon="-2.552562000">
        <ele>474.10</ele>
        <time>2016-10-29T05:51:20Z</time>
      </trkpt>
      <trkpt lat="42.429725000" lon="-2.552601000">
        <ele>474.10</ele>
        <time>2016-10-29T05:51:21Z</time>
      </trkpt>
      <trkpt lat="42.429747000" lon="-2.552637000">
        <ele>474.10</ele>
        <time>2016-10-29T05:51:22Z</time>
      </trkpt>
      <trkpt lat="42.429769000" lon="-2.552677000">
        <ele>474.10</ele>
        <time>2016-10-29T05:51:23Z</time>
      </trkpt>
      <trkpt lat="42.429789000" lon="-2.552722000">
        <ele>474.10</ele>
        <time>2016-10-29T05:51:24Z</time>
      </trkpt>
      <trkpt lat="42.429808000" lon="-2.552767000">
        <ele>474.20</ele>
        <time>2016-10-29T05:51:25Z</time>
      </trkpt>
      <trkpt lat="42.429821000" lon="-2.552813000">
        <ele>474.20</ele>
        <time>2016-10-29T05:51:26Z</time>
      </trkpt>
      <trkpt lat="42.429831000" lon="-2.552861000">
        <ele>474.30</ele>
        <time>2016-10-29T05:51:27Z</time>
      </trkpt>
      <trkpt lat="42.429840000" lon="-2.552909000">
        <ele>474.40</ele>
        <time>2016-10-29T05:51:28Z</time>
      </trkpt>
      <trkpt lat="42.429851000" lon="-2.552961000">
        <ele>474.30</ele>
        <time>2016-10-29T05:51:29Z</time>
      </trkpt>
      <trkpt lat="42.429861000" lon="-2.553022000">
        <ele>474.30</ele>
        <time>2016-10-29T05:51:30Z</time>
      </trkpt>
      <trkpt lat="42.429866000" lon="-2.553078000">
        <ele>474.30</ele>
        <time>2016-10-29T05:51:31Z</time>
      </trkpt>
      <trkpt lat="42.429871000" lon="-2.553132000">
        <ele>474.20</ele>
        <time>2016-10-29T05:51:32Z</time>
      </trkpt>
      <trkpt lat="42.429883000" lon="-2.553239000">
        <ele>474.10</ele>
        <time>2016-10-29T05:51:34Z</time>
      </trkpt>
      <trkpt lat="42.429887000" lon="-2.553293000">
        <ele>474.10</ele>
        <time>2016-10-29T05:51:35Z</time>
      </trkpt>
      <trkpt lat="42.429891000" lon="-2.553345000">
        <ele>474.00</ele>
        <time>2016-10-29T05:51:36Z</time>
      </trkpt>
      <trkpt lat="42.429894000" lon="-2.553397000">
        <ele>473.90</ele>
        <time>2016-10-29T05:51:37Z</time>
      </trkpt>
      <trkpt lat="42.429899000" lon="-2.553451000">
        <ele>473.90</ele>
        <time>2016-10-29T05:51:38Z</time>
      </trkpt>
      <trkpt lat="42.429901000" lon="-2.553507000">
        <ele>473.80</ele>
        <time>2016-10-29T05:51:39Z</time>
      </trkpt>
      <trkpt lat="42.429901000" lon="-2.553565000">
        <ele>473.80</ele>
        <time>2016-10-29T05:51:40Z</time>
      </trkpt>
      <trkpt lat="42.429899000" lon="-2.553625000">
        <ele>473.80</ele>
        <time>2016-10-29T05:51:41Z</time>
      </trkpt>
      <trkpt lat="42.429897000" lon="-2.553681000">
        <ele>473.70</ele>
        <time>2016-10-29T05:51:42Z</time>
      </trkpt>
      <trkpt lat="42.429897000" lon="-2.553732000">
        <ele>473.70</ele>
        <time>2016-10-29T05:51:43Z</time>
      </trkpt>
      <trkpt lat="42.429895000" lon="-2.553787000">
        <ele>473.70</ele>
        <time>2016-10-29T05:51:44Z</time>
      </trkpt>
      <trkpt lat="42.429891000" lon="-2.553839000">
        <ele>473.70</ele>
        <time>2016-10-29T05:51:45Z</time>
      </trkpt>
      <trkpt lat="42.429886000" lon="-2.553891000">
        <ele>473.70</ele>
        <time>2016-10-29T05:51:46Z</time>
      </trkpt>
      <trkpt lat="42.429880000" lon="-2.553942000">
        <ele>473.70</ele>
        <time>2016-10-29T05:51:47Z</time>
      </trkpt>
      <trkpt lat="42.429875000" lon="-2.553993000">
        <ele>473.80</ele>
        <time>2016-10-29T05:51:48Z</time>
      </trkpt>
      <trkpt lat="42.429869000" lon="-2.554046000">
        <ele>474.00</ele>
        <time>2016-10-29T05:51:49Z</time>
      </trkpt>
      <trkpt lat="42.429862000" lon="-2.554097000">
        <ele>474.10</ele>
        <time>2016-10-29T05:51:50Z</time>
      </trkpt>
      <trkpt lat="42.429854000" lon="-2.554151000">
        <ele>474.10</ele>
        <time>2016-10-29T05:51:51Z</time>
      </trkpt>
      <trkpt lat="42.429848000" lon="-2.554208000">
        <ele>474.10</ele>
        <time>2016-10-29T05:51:52Z</time>
      </trkpt>
      <trkpt lat="42.429842000" lon="-2.554262000">
        <ele>474.30</ele>
        <time>2016-10-29T05:51:53Z</time>
      </trkpt>
      <trkpt lat="42.429836000" lon="-2.554316000">
        <ele>474.40</ele>
        <time>2016-10-29T05:51:54Z</time>
      </trkpt>
      <trkpt lat="42.429831000" lon="-2.554370000">
        <ele>474.50</ele>
        <time>2016-10-29T05:51:55Z</time>
      </trkpt>
      <trkpt lat="42.429823000" lon="-2.554422000">
        <ele>474.50</ele>
        <time>2016-10-29T05:51:56Z</time>
      </trkpt>
      <trkpt lat="42.429818000" lon="-2.554474000">
        <ele>474.70</ele>
        <time>2016-10-29T05:51:57Z</time>
      </trkpt>
      <trkpt lat="42.429812000" lon="-2.554525000">
        <ele>474.80</ele>
        <time>2016-10-29T05:51:58Z</time>
      </trkpt>
      <trkpt lat="42.429807000" lon="-2.554576000">
        <ele>474.90</ele>
        <time>2016-10-29T05:51:59Z</time>
      </trkpt>
      <trkpt lat="42.429803000" lon="-2.554626000">
        <ele>474.90</ele>
        <time>2016-10-29T05:52:00Z</time>
      </trkpt>
      <trkpt lat="42.429797000" lon="-2.554674000">
        <ele>475.00</ele>
        <time>2016-10-29T05:52:01Z</time>
      </trkpt>
      <trkpt lat="42.429793000" lon="-2.554723000">
        <ele>475.10</ele>
        <time>2016-10-29T05:52:02Z</time>
      </trkpt>
      <trkpt lat="42.429788000" lon="-2.554774000">
        <ele>475.30</ele>
        <time>2016-10-29T05:52:03Z</time>
      </trkpt>
      <trkpt lat="42.429781000" lon="-2.554822000">
        <ele>475.30</ele>
        <time>2016-10-29T05:52:04Z</time>
      </trkpt>
      <trkpt lat="42.429777000" lon="-2.554870000">
        <ele>475.40</ele>
        <time>2016-10-29T05:52:05Z</time>
      </trkpt>
      <trkpt lat="42.429768000" lon="-2.554919000">
        <ele>475.50</ele>
        <time>2016-10-29T05:52:06Z</time>
      </trkpt>
      <trkpt lat="42.429759000" lon="-2.554965000">
        <ele>475.70</ele>
        <time>2016-10-29T05:52:07Z</time>
      </trkpt>
      <trkpt lat="42.429751000" lon="-2.555009000">
        <ele>475.90</ele>
        <time>2016-10-29T05:52:08Z</time>
      </trkpt>
      <trkpt lat="42.429740000" lon="-2.555053000">
        <ele>476.20</ele>
        <time>2016-10-29T05:52:09Z</time>
      </trkpt>
      <trkpt lat="42.429729000" lon="-2.555095000">
        <ele>476.50</ele>
        <time>2016-10-29T05:52:10Z</time>
      </trkpt>
      <trkpt lat="42.429719000" lon="-2.555137000">
        <ele>476.60</ele>
        <time>2016-10-29T05:52:11Z</time>
      </trkpt>
      <trkpt lat="42.429710000" lon="-2.555179000">
        <ele>476.80</ele>
        <time>2016-10-29T05:52:12Z</time>
      </trkpt>
      <trkpt lat="42.429703000" lon="-2.555222000">
        <ele>476.90</ele>
        <time>2016-10-29T05:52:13Z</time>
      </trkpt>
      <trkpt lat="42.429696000" lon="-2.555261000">
        <ele>477.10</ele>
        <time>2016-10-29T05:52:14Z</time>
      </trkpt>
      <trkpt lat="42.429690000" lon="-2.555305000">
        <ele>477.30</ele>
        <time>2016-10-29T05:52:15Z</time>
      </trkpt>
      <trkpt lat="42.429682000" lon="-2.555347000">
        <ele>477.50</ele>
        <time>2016-10-29T05:52:16Z</time>
      </trkpt>
      <trkpt lat="42.429674000" lon="-2.555391000">
        <ele>477.60</ele>
        <time>2016-10-29T05:52:17Z</time>
      </trkpt>
      <trkpt lat="42.429668000" lon="-2.555436000">
        <ele>477.70</ele>
        <time>2016-10-29T05:52:18Z</time>
      </trkpt>
      <trkpt lat="42.429660000" lon="-2.555481000">
        <ele>477.90</ele>
        <time>2016-10-29T05:52:19Z</time>
      </trkpt>
      <trkpt lat="42.429649000" lon="-2.555525000">
        <ele>478.10</ele>
        <time>2016-10-29T05:52:20Z</time>
      </trkpt>
      <trkpt lat="42.429643000" lon="-2.555568000">
        <ele>478.30</ele>
        <time>2016-10-29T05:52:21Z</time>
      </trkpt>
      <trkpt lat="42.429636000" lon="-2.555612000">
        <ele>478.40</ele>
        <time>2016-10-29T05:52:22Z</time>
      </trkpt>
      <trkpt lat="42.429633000" lon="-2.555656000">
        <ele>478.50</ele>
        <time>2016-10-29T05:52:23Z</time>
      </trkpt>
      <trkpt lat="42.429626000" lon="-2.555703000">
        <ele>478.50</ele>
        <time>2016-10-29T05:52:24Z</time>
      </trkpt>
      <trkpt lat="42.429619000" lon="-2.555748000">
        <ele>478.60</ele>
        <time>2016-10-29T05:52:25Z</time>
      </trkpt>
      <trkpt lat="42.429613000" lon="-2.555794000">
        <ele>478.60</ele>
        <time>2016-10-29T05:52:26Z</time>
      </trkpt>
      <trkpt lat="42.429610000" lon="-2.555839000">
        <ele>478.90</ele>
        <time>2016-10-29T05:52:27Z</time>
      </trkpt>
      <trkpt lat="42.429606000" lon="-2.555882000">
        <ele>479.10</ele>
        <time>2016-10-29T05:52:28Z</time>
      </trkpt>
      <trkpt lat="42.429601000" lon="-2.555924000">
        <ele>479.40</ele>
        <time>2016-10-29T05:52:29Z</time>
      </trkpt>
      <trkpt lat="42.429598000" lon="-2.555966000">
        <ele>479.60</ele>
        <time>2016-10-29T05:52:30Z</time>
      </trkpt>
      <trkpt lat="42.429594000" lon="-2.556008000">
        <ele>479.80</ele>
        <time>2016-10-29T05:52:31Z</time>
      </trkpt>
      <trkpt lat="42.429594000" lon="-2.556050000">
        <ele>480.00</ele>
        <time>2016-10-29T05:52:32Z</time>
      </trkpt>
      <trkpt lat="42.429590000" lon="-2.556093000">
        <ele>480.20</ele>
        <time>2016-10-29T05:52:33Z</time>
      </trkpt>
      <trkpt lat="42.429585000" lon="-2.556172000">
        <ele>480.80</ele>
        <time>2016-10-29T05:52:35Z</time>
      </trkpt>
      <trkpt lat="42.429581000" lon="-2.556214000">
        <ele>481.10</ele>
        <time>2016-10-29T05:52:36Z</time>
      </trkpt>
      <trkpt lat="42.429579000" lon="-2.556257000">
        <ele>481.40</ele>
        <time>2016-10-29T05:52:37Z</time>
      </trkpt>
      <trkpt lat="42.429574000" lon="-2.556299000">
        <ele>481.70</ele>
        <time>2016-10-29T05:52:38Z</time>
      </trkpt>
      <trkpt lat="42.429570000" lon="-2.556343000">
        <ele>482.00</ele>
        <time>2016-10-29T05:52:39Z</time>
      </trkpt>
      <trkpt lat="42.429567000" lon="-2.556384000">
        <ele>482.20</ele>
        <time>2016-10-29T05:52:40Z</time>
      </trkpt>
      <trkpt lat="42.429565000" lon="-2.556427000">
        <ele>482.40</ele>
        <time>2016-10-29T05:52:41Z</time>
      </trkpt>
      <trkpt lat="42.429563000" lon="-2.556468000">
        <ele>482.60</ele>
        <time>2016-10-29T05:52:42Z</time>
      </trkpt>
      <trkpt lat="42.429560000" lon="-2.556511000">
        <ele>482.80</ele>
        <time>2016-10-29T05:52:43Z</time>
      </trkpt>
      <trkpt lat="42.429554000" lon="-2.556555000">
        <ele>483.00</ele>
        <time>2016-10-29T05:52:44Z</time>
      </trkpt>
      <trkpt lat="42.429552000" lon="-2.556594000">
        <ele>483.20</ele>
        <time>2016-10-29T05:52:45Z</time>
      </trkpt>
      <trkpt lat="42.429548000" lon="-2.556632000">
        <ele>483.30</ele>
        <time>2016-10-29T05:52:46Z</time>
      </trkpt>
      <trkpt lat="42.429548000" lon="-2.556667000">
        <ele>483.70</ele>
        <time>2016-10-29T05:52:47Z</time>
      </trkpt>
      <trkpt lat="42.429547000" lon="-2.556701000">
        <ele>484.00</ele>
        <time>2016-10-29T05:52:48Z</time>
      </trkpt>
      <trkpt lat="42.429549000" lon="-2.556738000">
        <ele>484.10</ele>
        <time>2016-10-29T05:52:49Z</time>
      </trkpt>
      <trkpt lat="42.429548000" lon="-2.556772000">
        <ele>484.30</ele>
        <time>2016-10-29T05:52:50Z</time>
      </trkpt>
      <trkpt lat="42.429543000" lon="-2.556804000">
        <ele>484.50</ele>
        <time>2016-10-29T05:52:51Z</time>
      </trkpt>
      <trkpt lat="42.429537000" lon="-2.556833000">
        <ele>484.70</ele>
        <time>2016-10-29T05:52:52Z</time>
      </trkpt>
      <trkpt lat="42.429527000" lon="-2.556863000">
        <ele>484.90</ele>
        <time>2016-10-29T05:52:53Z</time>
      </trkpt>
      <trkpt lat="42.429509000" lon="-2.556890000">
        <ele>485.10</ele>
        <time>2016-10-29T05:52:54Z</time>
      </trkpt>
      <trkpt lat="42.429482000" lon="-2.556910000">
        <ele>485.20</ele>
        <time>2016-10-29T05:52:55Z</time>
      </trkpt>
      <trkpt lat="42.429462000" lon="-2.556932000">
        <ele>485.40</ele>
        <time>2016-10-29T05:52:56Z</time>
      </trkpt>
      <trkpt lat="42.429434000" lon="-2.556949000">
        <ele>485.50</ele>
        <time>2016-10-29T05:52:57Z</time>
      </trkpt>
      <trkpt lat="42.429407000" lon="-2.556967000">
        <ele>485.70</ele>
        <time>2016-10-29T05:52:58Z</time>
      </trkpt>
      <trkpt lat="42.429378000" lon="-2.556982000">
        <ele>485.90</ele>
        <time>2016-10-29T05:52:59Z</time>
      </trkpt>
      <trkpt lat="42.429351000" lon="-2.557000000">
        <ele>486.00</ele>
        <time>2016-10-29T05:53:00Z</time>
      </trkpt>
      <trkpt lat="42.429323000" lon="-2.557018000">
        <ele>486.20</ele>
        <time>2016-10-29T05:53:01Z</time>
      </trkpt>
      <trkpt lat="42.429298000" lon="-2.557037000">
        <ele>486.30</ele>
        <time>2016-10-29T05:53:02Z</time>
      </trkpt>
      <trkpt lat="42.429271000" lon="-2.557058000">
        <ele>486.50</ele>
        <time>2016-10-29T05:53:03Z</time>
      </trkpt>
      <trkpt lat="42.429247000" lon="-2.557082000">
        <ele>486.70</ele>
        <time>2016-10-29T05:53:04Z</time>
      </trkpt>
      <trkpt lat="42.429228000" lon="-2.557108000">
        <ele>486.90</ele>
        <time>2016-10-29T05:53:05Z</time>
      </trkpt>
      <trkpt lat="42.429215000" lon="-2.557137000">
        <ele>487.10</ele>
        <time>2016-10-29T05:53:06Z</time>
      </trkpt>
      <trkpt lat="42.429201000" lon="-2.557164000">
        <ele>487.30</ele>
        <time>2016-10-29T05:53:07Z</time>
      </trkpt>
      <trkpt lat="42.429189000" lon="-2.557199000">
        <ele>487.50</ele>
        <time>2016-10-29T05:53:08Z</time>
      </trkpt>
      <trkpt lat="42.429180000" lon="-2.557237000">
        <ele>487.70</ele>
        <time>2016-10-29T05:53:09Z</time>
      </trkpt>
      <trkpt lat="42.429168000" lon="-2.557276000">
        <ele>487.90</ele>
        <time>2016-10-29T05:53:10Z</time>
      </trkpt>
      <trkpt lat="42.429156000" lon="-2.557317000">
        <ele>488.10</ele>
        <time>2016-10-29T05:53:11Z</time>
      </trkpt>
      <trkpt lat="42.429149000" lon="-2.557357000">
        <ele>488.20</ele>
        <time>2016-10-29T05:53:12Z</time>
      </trkpt>
      <trkpt lat="42.429140000" lon="-2.557392000">
        <ele>488.30</ele>
        <time>2016-10-29T05:53:13Z</time>
      </trkpt>
      <trkpt lat="42.429133000" lon="-2.557426000">
        <ele>488.40</ele>
        <time>2016-10-29T05:53:14Z</time>
      </trkpt>
      <trkpt lat="42.429129000" lon="-2.557458000">
        <ele>488.80</ele>
        <time>2016-10-29T05:53:15Z</time>
      </trkpt>
      <trkpt lat="42.429125000" lon="-2.557493000">
        <ele>489.00</ele>
        <time>2016-10-29T05:53:16Z</time>
      </trkpt>
      <trkpt lat="42.429126000" lon="-2.557531000">
        <ele>489.20</ele>
        <time>2016-10-29T05:53:17Z</time>
      </trkpt>
      <trkpt lat="42.429127000" lon="-2.557568000">
        <ele>489.30</ele>
        <time>2016-10-29T05:53:18Z</time>
      </trkpt>
      <trkpt lat="42.429126000" lon="-2.557606000">
        <ele>489.50</ele>
        <time>2016-10-29T05:53:19Z</time>
      </trkpt>
      <trkpt lat="42.429123000" lon="-2.557644000">
        <ele>489.70</ele>
        <time>2016-10-29T05:53:20Z</time>
      </trkpt>
      <trkpt lat="42.429119000" lon="-2.557679000">
        <ele>489.90</ele>
        <time>2016-10-29T05:53:21Z</time>
      </trkpt>
      <trkpt lat="42.429114000" lon="-2.557714000">
        <ele>490.00</ele>
        <time>2016-10-29T05:53:22Z</time>
      </trkpt>
      <trkpt lat="42.429111000" lon="-2.557748000">
        <ele>490.20</ele>
        <time>2016-10-29T05:53:23Z</time>
      </trkpt>
      <trkpt lat="42.429104000" lon="-2.557781000">
        <ele>490.20</ele>
        <time>2016-10-29T05:53:24Z</time>
      </trkpt>
      <trkpt lat="42.429097000" lon="-2.557813000">
        <ele>490.40</ele>
        <time>2016-10-29T05:53:25Z</time>
      </trkpt>
      <trkpt lat="42.429093000" lon="-2.557847000">
        <ele>490.50</ele>
        <time>2016-10-29T05:53:26Z</time>
      </trkpt>
      <trkpt lat="42.429089000" lon="-2.557883000">
        <ele>490.50</ele>
        <time>2016-10-29T05:53:27Z</time>
      </trkpt>
      <trkpt lat="42.429086000" lon="-2.557921000">
        <ele>490.60</ele>
        <time>2016-10-29T05:53:28Z</time>
      </trkpt>
      <trkpt lat="42.429082000" lon="-2.557959000">
        <ele>490.80</ele>
        <time>2016-10-29T05:53:29Z</time>
      </trkpt>
      <trkpt lat="42.429077000" lon="-2.557997000">
        <ele>491.00</ele>
        <time>2016-10-29T05:53:30Z</time>
      </trkpt>
      <trkpt lat="42.429073000" lon="-2.558034000">
        <ele>491.20</ele>
        <time>2016-10-29T05:53:31Z</time>
      </trkpt>
      <trkpt lat="42.429068000" lon="-2.558069000">
        <ele>491.30</ele>
        <time>2016-10-29T05:53:32Z</time>
      </trkpt>
      <trkpt lat="42.429065000" lon="-2.558106000">
        <ele>491.50</ele>
        <time>2016-10-29T05:53:33Z</time>
      </trkpt>
      <trkpt lat="42.429061000" lon="-2.558141000">
        <ele>491.60</ele>
        <time>2016-10-29T05:53:34Z</time>
      </trkpt>
      <trkpt lat="42.429052000" lon="-2.558216000">
        <ele>491.90</ele>
        <time>2016-10-29T05:53:36Z</time>
      </trkpt>
      <trkpt lat="42.429048000" lon="-2.558253000">
        <ele>492.10</ele>
        <time>2016-10-29T05:53:37Z</time>
      </trkpt>
      <trkpt lat="42.429044000" lon="-2.558289000">
        <ele>492.30</ele>
        <time>2016-10-29T05:53:38Z</time>
      </trkpt>
      <trkpt lat="42.429040000" lon="-2.558323000">
        <ele>492.50</ele>
        <time>2016-10-29T05:53:39Z</time>
      </trkpt>
      <trkpt lat="42.429037000" lon="-2.558358000">
        <ele>492.60</ele>
        <time>2016-10-29T05:53:40Z</time>
      </trkpt>
      <trkpt lat="42.429041000" lon="-2.558392000">
        <ele>492.70</ele>
        <time>2016-10-29T05:53:41Z</time>
      </trkpt>
      <trkpt lat="42.429038000" lon="-2.558433000">
        <ele>492.80</ele>
        <time>2016-10-29T05:53:42Z</time>
      </trkpt>
      <trkpt lat="42.429034000" lon="-2.558473000">
        <ele>492.90</ele>
        <time>2016-10-29T05:53:43Z</time>
      </trkpt>
      <trkpt lat="42.429028000" lon="-2.558517000">
        <ele>493.00</ele>
        <time>2016-10-29T05:53:44Z</time>
      </trkpt>
      <trkpt lat="42.429019000" lon="-2.558560000">
        <ele>493.10</ele>
        <time>2016-10-29T05:53:45Z</time>
      </trkpt>
      <trkpt lat="42.429012000" lon="-2.558604000">
        <ele>493.10</ele>
        <time>2016-10-29T05:53:46Z</time>
      </trkpt>
      <trkpt lat="42.429006000" lon="-2.558647000">
        <ele>493.30</ele>
        <time>2016-10-29T05:53:47Z</time>
      </trkpt>
      <trkpt lat="42.429002000" lon="-2.558686000">
        <ele>493.40</ele>
        <time>2016-10-29T05:53:48Z</time>
      </trkpt>
      <trkpt lat="42.428998000" lon="-2.558724000">
        <ele>493.50</ele>
        <time>2016-10-29T05:53:49Z</time>
      </trkpt>
      <trkpt lat="42.428993000" lon="-2.558761000">
        <ele>493.60</ele>
        <time>2016-10-29T05:53:50Z</time>
      </trkpt>
      <trkpt lat="42.428988000" lon="-2.558797000">
        <ele>493.80</ele>
        <time>2016-10-29T05:53:51Z</time>
      </trkpt>
      <trkpt lat="42.428985000" lon="-2.558837000">
        <ele>493.90</ele>
        <time>2016-10-29T05:53:52Z</time>
      </trkpt>
      <trkpt lat="42.428979000" lon="-2.558877000">
        <ele>494.00</ele>
        <time>2016-10-29T05:53:53Z</time>
      </trkpt>
      <trkpt lat="42.428974000" lon="-2.558913000">
        <ele>494.10</ele>
        <time>2016-10-29T05:53:54Z</time>
      </trkpt>
      <trkpt lat="42.428968000" lon="-2.558955000">
        <ele>494.20</ele>
        <time>2016-10-29T05:53:55Z</time>
      </trkpt>
      <trkpt lat="42.428962000" lon="-2.558996000">
        <ele>494.30</ele>
        <time>2016-10-29T05:53:56Z</time>
      </trkpt>
      <trkpt lat="42.428957000" lon="-2.559033000">
        <ele>494.50</ele>
        <time>2016-10-29T05:53:57Z</time>
      </trkpt>
      <trkpt lat="42.428951000" lon="-2.559076000">
        <ele>494.60</ele>
        <time>2016-10-29T05:53:58Z</time>
      </trkpt>
      <trkpt lat="42.428943000" lon="-2.559119000">
        <ele>494.70</ele>
        <time>2016-10-29T05:53:59Z</time>
      </trkpt>
      <trkpt lat="42.428940000" lon="-2.559163000">
        <ele>494.80</ele>
        <time>2016-10-29T05:54:00Z</time>
      </trkpt>
      <trkpt lat="42.428937000" lon="-2.559205000">
        <ele>494.90</ele>
        <time>2016-10-29T05:54:01Z</time>
      </trkpt>
      <trkpt lat="42.428934000" lon="-2.559252000">
        <ele>494.90</ele>
        <time>2016-10-29T05:54:02Z</time>
      </trkpt>
      <trkpt lat="42.428928000" lon="-2.559292000">
        <ele>495.20</ele>
        <time>2016-10-29T05:54:03Z</time>
      </trkpt>
      <trkpt lat="42.428925000" lon="-2.559331000">
        <ele>495.40</ele>
        <time>2016-10-29T05:54:04Z</time>
      </trkpt>
      <trkpt lat="42.428922000" lon="-2.559372000">
        <ele>495.60</ele>
        <time>2016-10-29T05:54:05Z</time>
      </trkpt>
      <trkpt lat="42.428917000" lon="-2.559414000">
        <ele>495.70</ele>
        <time>2016-10-29T05:54:06Z</time>
      </trkpt>
      <trkpt lat="42.428912000" lon="-2.559454000">
        <ele>495.80</ele>
        <time>2016-10-29T05:54:07Z</time>
      </trkpt>
      <trkpt lat="42.428907000" lon="-2.559496000">
        <ele>495.90</ele>
        <time>2016-10-29T05:54:08Z</time>
      </trkpt>
      <trkpt lat="42.428907000" lon="-2.559534000">
        <ele>495.90</ele>
        <time>2016-10-29T05:54:09Z</time>
      </trkpt>
      <trkpt lat="42.428915000" lon="-2.559575000">
        <ele>495.90</ele>
        <time>2016-10-29T05:54:10Z</time>
      </trkpt>
      <trkpt lat="42.428914000" lon="-2.559615000">
        <ele>495.90</ele>
        <time>2016-10-29T05:54:11Z</time>
      </trkpt>
      <trkpt lat="42.428911000" lon="-2.559653000">
        <ele>495.90</ele>
        <time>2016-10-29T05:54:12Z</time>
      </trkpt>
      <trkpt lat="42.428912000" lon="-2.559687000">
        <ele>496.10</ele>
        <time>2016-10-29T05:54:13Z</time>
      </trkpt>
      <trkpt lat="42.428913000" lon="-2.559731000">
        <ele>496.20</ele>
        <time>2016-10-29T05:54:14Z</time>
      </trkpt>
      <trkpt lat="42.428910000" lon="-2.559764000">
        <ele>496.40</ele>
        <time>2016-10-29T05:54:15Z</time>
      </trkpt>
      <trkpt lat="42.428907000" lon="-2.559803000">
        <ele>496.50</ele>
        <time>2016-10-29T05:54:16Z</time>
      </trkpt>
      <trkpt lat="42.428903000" lon="-2.559844000">
        <ele>496.60</ele>
        <time>2016-10-29T05:54:17Z</time>
      </trkpt>
      <trkpt lat="42.428900000" lon="-2.559884000">
        <ele>496.70</ele>
        <time>2016-10-29T05:54:18Z</time>
      </trkpt>
      <trkpt lat="42.428897000" lon="-2.559925000">
        <ele>496.80</ele>
        <time>2016-10-29T05:54:19Z</time>
      </trkpt>
      <trkpt lat="42.428891000" lon="-2.559965000">
        <ele>496.80</ele>
        <time>2016-10-29T05:54:20Z</time>
      </trkpt>
      <trkpt lat="42.428885000" lon="-2.560004000">
        <ele>496.90</ele>
        <time>2016-10-29T05:54:21Z</time>
      </trkpt>
      <trkpt lat="42.428884000" lon="-2.560044000">
        <ele>496.90</ele>
        <time>2016-10-29T05:54:22Z</time>
      </trkpt>
      <trkpt lat="42.428880000" lon="-2.560085000">
        <ele>497.00</ele>
        <time>2016-10-29T05:54:23Z</time>
      </trkpt>
      <trkpt lat="42.428875000" lon="-2.560123000">
        <ele>497.10</ele>
        <time>2016-10-29T05:54:24Z</time>
      </trkpt>
      <trkpt lat="42.428870000" lon="-2.560162000">
        <ele>497.10</ele>
        <time>2016-10-29T05:54:25Z</time>
      </trkpt>
      <trkpt lat="42.428862000" lon="-2.560204000">
        <ele>497.10</ele>
        <time>2016-10-29T05:54:26Z</time>
      </trkpt>
      <trkpt lat="42.428860000" lon="-2.560242000">
        <ele>497.20</ele>
        <time>2016-10-29T05:54:27Z</time>
      </trkpt>
      <trkpt lat="42.428856000" lon="-2.560283000">
        <ele>497.30</ele>
        <time>2016-10-29T05:54:28Z</time>
      </trkpt>
      <trkpt lat="42.428849000" lon="-2.560321000">
        <ele>497.50</ele>
        <time>2016-10-29T05:54:29Z</time>
      </trkpt>
      <trkpt lat="42.428844000" lon="-2.560355000">
        <ele>497.60</ele>
        <time>2016-10-29T05:54:30Z</time>
      </trkpt>
      <trkpt lat="42.428841000" lon="-2.560390000">
        <ele>497.90</ele>
        <time>2016-10-29T05:54:31Z</time>
      </trkpt>
      <trkpt lat="42.428838000" lon="-2.560423000">
        <ele>498.00</ele>
        <time>2016-10-29T05:54:32Z</time>
      </trkpt>
      <trkpt lat="42.428836000" lon="-2.560459000">
        <ele>498.20</ele>
        <time>2016-10-29T05:54:33Z</time>
      </trkpt>
      <trkpt lat="42.428834000" lon="-2.560493000">
        <ele>498.30</ele>
        <time>2016-10-29T05:54:34Z</time>
      </trkpt>
      <trkpt lat="42.428831000" lon="-2.560527000">
        <ele>498.30</ele>
        <time>2016-10-29T05:54:35Z</time>
      </trkpt>
      <trkpt lat="42.428828000" lon="-2.560599000">
        <ele>498.50</ele>
        <time>2016-10-29T05:54:37Z</time>
      </trkpt>
      <trkpt lat="42.428824000" lon="-2.560638000">
        <ele>498.60</ele>
        <time>2016-10-29T05:54:38Z</time>
      </trkpt>
      <trkpt lat="42.428818000" lon="-2.560671000">
        <ele>498.70</ele>
        <time>2016-10-29T05:54:39Z</time>
      </trkpt>
      <trkpt lat="42.428819000" lon="-2.560706000">
        <ele>498.80</ele>
        <time>2016-10-29T05:54:40Z</time>
      </trkpt>
      <trkpt lat="42.428818000" lon="-2.560742000">
        <ele>498.90</ele>
        <time>2016-10-29T05:54:41Z</time>
      </trkpt>
      <trkpt lat="42.428813000" lon="-2.560773000">
        <ele>498.90</ele>
        <time>2016-10-29T05:54:42Z</time>
      </trkpt>
      <trkpt lat="42.428808000" lon="-2.560809000">
        <ele>499.00</ele>
        <time>2016-10-29T05:54:43Z</time>
      </trkpt>
      <trkpt lat="42.428803000" lon="-2.560838000">
        <ele>499.10</ele>
        <time>2016-10-29T05:54:44Z</time>
      </trkpt>
      <trkpt lat="42.428801000" lon="-2.560873000">
        <ele>499.30</ele>
        <time>2016-10-29T05:54:45Z</time>
      </trkpt>
      <trkpt lat="42.428797000" lon="-2.560909000">
        <ele>499.50</ele>
        <time>2016-10-29T05:54:46Z</time>
      </trkpt>
      <trkpt lat="42.428796000" lon="-2.560945000">
        <ele>499.60</ele>
        <time>2016-10-29T05:54:47Z</time>
      </trkpt>
      <trkpt lat="42.428796000" lon="-2.560979000">
        <ele>499.70</ele>
        <time>2016-10-29T05:54:48Z</time>
      </trkpt>
      <trkpt lat="42.428796000" lon="-2.561011000">
        <ele>499.70</ele>
        <time>2016-10-29T05:54:49Z</time>
      </trkpt>
      <trkpt lat="42.428799000" lon="-2.561040000">
        <ele>499.80</ele>
        <time>2016-10-29T05:54:50Z</time>
      </trkpt>
      <trkpt lat="42.428804000" lon="-2.561067000">
        <ele>499.90</ele>
        <time>2016-10-29T05:54:51Z</time>
      </trkpt>
      <trkpt lat="42.428808000" lon="-2.561097000">
        <ele>500.00</ele>
        <time>2016-10-29T05:54:52Z</time>
      </trkpt>
      <trkpt lat="42.428814000" lon="-2.561127000">
        <ele>500.00</ele>
        <time>2016-10-29T05:54:53Z</time>
      </trkpt>
      <trkpt lat="42.428820000" lon="-2.561158000">
        <ele>500.10</ele>
        <time>2016-10-29T05:54:54Z</time>
      </trkpt>
      <trkpt lat="42.428825000" lon="-2.561187000">
        <ele>500.20</ele>
        <time>2016-10-29T05:54:55Z</time>
      </trkpt>
      <trkpt lat="42.428828000" lon="-2.561220000">
        <ele>500.30</ele>
        <time>2016-10-29T05:54:56Z</time>
      </trkpt>
      <trkpt lat="42.428827000" lon="-2.561254000">
        <ele>500.40</ele>
        <time>2016-10-29T05:54:57Z</time>
      </trkpt>
      <trkpt lat="42.428830000" lon="-2.561285000">
        <ele>500.50</ele>
        <time>2016-10-29T05:54:58Z</time>
      </trkpt>
      <trkpt lat="42.428834000" lon="-2.561317000">
        <ele>500.60</ele>
        <time>2016-10-29T05:54:59Z</time>
      </trkpt>
      <trkpt lat="42.428839000" lon="-2.561348000">
        <ele>500.60</ele>
        <time>2016-10-29T05:55:00Z</time>
      </trkpt>
      <trkpt lat="42.428844000" lon="-2.561382000">
        <ele>500.80</ele>
        <time>2016-10-29T05:55:01Z</time>
      </trkpt>
      <trkpt lat="42.428852000" lon="-2.561413000">
        <ele>501.00</ele>
        <time>2016-10-29T05:55:02Z</time>
      </trkpt>
      <trkpt lat="42.428857000" lon="-2.561445000">
        <ele>501.10</ele>
        <time>2016-10-29T05:55:03Z</time>
      </trkpt>
      <trkpt lat="42.428866000" lon="-2.561472000">
        <ele>501.20</ele>
        <time>2016-10-29T05:55:04Z</time>
      </trkpt>
      <trkpt lat="42.428877000" lon="-2.561495000">
        <ele>501.20</ele>
        <time>2016-10-29T05:55:05Z</time>
      </trkpt>
      <trkpt lat="42.428885000" lon="-2.561517000">
        <ele>501.20</ele>
        <time>2016-10-29T05:55:06Z</time>
      </trkpt>
      <trkpt lat="42.428881000" lon="-2.561548000">
        <ele>501.20</ele>
        <time>2016-10-29T05:55:07Z</time>
      </trkpt>
      <trkpt lat="42.428881000" lon="-2.561575000">
        <ele>501.20</ele>
        <time>2016-10-29T05:55:08Z</time>
      </trkpt>
      <trkpt lat="42.428885000" lon="-2.561599000">
        <ele>501.20</ele>
        <time>2016-10-29T05:55:09Z</time>
      </trkpt>
      <trkpt lat="42.428888000" lon="-2.561620000">
        <ele>501.20</ele>
        <time>2016-10-29T05:55:10Z</time>
      </trkpt>
      <trkpt lat="42.428897000" lon="-2.561642000">
        <ele>501.30</ele>
        <time>2016-10-29T05:55:11Z</time>
      </trkpt>
      <trkpt lat="42.428903000" lon="-2.561668000">
        <ele>501.40</ele>
        <time>2016-10-29T05:55:12Z</time>
      </trkpt>
      <trkpt lat="42.428910000" lon="-2.561694000">
        <ele>501.40</ele>
        <time>2016-10-29T05:55:13Z</time>
      </trkpt>
      <trkpt lat="42.428916000" lon="-2.561720000">
        <ele>501.30</ele>
        <time>2016-10-29T05:55:14Z</time>
      </trkpt>
      <trkpt lat="42.428923000" lon="-2.561743000">
        <ele>501.40</ele>
        <time>2016-10-29T05:55:15Z</time>
      </trkpt>
      <trkpt lat="42.428931000" lon="-2.561767000">
        <ele>501.50</ele>
        <time>2016-10-29T05:55:16Z</time>
      </trkpt>
      <trkpt lat="42.428935000" lon="-2.561785000">
        <ele>501.60</ele>
        <time>2016-10-29T05:55:17Z</time>
      </trkpt>
      <trkpt lat="42.428939000" lon="-2.561805000">
        <ele>501.70</ele>
        <time>2016-10-29T05:55:18Z</time>
      </trkpt>
      <trkpt lat="42.428948000" lon="-2.561830000">
        <ele>501.80</ele>
        <time>2016-10-29T05:55:19Z</time>
      </trkpt>
      <trkpt lat="42.428962000" lon="-2.561861000">
        <ele>501.80</ele>
        <time>2016-10-29T05:55:20Z</time>
      </trkpt>
      <trkpt lat="42.428970000" lon="-2.561895000">
        <ele>501.90</ele>
        <time>2016-10-29T05:55:21Z</time>
      </trkpt>
      <trkpt lat="42.428982000" lon="-2.561932000">
        <ele>502.00</ele>
        <time>2016-10-29T05:55:22Z</time>
      </trkpt>
      <trkpt lat="42.428990000" lon="-2.561966000">
        <ele>502.20</ele>
        <time>2016-10-29T05:55:23Z</time>
      </trkpt>
      <trkpt lat="42.428998000" lon="-2.561996000">
        <ele>502.30</ele>
        <time>2016-10-29T05:55:24Z</time>
      </trkpt>
      <trkpt lat="42.429007000" lon="-2.562026000">
        <ele>502.40</ele>
        <time>2016-10-29T05:55:25Z</time>
      </trkpt>
      <trkpt lat="42.429015000" lon="-2.562056000">
        <ele>502.50</ele>
        <time>2016-10-29T05:55:26Z</time>
      </trkpt>
      <trkpt lat="42.429026000" lon="-2.562087000">
        <ele>502.50</ele>
        <time>2016-10-29T05:55:27Z</time>
      </trkpt>
      <trkpt lat="42.429039000" lon="-2.562117000">
        <ele>502.60</ele>
        <time>2016-10-29T05:55:28Z</time>
      </trkpt>
      <trkpt lat="42.429050000" lon="-2.562150000">
        <ele>502.60</ele>
        <time>2016-10-29T05:55:29Z</time>
      </trkpt>
      <trkpt lat="42.429062000" lon="-2.562181000">
        <ele>502.50</ele>
        <time>2016-10-29T05:55:30Z</time>
      </trkpt>
      <trkpt lat="42.429074000" lon="-2.562211000">
        <ele>502.50</ele>
        <time>2016-10-29T05:55:31Z</time>
      </trkpt>
      <trkpt lat="42.429086000" lon="-2.562240000">
        <ele>502.50</ele>
        <time>2016-10-29T05:55:32Z</time>
      </trkpt>
      <trkpt lat="42.429097000" lon="-2.562264000">
        <ele>502.50</ele>
        <time>2016-10-29T05:55:33Z</time>
      </trkpt>
      <trkpt lat="42.429107000" lon="-2.562286000">
        <ele>502.50</ele>
        <time>2016-10-29T05:55:34Z</time>
      </trkpt>
      <trkpt lat="42.429117000" lon="-2.562308000">
        <ele>502.60</ele>
        <time>2016-10-29T05:55:35Z</time>
      </trkpt>
      <trkpt lat="42.429126000" lon="-2.562331000">
        <ele>502.70</ele>
        <time>2016-10-29T05:55:36Z</time>
      </trkpt>
      <trkpt lat="42.429138000" lon="-2.562382000">
        <ele>502.90</ele>
        <time>2016-10-29T05:55:38Z</time>
      </trkpt>
      <trkpt lat="42.429143000" lon="-2.562413000">
        <ele>503.10</ele>
        <time>2016-10-29T05:55:39Z</time>
      </trkpt>
      <trkpt lat="42.429151000" lon="-2.562448000">
        <ele>503.30</ele>
        <time>2016-10-29T05:55:40Z</time>
      </trkpt>
      <trkpt lat="42.429160000" lon="-2.562485000">
        <ele>503.40</ele>
        <time>2016-10-29T05:55:41Z</time>
      </trkpt>
      <trkpt lat="42.429172000" lon="-2.562523000">
        <ele>503.50</ele>
        <time>2016-10-29T05:55:42Z</time>
      </trkpt>
      <trkpt lat="42.429185000" lon="-2.562557000">
        <ele>503.50</ele>
        <time>2016-10-29T05:55:43Z</time>
      </trkpt>
      <trkpt lat="42.429198000" lon="-2.562589000">
        <ele>503.60</ele>
        <time>2016-10-29T05:55:44Z</time>
      </trkpt>
      <trkpt lat="42.429209000" lon="-2.562620000">
        <ele>503.60</ele>
        <time>2016-10-29T05:55:45Z</time>
      </trkpt>
      <trkpt lat="42.429220000" lon="-2.562650000">
        <ele>503.60</ele>
        <time>2016-10-29T05:55:46Z</time>
      </trkpt>
      <trkpt lat="42.429229000" lon="-2.562681000">
        <ele>503.70</ele>
        <time>2016-10-29T05:55:47Z</time>
      </trkpt>
      <trkpt lat="42.429236000" lon="-2.562713000">
        <ele>503.70</ele>
        <time>2016-10-29T05:55:48Z</time>
      </trkpt>
      <trkpt lat="42.429244000" lon="-2.562743000">
        <ele>503.70</ele>
        <time>2016-10-29T05:55:49Z</time>
      </trkpt>
      <trkpt lat="42.429253000" lon="-2.562772000">
        <ele>503.70</ele>
        <time>2016-10-29T05:55:50Z</time>
      </trkpt>
      <trkpt lat="42.429262000" lon="-2.562799000">
        <ele>503.70</ele>
        <time>2016-10-29T05:55:51Z</time>
      </trkpt>
      <trkpt lat="42.429271000" lon="-2.562828000">
        <ele>503.70</ele>
        <time>2016-10-29T05:55:52Z</time>
      </trkpt>
      <trkpt lat="42.429279000" lon="-2.562860000">
        <ele>503.70</ele>
        <time>2016-10-29T05:55:53Z</time>
      </trkpt>
      <trkpt lat="42.429289000" lon="-2.562894000">
        <ele>503.70</ele>
        <time>2016-10-29T05:55:54Z</time>
      </trkpt>
      <trkpt lat="42.429298000" lon="-2.562921000">
        <ele>503.90</ele>
        <time>2016-10-29T05:55:55Z</time>
      </trkpt>
      <trkpt lat="42.429306000" lon="-2.562951000">
        <ele>504.00</ele>
        <time>2016-10-29T05:55:56Z</time>
      </trkpt>
      <trkpt lat="42.429316000" lon="-2.562982000">
        <ele>504.10</ele>
        <time>2016-10-29T05:55:57Z</time>
      </trkpt>
      <trkpt lat="42.429324000" lon="-2.563010000">
        <ele>504.20</ele>
        <time>2016-10-29T05:55:58Z</time>
      </trkpt>
      <trkpt lat="42.429333000" lon="-2.563039000">
        <ele>504.20</ele>
        <time>2016-10-29T05:55:59Z</time>
      </trkpt>
      <trkpt lat="42.429346000" lon="-2.563070000">
        <ele>504.30</ele>
        <time>2016-10-29T05:56:00Z</time>
      </trkpt>
      <trkpt lat="42.429358000" lon="-2.563101000">
        <ele>504.50</ele>
        <time>2016-10-29T05:56:01Z</time>
      </trkpt>
      <trkpt lat="42.429370000" lon="-2.563133000">
        <ele>504.70</ele>
        <time>2016-10-29T05:56:02Z</time>
      </trkpt>
      <trkpt lat="42.429385000" lon="-2.563164000">
        <ele>504.90</ele>
        <time>2016-10-29T05:56:03Z</time>
      </trkpt>
      <trkpt lat="42.429399000" lon="-2.563196000">
        <ele>505.00</ele>
        <time>2016-10-29T05:56:04Z</time>
      </trkpt>
      <trkpt lat="42.429413000" lon="-2.563227000">
        <ele>505.00</ele>
        <time>2016-10-29T05:56:05Z</time>
      </trkpt>
      <trkpt lat="42.429425000" lon="-2.563258000">
        <ele>505.00</ele>
        <time>2016-10-29T05:56:06Z</time>
      </trkpt>
      <trkpt lat="42.429441000" lon="-2.563289000">
        <ele>504.90</ele>
        <time>2016-10-29T05:56:07Z</time>
      </trkpt>
      <trkpt lat="42.429455000" lon="-2.563322000">
        <ele>504.80</ele>
        <time>2016-10-29T05:56:08Z</time>
      </trkpt>
      <trkpt lat="42.429465000" lon="-2.563354000">
        <ele>504.70</ele>
        <time>2016-10-29T05:56:09Z</time>
      </trkpt>
      <trkpt lat="42.429481000" lon="-2.563387000">
        <ele>504.60</ele>
        <time>2016-10-29T05:56:10Z</time>
      </trkpt>
      <trkpt lat="42.429498000" lon="-2.563418000">
        <ele>504.60</ele>
        <time>2016-10-29T05:56:11Z</time>
      </trkpt>
      <trkpt lat="42.429514000" lon="-2.563449000">
        <ele>504.50</ele>
        <time>2016-10-29T05:56:12Z</time>
      </trkpt>
      <trkpt lat="42.429533000" lon="-2.563479000">
        <ele>504.50</ele>
        <time>2016-10-29T05:56:13Z</time>
      </trkpt>
      <trkpt lat="42.429551000" lon="-2.563513000">
        <ele>504.50</ele>
        <time>2016-10-29T05:56:14Z</time>
      </trkpt>
      <trkpt lat="42.429568000" lon="-2.563543000">
        <ele>504.50</ele>
        <time>2016-10-29T05:56:15Z</time>
      </trkpt>
      <trkpt lat="42.429584000" lon="-2.563572000">
        <ele>504.40</ele>
        <time>2016-10-29T05:56:16Z</time>
      </trkpt>
      <trkpt lat="42.429602000" lon="-2.563600000">
        <ele>504.30</ele>
        <time>2016-10-29T05:56:17Z</time>
      </trkpt>
      <trkpt lat="42.429623000" lon="-2.563626000">
        <ele>504.20</ele>
        <time>2016-10-29T05:56:18Z</time>
      </trkpt>
      <trkpt lat="42.429642000" lon="-2.563653000">
        <ele>504.20</ele>
        <time>2016-10-29T05:56:19Z</time>
      </trkpt>
      <trkpt lat="42.429660000" lon="-2.563677000">
        <ele>504.10</ele>
        <time>2016-10-29T05:56:20Z</time>
      </trkpt>
      <trkpt lat="42.429679000" lon="-2.563704000">
        <ele>504.10</ele>
        <time>2016-10-29T05:56:21Z</time>
      </trkpt>
      <trkpt lat="42.429698000" lon="-2.563730000">
        <ele>504.10</ele>
        <time>2016-10-29T05:56:22Z</time>
      </trkpt>
      <trkpt lat="42.429717000" lon="-2.563758000">
        <ele>504.10</ele>
        <time>2016-10-29T05:56:23Z</time>
      </trkpt>
      <trkpt lat="42.429732000" lon="-2.563804000">
        <ele>504.10</ele>
        <time>2016-10-29T05:56:24Z</time>
      </trkpt>
      <trkpt lat="42.429752000" lon="-2.563836000">
        <ele>504.20</ele>
        <time>2016-10-29T05:56:25Z</time>
      </trkpt>
      <trkpt lat="42.429771000" lon="-2.563874000">
        <ele>504.30</ele>
        <time>2016-10-29T05:56:26Z</time>
      </trkpt>
      <trkpt lat="42.429792000" lon="-2.563908000">
        <ele>504.30</ele>
        <time>2016-10-29T05:56:27Z</time>
      </trkpt>
      <trkpt lat="42.429818000" lon="-2.563942000">
        <ele>504.30</ele>
        <time>2016-10-29T05:56:28Z</time>
      </trkpt>
      <trkpt lat="42.429841000" lon="-2.563969000">
        <ele>504.10</ele>
        <time>2016-10-29T05:56:29Z</time>
      </trkpt>
      <trkpt lat="42.429863000" lon="-2.563998000">
        <ele>503.90</ele>
        <time>2016-10-29T05:56:30Z</time>
      </trkpt>
      <trkpt lat="42.429883000" lon="-2.564026000">
        <ele>503.80</ele>
        <time>2016-10-29T05:56:31Z</time>
      </trkpt>
      <trkpt lat="42.429903000" lon="-2.564051000">
        <ele>503.80</ele>
        <time>2016-10-29T05:56:32Z</time>
      </trkpt>
      <trkpt lat="42.429925000" lon="-2.564074000">
        <ele>503.80</ele>
        <time>2016-10-29T05:56:33Z</time>
      </trkpt>
      <trkpt lat="42.429945000" lon="-2.564090000">
        <ele>503.90</ele>
        <time>2016-10-29T05:56:34Z</time>
      </trkpt>
      <trkpt lat="42.429971000" lon="-2.564113000">
        <ele>503.90</ele>
        <time>2016-10-29T05:56:35Z</time>
      </trkpt>
      <trkpt lat="42.429996000" lon="-2.564130000">
        <ele>504.00</ele>
        <time>2016-10-29T05:56:36Z</time>
      </trkpt>
      <trkpt lat="42.430012000" lon="-2.564167000">
        <ele>504.00</ele>
        <time>2016-10-29T05:56:37Z</time>
      </trkpt>
      <trkpt lat="42.430049000" lon="-2.564242000">
        <ele>504.00</ele>
        <time>2016-10-29T05:56:39Z</time>
      </trkpt>
      <trkpt lat="42.430069000" lon="-2.564275000">
        <ele>504.10</ele>
        <time>2016-10-29T05:56:40Z</time>
      </trkpt>
      <trkpt lat="42.430091000" lon="-2.564303000">
        <ele>504.00</ele>
        <time>2016-10-29T05:56:41Z</time>
      </trkpt>
      <trkpt lat="42.430115000" lon="-2.564327000">
        <ele>503.90</ele>
        <time>2016-10-29T05:56:42Z</time>
      </trkpt>
      <trkpt lat="42.430141000" lon="-2.564347000">
        <ele>503.80</ele>
        <time>2016-10-29T05:56:43Z</time>
      </trkpt>
      <trkpt lat="42.430169000" lon="-2.564370000">
        <ele>503.70</ele>
        <time>2016-10-29T05:56:44Z</time>
      </trkpt>
      <trkpt lat="42.430194000" lon="-2.564395000">
        <ele>503.70</ele>
        <time>2016-10-29T05:56:45Z</time>
      </trkpt>
      <trkpt lat="42.430218000" lon="-2.564421000">
        <ele>503.70</ele>
        <time>2016-10-29T05:56:46Z</time>
      </trkpt>
      <trkpt lat="42.430243000" lon="-2.564445000">
        <ele>503.80</ele>
        <time>2016-10-29T05:56:47Z</time>
      </trkpt>
      <trkpt lat="42.430272000" lon="-2.564462000">
        <ele>503.90</ele>
        <time>2016-10-29T05:56:48Z</time>
      </trkpt>
      <trkpt lat="42.430302000" lon="-2.564480000">
        <ele>504.00</ele>
        <time>2016-10-29T05:56:49Z</time>
      </trkpt>
      <trkpt lat="42.430333000" lon="-2.564496000">
        <ele>504.00</ele>
        <time>2016-10-29T05:56:50Z</time>
      </trkpt>
      <trkpt lat="42.430364000" lon="-2.564514000">
        <ele>504.10</ele>
        <time>2016-10-29T05:56:51Z</time>
      </trkpt>
      <trkpt lat="42.430395000" lon="-2.564527000">
        <ele>504.10</ele>
        <time>2016-10-29T05:56:52Z</time>
      </trkpt>
      <trkpt lat="42.430425000" lon="-2.564542000">
        <ele>504.10</ele>
        <time>2016-10-29T05:56:53Z</time>
      </trkpt>
      <trkpt lat="42.430456000" lon="-2.564561000">
        <ele>504.10</ele>
        <time>2016-10-29T05:56:54Z</time>
      </trkpt>
      <trkpt lat="42.430485000" lon="-2.564579000">
        <ele>503.90</ele>
        <time>2016-10-29T05:56:55Z</time>
      </trkpt>
      <trkpt lat="42.430517000" lon="-2.564593000">
        <ele>503.70</ele>
        <time>2016-10-29T05:56:56Z</time>
      </trkpt>
      <trkpt lat="42.430545000" lon="-2.564611000">
        <ele>503.40</ele>
        <time>2016-10-29T05:56:57Z</time>
      </trkpt>
      <trkpt lat="42.430576000" lon="-2.564624000">
        <ele>503.10</ele>
        <time>2016-10-29T05:56:58Z</time>
      </trkpt>
      <trkpt lat="42.430601000" lon="-2.564648000">
        <ele>502.90</ele>
        <time>2016-10-29T05:56:59Z</time>
      </trkpt>
      <trkpt lat="42.430625000" lon="-2.564676000">
        <ele>502.70</ele>
        <time>2016-10-29T05:57:00Z</time>
      </trkpt>
      <trkpt lat="42.430643000" lon="-2.564713000">
        <ele>502.70</ele>
        <time>2016-10-29T05:57:01Z</time>
      </trkpt>
      <trkpt lat="42.430654000" lon="-2.564752000">
        <ele>502.60</ele>
        <time>2016-10-29T05:57:02Z</time>
      </trkpt>
      <trkpt lat="42.430658000" lon="-2.564788000">
        <ele>502.60</ele>
        <time>2016-10-29T05:57:03Z</time>
      </trkpt>
      <trkpt lat="42.430660000" lon="-2.564825000">
        <ele>502.60</ele>
        <time>2016-10-29T05:57:04Z</time>
      </trkpt>
      <trkpt lat="42.430658000" lon="-2.564864000">
        <ele>502.60</ele>
        <time>2016-10-29T05:57:05Z</time>
      </trkpt>
      <trkpt lat="42.430656000" lon="-2.564910000">
        <ele>502.50</ele>
        <time>2016-10-29T05:57:06Z</time>
      </trkpt>
      <trkpt lat="42.430646000" lon="-2.564961000">
        <ele>502.50</ele>
        <time>2016-10-29T05:57:07Z</time>
      </trkpt>
      <trkpt lat="42.430644000" lon="-2.565003000">
        <ele>502.50</ele>
        <time>2016-10-29T05:57:08Z</time>
      </trkpt>
      <trkpt lat="42.430641000" lon="-2.565045000">
        <ele>502.50</ele>
        <time>2016-10-29T05:57:09Z</time>
      </trkpt>
      <trkpt lat="42.430636000" lon="-2.565092000">
        <ele>502.40</ele>
        <time>2016-10-29T05:57:10Z</time>
      </trkpt>
      <trkpt lat="42.430628000" lon="-2.565147000">
        <ele>502.20</ele>
        <time>2016-10-29T05:57:11Z</time>
      </trkpt>
      <trkpt lat="42.430620000" lon="-2.565202000">
        <ele>502.10</ele>
        <time>2016-10-29T05:57:12Z</time>
      </trkpt>
      <trkpt lat="42.430610000" lon="-2.565255000">
        <ele>502.00</ele>
        <time>2016-10-29T05:57:13Z</time>
      </trkpt>
      <trkpt lat="42.430604000" lon="-2.565307000">
        <ele>501.90</ele>
        <time>2016-10-29T05:57:14Z</time>
      </trkpt>
      <trkpt lat="42.430596000" lon="-2.565359000">
        <ele>501.80</ele>
        <time>2016-10-29T05:57:15Z</time>
      </trkpt>
      <trkpt lat="42.430586000" lon="-2.565407000">
        <ele>501.70</ele>
        <time>2016-10-29T05:57:16Z</time>
      </trkpt>
      <trkpt lat="42.430575000" lon="-2.565453000">
        <ele>501.70</ele>
        <time>2016-10-29T05:57:17Z</time>
      </trkpt>
      <trkpt lat="42.430566000" lon="-2.565499000">
        <ele>501.60</ele>
        <time>2016-10-29T05:57:18Z</time>
      </trkpt>
      <trkpt lat="42.430555000" lon="-2.565541000">
        <ele>501.70</ele>
        <time>2016-10-29T05:57:19Z</time>
      </trkpt>
      <trkpt lat="42.430547000" lon="-2.565585000">
        <ele>501.80</ele>
        <time>2016-10-29T05:57:20Z</time>
      </trkpt>
      <trkpt lat="42.430538000" lon="-2.565631000">
        <ele>501.80</ele>
        <time>2016-10-29T05:57:21Z</time>
      </trkpt>
      <trkpt lat="42.430528000" lon="-2.565679000">
        <ele>501.90</ele>
        <time>2016-10-29T05:57:22Z</time>
      </trkpt>
      <trkpt lat="42.430520000" lon="-2.565722000">
        <ele>501.90</ele>
        <time>2016-10-29T05:57:23Z</time>
      </trkpt>
      <trkpt lat="42.430515000" lon="-2.565766000">
        <ele>501.90</ele>
        <time>2016-10-29T05:57:24Z</time>
      </trkpt>
      <trkpt lat="42.430507000" lon="-2.565812000">
        <ele>501.90</ele>
        <time>2016-10-29T05:57:25Z</time>
      </trkpt>
      <trkpt lat="42.430500000" lon="-2.565857000">
        <ele>502.00</ele>
        <time>2016-10-29T05:57:26Z</time>
      </trkpt>
      <trkpt lat="42.430491000" lon="-2.565902000">
        <ele>502.00</ele>
        <time>2016-10-29T05:57:27Z</time>
      </trkpt>
      <trkpt lat="42.430480000" lon="-2.565950000">
        <ele>502.10</ele>
        <time>2016-10-29T05:57:28Z</time>
      </trkpt>
      <trkpt lat="42.430472000" lon="-2.565996000">
        <ele>502.10</ele>
        <time>2016-10-29T05:57:29Z</time>
      </trkpt>
      <trkpt lat="42.430465000" lon="-2.566041000">
        <ele>502.20</ele>
        <time>2016-10-29T05:57:30Z</time>
      </trkpt>
      <trkpt lat="42.430460000" lon="-2.566084000">
        <ele>502.10</ele>
        <time>2016-10-29T05:57:31Z</time>
      </trkpt>
      <trkpt lat="42.430451000" lon="-2.566129000">
        <ele>502.00</ele>
        <time>2016-10-29T05:57:32Z</time>
      </trkpt>
      <trkpt lat="42.430441000" lon="-2.566171000">
        <ele>501.90</ele>
        <time>2016-10-29T05:57:33Z</time>
      </trkpt>
      <trkpt lat="42.430434000" lon="-2.566212000">
        <ele>501.90</ele>
        <time>2016-10-29T05:57:34Z</time>
      </trkpt>
      <trkpt lat="42.430425000" lon="-2.566256000">
        <ele>501.80</ele>
        <time>2016-10-29T05:57:35Z</time>
      </trkpt>
      <trkpt lat="42.430418000" lon="-2.566299000">
        <ele>501.70</ele>
        <time>2016-10-29T05:57:36Z</time>
      </trkpt>
      <trkpt lat="42.430412000" lon="-2.566342000">
        <ele>501.60</ele>
        <time>2016-10-29T05:57:37Z</time>
      </trkpt>
      <trkpt lat="42.430401000" lon="-2.566385000">
        <ele>501.60</ele>
        <time>2016-10-29T05:57:38Z</time>
      </trkpt>
      <trkpt lat="42.430382000" lon="-2.566470000">
        <ele>501.50</ele>
        <time>2016-10-29T05:57:40Z</time>
      </trkpt>
      <trkpt lat="42.430375000" lon="-2.566513000">
        <ele>501.70</ele>
        <time>2016-10-29T05:57:41Z</time>
      </trkpt>
      <trkpt lat="42.430367000" lon="-2.566552000">
        <ele>501.70</ele>
        <time>2016-10-29T05:57:42Z</time>
      </trkpt>
      <trkpt lat="42.430363000" lon="-2.566595000">
        <ele>501.70</ele>
        <time>2016-10-29T05:57:43Z</time>
      </trkpt>
      <trkpt lat="42.430356000" lon="-2.566635000">
        <ele>501.70</ele>
        <time>2016-10-29T05:57:44Z</time>
      </trkpt>
      <trkpt lat="42.430350000" lon="-2.566674000">
        <ele>501.70</ele>
        <time>2016-10-29T05:57:45Z</time>
      </trkpt>
      <trkpt lat="42.430343000" lon="-2.566716000">
        <ele>501.70</ele>
        <time>2016-10-29T05:57:46Z</time>
      </trkpt>
      <trkpt lat="42.430338000" lon="-2.566755000">
        <ele>501.70</ele>
        <time>2016-10-29T05:57:47Z</time>
      </trkpt>
      <trkpt lat="42.430335000" lon="-2.566796000">
        <ele>501.70</ele>
        <time>2016-10-29T05:57:48Z</time>
      </trkpt>
      <trkpt lat="42.430329000" lon="-2.566836000">
        <ele>501.70</ele>
        <time>2016-10-29T05:57:49Z</time>
      </trkpt>
      <trkpt lat="42.430325000" lon="-2.566874000">
        <ele>501.80</ele>
        <time>2016-10-29T05:57:50Z</time>
      </trkpt>
      <trkpt lat="42.430318000" lon="-2.566915000">
        <ele>501.80</ele>
        <time>2016-10-29T05:57:51Z</time>
      </trkpt>
      <trkpt lat="42.430312000" lon="-2.566953000">
        <ele>501.80</ele>
        <time>2016-10-29T05:57:52Z</time>
      </trkpt>
      <trkpt lat="42.430304000" lon="-2.566995000">
        <ele>501.90</ele>
        <time>2016-10-29T05:57:53Z</time>
      </trkpt>
      <trkpt lat="42.430298000" lon="-2.567036000">
        <ele>502.00</ele>
        <time>2016-10-29T05:57:54Z</time>
      </trkpt>
      <trkpt lat="42.430291000" lon="-2.567076000">
        <ele>502.10</ele>
        <time>2016-10-29T05:57:55Z</time>
      </trkpt>
      <trkpt lat="42.430283000" lon="-2.567114000">
        <ele>502.20</ele>
        <time>2016-10-29T05:57:56Z</time>
      </trkpt>
      <trkpt lat="42.430276000" lon="-2.567153000">
        <ele>502.20</ele>
        <time>2016-10-29T05:57:57Z</time>
      </trkpt>
      <trkpt lat="42.430270000" lon="-2.567194000">
        <ele>502.30</ele>
        <time>2016-10-29T05:57:58Z</time>
      </trkpt>
      <trkpt lat="42.430264000" lon="-2.567236000">
        <ele>502.30</ele>
        <time>2016-10-29T05:57:59Z</time>
      </trkpt>
      <trkpt lat="42.430259000" lon="-2.567277000">
        <ele>502.30</ele>
        <time>2016-10-29T05:58:00Z</time>
      </trkpt>
      <trkpt lat="42.430252000" lon="-2.567320000">
        <ele>502.40</ele>
        <time>2016-10-29T05:58:01Z</time>
      </trkpt>
      <trkpt lat="42.430244000" lon="-2.567359000">
        <ele>502.40</ele>
        <time>2016-10-29T05:58:02Z</time>
      </trkpt>
      <trkpt lat="42.430238000" lon="-2.567401000">
        <ele>502.40</ele>
        <time>2016-10-29T05:58:03Z</time>
      </trkpt>
      <trkpt lat="42.430230000" lon="-2.567442000">
        <ele>502.40</ele>
        <time>2016-10-29T05:58:04Z</time>
      </trkpt>
      <trkpt lat="42.430225000" lon="-2.567484000">
        <ele>502.40</ele>
        <time>2016-10-29T05:58:05Z</time>
      </trkpt>
      <trkpt lat="42.430220000" lon="-2.567521000">
        <ele>502.40</ele>
        <time>2016-10-29T05:58:06Z</time>
      </trkpt>
      <trkpt lat="42.430213000" lon="-2.567559000">
        <ele>502.50</ele>
        <time>2016-10-29T05:58:07Z</time>
      </trkpt>
      <trkpt lat="42.430207000" lon="-2.567596000">
        <ele>502.50</ele>
        <time>2016-10-29T05:58:08Z</time>
      </trkpt>
      <trkpt lat="42.430201000" lon="-2.567635000">
        <ele>502.60</ele>
        <time>2016-10-29T05:58:09Z</time>
      </trkpt>
      <trkpt lat="42.430195000" lon="-2.567673000">
        <ele>502.70</ele>
        <time>2016-10-29T05:58:10Z</time>
      </trkpt>
      <trkpt lat="42.430191000" lon="-2.567710000">
        <ele>502.80</ele>
        <time>2016-10-29T05:58:11Z</time>
      </trkpt>
      <trkpt lat="42.430184000" lon="-2.567748000">
        <ele>502.80</ele>
        <time>2016-10-29T05:58:12Z</time>
      </trkpt>
      <trkpt lat="42.430180000" lon="-2.567779000">
        <ele>502.90</ele>
        <time>2016-10-29T05:58:13Z</time>
      </trkpt>
      <trkpt lat="42.430181000" lon="-2.567814000">
        <ele>502.90</ele>
        <time>2016-10-29T05:58:14Z</time>
      </trkpt>
      <trkpt lat="42.430184000" lon="-2.567850000">
        <ele>503.00</ele>
        <time>2016-10-29T05:58:15Z</time>
      </trkpt>
      <trkpt lat="42.430188000" lon="-2.567888000">
        <ele>503.00</ele>
        <time>2016-10-29T05:58:16Z</time>
      </trkpt>
      <trkpt lat="42.430188000" lon="-2.567926000">
        <ele>503.20</ele>
        <time>2016-10-29T05:58:17Z</time>
      </trkpt>
      <trkpt lat="42.430184000" lon="-2.567965000">
        <ele>503.30</ele>
        <time>2016-10-29T05:58:18Z</time>
      </trkpt>
      <trkpt lat="42.430177000" lon="-2.568000000">
        <ele>503.40</ele>
        <time>2016-10-29T05:58:19Z</time>
      </trkpt>
      <trkpt lat="42.430166000" lon="-2.568037000">
        <ele>503.50</ele>
        <time>2016-10-29T05:58:20Z</time>
      </trkpt>
      <trkpt lat="42.430151000" lon="-2.568073000">
        <ele>503.70</ele>
        <time>2016-10-29T05:58:21Z</time>
      </trkpt>
      <trkpt lat="42.430138000" lon="-2.568109000">
        <ele>503.80</ele>
        <time>2016-10-29T05:58:22Z</time>
      </trkpt>
      <trkpt lat="42.430123000" lon="-2.568143000">
        <ele>503.80</ele>
        <time>2016-10-29T05:58:23Z</time>
      </trkpt>
      <trkpt lat="42.430110000" lon="-2.568183000">
        <ele>503.80</ele>
        <time>2016-10-29T05:58:24Z</time>
      </trkpt>
      <trkpt lat="42.430097000" lon="-2.568219000">
        <ele>503.90</ele>
        <time>2016-10-29T05:58:25Z</time>
      </trkpt>
      <trkpt lat="42.430084000" lon="-2.568255000">
        <ele>503.90</ele>
        <time>2016-10-29T05:58:26Z</time>
      </trkpt>
      <trkpt lat="42.430067000" lon="-2.568289000">
        <ele>503.90</ele>
        <time>2016-10-29T05:58:27Z</time>
      </trkpt>
      <trkpt lat="42.430051000" lon="-2.568323000">
        <ele>503.80</ele>
        <time>2016-10-29T05:58:28Z</time>
      </trkpt>
      <trkpt lat="42.430037000" lon="-2.568359000">
        <ele>503.80</ele>
        <time>2016-10-29T05:58:29Z</time>
      </trkpt>
      <trkpt lat="42.430022000" lon="-2.568396000">
        <ele>503.80</ele>
        <time>2016-10-29T05:58:30Z</time>
      </trkpt>
      <trkpt lat="42.430008000" lon="-2.568430000">
        <ele>503.70</ele>
        <time>2016-10-29T05:58:31Z</time>
      </trkpt>
      <trkpt lat="42.429993000" lon="-2.568464000">
        <ele>503.60</ele>
        <time>2016-10-29T05:58:32Z</time>
      </trkpt>
      <trkpt lat="42.429977000" lon="-2.568501000">
        <ele>503.70</ele>
        <time>2016-10-29T05:58:33Z</time>
      </trkpt>
      <trkpt lat="42.429959000" lon="-2.568542000">
        <ele>503.70</ele>
        <time>2016-10-29T05:58:34Z</time>
      </trkpt>
      <trkpt lat="42.429943000" lon="-2.568578000">
        <ele>503.80</ele>
        <time>2016-10-29T05:58:35Z</time>
      </trkpt>
      <trkpt lat="42.429926000" lon="-2.568612000">
        <ele>503.90</ele>
        <time>2016-10-29T05:58:36Z</time>
      </trkpt>
      <trkpt lat="42.429910000" lon="-2.568648000">
        <ele>503.90</ele>
        <time>2016-10-29T05:58:37Z</time>
      </trkpt>
      <trkpt lat="42.429896000" lon="-2.568683000">
        <ele>504.00</ele>
        <time>2016-10-29T05:58:38Z</time>
      </trkpt>
      <trkpt lat="42.429880000" lon="-2.568716000">
        <ele>504.00</ele>
        <time>2016-10-29T05:58:39Z</time>
      </trkpt>
      <trkpt lat="42.429848000" lon="-2.568782000">
        <ele>504.10</ele>
        <time>2016-10-29T05:58:41Z</time>
      </trkpt>
      <trkpt lat="42.429833000" lon="-2.568817000">
        <ele>504.20</ele>
        <time>2016-10-29T05:58:42Z</time>
      </trkpt>
      <trkpt lat="42.429813000" lon="-2.568853000">
        <ele>504.30</ele>
        <time>2016-10-29T05:58:43Z</time>
      </trkpt>
      <trkpt lat="42.429795000" lon="-2.568888000">
        <ele>504.30</ele>
        <time>2016-10-29T05:58:44Z</time>
      </trkpt>
      <trkpt lat="42.429778000" lon="-2.568923000">
        <ele>504.40</ele>
        <time>2016-10-29T05:58:45Z</time>
      </trkpt>
      <trkpt lat="42.429764000" lon="-2.568957000">
        <ele>504.40</ele>
        <time>2016-10-29T05:58:46Z</time>
      </trkpt>
      <trkpt lat="42.429750000" lon="-2.568991000">
        <ele>504.40</ele>
        <time>2016-10-29T05:58:47Z</time>
      </trkpt>
      <trkpt lat="42.429736000" lon="-2.569023000">
        <ele>504.40</ele>
        <time>2016-10-29T05:58:48Z</time>
      </trkpt>
      <trkpt lat="42.429720000" lon="-2.569055000">
        <ele>504.40</ele>
        <time>2016-10-29T05:58:49Z</time>
      </trkpt>
      <trkpt lat="42.429703000" lon="-2.569087000">
        <ele>504.40</ele>
        <time>2016-10-29T05:58:50Z</time>
      </trkpt>
      <trkpt lat="42.429685000" lon="-2.569119000">
        <ele>504.30</ele>
        <time>2016-10-29T05:58:51Z</time>
      </trkpt>
      <trkpt lat="42.429673000" lon="-2.569153000">
        <ele>504.30</ele>
        <time>2016-10-29T05:58:52Z</time>
      </trkpt>
      <trkpt lat="42.429659000" lon="-2.569185000">
        <ele>504.50</ele>
        <time>2016-10-29T05:58:53Z</time>
      </trkpt>
      <trkpt lat="42.429643000" lon="-2.569218000">
        <ele>504.60</ele>
        <time>2016-10-29T05:58:54Z</time>
      </trkpt>
      <trkpt lat="42.429626000" lon="-2.569252000">
        <ele>504.70</ele>
        <time>2016-10-29T05:58:55Z</time>
      </trkpt>
      <trkpt lat="42.429608000" lon="-2.569286000">
        <ele>504.80</ele>
        <time>2016-10-29T05:58:56Z</time>
      </trkpt>
      <trkpt lat="42.429592000" lon="-2.569318000">
        <ele>504.90</ele>
        <time>2016-10-29T05:58:57Z</time>
      </trkpt>
      <trkpt lat="42.429575000" lon="-2.569349000">
        <ele>504.90</ele>
        <time>2016-10-29T05:58:58Z</time>
      </trkpt>
      <trkpt lat="42.429558000" lon="-2.569380000">
        <ele>505.00</ele>
        <time>2016-10-29T05:58:59Z</time>
      </trkpt>
      <trkpt lat="42.429543000" lon="-2.569413000">
        <ele>505.00</ele>
        <time>2016-10-29T05:59:00Z</time>
      </trkpt>
      <trkpt lat="42.429527000" lon="-2.569443000">
        <ele>505.00</ele>
        <time>2016-10-29T05:59:01Z</time>
      </trkpt>
      <trkpt lat="42.429514000" lon="-2.569477000">
        <ele>505.00</ele>
        <time>2016-10-29T05:59:02Z</time>
      </trkpt>
      <trkpt lat="42.429499000" lon="-2.569514000">
        <ele>505.00</ele>
        <time>2016-10-29T05:59:03Z</time>
      </trkpt>
      <trkpt lat="42.429483000" lon="-2.569554000">
        <ele>504.90</ele>
        <time>2016-10-29T05:59:04Z</time>
      </trkpt>
      <trkpt lat="42.429466000" lon="-2.569594000">
        <ele>504.90</ele>
        <time>2016-10-29T05:59:05Z</time>
      </trkpt>
      <trkpt lat="42.429450000" lon="-2.569633000">
        <ele>504.90</ele>
        <time>2016-10-29T05:59:06Z</time>
      </trkpt>
      <trkpt lat="42.429435000" lon="-2.569672000">
        <ele>504.90</ele>
        <time>2016-10-29T05:59:07Z</time>
      </trkpt>
      <trkpt lat="42.429421000" lon="-2.569711000">
        <ele>504.90</ele>
        <time>2016-10-29T05:59:08Z</time>
      </trkpt>
      <trkpt lat="42.429405000" lon="-2.569748000">
        <ele>505.00</ele>
        <time>2016-10-29T05:59:09Z</time>
      </trkpt>
      <trkpt lat="42.429388000" lon="-2.569783000">
        <ele>505.00</ele>
        <time>2016-10-29T05:59:10Z</time>
      </trkpt>
      <trkpt lat="42.429372000" lon="-2.569821000">
        <ele>505.10</ele>
        <time>2016-10-29T05:59:11Z</time>
      </trkpt>
      <trkpt lat="42.429356000" lon="-2.569856000">
        <ele>505.10</ele>
        <time>2016-10-29T05:59:12Z</time>
      </trkpt>
      <trkpt lat="42.429338000" lon="-2.569892000">
        <ele>505.10</ele>
        <time>2016-10-29T05:59:13Z</time>
      </trkpt>
      <trkpt lat="42.429322000" lon="-2.569929000">
        <ele>505.10</ele>
        <time>2016-10-29T05:59:14Z</time>
      </trkpt>
      <trkpt lat="42.429305000" lon="-2.569964000">
        <ele>505.10</ele>
        <time>2016-10-29T05:59:15Z</time>
      </trkpt>
      <trkpt lat="42.429286000" lon="-2.569998000">
        <ele>505.00</ele>
        <time>2016-10-29T05:59:16Z</time>
      </trkpt>
      <trkpt lat="42.429269000" lon="-2.570031000">
        <ele>505.20</ele>
        <time>2016-10-29T05:59:17Z</time>
      </trkpt>
      <trkpt lat="42.429252000" lon="-2.570063000">
        <ele>505.40</ele>
        <time>2016-10-29T05:59:18Z</time>
      </trkpt>
      <trkpt lat="42.429236000" lon="-2.570097000">
        <ele>505.50</ele>
        <time>2016-10-29T05:59:19Z</time>
      </trkpt>
      <trkpt lat="42.429220000" lon="-2.570135000">
        <ele>505.70</ele>
        <time>2016-10-29T05:59:20Z</time>
      </trkpt>
      <trkpt lat="42.429205000" lon="-2.570174000">
        <ele>505.80</ele>
        <time>2016-10-29T05:59:21Z</time>
      </trkpt>
      <trkpt lat="42.429191000" lon="-2.570210000">
        <ele>505.80</ele>
        <time>2016-10-29T05:59:22Z</time>
      </trkpt>
      <trkpt lat="42.429174000" lon="-2.570246000">
        <ele>505.80</ele>
        <time>2016-10-29T05:59:23Z</time>
      </trkpt>
      <trkpt lat="42.429159000" lon="-2.570282000">
        <ele>505.80</ele>
        <time>2016-10-29T05:59:24Z</time>
      </trkpt>
      <trkpt lat="42.429142000" lon="-2.570319000">
        <ele>505.80</ele>
        <time>2016-10-29T05:59:25Z</time>
      </trkpt>
      <trkpt lat="42.429124000" lon="-2.570354000">
        <ele>505.80</ele>
        <time>2016-10-29T05:59:26Z</time>
      </trkpt>
      <trkpt lat="42.429106000" lon="-2.570392000">
        <ele>505.80</ele>
        <time>2016-10-29T05:59:27Z</time>
      </trkpt>
      <trkpt lat="42.429089000" lon="-2.570427000">
        <ele>505.80</ele>
        <time>2016-10-29T05:59:28Z</time>
      </trkpt>
      <trkpt lat="42.429072000" lon="-2.570465000">
        <ele>505.90</ele>
        <time>2016-10-29T05:59:29Z</time>
      </trkpt>
      <trkpt lat="42.429055000" lon="-2.570502000">
        <ele>506.00</ele>
        <time>2016-10-29T05:59:30Z</time>
      </trkpt>
      <trkpt lat="42.429039000" lon="-2.570537000">
        <ele>506.10</ele>
        <time>2016-10-29T05:59:31Z</time>
      </trkpt>
      <trkpt lat="42.429022000" lon="-2.570576000">
        <ele>506.10</ele>
        <time>2016-10-29T05:59:32Z</time>
      </trkpt>
      <trkpt lat="42.429003000" lon="-2.570611000">
        <ele>506.20</ele>
        <time>2016-10-29T05:59:33Z</time>
      </trkpt>
      <trkpt lat="42.428984000" lon="-2.570647000">
        <ele>506.20</ele>
        <time>2016-10-29T05:59:34Z</time>
      </trkpt>
      <trkpt lat="42.428965000" lon="-2.570682000">
        <ele>506.20</ele>
        <time>2016-10-29T05:59:35Z</time>
      </trkpt>
      <trkpt lat="42.428946000" lon="-2.570716000">
        <ele>506.10</ele>
        <time>2016-10-29T05:59:36Z</time>
      </trkpt>
      <trkpt lat="42.428928000" lon="-2.570752000">
        <ele>506.10</ele>
        <time>2016-10-29T05:59:37Z</time>
      </trkpt>
      <trkpt lat="42.428912000" lon="-2.570787000">
        <ele>506.10</ele>
        <time>2016-10-29T05:59:38Z</time>
      </trkpt>
      <trkpt lat="42.428894000" lon="-2.570822000">
        <ele>506.10</ele>
        <time>2016-10-29T05:59:39Z</time>
      </trkpt>
      <trkpt lat="42.428879000" lon="-2.570858000">
        <ele>506.10</ele>
        <time>2016-10-29T05:59:40Z</time>
      </trkpt>
      <trkpt lat="42.428845000" lon="-2.570928000">
        <ele>506.20</ele>
        <time>2016-10-29T05:59:42Z</time>
      </trkpt>
      <trkpt lat="42.428829000" lon="-2.570965000">
        <ele>506.30</ele>
        <time>2016-10-29T05:59:43Z</time>
      </trkpt>
      <trkpt lat="42.428814000" lon="-2.571000000">
        <ele>506.30</ele>
        <time>2016-10-29T05:59:44Z</time>
      </trkpt>
      <trkpt lat="42.428796000" lon="-2.571033000">
        <ele>506.40</ele>
        <time>2016-10-29T05:59:45Z</time>
      </trkpt>
      <trkpt lat="42.428777000" lon="-2.571066000">
        <ele>506.40</ele>
        <time>2016-10-29T05:59:46Z</time>
      </trkpt>
      <trkpt lat="42.428758000" lon="-2.571098000">
        <ele>506.50</ele>
        <time>2016-10-29T05:59:47Z</time>
      </trkpt>
      <trkpt lat="42.428742000" lon="-2.571129000">
        <ele>506.50</ele>
        <time>2016-10-29T05:59:48Z</time>
      </trkpt>
      <trkpt lat="42.428721000" lon="-2.571159000">
        <ele>506.60</ele>
        <time>2016-10-29T05:59:49Z</time>
      </trkpt>
      <trkpt lat="42.428703000" lon="-2.571188000">
        <ele>506.60</ele>
        <time>2016-10-29T05:59:50Z</time>
      </trkpt>
      <trkpt lat="42.428687000" lon="-2.571220000">
        <ele>506.90</ele>
        <time>2016-10-29T05:59:51Z</time>
      </trkpt>
      <trkpt lat="42.428673000" lon="-2.571256000">
        <ele>507.10</ele>
        <time>2016-10-29T05:59:52Z</time>
      </trkpt>
      <trkpt lat="42.428658000" lon="-2.571291000">
        <ele>507.30</ele>
        <time>2016-10-29T05:59:53Z</time>
      </trkpt>
      <trkpt lat="42.428641000" lon="-2.571325000">
        <ele>507.40</ele>
        <time>2016-10-29T05:59:54Z</time>
      </trkpt>
      <trkpt lat="42.428623000" lon="-2.571356000">
        <ele>507.40</ele>
        <time>2016-10-29T05:59:55Z</time>
      </trkpt>
      <trkpt lat="42.428606000" lon="-2.571387000">
        <ele>507.50</ele>
        <time>2016-10-29T05:59:56Z</time>
      </trkpt>
      <trkpt lat="42.428592000" lon="-2.571421000">
        <ele>507.40</ele>
        <time>2016-10-29T05:59:57Z</time>
      </trkpt>
      <trkpt lat="42.428576000" lon="-2.571457000">
        <ele>507.40</ele>
        <time>2016-10-29T05:59:58Z</time>
      </trkpt>
      <trkpt lat="42.428561000" lon="-2.571494000">
        <ele>507.40</ele>
        <time>2016-10-29T05:59:59Z</time>
      </trkpt>
      <trkpt lat="42.428545000" lon="-2.571527000">
        <ele>507.40</ele>
        <time>2016-10-29T06:00:00Z</time>
      </trkpt>
      <trkpt lat="42.428530000" lon="-2.571561000">
        <ele>507.50</ele>
        <time>2016-10-29T06:00:01Z</time>
      </trkpt>
      <trkpt lat="42.428514000" lon="-2.571593000">
        <ele>507.60</ele>
        <time>2016-10-29T06:00:02Z</time>
      </trkpt>
      <trkpt lat="42.428499000" lon="-2.571624000">
        <ele>507.60</ele>
        <time>2016-10-29T06:00:03Z</time>
      </trkpt>
      <trkpt lat="42.428485000" lon="-2.571656000">
        <ele>507.70</ele>
        <time>2016-10-29T06:00:04Z</time>
      </trkpt>
      <trkpt lat="42.428470000" lon="-2.571692000">
        <ele>507.70</ele>
        <time>2016-10-29T06:00:05Z</time>
      </trkpt>
      <trkpt lat="42.428452000" lon="-2.571730000">
        <ele>507.80</ele>
        <time>2016-10-29T06:00:06Z</time>
      </trkpt>
      <trkpt lat="42.428437000" lon="-2.571762000">
        <ele>507.80</ele>
        <time>2016-10-29T06:00:07Z</time>
      </trkpt>
      <trkpt lat="42.428420000" lon="-2.571794000">
        <ele>507.80</ele>
        <time>2016-10-29T06:00:08Z</time>
      </trkpt>
      <trkpt lat="42.428404000" lon="-2.571824000">
        <ele>507.80</ele>
        <time>2016-10-29T06:00:09Z</time>
      </trkpt>
      <trkpt lat="42.428387000" lon="-2.571856000">
        <ele>507.80</ele>
        <time>2016-10-29T06:00:10Z</time>
      </trkpt>
      <trkpt lat="42.428375000" lon="-2.571888000">
        <ele>507.80</ele>
        <time>2016-10-29T06:00:11Z</time>
      </trkpt>
      <trkpt lat="42.428358000" lon="-2.571922000">
        <ele>507.70</ele>
        <time>2016-10-29T06:00:12Z</time>
      </trkpt>
      <trkpt lat="42.428343000" lon="-2.571954000">
        <ele>507.70</ele>
        <time>2016-10-29T06:00:13Z</time>
      </trkpt>
      <trkpt lat="42.428328000" lon="-2.571988000">
        <ele>507.70</ele>
        <time>2016-10-29T06:00:14Z</time>
      </trkpt>
      <trkpt lat="42.428313000" lon="-2.572021000">
        <ele>507.70</ele>
        <time>2016-10-29T06:00:15Z</time>
      </trkpt>
      <trkpt lat="42.428296000" lon="-2.572058000">
        <ele>507.70</ele>
        <time>2016-10-29T06:00:16Z</time>
      </trkpt>
      <trkpt lat="42.428282000" lon="-2.572089000">
        <ele>507.90</ele>
        <time>2016-10-29T06:00:17Z</time>
      </trkpt>
      <trkpt lat="42.428267000" lon="-2.572124000">
        <ele>508.00</ele>
        <time>2016-10-29T06:00:18Z</time>
      </trkpt>
      <trkpt lat="42.428249000" lon="-2.572160000">
        <ele>508.00</ele>
        <time>2016-10-29T06:00:19Z</time>
      </trkpt>
      <trkpt lat="42.428233000" lon="-2.572193000">
        <ele>508.10</ele>
        <time>2016-10-29T06:00:20Z</time>
      </trkpt>
      <trkpt lat="42.428215000" lon="-2.572226000">
        <ele>508.00</ele>
        <time>2016-10-29T06:00:21Z</time>
      </trkpt>
      <trkpt lat="42.428200000" lon="-2.572257000">
        <ele>508.00</ele>
        <time>2016-10-29T06:00:22Z</time>
      </trkpt>
      <trkpt lat="42.428185000" lon="-2.572288000">
        <ele>507.80</ele>
        <time>2016-10-29T06:00:23Z</time>
      </trkpt>
      <trkpt lat="42.428167000" lon="-2.572320000">
        <ele>507.80</ele>
        <time>2016-10-29T06:00:24Z</time>
      </trkpt>
      <trkpt lat="42.428149000" lon="-2.572351000">
        <ele>507.80</ele>
        <time>2016-10-29T06:00:25Z</time>
      </trkpt>
      <trkpt lat="42.428133000" lon="-2.572384000">
        <ele>507.80</ele>
        <time>2016-10-29T06:00:26Z</time>
      </trkpt>
      <trkpt lat="42.428115000" lon="-2.572413000">
        <ele>507.80</ele>
        <time>2016-10-29T06:00:27Z</time>
      </trkpt>
      <trkpt lat="42.428098000" lon="-2.572445000">
        <ele>507.80</ele>
        <time>2016-10-29T06:00:28Z</time>
      </trkpt>
      <trkpt lat="42.428085000" lon="-2.572475000">
        <ele>507.80</ele>
        <time>2016-10-29T06:00:29Z</time>
      </trkpt>
      <trkpt lat="42.428070000" lon="-2.572504000">
        <ele>507.80</ele>
        <time>2016-10-29T06:00:30Z</time>
      </trkpt>
      <trkpt lat="42.428057000" lon="-2.572536000">
        <ele>507.90</ele>
        <time>2016-10-29T06:00:31Z</time>
      </trkpt>
      <trkpt lat="42.428044000" lon="-2.572572000">
        <ele>508.00</ele>
        <time>2016-10-29T06:00:32Z</time>
      </trkpt>
      <trkpt lat="42.428031000" lon="-2.572605000">
        <ele>508.20</ele>
        <time>2016-10-29T06:00:33Z</time>
      </trkpt>
      <trkpt lat="42.428018000" lon="-2.572639000">
        <ele>508.30</ele>
        <time>2016-10-29T06:00:34Z</time>
      </trkpt>
      <trkpt lat="42.428003000" lon="-2.572677000">
        <ele>508.40</ele>
        <time>2016-10-29T06:00:35Z</time>
      </trkpt>
      <trkpt lat="42.427987000" lon="-2.572710000">
        <ele>508.50</ele>
        <time>2016-10-29T06:00:36Z</time>
      </trkpt>
      <trkpt lat="42.427970000" lon="-2.572745000">
        <ele>508.60</ele>
        <time>2016-10-29T06:00:37Z</time>
      </trkpt>
      <trkpt lat="42.427955000" lon="-2.572780000">
        <ele>508.60</ele>
        <time>2016-10-29T06:00:38Z</time>
      </trkpt>
      <trkpt lat="42.427940000" lon="-2.572817000">
        <ele>508.60</ele>
        <time>2016-10-29T06:00:39Z</time>
      </trkpt>
      <trkpt lat="42.427923000" lon="-2.572849000">
        <ele>508.50</ele>
        <time>2016-10-29T06:00:40Z</time>
      </trkpt>
      <trkpt lat="42.427907000" lon="-2.572880000">
        <ele>508.40</ele>
        <time>2016-10-29T06:00:41Z</time>
      </trkpt>
      <trkpt lat="42.427877000" lon="-2.572940000">
        <ele>508.40</ele>
        <time>2016-10-29T06:00:43Z</time>
      </trkpt>
      <trkpt lat="42.427865000" lon="-2.572970000">
        <ele>508.30</ele>
        <time>2016-10-29T06:00:44Z</time>
      </trkpt>
      <trkpt lat="42.427850000" lon="-2.573003000">
        <ele>508.30</ele>
        <time>2016-10-29T06:00:45Z</time>
      </trkpt>
      <trkpt lat="42.427835000" lon="-2.573032000">
        <ele>508.30</ele>
        <time>2016-10-29T06:00:46Z</time>
      </trkpt>
      <trkpt lat="42.427820000" lon="-2.573063000">
        <ele>508.30</ele>
        <time>2016-10-29T06:00:47Z</time>
      </trkpt>
      <trkpt lat="42.427804000" lon="-2.573097000">
        <ele>508.30</ele>
        <time>2016-10-29T06:00:48Z</time>
      </trkpt>
      <trkpt lat="42.427789000" lon="-2.573131000">
        <ele>508.50</ele>
        <time>2016-10-29T06:00:49Z</time>
      </trkpt>
      <trkpt lat="42.427776000" lon="-2.573163000">
        <ele>508.60</ele>
        <time>2016-10-29T06:00:50Z</time>
      </trkpt>
      <trkpt lat="42.427760000" lon="-2.573194000">
        <ele>508.90</ele>
        <time>2016-10-29T06:00:51Z</time>
      </trkpt>
      <trkpt lat="42.427749000" lon="-2.573229000">
        <ele>509.00</ele>
        <time>2016-10-29T06:00:52Z</time>
      </trkpt>
      <trkpt lat="42.427734000" lon="-2.573264000">
        <ele>509.20</ele>
        <time>2016-10-29T06:00:53Z</time>
      </trkpt>
      <trkpt lat="42.427721000" lon="-2.573297000">
        <ele>509.30</ele>
        <time>2016-10-29T06:00:54Z</time>
      </trkpt>
      <trkpt lat="42.427705000" lon="-2.573328000">
        <ele>509.30</ele>
        <time>2016-10-29T06:00:55Z</time>
      </trkpt>
      <trkpt lat="42.427689000" lon="-2.573358000">
        <ele>509.40</ele>
        <time>2016-10-29T06:00:56Z</time>
      </trkpt>
      <trkpt lat="42.427671000" lon="-2.573384000">
        <ele>509.40</ele>
        <time>2016-10-29T06:00:57Z</time>
      </trkpt>
      <trkpt lat="42.427650000" lon="-2.573410000">
        <ele>509.40</ele>
        <time>2016-10-29T06:00:58Z</time>
      </trkpt>
      <trkpt lat="42.427623000" lon="-2.573434000">
        <ele>509.30</ele>
        <time>2016-10-29T06:00:59Z</time>
      </trkpt>
      <trkpt lat="42.427592000" lon="-2.573453000">
        <ele>509.30</ele>
        <time>2016-10-29T06:01:00Z</time>
      </trkpt>
      <trkpt lat="42.427564000" lon="-2.573471000">
        <ele>509.30</ele>
        <time>2016-10-29T06:01:01Z</time>
      </trkpt>
      <trkpt lat="42.427542000" lon="-2.573495000">
        <ele>509.30</ele>
        <time>2016-10-29T06:01:02Z</time>
      </trkpt>
      <trkpt lat="42.427524000" lon="-2.573524000">
        <ele>509.40</ele>
        <time>2016-10-29T06:01:03Z</time>
      </trkpt>
      <trkpt lat="42.427508000" lon="-2.573552000">
        <ele>509.40</ele>
        <time>2016-10-29T06:01:04Z</time>
      </trkpt>
      <trkpt lat="42.427485000" lon="-2.573571000">
        <ele>509.60</ele>
        <time>2016-10-29T06:01:05Z</time>
      </trkpt>
      <trkpt lat="42.427462000" lon="-2.573591000">
        <ele>509.70</ele>
        <time>2016-10-29T06:01:06Z</time>
      </trkpt>
      <trkpt lat="42.427440000" lon="-2.573618000">
        <ele>509.70</ele>
        <time>2016-10-29T06:01:07Z</time>
      </trkpt>
      <trkpt lat="42.427422000" lon="-2.573651000">
        <ele>509.80</ele>
        <time>2016-10-29T06:01:08Z</time>
      </trkpt>
      <trkpt lat="42.427405000" lon="-2.573687000">
        <ele>509.90</ele>
        <time>2016-10-29T06:01:09Z</time>
      </trkpt>
      <trkpt lat="42.427389000" lon="-2.573723000">
        <ele>510.00</ele>
        <time>2016-10-29T06:01:10Z</time>
      </trkpt>
      <trkpt lat="42.427375000" lon="-2.573755000">
        <ele>510.20</ele>
        <time>2016-10-29T06:01:11Z</time>
      </trkpt>
      <trkpt lat="42.427360000" lon="-2.573782000">
        <ele>510.30</ele>
        <time>2016-10-29T06:01:12Z</time>
      </trkpt>
      <trkpt lat="42.427344000" lon="-2.573808000">
        <ele>510.40</ele>
        <time>2016-10-29T06:01:13Z</time>
      </trkpt>
      <trkpt lat="42.427328000" lon="-2.573832000">
        <ele>510.50</ele>
        <time>2016-10-29T06:01:14Z</time>
      </trkpt>
      <trkpt lat="42.427310000" lon="-2.573861000">
        <ele>510.70</ele>
        <time>2016-10-29T06:01:15Z</time>
      </trkpt>
      <trkpt lat="42.427290000" lon="-2.573888000">
        <ele>510.80</ele>
        <time>2016-10-29T06:01:16Z</time>
      </trkpt>
      <trkpt lat="42.427271000" lon="-2.573919000">
        <ele>510.90</ele>
        <time>2016-10-29T06:01:17Z</time>
      </trkpt>
      <trkpt lat="42.427250000" lon="-2.573951000">
        <ele>510.90</ele>
        <time>2016-10-29T06:01:18Z</time>
      </trkpt>
      <trkpt lat="42.427232000" lon="-2.573986000">
        <ele>511.00</ele>
        <time>2016-10-29T06:01:19Z</time>
      </trkpt>
      <trkpt lat="42.427216000" lon="-2.574022000">
        <ele>511.00</ele>
        <time>2016-10-29T06:01:20Z</time>
      </trkpt>
      <trkpt lat="42.427201000" lon="-2.574053000">
        <ele>511.00</ele>
        <time>2016-10-29T06:01:21Z</time>
      </trkpt>
      <trkpt lat="42.427188000" lon="-2.574089000">
        <ele>511.10</ele>
        <time>2016-10-29T06:01:22Z</time>
      </trkpt>
      <trkpt lat="42.427176000" lon="-2.574126000">
        <ele>511.10</ele>
        <time>2016-10-29T06:01:23Z</time>
      </trkpt>
      <trkpt lat="42.427159000" lon="-2.574158000">
        <ele>511.10</ele>
        <time>2016-10-29T06:01:24Z</time>
      </trkpt>
      <trkpt lat="42.427144000" lon="-2.574190000">
        <ele>511.20</ele>
        <time>2016-10-29T06:01:25Z</time>
      </trkpt>
      <trkpt lat="42.427128000" lon="-2.574222000">
        <ele>511.30</ele>
        <time>2016-10-29T06:01:26Z</time>
      </trkpt>
      <trkpt lat="42.427112000" lon="-2.574255000">
        <ele>511.40</ele>
        <time>2016-10-29T06:01:27Z</time>
      </trkpt>
      <trkpt lat="42.427096000" lon="-2.574285000">
        <ele>511.50</ele>
        <time>2016-10-29T06:01:28Z</time>
      </trkpt>
      <trkpt lat="42.427081000" lon="-2.574316000">
        <ele>511.70</ele>
        <time>2016-10-29T06:01:29Z</time>
      </trkpt>
      <trkpt lat="42.427063000" lon="-2.574345000">
        <ele>511.90</ele>
        <time>2016-10-29T06:01:30Z</time>
      </trkpt>
      <trkpt lat="42.427047000" lon="-2.574377000">
        <ele>511.90</ele>
        <time>2016-10-29T06:01:31Z</time>
      </trkpt>
      <trkpt lat="42.427033000" lon="-2.574409000">
        <ele>512.00</ele>
        <time>2016-10-29T06:01:32Z</time>
      </trkpt>
      <trkpt lat="42.427018000" lon="-2.574439000">
        <ele>512.00</ele>
        <time>2016-10-29T06:01:33Z</time>
      </trkpt>
      <trkpt lat="42.427004000" lon="-2.574468000">
        <ele>512.00</ele>
        <time>2016-10-29T06:01:34Z</time>
      </trkpt>
      <trkpt lat="42.426991000" lon="-2.574499000">
        <ele>512.00</ele>
        <time>2016-10-29T06:01:35Z</time>
      </trkpt>
      <trkpt lat="42.426977000" lon="-2.574530000">
        <ele>512.00</ele>
        <time>2016-10-29T06:01:36Z</time>
      </trkpt>
      <trkpt lat="42.426962000" lon="-2.574559000">
        <ele>512.10</ele>
        <time>2016-10-29T06:01:37Z</time>
      </trkpt>
      <trkpt lat="42.426945000" lon="-2.574588000">
        <ele>512.20</ele>
        <time>2016-10-29T06:01:38Z</time>
      </trkpt>
      <trkpt lat="42.426927000" lon="-2.574616000">
        <ele>512.30</ele>
        <time>2016-10-29T06:01:39Z</time>
      </trkpt>
      <trkpt lat="42.426911000" lon="-2.574646000">
        <ele>512.30</ele>
        <time>2016-10-29T06:01:40Z</time>
      </trkpt>
      <trkpt lat="42.426897000" lon="-2.574678000">
        <ele>512.50</ele>
        <time>2016-10-29T06:01:41Z</time>
      </trkpt>
      <trkpt lat="42.426886000" lon="-2.574709000">
        <ele>512.60</ele>
        <time>2016-10-29T06:01:42Z</time>
      </trkpt>
      <trkpt lat="42.426862000" lon="-2.574768000">
        <ele>512.70</ele>
        <time>2016-10-29T06:01:44Z</time>
      </trkpt>
      <trkpt lat="42.426848000" lon="-2.574795000">
        <ele>512.80</ele>
        <time>2016-10-29T06:01:45Z</time>
      </trkpt>
      <trkpt lat="42.426834000" lon="-2.574826000">
        <ele>512.80</ele>
        <time>2016-10-29T06:01:46Z</time>
      </trkpt>
      <trkpt lat="42.426817000" lon="-2.574856000">
        <ele>512.80</ele>
        <time>2016-10-29T06:01:47Z</time>
      </trkpt>
      <trkpt lat="42.426802000" lon="-2.574884000">
        <ele>512.90</ele>
        <time>2016-10-29T06:01:48Z</time>
      </trkpt>
      <trkpt lat="42.426787000" lon="-2.574911000">
        <ele>513.10</ele>
        <time>2016-10-29T06:01:49Z</time>
      </trkpt>
      <trkpt lat="42.426775000" lon="-2.574946000">
        <ele>513.20</ele>
        <time>2016-10-29T06:01:50Z</time>
      </trkpt>
      <trkpt lat="42.426761000" lon="-2.574977000">
        <ele>513.30</ele>
        <time>2016-10-29T06:01:51Z</time>
      </trkpt>
      <trkpt lat="42.426747000" lon="-2.575007000">
        <ele>513.40</ele>
        <time>2016-10-29T06:01:52Z</time>
      </trkpt>
      <trkpt lat="42.426735000" lon="-2.575035000">
        <ele>513.60</ele>
        <time>2016-10-29T06:01:53Z</time>
      </trkpt>
      <trkpt lat="42.426723000" lon="-2.575065000">
        <ele>513.70</ele>
        <time>2016-10-29T06:01:54Z</time>
      </trkpt>
      <trkpt lat="42.426711000" lon="-2.575096000">
        <ele>513.70</ele>
        <time>2016-10-29T06:01:55Z</time>
      </trkpt>
      <trkpt lat="42.426696000" lon="-2.575125000">
        <ele>513.80</ele>
        <time>2016-10-29T06:01:56Z</time>
      </trkpt>
      <trkpt lat="42.426682000" lon="-2.575154000">
        <ele>514.00</ele>
        <time>2016-10-29T06:01:57Z</time>
      </trkpt>
      <trkpt lat="42.426670000" lon="-2.575186000">
        <ele>514.20</ele>
        <time>2016-10-29T06:01:58Z</time>
      </trkpt>
      <trkpt lat="42.426659000" lon="-2.575216000">
        <ele>514.40</ele>
        <time>2016-10-29T06:01:59Z</time>
      </trkpt>
      <trkpt lat="42.426647000" lon="-2.575244000">
        <ele>514.50</ele>
        <time>2016-10-29T06:02:00Z</time>
      </trkpt>
      <trkpt lat="42.426635000" lon="-2.575271000">
        <ele>514.60</ele>
        <time>2016-10-29T06:02:01Z</time>
      </trkpt>
      <trkpt lat="42.426621000" lon="-2.575297000">
        <ele>514.60</ele>
        <time>2016-10-29T06:02:02Z</time>
      </trkpt>
      <trkpt lat="42.426607000" lon="-2.575321000">
        <ele>514.60</ele>
        <time>2016-10-29T06:02:03Z</time>
      </trkpt>
      <trkpt lat="42.426594000" lon="-2.575339000">
        <ele>514.60</ele>
        <time>2016-10-29T06:02:04Z</time>
      </trkpt>
      <trkpt lat="42.426585000" lon="-2.575350000">
        <ele>514.50</ele>
        <time>2016-10-29T06:02:05Z</time>
      </trkpt>
      <trkpt lat="42.426579000" lon="-2.575365000">
        <ele>514.50</ele>
        <time>2016-10-29T06:02:06Z</time>
      </trkpt>
      <trkpt lat="42.426571000" lon="-2.575379000">
        <ele>514.40</ele>
        <time>2016-10-29T06:02:07Z</time>
      </trkpt>
      <trkpt lat="42.426565000" lon="-2.575392000">
        <ele>514.30</ele>
        <time>2016-10-29T06:02:08Z</time>
      </trkpt>
      <trkpt lat="42.426561000" lon="-2.575388000">
        <ele>514.20</ele>
        <time>2016-10-29T06:02:09Z</time>
      </trkpt>
      <trkpt lat="42.426558000" lon="-2.575392000">
        <ele>514.10</ele>
        <time>2016-10-29T06:02:10Z</time>
      </trkpt>
      <trkpt lat="42.426557000" lon="-2.575392000">
        <ele>514.20</ele>
        <time>2016-10-29T06:02:11Z</time>
      </trkpt>
      <trkpt lat="42.426549000" lon="-2.575389000">
        <ele>514.30</ele>
        <time>2016-10-29T06:02:12Z</time>
      </trkpt>
      <trkpt lat="42.426543000" lon="-2.575374000">
        <ele>514.40</ele>
        <time>2016-10-29T06:02:13Z</time>
      </trkpt>
      <trkpt lat="42.426529000" lon="-2.575353000">
        <ele>514.40</ele>
        <time>2016-10-29T06:02:14Z</time>
      </trkpt>
      <trkpt lat="42.426517000" lon="-2.575339000">
        <ele>514.50</ele>
        <time>2016-10-29T06:02:15Z</time>
      </trkpt>
      <trkpt lat="42.426497000" lon="-2.575332000">
        <ele>514.50</ele>
        <time>2016-10-29T06:02:16Z</time>
      </trkpt>
      <trkpt lat="42.426473000" lon="-2.575339000">
        <ele>514.50</ele>
        <time>2016-10-29T06:02:17Z</time>
      </trkpt>
      <trkpt lat="42.426449000" lon="-2.575349000">
        <ele>514.40</ele>
        <time>2016-10-29T06:02:18Z</time>
      </trkpt>
      <trkpt lat="42.426428000" lon="-2.575358000">
        <ele>514.50</ele>
        <time>2016-10-29T06:02:19Z</time>
      </trkpt>
      <trkpt lat="42.426406000" lon="-2.575364000">
        <ele>514.50</ele>
        <time>2016-10-29T06:02:20Z</time>
      </trkpt>
      <trkpt lat="42.426378000" lon="-2.575372000">
        <ele>514.60</ele>
        <time>2016-10-29T06:02:21Z</time>
      </trkpt>
      <trkpt lat="42.426349000" lon="-2.575378000">
        <ele>514.60</ele>
        <time>2016-10-29T06:02:22Z</time>
      </trkpt>
      <trkpt lat="42.426320000" lon="-2.575381000">
        <ele>514.70</ele>
        <time>2016-10-29T06:02:23Z</time>
      </trkpt>
      <trkpt lat="42.426291000" lon="-2.575384000">
        <ele>514.80</ele>
        <time>2016-10-29T06:02:24Z</time>
      </trkpt>
      <trkpt lat="42.426264000" lon="-2.575393000">
        <ele>514.90</ele>
        <time>2016-10-29T06:02:25Z</time>
      </trkpt>
      <trkpt lat="42.426240000" lon="-2.575403000">
        <ele>514.90</ele>
        <time>2016-10-29T06:02:26Z</time>
      </trkpt>
      <trkpt lat="42.426213000" lon="-2.575412000">
        <ele>515.10</ele>
        <time>2016-10-29T06:02:27Z</time>
      </trkpt>
      <trkpt lat="42.426187000" lon="-2.575421000">
        <ele>515.20</ele>
        <time>2016-10-29T06:02:28Z</time>
      </trkpt>
      <trkpt lat="42.426163000" lon="-2.575427000">
        <ele>515.30</ele>
        <time>2016-10-29T06:02:29Z</time>
      </trkpt>
      <trkpt lat="42.426136000" lon="-2.575435000">
        <ele>515.40</ele>
        <time>2016-10-29T06:02:30Z</time>
      </trkpt>
      <trkpt lat="42.426111000" lon="-2.575446000">
        <ele>515.40</ele>
        <time>2016-10-29T06:02:31Z</time>
      </trkpt>
      <trkpt lat="42.426085000" lon="-2.575454000">
        <ele>515.40</ele>
        <time>2016-10-29T06:02:32Z</time>
      </trkpt>
      <trkpt lat="42.426057000" lon="-2.575461000">
        <ele>515.40</ele>
        <time>2016-10-29T06:02:33Z</time>
      </trkpt>
      <trkpt lat="42.426032000" lon="-2.575475000">
        <ele>515.30</ele>
        <time>2016-10-29T06:02:34Z</time>
      </trkpt>
      <trkpt lat="42.426002000" lon="-2.575487000">
        <ele>515.70</ele>
        <time>2016-10-29T06:02:35Z</time>
      </trkpt>
      <trkpt lat="42.425973000" lon="-2.575497000">
        <ele>515.90</ele>
        <time>2016-10-29T06:02:36Z</time>
      </trkpt>
      <trkpt lat="42.425947000" lon="-2.575506000">
        <ele>516.10</ele>
        <time>2016-10-29T06:02:37Z</time>
      </trkpt>
      <trkpt lat="42.425922000" lon="-2.575518000">
        <ele>516.20</ele>
        <time>2016-10-29T06:02:38Z</time>
      </trkpt>
      <trkpt lat="42.425897000" lon="-2.575526000">
        <ele>516.30</ele>
        <time>2016-10-29T06:02:39Z</time>
      </trkpt>
      <trkpt lat="42.425871000" lon="-2.575538000">
        <ele>516.30</ele>
        <time>2016-10-29T06:02:40Z</time>
      </trkpt>
      <trkpt lat="42.425845000" lon="-2.575548000">
        <ele>516.30</ele>
        <time>2016-10-29T06:02:41Z</time>
      </trkpt>
      <trkpt lat="42.425818000" lon="-2.575561000">
        <ele>516.30</ele>
        <time>2016-10-29T06:02:42Z</time>
      </trkpt>
      <trkpt lat="42.425793000" lon="-2.575576000">
        <ele>516.40</ele>
        <time>2016-10-29T06:02:43Z</time>
      </trkpt>
      <trkpt lat="42.425738000" lon="-2.575597000">
        <ele>516.70</ele>
        <time>2016-10-29T06:02:45Z</time>
      </trkpt>
      <trkpt lat="42.425710000" lon="-2.575610000">
        <ele>516.90</ele>
        <time>2016-10-29T06:02:46Z</time>
      </trkpt>
      <trkpt lat="42.425683000" lon="-2.575622000">
        <ele>517.00</ele>
        <time>2016-10-29T06:02:47Z</time>
      </trkpt>
      <trkpt lat="42.425658000" lon="-2.575635000">
        <ele>517.10</ele>
        <time>2016-10-29T06:02:48Z</time>
      </trkpt>
      <trkpt lat="42.425631000" lon="-2.575650000">
        <ele>517.20</ele>
        <time>2016-10-29T06:02:49Z</time>
      </trkpt>
      <trkpt lat="42.425606000" lon="-2.575662000">
        <ele>517.30</ele>
        <time>2016-10-29T06:02:50Z</time>
      </trkpt>
      <trkpt lat="42.425582000" lon="-2.575677000">
        <ele>517.40</ele>
        <time>2016-10-29T06:02:51Z</time>
      </trkpt>
      <trkpt lat="42.425553000" lon="-2.575691000">
        <ele>517.40</ele>
        <time>2016-10-29T06:02:52Z</time>
      </trkpt>
      <trkpt lat="42.425525000" lon="-2.575706000">
        <ele>517.50</ele>
        <time>2016-10-29T06:02:53Z</time>
      </trkpt>
      <trkpt lat="42.425497000" lon="-2.575726000">
        <ele>517.50</ele>
        <time>2016-10-29T06:02:54Z</time>
      </trkpt>
      <trkpt lat="42.425470000" lon="-2.575745000">
        <ele>517.50</ele>
        <time>2016-10-29T06:02:55Z</time>
      </trkpt>
      <trkpt lat="42.425444000" lon="-2.575762000">
        <ele>517.50</ele>
        <time>2016-10-29T06:02:56Z</time>
      </trkpt>
      <trkpt lat="42.425418000" lon="-2.575779000">
        <ele>517.50</ele>
        <time>2016-10-29T06:02:57Z</time>
      </trkpt>
      <trkpt lat="42.425392000" lon="-2.575794000">
        <ele>517.50</ele>
        <time>2016-10-29T06:02:58Z</time>
      </trkpt>
      <trkpt lat="42.425364000" lon="-2.575811000">
        <ele>517.80</ele>
        <time>2016-10-29T06:02:59Z</time>
      </trkpt>
      <trkpt lat="42.425338000" lon="-2.575828000">
        <ele>518.00</ele>
        <time>2016-10-29T06:03:00Z</time>
      </trkpt>
      <trkpt lat="42.425312000" lon="-2.575846000">
        <ele>518.20</ele>
        <time>2016-10-29T06:03:01Z</time>
      </trkpt>
      <trkpt lat="42.425285000" lon="-2.575864000">
        <ele>518.40</ele>
        <time>2016-10-29T06:03:02Z</time>
      </trkpt>
      <trkpt lat="42.425256000" lon="-2.575881000">
        <ele>518.50</ele>
        <time>2016-10-29T06:03:03Z</time>
      </trkpt>
      <trkpt lat="42.425228000" lon="-2.575899000">
        <ele>518.50</ele>
        <time>2016-10-29T06:03:04Z</time>
      </trkpt>
      <trkpt lat="42.425200000" lon="-2.575917000">
        <ele>518.60</ele>
        <time>2016-10-29T06:03:05Z</time>
      </trkpt>
      <trkpt lat="42.425174000" lon="-2.575938000">
        <ele>518.70</ele>
        <time>2016-10-29T06:03:06Z</time>
      </trkpt>
      <trkpt lat="42.425146000" lon="-2.575957000">
        <ele>518.80</ele>
        <time>2016-10-29T06:03:07Z</time>
      </trkpt>
      <trkpt lat="42.425117000" lon="-2.575975000">
        <ele>518.90</ele>
        <time>2016-10-29T06:03:08Z</time>
      </trkpt>
      <trkpt lat="42.425089000" lon="-2.575994000">
        <ele>518.90</ele>
        <time>2016-10-29T06:03:09Z</time>
      </trkpt>
      <trkpt lat="42.425063000" lon="-2.576012000">
        <ele>519.00</ele>
        <time>2016-10-29T06:03:10Z</time>
      </trkpt>
      <trkpt lat="42.425034000" lon="-2.576030000">
        <ele>519.00</ele>
        <time>2016-10-29T06:03:11Z</time>
      </trkpt>
      <trkpt lat="42.425007000" lon="-2.576046000">
        <ele>519.00</ele>
        <time>2016-10-29T06:03:12Z</time>
      </trkpt>
      <trkpt lat="42.424980000" lon="-2.576061000">
        <ele>519.10</ele>
        <time>2016-10-29T06:03:13Z</time>
      </trkpt>
      <trkpt lat="42.424955000" lon="-2.576083000">
        <ele>519.20</ele>
        <time>2016-10-29T06:03:14Z</time>
      </trkpt>
      <trkpt lat="42.424932000" lon="-2.576108000">
        <ele>519.30</ele>
        <time>2016-10-29T06:03:15Z</time>
      </trkpt>
      <trkpt lat="42.424909000" lon="-2.576131000">
        <ele>519.40</ele>
        <time>2016-10-29T06:03:16Z</time>
      </trkpt>
      <trkpt lat="42.424885000" lon="-2.576157000">
        <ele>519.50</ele>
        <time>2016-10-29T06:03:17Z</time>
      </trkpt>
      <trkpt lat="42.424861000" lon="-2.576183000">
        <ele>519.60</ele>
        <time>2016-10-29T06:03:18Z</time>
      </trkpt>
      <trkpt lat="42.424837000" lon="-2.576209000">
        <ele>519.80</ele>
        <time>2016-10-29T06:03:19Z</time>
      </trkpt>
      <trkpt lat="42.424813000" lon="-2.576238000">
        <ele>520.00</ele>
        <time>2016-10-29T06:03:20Z</time>
      </trkpt>
      <trkpt lat="42.424793000" lon="-2.576271000">
        <ele>520.10</ele>
        <time>2016-10-29T06:03:21Z</time>
      </trkpt>
      <trkpt lat="42.424770000" lon="-2.576303000">
        <ele>520.30</ele>
        <time>2016-10-29T06:03:22Z</time>
      </trkpt>
      <trkpt lat="42.424750000" lon="-2.576334000">
        <ele>520.50</ele>
        <time>2016-10-29T06:03:23Z</time>
      </trkpt>
      <trkpt lat="42.424731000" lon="-2.576370000">
        <ele>520.70</ele>
        <time>2016-10-29T06:03:24Z</time>
      </trkpt>
      <trkpt lat="42.424711000" lon="-2.576403000">
        <ele>520.90</ele>
        <time>2016-10-29T06:03:25Z</time>
      </trkpt>
      <trkpt lat="42.424691000" lon="-2.576434000">
        <ele>521.10</ele>
        <time>2016-10-29T06:03:26Z</time>
      </trkpt>
      <trkpt lat="42.424668000" lon="-2.576465000">
        <ele>521.30</ele>
        <time>2016-10-29T06:03:27Z</time>
      </trkpt>
      <trkpt lat="42.424650000" lon="-2.576489000">
        <ele>521.40</ele>
        <time>2016-10-29T06:03:28Z</time>
      </trkpt>
      <trkpt lat="42.424631000" lon="-2.576515000">
        <ele>521.60</ele>
        <time>2016-10-29T06:03:29Z</time>
      </trkpt>
      <trkpt lat="42.424613000" lon="-2.576536000">
        <ele>521.70</ele>
        <time>2016-10-29T06:03:30Z</time>
      </trkpt>
      <trkpt lat="42.424593000" lon="-2.576564000">
        <ele>521.90</ele>
        <time>2016-10-29T06:03:31Z</time>
      </trkpt>
      <trkpt lat="42.424570000" lon="-2.576589000">
        <ele>522.10</ele>
        <time>2016-10-29T06:03:32Z</time>
      </trkpt>
      <trkpt lat="42.424545000" lon="-2.576617000">
        <ele>522.30</ele>
        <time>2016-10-29T06:03:33Z</time>
      </trkpt>
      <trkpt lat="42.424518000" lon="-2.576640000">
        <ele>522.40</ele>
        <time>2016-10-29T06:03:34Z</time>
      </trkpt>
      <trkpt lat="42.424492000" lon="-2.576665000">
        <ele>522.60</ele>
        <time>2016-10-29T06:03:35Z</time>
      </trkpt>
      <trkpt lat="42.424465000" lon="-2.576689000">
        <ele>522.60</ele>
        <time>2016-10-29T06:03:36Z</time>
      </trkpt>
      <trkpt lat="42.424441000" lon="-2.576715000">
        <ele>522.70</ele>
        <time>2016-10-29T06:03:37Z</time>
      </trkpt>
      <trkpt lat="42.424419000" lon="-2.576738000">
        <ele>522.80</ele>
        <time>2016-10-29T06:03:38Z</time>
      </trkpt>
      <trkpt lat="42.424395000" lon="-2.576765000">
        <ele>522.90</ele>
        <time>2016-10-29T06:03:39Z</time>
      </trkpt>
      <trkpt lat="42.424370000" lon="-2.576788000">
        <ele>522.90</ele>
        <time>2016-10-29T06:03:40Z</time>
      </trkpt>
      <trkpt lat="42.424346000" lon="-2.576813000">
        <ele>523.10</ele>
        <time>2016-10-29T06:03:41Z</time>
      </trkpt>
      <trkpt lat="42.424321000" lon="-2.576840000">
        <ele>523.30</ele>
        <time>2016-10-29T06:03:42Z</time>
      </trkpt>
      <trkpt lat="42.424295000" lon="-2.576865000">
        <ele>523.40</ele>
        <time>2016-10-29T06:03:43Z</time>
      </trkpt>
      <trkpt lat="42.424268000" lon="-2.576889000">
        <ele>523.40</ele>
        <time>2016-10-29T06:03:44Z</time>
      </trkpt>
      <trkpt lat="42.424217000" lon="-2.576931000">
        <ele>523.40</ele>
        <time>2016-10-29T06:03:46Z</time>
      </trkpt>
      <trkpt lat="42.424190000" lon="-2.576948000">
        <ele>523.30</ele>
        <time>2016-10-29T06:03:47Z</time>
      </trkpt>
      <trkpt lat="42.424161000" lon="-2.576960000">
        <ele>523.30</ele>
        <time>2016-10-29T06:03:48Z</time>
      </trkpt>
      <trkpt lat="42.424135000" lon="-2.576975000">
        <ele>523.30</ele>
        <time>2016-10-29T06:03:49Z</time>
      </trkpt>
      <trkpt lat="42.424107000" lon="-2.576987000">
        <ele>523.30</ele>
        <time>2016-10-29T06:03:50Z</time>
      </trkpt>
      <trkpt lat="42.424076000" lon="-2.576997000">
        <ele>523.80</ele>
        <time>2016-10-29T06:03:51Z</time>
      </trkpt>
      <trkpt lat="42.424047000" lon="-2.577003000">
        <ele>524.10</ele>
        <time>2016-10-29T06:03:52Z</time>
      </trkpt>
      <trkpt lat="42.424022000" lon="-2.577010000">
        <ele>524.40</ele>
        <time>2016-10-29T06:03:53Z</time>
      </trkpt>
      <trkpt lat="42.423995000" lon="-2.577017000">
        <ele>524.60</ele>
        <time>2016-10-29T06:03:54Z</time>
      </trkpt>
      <trkpt lat="42.423967000" lon="-2.577029000">
        <ele>524.80</ele>
        <time>2016-10-29T06:03:55Z</time>
      </trkpt>
      <trkpt lat="42.423938000" lon="-2.577038000">
        <ele>524.90</ele>
        <time>2016-10-29T06:03:56Z</time>
      </trkpt>
      <trkpt lat="42.423907000" lon="-2.577051000">
        <ele>525.00</ele>
        <time>2016-10-29T06:03:57Z</time>
      </trkpt>
      <trkpt lat="42.423878000" lon="-2.577062000">
        <ele>525.20</ele>
        <time>2016-10-29T06:03:58Z</time>
      </trkpt>
      <trkpt lat="42.423849000" lon="-2.577071000">
        <ele>525.20</ele>
        <time>2016-10-29T06:03:59Z</time>
      </trkpt>
      <trkpt lat="42.423819000" lon="-2.577081000">
        <ele>525.30</ele>
        <time>2016-10-29T06:04:00Z</time>
      </trkpt>
      <trkpt lat="42.423790000" lon="-2.577094000">
        <ele>525.40</ele>
        <time>2016-10-29T06:04:01Z</time>
      </trkpt>
      <trkpt lat="42.423760000" lon="-2.577106000">
        <ele>525.50</ele>
        <time>2016-10-29T06:04:02Z</time>
      </trkpt>
      <trkpt lat="42.423732000" lon="-2.577121000">
        <ele>525.60</ele>
        <time>2016-10-29T06:04:03Z</time>
      </trkpt>
      <trkpt lat="42.423701000" lon="-2.577134000">
        <ele>525.60</ele>
        <time>2016-10-29T06:04:04Z</time>
      </trkpt>
      <trkpt lat="42.423672000" lon="-2.577148000">
        <ele>525.60</ele>
        <time>2016-10-29T06:04:05Z</time>
      </trkpt>
      <trkpt lat="42.423640000" lon="-2.577158000">
        <ele>525.70</ele>
        <time>2016-10-29T06:04:06Z</time>
      </trkpt>
      <trkpt lat="42.423610000" lon="-2.577172000">
        <ele>525.80</ele>
        <time>2016-10-29T06:04:07Z</time>
      </trkpt>
      <trkpt lat="42.423578000" lon="-2.577181000">
        <ele>525.90</ele>
        <time>2016-10-29T06:04:08Z</time>
      </trkpt>
      <trkpt lat="42.423547000" lon="-2.577190000">
        <ele>526.00</ele>
        <time>2016-10-29T06:04:09Z</time>
      </trkpt>
      <trkpt lat="42.423519000" lon="-2.577199000">
        <ele>526.10</ele>
        <time>2016-10-29T06:04:10Z</time>
      </trkpt>
      <trkpt lat="42.423490000" lon="-2.577205000">
        <ele>526.50</ele>
        <time>2016-10-29T06:04:11Z</time>
      </trkpt>
      <trkpt lat="42.423458000" lon="-2.577206000">
        <ele>526.70</ele>
        <time>2016-10-29T06:04:12Z</time>
      </trkpt>
      <trkpt lat="42.423430000" lon="-2.577209000">
        <ele>526.90</ele>
        <time>2016-10-29T06:04:13Z</time>
      </trkpt>
      <trkpt lat="42.423401000" lon="-2.577215000">
        <ele>527.00</ele>
        <time>2016-10-29T06:04:14Z</time>
      </trkpt>
      <trkpt lat="42.423370000" lon="-2.577223000">
        <ele>527.30</ele>
        <time>2016-10-29T06:04:15Z</time>
      </trkpt>
      <trkpt lat="42.423339000" lon="-2.577229000">
        <ele>527.50</ele>
        <time>2016-10-29T06:04:16Z</time>
      </trkpt>
      <trkpt lat="42.423308000" lon="-2.577234000">
        <ele>527.70</ele>
        <time>2016-10-29T06:04:17Z</time>
      </trkpt>
      <trkpt lat="42.423275000" lon="-2.577237000">
        <ele>527.90</ele>
        <time>2016-10-29T06:04:18Z</time>
      </trkpt>
      <trkpt lat="42.423241000" lon="-2.577240000">
        <ele>528.00</ele>
        <time>2016-10-29T06:04:19Z</time>
      </trkpt>
      <trkpt lat="42.423208000" lon="-2.577244000">
        <ele>528.10</ele>
        <time>2016-10-29T06:04:20Z</time>
      </trkpt>
      <trkpt lat="42.423176000" lon="-2.577244000">
        <ele>528.20</ele>
        <time>2016-10-29T06:04:21Z</time>
      </trkpt>
      <trkpt lat="42.423143000" lon="-2.577246000">
        <ele>528.30</ele>
        <time>2016-10-29T06:04:22Z</time>
      </trkpt>
      <trkpt lat="42.423111000" lon="-2.577251000">
        <ele>528.30</ele>
        <time>2016-10-29T06:04:23Z</time>
      </trkpt>
      <trkpt lat="42.423078000" lon="-2.577249000">
        <ele>528.30</ele>
        <time>2016-10-29T06:04:24Z</time>
      </trkpt>
      <trkpt lat="42.423048000" lon="-2.577249000">
        <ele>528.30</ele>
        <time>2016-10-29T06:04:25Z</time>
      </trkpt>
      <trkpt lat="42.423014000" lon="-2.577253000">
        <ele>528.40</ele>
        <time>2016-10-29T06:04:26Z</time>
      </trkpt>
      <trkpt lat="42.422982000" lon="-2.577253000">
        <ele>528.40</ele>
        <time>2016-10-29T06:04:27Z</time>
      </trkpt>
      <trkpt lat="42.422947000" lon="-2.577253000">
        <ele>528.40</ele>
        <time>2016-10-29T06:04:28Z</time>
      </trkpt>
      <trkpt lat="42.422913000" lon="-2.577256000">
        <ele>528.40</ele>
        <time>2016-10-29T06:04:29Z</time>
      </trkpt>
      <trkpt lat="42.422880000" lon="-2.577256000">
        <ele>528.40</ele>
        <time>2016-10-29T06:04:30Z</time>
      </trkpt>
      <trkpt lat="42.422848000" lon="-2.577258000">
        <ele>528.40</ele>
        <time>2016-10-29T06:04:31Z</time>
      </trkpt>
      <trkpt lat="42.422819000" lon="-2.577266000">
        <ele>528.40</ele>
        <time>2016-10-29T06:04:32Z</time>
      </trkpt>
      <trkpt lat="42.422789000" lon="-2.577274000">
        <ele>528.50</ele>
        <time>2016-10-29T06:04:33Z</time>
      </trkpt>
      <trkpt lat="42.422760000" lon="-2.577282000">
        <ele>528.50</ele>
        <time>2016-10-29T06:04:34Z</time>
      </trkpt>
      <trkpt lat="42.422731000" lon="-2.577291000">
        <ele>528.70</ele>
        <time>2016-10-29T06:04:35Z</time>
      </trkpt>
      <trkpt lat="42.422702000" lon="-2.577305000">
        <ele>528.90</ele>
        <time>2016-10-29T06:04:36Z</time>
      </trkpt>
      <trkpt lat="42.422672000" lon="-2.577319000">
        <ele>529.10</ele>
        <time>2016-10-29T06:04:37Z</time>
      </trkpt>
      <trkpt lat="42.422646000" lon="-2.577330000">
        <ele>529.20</ele>
        <time>2016-10-29T06:04:38Z</time>
      </trkpt>
      <trkpt lat="42.422617000" lon="-2.577339000">
        <ele>529.40</ele>
        <time>2016-10-29T06:04:39Z</time>
      </trkpt>
      <trkpt lat="42.422587000" lon="-2.577349000">
        <ele>529.50</ele>
        <time>2016-10-29T06:04:40Z</time>
      </trkpt>
      <trkpt lat="42.422556000" lon="-2.577357000">
        <ele>529.60</ele>
        <time>2016-10-29T06:04:41Z</time>
      </trkpt>
      <trkpt lat="42.422527000" lon="-2.577365000">
        <ele>529.70</ele>
        <time>2016-10-29T06:04:42Z</time>
      </trkpt>
      <trkpt lat="42.422498000" lon="-2.577374000">
        <ele>529.90</ele>
        <time>2016-10-29T06:04:43Z</time>
      </trkpt>
      <trkpt lat="42.422469000" lon="-2.577385000">
        <ele>530.10</ele>
        <time>2016-10-29T06:04:44Z</time>
      </trkpt>
      <trkpt lat="42.422438000" lon="-2.577396000">
        <ele>530.40</ele>
        <time>2016-10-29T06:04:45Z</time>
      </trkpt>
      <trkpt lat="42.422377000" lon="-2.577416000">
        <ele>530.70</ele>
        <time>2016-10-29T06:04:47Z</time>
      </trkpt>
      <trkpt lat="42.422348000" lon="-2.577428000">
        <ele>530.80</ele>
        <time>2016-10-29T06:04:48Z</time>
      </trkpt>
      <trkpt lat="42.422319000" lon="-2.577439000">
        <ele>530.90</ele>
        <time>2016-10-29T06:04:49Z</time>
      </trkpt>
      <trkpt lat="42.422290000" lon="-2.577447000">
        <ele>530.90</ele>
        <time>2016-10-29T06:04:50Z</time>
      </trkpt>
      <trkpt lat="42.422259000" lon="-2.577457000">
        <ele>530.90</ele>
        <time>2016-10-29T06:04:51Z</time>
      </trkpt>
      <trkpt lat="42.422231000" lon="-2.577467000">
        <ele>530.90</ele>
        <time>2016-10-29T06:04:52Z</time>
      </trkpt>
      <trkpt lat="42.422199000" lon="-2.577476000">
        <ele>531.10</ele>
        <time>2016-10-29T06:04:53Z</time>
      </trkpt>
      <trkpt lat="42.422169000" lon="-2.577485000">
        <ele>531.20</ele>
        <time>2016-10-29T06:04:54Z</time>
      </trkpt>
      <trkpt lat="42.422140000" lon="-2.577493000">
        <ele>531.40</ele>
        <time>2016-10-29T06:04:55Z</time>
      </trkpt>
      <trkpt lat="42.422109000" lon="-2.577501000">
        <ele>531.40</ele>
        <time>2016-10-29T06:04:56Z</time>
      </trkpt>
      <trkpt lat="42.422078000" lon="-2.577505000">
        <ele>531.50</ele>
        <time>2016-10-29T06:04:57Z</time>
      </trkpt>
      <trkpt lat="42.422048000" lon="-2.577510000">
        <ele>531.60</ele>
        <time>2016-10-29T06:04:58Z</time>
      </trkpt>
      <trkpt lat="42.422019000" lon="-2.577514000">
        <ele>531.70</ele>
        <time>2016-10-29T06:04:59Z</time>
      </trkpt>
      <trkpt lat="42.421993000" lon="-2.577522000">
        <ele>531.80</ele>
        <time>2016-10-29T06:05:00Z</time>
      </trkpt>
      <trkpt lat="42.421967000" lon="-2.577531000">
        <ele>532.00</ele>
        <time>2016-10-29T06:05:01Z</time>
      </trkpt>
      <trkpt lat="42.421938000" lon="-2.577540000">
        <ele>532.20</ele>
        <time>2016-10-29T06:05:02Z</time>
      </trkpt>
      <trkpt lat="42.421908000" lon="-2.577553000">
        <ele>532.30</ele>
        <time>2016-10-29T06:05:03Z</time>
      </trkpt>
      <trkpt lat="42.421875000" lon="-2.577567000">
        <ele>532.40</ele>
        <time>2016-10-29T06:05:04Z</time>
      </trkpt>
      <trkpt lat="42.421844000" lon="-2.577584000">
        <ele>532.50</ele>
        <time>2016-10-29T06:05:05Z</time>
      </trkpt>
      <trkpt lat="42.421813000" lon="-2.577601000">
        <ele>532.60</ele>
        <time>2016-10-29T06:05:06Z</time>
      </trkpt>
      <trkpt lat="42.421783000" lon="-2.577618000">
        <ele>532.70</ele>
        <time>2016-10-29T06:05:07Z</time>
      </trkpt>
      <trkpt lat="42.421751000" lon="-2.577630000">
        <ele>532.80</ele>
        <time>2016-10-29T06:05:08Z</time>
      </trkpt>
      <trkpt lat="42.421717000" lon="-2.577641000">
        <ele>533.00</ele>
        <time>2016-10-29T06:05:09Z</time>
      </trkpt>
      <trkpt lat="42.421683000" lon="-2.577649000">
        <ele>533.10</ele>
        <time>2016-10-29T06:05:10Z</time>
      </trkpt>
      <trkpt lat="42.421650000" lon="-2.577662000">
        <ele>533.20</ele>
        <time>2016-10-29T06:05:11Z</time>
      </trkpt>
      <trkpt lat="42.421617000" lon="-2.577676000">
        <ele>533.20</ele>
        <time>2016-10-29T06:05:12Z</time>
      </trkpt>
      <trkpt lat="42.421586000" lon="-2.577690000">
        <ele>533.30</ele>
        <time>2016-10-29T06:05:13Z</time>
      </trkpt>
      <trkpt lat="42.421556000" lon="-2.577707000">
        <ele>533.30</ele>
        <time>2016-10-29T06:05:14Z</time>
      </trkpt>
      <trkpt lat="42.421526000" lon="-2.577722000">
        <ele>533.50</ele>
        <time>2016-10-29T06:05:15Z</time>
      </trkpt>
      <trkpt lat="42.421498000" lon="-2.577737000">
        <ele>533.60</ele>
        <time>2016-10-29T06:05:16Z</time>
      </trkpt>
      <trkpt lat="42.421468000" lon="-2.577755000">
        <ele>533.70</ele>
        <time>2016-10-29T06:05:17Z</time>
      </trkpt>
      <trkpt lat="42.421438000" lon="-2.577773000">
        <ele>533.70</ele>
        <time>2016-10-29T06:05:18Z</time>
      </trkpt>
      <trkpt lat="42.421410000" lon="-2.577795000">
        <ele>533.80</ele>
        <time>2016-10-29T06:05:19Z</time>
      </trkpt>
      <trkpt lat="42.421379000" lon="-2.577815000">
        <ele>533.80</ele>
        <time>2016-10-29T06:05:20Z</time>
      </trkpt>
      <trkpt lat="42.421351000" lon="-2.577835000">
        <ele>533.90</ele>
        <time>2016-10-29T06:05:21Z</time>
      </trkpt>
      <trkpt lat="42.421324000" lon="-2.577859000">
        <ele>534.00</ele>
        <time>2016-10-29T06:05:22Z</time>
      </trkpt>
      <trkpt lat="42.421297000" lon="-2.577880000">
        <ele>534.10</ele>
        <time>2016-10-29T06:05:23Z</time>
      </trkpt>
      <trkpt lat="42.421268000" lon="-2.577900000">
        <ele>534.20</ele>
        <time>2016-10-29T06:05:24Z</time>
      </trkpt>
      <trkpt lat="42.421241000" lon="-2.577924000">
        <ele>534.40</ele>
        <time>2016-10-29T06:05:25Z</time>
      </trkpt>
      <trkpt lat="42.421214000" lon="-2.577946000">
        <ele>534.50</ele>
        <time>2016-10-29T06:05:26Z</time>
      </trkpt>
      <trkpt lat="42.421188000" lon="-2.577972000">
        <ele>534.80</ele>
        <time>2016-10-29T06:05:27Z</time>
      </trkpt>
      <trkpt lat="42.421162000" lon="-2.577992000">
        <ele>535.00</ele>
        <time>2016-10-29T06:05:28Z</time>
      </trkpt>
      <trkpt lat="42.421134000" lon="-2.578014000">
        <ele>535.00</ele>
        <time>2016-10-29T06:05:29Z</time>
      </trkpt>
      <trkpt lat="42.421107000" lon="-2.578036000">
        <ele>535.10</ele>
        <time>2016-10-29T06:05:30Z</time>
      </trkpt>
      <trkpt lat="42.421081000" lon="-2.578057000">
        <ele>535.20</ele>
        <time>2016-10-29T06:05:31Z</time>
      </trkpt>
      <trkpt lat="42.421055000" lon="-2.578078000">
        <ele>535.30</ele>
        <time>2016-10-29T06:05:32Z</time>
      </trkpt>
      <trkpt lat="42.421029000" lon="-2.578098000">
        <ele>535.50</ele>
        <time>2016-10-29T06:05:33Z</time>
      </trkpt>
      <trkpt lat="42.421003000" lon="-2.578121000">
        <ele>535.70</ele>
        <time>2016-10-29T06:05:34Z</time>
      </trkpt>
      <trkpt lat="42.420977000" lon="-2.578144000">
        <ele>536.00</ele>
        <time>2016-10-29T06:05:35Z</time>
      </trkpt>
      <trkpt lat="42.420950000" lon="-2.578168000">
        <ele>536.20</ele>
        <time>2016-10-29T06:05:36Z</time>
      </trkpt>
      <trkpt lat="42.420924000" lon="-2.578190000">
        <ele>536.40</ele>
        <time>2016-10-29T06:05:37Z</time>
      </trkpt>
      <trkpt lat="42.420897000" lon="-2.578209000">
        <ele>536.60</ele>
        <time>2016-10-29T06:05:38Z</time>
      </trkpt>
      <trkpt lat="42.420869000" lon="-2.578228000">
        <ele>536.70</ele>
        <time>2016-10-29T06:05:39Z</time>
      </trkpt>
      <trkpt lat="42.420843000" lon="-2.578253000">
        <ele>536.70</ele>
        <time>2016-10-29T06:05:40Z</time>
      </trkpt>
      <trkpt lat="42.420818000" lon="-2.578278000">
        <ele>536.80</ele>
        <time>2016-10-29T06:05:41Z</time>
      </trkpt>
      <trkpt lat="42.420791000" lon="-2.578302000">
        <ele>536.80</ele>
        <time>2016-10-29T06:05:42Z</time>
      </trkpt>
      <trkpt lat="42.420764000" lon="-2.578326000">
        <ele>536.90</ele>
        <time>2016-10-29T06:05:43Z</time>
      </trkpt>
      <trkpt lat="42.420741000" lon="-2.578357000">
        <ele>536.90</ele>
        <time>2016-10-29T06:05:44Z</time>
      </trkpt>
      <trkpt lat="42.420715000" lon="-2.578389000">
        <ele>537.00</ele>
        <time>2016-10-29T06:05:45Z</time>
      </trkpt>
      <trkpt lat="42.420694000" lon="-2.578420000">
        <ele>537.10</ele>
        <time>2016-10-29T06:05:46Z</time>
      </trkpt>
      <trkpt lat="42.420654000" lon="-2.578490000">
        <ele>537.30</ele>
        <time>2016-10-29T06:05:48Z</time>
      </trkpt>
      <trkpt lat="42.420634000" lon="-2.578525000">
        <ele>537.60</ele>
        <time>2016-10-29T06:05:49Z</time>
      </trkpt>
      <trkpt lat="42.420616000" lon="-2.578560000">
        <ele>537.80</ele>
        <time>2016-10-29T06:05:50Z</time>
      </trkpt>
      <trkpt lat="42.420598000" lon="-2.578593000">
        <ele>537.90</ele>
        <time>2016-10-29T06:05:51Z</time>
      </trkpt>
      <trkpt lat="42.420582000" lon="-2.578631000">
        <ele>537.90</ele>
        <time>2016-10-29T06:05:52Z</time>
      </trkpt>
      <trkpt lat="42.420566000" lon="-2.578665000">
        <ele>538.00</ele>
        <time>2016-10-29T06:05:53Z</time>
      </trkpt>
      <trkpt lat="42.420553000" lon="-2.578695000">
        <ele>538.10</ele>
        <time>2016-10-29T06:05:54Z</time>
      </trkpt>
      <trkpt lat="42.420540000" lon="-2.578727000">
        <ele>538.10</ele>
        <time>2016-10-29T06:05:55Z</time>
      </trkpt>
      <trkpt lat="42.420525000" lon="-2.578763000">
        <ele>538.10</ele>
        <time>2016-10-29T06:05:56Z</time>
      </trkpt>
      <trkpt lat="42.420507000" lon="-2.578797000">
        <ele>538.20</ele>
        <time>2016-10-29T06:05:57Z</time>
      </trkpt>
      <trkpt lat="42.420489000" lon="-2.578832000">
        <ele>538.20</ele>
        <time>2016-10-29T06:05:58Z</time>
      </trkpt>
      <trkpt lat="42.420469000" lon="-2.578866000">
        <ele>538.30</ele>
        <time>2016-10-29T06:05:59Z</time>
      </trkpt>
      <trkpt lat="42.420451000" lon="-2.578899000">
        <ele>538.40</ele>
        <time>2016-10-29T06:06:00Z</time>
      </trkpt>
      <trkpt lat="42.420431000" lon="-2.578932000">
        <ele>538.80</ele>
        <time>2016-10-29T06:06:01Z</time>
      </trkpt>
      <trkpt lat="42.420411000" lon="-2.578966000">
        <ele>539.00</ele>
        <time>2016-10-29T06:06:02Z</time>
      </trkpt>
      <trkpt lat="42.420390000" lon="-2.579001000">
        <ele>539.20</ele>
        <time>2016-10-29T06:06:03Z</time>
      </trkpt>
      <trkpt lat="42.420370000" lon="-2.579032000">
        <ele>539.40</ele>
        <time>2016-10-29T06:06:04Z</time>
      </trkpt>
      <trkpt lat="42.420349000" lon="-2.579064000">
        <ele>539.50</ele>
        <time>2016-10-29T06:06:05Z</time>
      </trkpt>
      <trkpt lat="42.420327000" lon="-2.579094000">
        <ele>539.60</ele>
        <time>2016-10-29T06:06:06Z</time>
      </trkpt>
      <trkpt lat="42.420306000" lon="-2.579123000">
        <ele>539.60</ele>
        <time>2016-10-29T06:06:07Z</time>
      </trkpt>
      <trkpt lat="42.420285000" lon="-2.579155000">
        <ele>539.70</ele>
        <time>2016-10-29T06:06:08Z</time>
      </trkpt>
      <trkpt lat="42.420265000" lon="-2.579184000">
        <ele>539.80</ele>
        <time>2016-10-29T06:06:09Z</time>
      </trkpt>
      <trkpt lat="42.420242000" lon="-2.579216000">
        <ele>539.90</ele>
        <time>2016-10-29T06:06:10Z</time>
      </trkpt>
      <trkpt lat="42.420219000" lon="-2.579247000">
        <ele>540.10</ele>
        <time>2016-10-29T06:06:11Z</time>
      </trkpt>
      <trkpt lat="42.420197000" lon="-2.579275000">
        <ele>540.20</ele>
        <time>2016-10-29T06:06:12Z</time>
      </trkpt>
      <trkpt lat="42.420175000" lon="-2.579309000">
        <ele>540.30</ele>
        <time>2016-10-29T06:06:13Z</time>
      </trkpt>
      <trkpt lat="42.420152000" lon="-2.579342000">
        <ele>540.40</ele>
        <time>2016-10-29T06:06:14Z</time>
      </trkpt>
      <trkpt lat="42.420128000" lon="-2.579376000">
        <ele>540.50</ele>
        <time>2016-10-29T06:06:15Z</time>
      </trkpt>
      <trkpt lat="42.420107000" lon="-2.579408000">
        <ele>540.60</ele>
        <time>2016-10-29T06:06:16Z</time>
      </trkpt>
      <trkpt lat="42.420089000" lon="-2.579445000">
        <ele>540.60</ele>
        <time>2016-10-29T06:06:17Z</time>
      </trkpt>
      <trkpt lat="42.420075000" lon="-2.579484000">
        <ele>540.60</ele>
        <time>2016-10-29T06:06:18Z</time>
      </trkpt>
      <trkpt lat="42.420063000" lon="-2.579524000">
        <ele>540.70</ele>
        <time>2016-10-29T06:06:19Z</time>
      </trkpt>
      <trkpt lat="42.420053000" lon="-2.579567000">
        <ele>540.70</ele>
        <time>2016-10-29T06:06:20Z</time>
      </trkpt>
      <trkpt lat="42.420040000" lon="-2.579611000">
        <ele>540.90</ele>
        <time>2016-10-29T06:06:21Z</time>
      </trkpt>
      <trkpt lat="42.420028000" lon="-2.579652000">
        <ele>541.00</ele>
        <time>2016-10-29T06:06:22Z</time>
      </trkpt>
      <trkpt lat="42.420015000" lon="-2.579690000">
        <ele>541.10</ele>
        <time>2016-10-29T06:06:23Z</time>
      </trkpt>
      <trkpt lat="42.419999000" lon="-2.579726000">
        <ele>541.20</ele>
        <time>2016-10-29T06:06:24Z</time>
      </trkpt>
      <trkpt lat="42.419981000" lon="-2.579761000">
        <ele>541.30</ele>
        <time>2016-10-29T06:06:25Z</time>
      </trkpt>
      <trkpt lat="42.419962000" lon="-2.579788000">
        <ele>541.30</ele>
        <time>2016-10-29T06:06:26Z</time>
      </trkpt>
      <trkpt lat="42.419942000" lon="-2.579819000">
        <ele>541.40</ele>
        <time>2016-10-29T06:06:27Z</time>
      </trkpt>
      <trkpt lat="42.419920000" lon="-2.579849000">
        <ele>541.50</ele>
        <time>2016-10-29T06:06:28Z</time>
      </trkpt>
      <trkpt lat="42.419896000" lon="-2.579874000">
        <ele>541.50</ele>
        <time>2016-10-29T06:06:29Z</time>
      </trkpt>
      <trkpt lat="42.419869000" lon="-2.579898000">
        <ele>541.60</ele>
        <time>2016-10-29T06:06:30Z</time>
      </trkpt>
      <trkpt lat="42.419844000" lon="-2.579923000">
        <ele>541.70</ele>
        <time>2016-10-29T06:06:31Z</time>
      </trkpt>
      <trkpt lat="42.419816000" lon="-2.579947000">
        <ele>541.70</ele>
        <time>2016-10-29T06:06:32Z</time>
      </trkpt>
      <trkpt lat="42.419791000" lon="-2.579971000">
        <ele>541.90</ele>
        <time>2016-10-29T06:06:33Z</time>
      </trkpt>
      <trkpt lat="42.419764000" lon="-2.579991000">
        <ele>542.10</ele>
        <time>2016-10-29T06:06:34Z</time>
      </trkpt>
      <trkpt lat="42.419740000" lon="-2.580013000">
        <ele>542.20</ele>
        <time>2016-10-29T06:06:35Z</time>
      </trkpt>
      <trkpt lat="42.419714000" lon="-2.580034000">
        <ele>542.20</ele>
        <time>2016-10-29T06:06:36Z</time>
      </trkpt>
      <trkpt lat="42.419686000" lon="-2.580056000">
        <ele>542.40</ele>
        <time>2016-10-29T06:06:37Z</time>
      </trkpt>
      <trkpt lat="42.419661000" lon="-2.580076000">
        <ele>542.60</ele>
        <time>2016-10-29T06:06:38Z</time>
      </trkpt>
      <trkpt lat="42.419634000" lon="-2.580097000">
        <ele>542.70</ele>
        <time>2016-10-29T06:06:39Z</time>
      </trkpt>
      <trkpt lat="42.419604000" lon="-2.580116000">
        <ele>542.80</ele>
        <time>2016-10-29T06:06:40Z</time>
      </trkpt>
      <trkpt lat="42.419575000" lon="-2.580137000">
        <ele>542.80</ele>
        <time>2016-10-29T06:06:41Z</time>
      </trkpt>
      <trkpt lat="42.419547000" lon="-2.580155000">
        <ele>542.90</ele>
        <time>2016-10-29T06:06:42Z</time>
      </trkpt>
      <trkpt lat="42.419521000" lon="-2.580174000">
        <ele>542.80</ele>
        <time>2016-10-29T06:06:43Z</time>
      </trkpt>
      <trkpt lat="42.419492000" lon="-2.580191000">
        <ele>542.80</ele>
        <time>2016-10-29T06:06:44Z</time>
      </trkpt>
      <trkpt lat="42.419463000" lon="-2.580210000">
        <ele>542.80</ele>
        <time>2016-10-29T06:06:45Z</time>
      </trkpt>
      <trkpt lat="42.419431000" lon="-2.580225000">
        <ele>542.80</ele>
        <time>2016-10-29T06:06:46Z</time>
      </trkpt>
      <trkpt lat="42.419401000" lon="-2.580239000">
        <ele>542.90</ele>
        <time>2016-10-29T06:06:47Z</time>
      </trkpt>
      <trkpt lat="42.419341000" lon="-2.580265000">
        <ele>543.10</ele>
        <time>2016-10-29T06:06:49Z</time>
      </trkpt>
      <trkpt lat="42.419312000" lon="-2.580274000">
        <ele>543.20</ele>
        <time>2016-10-29T06:06:50Z</time>
      </trkpt>
      <trkpt lat="42.419284000" lon="-2.580283000">
        <ele>543.30</ele>
        <time>2016-10-29T06:06:51Z</time>
      </trkpt>
      <trkpt lat="42.419257000" lon="-2.580292000">
        <ele>543.40</ele>
        <time>2016-10-29T06:06:52Z</time>
      </trkpt>
      <trkpt lat="42.419225000" lon="-2.580302000">
        <ele>543.70</ele>
        <time>2016-10-29T06:06:53Z</time>
      </trkpt>
      <trkpt lat="42.419192000" lon="-2.580312000">
        <ele>544.00</ele>
        <time>2016-10-29T06:06:54Z</time>
      </trkpt>
      <trkpt lat="42.419159000" lon="-2.580316000">
        <ele>544.20</ele>
        <time>2016-10-29T06:06:55Z</time>
      </trkpt>
      <trkpt lat="42.419128000" lon="-2.580324000">
        <ele>544.30</ele>
        <time>2016-10-29T06:06:56Z</time>
      </trkpt>
      <trkpt lat="42.419098000" lon="-2.580331000">
        <ele>544.50</ele>
        <time>2016-10-29T06:06:57Z</time>
      </trkpt>
      <trkpt lat="42.419068000" lon="-2.580337000">
        <ele>544.60</ele>
        <time>2016-10-29T06:06:58Z</time>
      </trkpt>
      <trkpt lat="42.419040000" lon="-2.580345000">
        <ele>544.70</ele>
        <time>2016-10-29T06:06:59Z</time>
      </trkpt>
      <trkpt lat="42.419015000" lon="-2.580362000">
        <ele>544.80</ele>
        <time>2016-10-29T06:07:00Z</time>
      </trkpt>
      <trkpt lat="42.418992000" lon="-2.580381000">
        <ele>544.80</ele>
        <time>2016-10-29T06:07:01Z</time>
      </trkpt>
      <trkpt lat="42.418966000" lon="-2.580398000">
        <ele>544.90</ele>
        <time>2016-10-29T06:07:02Z</time>
      </trkpt>
      <trkpt lat="42.418938000" lon="-2.580413000">
        <ele>545.10</ele>
        <time>2016-10-29T06:07:03Z</time>
      </trkpt>
      <trkpt lat="42.418910000" lon="-2.580423000">
        <ele>545.30</ele>
        <time>2016-10-29T06:07:04Z</time>
      </trkpt>
      <trkpt lat="42.418883000" lon="-2.580428000">
        <ele>545.40</ele>
        <time>2016-10-29T06:07:05Z</time>
      </trkpt>
      <trkpt lat="42.418853000" lon="-2.580430000">
        <ele>545.50</ele>
        <time>2016-10-29T06:07:06Z</time>
      </trkpt>
      <trkpt lat="42.418821000" lon="-2.580430000">
        <ele>545.70</ele>
        <time>2016-10-29T06:07:07Z</time>
      </trkpt>
      <trkpt lat="42.418789000" lon="-2.580436000">
        <ele>545.90</ele>
        <time>2016-10-29T06:07:08Z</time>
      </trkpt>
      <trkpt lat="42.418758000" lon="-2.580440000">
        <ele>546.10</ele>
        <time>2016-10-29T06:07:09Z</time>
      </trkpt>
      <trkpt lat="42.418727000" lon="-2.580444000">
        <ele>546.20</ele>
        <time>2016-10-29T06:07:10Z</time>
      </trkpt>
      <trkpt lat="42.418697000" lon="-2.580451000">
        <ele>546.30</ele>
        <time>2016-10-29T06:07:11Z</time>
      </trkpt>
      <trkpt lat="42.418668000" lon="-2.580462000">
        <ele>546.30</ele>
        <time>2016-10-29T06:07:12Z</time>
      </trkpt>
      <trkpt lat="42.418639000" lon="-2.580476000">
        <ele>546.50</ele>
        <time>2016-10-29T06:07:13Z</time>
      </trkpt>
      <trkpt lat="42.418612000" lon="-2.580494000">
        <ele>546.70</ele>
        <time>2016-10-29T06:07:14Z</time>
      </trkpt>
      <trkpt lat="42.418585000" lon="-2.580513000">
        <ele>547.00</ele>
        <time>2016-10-29T06:07:15Z</time>
      </trkpt>
      <trkpt lat="42.418562000" lon="-2.580536000">
        <ele>547.20</ele>
        <time>2016-10-29T06:07:16Z</time>
      </trkpt>
      <trkpt lat="42.418538000" lon="-2.580563000">
        <ele>547.30</ele>
        <time>2016-10-29T06:07:17Z</time>
      </trkpt>
      <trkpt lat="42.418515000" lon="-2.580590000">
        <ele>547.50</ele>
        <time>2016-10-29T06:07:18Z</time>
      </trkpt>
      <trkpt lat="42.418494000" lon="-2.580621000">
        <ele>547.70</ele>
        <time>2016-10-29T06:07:19Z</time>
      </trkpt>
      <trkpt lat="42.418472000" lon="-2.580653000">
        <ele>547.80</ele>
        <time>2016-10-29T06:07:20Z</time>
      </trkpt>
      <trkpt lat="42.418451000" lon="-2.580687000">
        <ele>548.00</ele>
        <time>2016-10-29T06:07:21Z</time>
      </trkpt>
      <trkpt lat="42.418430000" lon="-2.580720000">
        <ele>548.10</ele>
        <time>2016-10-29T06:07:22Z</time>
      </trkpt>
      <trkpt lat="42.418411000" lon="-2.580754000">
        <ele>548.30</ele>
        <time>2016-10-29T06:07:23Z</time>
      </trkpt>
      <trkpt lat="42.418390000" lon="-2.580784000">
        <ele>548.50</ele>
        <time>2016-10-29T06:07:24Z</time>
      </trkpt>
      <trkpt lat="42.418367000" lon="-2.580808000">
        <ele>548.70</ele>
        <time>2016-10-29T06:07:25Z</time>
      </trkpt>
      <trkpt lat="42.418344000" lon="-2.580837000">
        <ele>548.80</ele>
        <time>2016-10-29T06:07:26Z</time>
      </trkpt>
      <trkpt lat="42.418326000" lon="-2.580871000">
        <ele>549.00</ele>
        <time>2016-10-29T06:07:27Z</time>
      </trkpt>
      <trkpt lat="42.418309000" lon="-2.580909000">
        <ele>549.10</ele>
        <time>2016-10-29T06:07:28Z</time>
      </trkpt>
      <trkpt lat="42.418287000" lon="-2.580943000">
        <ele>549.20</ele>
        <time>2016-10-29T06:07:29Z</time>
      </trkpt>
      <trkpt lat="42.418268000" lon="-2.580977000">
        <ele>549.30</ele>
        <time>2016-10-29T06:07:30Z</time>
      </trkpt>
      <trkpt lat="42.418247000" lon="-2.581015000">
        <ele>549.30</ele>
        <time>2016-10-29T06:07:31Z</time>
      </trkpt>
      <trkpt lat="42.418226000" lon="-2.581052000">
        <ele>549.40</ele>
        <time>2016-10-29T06:07:32Z</time>
      </trkpt>
      <trkpt lat="42.418207000" lon="-2.581088000">
        <ele>549.40</ele>
        <time>2016-10-29T06:07:33Z</time>
      </trkpt>
      <trkpt lat="42.418185000" lon="-2.581124000">
        <ele>549.40</ele>
        <time>2016-10-29T06:07:34Z</time>
      </trkpt>
      <trkpt lat="42.418166000" lon="-2.581155000">
        <ele>549.50</ele>
        <time>2016-10-29T06:07:35Z</time>
      </trkpt>
      <trkpt lat="42.418146000" lon="-2.581187000">
        <ele>549.50</ele>
        <time>2016-10-29T06:07:36Z</time>
      </trkpt>
      <trkpt lat="42.418128000" lon="-2.581226000">
        <ele>549.70</ele>
        <time>2016-10-29T06:07:37Z</time>
      </trkpt>
      <trkpt lat="42.418112000" lon="-2.581263000">
        <ele>549.90</ele>
        <time>2016-10-29T06:07:38Z</time>
      </trkpt>
      <trkpt lat="42.418095000" lon="-2.581299000">
        <ele>550.00</ele>
        <time>2016-10-29T06:07:39Z</time>
      </trkpt>
      <trkpt lat="42.418079000" lon="-2.581336000">
        <ele>550.10</ele>
        <time>2016-10-29T06:07:40Z</time>
      </trkpt>
      <trkpt lat="42.418065000" lon="-2.581376000">
        <ele>550.20</ele>
        <time>2016-10-29T06:07:41Z</time>
      </trkpt>
      <trkpt lat="42.418054000" lon="-2.581417000">
        <ele>550.30</ele>
        <time>2016-10-29T06:07:42Z</time>
      </trkpt>
      <trkpt lat="42.418044000" lon="-2.581458000">
        <ele>550.50</ele>
        <time>2016-10-29T06:07:43Z</time>
      </trkpt>
      <trkpt lat="42.418036000" lon="-2.581499000">
        <ele>550.60</ele>
        <time>2016-10-29T06:07:44Z</time>
      </trkpt>
      <trkpt lat="42.418029000" lon="-2.581545000">
        <ele>550.70</ele>
        <time>2016-10-29T06:07:45Z</time>
      </trkpt>
      <trkpt lat="42.418024000" lon="-2.581584000">
        <ele>550.80</ele>
        <time>2016-10-29T06:07:46Z</time>
      </trkpt>
      <trkpt lat="42.418023000" lon="-2.581623000">
        <ele>550.90</ele>
        <time>2016-10-29T06:07:47Z</time>
      </trkpt>
      <trkpt lat="42.418021000" lon="-2.581667000">
        <ele>550.90</ele>
        <time>2016-10-29T06:07:48Z</time>
      </trkpt>
      <trkpt lat="42.418014000" lon="-2.581756000">
        <ele>551.10</ele>
        <time>2016-10-29T06:07:50Z</time>
      </trkpt>
      <trkpt lat="42.418012000" lon="-2.581798000">
        <ele>551.10</ele>
        <time>2016-10-29T06:07:51Z</time>
      </trkpt>
      <trkpt lat="42.418008000" lon="-2.581842000">
        <ele>551.20</ele>
        <time>2016-10-29T06:07:52Z</time>
      </trkpt>
      <trkpt lat="42.418002000" lon="-2.581885000">
        <ele>551.30</ele>
        <time>2016-10-29T06:07:53Z</time>
      </trkpt>
      <trkpt lat="42.417987000" lon="-2.581926000">
        <ele>551.30</ele>
        <time>2016-10-29T06:07:54Z</time>
      </trkpt>
      <trkpt lat="42.417965000" lon="-2.581955000">
        <ele>551.50</ele>
        <time>2016-10-29T06:07:55Z</time>
      </trkpt>
      <trkpt lat="42.417941000" lon="-2.581976000">
        <ele>551.70</ele>
        <time>2016-10-29T06:07:56Z</time>
      </trkpt>
      <trkpt lat="42.417914000" lon="-2.581992000">
        <ele>551.80</ele>
        <time>2016-10-29T06:07:57Z</time>
      </trkpt>
      <trkpt lat="42.417886000" lon="-2.582008000">
        <ele>551.90</ele>
        <time>2016-10-29T06:07:58Z</time>
      </trkpt>
      <trkpt lat="42.417857000" lon="-2.582025000">
        <ele>552.00</ele>
        <time>2016-10-29T06:07:59Z</time>
      </trkpt>
      <trkpt lat="42.417825000" lon="-2.582037000">
        <ele>552.10</ele>
        <time>2016-10-29T06:08:00Z</time>
      </trkpt>
      <trkpt lat="42.417793000" lon="-2.582048000">
        <ele>552.30</ele>
        <time>2016-10-29T06:08:01Z</time>
      </trkpt>
      <trkpt lat="42.417762000" lon="-2.582059000">
        <ele>552.40</ele>
        <time>2016-10-29T06:08:02Z</time>
      </trkpt>
      <trkpt lat="42.417730000" lon="-2.582065000">
        <ele>552.50</ele>
        <time>2016-10-29T06:08:03Z</time>
      </trkpt>
      <trkpt lat="42.417702000" lon="-2.582072000">
        <ele>552.60</ele>
        <time>2016-10-29T06:08:04Z</time>
      </trkpt>
      <trkpt lat="42.417673000" lon="-2.582084000">
        <ele>552.80</ele>
        <time>2016-10-29T06:08:05Z</time>
      </trkpt>
      <trkpt lat="42.417643000" lon="-2.582098000">
        <ele>552.90</ele>
        <time>2016-10-29T06:08:06Z</time>
      </trkpt>
      <trkpt lat="42.417612000" lon="-2.582109000">
        <ele>553.00</ele>
        <time>2016-10-29T06:08:07Z</time>
      </trkpt>
      <trkpt lat="42.417582000" lon="-2.582120000">
        <ele>553.10</ele>
        <time>2016-10-29T06:08:08Z</time>
      </trkpt>
      <trkpt lat="42.417549000" lon="-2.582125000">
        <ele>553.20</ele>
        <time>2016-10-29T06:08:09Z</time>
      </trkpt>
      <trkpt lat="42.417517000" lon="-2.582134000">
        <ele>553.30</ele>
        <time>2016-10-29T06:08:10Z</time>
      </trkpt>
      <trkpt lat="42.417489000" lon="-2.582143000">
        <ele>553.60</ele>
        <time>2016-10-29T06:08:11Z</time>
      </trkpt>
      <trkpt lat="42.417458000" lon="-2.582153000">
        <ele>553.80</ele>
        <time>2016-10-29T06:08:12Z</time>
      </trkpt>
      <trkpt lat="42.417428000" lon="-2.582164000">
        <ele>554.10</ele>
        <time>2016-10-29T06:08:13Z</time>
      </trkpt>
      <trkpt lat="42.417399000" lon="-2.582177000">
        <ele>554.30</ele>
        <time>2016-10-29T06:08:14Z</time>
      </trkpt>
      <trkpt lat="42.417371000" lon="-2.582198000">
        <ele>554.40</ele>
        <time>2016-10-29T06:08:15Z</time>
      </trkpt>
      <trkpt lat="42.417345000" lon="-2.582224000">
        <ele>554.60</ele>
        <time>2016-10-29T06:08:16Z</time>
      </trkpt>
      <trkpt lat="42.417320000" lon="-2.582252000">
        <ele>554.70</ele>
        <time>2016-10-29T06:08:17Z</time>
      </trkpt>
      <trkpt lat="42.417295000" lon="-2.582280000">
        <ele>554.70</ele>
        <time>2016-10-29T06:08:18Z</time>
      </trkpt>
      <trkpt lat="42.417275000" lon="-2.582312000">
        <ele>554.80</ele>
        <time>2016-10-29T06:08:19Z</time>
      </trkpt>
      <trkpt lat="42.417252000" lon="-2.582344000">
        <ele>554.80</ele>
        <time>2016-10-29T06:08:20Z</time>
      </trkpt>
      <trkpt lat="42.417230000" lon="-2.582378000">
        <ele>554.80</ele>
        <time>2016-10-29T06:08:21Z</time>
      </trkpt>
      <trkpt lat="42.417209000" lon="-2.582415000">
        <ele>554.90</ele>
        <time>2016-10-29T06:08:22Z</time>
      </trkpt>
      <trkpt lat="42.417192000" lon="-2.582450000">
        <ele>555.00</ele>
        <time>2016-10-29T06:08:23Z</time>
      </trkpt>
      <trkpt lat="42.417171000" lon="-2.582482000">
        <ele>555.10</ele>
        <time>2016-10-29T06:08:24Z</time>
      </trkpt>
      <trkpt lat="42.417152000" lon="-2.582510000">
        <ele>555.20</ele>
        <time>2016-10-29T06:08:25Z</time>
      </trkpt>
      <trkpt lat="42.417135000" lon="-2.582544000">
        <ele>555.20</ele>
        <time>2016-10-29T06:08:26Z</time>
      </trkpt>
      <trkpt lat="42.417117000" lon="-2.582582000">
        <ele>555.40</ele>
        <time>2016-10-29T06:08:27Z</time>
      </trkpt>
      <trkpt lat="42.417097000" lon="-2.582621000">
        <ele>555.40</ele>
        <time>2016-10-29T06:08:28Z</time>
      </trkpt>
      <trkpt lat="42.417077000" lon="-2.582657000">
        <ele>555.60</ele>
        <time>2016-10-29T06:08:29Z</time>
      </trkpt>
      <trkpt lat="42.417060000" lon="-2.582690000">
        <ele>555.70</ele>
        <time>2016-10-29T06:08:30Z</time>
      </trkpt>
      <trkpt lat="42.417043000" lon="-2.582721000">
        <ele>555.70</ele>
        <time>2016-10-29T06:08:31Z</time>
      </trkpt>
      <trkpt lat="42.417026000" lon="-2.582754000">
        <ele>555.80</ele>
        <time>2016-10-29T06:08:32Z</time>
      </trkpt>
      <trkpt lat="42.417010000" lon="-2.582790000">
        <ele>555.80</ele>
        <time>2016-10-29T06:08:33Z</time>
      </trkpt>
      <trkpt lat="42.416992000" lon="-2.582826000">
        <ele>555.90</ele>
        <time>2016-10-29T06:08:34Z</time>
      </trkpt>
      <trkpt lat="42.416975000" lon="-2.582862000">
        <ele>556.00</ele>
        <time>2016-10-29T06:08:35Z</time>
      </trkpt>
      <trkpt lat="42.416957000" lon="-2.582898000">
        <ele>556.10</ele>
        <time>2016-10-29T06:08:36Z</time>
      </trkpt>
      <trkpt lat="42.416939000" lon="-2.582933000">
        <ele>556.20</ele>
        <time>2016-10-29T06:08:37Z</time>
      </trkpt>
      <trkpt lat="42.416921000" lon="-2.582967000">
        <ele>556.20</ele>
        <time>2016-10-29T06:08:38Z</time>
      </trkpt>
      <trkpt lat="42.416903000" lon="-2.583003000">
        <ele>556.30</ele>
        <time>2016-10-29T06:08:39Z</time>
      </trkpt>
      <trkpt lat="42.416887000" lon="-2.583039000">
        <ele>556.30</ele>
        <time>2016-10-29T06:08:40Z</time>
      </trkpt>
      <trkpt lat="42.416869000" lon="-2.583075000">
        <ele>556.30</ele>
        <time>2016-10-29T06:08:41Z</time>
      </trkpt>
      <trkpt lat="42.416853000" lon="-2.583111000">
        <ele>556.30</ele>
        <time>2016-10-29T06:08:42Z</time>
      </trkpt>
      <trkpt lat="42.416834000" lon="-2.583148000">
        <ele>556.40</ele>
        <time>2016-10-29T06:08:43Z</time>
      </trkpt>
      <trkpt lat="42.416814000" lon="-2.583185000">
        <ele>556.50</ele>
        <time>2016-10-29T06:08:44Z</time>
      </trkpt>
      <trkpt lat="42.416797000" lon="-2.583219000">
        <ele>556.60</ele>
        <time>2016-10-29T06:08:45Z</time>
      </trkpt>
      <trkpt lat="42.416780000" lon="-2.583254000">
        <ele>556.70</ele>
        <time>2016-10-29T06:08:46Z</time>
      </trkpt>
      <trkpt lat="42.416763000" lon="-2.583288000">
        <ele>556.90</ele>
        <time>2016-10-29T06:08:47Z</time>
      </trkpt>
      <trkpt lat="42.416745000" lon="-2.583322000">
        <ele>557.10</ele>
        <time>2016-10-29T06:08:48Z</time>
      </trkpt>
      <trkpt lat="42.416729000" lon="-2.583358000">
        <ele>557.30</ele>
        <time>2016-10-29T06:08:49Z</time>
      </trkpt>
      <trkpt lat="42.416694000" lon="-2.583425000">
        <ele>557.60</ele>
        <time>2016-10-29T06:08:51Z</time>
      </trkpt>
      <trkpt lat="42.416675000" lon="-2.583456000">
        <ele>557.70</ele>
        <time>2016-10-29T06:08:52Z</time>
      </trkpt>
      <trkpt lat="42.416657000" lon="-2.583490000">
        <ele>557.80</ele>
        <time>2016-10-29T06:08:53Z</time>
      </trkpt>
      <trkpt lat="42.416636000" lon="-2.583521000">
        <ele>557.90</ele>
        <time>2016-10-29T06:08:54Z</time>
      </trkpt>
      <trkpt lat="42.416614000" lon="-2.583554000">
        <ele>558.30</ele>
        <time>2016-10-29T06:08:55Z</time>
      </trkpt>
      <trkpt lat="42.416593000" lon="-2.583585000">
        <ele>558.50</ele>
        <time>2016-10-29T06:08:56Z</time>
      </trkpt>
      <trkpt lat="42.416574000" lon="-2.583619000">
        <ele>558.70</ele>
        <time>2016-10-29T06:08:57Z</time>
      </trkpt>
      <trkpt lat="42.416555000" lon="-2.583654000">
        <ele>558.90</ele>
        <time>2016-10-29T06:08:58Z</time>
      </trkpt>
      <trkpt lat="42.416535000" lon="-2.583687000">
        <ele>559.00</ele>
        <time>2016-10-29T06:08:59Z</time>
      </trkpt>
      <trkpt lat="42.416516000" lon="-2.583719000">
        <ele>559.10</ele>
        <time>2016-10-29T06:09:00Z</time>
      </trkpt>
      <trkpt lat="42.416498000" lon="-2.583754000">
        <ele>559.10</ele>
        <time>2016-10-29T06:09:01Z</time>
      </trkpt>
      <trkpt lat="42.416479000" lon="-2.583791000">
        <ele>559.20</ele>
        <time>2016-10-29T06:09:02Z</time>
      </trkpt>
      <trkpt lat="42.416459000" lon="-2.583828000">
        <ele>559.30</ele>
        <time>2016-10-29T06:09:03Z</time>
      </trkpt>
      <trkpt lat="42.416440000" lon="-2.583864000">
        <ele>559.40</ele>
        <time>2016-10-29T06:09:04Z</time>
      </trkpt>
      <trkpt lat="42.416419000" lon="-2.583899000">
        <ele>559.40</ele>
        <time>2016-10-29T06:09:05Z</time>
      </trkpt>
      <trkpt lat="42.416399000" lon="-2.583936000">
        <ele>559.50</ele>
        <time>2016-10-29T06:09:06Z</time>
      </trkpt>
      <trkpt lat="42.416383000" lon="-2.583976000">
        <ele>559.60</ele>
        <time>2016-10-29T06:09:07Z</time>
      </trkpt>
      <trkpt lat="42.416364000" lon="-2.584015000">
        <ele>559.60</ele>
        <time>2016-10-29T06:09:08Z</time>
      </trkpt>
      <trkpt lat="42.416346000" lon="-2.584050000">
        <ele>559.70</ele>
        <time>2016-10-29T06:09:09Z</time>
      </trkpt>
      <trkpt lat="42.416327000" lon="-2.584082000">
        <ele>559.70</ele>
        <time>2016-10-29T06:09:10Z</time>
      </trkpt>
      <trkpt lat="42.416307000" lon="-2.584121000">
        <ele>559.90</ele>
        <time>2016-10-29T06:09:11Z</time>
      </trkpt>
      <trkpt lat="42.416292000" lon="-2.584151000">
        <ele>560.00</ele>
        <time>2016-10-29T06:09:12Z</time>
      </trkpt>
      <trkpt lat="42.416274000" lon="-2.584186000">
        <ele>560.20</ele>
        <time>2016-10-29T06:09:13Z</time>
      </trkpt>
      <trkpt lat="42.416254000" lon="-2.584222000">
        <ele>560.40</ele>
        <time>2016-10-29T06:09:14Z</time>
      </trkpt>
      <trkpt lat="42.416237000" lon="-2.584258000">
        <ele>560.50</ele>
        <time>2016-10-29T06:09:15Z</time>
      </trkpt>
      <trkpt lat="42.416217000" lon="-2.584288000">
        <ele>560.60</ele>
        <time>2016-10-29T06:09:16Z</time>
      </trkpt>
      <trkpt lat="42.416198000" lon="-2.584322000">
        <ele>560.90</ele>
        <time>2016-10-29T06:09:17Z</time>
      </trkpt>
      <trkpt lat="42.416178000" lon="-2.584355000">
        <ele>561.10</ele>
        <time>2016-10-29T06:09:18Z</time>
      </trkpt>
      <trkpt lat="42.416159000" lon="-2.584386000">
        <ele>561.20</ele>
        <time>2016-10-29T06:09:19Z</time>
      </trkpt>
      <trkpt lat="42.416138000" lon="-2.584418000">
        <ele>561.30</ele>
        <time>2016-10-29T06:09:20Z</time>
      </trkpt>
      <trkpt lat="42.416116000" lon="-2.584447000">
        <ele>561.40</ele>
        <time>2016-10-29T06:09:21Z</time>
      </trkpt>
      <trkpt lat="42.416098000" lon="-2.584480000">
        <ele>561.50</ele>
        <time>2016-10-29T06:09:22Z</time>
      </trkpt>
      <trkpt lat="42.416079000" lon="-2.584516000">
        <ele>561.60</ele>
        <time>2016-10-29T06:09:23Z</time>
      </trkpt>
      <trkpt lat="42.416061000" lon="-2.584551000">
        <ele>561.70</ele>
        <time>2016-10-29T06:09:24Z</time>
      </trkpt>
      <trkpt lat="42.416046000" lon="-2.584590000">
        <ele>561.80</ele>
        <time>2016-10-29T06:09:25Z</time>
      </trkpt>
      <trkpt lat="42.416030000" lon="-2.584625000">
        <ele>561.90</ele>
        <time>2016-10-29T06:09:26Z</time>
      </trkpt>
      <trkpt lat="42.416018000" lon="-2.584664000">
        <ele>562.20</ele>
        <time>2016-10-29T06:09:27Z</time>
      </trkpt>
      <trkpt lat="42.416006000" lon="-2.584703000">
        <ele>562.40</ele>
        <time>2016-10-29T06:09:28Z</time>
      </trkpt>
      <trkpt lat="42.415989000" lon="-2.584745000">
        <ele>562.60</ele>
        <time>2016-10-29T06:09:29Z</time>
      </trkpt>
      <trkpt lat="42.415976000" lon="-2.584786000">
        <ele>562.70</ele>
        <time>2016-10-29T06:09:30Z</time>
      </trkpt>
      <trkpt lat="42.415961000" lon="-2.584824000">
        <ele>563.00</ele>
        <time>2016-10-29T06:09:31Z</time>
      </trkpt>
      <trkpt lat="42.415949000" lon="-2.584860000">
        <ele>563.20</ele>
        <time>2016-10-29T06:09:32Z</time>
      </trkpt>
      <trkpt lat="42.415933000" lon="-2.584899000">
        <ele>563.40</ele>
        <time>2016-10-29T06:09:33Z</time>
      </trkpt>
      <trkpt lat="42.415918000" lon="-2.584939000">
        <ele>563.50</ele>
        <time>2016-10-29T06:09:34Z</time>
      </trkpt>
      <trkpt lat="42.415904000" lon="-2.584979000">
        <ele>563.60</ele>
        <time>2016-10-29T06:09:35Z</time>
      </trkpt>
      <trkpt lat="42.415890000" lon="-2.585021000">
        <ele>563.60</ele>
        <time>2016-10-29T06:09:36Z</time>
      </trkpt>
      <trkpt lat="42.415876000" lon="-2.585063000">
        <ele>563.60</ele>
        <time>2016-10-29T06:09:37Z</time>
      </trkpt>
      <trkpt lat="42.415860000" lon="-2.585102000">
        <ele>563.60</ele>
        <time>2016-10-29T06:09:38Z</time>
      </trkpt>
      <trkpt lat="42.415845000" lon="-2.585143000">
        <ele>563.60</ele>
        <time>2016-10-29T06:09:39Z</time>
      </trkpt>
      <trkpt lat="42.415829000" lon="-2.585181000">
        <ele>563.50</ele>
        <time>2016-10-29T06:09:40Z</time>
      </trkpt>
      <trkpt lat="42.415814000" lon="-2.585220000">
        <ele>563.50</ele>
        <time>2016-10-29T06:09:41Z</time>
      </trkpt>
      <trkpt lat="42.415799000" lon="-2.585259000">
        <ele>563.60</ele>
        <time>2016-10-29T06:09:42Z</time>
      </trkpt>
      <trkpt lat="42.415783000" lon="-2.585297000">
        <ele>563.60</ele>
        <time>2016-10-29T06:09:43Z</time>
      </trkpt>
      <trkpt lat="42.415765000" lon="-2.585334000">
        <ele>563.60</ele>
        <time>2016-10-29T06:09:44Z</time>
      </trkpt>
      <trkpt lat="42.415750000" lon="-2.585371000">
        <ele>563.90</ele>
        <time>2016-10-29T06:09:45Z</time>
      </trkpt>
      <trkpt lat="42.415734000" lon="-2.585413000">
        <ele>564.10</ele>
        <time>2016-10-29T06:09:46Z</time>
      </trkpt>
      <trkpt lat="42.415722000" lon="-2.585454000">
        <ele>564.20</ele>
        <time>2016-10-29T06:09:47Z</time>
      </trkpt>
      <trkpt lat="42.415713000" lon="-2.585494000">
        <ele>564.30</ele>
        <time>2016-10-29T06:09:48Z</time>
      </trkpt>
      <trkpt lat="42.415703000" lon="-2.585534000">
        <ele>564.40</ele>
        <time>2016-10-29T06:09:49Z</time>
      </trkpt>
      <trkpt lat="42.415698000" lon="-2.585577000">
        <ele>564.50</ele>
        <time>2016-10-29T06:09:50Z</time>
      </trkpt>
      <trkpt lat="42.415690000" lon="-2.585659000">
        <ele>564.90</ele>
        <time>2016-10-29T06:09:52Z</time>
      </trkpt>
      <trkpt lat="42.415679000" lon="-2.585702000">
        <ele>565.10</ele>
        <time>2016-10-29T06:09:53Z</time>
      </trkpt>
      <trkpt lat="42.415669000" lon="-2.585746000">
        <ele>565.30</ele>
        <time>2016-10-29T06:09:54Z</time>
      </trkpt>
      <trkpt lat="42.415654000" lon="-2.585787000">
        <ele>565.50</ele>
        <time>2016-10-29T06:09:55Z</time>
      </trkpt>
      <trkpt lat="42.415638000" lon="-2.585829000">
        <ele>565.70</ele>
        <time>2016-10-29T06:09:56Z</time>
      </trkpt>
      <trkpt lat="42.415621000" lon="-2.585871000">
        <ele>565.90</ele>
        <time>2016-10-29T06:09:57Z</time>
      </trkpt>
      <trkpt lat="42.415605000" lon="-2.585912000">
        <ele>566.10</ele>
        <time>2016-10-29T06:09:58Z</time>
      </trkpt>
      <trkpt lat="42.415586000" lon="-2.585949000">
        <ele>566.30</ele>
        <time>2016-10-29T06:09:59Z</time>
      </trkpt>
      <trkpt lat="42.415568000" lon="-2.585985000">
        <ele>566.40</ele>
        <time>2016-10-29T06:10:00Z</time>
      </trkpt>
      <trkpt lat="42.415548000" lon="-2.586022000">
        <ele>566.50</ele>
        <time>2016-10-29T06:10:01Z</time>
      </trkpt>
      <trkpt lat="42.415530000" lon="-2.586053000">
        <ele>566.60</ele>
        <time>2016-10-29T06:10:02Z</time>
      </trkpt>
      <trkpt lat="42.415509000" lon="-2.586083000">
        <ele>566.70</ele>
        <time>2016-10-29T06:10:03Z</time>
      </trkpt>
      <trkpt lat="42.415486000" lon="-2.586112000">
        <ele>566.80</ele>
        <time>2016-10-29T06:10:04Z</time>
      </trkpt>
      <trkpt lat="42.415463000" lon="-2.586139000">
        <ele>566.90</ele>
        <time>2016-10-29T06:10:05Z</time>
      </trkpt>
      <trkpt lat="42.415441000" lon="-2.586162000">
        <ele>566.90</ele>
        <time>2016-10-29T06:10:06Z</time>
      </trkpt>
      <trkpt lat="42.415418000" lon="-2.586190000">
        <ele>567.10</ele>
        <time>2016-10-29T06:10:07Z</time>
      </trkpt>
      <trkpt lat="42.415399000" lon="-2.586224000">
        <ele>567.20</ele>
        <time>2016-10-29T06:10:08Z</time>
      </trkpt>
      <trkpt lat="42.415382000" lon="-2.586257000">
        <ele>567.40</ele>
        <time>2016-10-29T06:10:09Z</time>
      </trkpt>
      <trkpt lat="42.415366000" lon="-2.586292000">
        <ele>567.50</ele>
        <time>2016-10-29T06:10:10Z</time>
      </trkpt>
      <trkpt lat="42.415354000" lon="-2.586332000">
        <ele>567.60</ele>
        <time>2016-10-29T06:10:11Z</time>
      </trkpt>
      <trkpt lat="42.415342000" lon="-2.586370000">
        <ele>567.70</ele>
        <time>2016-10-29T06:10:12Z</time>
      </trkpt>
      <trkpt lat="42.415333000" lon="-2.586410000">
        <ele>567.80</ele>
        <time>2016-10-29T06:10:13Z</time>
      </trkpt>
      <trkpt lat="42.415326000" lon="-2.586449000">
        <ele>567.80</ele>
        <time>2016-10-29T06:10:14Z</time>
      </trkpt>
      <trkpt lat="42.415313000" lon="-2.586491000">
        <ele>567.90</ele>
        <time>2016-10-29T06:10:15Z</time>
      </trkpt>
      <trkpt lat="42.415297000" lon="-2.586529000">
        <ele>568.00</ele>
        <time>2016-10-29T06:10:16Z</time>
      </trkpt>
      <trkpt lat="42.415279000" lon="-2.586563000">
        <ele>568.10</ele>
        <time>2016-10-29T06:10:17Z</time>
      </trkpt>
      <trkpt lat="42.415259000" lon="-2.586591000">
        <ele>568.20</ele>
        <time>2016-10-29T06:10:18Z</time>
      </trkpt>
      <trkpt lat="42.415238000" lon="-2.586620000">
        <ele>568.40</ele>
        <time>2016-10-29T06:10:19Z</time>
      </trkpt>
      <trkpt lat="42.415218000" lon="-2.586649000">
        <ele>568.50</ele>
        <time>2016-10-29T06:10:20Z</time>
      </trkpt>
      <trkpt lat="42.415199000" lon="-2.586682000">
        <ele>568.60</ele>
        <time>2016-10-29T06:10:21Z</time>
      </trkpt>
      <trkpt lat="42.415179000" lon="-2.586715000">
        <ele>568.70</ele>
        <time>2016-10-29T06:10:22Z</time>
      </trkpt>
      <trkpt lat="42.415160000" lon="-2.586749000">
        <ele>568.90</ele>
        <time>2016-10-29T06:10:23Z</time>
      </trkpt>
      <trkpt lat="42.415143000" lon="-2.586784000">
        <ele>569.00</ele>
        <time>2016-10-29T06:10:24Z</time>
      </trkpt>
      <trkpt lat="42.415125000" lon="-2.586818000">
        <ele>569.10</ele>
        <time>2016-10-29T06:10:25Z</time>
      </trkpt>
      <trkpt lat="42.415108000" lon="-2.586853000">
        <ele>569.20</ele>
        <time>2016-10-29T06:10:26Z</time>
      </trkpt>
      <trkpt lat="42.415091000" lon="-2.586883000">
        <ele>569.40</ele>
        <time>2016-10-29T06:10:27Z</time>
      </trkpt>
      <trkpt lat="42.415071000" lon="-2.586911000">
        <ele>569.50</ele>
        <time>2016-10-29T06:10:28Z</time>
      </trkpt>
      <trkpt lat="42.415050000" lon="-2.586935000">
        <ele>569.60</ele>
        <time>2016-10-29T06:10:29Z</time>
      </trkpt>
      <trkpt lat="42.415027000" lon="-2.586956000">
        <ele>569.70</ele>
        <time>2016-10-29T06:10:30Z</time>
      </trkpt>
      <trkpt lat="42.415002000" lon="-2.586976000">
        <ele>569.70</ele>
        <time>2016-10-29T06:10:31Z</time>
      </trkpt>
      <trkpt lat="42.414981000" lon="-2.587002000">
        <ele>569.80</ele>
        <time>2016-10-29T06:10:32Z</time>
      </trkpt>
      <trkpt lat="42.414959000" lon="-2.587026000">
        <ele>570.10</ele>
        <time>2016-10-29T06:10:33Z</time>
      </trkpt>
      <trkpt lat="42.414935000" lon="-2.587049000">
        <ele>570.30</ele>
        <time>2016-10-29T06:10:34Z</time>
      </trkpt>
      <trkpt lat="42.414920000" lon="-2.587082000">
        <ele>570.50</ele>
        <time>2016-10-29T06:10:35Z</time>
      </trkpt>
      <trkpt lat="42.414911000" lon="-2.587118000">
        <ele>570.70</ele>
        <time>2016-10-29T06:10:36Z</time>
      </trkpt>
      <trkpt lat="42.414910000" lon="-2.587161000">
        <ele>570.80</ele>
        <time>2016-10-29T06:10:37Z</time>
      </trkpt>
      <trkpt lat="42.414910000" lon="-2.587206000">
        <ele>571.00</ele>
        <time>2016-10-29T06:10:38Z</time>
      </trkpt>
      <trkpt lat="42.414913000" lon="-2.587249000">
        <ele>571.10</ele>
        <time>2016-10-29T06:10:39Z</time>
      </trkpt>
      <trkpt lat="42.414921000" lon="-2.587293000">
        <ele>571.10</ele>
        <time>2016-10-29T06:10:40Z</time>
      </trkpt>
      <trkpt lat="42.414928000" lon="-2.587331000">
        <ele>571.30</ele>
        <time>2016-10-29T06:10:41Z</time>
      </trkpt>
      <trkpt lat="42.414932000" lon="-2.587371000">
        <ele>571.50</ele>
        <time>2016-10-29T06:10:42Z</time>
      </trkpt>
      <trkpt lat="42.414937000" lon="-2.587407000">
        <ele>571.50</ele>
        <time>2016-10-29T06:10:43Z</time>
      </trkpt>
      <trkpt lat="42.414943000" lon="-2.587442000">
        <ele>571.50</ele>
        <time>2016-10-29T06:10:44Z</time>
      </trkpt>
      <trkpt lat="42.414949000" lon="-2.587478000">
        <ele>571.50</ele>
        <time>2016-10-29T06:10:45Z</time>
      </trkpt>
      <trkpt lat="42.414954000" lon="-2.587520000">
        <ele>571.60</ele>
        <time>2016-10-29T06:10:46Z</time>
      </trkpt>
      <trkpt lat="42.414959000" lon="-2.587557000">
        <ele>571.60</ele>
        <time>2016-10-29T06:10:47Z</time>
      </trkpt>
      <trkpt lat="42.414968000" lon="-2.587596000">
        <ele>571.60</ele>
        <time>2016-10-29T06:10:48Z</time>
      </trkpt>
      <trkpt lat="42.414980000" lon="-2.587630000">
        <ele>571.70</ele>
        <time>2016-10-29T06:10:49Z</time>
      </trkpt>
      <trkpt lat="42.414994000" lon="-2.587663000">
        <ele>571.80</ele>
        <time>2016-10-29T06:10:50Z</time>
      </trkpt>
      <trkpt lat="42.415011000" lon="-2.587695000">
        <ele>572.00</ele>
        <time>2016-10-29T06:10:51Z</time>
      </trkpt>
      <trkpt lat="42.415046000" lon="-2.587764000">
        <ele>572.10</ele>
        <time>2016-10-29T06:10:53Z</time>
      </trkpt>
      <trkpt lat="42.415058000" lon="-2.587806000">
        <ele>572.20</ele>
        <time>2016-10-29T06:10:54Z</time>
      </trkpt>
      <trkpt lat="42.415067000" lon="-2.587851000">
        <ele>572.00</ele>
        <time>2016-10-29T06:10:55Z</time>
      </trkpt>
      <trkpt lat="42.415080000" lon="-2.587900000">
        <ele>571.80</ele>
        <time>2016-10-29T06:10:56Z</time>
      </trkpt>
      <trkpt lat="42.415091000" lon="-2.587948000">
        <ele>571.70</ele>
        <time>2016-10-29T06:10:57Z</time>
      </trkpt>
      <trkpt lat="42.415099000" lon="-2.588000000">
        <ele>571.60</ele>
        <time>2016-10-29T06:10:58Z</time>
      </trkpt>
      <trkpt lat="42.415105000" lon="-2.588050000">
        <ele>571.50</ele>
        <time>2016-10-29T06:10:59Z</time>
      </trkpt>
      <trkpt lat="42.415108000" lon="-2.588103000">
        <ele>571.40</ele>
        <time>2016-10-29T06:11:00Z</time>
      </trkpt>
      <trkpt lat="42.415114000" lon="-2.588155000">
        <ele>571.40</ele>
        <time>2016-10-29T06:11:01Z</time>
      </trkpt>
      <trkpt lat="42.415119000" lon="-2.588208000">
        <ele>571.40</ele>
        <time>2016-10-29T06:11:02Z</time>
      </trkpt>
      <trkpt lat="42.415124000" lon="-2.588259000">
        <ele>571.30</ele>
        <time>2016-10-29T06:11:03Z</time>
      </trkpt>
      <trkpt lat="42.415132000" lon="-2.588306000">
        <ele>571.20</ele>
        <time>2016-10-29T06:11:04Z</time>
      </trkpt>
      <trkpt lat="42.415139000" lon="-2.588350000">
        <ele>571.30</ele>
        <time>2016-10-29T06:11:05Z</time>
      </trkpt>
      <trkpt lat="42.415144000" lon="-2.588396000">
        <ele>571.40</ele>
        <time>2016-10-29T06:11:06Z</time>
      </trkpt>
      <trkpt lat="42.415151000" lon="-2.588442000">
        <ele>571.30</ele>
        <time>2016-10-29T06:11:07Z</time>
      </trkpt>
      <trkpt lat="42.415157000" lon="-2.588487000">
        <ele>571.20</ele>
        <time>2016-10-29T06:11:08Z</time>
      </trkpt>
      <trkpt lat="42.415164000" lon="-2.588530000">
        <ele>571.20</ele>
        <time>2016-10-29T06:11:09Z</time>
      </trkpt>
      <trkpt lat="42.415169000" lon="-2.588577000">
        <ele>571.30</ele>
        <time>2016-10-29T06:11:10Z</time>
      </trkpt>
      <trkpt lat="42.415178000" lon="-2.588625000">
        <ele>571.30</ele>
        <time>2016-10-29T06:11:11Z</time>
      </trkpt>
      <trkpt lat="42.415185000" lon="-2.588675000">
        <ele>571.40</ele>
        <time>2016-10-29T06:11:12Z</time>
      </trkpt>
      <trkpt lat="42.415193000" lon="-2.588724000">
        <ele>571.50</ele>
        <time>2016-10-29T06:11:13Z</time>
      </trkpt>
      <trkpt lat="42.415199000" lon="-2.588777000">
        <ele>571.60</ele>
        <time>2016-10-29T06:11:14Z</time>
      </trkpt>
      <trkpt lat="42.415200000" lon="-2.588828000">
        <ele>571.70</ele>
        <time>2016-10-29T06:11:15Z</time>
      </trkpt>
      <trkpt lat="42.415201000" lon="-2.588881000">
        <ele>571.80</ele>
        <time>2016-10-29T06:11:16Z</time>
      </trkpt>
      <trkpt lat="42.415199000" lon="-2.588932000">
        <ele>571.80</ele>
        <time>2016-10-29T06:11:17Z</time>
      </trkpt>
      <trkpt lat="42.415191000" lon="-2.588986000">
        <ele>571.80</ele>
        <time>2016-10-29T06:11:18Z</time>
      </trkpt>
      <trkpt lat="42.415180000" lon="-2.589033000">
        <ele>571.90</ele>
        <time>2016-10-29T06:11:19Z</time>
      </trkpt>
      <trkpt lat="42.415170000" lon="-2.589076000">
        <ele>571.90</ele>
        <time>2016-10-29T06:11:20Z</time>
      </trkpt>
      <trkpt lat="42.415160000" lon="-2.589119000">
        <ele>572.00</ele>
        <time>2016-10-29T06:11:21Z</time>
      </trkpt>
      <trkpt lat="42.415151000" lon="-2.589161000">
        <ele>572.10</ele>
        <time>2016-10-29T06:11:22Z</time>
      </trkpt>
      <trkpt lat="42.415145000" lon="-2.589206000">
        <ele>572.40</ele>
        <time>2016-10-29T06:11:23Z</time>
      </trkpt>
      <trkpt lat="42.415139000" lon="-2.589251000">
        <ele>572.50</ele>
        <time>2016-10-29T06:11:24Z</time>
      </trkpt>
      <trkpt lat="42.415131000" lon="-2.589298000">
        <ele>572.70</ele>
        <time>2016-10-29T06:11:25Z</time>
      </trkpt>
      <trkpt lat="42.415124000" lon="-2.589347000">
        <ele>572.80</ele>
        <time>2016-10-29T06:11:26Z</time>
      </trkpt>
      <trkpt lat="42.415117000" lon="-2.589393000">
        <ele>573.00</ele>
        <time>2016-10-29T06:11:27Z</time>
      </trkpt>
      <trkpt lat="42.415107000" lon="-2.589438000">
        <ele>573.10</ele>
        <time>2016-10-29T06:11:28Z</time>
      </trkpt>
      <trkpt lat="42.415101000" lon="-2.589485000">
        <ele>573.50</ele>
        <time>2016-10-29T06:11:29Z</time>
      </trkpt>
      <trkpt lat="42.415093000" lon="-2.589532000">
        <ele>573.80</ele>
        <time>2016-10-29T06:11:30Z</time>
      </trkpt>
      <trkpt lat="42.415087000" lon="-2.589578000">
        <ele>574.00</ele>
        <time>2016-10-29T06:11:31Z</time>
      </trkpt>
      <trkpt lat="42.415085000" lon="-2.589627000">
        <ele>574.10</ele>
        <time>2016-10-29T06:11:32Z</time>
      </trkpt>
      <trkpt lat="42.415081000" lon="-2.589673000">
        <ele>574.30</ele>
        <time>2016-10-29T06:11:33Z</time>
      </trkpt>
      <trkpt lat="42.415078000" lon="-2.589716000">
        <ele>574.40</ele>
        <time>2016-10-29T06:11:34Z</time>
      </trkpt>
      <trkpt lat="42.415075000" lon="-2.589763000">
        <ele>574.50</ele>
        <time>2016-10-29T06:11:35Z</time>
      </trkpt>
      <trkpt lat="42.415073000" lon="-2.589813000">
        <ele>574.60</ele>
        <time>2016-10-29T06:11:36Z</time>
      </trkpt>
      <trkpt lat="42.415069000" lon="-2.589861000">
        <ele>574.80</ele>
        <time>2016-10-29T06:11:37Z</time>
      </trkpt>
      <trkpt lat="42.415070000" lon="-2.589905000">
        <ele>574.90</ele>
        <time>2016-10-29T06:11:38Z</time>
      </trkpt>
      <trkpt lat="42.415072000" lon="-2.589951000">
        <ele>575.00</ele>
        <time>2016-10-29T06:11:39Z</time>
      </trkpt>
      <trkpt lat="42.415073000" lon="-2.589998000">
        <ele>575.10</ele>
        <time>2016-10-29T06:11:40Z</time>
      </trkpt>
      <trkpt lat="42.415073000" lon="-2.590042000">
        <ele>575.30</ele>
        <time>2016-10-29T06:11:41Z</time>
      </trkpt>
      <trkpt lat="42.415072000" lon="-2.590086000">
        <ele>575.40</ele>
        <time>2016-10-29T06:11:42Z</time>
      </trkpt>
      <trkpt lat="42.415072000" lon="-2.590130000">
        <ele>575.60</ele>
        <time>2016-10-29T06:11:43Z</time>
      </trkpt>
      <trkpt lat="42.415067000" lon="-2.590170000">
        <ele>575.60</ele>
        <time>2016-10-29T06:11:44Z</time>
      </trkpt>
      <trkpt lat="42.415062000" lon="-2.590211000">
        <ele>575.80</ele>
        <time>2016-10-29T06:11:45Z</time>
      </trkpt>
      <trkpt lat="42.415059000" lon="-2.590253000">
        <ele>575.90</ele>
        <time>2016-10-29T06:11:46Z</time>
      </trkpt>
      <trkpt lat="42.415058000" lon="-2.590297000">
        <ele>576.00</ele>
        <time>2016-10-29T06:11:47Z</time>
      </trkpt>
      <trkpt lat="42.415052000" lon="-2.590342000">
        <ele>576.10</ele>
        <time>2016-10-29T06:11:48Z</time>
      </trkpt>
      <trkpt lat="42.415047000" lon="-2.590391000">
        <ele>576.30</ele>
        <time>2016-10-29T06:11:49Z</time>
      </trkpt>
      <trkpt lat="42.415041000" lon="-2.590436000">
        <ele>576.40</ele>
        <time>2016-10-29T06:11:50Z</time>
      </trkpt>
      <trkpt lat="42.415037000" lon="-2.590480000">
        <ele>576.50</ele>
        <time>2016-10-29T06:11:51Z</time>
      </trkpt>
      <trkpt lat="42.415033000" lon="-2.590521000">
        <ele>576.50</ele>
        <time>2016-10-29T06:11:52Z</time>
      </trkpt>
      <trkpt lat="42.415028000" lon="-2.590601000">
        <ele>576.60</ele>
        <time>2016-10-29T06:11:54Z</time>
      </trkpt>
      <trkpt lat="42.415022000" lon="-2.590644000">
        <ele>576.70</ele>
        <time>2016-10-29T06:11:55Z</time>
      </trkpt>
      <trkpt lat="42.415017000" lon="-2.590688000">
        <ele>576.80</ele>
        <time>2016-10-29T06:11:56Z</time>
      </trkpt>
      <trkpt lat="42.415013000" lon="-2.590726000">
        <ele>577.20</ele>
        <time>2016-10-29T06:11:57Z</time>
      </trkpt>
      <trkpt lat="42.415012000" lon="-2.590768000">
        <ele>577.50</ele>
        <time>2016-10-29T06:11:58Z</time>
      </trkpt>
      <trkpt lat="42.415007000" lon="-2.590808000">
        <ele>577.70</ele>
        <time>2016-10-29T06:11:59Z</time>
      </trkpt>
      <trkpt lat="42.415002000" lon="-2.590855000">
        <ele>577.90</ele>
        <time>2016-10-29T06:12:00Z</time>
      </trkpt>
      <trkpt lat="42.414999000" lon="-2.590901000">
        <ele>578.10</ele>
        <time>2016-10-29T06:12:01Z</time>
      </trkpt>
      <trkpt lat="42.414995000" lon="-2.590947000">
        <ele>578.20</ele>
        <time>2016-10-29T06:12:02Z</time>
      </trkpt>
      <trkpt lat="42.414993000" lon="-2.590990000">
        <ele>578.30</ele>
        <time>2016-10-29T06:12:03Z</time>
      </trkpt>
      <trkpt lat="42.414991000" lon="-2.591031000">
        <ele>578.40</ele>
        <time>2016-10-29T06:12:04Z</time>
      </trkpt>
      <trkpt lat="42.414992000" lon="-2.591071000">
        <ele>578.50</ele>
        <time>2016-10-29T06:12:05Z</time>
      </trkpt>
      <trkpt lat="42.414989000" lon="-2.591111000">
        <ele>578.60</ele>
        <time>2016-10-29T06:12:06Z</time>
      </trkpt>
      <trkpt lat="42.414989000" lon="-2.591153000">
        <ele>578.70</ele>
        <time>2016-10-29T06:12:07Z</time>
      </trkpt>
      <trkpt lat="42.414984000" lon="-2.591195000">
        <ele>578.70</ele>
        <time>2016-10-29T06:12:08Z</time>
      </trkpt>
      <trkpt lat="42.414983000" lon="-2.591239000">
        <ele>578.80</ele>
        <time>2016-10-29T06:12:09Z</time>
      </trkpt>
      <trkpt lat="42.414980000" lon="-2.591285000">
        <ele>578.90</ele>
        <time>2016-10-29T06:12:10Z</time>
      </trkpt>
      <trkpt lat="42.414976000" lon="-2.591327000">
        <ele>578.90</ele>
        <time>2016-10-29T06:12:11Z</time>
      </trkpt>
      <trkpt lat="42.414971000" lon="-2.591372000">
        <ele>578.80</ele>
        <time>2016-10-29T06:12:12Z</time>
      </trkpt>
      <trkpt lat="42.414967000" lon="-2.591413000">
        <ele>578.90</ele>
        <time>2016-10-29T06:12:13Z</time>
      </trkpt>
      <trkpt lat="42.414963000" lon="-2.591456000">
        <ele>579.00</ele>
        <time>2016-10-29T06:12:14Z</time>
      </trkpt>
      <trkpt lat="42.414961000" lon="-2.591503000">
        <ele>579.10</ele>
        <time>2016-10-29T06:12:15Z</time>
      </trkpt>
      <trkpt lat="42.414958000" lon="-2.591548000">
        <ele>579.20</ele>
        <time>2016-10-29T06:12:16Z</time>
      </trkpt>
      <trkpt lat="42.414953000" lon="-2.591594000">
        <ele>579.30</ele>
        <time>2016-10-29T06:12:17Z</time>
      </trkpt>
      <trkpt lat="42.414946000" lon="-2.591639000">
        <ele>579.40</ele>
        <time>2016-10-29T06:12:18Z</time>
      </trkpt>
      <trkpt lat="42.414945000" lon="-2.591684000">
        <ele>579.40</ele>
        <time>2016-10-29T06:12:19Z</time>
      </trkpt>
      <trkpt lat="42.414943000" lon="-2.591729000">
        <ele>579.50</ele>
        <time>2016-10-29T06:12:20Z</time>
      </trkpt>
      <trkpt lat="42.414939000" lon="-2.591775000">
        <ele>579.70</ele>
        <time>2016-10-29T06:12:21Z</time>
      </trkpt>
      <trkpt lat="42.414935000" lon="-2.591819000">
        <ele>579.90</ele>
        <time>2016-10-29T06:12:22Z</time>
      </trkpt>
      <trkpt lat="42.414935000" lon="-2.591861000">
        <ele>580.00</ele>
        <time>2016-10-29T06:12:23Z</time>
      </trkpt>
      <trkpt lat="42.414930000" lon="-2.591899000">
        <ele>580.10</ele>
        <time>2016-10-29T06:12:24Z</time>
      </trkpt>
      <trkpt lat="42.414925000" lon="-2.591942000">
        <ele>580.10</ele>
        <time>2016-10-29T06:12:25Z</time>
      </trkpt>
      <trkpt lat="42.414922000" lon="-2.591987000">
        <ele>580.20</ele>
        <time>2016-10-29T06:12:26Z</time>
      </trkpt>
      <trkpt lat="42.414918000" lon="-2.592027000">
        <ele>580.30</ele>
        <time>2016-10-29T06:12:27Z</time>
      </trkpt>
      <trkpt lat="42.414909000" lon="-2.592066000">
        <ele>580.40</ele>
        <time>2016-10-29T06:12:28Z</time>
      </trkpt>
      <trkpt lat="42.414902000" lon="-2.592104000">
        <ele>580.60</ele>
        <time>2016-10-29T06:12:29Z</time>
      </trkpt>
      <trkpt lat="42.414894000" lon="-2.592141000">
        <ele>580.70</ele>
        <time>2016-10-29T06:12:30Z</time>
      </trkpt>
      <trkpt lat="42.414888000" lon="-2.592176000">
        <ele>580.90</ele>
        <time>2016-10-29T06:12:31Z</time>
      </trkpt>
      <trkpt lat="42.414880000" lon="-2.592211000">
        <ele>581.00</ele>
        <time>2016-10-29T06:12:32Z</time>
      </trkpt>
      <trkpt lat="42.414872000" lon="-2.592241000">
        <ele>581.20</ele>
        <time>2016-10-29T06:12:33Z</time>
      </trkpt>
      <trkpt lat="42.414864000" lon="-2.592269000">
        <ele>581.30</ele>
        <time>2016-10-29T06:12:34Z</time>
      </trkpt>
      <trkpt lat="42.414856000" lon="-2.592292000">
        <ele>581.40</ele>
        <time>2016-10-29T06:12:35Z</time>
      </trkpt>
      <trkpt lat="42.414851000" lon="-2.592316000">
        <ele>581.50</ele>
        <time>2016-10-29T06:12:36Z</time>
      </trkpt>
      <trkpt lat="42.414843000" lon="-2.592335000">
        <ele>581.50</ele>
        <time>2016-10-29T06:12:37Z</time>
      </trkpt>
      <trkpt lat="42.414840000" lon="-2.592353000">
        <ele>581.50</ele>
        <time>2016-10-29T06:12:38Z</time>
      </trkpt>
      <trkpt lat="42.414830000" lon="-2.592375000">
        <ele>581.50</ele>
        <time>2016-10-29T06:12:39Z</time>
      </trkpt>
      <trkpt lat="42.414820000" lon="-2.592394000">
        <ele>581.50</ele>
        <time>2016-10-29T06:12:40Z</time>
      </trkpt>
      <trkpt lat="42.414809000" lon="-2.592416000">
        <ele>581.60</ele>
        <time>2016-10-29T06:12:41Z</time>
      </trkpt>
      <trkpt lat="42.414800000" lon="-2.592437000">
        <ele>581.60</ele>
        <time>2016-10-29T06:12:42Z</time>
      </trkpt>
      <trkpt lat="42.414792000" lon="-2.592463000">
        <ele>581.60</ele>
        <time>2016-10-29T06:12:43Z</time>
      </trkpt>
      <trkpt lat="42.414787000" lon="-2.592489000">
        <ele>581.70</ele>
        <time>2016-10-29T06:12:44Z</time>
      </trkpt>
      <trkpt lat="42.414786000" lon="-2.592519000">
        <ele>581.80</ele>
        <time>2016-10-29T06:12:45Z</time>
      </trkpt>
      <trkpt lat="42.414785000" lon="-2.592554000">
        <ele>581.90</ele>
        <time>2016-10-29T06:12:46Z</time>
      </trkpt>
      <trkpt lat="42.414781000" lon="-2.592583000">
        <ele>582.00</ele>
        <time>2016-10-29T06:12:47Z</time>
      </trkpt>
      <trkpt lat="42.414775000" lon="-2.592616000">
        <ele>582.00</ele>
        <time>2016-10-29T06:12:48Z</time>
      </trkpt>
      <trkpt lat="42.414766000" lon="-2.592648000">
        <ele>581.90</ele>
        <time>2016-10-29T06:12:49Z</time>
      </trkpt>
      <trkpt lat="42.414756000" lon="-2.592683000">
        <ele>581.90</ele>
        <time>2016-10-29T06:12:50Z</time>
      </trkpt>
      <trkpt lat="42.414744000" lon="-2.592711000">
        <ele>581.80</ele>
        <time>2016-10-29T06:12:51Z</time>
      </trkpt>
      <trkpt lat="42.414735000" lon="-2.592739000">
        <ele>581.70</ele>
        <time>2016-10-29T06:12:52Z</time>
      </trkpt>
      <trkpt lat="42.414730000" lon="-2.592769000">
        <ele>581.60</ele>
        <time>2016-10-29T06:12:53Z</time>
      </trkpt>
      <trkpt lat="42.414720000" lon="-2.592831000">
        <ele>581.60</ele>
        <time>2016-10-29T06:12:55Z</time>
      </trkpt>
      <trkpt lat="42.414710000" lon="-2.592861000">
        <ele>581.50</ele>
        <time>2016-10-29T06:12:56Z</time>
      </trkpt>
      <trkpt lat="42.414703000" lon="-2.592898000">
        <ele>581.50</ele>
        <time>2016-10-29T06:12:57Z</time>
      </trkpt>
      <trkpt lat="42.414695000" lon="-2.592938000">
        <ele>581.50</ele>
        <time>2016-10-29T06:12:58Z</time>
      </trkpt>
      <trkpt lat="42.414688000" lon="-2.592978000">
        <ele>581.50</ele>
        <time>2016-10-29T06:12:59Z</time>
      </trkpt>
      <trkpt lat="42.414683000" lon="-2.593021000">
        <ele>581.40</ele>
        <time>2016-10-29T06:13:00Z</time>
      </trkpt>
      <trkpt lat="42.414680000" lon="-2.593068000">
        <ele>581.30</ele>
        <time>2016-10-29T06:13:01Z</time>
      </trkpt>
      <trkpt lat="42.414676000" lon="-2.593116000">
        <ele>581.30</ele>
        <time>2016-10-29T06:13:02Z</time>
      </trkpt>
      <trkpt lat="42.414677000" lon="-2.593168000">
        <ele>581.20</ele>
        <time>2016-10-29T06:13:03Z</time>
      </trkpt>
      <trkpt lat="42.414677000" lon="-2.593222000">
        <ele>581.20</ele>
        <time>2016-10-29T06:13:04Z</time>
      </trkpt>
      <trkpt lat="42.414680000" lon="-2.593275000">
        <ele>581.10</ele>
        <time>2016-10-29T06:13:05Z</time>
      </trkpt>
      <trkpt lat="42.414680000" lon="-2.593326000">
        <ele>581.00</ele>
        <time>2016-10-29T06:13:06Z</time>
      </trkpt>
      <trkpt lat="42.414682000" lon="-2.593374000">
        <ele>580.90</ele>
        <time>2016-10-29T06:13:07Z</time>
      </trkpt>
      <trkpt lat="42.414684000" lon="-2.593419000">
        <ele>580.90</ele>
        <time>2016-10-29T06:13:08Z</time>
      </trkpt>
      <trkpt lat="42.414686000" lon="-2.593462000">
        <ele>580.70</ele>
        <time>2016-10-29T06:13:09Z</time>
      </trkpt>
      <trkpt lat="42.414685000" lon="-2.593504000">
        <ele>580.50</ele>
        <time>2016-10-29T06:13:10Z</time>
      </trkpt>
      <trkpt lat="42.414681000" lon="-2.593548000">
        <ele>580.60</ele>
        <time>2016-10-29T06:13:11Z</time>
      </trkpt>
      <trkpt lat="42.414676000" lon="-2.593592000">
        <ele>580.60</ele>
        <time>2016-10-29T06:13:12Z</time>
      </trkpt>
      <trkpt lat="42.414674000" lon="-2.593640000">
        <ele>580.50</ele>
        <time>2016-10-29T06:13:13Z</time>
      </trkpt>
      <trkpt lat="42.414671000" lon="-2.593687000">
        <ele>580.40</ele>
        <time>2016-10-29T06:13:14Z</time>
      </trkpt>
      <trkpt lat="42.414665000" lon="-2.593734000">
        <ele>580.30</ele>
        <time>2016-10-29T06:13:15Z</time>
      </trkpt>
      <trkpt lat="42.414657000" lon="-2.593780000">
        <ele>580.30</ele>
        <time>2016-10-29T06:13:16Z</time>
      </trkpt>
      <trkpt lat="42.414654000" lon="-2.593828000">
        <ele>580.20</ele>
        <time>2016-10-29T06:13:17Z</time>
      </trkpt>
      <trkpt lat="42.414654000" lon="-2.593879000">
        <ele>580.20</ele>
        <time>2016-10-29T06:13:18Z</time>
      </trkpt>
      <trkpt lat="42.414657000" lon="-2.593936000">
        <ele>580.10</ele>
        <time>2016-10-29T06:13:19Z</time>
      </trkpt>
      <trkpt lat="42.414664000" lon="-2.594002000">
        <ele>580.10</ele>
        <time>2016-10-29T06:13:20Z</time>
      </trkpt>
      <trkpt lat="42.414674000" lon="-2.594066000">
        <ele>580.00</ele>
        <time>2016-10-29T06:13:21Z</time>
      </trkpt>
      <trkpt lat="42.414691000" lon="-2.594131000">
        <ele>580.00</ele>
        <time>2016-10-29T06:13:22Z</time>
      </trkpt>
      <trkpt lat="42.414708000" lon="-2.594197000">
        <ele>579.80</ele>
        <time>2016-10-29T06:13:23Z</time>
      </trkpt>
      <trkpt lat="42.414732000" lon="-2.594261000">
        <ele>579.60</ele>
        <time>2016-10-29T06:13:24Z</time>
      </trkpt>
      <trkpt lat="42.414757000" lon="-2.594327000">
        <ele>579.40</ele>
        <time>2016-10-29T06:13:25Z</time>
      </trkpt>
      <trkpt lat="42.414781000" lon="-2.594395000">
        <ele>579.30</ele>
        <time>2016-10-29T06:13:26Z</time>
      </trkpt>
      <trkpt lat="42.414807000" lon="-2.594462000">
        <ele>579.10</ele>
        <time>2016-10-29T06:13:27Z</time>
      </trkpt>
      <trkpt lat="42.414834000" lon="-2.594530000">
        <ele>579.00</ele>
        <time>2016-10-29T06:13:28Z</time>
      </trkpt>
      <trkpt lat="42.414861000" lon="-2.594601000">
        <ele>578.80</ele>
        <time>2016-10-29T06:13:29Z</time>
      </trkpt>
      <trkpt lat="42.414896000" lon="-2.594667000">
        <ele>578.60</ele>
        <time>2016-10-29T06:13:30Z</time>
      </trkpt>
      <trkpt lat="42.414939000" lon="-2.594729000">
        <ele>578.30</ele>
        <time>2016-10-29T06:13:31Z</time>
      </trkpt>
      <trkpt lat="42.414985000" lon="-2.594788000">
        <ele>578.10</ele>
        <time>2016-10-29T06:13:32Z</time>
      </trkpt>
      <trkpt lat="42.415027000" lon="-2.594853000">
        <ele>577.80</ele>
        <time>2016-10-29T06:13:33Z</time>
      </trkpt>
      <trkpt lat="42.415070000" lon="-2.594915000">
        <ele>577.60</ele>
        <time>2016-10-29T06:13:34Z</time>
      </trkpt>
      <trkpt lat="42.415111000" lon="-2.594977000">
        <ele>577.20</ele>
        <time>2016-10-29T06:13:35Z</time>
      </trkpt>
      <trkpt lat="42.415148000" lon="-2.595043000">
        <ele>577.00</ele>
        <time>2016-10-29T06:13:36Z</time>
      </trkpt>
      <trkpt lat="42.415189000" lon="-2.595112000">
        <ele>576.40</ele>
        <time>2016-10-29T06:13:37Z</time>
      </trkpt>
      <trkpt lat="42.415233000" lon="-2.595179000">
        <ele>576.10</ele>
        <time>2016-10-29T06:13:38Z</time>
      </trkpt>
      <trkpt lat="42.415281000" lon="-2.595249000">
        <ele>575.60</ele>
        <time>2016-10-29T06:13:39Z</time>
      </trkpt>
      <trkpt lat="42.415331000" lon="-2.595322000">
        <ele>575.20</ele>
        <time>2016-10-29T06:13:40Z</time>
      </trkpt>
      <trkpt lat="42.415383000" lon="-2.595400000">
        <ele>574.50</ele>
        <time>2016-10-29T06:13:41Z</time>
      </trkpt>
      <trkpt lat="42.415439000" lon="-2.595478000">
        <ele>574.00</ele>
        <time>2016-10-29T06:13:42Z</time>
      </trkpt>
      <trkpt lat="42.415501000" lon="-2.595552000">
        <ele>573.40</ele>
        <time>2016-10-29T06:13:43Z</time>
      </trkpt>
      <trkpt lat="42.415572000" lon="-2.595632000">
        <ele>572.90</ele>
        <time>2016-10-29T06:13:44Z</time>
      </trkpt>
      <trkpt lat="42.415640000" lon="-2.595716000">
        <ele>571.50</ele>
        <time>2016-10-29T06:13:45Z</time>
      </trkpt>
      <trkpt lat="42.415703000" lon="-2.595806000">
        <ele>570.40</ele>
        <time>2016-10-29T06:13:46Z</time>
      </trkpt>
      <trkpt lat="42.415757000" lon="-2.595907000">
        <ele>569.60</ele>
        <time>2016-10-29T06:13:47Z</time>
      </trkpt>
      <trkpt lat="42.415804000" lon="-2.596002000">
        <ele>568.90</ele>
        <time>2016-10-29T06:13:48Z</time>
      </trkpt>
      <trkpt lat="42.415846000" lon="-2.596096000">
        <ele>568.40</ele>
        <time>2016-10-29T06:13:49Z</time>
      </trkpt>
      <trkpt lat="42.415887000" lon="-2.596180000">
        <ele>568.00</ele>
        <time>2016-10-29T06:13:50Z</time>
      </trkpt>
      <trkpt lat="42.415929000" lon="-2.596265000">
        <ele>567.80</ele>
        <time>2016-10-29T06:13:51Z</time>
      </trkpt>
      <trkpt lat="42.415967000" lon="-2.596343000">
        <ele>567.60</ele>
        <time>2016-10-29T06:13:52Z</time>
      </trkpt>
      <trkpt lat="42.416001000" lon="-2.596415000">
        <ele>567.60</ele>
        <time>2016-10-29T06:13:53Z</time>
      </trkpt>
      <trkpt lat="42.416033000" lon="-2.596479000">
        <ele>567.70</ele>
        <time>2016-10-29T06:13:54Z</time>
      </trkpt>
      <trkpt lat="42.416079000" lon="-2.596596000">
        <ele>568.00</ele>
        <time>2016-10-29T06:13:56Z</time>
      </trkpt>
      <trkpt lat="42.416101000" lon="-2.596648000">
        <ele>568.40</ele>
        <time>2016-10-29T06:13:57Z</time>
      </trkpt>
      <trkpt lat="42.416118000" lon="-2.596698000">
        <ele>568.70</ele>
        <time>2016-10-29T06:13:58Z</time>
      </trkpt>
      <trkpt lat="42.416135000" lon="-2.596747000">
        <ele>569.00</ele>
        <time>2016-10-29T06:13:59Z</time>
      </trkpt>
      <trkpt lat="42.416151000" lon="-2.596798000">
        <ele>569.30</ele>
        <time>2016-10-29T06:14:00Z</time>
      </trkpt>
      <trkpt lat="42.416167000" lon="-2.596848000">
        <ele>569.60</ele>
        <time>2016-10-29T06:14:01Z</time>
      </trkpt>
      <trkpt lat="42.416181000" lon="-2.596899000">
        <ele>569.80</ele>
        <time>2016-10-29T06:14:02Z</time>
      </trkpt>
      <trkpt lat="42.416196000" lon="-2.596948000">
        <ele>570.30</ele>
        <time>2016-10-29T06:14:03Z</time>
      </trkpt>
      <trkpt lat="42.416206000" lon="-2.596998000">
        <ele>570.70</ele>
        <time>2016-10-29T06:14:04Z</time>
      </trkpt>
      <trkpt lat="42.416218000" lon="-2.597050000">
        <ele>570.90</ele>
        <time>2016-10-29T06:14:05Z</time>
      </trkpt>
      <trkpt lat="42.416232000" lon="-2.597099000">
        <ele>571.10</ele>
        <time>2016-10-29T06:14:06Z</time>
      </trkpt>
      <trkpt lat="42.416247000" lon="-2.597150000">
        <ele>571.30</ele>
        <time>2016-10-29T06:14:07Z</time>
      </trkpt>
      <trkpt lat="42.416262000" lon="-2.597197000">
        <ele>571.40</ele>
        <time>2016-10-29T06:14:08Z</time>
      </trkpt>
      <trkpt lat="42.416276000" lon="-2.597243000">
        <ele>571.40</ele>
        <time>2016-10-29T06:14:09Z</time>
      </trkpt>
      <trkpt lat="42.416292000" lon="-2.597289000">
        <ele>571.50</ele>
        <time>2016-10-29T06:14:10Z</time>
      </trkpt>
      <trkpt lat="42.416308000" lon="-2.597335000">
        <ele>571.50</ele>
        <time>2016-10-29T06:14:11Z</time>
      </trkpt>
      <trkpt lat="42.416322000" lon="-2.597380000">
        <ele>571.60</ele>
        <time>2016-10-29T06:14:12Z</time>
      </trkpt>
      <trkpt lat="42.416338000" lon="-2.597428000">
        <ele>571.50</ele>
        <time>2016-10-29T06:14:13Z</time>
      </trkpt>
      <trkpt lat="42.416356000" lon="-2.597478000">
        <ele>571.40</ele>
        <time>2016-10-29T06:14:14Z</time>
      </trkpt>
      <trkpt lat="42.416375000" lon="-2.597530000">
        <ele>571.40</ele>
        <time>2016-10-29T06:14:15Z</time>
      </trkpt>
      <trkpt lat="42.416395000" lon="-2.597585000">
        <ele>571.40</ele>
        <time>2016-10-29T06:14:16Z</time>
      </trkpt>
      <trkpt lat="42.416413000" lon="-2.597643000">
        <ele>571.20</ele>
        <time>2016-10-29T06:14:17Z</time>
      </trkpt>
      <trkpt lat="42.416431000" lon="-2.597701000">
        <ele>571.10</ele>
        <time>2016-10-29T06:14:18Z</time>
      </trkpt>
      <trkpt lat="42.416448000" lon="-2.597767000">
        <ele>570.50</ele>
        <time>2016-10-29T06:14:19Z</time>
      </trkpt>
      <trkpt lat="42.416464000" lon="-2.597840000">
        <ele>570.10</ele>
        <time>2016-10-29T06:14:20Z</time>
      </trkpt>
      <trkpt lat="42.416476000" lon="-2.597916000">
        <ele>569.60</ele>
        <time>2016-10-29T06:14:21Z</time>
      </trkpt>
      <trkpt lat="42.416489000" lon="-2.597994000">
        <ele>569.20</ele>
        <time>2016-10-29T06:14:22Z</time>
      </trkpt>
      <trkpt lat="42.416509000" lon="-2.598057000">
        <ele>568.60</ele>
        <time>2016-10-29T06:14:23Z</time>
      </trkpt>
      <trkpt lat="42.416544000" lon="-2.598098000">
        <ele>568.20</ele>
        <time>2016-10-29T06:14:24Z</time>
      </trkpt>
      <trkpt lat="42.416592000" lon="-2.598117000">
        <ele>567.40</ele>
        <time>2016-10-29T06:14:25Z</time>
      </trkpt>
      <trkpt lat="42.416650000" lon="-2.598103000">
        <ele>566.70</ele>
        <time>2016-10-29T06:14:26Z</time>
      </trkpt>
      <trkpt lat="42.416710000" lon="-2.598076000">
        <ele>565.70</ele>
        <time>2016-10-29T06:14:27Z</time>
      </trkpt>
      <trkpt lat="42.416772000" lon="-2.598045000">
        <ele>564.90</ele>
        <time>2016-10-29T06:14:28Z</time>
      </trkpt>
      <trkpt lat="42.416833000" lon="-2.598015000">
        <ele>564.20</ele>
        <time>2016-10-29T06:14:29Z</time>
      </trkpt>
      <trkpt lat="42.416893000" lon="-2.598001000">
        <ele>563.60</ele>
        <time>2016-10-29T06:14:30Z</time>
      </trkpt>
      <trkpt lat="42.416946000" lon="-2.598021000">
        <ele>563.10</ele>
        <time>2016-10-29T06:14:31Z</time>
      </trkpt>
      <trkpt lat="42.416992000" lon="-2.598060000">
        <ele>562.60</ele>
        <time>2016-10-29T06:14:32Z</time>
      </trkpt>
      <trkpt lat="42.417034000" lon="-2.598102000">
        <ele>562.30</ele>
        <time>2016-10-29T06:14:33Z</time>
      </trkpt>
      <trkpt lat="42.417071000" lon="-2.598147000">
        <ele>562.10</ele>
        <time>2016-10-29T06:14:34Z</time>
      </trkpt>
      <trkpt lat="42.417103000" lon="-2.598198000">
        <ele>562.10</ele>
        <time>2016-10-29T06:14:35Z</time>
      </trkpt>
      <trkpt lat="42.417112000" lon="-2.598250000">
        <ele>562.00</ele>
        <time>2016-10-29T06:14:36Z</time>
      </trkpt>
      <trkpt lat="42.417110000" lon="-2.598296000">
        <ele>562.10</ele>
        <time>2016-10-29T06:14:37Z</time>
      </trkpt>
      <trkpt lat="42.417097000" lon="-2.598344000">
        <ele>562.10</ele>
        <time>2016-10-29T06:14:38Z</time>
      </trkpt>
      <trkpt lat="42.417079000" lon="-2.598388000">
        <ele>562.30</ele>
        <time>2016-10-29T06:14:39Z</time>
      </trkpt>
      <trkpt lat="42.417059000" lon="-2.598436000">
        <ele>562.50</ele>
        <time>2016-10-29T06:14:40Z</time>
      </trkpt>
      <trkpt lat="42.417039000" lon="-2.598483000">
        <ele>562.60</ele>
        <time>2016-10-29T06:14:41Z</time>
      </trkpt>
      <trkpt lat="42.417017000" lon="-2.598531000">
        <ele>562.70</ele>
        <time>2016-10-29T06:14:42Z</time>
      </trkpt>
      <trkpt lat="42.416997000" lon="-2.598576000">
        <ele>562.80</ele>
        <time>2016-10-29T06:14:43Z</time>
      </trkpt>
      <trkpt lat="42.416976000" lon="-2.598619000">
        <ele>562.90</ele>
        <time>2016-10-29T06:14:44Z</time>
      </trkpt>
      <trkpt lat="42.416953000" lon="-2.598665000">
        <ele>562.80</ele>
        <time>2016-10-29T06:14:45Z</time>
      </trkpt>
      <trkpt lat="42.416929000" lon="-2.598708000">
        <ele>562.70</ele>
        <time>2016-10-29T06:14:46Z</time>
      </trkpt>
      <trkpt lat="42.416908000" lon="-2.598749000">
        <ele>563.00</ele>
        <time>2016-10-29T06:14:47Z</time>
      </trkpt>
      <trkpt lat="42.416885000" lon="-2.598793000">
        <ele>563.20</ele>
        <time>2016-10-29T06:14:48Z</time>
      </trkpt>
      <trkpt lat="42.416865000" lon="-2.598836000">
        <ele>563.20</ele>
        <time>2016-10-29T06:14:49Z</time>
      </trkpt>
      <trkpt lat="42.416846000" lon="-2.598880000">
        <ele>563.20</ele>
        <time>2016-10-29T06:14:50Z</time>
      </trkpt>
      <trkpt lat="42.416829000" lon="-2.598925000">
        <ele>563.30</ele>
        <time>2016-10-29T06:14:51Z</time>
      </trkpt>
      <trkpt lat="42.416810000" lon="-2.598969000">
        <ele>563.40</ele>
        <time>2016-10-29T06:14:52Z</time>
      </trkpt>
      <trkpt lat="42.416793000" lon="-2.599011000">
        <ele>563.40</ele>
        <time>2016-10-29T06:14:53Z</time>
      </trkpt>
      <trkpt lat="42.416772000" lon="-2.599059000">
        <ele>563.50</ele>
        <time>2016-10-29T06:14:54Z</time>
      </trkpt>
      <trkpt lat="42.416755000" lon="-2.599096000">
        <ele>563.60</ele>
        <time>2016-10-29T06:14:55Z</time>
      </trkpt>
      <trkpt lat="42.416717000" lon="-2.599174000">
        <ele>563.90</ele>
        <time>2016-10-29T06:14:57Z</time>
      </trkpt>
      <trkpt lat="42.416699000" lon="-2.599213000">
        <ele>564.00</ele>
        <time>2016-10-29T06:14:58Z</time>
      </trkpt>
      <trkpt lat="42.416680000" lon="-2.599252000">
        <ele>564.30</ele>
        <time>2016-10-29T06:14:59Z</time>
      </trkpt>
      <trkpt lat="42.416661000" lon="-2.599291000">
        <ele>564.50</ele>
        <time>2016-10-29T06:15:00Z</time>
      </trkpt>
      <trkpt lat="42.416643000" lon="-2.599331000">
        <ele>564.70</ele>
        <time>2016-10-29T06:15:01Z</time>
      </trkpt>
      <trkpt lat="42.416624000" lon="-2.599367000">
        <ele>564.80</ele>
        <time>2016-10-29T06:15:02Z</time>
      </trkpt>
      <trkpt lat="42.416605000" lon="-2.599406000">
        <ele>564.90</ele>
        <time>2016-10-29T06:15:03Z</time>
      </trkpt>
      <trkpt lat="42.416586000" lon="-2.599447000">
        <ele>565.00</ele>
        <time>2016-10-29T06:15:04Z</time>
      </trkpt>
      <trkpt lat="42.416568000" lon="-2.599486000">
        <ele>565.20</ele>
        <time>2016-10-29T06:15:05Z</time>
      </trkpt>
      <trkpt lat="42.416549000" lon="-2.599527000">
        <ele>565.30</ele>
        <time>2016-10-29T06:15:06Z</time>
      </trkpt>
      <trkpt lat="42.416530000" lon="-2.599566000">
        <ele>565.50</ele>
        <time>2016-10-29T06:15:07Z</time>
      </trkpt>
      <trkpt lat="42.416512000" lon="-2.599606000">
        <ele>565.50</ele>
        <time>2016-10-29T06:15:08Z</time>
      </trkpt>
      <trkpt lat="42.416491000" lon="-2.599647000">
        <ele>565.70</ele>
        <time>2016-10-29T06:15:09Z</time>
      </trkpt>
      <trkpt lat="42.416473000" lon="-2.599688000">
        <ele>565.80</ele>
        <time>2016-10-29T06:15:10Z</time>
      </trkpt>
      <trkpt lat="42.416454000" lon="-2.599725000">
        <ele>565.80</ele>
        <time>2016-10-29T06:15:11Z</time>
      </trkpt>
      <trkpt lat="42.416434000" lon="-2.599765000">
        <ele>565.90</ele>
        <time>2016-10-29T06:15:12Z</time>
      </trkpt>
      <trkpt lat="42.416416000" lon="-2.599805000">
        <ele>565.90</ele>
        <time>2016-10-29T06:15:13Z</time>
      </trkpt>
      <trkpt lat="42.416396000" lon="-2.599843000">
        <ele>565.90</ele>
        <time>2016-10-29T06:15:14Z</time>
      </trkpt>
      <trkpt lat="42.416380000" lon="-2.599883000">
        <ele>565.90</ele>
        <time>2016-10-29T06:15:15Z</time>
      </trkpt>
      <trkpt lat="42.416360000" lon="-2.599918000">
        <ele>565.90</ele>
        <time>2016-10-29T06:15:16Z</time>
      </trkpt>
      <trkpt lat="42.416342000" lon="-2.599950000">
        <ele>566.10</ele>
        <time>2016-10-29T06:15:17Z</time>
      </trkpt>
      <trkpt lat="42.416326000" lon="-2.599987000">
        <ele>566.30</ele>
        <time>2016-10-29T06:15:18Z</time>
      </trkpt>
      <trkpt lat="42.416309000" lon="-2.600022000">
        <ele>566.40</ele>
        <time>2016-10-29T06:15:19Z</time>
      </trkpt>
      <trkpt lat="42.416293000" lon="-2.600060000">
        <ele>566.50</ele>
        <time>2016-10-29T06:15:20Z</time>
      </trkpt>
      <trkpt lat="42.416277000" lon="-2.600100000">
        <ele>566.80</ele>
        <time>2016-10-29T06:15:21Z</time>
      </trkpt>
      <trkpt lat="42.416258000" lon="-2.600138000">
        <ele>566.90</ele>
        <time>2016-10-29T06:15:22Z</time>
      </trkpt>
      <trkpt lat="42.416240000" lon="-2.600173000">
        <ele>567.00</ele>
        <time>2016-10-29T06:15:23Z</time>
      </trkpt>
      <trkpt lat="42.416223000" lon="-2.600213000">
        <ele>567.10</ele>
        <time>2016-10-29T06:15:24Z</time>
      </trkpt>
      <trkpt lat="42.416208000" lon="-2.600253000">
        <ele>567.20</ele>
        <time>2016-10-29T06:15:25Z</time>
      </trkpt>
      <trkpt lat="42.416192000" lon="-2.600293000">
        <ele>567.20</ele>
        <time>2016-10-29T06:15:26Z</time>
      </trkpt>
      <trkpt lat="42.416174000" lon="-2.600329000">
        <ele>567.30</ele>
        <time>2016-10-29T06:15:27Z</time>
      </trkpt>
      <trkpt lat="42.416155000" lon="-2.600369000">
        <ele>567.30</ele>
        <time>2016-10-29T06:15:28Z</time>
      </trkpt>
      <trkpt lat="42.416134000" lon="-2.600407000">
        <ele>567.40</ele>
        <time>2016-10-29T06:15:29Z</time>
      </trkpt>
      <trkpt lat="42.416116000" lon="-2.600442000">
        <ele>567.40</ele>
        <time>2016-10-29T06:15:30Z</time>
      </trkpt>
      <trkpt lat="42.416098000" lon="-2.600488000">
        <ele>567.60</ele>
        <time>2016-10-29T06:15:31Z</time>
      </trkpt>
      <trkpt lat="42.416080000" lon="-2.600533000">
        <ele>567.70</ele>
        <time>2016-10-29T06:15:32Z</time>
      </trkpt>
      <trkpt lat="42.416064000" lon="-2.600577000">
        <ele>567.90</ele>
        <time>2016-10-29T06:15:33Z</time>
      </trkpt>
      <trkpt lat="42.416049000" lon="-2.600621000">
        <ele>568.00</ele>
        <time>2016-10-29T06:15:34Z</time>
      </trkpt>
      <trkpt lat="42.416033000" lon="-2.600661000">
        <ele>568.10</ele>
        <time>2016-10-29T06:15:35Z</time>
      </trkpt>
      <trkpt lat="42.416016000" lon="-2.600698000">
        <ele>568.10</ele>
        <time>2016-10-29T06:15:36Z</time>
      </trkpt>
      <trkpt lat="42.415998000" lon="-2.600735000">
        <ele>568.20</ele>
        <time>2016-10-29T06:15:37Z</time>
      </trkpt>
      <trkpt lat="42.415982000" lon="-2.600777000">
        <ele>568.30</ele>
        <time>2016-10-29T06:15:38Z</time>
      </trkpt>
      <trkpt lat="42.415966000" lon="-2.600816000">
        <ele>568.50</ele>
        <time>2016-10-29T06:15:39Z</time>
      </trkpt>
      <trkpt lat="42.415950000" lon="-2.600855000">
        <ele>568.50</ele>
        <time>2016-10-29T06:15:40Z</time>
      </trkpt>
      <trkpt lat="42.415935000" lon="-2.600894000">
        <ele>568.70</ele>
        <time>2016-10-29T06:15:41Z</time>
      </trkpt>
      <trkpt lat="42.415922000" lon="-2.600936000">
        <ele>568.80</ele>
        <time>2016-10-29T06:15:42Z</time>
      </trkpt>
      <trkpt lat="42.415908000" lon="-2.600977000">
        <ele>568.90</ele>
        <time>2016-10-29T06:15:43Z</time>
      </trkpt>
      <trkpt lat="42.415893000" lon="-2.601019000">
        <ele>569.00</ele>
        <time>2016-10-29T06:15:44Z</time>
      </trkpt>
      <trkpt lat="42.415877000" lon="-2.601064000">
        <ele>569.10</ele>
        <time>2016-10-29T06:15:45Z</time>
      </trkpt>
      <trkpt lat="42.415862000" lon="-2.601107000">
        <ele>569.10</ele>
        <time>2016-10-29T06:15:46Z</time>
      </trkpt>
      <trkpt lat="42.415848000" lon="-2.601148000">
        <ele>569.30</ele>
        <time>2016-10-29T06:15:47Z</time>
      </trkpt>
      <trkpt lat="42.415832000" lon="-2.601186000">
        <ele>569.40</ele>
        <time>2016-10-29T06:15:48Z</time>
      </trkpt>
      <trkpt lat="42.415816000" lon="-2.601227000">
        <ele>569.60</ele>
        <time>2016-10-29T06:15:49Z</time>
      </trkpt>
      <trkpt lat="42.415800000" lon="-2.601266000">
        <ele>569.70</ele>
        <time>2016-10-29T06:15:50Z</time>
      </trkpt>
      <trkpt lat="42.415786000" lon="-2.601305000">
        <ele>569.80</ele>
        <time>2016-10-29T06:15:51Z</time>
      </trkpt>
      <trkpt lat="42.415773000" lon="-2.601344000">
        <ele>569.80</ele>
        <time>2016-10-29T06:15:52Z</time>
      </trkpt>
      <trkpt lat="42.415760000" lon="-2.601385000">
        <ele>569.90</ele>
        <time>2016-10-29T06:15:53Z</time>
      </trkpt>
      <trkpt lat="42.415746000" lon="-2.601425000">
        <ele>569.90</ele>
        <time>2016-10-29T06:15:54Z</time>
      </trkpt>
      <trkpt lat="42.415731000" lon="-2.601466000">
        <ele>570.20</ele>
        <time>2016-10-29T06:15:55Z</time>
      </trkpt>
      <trkpt lat="42.415717000" lon="-2.601506000">
        <ele>570.40</ele>
        <time>2016-10-29T06:15:56Z</time>
      </trkpt>
      <trkpt lat="42.415692000" lon="-2.601586000">
        <ele>570.50</ele>
        <time>2016-10-29T06:15:58Z</time>
      </trkpt>
      <trkpt lat="42.415679000" lon="-2.601629000">
        <ele>570.60</ele>
        <time>2016-10-29T06:15:59Z</time>
      </trkpt>
      <trkpt lat="42.415664000" lon="-2.601669000">
        <ele>570.60</ele>
        <time>2016-10-29T06:16:00Z</time>
      </trkpt>
      <trkpt lat="42.415648000" lon="-2.601712000">
        <ele>570.70</ele>
        <time>2016-10-29T06:16:01Z</time>
      </trkpt>
      <trkpt lat="42.415633000" lon="-2.601753000">
        <ele>570.70</ele>
        <time>2016-10-29T06:16:02Z</time>
      </trkpt>
      <trkpt lat="42.415619000" lon="-2.601798000">
        <ele>570.70</ele>
        <time>2016-10-29T06:16:03Z</time>
      </trkpt>
      <trkpt lat="42.415602000" lon="-2.601842000">
        <ele>570.80</ele>
        <time>2016-10-29T06:16:04Z</time>
      </trkpt>
      <trkpt lat="42.415587000" lon="-2.601887000">
        <ele>570.80</ele>
        <time>2016-10-29T06:16:05Z</time>
      </trkpt>
      <trkpt lat="42.415572000" lon="-2.601932000">
        <ele>570.80</ele>
        <time>2016-10-29T06:16:06Z</time>
      </trkpt>
      <trkpt lat="42.415557000" lon="-2.601977000">
        <ele>570.90</ele>
        <time>2016-10-29T06:16:07Z</time>
      </trkpt>
      <trkpt lat="42.415544000" lon="-2.602021000">
        <ele>570.90</ele>
        <time>2016-10-29T06:16:08Z</time>
      </trkpt>
      <trkpt lat="42.415530000" lon="-2.602064000">
        <ele>570.90</ele>
        <time>2016-10-29T06:16:09Z</time>
      </trkpt>
      <trkpt lat="42.415513000" lon="-2.602108000">
        <ele>570.90</ele>
        <time>2016-10-29T06:16:10Z</time>
      </trkpt>
      <trkpt lat="42.415497000" lon="-2.602151000">
        <ele>571.00</ele>
        <time>2016-10-29T06:16:11Z</time>
      </trkpt>
      <trkpt lat="42.415481000" lon="-2.602196000">
        <ele>571.10</ele>
        <time>2016-10-29T06:16:12Z</time>
      </trkpt>
      <trkpt lat="42.415461000" lon="-2.602240000">
        <ele>571.30</ele>
        <time>2016-10-29T06:16:13Z</time>
      </trkpt>
      <trkpt lat="42.415444000" lon="-2.602285000">
        <ele>571.40</ele>
        <time>2016-10-29T06:16:14Z</time>
      </trkpt>
      <trkpt lat="42.415429000" lon="-2.602325000">
        <ele>571.60</ele>
        <time>2016-10-29T06:16:15Z</time>
      </trkpt>
      <trkpt lat="42.415414000" lon="-2.602364000">
        <ele>571.70</ele>
        <time>2016-10-29T06:16:16Z</time>
      </trkpt>
      <trkpt lat="42.415399000" lon="-2.602404000">
        <ele>571.90</ele>
        <time>2016-10-29T06:16:17Z</time>
      </trkpt>
      <trkpt lat="42.415381000" lon="-2.602445000">
        <ele>572.10</ele>
        <time>2016-10-29T06:16:18Z</time>
      </trkpt>
      <trkpt lat="42.415366000" lon="-2.602487000">
        <ele>572.20</ele>
        <time>2016-10-29T06:16:19Z</time>
      </trkpt>
      <trkpt lat="42.415351000" lon="-2.602531000">
        <ele>572.30</ele>
        <time>2016-10-29T06:16:20Z</time>
      </trkpt>
      <trkpt lat="42.415335000" lon="-2.602578000">
        <ele>572.40</ele>
        <time>2016-10-29T06:16:21Z</time>
      </trkpt>
      <trkpt lat="42.415320000" lon="-2.602619000">
        <ele>572.50</ele>
        <time>2016-10-29T06:16:22Z</time>
      </trkpt>
      <trkpt lat="42.415303000" lon="-2.602660000">
        <ele>572.50</ele>
        <time>2016-10-29T06:16:23Z</time>
      </trkpt>
      <trkpt lat="42.415288000" lon="-2.602704000">
        <ele>572.60</ele>
        <time>2016-10-29T06:16:24Z</time>
      </trkpt>
      <trkpt lat="42.415273000" lon="-2.602746000">
        <ele>572.60</ele>
        <time>2016-10-29T06:16:25Z</time>
      </trkpt>
      <trkpt lat="42.415259000" lon="-2.602791000">
        <ele>572.70</ele>
        <time>2016-10-29T06:16:26Z</time>
      </trkpt>
      <trkpt lat="42.415245000" lon="-2.602834000">
        <ele>572.80</ele>
        <time>2016-10-29T06:16:27Z</time>
      </trkpt>
      <trkpt lat="42.415228000" lon="-2.602878000">
        <ele>572.80</ele>
        <time>2016-10-29T06:16:28Z</time>
      </trkpt>
      <trkpt lat="42.415212000" lon="-2.602922000">
        <ele>572.80</ele>
        <time>2016-10-29T06:16:29Z</time>
      </trkpt>
      <trkpt lat="42.415196000" lon="-2.602966000">
        <ele>572.80</ele>
        <time>2016-10-29T06:16:30Z</time>
      </trkpt>
      <trkpt lat="42.415180000" lon="-2.603008000">
        <ele>572.90</ele>
        <time>2016-10-29T06:16:31Z</time>
      </trkpt>
      <trkpt lat="42.415163000" lon="-2.603049000">
        <ele>572.90</ele>
        <time>2016-10-29T06:16:32Z</time>
      </trkpt>
      <trkpt lat="42.415149000" lon="-2.603093000">
        <ele>572.90</ele>
        <time>2016-10-29T06:16:33Z</time>
      </trkpt>
      <trkpt lat="42.415134000" lon="-2.603138000">
        <ele>573.00</ele>
        <time>2016-10-29T06:16:34Z</time>
      </trkpt>
      <trkpt lat="42.415120000" lon="-2.603182000">
        <ele>573.00</ele>
        <time>2016-10-29T06:16:35Z</time>
      </trkpt>
      <trkpt lat="42.415105000" lon="-2.603225000">
        <ele>573.00</ele>
        <time>2016-10-29T06:16:36Z</time>
      </trkpt>
      <trkpt lat="42.415086000" lon="-2.603264000">
        <ele>573.10</ele>
        <time>2016-10-29T06:16:37Z</time>
      </trkpt>
      <trkpt lat="42.415068000" lon="-2.603306000">
        <ele>573.20</ele>
        <time>2016-10-29T06:16:38Z</time>
      </trkpt>
      <trkpt lat="42.415050000" lon="-2.603343000">
        <ele>573.30</ele>
        <time>2016-10-29T06:16:39Z</time>
      </trkpt>
      <trkpt lat="42.415036000" lon="-2.603381000">
        <ele>573.40</ele>
        <time>2016-10-29T06:16:40Z</time>
      </trkpt>
      <trkpt lat="42.415028000" lon="-2.603425000">
        <ele>573.50</ele>
        <time>2016-10-29T06:16:41Z</time>
      </trkpt>
      <trkpt lat="42.415010000" lon="-2.603467000">
        <ele>573.60</ele>
        <time>2016-10-29T06:16:42Z</time>
      </trkpt>
      <trkpt lat="42.414991000" lon="-2.603506000">
        <ele>573.70</ele>
        <time>2016-10-29T06:16:43Z</time>
      </trkpt>
      <trkpt lat="42.414974000" lon="-2.603546000">
        <ele>573.80</ele>
        <time>2016-10-29T06:16:44Z</time>
      </trkpt>
      <trkpt lat="42.414955000" lon="-2.603584000">
        <ele>573.80</ele>
        <time>2016-10-29T06:16:45Z</time>
      </trkpt>
      <trkpt lat="42.414941000" lon="-2.603626000">
        <ele>573.80</ele>
        <time>2016-10-29T06:16:46Z</time>
      </trkpt>
      <trkpt lat="42.414931000" lon="-2.603669000">
        <ele>573.80</ele>
        <time>2016-10-29T06:16:47Z</time>
      </trkpt>
      <trkpt lat="42.414920000" lon="-2.603709000">
        <ele>573.80</ele>
        <time>2016-10-29T06:16:48Z</time>
      </trkpt>
      <trkpt lat="42.414905000" lon="-2.603745000">
        <ele>573.90</ele>
        <time>2016-10-29T06:16:49Z</time>
      </trkpt>
      <trkpt lat="42.414889000" lon="-2.603782000">
        <ele>574.00</ele>
        <time>2016-10-29T06:16:50Z</time>
      </trkpt>
      <trkpt lat="42.414872000" lon="-2.603821000">
        <ele>574.20</ele>
        <time>2016-10-29T06:16:51Z</time>
      </trkpt>
      <trkpt lat="42.414856000" lon="-2.603861000">
        <ele>574.40</ele>
        <time>2016-10-29T06:16:52Z</time>
      </trkpt>
      <trkpt lat="42.414843000" lon="-2.603905000">
        <ele>574.50</ele>
        <time>2016-10-29T06:16:53Z</time>
      </trkpt>
      <trkpt lat="42.414831000" lon="-2.603950000">
        <ele>574.60</ele>
        <time>2016-10-29T06:16:54Z</time>
      </trkpt>
      <trkpt lat="42.414819000" lon="-2.603997000">
        <ele>574.60</ele>
        <time>2016-10-29T06:16:55Z</time>
      </trkpt>
      <trkpt lat="42.414808000" lon="-2.604042000">
        <ele>574.60</ele>
        <time>2016-10-29T06:16:56Z</time>
      </trkpt>
      <trkpt lat="42.414797000" lon="-2.604083000">
        <ele>574.60</ele>
        <time>2016-10-29T06:16:57Z</time>
      </trkpt>
      <trkpt lat="42.414772000" lon="-2.604168000">
        <ele>574.80</ele>
        <time>2016-10-29T06:16:59Z</time>
      </trkpt>
      <trkpt lat="42.414757000" lon="-2.604208000">
        <ele>574.90</ele>
        <time>2016-10-29T06:17:00Z</time>
      </trkpt>
      <trkpt lat="42.414742000" lon="-2.604247000">
        <ele>575.00</ele>
        <time>2016-10-29T06:17:01Z</time>
      </trkpt>
      <trkpt lat="42.414728000" lon="-2.604287000">
        <ele>575.10</ele>
        <time>2016-10-29T06:17:02Z</time>
      </trkpt>
      <trkpt lat="42.414710000" lon="-2.604326000">
        <ele>575.30</ele>
        <time>2016-10-29T06:17:03Z</time>
      </trkpt>
      <trkpt lat="42.414696000" lon="-2.604365000">
        <ele>575.50</ele>
        <time>2016-10-29T06:17:04Z</time>
      </trkpt>
      <trkpt lat="42.414683000" lon="-2.604409000">
        <ele>575.60</ele>
        <time>2016-10-29T06:17:05Z</time>
      </trkpt>
      <trkpt lat="42.414667000" lon="-2.604450000">
        <ele>575.70</ele>
        <time>2016-10-29T06:17:06Z</time>
      </trkpt>
      <trkpt lat="42.414652000" lon="-2.604492000">
        <ele>575.70</ele>
        <time>2016-10-29T06:17:07Z</time>
      </trkpt>
      <trkpt lat="42.414635000" lon="-2.604537000">
        <ele>575.80</ele>
        <time>2016-10-29T06:17:08Z</time>
      </trkpt>
      <trkpt lat="42.414618000" lon="-2.604578000">
        <ele>576.10</ele>
        <time>2016-10-29T06:17:09Z</time>
      </trkpt>
      <trkpt lat="42.414601000" lon="-2.604619000">
        <ele>576.30</ele>
        <time>2016-10-29T06:17:10Z</time>
      </trkpt>
      <trkpt lat="42.414584000" lon="-2.604661000">
        <ele>576.40</ele>
        <time>2016-10-29T06:17:11Z</time>
      </trkpt>
      <trkpt lat="42.414569000" lon="-2.604705000">
        <ele>576.50</ele>
        <time>2016-10-29T06:17:12Z</time>
      </trkpt>
      <trkpt lat="42.414556000" lon="-2.604748000">
        <ele>576.60</ele>
        <time>2016-10-29T06:17:13Z</time>
      </trkpt>
      <trkpt lat="42.414540000" lon="-2.604790000">
        <ele>576.70</ele>
        <time>2016-10-29T06:17:14Z</time>
      </trkpt>
      <trkpt lat="42.414526000" lon="-2.604832000">
        <ele>576.80</ele>
        <time>2016-10-29T06:17:15Z</time>
      </trkpt>
      <trkpt lat="42.414510000" lon="-2.604875000">
        <ele>576.80</ele>
        <time>2016-10-29T06:17:16Z</time>
      </trkpt>
      <trkpt lat="42.414492000" lon="-2.604919000">
        <ele>576.90</ele>
        <time>2016-10-29T06:17:17Z</time>
      </trkpt>
      <trkpt lat="42.414477000" lon="-2.604961000">
        <ele>576.90</ele>
        <time>2016-10-29T06:17:18Z</time>
      </trkpt>
      <trkpt lat="42.414460000" lon="-2.605005000">
        <ele>576.90</ele>
        <time>2016-10-29T06:17:19Z</time>
      </trkpt>
      <trkpt lat="42.414442000" lon="-2.605050000">
        <ele>576.90</ele>
        <time>2016-10-29T06:17:20Z</time>
      </trkpt>
      <trkpt lat="42.414423000" lon="-2.605093000">
        <ele>576.90</ele>
        <time>2016-10-29T06:17:21Z</time>
      </trkpt>
      <trkpt lat="42.414406000" lon="-2.605136000">
        <ele>576.90</ele>
        <time>2016-10-29T06:17:22Z</time>
      </trkpt>
      <trkpt lat="42.414390000" lon="-2.605183000">
        <ele>577.00</ele>
        <time>2016-10-29T06:17:23Z</time>
      </trkpt>
      <trkpt lat="42.414374000" lon="-2.605228000">
        <ele>577.00</ele>
        <time>2016-10-29T06:17:24Z</time>
      </trkpt>
      <trkpt lat="42.414357000" lon="-2.605270000">
        <ele>577.10</ele>
        <time>2016-10-29T06:17:25Z</time>
      </trkpt>
      <trkpt lat="42.414340000" lon="-2.605313000">
        <ele>577.20</ele>
        <time>2016-10-29T06:17:26Z</time>
      </trkpt>
      <trkpt lat="42.414324000" lon="-2.605357000">
        <ele>577.30</ele>
        <time>2016-10-29T06:17:27Z</time>
      </trkpt>
      <trkpt lat="42.414307000" lon="-2.605400000">
        <ele>577.40</ele>
        <time>2016-10-29T06:17:28Z</time>
      </trkpt>
      <trkpt lat="42.414291000" lon="-2.605445000">
        <ele>577.50</ele>
        <time>2016-10-29T06:17:29Z</time>
      </trkpt>
      <trkpt lat="42.414275000" lon="-2.605488000">
        <ele>577.60</ele>
        <time>2016-10-29T06:17:30Z</time>
      </trkpt>
      <trkpt lat="42.414258000" lon="-2.605533000">
        <ele>577.70</ele>
        <time>2016-10-29T06:17:31Z</time>
      </trkpt>
      <trkpt lat="42.414241000" lon="-2.605576000">
        <ele>577.80</ele>
        <time>2016-10-29T06:17:32Z</time>
      </trkpt>
      <trkpt lat="42.414225000" lon="-2.605619000">
        <ele>577.80</ele>
        <time>2016-10-29T06:17:33Z</time>
      </trkpt>
      <trkpt lat="42.414207000" lon="-2.605661000">
        <ele>577.80</ele>
        <time>2016-10-29T06:17:34Z</time>
      </trkpt>
      <trkpt lat="42.414191000" lon="-2.605708000">
        <ele>577.90</ele>
        <time>2016-10-29T06:17:35Z</time>
      </trkpt>
      <trkpt lat="42.414176000" lon="-2.605750000">
        <ele>577.90</ele>
        <time>2016-10-29T06:17:36Z</time>
      </trkpt>
      <trkpt lat="42.414160000" lon="-2.605790000">
        <ele>578.00</ele>
        <time>2016-10-29T06:17:37Z</time>
      </trkpt>
      <trkpt lat="42.414144000" lon="-2.605834000">
        <ele>578.00</ele>
        <time>2016-10-29T06:17:38Z</time>
      </trkpt>
      <trkpt lat="42.414129000" lon="-2.605878000">
        <ele>578.10</ele>
        <time>2016-10-29T06:17:39Z</time>
      </trkpt>
      <trkpt lat="42.414114000" lon="-2.605920000">
        <ele>578.10</ele>
        <time>2016-10-29T06:17:40Z</time>
      </trkpt>
      <trkpt lat="42.414102000" lon="-2.605960000">
        <ele>578.30</ele>
        <time>2016-10-29T06:17:41Z</time>
      </trkpt>
      <trkpt lat="42.414088000" lon="-2.606001000">
        <ele>578.40</ele>
        <time>2016-10-29T06:17:42Z</time>
      </trkpt>
      <trkpt lat="42.414073000" lon="-2.606042000">
        <ele>578.50</ele>
        <time>2016-10-29T06:17:43Z</time>
      </trkpt>
      <trkpt lat="42.414060000" lon="-2.606082000">
        <ele>578.50</ele>
        <time>2016-10-29T06:17:44Z</time>
      </trkpt>
      <trkpt lat="42.414049000" lon="-2.606119000">
        <ele>578.60</ele>
        <time>2016-10-29T06:17:45Z</time>
      </trkpt>
      <trkpt lat="42.414034000" lon="-2.606154000">
        <ele>578.60</ele>
        <time>2016-10-29T06:17:46Z</time>
      </trkpt>
      <trkpt lat="42.414023000" lon="-2.606191000">
        <ele>578.60</ele>
        <time>2016-10-29T06:17:47Z</time>
      </trkpt>
      <trkpt lat="42.414008000" lon="-2.606226000">
        <ele>578.60</ele>
        <time>2016-10-29T06:17:48Z</time>
      </trkpt>
      <trkpt lat="42.413994000" lon="-2.606263000">
        <ele>578.80</ele>
        <time>2016-10-29T06:17:49Z</time>
      </trkpt>
      <trkpt lat="42.413983000" lon="-2.606301000">
        <ele>578.90</ele>
        <time>2016-10-29T06:17:50Z</time>
      </trkpt>
      <trkpt lat="42.413970000" lon="-2.606340000">
        <ele>579.00</ele>
        <time>2016-10-29T06:17:51Z</time>
      </trkpt>
      <trkpt lat="42.413956000" lon="-2.606383000">
        <ele>579.20</ele>
        <time>2016-10-29T06:17:52Z</time>
      </trkpt>
      <trkpt lat="42.413942000" lon="-2.606422000">
        <ele>579.30</ele>
        <time>2016-10-29T06:17:53Z</time>
      </trkpt>
      <trkpt lat="42.413924000" lon="-2.606463000">
        <ele>579.40</ele>
        <time>2016-10-29T06:17:54Z</time>
      </trkpt>
      <trkpt lat="42.413906000" lon="-2.606504000">
        <ele>579.50</ele>
        <time>2016-10-29T06:17:55Z</time>
      </trkpt>
      <trkpt lat="42.413891000" lon="-2.606548000">
        <ele>579.60</ele>
        <time>2016-10-29T06:17:56Z</time>
      </trkpt>
      <trkpt lat="42.413879000" lon="-2.606591000">
        <ele>579.60</ele>
        <time>2016-10-29T06:17:57Z</time>
      </trkpt>
      <trkpt lat="42.413865000" lon="-2.606635000">
        <ele>579.60</ele>
        <time>2016-10-29T06:17:58Z</time>
      </trkpt>
      <trkpt lat="42.413840000" lon="-2.606719000">
        <ele>580.00</ele>
        <time>2016-10-29T06:18:00Z</time>
      </trkpt>
      <trkpt lat="42.413826000" lon="-2.606759000">
        <ele>580.20</ele>
        <time>2016-10-29T06:18:01Z</time>
      </trkpt>
      <trkpt lat="42.413809000" lon="-2.606799000">
        <ele>580.20</ele>
        <time>2016-10-29T06:18:02Z</time>
      </trkpt>
      <trkpt lat="42.413792000" lon="-2.606838000">
        <ele>580.30</ele>
        <time>2016-10-29T06:18:03Z</time>
      </trkpt>
      <trkpt lat="42.413775000" lon="-2.606881000">
        <ele>580.40</ele>
        <time>2016-10-29T06:18:04Z</time>
      </trkpt>
      <trkpt lat="42.413754000" lon="-2.606924000">
        <ele>580.40</ele>
        <time>2016-10-29T06:18:05Z</time>
      </trkpt>
      <trkpt lat="42.413737000" lon="-2.606965000">
        <ele>580.40</ele>
        <time>2016-10-29T06:18:06Z</time>
      </trkpt>
      <trkpt lat="42.413722000" lon="-2.607003000">
        <ele>580.50</ele>
        <time>2016-10-29T06:18:07Z</time>
      </trkpt>
      <trkpt lat="42.413704000" lon="-2.607046000">
        <ele>580.60</ele>
        <time>2016-10-29T06:18:08Z</time>
      </trkpt>
      <trkpt lat="42.413688000" lon="-2.607089000">
        <ele>580.60</ele>
        <time>2016-10-29T06:18:09Z</time>
      </trkpt>
      <trkpt lat="42.413673000" lon="-2.607129000">
        <ele>580.70</ele>
        <time>2016-10-29T06:18:10Z</time>
      </trkpt>
      <trkpt lat="42.413660000" lon="-2.607170000">
        <ele>580.80</ele>
        <time>2016-10-29T06:18:11Z</time>
      </trkpt>
      <trkpt lat="42.413646000" lon="-2.607212000">
        <ele>580.80</ele>
        <time>2016-10-29T06:18:12Z</time>
      </trkpt>
      <trkpt lat="42.413631000" lon="-2.607254000">
        <ele>580.90</ele>
        <time>2016-10-29T06:18:13Z</time>
      </trkpt>
      <trkpt lat="42.413618000" lon="-2.607294000">
        <ele>580.90</ele>
        <time>2016-10-29T06:18:14Z</time>
      </trkpt>
      <trkpt lat="42.413604000" lon="-2.607336000">
        <ele>581.00</ele>
        <time>2016-10-29T06:18:15Z</time>
      </trkpt>
      <trkpt lat="42.413587000" lon="-2.607375000">
        <ele>581.00</ele>
        <time>2016-10-29T06:18:16Z</time>
      </trkpt>
      <trkpt lat="42.413575000" lon="-2.607419000">
        <ele>581.00</ele>
        <time>2016-10-29T06:18:17Z</time>
      </trkpt>
      <trkpt lat="42.413558000" lon="-2.607458000">
        <ele>581.00</ele>
        <time>2016-10-29T06:18:18Z</time>
      </trkpt>
      <trkpt lat="42.413543000" lon="-2.607499000">
        <ele>581.00</ele>
        <time>2016-10-29T06:18:19Z</time>
      </trkpt>
      <trkpt lat="42.413531000" lon="-2.607539000">
        <ele>580.90</ele>
        <time>2016-10-29T06:18:20Z</time>
      </trkpt>
      <trkpt lat="42.413520000" lon="-2.607578000">
        <ele>581.00</ele>
        <time>2016-10-29T06:18:21Z</time>
      </trkpt>
      <trkpt lat="42.413507000" lon="-2.607620000">
        <ele>581.10</ele>
        <time>2016-10-29T06:18:22Z</time>
      </trkpt>
      <trkpt lat="42.413489000" lon="-2.607661000">
        <ele>581.20</ele>
        <time>2016-10-29T06:18:23Z</time>
      </trkpt>
      <trkpt lat="42.413472000" lon="-2.607700000">
        <ele>581.20</ele>
        <time>2016-10-29T06:18:24Z</time>
      </trkpt>
      <trkpt lat="42.413459000" lon="-2.607741000">
        <ele>581.20</ele>
        <time>2016-10-29T06:18:25Z</time>
      </trkpt>
      <trkpt lat="42.413440000" lon="-2.607780000">
        <ele>581.20</ele>
        <time>2016-10-29T06:18:26Z</time>
      </trkpt>
      <trkpt lat="42.413426000" lon="-2.607823000">
        <ele>581.30</ele>
        <time>2016-10-29T06:18:27Z</time>
      </trkpt>
      <trkpt lat="42.413413000" lon="-2.607866000">
        <ele>581.40</ele>
        <time>2016-10-29T06:18:28Z</time>
      </trkpt>
      <trkpt lat="42.413399000" lon="-2.607907000">
        <ele>581.60</ele>
        <time>2016-10-29T06:18:29Z</time>
      </trkpt>
      <trkpt lat="42.413388000" lon="-2.607948000">
        <ele>581.80</ele>
        <time>2016-10-29T06:18:30Z</time>
      </trkpt>
      <trkpt lat="42.413375000" lon="-2.607986000">
        <ele>581.90</ele>
        <time>2016-10-29T06:18:31Z</time>
      </trkpt>
      <trkpt lat="42.413360000" lon="-2.608022000">
        <ele>582.00</ele>
        <time>2016-10-29T06:18:32Z</time>
      </trkpt>
      <trkpt lat="42.413348000" lon="-2.608061000">
        <ele>582.10</ele>
        <time>2016-10-29T06:18:33Z</time>
      </trkpt>
      <trkpt lat="42.413335000" lon="-2.608098000">
        <ele>582.20</ele>
        <time>2016-10-29T06:18:34Z</time>
      </trkpt>
      <trkpt lat="42.413320000" lon="-2.608138000">
        <ele>582.40</ele>
        <time>2016-10-29T06:18:35Z</time>
      </trkpt>
      <trkpt lat="42.413305000" lon="-2.608178000">
        <ele>582.60</ele>
        <time>2016-10-29T06:18:36Z</time>
      </trkpt>
      <trkpt lat="42.413288000" lon="-2.608219000">
        <ele>582.70</ele>
        <time>2016-10-29T06:18:37Z</time>
      </trkpt>
      <trkpt lat="42.413276000" lon="-2.608263000">
        <ele>582.80</ele>
        <time>2016-10-29T06:18:38Z</time>
      </trkpt>
      <trkpt lat="42.413264000" lon="-2.608305000">
        <ele>582.80</ele>
        <time>2016-10-29T06:18:39Z</time>
      </trkpt>
      <trkpt lat="42.413249000" lon="-2.608344000">
        <ele>582.90</ele>
        <time>2016-10-29T06:18:40Z</time>
      </trkpt>
      <trkpt lat="42.413233000" lon="-2.608383000">
        <ele>582.90</ele>
        <time>2016-10-29T06:18:41Z</time>
      </trkpt>
      <trkpt lat="42.413220000" lon="-2.608426000">
        <ele>583.00</ele>
        <time>2016-10-29T06:18:42Z</time>
      </trkpt>
      <trkpt lat="42.413206000" lon="-2.608468000">
        <ele>583.00</ele>
        <time>2016-10-29T06:18:43Z</time>
      </trkpt>
      <trkpt lat="42.413191000" lon="-2.608512000">
        <ele>583.00</ele>
        <time>2016-10-29T06:18:44Z</time>
      </trkpt>
      <trkpt lat="42.413176000" lon="-2.608556000">
        <ele>583.00</ele>
        <time>2016-10-29T06:18:45Z</time>
      </trkpt>
      <trkpt lat="42.413161000" lon="-2.608597000">
        <ele>583.00</ele>
        <time>2016-10-29T06:18:46Z</time>
      </trkpt>
      <trkpt lat="42.413147000" lon="-2.608636000">
        <ele>583.00</ele>
        <time>2016-10-29T06:18:47Z</time>
      </trkpt>
      <trkpt lat="42.413133000" lon="-2.608679000">
        <ele>583.00</ele>
        <time>2016-10-29T06:18:48Z</time>
      </trkpt>
      <trkpt lat="42.413118000" lon="-2.608720000">
        <ele>583.20</ele>
        <time>2016-10-29T06:18:49Z</time>
      </trkpt>
      <trkpt lat="42.413105000" lon="-2.608761000">
        <ele>583.30</ele>
        <time>2016-10-29T06:18:50Z</time>
      </trkpt>
      <trkpt lat="42.413092000" lon="-2.608803000">
        <ele>583.40</ele>
        <time>2016-10-29T06:18:51Z</time>
      </trkpt>
      <trkpt lat="42.413077000" lon="-2.608843000">
        <ele>583.60</ele>
        <time>2016-10-29T06:18:52Z</time>
      </trkpt>
      <trkpt lat="42.413065000" lon="-2.608883000">
        <ele>583.60</ele>
        <time>2016-10-29T06:18:53Z</time>
      </trkpt>
      <trkpt lat="42.413051000" lon="-2.608925000">
        <ele>583.60</ele>
        <time>2016-10-29T06:18:54Z</time>
      </trkpt>
      <trkpt lat="42.413042000" lon="-2.608966000">
        <ele>583.70</ele>
        <time>2016-10-29T06:18:55Z</time>
      </trkpt>
      <trkpt lat="42.413030000" lon="-2.609005000">
        <ele>583.70</ele>
        <time>2016-10-29T06:18:56Z</time>
      </trkpt>
      <trkpt lat="42.413020000" lon="-2.609047000">
        <ele>583.80</ele>
        <time>2016-10-29T06:18:57Z</time>
      </trkpt>
      <trkpt lat="42.413008000" lon="-2.609089000">
        <ele>583.90</ele>
        <time>2016-10-29T06:18:58Z</time>
      </trkpt>
      <trkpt lat="42.412994000" lon="-2.609130000">
        <ele>584.00</ele>
        <time>2016-10-29T06:18:59Z</time>
      </trkpt>
      <trkpt lat="42.412968000" lon="-2.609207000">
        <ele>584.10</ele>
        <time>2016-10-29T06:19:01Z</time>
      </trkpt>
      <trkpt lat="42.412958000" lon="-2.609251000">
        <ele>584.10</ele>
        <time>2016-10-29T06:19:02Z</time>
      </trkpt>
      <trkpt lat="42.412951000" lon="-2.609294000">
        <ele>584.20</ele>
        <time>2016-10-29T06:19:03Z</time>
      </trkpt>
      <trkpt lat="42.412942000" lon="-2.609335000">
        <ele>584.20</ele>
        <time>2016-10-29T06:19:04Z</time>
      </trkpt>
      <trkpt lat="42.412929000" lon="-2.609373000">
        <ele>584.30</ele>
        <time>2016-10-29T06:19:05Z</time>
      </trkpt>
      <trkpt lat="42.412918000" lon="-2.609418000">
        <ele>584.40</ele>
        <time>2016-10-29T06:19:06Z</time>
      </trkpt>
      <trkpt lat="42.412907000" lon="-2.609457000">
        <ele>584.50</ele>
        <time>2016-10-29T06:19:07Z</time>
      </trkpt>
      <trkpt lat="42.412897000" lon="-2.609497000">
        <ele>584.60</ele>
        <time>2016-10-29T06:19:08Z</time>
      </trkpt>
      <trkpt lat="42.412884000" lon="-2.609537000">
        <ele>585.00</ele>
        <time>2016-10-29T06:19:09Z</time>
      </trkpt>
      <trkpt lat="42.412872000" lon="-2.609579000">
        <ele>585.30</ele>
        <time>2016-10-29T06:19:10Z</time>
      </trkpt>
      <trkpt lat="42.412862000" lon="-2.609619000">
        <ele>585.50</ele>
        <time>2016-10-29T06:19:11Z</time>
      </trkpt>
      <trkpt lat="42.412850000" lon="-2.609660000">
        <ele>585.70</ele>
        <time>2016-10-29T06:19:12Z</time>
      </trkpt>
      <trkpt lat="42.412839000" lon="-2.609701000">
        <ele>585.70</ele>
        <time>2016-10-29T06:19:13Z</time>
      </trkpt>
      <trkpt lat="42.412828000" lon="-2.609743000">
        <ele>585.80</ele>
        <time>2016-10-29T06:19:14Z</time>
      </trkpt>
      <trkpt lat="42.412818000" lon="-2.609784000">
        <ele>585.80</ele>
        <time>2016-10-29T06:19:15Z</time>
      </trkpt>
      <trkpt lat="42.412806000" lon="-2.609821000">
        <ele>585.80</ele>
        <time>2016-10-29T06:19:16Z</time>
      </trkpt>
      <trkpt lat="42.412797000" lon="-2.609857000">
        <ele>585.90</ele>
        <time>2016-10-29T06:19:17Z</time>
      </trkpt>
      <trkpt lat="42.412790000" lon="-2.609895000">
        <ele>586.00</ele>
        <time>2016-10-29T06:19:18Z</time>
      </trkpt>
      <trkpt lat="42.412782000" lon="-2.609935000">
        <ele>586.30</ele>
        <time>2016-10-29T06:19:19Z</time>
      </trkpt>
      <trkpt lat="42.412769000" lon="-2.609976000">
        <ele>586.50</ele>
        <time>2016-10-29T06:19:20Z</time>
      </trkpt>
      <trkpt lat="42.412765000" lon="-2.610012000">
        <ele>586.60</ele>
        <time>2016-10-29T06:19:21Z</time>
      </trkpt>
      <trkpt lat="42.412756000" lon="-2.610046000">
        <ele>586.70</ele>
        <time>2016-10-29T06:19:22Z</time>
      </trkpt>
      <trkpt lat="42.412743000" lon="-2.610085000">
        <ele>586.80</ele>
        <time>2016-10-29T06:19:23Z</time>
      </trkpt>
      <trkpt lat="42.412737000" lon="-2.610120000">
        <ele>586.80</ele>
        <time>2016-10-29T06:19:24Z</time>
      </trkpt>
      <trkpt lat="42.412728000" lon="-2.610153000">
        <ele>587.00</ele>
        <time>2016-10-29T06:19:25Z</time>
      </trkpt>
      <trkpt lat="42.412721000" lon="-2.610189000">
        <ele>587.10</ele>
        <time>2016-10-29T06:19:26Z</time>
      </trkpt>
      <trkpt lat="42.412713000" lon="-2.610220000">
        <ele>587.30</ele>
        <time>2016-10-29T06:19:27Z</time>
      </trkpt>
      <trkpt lat="42.412702000" lon="-2.610256000">
        <ele>587.40</ele>
        <time>2016-10-29T06:19:28Z</time>
      </trkpt>
      <trkpt lat="42.412689000" lon="-2.610289000">
        <ele>587.60</ele>
        <time>2016-10-29T06:19:29Z</time>
      </trkpt>
      <trkpt lat="42.412684000" lon="-2.610324000">
        <ele>587.70</ele>
        <time>2016-10-29T06:19:30Z</time>
      </trkpt>
      <trkpt lat="42.412676000" lon="-2.610360000">
        <ele>587.80</ele>
        <time>2016-10-29T06:19:31Z</time>
      </trkpt>
      <trkpt lat="42.412668000" lon="-2.610396000">
        <ele>587.90</ele>
        <time>2016-10-29T06:19:32Z</time>
      </trkpt>
      <trkpt lat="42.412660000" lon="-2.610431000">
        <ele>588.20</ele>
        <time>2016-10-29T06:19:33Z</time>
      </trkpt>
      <trkpt lat="42.412651000" lon="-2.610467000">
        <ele>588.40</ele>
        <time>2016-10-29T06:19:34Z</time>
      </trkpt>
      <trkpt lat="42.412646000" lon="-2.610499000">
        <ele>588.60</ele>
        <time>2016-10-29T06:19:35Z</time>
      </trkpt>
      <trkpt lat="42.412643000" lon="-2.610535000">
        <ele>588.70</ele>
        <time>2016-10-29T06:19:36Z</time>
      </trkpt>
      <trkpt lat="42.412635000" lon="-2.610570000">
        <ele>588.90</ele>
        <time>2016-10-29T06:19:37Z</time>
      </trkpt>
      <trkpt lat="42.412629000" lon="-2.610605000">
        <ele>589.00</ele>
        <time>2016-10-29T06:19:38Z</time>
      </trkpt>
      <trkpt lat="42.412619000" lon="-2.610641000">
        <ele>589.10</ele>
        <time>2016-10-29T06:19:39Z</time>
      </trkpt>
      <trkpt lat="42.412609000" lon="-2.610678000">
        <ele>589.20</ele>
        <time>2016-10-29T06:19:40Z</time>
      </trkpt>
      <trkpt lat="42.412597000" lon="-2.610717000">
        <ele>589.00</ele>
        <time>2016-10-29T06:19:41Z</time>
      </trkpt>
      <trkpt lat="42.412586000" lon="-2.610758000">
        <ele>588.90</ele>
        <time>2016-10-29T06:19:42Z</time>
      </trkpt>
      <trkpt lat="42.412578000" lon="-2.610800000">
        <ele>588.80</ele>
        <time>2016-10-29T06:19:43Z</time>
      </trkpt>
      <trkpt lat="42.412569000" lon="-2.610845000">
        <ele>588.70</ele>
        <time>2016-10-29T06:19:44Z</time>
      </trkpt>
      <trkpt lat="42.412562000" lon="-2.610892000">
        <ele>588.80</ele>
        <time>2016-10-29T06:19:45Z</time>
      </trkpt>
      <trkpt lat="42.412552000" lon="-2.610935000">
        <ele>588.90</ele>
        <time>2016-10-29T06:19:46Z</time>
      </trkpt>
      <trkpt lat="42.412546000" lon="-2.610979000">
        <ele>589.00</ele>
        <time>2016-10-29T06:19:47Z</time>
      </trkpt>
      <trkpt lat="42.412543000" lon="-2.611022000">
        <ele>589.10</ele>
        <time>2016-10-29T06:19:48Z</time>
      </trkpt>
      <trkpt lat="42.412539000" lon="-2.611065000">
        <ele>589.30</ele>
        <time>2016-10-29T06:19:49Z</time>
      </trkpt>
      <trkpt lat="42.412530000" lon="-2.611108000">
        <ele>589.50</ele>
        <time>2016-10-29T06:19:50Z</time>
      </trkpt>
      <trkpt lat="42.412522000" lon="-2.611149000">
        <ele>589.60</ele>
        <time>2016-10-29T06:19:51Z</time>
      </trkpt>
      <trkpt lat="42.412514000" lon="-2.611189000">
        <ele>589.70</ele>
        <time>2016-10-29T06:19:52Z</time>
      </trkpt>
      <trkpt lat="42.412505000" lon="-2.611231000">
        <ele>590.00</ele>
        <time>2016-10-29T06:19:53Z</time>
      </trkpt>
      <trkpt lat="42.412496000" lon="-2.611272000">
        <ele>590.20</ele>
        <time>2016-10-29T06:19:54Z</time>
      </trkpt>
      <trkpt lat="42.412487000" lon="-2.611313000">
        <ele>590.30</ele>
        <time>2016-10-29T06:19:55Z</time>
      </trkpt>
      <trkpt lat="42.412479000" lon="-2.611354000">
        <ele>590.40</ele>
        <time>2016-10-29T06:19:56Z</time>
      </trkpt>
      <trkpt lat="42.412470000" lon="-2.611392000">
        <ele>590.50</ele>
        <time>2016-10-29T06:19:57Z</time>
      </trkpt>
      <trkpt lat="42.412467000" lon="-2.611431000">
        <ele>590.60</ele>
        <time>2016-10-29T06:19:58Z</time>
      </trkpt>
      <trkpt lat="42.412465000" lon="-2.611471000">
        <ele>590.50</ele>
        <time>2016-10-29T06:19:59Z</time>
      </trkpt>
      <trkpt lat="42.412466000" lon="-2.611508000">
        <ele>590.40</ele>
        <time>2016-10-29T06:20:00Z</time>
      </trkpt>
      <trkpt lat="42.412455000" lon="-2.611577000">
        <ele>590.60</ele>
        <time>2016-10-29T06:20:02Z</time>
      </trkpt>
      <trkpt lat="42.412448000" lon="-2.611610000">
        <ele>590.60</ele>
        <time>2016-10-29T06:20:03Z</time>
      </trkpt>
      <trkpt lat="42.412440000" lon="-2.611641000">
        <ele>590.60</ele>
        <time>2016-10-29T06:20:04Z</time>
      </trkpt>
      <trkpt lat="42.412435000" lon="-2.611670000">
        <ele>590.70</ele>
        <time>2016-10-29T06:20:05Z</time>
      </trkpt>
      <trkpt lat="42.412437000" lon="-2.611698000">
        <ele>590.80</ele>
        <time>2016-10-29T06:20:06Z</time>
      </trkpt>
      <trkpt lat="42.412436000" lon="-2.611729000">
        <ele>590.90</ele>
        <time>2016-10-29T06:20:07Z</time>
      </trkpt>
      <trkpt lat="42.412428000" lon="-2.611758000">
        <ele>590.90</ele>
        <time>2016-10-29T06:20:08Z</time>
      </trkpt>
      <trkpt lat="42.412419000" lon="-2.611786000">
        <ele>590.90</ele>
        <time>2016-10-29T06:20:09Z</time>
      </trkpt>
      <trkpt lat="42.412411000" lon="-2.611816000">
        <ele>590.90</ele>
        <time>2016-10-29T06:20:10Z</time>
      </trkpt>
      <trkpt lat="42.412407000" lon="-2.611846000">
        <ele>591.00</ele>
        <time>2016-10-29T06:20:11Z</time>
      </trkpt>
      <trkpt lat="42.412403000" lon="-2.611877000">
        <ele>591.10</ele>
        <time>2016-10-29T06:20:12Z</time>
      </trkpt>
      <trkpt lat="42.412400000" lon="-2.611907000">
        <ele>591.10</ele>
        <time>2016-10-29T06:20:13Z</time>
      </trkpt>
      <trkpt lat="42.412394000" lon="-2.611936000">
        <ele>591.20</ele>
        <time>2016-10-29T06:20:14Z</time>
      </trkpt>
      <trkpt lat="42.412387000" lon="-2.611962000">
        <ele>591.20</ele>
        <time>2016-10-29T06:20:15Z</time>
      </trkpt>
      <trkpt lat="42.412379000" lon="-2.611988000">
        <ele>591.20</ele>
        <time>2016-10-29T06:20:16Z</time>
      </trkpt>
      <trkpt lat="42.412373000" lon="-2.612018000">
        <ele>591.30</ele>
        <time>2016-10-29T06:20:17Z</time>
      </trkpt>
      <trkpt lat="42.412371000" lon="-2.612048000">
        <ele>591.40</ele>
        <time>2016-10-29T06:20:18Z</time>
      </trkpt>
      <trkpt lat="42.412368000" lon="-2.612075000">
        <ele>591.50</ele>
        <time>2016-10-29T06:20:19Z</time>
      </trkpt>
      <trkpt lat="42.412364000" lon="-2.612099000">
        <ele>591.60</ele>
        <time>2016-10-29T06:20:20Z</time>
      </trkpt>
      <trkpt lat="42.412360000" lon="-2.612123000">
        <ele>591.70</ele>
        <time>2016-10-29T06:20:21Z</time>
      </trkpt>
      <trkpt lat="42.412362000" lon="-2.612153000">
        <ele>591.70</ele>
        <time>2016-10-29T06:20:22Z</time>
      </trkpt>
      <trkpt lat="42.412355000" lon="-2.612181000">
        <ele>591.80</ele>
        <time>2016-10-29T06:20:23Z</time>
      </trkpt>
      <trkpt lat="42.412347000" lon="-2.612211000">
        <ele>591.80</ele>
        <time>2016-10-29T06:20:24Z</time>
      </trkpt>
      <trkpt lat="42.412342000" lon="-2.612240000">
        <ele>591.90</ele>
        <time>2016-10-29T06:20:25Z</time>
      </trkpt>
      <trkpt lat="42.412336000" lon="-2.612269000">
        <ele>591.90</ele>
        <time>2016-10-29T06:20:26Z</time>
      </trkpt>
      <trkpt lat="42.412327000" lon="-2.612296000">
        <ele>592.00</ele>
        <time>2016-10-29T06:20:27Z</time>
      </trkpt>
      <trkpt lat="42.412324000" lon="-2.612326000">
        <ele>591.90</ele>
        <time>2016-10-29T06:20:28Z</time>
      </trkpt>
      <trkpt lat="42.412323000" lon="-2.612359000">
        <ele>591.90</ele>
        <time>2016-10-29T06:20:29Z</time>
      </trkpt>
      <trkpt lat="42.412322000" lon="-2.612393000">
        <ele>591.80</ele>
        <time>2016-10-29T06:20:30Z</time>
      </trkpt>
      <trkpt lat="42.412320000" lon="-2.612424000">
        <ele>591.80</ele>
        <time>2016-10-29T06:20:31Z</time>
      </trkpt>
      <trkpt lat="42.412317000" lon="-2.612456000">
        <ele>591.80</ele>
        <time>2016-10-29T06:20:32Z</time>
      </trkpt>
      <trkpt lat="42.412314000" lon="-2.612487000">
        <ele>591.90</ele>
        <time>2016-10-29T06:20:33Z</time>
      </trkpt>
      <trkpt lat="42.412310000" lon="-2.612520000">
        <ele>591.90</ele>
        <time>2016-10-29T06:20:34Z</time>
      </trkpt>
      <trkpt lat="42.412307000" lon="-2.612552000">
        <ele>591.90</ele>
        <time>2016-10-29T06:20:35Z</time>
      </trkpt>
      <trkpt lat="42.412301000" lon="-2.612583000">
        <ele>592.30</ele>
        <time>2016-10-29T06:20:36Z</time>
      </trkpt>
      <trkpt lat="42.412296000" lon="-2.612616000">
        <ele>592.60</ele>
        <time>2016-10-29T06:20:37Z</time>
      </trkpt>
      <trkpt lat="42.412291000" lon="-2.612648000">
        <ele>592.80</ele>
        <time>2016-10-29T06:20:38Z</time>
      </trkpt>
      <trkpt lat="42.412286000" lon="-2.612678000">
        <ele>593.00</ele>
        <time>2016-10-29T06:20:39Z</time>
      </trkpt>
      <trkpt lat="42.412282000" lon="-2.612708000">
        <ele>593.00</ele>
        <time>2016-10-29T06:20:40Z</time>
      </trkpt>
      <trkpt lat="42.412276000" lon="-2.612736000">
        <ele>593.10</ele>
        <time>2016-10-29T06:20:41Z</time>
      </trkpt>
      <trkpt lat="42.412272000" lon="-2.612765000">
        <ele>593.10</ele>
        <time>2016-10-29T06:20:42Z</time>
      </trkpt>
      <trkpt lat="42.412270000" lon="-2.612793000">
        <ele>593.10</ele>
        <time>2016-10-29T06:20:43Z</time>
      </trkpt>
      <trkpt lat="42.412266000" lon="-2.612828000">
        <ele>593.10</ele>
        <time>2016-10-29T06:20:44Z</time>
      </trkpt>
      <trkpt lat="42.412264000" lon="-2.612864000">
        <ele>593.20</ele>
        <time>2016-10-29T06:20:45Z</time>
      </trkpt>
      <trkpt lat="42.412263000" lon="-2.612894000">
        <ele>593.20</ele>
        <time>2016-10-29T06:20:46Z</time>
      </trkpt>
      <trkpt lat="42.412260000" lon="-2.612921000">
        <ele>593.20</ele>
        <time>2016-10-29T06:20:47Z</time>
      </trkpt>
      <trkpt lat="42.412259000" lon="-2.612956000">
        <ele>593.20</ele>
        <time>2016-10-29T06:20:48Z</time>
      </trkpt>
      <trkpt lat="42.412253000" lon="-2.612986000">
        <ele>593.10</ele>
        <time>2016-10-29T06:20:49Z</time>
      </trkpt>
      <trkpt lat="42.412250000" lon="-2.613019000">
        <ele>593.10</ele>
        <time>2016-10-29T06:20:50Z</time>
      </trkpt>
      <trkpt lat="42.412250000" lon="-2.613054000">
        <ele>593.10</ele>
        <time>2016-10-29T06:20:51Z</time>
      </trkpt>
      <trkpt lat="42.412250000" lon="-2.613086000">
        <ele>593.30</ele>
        <time>2016-10-29T06:20:52Z</time>
      </trkpt>
      <trkpt lat="42.412248000" lon="-2.613113000">
        <ele>593.50</ele>
        <time>2016-10-29T06:20:53Z</time>
      </trkpt>
      <trkpt lat="42.412244000" lon="-2.613141000">
        <ele>593.60</ele>
        <time>2016-10-29T06:20:54Z</time>
      </trkpt>
      <trkpt lat="42.412242000" lon="-2.613170000">
        <ele>593.70</ele>
        <time>2016-10-29T06:20:55Z</time>
      </trkpt>
      <trkpt lat="42.412239000" lon="-2.613199000">
        <ele>593.80</ele>
        <time>2016-10-29T06:20:56Z</time>
      </trkpt>
      <trkpt lat="42.412237000" lon="-2.613226000">
        <ele>593.90</ele>
        <time>2016-10-29T06:20:57Z</time>
      </trkpt>
      <trkpt lat="42.412236000" lon="-2.613258000">
        <ele>594.00</ele>
        <time>2016-10-29T06:20:58Z</time>
      </trkpt>
      <trkpt lat="42.412237000" lon="-2.613289000">
        <ele>594.00</ele>
        <time>2016-10-29T06:20:59Z</time>
      </trkpt>
      <trkpt lat="42.412236000" lon="-2.613318000">
        <ele>594.10</ele>
        <time>2016-10-29T06:21:00Z</time>
      </trkpt>
      <trkpt lat="42.412231000" lon="-2.613346000">
        <ele>594.20</ele>
        <time>2016-10-29T06:21:01Z</time>
      </trkpt>
      <trkpt lat="42.412232000" lon="-2.613376000">
        <ele>594.30</ele>
        <time>2016-10-29T06:21:02Z</time>
      </trkpt>
      <trkpt lat="42.412226000" lon="-2.613430000">
        <ele>594.30</ele>
        <time>2016-10-29T06:21:04Z</time>
      </trkpt>
      <trkpt lat="42.412227000" lon="-2.613454000">
        <ele>594.30</ele>
        <time>2016-10-29T06:21:05Z</time>
      </trkpt>
      <trkpt lat="42.412226000" lon="-2.613484000">
        <ele>594.40</ele>
        <time>2016-10-29T06:21:06Z</time>
      </trkpt>
      <trkpt lat="42.412222000" lon="-2.613509000">
        <ele>594.40</ele>
        <time>2016-10-29T06:21:07Z</time>
      </trkpt>
      <trkpt lat="42.412222000" lon="-2.613537000">
        <ele>594.40</ele>
        <time>2016-10-29T06:21:08Z</time>
      </trkpt>
      <trkpt lat="42.412223000" lon="-2.613563000">
        <ele>594.40</ele>
        <time>2016-10-29T06:21:09Z</time>
      </trkpt>
      <trkpt lat="42.412224000" lon="-2.613591000">
        <ele>594.40</ele>
        <time>2016-10-29T06:21:10Z</time>
      </trkpt>
      <trkpt lat="42.412222000" lon="-2.613615000">
        <ele>594.50</ele>
        <time>2016-10-29T06:21:11Z</time>
      </trkpt>
      <trkpt lat="42.412221000" lon="-2.613644000">
        <ele>594.40</ele>
        <time>2016-10-29T06:21:12Z</time>
      </trkpt>
      <trkpt lat="42.412223000" lon="-2.613673000">
        <ele>594.40</ele>
        <time>2016-10-29T06:21:13Z</time>
      </trkpt>
      <trkpt lat="42.412220000" lon="-2.613699000">
        <ele>594.50</ele>
        <time>2016-10-29T06:21:14Z</time>
      </trkpt>
      <trkpt lat="42.412222000" lon="-2.613724000">
        <ele>594.50</ele>
        <time>2016-10-29T06:21:15Z</time>
      </trkpt>
      <trkpt lat="42.412221000" lon="-2.613754000">
        <ele>594.50</ele>
        <time>2016-10-29T06:21:16Z</time>
      </trkpt>
      <trkpt lat="42.412220000" lon="-2.613784000">
        <ele>594.60</ele>
        <time>2016-10-29T06:21:17Z</time>
      </trkpt>
      <trkpt lat="42.412220000" lon="-2.613811000">
        <ele>594.70</ele>
        <time>2016-10-29T06:21:18Z</time>
      </trkpt>
      <trkpt lat="42.412216000" lon="-2.613838000">
        <ele>594.80</ele>
        <time>2016-10-29T06:21:19Z</time>
      </trkpt>
      <trkpt lat="42.412218000" lon="-2.613871000">
        <ele>594.90</ele>
        <time>2016-10-29T06:21:20Z</time>
      </trkpt>
      <trkpt lat="42.412219000" lon="-2.613910000">
        <ele>594.90</ele>
        <time>2016-10-29T06:21:21Z</time>
      </trkpt>
      <trkpt lat="42.412218000" lon="-2.613940000">
        <ele>594.90</ele>
        <time>2016-10-29T06:21:22Z</time>
      </trkpt>
      <trkpt lat="42.412219000" lon="-2.613964000">
        <ele>594.90</ele>
        <time>2016-10-29T06:21:23Z</time>
      </trkpt>
      <trkpt lat="42.412223000" lon="-2.613984000">
        <ele>595.00</ele>
        <time>2016-10-29T06:21:24Z</time>
      </trkpt>
      <trkpt lat="42.412226000" lon="-2.614007000">
        <ele>595.00</ele>
        <time>2016-10-29T06:21:25Z</time>
      </trkpt>
      <trkpt lat="42.412227000" lon="-2.614033000">
        <ele>595.00</ele>
        <time>2016-10-29T06:21:26Z</time>
      </trkpt>
      <trkpt lat="42.412224000" lon="-2.614063000">
        <ele>595.10</ele>
        <time>2016-10-29T06:21:27Z</time>
      </trkpt>
      <trkpt lat="42.412212000" lon="-2.614088000">
        <ele>595.20</ele>
        <time>2016-10-29T06:21:28Z</time>
      </trkpt>
      <trkpt lat="42.412191000" lon="-2.614112000">
        <ele>595.30</ele>
        <time>2016-10-29T06:21:29Z</time>
      </trkpt>
      <trkpt lat="42.412161000" lon="-2.614125000">
        <ele>595.40</ele>
        <time>2016-10-29T06:21:30Z</time>
      </trkpt>
      <trkpt lat="42.412135000" lon="-2.614129000">
        <ele>595.50</ele>
        <time>2016-10-29T06:21:31Z</time>
      </trkpt>
      <trkpt lat="42.412114000" lon="-2.614132000">
        <ele>595.70</ele>
        <time>2016-10-29T06:21:32Z</time>
      </trkpt>
      <trkpt lat="42.412091000" lon="-2.614134000">
        <ele>595.80</ele>
        <time>2016-10-29T06:21:33Z</time>
      </trkpt>
      <trkpt lat="42.412070000" lon="-2.614127000">
        <ele>595.90</ele>
        <time>2016-10-29T06:21:34Z</time>
      </trkpt>
      <trkpt lat="42.412051000" lon="-2.614126000">
        <ele>596.00</ele>
        <time>2016-10-29T06:21:35Z</time>
      </trkpt>
      <trkpt lat="42.412030000" lon="-2.614124000">
        <ele>596.10</ele>
        <time>2016-10-29T06:21:36Z</time>
      </trkpt>
      <trkpt lat="42.412011000" lon="-2.614127000">
        <ele>596.20</ele>
        <time>2016-10-29T06:21:37Z</time>
      </trkpt>
      <trkpt lat="42.411988000" lon="-2.614126000">
        <ele>596.20</ele>
        <time>2016-10-29T06:21:38Z</time>
      </trkpt>
      <trkpt lat="42.411964000" lon="-2.614125000">
        <ele>596.30</ele>
        <time>2016-10-29T06:21:39Z</time>
      </trkpt>
      <trkpt lat="42.411936000" lon="-2.614127000">
        <ele>596.30</ele>
        <time>2016-10-29T06:21:40Z</time>
      </trkpt>
      <trkpt lat="42.411908000" lon="-2.614129000">
        <ele>596.30</ele>
        <time>2016-10-29T06:21:41Z</time>
      </trkpt>
      <trkpt lat="42.411879000" lon="-2.614133000">
        <ele>596.20</ele>
        <time>2016-10-29T06:21:42Z</time>
      </trkpt>
      <trkpt lat="42.411847000" lon="-2.614134000">
        <ele>596.20</ele>
        <time>2016-10-29T06:21:43Z</time>
      </trkpt>
      <trkpt lat="42.411817000" lon="-2.614139000">
        <ele>596.30</ele>
        <time>2016-10-29T06:21:44Z</time>
      </trkpt>
      <trkpt lat="42.411791000" lon="-2.614142000">
        <ele>596.30</ele>
        <time>2016-10-29T06:21:45Z</time>
      </trkpt>
      <trkpt lat="42.411762000" lon="-2.614146000">
        <ele>596.40</ele>
        <time>2016-10-29T06:21:46Z</time>
      </trkpt>
      <trkpt lat="42.411732000" lon="-2.614146000">
        <ele>596.50</ele>
        <time>2016-10-29T06:21:47Z</time>
      </trkpt>
      <trkpt lat="42.411703000" lon="-2.614150000">
        <ele>596.70</ele>
        <time>2016-10-29T06:21:48Z</time>
      </trkpt>
      <trkpt lat="42.411671000" lon="-2.614153000">
        <ele>596.80</ele>
        <time>2016-10-29T06:21:49Z</time>
      </trkpt>
      <trkpt lat="42.411642000" lon="-2.614164000">
        <ele>597.10</ele>
        <time>2016-10-29T06:21:50Z</time>
      </trkpt>
      <trkpt lat="42.411614000" lon="-2.614177000">
        <ele>597.30</ele>
        <time>2016-10-29T06:21:51Z</time>
      </trkpt>
      <trkpt lat="42.411586000" lon="-2.614192000">
        <ele>597.40</ele>
        <time>2016-10-29T06:21:52Z</time>
      </trkpt>
      <trkpt lat="42.411558000" lon="-2.614207000">
        <ele>597.50</ele>
        <time>2016-10-29T06:21:53Z</time>
      </trkpt>
      <trkpt lat="42.411534000" lon="-2.614227000">
        <ele>597.80</ele>
        <time>2016-10-29T06:21:54Z</time>
      </trkpt>
      <trkpt lat="42.411511000" lon="-2.614255000">
        <ele>597.90</ele>
        <time>2016-10-29T06:21:55Z</time>
      </trkpt>
      <trkpt lat="42.411491000" lon="-2.614287000">
        <ele>597.90</ele>
        <time>2016-10-29T06:21:56Z</time>
      </trkpt>
      <trkpt lat="42.411472000" lon="-2.614318000">
        <ele>597.90</ele>
        <time>2016-10-29T06:21:57Z</time>
      </trkpt>
      <trkpt lat="42.411458000" lon="-2.614354000">
        <ele>598.00</ele>
        <time>2016-10-29T06:21:58Z</time>
      </trkpt>
      <trkpt lat="42.411445000" lon="-2.614395000">
        <ele>598.10</ele>
        <time>2016-10-29T06:21:59Z</time>
      </trkpt>
      <trkpt lat="42.411432000" lon="-2.614436000">
        <ele>598.20</ele>
        <time>2016-10-29T06:22:00Z</time>
      </trkpt>
      <trkpt lat="42.411423000" lon="-2.614472000">
        <ele>598.30</ele>
        <time>2016-10-29T06:22:01Z</time>
      </trkpt>
      <trkpt lat="42.411412000" lon="-2.614506000">
        <ele>598.40</ele>
        <time>2016-10-29T06:22:02Z</time>
      </trkpt>
      <trkpt lat="42.411402000" lon="-2.614542000">
        <ele>598.40</ele>
        <time>2016-10-29T06:22:03Z</time>
      </trkpt>
      <trkpt lat="42.411385000" lon="-2.614614000">
        <ele>598.80</ele>
        <time>2016-10-29T06:22:05Z</time>
      </trkpt>
      <trkpt lat="42.411381000" lon="-2.614647000">
        <ele>599.00</ele>
        <time>2016-10-29T06:22:06Z</time>
      </trkpt>
      <trkpt lat="42.411375000" lon="-2.614683000">
        <ele>599.20</ele>
        <time>2016-10-29T06:22:07Z</time>
      </trkpt>
      <trkpt lat="42.411367000" lon="-2.614717000">
        <ele>599.40</ele>
        <time>2016-10-29T06:22:08Z</time>
      </trkpt>
      <trkpt lat="42.411361000" lon="-2.614754000">
        <ele>599.60</ele>
        <time>2016-10-29T06:22:09Z</time>
      </trkpt>
      <trkpt lat="42.411356000" lon="-2.614788000">
        <ele>599.80</ele>
        <time>2016-10-29T06:22:10Z</time>
      </trkpt>
      <trkpt lat="42.411349000" lon="-2.614818000">
        <ele>599.90</ele>
        <time>2016-10-29T06:22:11Z</time>
      </trkpt>
      <trkpt lat="42.411338000" lon="-2.614851000">
        <ele>600.00</ele>
        <time>2016-10-29T06:22:12Z</time>
      </trkpt>
      <trkpt lat="42.411330000" lon="-2.614887000">
        <ele>600.10</ele>
        <time>2016-10-29T06:22:13Z</time>
      </trkpt>
      <trkpt lat="42.411319000" lon="-2.614921000">
        <ele>600.20</ele>
        <time>2016-10-29T06:22:14Z</time>
      </trkpt>
      <trkpt lat="42.411308000" lon="-2.614953000">
        <ele>600.30</ele>
        <time>2016-10-29T06:22:15Z</time>
      </trkpt>
      <trkpt lat="42.411291000" lon="-2.614986000">
        <ele>600.30</ele>
        <time>2016-10-29T06:22:16Z</time>
      </trkpt>
      <trkpt lat="42.411275000" lon="-2.615017000">
        <ele>600.40</ele>
        <time>2016-10-29T06:22:17Z</time>
      </trkpt>
      <trkpt lat="42.411268000" lon="-2.615046000">
        <ele>600.40</ele>
        <time>2016-10-29T06:22:18Z</time>
      </trkpt>
      <trkpt lat="42.411262000" lon="-2.615072000">
        <ele>600.50</ele>
        <time>2016-10-29T06:22:19Z</time>
      </trkpt>
      <trkpt lat="42.411257000" lon="-2.615099000">
        <ele>600.50</ele>
        <time>2016-10-29T06:22:20Z</time>
      </trkpt>
      <trkpt lat="42.411250000" lon="-2.615124000">
        <ele>600.60</ele>
        <time>2016-10-29T06:22:21Z</time>
      </trkpt>
      <trkpt lat="42.411242000" lon="-2.615151000">
        <ele>600.60</ele>
        <time>2016-10-29T06:22:22Z</time>
      </trkpt>
      <trkpt lat="42.411230000" lon="-2.615180000">
        <ele>600.60</ele>
        <time>2016-10-29T06:22:23Z</time>
      </trkpt>
      <trkpt lat="42.411218000" lon="-2.615208000">
        <ele>600.70</ele>
        <time>2016-10-29T06:22:24Z</time>
      </trkpt>
      <trkpt lat="42.411205000" lon="-2.615233000">
        <ele>600.70</ele>
        <time>2016-10-29T06:22:25Z</time>
      </trkpt>
      <trkpt lat="42.411195000" lon="-2.615262000">
        <ele>600.80</ele>
        <time>2016-10-29T06:22:26Z</time>
      </trkpt>
      <trkpt lat="42.411182000" lon="-2.615294000">
        <ele>600.90</ele>
        <time>2016-10-29T06:22:27Z</time>
      </trkpt>
      <trkpt lat="42.411170000" lon="-2.615325000">
        <ele>601.20</ele>
        <time>2016-10-29T06:22:28Z</time>
      </trkpt>
      <trkpt lat="42.411154000" lon="-2.615362000">
        <ele>601.40</ele>
        <time>2016-10-29T06:22:29Z</time>
      </trkpt>
      <trkpt lat="42.411134000" lon="-2.615406000">
        <ele>601.80</ele>
        <time>2016-10-29T06:22:30Z</time>
      </trkpt>
      <trkpt lat="42.411112000" lon="-2.615446000">
        <ele>602.00</ele>
        <time>2016-10-29T06:22:31Z</time>
      </trkpt>
      <trkpt lat="42.411096000" lon="-2.615484000">
        <ele>602.30</ele>
        <time>2016-10-29T06:22:32Z</time>
      </trkpt>
      <trkpt lat="42.411083000" lon="-2.615520000">
        <ele>602.60</ele>
        <time>2016-10-29T06:22:33Z</time>
      </trkpt>
      <trkpt lat="42.411070000" lon="-2.615555000">
        <ele>602.70</ele>
        <time>2016-10-29T06:22:34Z</time>
      </trkpt>
      <trkpt lat="42.411059000" lon="-2.615594000">
        <ele>602.90</ele>
        <time>2016-10-29T06:22:35Z</time>
      </trkpt>
      <trkpt lat="42.411047000" lon="-2.615633000">
        <ele>603.00</ele>
        <time>2016-10-29T06:22:36Z</time>
      </trkpt>
      <trkpt lat="42.411033000" lon="-2.615674000">
        <ele>603.10</ele>
        <time>2016-10-29T06:22:37Z</time>
      </trkpt>
      <trkpt lat="42.411017000" lon="-2.615714000">
        <ele>603.10</ele>
        <time>2016-10-29T06:22:38Z</time>
      </trkpt>
      <trkpt lat="42.411005000" lon="-2.615751000">
        <ele>603.20</ele>
        <time>2016-10-29T06:22:39Z</time>
      </trkpt>
      <trkpt lat="42.410989000" lon="-2.615784000">
        <ele>603.30</ele>
        <time>2016-10-29T06:22:40Z</time>
      </trkpt>
      <trkpt lat="42.410976000" lon="-2.615822000">
        <ele>603.40</ele>
        <time>2016-10-29T06:22:41Z</time>
      </trkpt>
      <trkpt lat="42.410963000" lon="-2.615862000">
        <ele>603.50</ele>
        <time>2016-10-29T06:22:42Z</time>
      </trkpt>
      <trkpt lat="42.410944000" lon="-2.615899000">
        <ele>603.60</ele>
        <time>2016-10-29T06:22:43Z</time>
      </trkpt>
      <trkpt lat="42.410926000" lon="-2.615935000">
        <ele>603.60</ele>
        <time>2016-10-29T06:22:44Z</time>
      </trkpt>
      <trkpt lat="42.410909000" lon="-2.615969000">
        <ele>603.70</ele>
        <time>2016-10-29T06:22:45Z</time>
      </trkpt>
      <trkpt lat="42.410893000" lon="-2.616003000">
        <ele>603.70</ele>
        <time>2016-10-29T06:22:46Z</time>
      </trkpt>
      <trkpt lat="42.410877000" lon="-2.616033000">
        <ele>603.80</ele>
        <time>2016-10-29T06:22:47Z</time>
      </trkpt>
      <trkpt lat="42.410862000" lon="-2.616064000">
        <ele>603.80</ele>
        <time>2016-10-29T06:22:48Z</time>
      </trkpt>
      <trkpt lat="42.410844000" lon="-2.616102000">
        <ele>603.80</ele>
        <time>2016-10-29T06:22:49Z</time>
      </trkpt>
      <trkpt lat="42.410821000" lon="-2.616133000">
        <ele>604.10</ele>
        <time>2016-10-29T06:22:50Z</time>
      </trkpt>
      <trkpt lat="42.410801000" lon="-2.616166000">
        <ele>604.30</ele>
        <time>2016-10-29T06:22:51Z</time>
      </trkpt>
      <trkpt lat="42.410780000" lon="-2.616203000">
        <ele>604.40</ele>
        <time>2016-10-29T06:22:52Z</time>
      </trkpt>
      <trkpt lat="42.410759000" lon="-2.616237000">
        <ele>604.50</ele>
        <time>2016-10-29T06:22:53Z</time>
      </trkpt>
      <trkpt lat="42.410738000" lon="-2.616275000">
        <ele>604.50</ele>
        <time>2016-10-29T06:22:54Z</time>
      </trkpt>
      <trkpt lat="42.410718000" lon="-2.616310000">
        <ele>604.50</ele>
        <time>2016-10-29T06:22:55Z</time>
      </trkpt>
      <trkpt lat="42.410696000" lon="-2.616346000">
        <ele>604.40</ele>
        <time>2016-10-29T06:22:56Z</time>
      </trkpt>
      <trkpt lat="42.410673000" lon="-2.616383000">
        <ele>604.40</ele>
        <time>2016-10-29T06:22:57Z</time>
      </trkpt>
      <trkpt lat="42.410651000" lon="-2.616420000">
        <ele>604.50</ele>
        <time>2016-10-29T06:22:58Z</time>
      </trkpt>
      <trkpt lat="42.410629000" lon="-2.616459000">
        <ele>604.50</ele>
        <time>2016-10-29T06:22:59Z</time>
      </trkpt>
      <trkpt lat="42.410607000" lon="-2.616498000">
        <ele>604.50</ele>
        <time>2016-10-29T06:23:00Z</time>
      </trkpt>
      <trkpt lat="42.410585000" lon="-2.616536000">
        <ele>604.60</ele>
        <time>2016-10-29T06:23:01Z</time>
      </trkpt>
      <trkpt lat="42.410562000" lon="-2.616574000">
        <ele>604.50</ele>
        <time>2016-10-29T06:23:02Z</time>
      </trkpt>
      <trkpt lat="42.410539000" lon="-2.616612000">
        <ele>604.50</ele>
        <time>2016-10-29T06:23:03Z</time>
      </trkpt>
      <trkpt lat="42.410518000" lon="-2.616653000">
        <ele>604.50</ele>
        <time>2016-10-29T06:23:04Z</time>
      </trkpt>
      <trkpt lat="42.410470000" lon="-2.616737000">
        <ele>604.40</ele>
        <time>2016-10-29T06:23:06Z</time>
      </trkpt>
      <trkpt lat="42.410445000" lon="-2.616780000">
        <ele>604.40</ele>
        <time>2016-10-29T06:23:07Z</time>
      </trkpt>
      <trkpt lat="42.410421000" lon="-2.616820000">
        <ele>604.40</ele>
        <time>2016-10-29T06:23:08Z</time>
      </trkpt>
      <trkpt lat="42.410396000" lon="-2.616863000">
        <ele>604.40</ele>
        <time>2016-10-29T06:23:09Z</time>
      </trkpt>
      <trkpt lat="42.410373000" lon="-2.616906000">
        <ele>604.60</ele>
        <time>2016-10-29T06:23:10Z</time>
      </trkpt>
      <trkpt lat="42.410350000" lon="-2.616947000">
        <ele>604.70</ele>
        <time>2016-10-29T06:23:11Z</time>
      </trkpt>
      <trkpt lat="42.410326000" lon="-2.616987000">
        <ele>604.80</ele>
        <time>2016-10-29T06:23:12Z</time>
      </trkpt>
      <trkpt lat="42.410301000" lon="-2.617024000">
        <ele>604.90</ele>
        <time>2016-10-29T06:23:13Z</time>
      </trkpt>
      <trkpt lat="42.410278000" lon="-2.617066000">
        <ele>605.00</ele>
        <time>2016-10-29T06:23:14Z</time>
      </trkpt>
      <trkpt lat="42.410253000" lon="-2.617104000">
        <ele>605.00</ele>
        <time>2016-10-29T06:23:15Z</time>
      </trkpt>
      <trkpt lat="42.410229000" lon="-2.617143000">
        <ele>605.10</ele>
        <time>2016-10-29T06:23:16Z</time>
      </trkpt>
      <trkpt lat="42.410208000" lon="-2.617185000">
        <ele>605.10</ele>
        <time>2016-10-29T06:23:17Z</time>
      </trkpt>
      <trkpt lat="42.410187000" lon="-2.617228000">
        <ele>605.10</ele>
        <time>2016-10-29T06:23:18Z</time>
      </trkpt>
      <trkpt lat="42.410165000" lon="-2.617271000">
        <ele>605.20</ele>
        <time>2016-10-29T06:23:19Z</time>
      </trkpt>
      <trkpt lat="42.410146000" lon="-2.617315000">
        <ele>605.20</ele>
        <time>2016-10-29T06:23:20Z</time>
      </trkpt>
      <trkpt lat="42.410130000" lon="-2.617361000">
        <ele>605.20</ele>
        <time>2016-10-29T06:23:21Z</time>
      </trkpt>
      <trkpt lat="42.410112000" lon="-2.617408000">
        <ele>605.30</ele>
        <time>2016-10-29T06:23:22Z</time>
      </trkpt>
      <trkpt lat="42.410098000" lon="-2.617458000">
        <ele>605.40</ele>
        <time>2016-10-29T06:23:23Z</time>
      </trkpt>
      <trkpt lat="42.410087000" lon="-2.617507000">
        <ele>605.50</ele>
        <time>2016-10-29T06:23:24Z</time>
      </trkpt>
      <trkpt lat="42.410076000" lon="-2.617557000">
        <ele>605.60</ele>
        <time>2016-10-29T06:23:25Z</time>
      </trkpt>
      <trkpt lat="42.410069000" lon="-2.617607000">
        <ele>605.60</ele>
        <time>2016-10-29T06:23:26Z</time>
      </trkpt>
      <trkpt lat="42.410064000" lon="-2.617657000">
        <ele>605.70</ele>
        <time>2016-10-29T06:23:27Z</time>
      </trkpt>
      <trkpt lat="42.410059000" lon="-2.617707000">
        <ele>605.80</ele>
        <time>2016-10-29T06:23:28Z</time>
      </trkpt>
      <trkpt lat="42.410051000" lon="-2.617756000">
        <ele>605.80</ele>
        <time>2016-10-29T06:23:29Z</time>
      </trkpt>
      <trkpt lat="42.410046000" lon="-2.617807000">
        <ele>605.90</ele>
        <time>2016-10-29T06:23:30Z</time>
      </trkpt>
      <trkpt lat="42.410040000" lon="-2.617858000">
        <ele>605.90</ele>
        <time>2016-10-29T06:23:31Z</time>
      </trkpt>
      <trkpt lat="42.410035000" lon="-2.617910000">
        <ele>605.90</ele>
        <time>2016-10-29T06:23:32Z</time>
      </trkpt>
      <trkpt lat="42.410029000" lon="-2.617959000">
        <ele>606.00</ele>
        <time>2016-10-29T06:23:33Z</time>
      </trkpt>
      <trkpt lat="42.410023000" lon="-2.618011000">
        <ele>606.00</ele>
        <time>2016-10-29T06:23:34Z</time>
      </trkpt>
      <trkpt lat="42.410018000" lon="-2.618059000">
        <ele>606.00</ele>
        <time>2016-10-29T06:23:35Z</time>
      </trkpt>
      <trkpt lat="42.410010000" lon="-2.618106000">
        <ele>606.10</ele>
        <time>2016-10-29T06:23:36Z</time>
      </trkpt>
      <trkpt lat="42.410002000" lon="-2.618151000">
        <ele>606.20</ele>
        <time>2016-10-29T06:23:37Z</time>
      </trkpt>
      <trkpt lat="42.409995000" lon="-2.618199000">
        <ele>606.30</ele>
        <time>2016-10-29T06:23:38Z</time>
      </trkpt>
      <trkpt lat="42.409986000" lon="-2.618247000">
        <ele>606.40</ele>
        <time>2016-10-29T06:23:39Z</time>
      </trkpt>
      <trkpt lat="42.409977000" lon="-2.618294000">
        <ele>606.40</ele>
        <time>2016-10-29T06:23:40Z</time>
      </trkpt>
      <trkpt lat="42.409968000" lon="-2.618338000">
        <ele>606.40</ele>
        <time>2016-10-29T06:23:41Z</time>
      </trkpt>
      <trkpt lat="42.409957000" lon="-2.618384000">
        <ele>606.50</ele>
        <time>2016-10-29T06:23:42Z</time>
      </trkpt>
      <trkpt lat="42.409948000" lon="-2.618426000">
        <ele>606.50</ele>
        <time>2016-10-29T06:23:43Z</time>
      </trkpt>
      <trkpt lat="42.409935000" lon="-2.618468000">
        <ele>606.60</ele>
        <time>2016-10-29T06:23:44Z</time>
      </trkpt>
      <trkpt lat="42.409922000" lon="-2.618510000">
        <ele>606.60</ele>
        <time>2016-10-29T06:23:45Z</time>
      </trkpt>
      <trkpt lat="42.409906000" lon="-2.618549000">
        <ele>606.80</ele>
        <time>2016-10-29T06:23:46Z</time>
      </trkpt>
      <trkpt lat="42.409890000" lon="-2.618588000">
        <ele>606.90</ele>
        <time>2016-10-29T06:23:47Z</time>
      </trkpt>
      <trkpt lat="42.409872000" lon="-2.618624000">
        <ele>607.00</ele>
        <time>2016-10-29T06:23:48Z</time>
      </trkpt>
      <trkpt lat="42.409852000" lon="-2.618662000">
        <ele>607.10</ele>
        <time>2016-10-29T06:23:49Z</time>
      </trkpt>
      <trkpt lat="42.409832000" lon="-2.618697000">
        <ele>607.30</ele>
        <time>2016-10-29T06:23:50Z</time>
      </trkpt>
      <trkpt lat="42.409809000" lon="-2.618727000">
        <ele>607.40</ele>
        <time>2016-10-29T06:23:51Z</time>
      </trkpt>
      <trkpt lat="42.409783000" lon="-2.618756000">
        <ele>607.50</ele>
        <time>2016-10-29T06:23:52Z</time>
      </trkpt>
      <trkpt lat="42.409759000" lon="-2.618784000">
        <ele>607.60</ele>
        <time>2016-10-29T06:23:53Z</time>
      </trkpt>
      <trkpt lat="42.409732000" lon="-2.618811000">
        <ele>607.80</ele>
        <time>2016-10-29T06:23:54Z</time>
      </trkpt>
      <trkpt lat="42.409704000" lon="-2.618835000">
        <ele>607.90</ele>
        <time>2016-10-29T06:23:55Z</time>
      </trkpt>
      <trkpt lat="42.409676000" lon="-2.618858000">
        <ele>608.20</ele>
        <time>2016-10-29T06:23:56Z</time>
      </trkpt>
      <trkpt lat="42.409648000" lon="-2.618882000">
        <ele>608.40</ele>
        <time>2016-10-29T06:23:57Z</time>
      </trkpt>
      <trkpt lat="42.409620000" lon="-2.618906000">
        <ele>608.60</ele>
        <time>2016-10-29T06:23:58Z</time>
      </trkpt>
      <trkpt lat="42.409592000" lon="-2.618929000">
        <ele>608.70</ele>
        <time>2016-10-29T06:23:59Z</time>
      </trkpt>
      <trkpt lat="42.409564000" lon="-2.618953000">
        <ele>608.90</ele>
        <time>2016-10-29T06:24:00Z</time>
      </trkpt>
      <trkpt lat="42.409536000" lon="-2.618978000">
        <ele>609.10</ele>
        <time>2016-10-29T06:24:01Z</time>
      </trkpt>
      <trkpt lat="42.409507000" lon="-2.619007000">
        <ele>609.20</ele>
        <time>2016-10-29T06:24:02Z</time>
      </trkpt>
      <trkpt lat="42.409483000" lon="-2.619039000">
        <ele>609.30</ele>
        <time>2016-10-29T06:24:03Z</time>
      </trkpt>
      <trkpt lat="42.409459000" lon="-2.619069000">
        <ele>609.60</ele>
        <time>2016-10-29T06:24:04Z</time>
      </trkpt>
      <trkpt lat="42.409436000" lon="-2.619101000">
        <ele>609.80</ele>
        <time>2016-10-29T06:24:05Z</time>
      </trkpt>
      <trkpt lat="42.409396000" lon="-2.619171000">
        <ele>610.00</ele>
        <time>2016-10-29T06:24:07Z</time>
      </trkpt>
      <trkpt lat="42.409377000" lon="-2.619209000">
        <ele>610.10</ele>
        <time>2016-10-29T06:24:08Z</time>
      </trkpt>
      <trkpt lat="42.409358000" lon="-2.619247000">
        <ele>610.20</ele>
        <time>2016-10-29T06:24:09Z</time>
      </trkpt>
      <trkpt lat="42.409339000" lon="-2.619281000">
        <ele>610.30</ele>
        <time>2016-10-29T06:24:10Z</time>
      </trkpt>
      <trkpt lat="42.409323000" lon="-2.619317000">
        <ele>610.40</ele>
        <time>2016-10-29T06:24:11Z</time>
      </trkpt>
      <trkpt lat="42.409309000" lon="-2.619355000">
        <ele>610.60</ele>
        <time>2016-10-29T06:24:12Z</time>
      </trkpt>
      <trkpt lat="42.409294000" lon="-2.619394000">
        <ele>610.80</ele>
        <time>2016-10-29T06:24:13Z</time>
      </trkpt>
      <trkpt lat="42.409281000" lon="-2.619433000">
        <ele>611.00</ele>
        <time>2016-10-29T06:24:14Z</time>
      </trkpt>
      <trkpt lat="42.409268000" lon="-2.619475000">
        <ele>611.10</ele>
        <time>2016-10-29T06:24:15Z</time>
      </trkpt>
      <trkpt lat="42.409253000" lon="-2.619518000">
        <ele>611.20</ele>
        <time>2016-10-29T06:24:16Z</time>
      </trkpt>
      <trkpt lat="42.409240000" lon="-2.619561000">
        <ele>611.20</ele>
        <time>2016-10-29T06:24:17Z</time>
      </trkpt>
      <trkpt lat="42.409225000" lon="-2.619602000">
        <ele>611.30</ele>
        <time>2016-10-29T06:24:18Z</time>
      </trkpt>
      <trkpt lat="42.409210000" lon="-2.619642000">
        <ele>611.30</ele>
        <time>2016-10-29T06:24:19Z</time>
      </trkpt>
      <trkpt lat="42.409195000" lon="-2.619682000">
        <ele>611.40</ele>
        <time>2016-10-29T06:24:20Z</time>
      </trkpt>
      <trkpt lat="42.409180000" lon="-2.619721000">
        <ele>611.50</ele>
        <time>2016-10-29T06:24:21Z</time>
      </trkpt>
      <trkpt lat="42.409162000" lon="-2.619759000">
        <ele>611.60</ele>
        <time>2016-10-29T06:24:22Z</time>
      </trkpt>
      <trkpt lat="42.409145000" lon="-2.619797000">
        <ele>611.80</ele>
        <time>2016-10-29T06:24:23Z</time>
      </trkpt>
      <trkpt lat="42.409127000" lon="-2.619836000">
        <ele>612.00</ele>
        <time>2016-10-29T06:24:24Z</time>
      </trkpt>
      <trkpt lat="42.409107000" lon="-2.619873000">
        <ele>612.10</ele>
        <time>2016-10-29T06:24:25Z</time>
      </trkpt>
      <trkpt lat="42.409086000" lon="-2.619912000">
        <ele>612.20</ele>
        <time>2016-10-29T06:24:26Z</time>
      </trkpt>
      <trkpt lat="42.409065000" lon="-2.619954000">
        <ele>612.20</ele>
        <time>2016-10-29T06:24:27Z</time>
      </trkpt>
      <trkpt lat="42.409042000" lon="-2.619994000">
        <ele>612.30</ele>
        <time>2016-10-29T06:24:28Z</time>
      </trkpt>
      <trkpt lat="42.409019000" lon="-2.620031000">
        <ele>612.40</ele>
        <time>2016-10-29T06:24:29Z</time>
      </trkpt>
      <trkpt lat="42.408996000" lon="-2.620069000">
        <ele>612.40</ele>
        <time>2016-10-29T06:24:30Z</time>
      </trkpt>
      <trkpt lat="42.408973000" lon="-2.620103000">
        <ele>612.40</ele>
        <time>2016-10-29T06:24:31Z</time>
      </trkpt>
      <trkpt lat="42.408948000" lon="-2.620137000">
        <ele>612.70</ele>
        <time>2016-10-29T06:24:32Z</time>
      </trkpt>
      <trkpt lat="42.408924000" lon="-2.620173000">
        <ele>612.80</ele>
        <time>2016-10-29T06:24:33Z</time>
      </trkpt>
      <trkpt lat="42.408901000" lon="-2.620205000">
        <ele>613.00</ele>
        <time>2016-10-29T06:24:34Z</time>
      </trkpt>
      <trkpt lat="42.408874000" lon="-2.620239000">
        <ele>613.20</ele>
        <time>2016-10-29T06:24:35Z</time>
      </trkpt>
      <trkpt lat="42.408846000" lon="-2.620275000">
        <ele>613.20</ele>
        <time>2016-10-29T06:24:36Z</time>
      </trkpt>
      <trkpt lat="42.408819000" lon="-2.620312000">
        <ele>613.20</ele>
        <time>2016-10-29T06:24:37Z</time>
      </trkpt>
      <trkpt lat="42.408794000" lon="-2.620351000">
        <ele>613.30</ele>
        <time>2016-10-29T06:24:38Z</time>
      </trkpt>
      <trkpt lat="42.408772000" lon="-2.620394000">
        <ele>613.40</ele>
        <time>2016-10-29T06:24:39Z</time>
      </trkpt>
      <trkpt lat="42.408754000" lon="-2.620439000">
        <ele>613.40</ele>
        <time>2016-10-29T06:24:40Z</time>
      </trkpt>
      <trkpt lat="42.408739000" lon="-2.620487000">
        <ele>613.40</ele>
        <time>2016-10-29T06:24:41Z</time>
      </trkpt>
      <trkpt lat="42.408728000" lon="-2.620537000">
        <ele>613.50</ele>
        <time>2016-10-29T06:24:42Z</time>
      </trkpt>
      <trkpt lat="42.408717000" lon="-2.620584000">
        <ele>613.60</ele>
        <time>2016-10-29T06:24:43Z</time>
      </trkpt>
      <trkpt lat="42.408711000" lon="-2.620633000">
        <ele>613.70</ele>
        <time>2016-10-29T06:24:44Z</time>
      </trkpt>
      <trkpt lat="42.408706000" lon="-2.620679000">
        <ele>613.70</ele>
        <time>2016-10-29T06:24:45Z</time>
      </trkpt>
      <trkpt lat="42.408703000" lon="-2.620722000">
        <ele>613.70</ele>
        <time>2016-10-29T06:24:46Z</time>
      </trkpt>
      <trkpt lat="42.408698000" lon="-2.620765000">
        <ele>613.80</ele>
        <time>2016-10-29T06:24:47Z</time>
      </trkpt>
      <trkpt lat="42.408691000" lon="-2.620808000">
        <ele>613.80</ele>
        <time>2016-10-29T06:24:48Z</time>
      </trkpt>
      <trkpt lat="42.408686000" lon="-2.620852000">
        <ele>613.90</ele>
        <time>2016-10-29T06:24:49Z</time>
      </trkpt>
      <trkpt lat="42.408682000" lon="-2.620895000">
        <ele>614.10</ele>
        <time>2016-10-29T06:24:50Z</time>
      </trkpt>
      <trkpt lat="42.408675000" lon="-2.620940000">
        <ele>614.30</ele>
        <time>2016-10-29T06:24:51Z</time>
      </trkpt>
      <trkpt lat="42.408669000" lon="-2.620986000">
        <ele>614.40</ele>
        <time>2016-10-29T06:24:52Z</time>
      </trkpt>
      <trkpt lat="42.408660000" lon="-2.621030000">
        <ele>614.50</ele>
        <time>2016-10-29T06:24:53Z</time>
      </trkpt>
      <trkpt lat="42.408653000" lon="-2.621075000">
        <ele>614.60</ele>
        <time>2016-10-29T06:24:54Z</time>
      </trkpt>
      <trkpt lat="42.408646000" lon="-2.621119000">
        <ele>614.70</ele>
        <time>2016-10-29T06:24:55Z</time>
      </trkpt>
      <trkpt lat="42.408635000" lon="-2.621162000">
        <ele>614.70</ele>
        <time>2016-10-29T06:24:56Z</time>
      </trkpt>
      <trkpt lat="42.408623000" lon="-2.621206000">
        <ele>614.80</ele>
        <time>2016-10-29T06:24:57Z</time>
      </trkpt>
      <trkpt lat="42.408608000" lon="-2.621245000">
        <ele>614.90</ele>
        <time>2016-10-29T06:24:58Z</time>
      </trkpt>
      <trkpt lat="42.408592000" lon="-2.621282000">
        <ele>615.00</ele>
        <time>2016-10-29T06:24:59Z</time>
      </trkpt>
      <trkpt lat="42.408575000" lon="-2.621319000">
        <ele>615.10</ele>
        <time>2016-10-29T06:25:00Z</time>
      </trkpt>
      <trkpt lat="42.408555000" lon="-2.621355000">
        <ele>615.10</ele>
        <time>2016-10-29T06:25:01Z</time>
      </trkpt>
      <trkpt lat="42.408534000" lon="-2.621384000">
        <ele>615.30</ele>
        <time>2016-10-29T06:25:02Z</time>
      </trkpt>
      <trkpt lat="42.408511000" lon="-2.621419000">
        <ele>615.30</ele>
        <time>2016-10-29T06:25:03Z</time>
      </trkpt>
      <trkpt lat="42.408485000" lon="-2.621450000">
        <ele>615.40</ele>
        <time>2016-10-29T06:25:04Z</time>
      </trkpt>
      <trkpt lat="42.408457000" lon="-2.621484000">
        <ele>615.50</ele>
        <time>2016-10-29T06:25:05Z</time>
      </trkpt>
      <trkpt lat="42.408428000" lon="-2.621512000">
        <ele>615.60</ele>
        <time>2016-10-29T06:25:06Z</time>
      </trkpt>
      <trkpt lat="42.408369000" lon="-2.621575000">
        <ele>615.80</ele>
        <time>2016-10-29T06:25:08Z</time>
      </trkpt>
      <trkpt lat="42.408340000" lon="-2.621603000">
        <ele>616.00</ele>
        <time>2016-10-29T06:25:09Z</time>
      </trkpt>
      <trkpt lat="42.408309000" lon="-2.621632000">
        <ele>616.10</ele>
        <time>2016-10-29T06:25:10Z</time>
      </trkpt>
      <trkpt lat="42.408278000" lon="-2.621667000">
        <ele>616.20</ele>
        <time>2016-10-29T06:25:11Z</time>
      </trkpt>
      <trkpt lat="42.408248000" lon="-2.621700000">
        <ele>616.20</ele>
        <time>2016-10-29T06:25:12Z</time>
      </trkpt>
      <trkpt lat="42.408219000" lon="-2.621734000">
        <ele>616.30</ele>
        <time>2016-10-29T06:25:13Z</time>
      </trkpt>
      <trkpt lat="42.408192000" lon="-2.621770000">
        <ele>616.30</ele>
        <time>2016-10-29T06:25:14Z</time>
      </trkpt>
      <trkpt lat="42.408168000" lon="-2.621807000">
        <ele>616.40</ele>
        <time>2016-10-29T06:25:15Z</time>
      </trkpt>
      <trkpt lat="42.408145000" lon="-2.621846000">
        <ele>616.40</ele>
        <time>2016-10-29T06:25:16Z</time>
      </trkpt>
      <trkpt lat="42.408121000" lon="-2.621885000">
        <ele>616.50</ele>
        <time>2016-10-29T06:25:17Z</time>
      </trkpt>
      <trkpt lat="42.408103000" lon="-2.621932000">
        <ele>616.60</ele>
        <time>2016-10-29T06:25:18Z</time>
      </trkpt>
      <trkpt lat="42.408091000" lon="-2.621980000">
        <ele>616.70</ele>
        <time>2016-10-29T06:25:19Z</time>
      </trkpt>
      <trkpt lat="42.408073000" lon="-2.622027000">
        <ele>616.80</ele>
        <time>2016-10-29T06:25:20Z</time>
      </trkpt>
      <trkpt lat="42.408056000" lon="-2.622077000">
        <ele>616.80</ele>
        <time>2016-10-29T06:25:21Z</time>
      </trkpt>
      <trkpt lat="42.408039000" lon="-2.622122000">
        <ele>616.90</ele>
        <time>2016-10-29T06:25:22Z</time>
      </trkpt>
      <trkpt lat="42.408019000" lon="-2.622168000">
        <ele>616.90</ele>
        <time>2016-10-29T06:25:23Z</time>
      </trkpt>
      <trkpt lat="42.407998000" lon="-2.622211000">
        <ele>616.80</ele>
        <time>2016-10-29T06:25:24Z</time>
      </trkpt>
      <trkpt lat="42.407975000" lon="-2.622249000">
        <ele>616.80</ele>
        <time>2016-10-29T06:25:25Z</time>
      </trkpt>
      <trkpt lat="42.407951000" lon="-2.622289000">
        <ele>616.80</ele>
        <time>2016-10-29T06:25:26Z</time>
      </trkpt>
      <trkpt lat="42.407928000" lon="-2.622327000">
        <ele>616.80</ele>
        <time>2016-10-29T06:25:27Z</time>
      </trkpt>
      <trkpt lat="42.407903000" lon="-2.622362000">
        <ele>616.80</ele>
        <time>2016-10-29T06:25:28Z</time>
      </trkpt>
      <trkpt lat="42.407880000" lon="-2.622399000">
        <ele>616.90</ele>
        <time>2016-10-29T06:25:29Z</time>
      </trkpt>
      <trkpt lat="42.407854000" lon="-2.622435000">
        <ele>617.00</ele>
        <time>2016-10-29T06:25:30Z</time>
      </trkpt>
      <trkpt lat="42.407826000" lon="-2.622469000">
        <ele>617.00</ele>
        <time>2016-10-29T06:25:31Z</time>
      </trkpt>
      <trkpt lat="42.407796000" lon="-2.622497000">
        <ele>617.10</ele>
        <time>2016-10-29T06:25:32Z</time>
      </trkpt>
      <trkpt lat="42.407767000" lon="-2.622526000">
        <ele>617.20</ele>
        <time>2016-10-29T06:25:33Z</time>
      </trkpt>
      <trkpt lat="42.407737000" lon="-2.622553000">
        <ele>617.30</ele>
        <time>2016-10-29T06:25:34Z</time>
      </trkpt>
      <trkpt lat="42.407707000" lon="-2.622578000">
        <ele>617.30</ele>
        <time>2016-10-29T06:25:35Z</time>
      </trkpt>
      <trkpt lat="42.407675000" lon="-2.622600000">
        <ele>617.30</ele>
        <time>2016-10-29T06:25:36Z</time>
      </trkpt>
      <trkpt lat="42.407642000" lon="-2.622618000">
        <ele>617.20</ele>
        <time>2016-10-29T06:25:37Z</time>
      </trkpt>
      <trkpt lat="42.407608000" lon="-2.622639000">
        <ele>617.10</ele>
        <time>2016-10-29T06:25:38Z</time>
      </trkpt>
      <trkpt lat="42.407574000" lon="-2.622657000">
        <ele>617.10</ele>
        <time>2016-10-29T06:25:39Z</time>
      </trkpt>
      <trkpt lat="42.407542000" lon="-2.622677000">
        <ele>617.30</ele>
        <time>2016-10-29T06:25:40Z</time>
      </trkpt>
      <trkpt lat="42.407509000" lon="-2.622695000">
        <ele>617.50</ele>
        <time>2016-10-29T06:25:41Z</time>
      </trkpt>
      <trkpt lat="42.407476000" lon="-2.622717000">
        <ele>617.70</ele>
        <time>2016-10-29T06:25:42Z</time>
      </trkpt>
      <trkpt lat="42.407446000" lon="-2.622740000">
        <ele>617.80</ele>
        <time>2016-10-29T06:25:43Z</time>
      </trkpt>
      <trkpt lat="42.407416000" lon="-2.622760000">
        <ele>617.90</ele>
        <time>2016-10-29T06:25:44Z</time>
      </trkpt>
      <trkpt lat="42.407383000" lon="-2.622780000">
        <ele>618.00</ele>
        <time>2016-10-29T06:25:45Z</time>
      </trkpt>
      <trkpt lat="42.407352000" lon="-2.622798000">
        <ele>618.30</ele>
        <time>2016-10-29T06:25:46Z</time>
      </trkpt>
      <trkpt lat="42.407323000" lon="-2.622821000">
        <ele>618.50</ele>
        <time>2016-10-29T06:25:47Z</time>
      </trkpt>
      <trkpt lat="42.407294000" lon="-2.622838000">
        <ele>618.60</ele>
        <time>2016-10-29T06:25:48Z</time>
      </trkpt>
      <trkpt lat="42.407263000" lon="-2.622855000">
        <ele>618.70</ele>
        <time>2016-10-29T06:25:49Z</time>
      </trkpt>
      <trkpt lat="42.407235000" lon="-2.622873000">
        <ele>619.00</ele>
        <time>2016-10-29T06:25:50Z</time>
      </trkpt>
      <trkpt lat="42.407208000" lon="-2.622896000">
        <ele>619.20</ele>
        <time>2016-10-29T06:25:51Z</time>
      </trkpt>
      <trkpt lat="42.407182000" lon="-2.622918000">
        <ele>619.40</ele>
        <time>2016-10-29T06:25:52Z</time>
      </trkpt>
      <trkpt lat="42.407157000" lon="-2.622941000">
        <ele>619.50</ele>
        <time>2016-10-29T06:25:53Z</time>
      </trkpt>
      <trkpt lat="42.407129000" lon="-2.622958000">
        <ele>619.60</ele>
        <time>2016-10-29T06:25:54Z</time>
      </trkpt>
      <trkpt lat="42.407103000" lon="-2.622983000">
        <ele>619.80</ele>
        <time>2016-10-29T06:25:55Z</time>
      </trkpt>
      <trkpt lat="42.407075000" lon="-2.623005000">
        <ele>619.90</ele>
        <time>2016-10-29T06:25:56Z</time>
      </trkpt>
      <trkpt lat="42.407048000" lon="-2.623030000">
        <ele>620.00</ele>
        <time>2016-10-29T06:25:57Z</time>
      </trkpt>
      <trkpt lat="42.407023000" lon="-2.623056000">
        <ele>620.10</ele>
        <time>2016-10-29T06:25:58Z</time>
      </trkpt>
      <trkpt lat="42.406997000" lon="-2.623080000">
        <ele>620.20</ele>
        <time>2016-10-29T06:25:59Z</time>
      </trkpt>
      <trkpt lat="42.406973000" lon="-2.623104000">
        <ele>620.50</ele>
        <time>2016-10-29T06:26:00Z</time>
      </trkpt>
      <trkpt lat="42.406947000" lon="-2.623126000">
        <ele>620.80</ele>
        <time>2016-10-29T06:26:01Z</time>
      </trkpt>
      <trkpt lat="42.406921000" lon="-2.623149000">
        <ele>621.00</ele>
        <time>2016-10-29T06:26:02Z</time>
      </trkpt>
      <trkpt lat="42.406893000" lon="-2.623172000">
        <ele>621.20</ele>
        <time>2016-10-29T06:26:03Z</time>
      </trkpt>
      <trkpt lat="42.406865000" lon="-2.623193000">
        <ele>621.40</ele>
        <time>2016-10-29T06:26:04Z</time>
      </trkpt>
      <trkpt lat="42.406835000" lon="-2.623211000">
        <ele>621.50</ele>
        <time>2016-10-29T06:26:05Z</time>
      </trkpt>
      <trkpt lat="42.406806000" lon="-2.623229000">
        <ele>621.60</ele>
        <time>2016-10-29T06:26:06Z</time>
      </trkpt>
      <trkpt lat="42.406777000" lon="-2.623246000">
        <ele>621.70</ele>
        <time>2016-10-29T06:26:07Z</time>
      </trkpt>
      <trkpt lat="42.406714000" lon="-2.623284000">
        <ele>621.80</ele>
        <time>2016-10-29T06:26:09Z</time>
      </trkpt>
      <trkpt lat="42.406683000" lon="-2.623302000">
        <ele>622.00</ele>
        <time>2016-10-29T06:26:10Z</time>
      </trkpt>
      <trkpt lat="42.406653000" lon="-2.623320000">
        <ele>622.10</ele>
        <time>2016-10-29T06:26:11Z</time>
      </trkpt>
      <trkpt lat="42.406624000" lon="-2.623340000">
        <ele>622.20</ele>
        <time>2016-10-29T06:26:12Z</time>
      </trkpt>
      <trkpt lat="42.406596000" lon="-2.623361000">
        <ele>622.40</ele>
        <time>2016-10-29T06:26:13Z</time>
      </trkpt>
      <trkpt lat="42.406568000" lon="-2.623382000">
        <ele>622.70</ele>
        <time>2016-10-29T06:26:14Z</time>
      </trkpt>
      <trkpt lat="42.406540000" lon="-2.623400000">
        <ele>623.00</ele>
        <time>2016-10-29T06:26:15Z</time>
      </trkpt>
      <trkpt lat="42.406512000" lon="-2.623424000">
        <ele>623.20</ele>
        <time>2016-10-29T06:26:16Z</time>
      </trkpt>
      <trkpt lat="42.406483000" lon="-2.623448000">
        <ele>623.30</ele>
        <time>2016-10-29T06:26:17Z</time>
      </trkpt>
      <trkpt lat="42.406457000" lon="-2.623476000">
        <ele>623.40</ele>
        <time>2016-10-29T06:26:18Z</time>
      </trkpt>
      <trkpt lat="42.406431000" lon="-2.623504000">
        <ele>623.50</ele>
        <time>2016-10-29T06:26:19Z</time>
      </trkpt>
      <trkpt lat="42.406406000" lon="-2.623535000">
        <ele>623.60</ele>
        <time>2016-10-29T06:26:20Z</time>
      </trkpt>
      <trkpt lat="42.406381000" lon="-2.623565000">
        <ele>623.70</ele>
        <time>2016-10-29T06:26:21Z</time>
      </trkpt>
      <trkpt lat="42.406356000" lon="-2.623599000">
        <ele>624.00</ele>
        <time>2016-10-29T06:26:22Z</time>
      </trkpt>
      <trkpt lat="42.406332000" lon="-2.623627000">
        <ele>624.20</ele>
        <time>2016-10-29T06:26:23Z</time>
      </trkpt>
      <trkpt lat="42.406309000" lon="-2.623655000">
        <ele>624.40</ele>
        <time>2016-10-29T06:26:24Z</time>
      </trkpt>
      <trkpt lat="42.406287000" lon="-2.623687000">
        <ele>624.60</ele>
        <time>2016-10-29T06:26:25Z</time>
      </trkpt>
      <trkpt lat="42.406264000" lon="-2.623713000">
        <ele>624.80</ele>
        <time>2016-10-29T06:26:26Z</time>
      </trkpt>
      <trkpt lat="42.406241000" lon="-2.623738000">
        <ele>624.90</ele>
        <time>2016-10-29T06:26:27Z</time>
      </trkpt>
      <trkpt lat="42.406220000" lon="-2.623761000">
        <ele>625.00</ele>
        <time>2016-10-29T06:26:28Z</time>
      </trkpt>
      <trkpt lat="42.406197000" lon="-2.623787000">
        <ele>625.00</ele>
        <time>2016-10-29T06:26:29Z</time>
      </trkpt>
      <trkpt lat="42.406173000" lon="-2.623815000">
        <ele>625.20</ele>
        <time>2016-10-29T06:26:30Z</time>
      </trkpt>
      <trkpt lat="42.406149000" lon="-2.623843000">
        <ele>625.40</ele>
        <time>2016-10-29T06:26:31Z</time>
      </trkpt>
      <trkpt lat="42.406126000" lon="-2.623871000">
        <ele>625.70</ele>
        <time>2016-10-29T06:26:32Z</time>
      </trkpt>
      <trkpt lat="42.406103000" lon="-2.623896000">
        <ele>625.90</ele>
        <time>2016-10-29T06:26:33Z</time>
      </trkpt>
      <trkpt lat="42.406080000" lon="-2.623921000">
        <ele>626.00</ele>
        <time>2016-10-29T06:26:34Z</time>
      </trkpt>
      <trkpt lat="42.406055000" lon="-2.623945000">
        <ele>626.20</ele>
        <time>2016-10-29T06:26:35Z</time>
      </trkpt>
      <trkpt lat="42.406030000" lon="-2.623971000">
        <ele>626.30</ele>
        <time>2016-10-29T06:26:36Z</time>
      </trkpt>
      <trkpt lat="42.406006000" lon="-2.623997000">
        <ele>626.30</ele>
        <time>2016-10-29T06:26:37Z</time>
      </trkpt>
      <trkpt lat="42.405981000" lon="-2.624017000">
        <ele>626.40</ele>
        <time>2016-10-29T06:26:38Z</time>
      </trkpt>
      <trkpt lat="42.405957000" lon="-2.624040000">
        <ele>626.40</ele>
        <time>2016-10-29T06:26:39Z</time>
      </trkpt>
      <trkpt lat="42.405934000" lon="-2.624064000">
        <ele>626.60</ele>
        <time>2016-10-29T06:26:40Z</time>
      </trkpt>
      <trkpt lat="42.405911000" lon="-2.624091000">
        <ele>626.80</ele>
        <time>2016-10-29T06:26:41Z</time>
      </trkpt>
      <trkpt lat="42.405888000" lon="-2.624121000">
        <ele>627.10</ele>
        <time>2016-10-29T06:26:42Z</time>
      </trkpt>
      <trkpt lat="42.405866000" lon="-2.624148000">
        <ele>627.30</ele>
        <time>2016-10-29T06:26:43Z</time>
      </trkpt>
      <trkpt lat="42.405842000" lon="-2.624174000">
        <ele>627.50</ele>
        <time>2016-10-29T06:26:44Z</time>
      </trkpt>
      <trkpt lat="42.405818000" lon="-2.624201000">
        <ele>627.70</ele>
        <time>2016-10-29T06:26:45Z</time>
      </trkpt>
      <trkpt lat="42.405797000" lon="-2.624231000">
        <ele>627.80</ele>
        <time>2016-10-29T06:26:46Z</time>
      </trkpt>
      <trkpt lat="42.405775000" lon="-2.624260000">
        <ele>628.00</ele>
        <time>2016-10-29T06:26:47Z</time>
      </trkpt>
      <trkpt lat="42.405751000" lon="-2.624293000">
        <ele>628.20</ele>
        <time>2016-10-29T06:26:48Z</time>
      </trkpt>
      <trkpt lat="42.405729000" lon="-2.624327000">
        <ele>628.40</ele>
        <time>2016-10-29T06:26:49Z</time>
      </trkpt>
      <trkpt lat="42.405709000" lon="-2.624362000">
        <ele>628.50</ele>
        <time>2016-10-29T06:26:50Z</time>
      </trkpt>
      <trkpt lat="42.405691000" lon="-2.624397000">
        <ele>628.60</ele>
        <time>2016-10-29T06:26:51Z</time>
      </trkpt>
      <trkpt lat="42.405675000" lon="-2.624430000">
        <ele>628.90</ele>
        <time>2016-10-29T06:26:52Z</time>
      </trkpt>
      <trkpt lat="42.405661000" lon="-2.624465000">
        <ele>629.10</ele>
        <time>2016-10-29T06:26:53Z</time>
      </trkpt>
      <trkpt lat="42.405644000" lon="-2.624500000">
        <ele>629.20</ele>
        <time>2016-10-29T06:26:54Z</time>
      </trkpt>
      <trkpt lat="42.405628000" lon="-2.624534000">
        <ele>629.30</ele>
        <time>2016-10-29T06:26:55Z</time>
      </trkpt>
      <trkpt lat="42.405611000" lon="-2.624567000">
        <ele>629.40</ele>
        <time>2016-10-29T06:26:56Z</time>
      </trkpt>
      <trkpt lat="42.405597000" lon="-2.624601000">
        <ele>629.50</ele>
        <time>2016-10-29T06:26:57Z</time>
      </trkpt>
      <trkpt lat="42.405581000" lon="-2.624634000">
        <ele>629.80</ele>
        <time>2016-10-29T06:26:58Z</time>
      </trkpt>
      <trkpt lat="42.405566000" lon="-2.624669000">
        <ele>630.10</ele>
        <time>2016-10-29T06:26:59Z</time>
      </trkpt>
      <trkpt lat="42.405550000" lon="-2.624709000">
        <ele>630.20</ele>
        <time>2016-10-29T06:27:00Z</time>
      </trkpt>
      <trkpt lat="42.405534000" lon="-2.624743000">
        <ele>630.40</ele>
        <time>2016-10-29T06:27:01Z</time>
      </trkpt>
      <trkpt lat="42.405518000" lon="-2.624776000">
        <ele>630.50</ele>
        <time>2016-10-29T06:27:02Z</time>
      </trkpt>
      <trkpt lat="42.405499000" lon="-2.624803000">
        <ele>630.60</ele>
        <time>2016-10-29T06:27:03Z</time>
      </trkpt>
      <trkpt lat="42.405481000" lon="-2.624829000">
        <ele>630.60</ele>
        <time>2016-10-29T06:27:04Z</time>
      </trkpt>
      <trkpt lat="42.405465000" lon="-2.624856000">
        <ele>630.70</ele>
        <time>2016-10-29T06:27:05Z</time>
      </trkpt>
      <trkpt lat="42.405450000" lon="-2.624881000">
        <ele>630.70</ele>
        <time>2016-10-29T06:27:06Z</time>
      </trkpt>
      <trkpt lat="42.405435000" lon="-2.624901000">
        <ele>630.70</ele>
        <time>2016-10-29T06:27:07Z</time>
      </trkpt>
      <trkpt lat="42.405419000" lon="-2.624912000">
        <ele>630.80</ele>
        <time>2016-10-29T06:27:08Z</time>
      </trkpt>
      <trkpt lat="42.405383000" lon="-2.624917000">
        <ele>630.90</ele>
        <time>2016-10-29T06:27:10Z</time>
      </trkpt>
      <trkpt lat="42.405357000" lon="-2.624904000">
        <ele>631.00</ele>
        <time>2016-10-29T06:27:11Z</time>
      </trkpt>
      <trkpt lat="42.405331000" lon="-2.624881000">
        <ele>631.00</ele>
        <time>2016-10-29T06:27:12Z</time>
      </trkpt>
      <trkpt lat="42.405306000" lon="-2.624854000">
        <ele>631.00</ele>
        <time>2016-10-29T06:27:13Z</time>
      </trkpt>
      <trkpt lat="42.405281000" lon="-2.624824000">
        <ele>631.20</ele>
        <time>2016-10-29T06:27:14Z</time>
      </trkpt>
      <trkpt lat="42.405256000" lon="-2.624793000">
        <ele>631.30</ele>
        <time>2016-10-29T06:27:15Z</time>
      </trkpt>
      <trkpt lat="42.405231000" lon="-2.624763000">
        <ele>631.40</ele>
        <time>2016-10-29T06:27:16Z</time>
      </trkpt>
      <trkpt lat="42.405205000" lon="-2.624735000">
        <ele>631.50</ele>
        <time>2016-10-29T06:27:17Z</time>
      </trkpt>
      <trkpt lat="42.405176000" lon="-2.624707000">
        <ele>631.50</ele>
        <time>2016-10-29T06:27:18Z</time>
      </trkpt>
      <trkpt lat="42.405147000" lon="-2.624679000">
        <ele>631.60</ele>
        <time>2016-10-29T06:27:19Z</time>
      </trkpt>
      <trkpt lat="42.405114000" lon="-2.624651000">
        <ele>631.50</ele>
        <time>2016-10-29T06:27:20Z</time>
      </trkpt>
      <trkpt lat="42.405081000" lon="-2.624625000">
        <ele>631.50</ele>
        <time>2016-10-29T06:27:21Z</time>
      </trkpt>
      <trkpt lat="42.405046000" lon="-2.624606000">
        <ele>631.50</ele>
        <time>2016-10-29T06:27:22Z</time>
      </trkpt>
      <trkpt lat="42.405008000" lon="-2.624612000">
        <ele>631.40</ele>
        <time>2016-10-29T06:27:23Z</time>
      </trkpt>
      <trkpt lat="42.404973000" lon="-2.624626000">
        <ele>631.40</ele>
        <time>2016-10-29T06:27:24Z</time>
      </trkpt>
      <trkpt lat="42.404942000" lon="-2.624648000">
        <ele>631.30</ele>
        <time>2016-10-29T06:27:25Z</time>
      </trkpt>
      <trkpt lat="42.404916000" lon="-2.624672000">
        <ele>631.30</ele>
        <time>2016-10-29T06:27:26Z</time>
      </trkpt>
      <trkpt lat="42.404892000" lon="-2.624693000">
        <ele>631.30</ele>
        <time>2016-10-29T06:27:27Z</time>
      </trkpt>
      <trkpt lat="42.404867000" lon="-2.624715000">
        <ele>631.40</ele>
        <time>2016-10-29T06:27:28Z</time>
      </trkpt>
      <trkpt lat="42.404844000" lon="-2.624734000">
        <ele>631.50</ele>
        <time>2016-10-29T06:27:29Z</time>
      </trkpt>
      <trkpt lat="42.404820000" lon="-2.624755000">
        <ele>631.60</ele>
        <time>2016-10-29T06:27:30Z</time>
      </trkpt>
      <trkpt lat="42.404796000" lon="-2.624774000">
        <ele>631.70</ele>
        <time>2016-10-29T06:27:31Z</time>
      </trkpt>
      <trkpt lat="42.404772000" lon="-2.624793000">
        <ele>631.90</ele>
        <time>2016-10-29T06:27:32Z</time>
      </trkpt>
      <trkpt lat="42.404748000" lon="-2.624814000">
        <ele>632.10</ele>
        <time>2016-10-29T06:27:33Z</time>
      </trkpt>
      <trkpt lat="42.404724000" lon="-2.624834000">
        <ele>632.30</ele>
        <time>2016-10-29T06:27:34Z</time>
      </trkpt>
      <trkpt lat="42.404701000" lon="-2.624856000">
        <ele>632.40</ele>
        <time>2016-10-29T06:27:35Z</time>
      </trkpt>
      <trkpt lat="42.404678000" lon="-2.624875000">
        <ele>632.60</ele>
        <time>2016-10-29T06:27:36Z</time>
      </trkpt>
      <trkpt lat="42.404656000" lon="-2.624894000">
        <ele>632.70</ele>
        <time>2016-10-29T06:27:37Z</time>
      </trkpt>
      <trkpt lat="42.404635000" lon="-2.624917000">
        <ele>632.90</ele>
        <time>2016-10-29T06:27:38Z</time>
      </trkpt>
      <trkpt lat="42.404615000" lon="-2.624939000">
        <ele>633.00</ele>
        <time>2016-10-29T06:27:39Z</time>
      </trkpt>
      <trkpt lat="42.404594000" lon="-2.624962000">
        <ele>633.10</ele>
        <time>2016-10-29T06:27:40Z</time>
      </trkpt>
      <trkpt lat="42.404576000" lon="-2.624987000">
        <ele>633.20</ele>
        <time>2016-10-29T06:27:41Z</time>
      </trkpt>
      <trkpt lat="42.404557000" lon="-2.625013000">
        <ele>633.30</ele>
        <time>2016-10-29T06:27:42Z</time>
      </trkpt>
      <trkpt lat="42.404540000" lon="-2.625038000">
        <ele>633.40</ele>
        <time>2016-10-29T06:27:43Z</time>
      </trkpt>
      <trkpt lat="42.404521000" lon="-2.625064000">
        <ele>633.60</ele>
        <time>2016-10-29T06:27:44Z</time>
      </trkpt>
      <trkpt lat="42.404506000" lon="-2.625095000">
        <ele>633.70</ele>
        <time>2016-10-29T06:27:45Z</time>
      </trkpt>
      <trkpt lat="42.404493000" lon="-2.625131000">
        <ele>633.90</ele>
        <time>2016-10-29T06:27:46Z</time>
      </trkpt>
      <trkpt lat="42.404480000" lon="-2.625165000">
        <ele>634.10</ele>
        <time>2016-10-29T06:27:47Z</time>
      </trkpt>
      <trkpt lat="42.404466000" lon="-2.625201000">
        <ele>634.30</ele>
        <time>2016-10-29T06:27:48Z</time>
      </trkpt>
      <trkpt lat="42.404452000" lon="-2.625235000">
        <ele>634.50</ele>
        <time>2016-10-29T06:27:49Z</time>
      </trkpt>
      <trkpt lat="42.404442000" lon="-2.625269000">
        <ele>634.60</ele>
        <time>2016-10-29T06:27:50Z</time>
      </trkpt>
      <trkpt lat="42.404433000" lon="-2.625304000">
        <ele>634.60</ele>
        <time>2016-10-29T06:27:51Z</time>
      </trkpt>
      <trkpt lat="42.404424000" lon="-2.625340000">
        <ele>634.80</ele>
        <time>2016-10-29T06:27:52Z</time>
      </trkpt>
      <trkpt lat="42.404415000" lon="-2.625376000">
        <ele>635.00</ele>
        <time>2016-10-29T06:27:53Z</time>
      </trkpt>
      <trkpt lat="42.404410000" lon="-2.625402000">
        <ele>635.10</ele>
        <time>2016-10-29T06:27:54Z</time>
      </trkpt>
      <trkpt lat="42.404401000" lon="-2.625439000">
        <ele>635.20</ele>
        <time>2016-10-29T06:27:55Z</time>
      </trkpt>
      <trkpt lat="42.404391000" lon="-2.625476000">
        <ele>635.20</ele>
        <time>2016-10-29T06:27:56Z</time>
      </trkpt>
      <trkpt lat="42.404380000" lon="-2.625507000">
        <ele>635.30</ele>
        <time>2016-10-29T06:27:57Z</time>
      </trkpt>
      <trkpt lat="42.404367000" lon="-2.625541000">
        <ele>635.40</ele>
        <time>2016-10-29T06:27:58Z</time>
      </trkpt>
      <trkpt lat="42.404350000" lon="-2.625570000">
        <ele>635.50</ele>
        <time>2016-10-29T06:27:59Z</time>
      </trkpt>
      <trkpt lat="42.404338000" lon="-2.625603000">
        <ele>635.60</ele>
        <time>2016-10-29T06:28:00Z</time>
      </trkpt>
      <trkpt lat="42.404325000" lon="-2.625637000">
        <ele>635.70</ele>
        <time>2016-10-29T06:28:01Z</time>
      </trkpt>
      <trkpt lat="42.404312000" lon="-2.625674000">
        <ele>635.80</ele>
        <time>2016-10-29T06:28:02Z</time>
      </trkpt>
      <trkpt lat="42.404297000" lon="-2.625711000">
        <ele>635.80</ele>
        <time>2016-10-29T06:28:03Z</time>
      </trkpt>
      <trkpt lat="42.404284000" lon="-2.625752000">
        <ele>635.80</ele>
        <time>2016-10-29T06:28:04Z</time>
      </trkpt>
      <trkpt lat="42.404269000" lon="-2.625790000">
        <ele>635.90</ele>
        <time>2016-10-29T06:28:05Z</time>
      </trkpt>
      <trkpt lat="42.404252000" lon="-2.625826000">
        <ele>636.00</ele>
        <time>2016-10-29T06:28:06Z</time>
      </trkpt>
      <trkpt lat="42.404232000" lon="-2.625862000">
        <ele>636.10</ele>
        <time>2016-10-29T06:28:07Z</time>
      </trkpt>
      <trkpt lat="42.404213000" lon="-2.625895000">
        <ele>636.20</ele>
        <time>2016-10-29T06:28:08Z</time>
      </trkpt>
      <trkpt lat="42.404195000" lon="-2.625927000">
        <ele>636.20</ele>
        <time>2016-10-29T06:28:09Z</time>
      </trkpt>
      <trkpt lat="42.404163000" lon="-2.625994000">
        <ele>636.40</ele>
        <time>2016-10-29T06:28:11Z</time>
      </trkpt>
      <trkpt lat="42.404147000" lon="-2.626032000">
        <ele>636.50</ele>
        <time>2016-10-29T06:28:12Z</time>
      </trkpt>
      <trkpt lat="42.404137000" lon="-2.626069000">
        <ele>636.50</ele>
        <time>2016-10-29T06:28:13Z</time>
      </trkpt>
      <trkpt lat="42.404126000" lon="-2.626103000">
        <ele>636.50</ele>
        <time>2016-10-29T06:28:14Z</time>
      </trkpt>
      <trkpt lat="42.404115000" lon="-2.626137000">
        <ele>636.60</ele>
        <time>2016-10-29T06:28:15Z</time>
      </trkpt>
      <trkpt lat="42.404103000" lon="-2.626175000">
        <ele>636.50</ele>
        <time>2016-10-29T06:28:16Z</time>
      </trkpt>
      <trkpt lat="42.404090000" lon="-2.626210000">
        <ele>636.40</ele>
        <time>2016-10-29T06:28:17Z</time>
      </trkpt>
      <trkpt lat="42.404077000" lon="-2.626246000">
        <ele>636.40</ele>
        <time>2016-10-29T06:28:18Z</time>
      </trkpt>
      <trkpt lat="42.404062000" lon="-2.626279000">
        <ele>636.40</ele>
        <time>2016-10-29T06:28:19Z</time>
      </trkpt>
      <trkpt lat="42.404047000" lon="-2.626312000">
        <ele>636.40</ele>
        <time>2016-10-29T06:28:20Z</time>
      </trkpt>
      <trkpt lat="42.404029000" lon="-2.626341000">
        <ele>636.30</ele>
        <time>2016-10-29T06:28:21Z</time>
      </trkpt>
      <trkpt lat="42.404009000" lon="-2.626367000">
        <ele>636.30</ele>
        <time>2016-10-29T06:28:22Z</time>
      </trkpt>
      <trkpt lat="42.403990000" lon="-2.626394000">
        <ele>636.30</ele>
        <time>2016-10-29T06:28:23Z</time>
      </trkpt>
      <trkpt lat="42.403971000" lon="-2.626420000">
        <ele>636.40</ele>
        <time>2016-10-29T06:28:24Z</time>
      </trkpt>
      <trkpt lat="42.403953000" lon="-2.626451000">
        <ele>636.40</ele>
        <time>2016-10-29T06:28:25Z</time>
      </trkpt>
      <trkpt lat="42.403935000" lon="-2.626482000">
        <ele>636.50</ele>
        <time>2016-10-29T06:28:26Z</time>
      </trkpt>
      <trkpt lat="42.403922000" lon="-2.626515000">
        <ele>636.50</ele>
        <time>2016-10-29T06:28:27Z</time>
      </trkpt>
      <trkpt lat="42.403909000" lon="-2.626544000">
        <ele>636.70</ele>
        <time>2016-10-29T06:28:28Z</time>
      </trkpt>
      <trkpt lat="42.403895000" lon="-2.626571000">
        <ele>636.80</ele>
        <time>2016-10-29T06:28:29Z</time>
      </trkpt>
      <trkpt lat="42.403882000" lon="-2.626598000">
        <ele>637.00</ele>
        <time>2016-10-29T06:28:30Z</time>
      </trkpt>
      <trkpt lat="42.403872000" lon="-2.626623000">
        <ele>637.10</ele>
        <time>2016-10-29T06:28:31Z</time>
      </trkpt>
      <trkpt lat="42.403862000" lon="-2.626647000">
        <ele>637.10</ele>
        <time>2016-10-29T06:28:32Z</time>
      </trkpt>
      <trkpt lat="42.403850000" lon="-2.626661000">
        <ele>637.20</ele>
        <time>2016-10-29T06:28:33Z</time>
      </trkpt>
      <trkpt lat="42.403835000" lon="-2.626676000">
        <ele>637.20</ele>
        <time>2016-10-29T06:28:34Z</time>
      </trkpt>
      <trkpt lat="42.403815000" lon="-2.626678000">
        <ele>637.20</ele>
        <time>2016-10-29T06:28:35Z</time>
      </trkpt>
      <trkpt lat="42.403798000" lon="-2.626672000">
        <ele>637.10</ele>
        <time>2016-10-29T06:28:36Z</time>
      </trkpt>
      <trkpt lat="42.403777000" lon="-2.626658000">
        <ele>636.90</ele>
        <time>2016-10-29T06:28:37Z</time>
      </trkpt>
      <trkpt lat="42.403760000" lon="-2.626641000">
        <ele>636.80</ele>
        <time>2016-10-29T06:28:38Z</time>
      </trkpt>
      <trkpt lat="42.403742000" lon="-2.626625000">
        <ele>636.80</ele>
        <time>2016-10-29T06:28:39Z</time>
      </trkpt>
      <trkpt lat="42.403727000" lon="-2.626606000">
        <ele>636.70</ele>
        <time>2016-10-29T06:28:40Z</time>
      </trkpt>
      <trkpt lat="42.403723000" lon="-2.626598000">
        <ele>636.70</ele>
        <time>2016-10-29T06:28:41Z</time>
      </trkpt>
      <trkpt lat="42.403716000" lon="-2.626597000">
        <ele>636.60</ele>
        <time>2016-10-29T06:28:42Z</time>
      </trkpt>
      <trkpt lat="42.403711000" lon="-2.626594000">
        <ele>636.60</ele>
        <time>2016-10-29T06:28:43Z</time>
      </trkpt>
      <trkpt lat="42.403710000" lon="-2.626595000">
        <ele>636.60</ele>
        <time>2016-10-29T06:28:44Z</time>
      </trkpt>
      <trkpt lat="42.403706000" lon="-2.626592000">
        <ele>636.60</ele>
        <time>2016-10-29T06:28:45Z</time>
      </trkpt>
      <trkpt lat="42.403703000" lon="-2.626590000">
        <ele>636.60</ele>
        <time>2016-10-29T06:28:46Z</time>
      </trkpt>
      <trkpt lat="42.403699000" lon="-2.626595000">
        <ele>636.60</ele>
        <time>2016-10-29T06:28:47Z</time>
      </trkpt>
      <trkpt lat="42.403699000" lon="-2.626595000">
        <ele>636.50</ele>
        <time>2016-10-29T06:28:48Z</time>
      </trkpt>
      <trkpt lat="42.403700000" lon="-2.626599000">
        <ele>636.50</ele>
        <time>2016-10-29T06:28:49Z</time>
      </trkpt>
      <trkpt lat="42.403706000" lon="-2.626606000">
        <ele>636.50</ele>
        <time>2016-10-29T06:28:50Z</time>
      </trkpt>
      <trkpt lat="42.403699000" lon="-2.626608000">
        <ele>636.40</ele>
        <time>2016-10-29T06:28:51Z</time>
      </trkpt>
      <trkpt lat="42.403698000" lon="-2.626607000">
        <ele>636.40</ele>
        <time>2016-10-29T06:28:52Z</time>
      </trkpt>
      <trkpt lat="42.403700000" lon="-2.626607000">
        <ele>636.40</ele>
        <time>2016-10-29T06:28:53Z</time>
      </trkpt>
      <trkpt lat="42.403706000" lon="-2.626597000">
        <ele>636.40</ele>
        <time>2016-10-29T06:28:54Z</time>
      </trkpt>
      <trkpt lat="42.403709000" lon="-2.626590000">
        <ele>636.40</ele>
        <time>2016-10-29T06:28:55Z</time>
      </trkpt>
      <trkpt lat="42.403713000" lon="-2.626583000">
        <ele>636.40</ele>
        <time>2016-10-29T06:28:56Z</time>
      </trkpt>
      <trkpt lat="42.403717000" lon="-2.626582000">
        <ele>636.40</ele>
        <time>2016-10-29T06:28:57Z</time>
      </trkpt>
      <trkpt lat="42.403714000" lon="-2.626577000">
        <ele>636.30</ele>
        <time>2016-10-29T06:28:58Z</time>
      </trkpt>
      <trkpt lat="42.403714000" lon="-2.626577000">
        <ele>636.20</ele>
        <time>2016-10-29T06:28:59Z</time>
      </trkpt>
      <trkpt lat="42.403712000" lon="-2.626575000">
        <ele>636.10</ele>
        <time>2016-10-29T06:29:00Z</time>
      </trkpt>
      <trkpt lat="42.403708000" lon="-2.626573000">
        <ele>636.00</ele>
        <time>2016-10-29T06:29:01Z</time>
      </trkpt>
      <trkpt lat="42.403705000" lon="-2.626569000">
        <ele>636.00</ele>
        <time>2016-10-29T06:29:02Z</time>
      </trkpt>
      <trkpt lat="42.403706000" lon="-2.626568000">
        <ele>635.90</ele>
        <time>2016-10-29T06:29:03Z</time>
      </trkpt>
      <trkpt lat="42.403709000" lon="-2.626569000">
        <ele>636.00</ele>
        <time>2016-10-29T06:29:04Z</time>
      </trkpt>
      <trkpt lat="42.403711000" lon="-2.626569000">
        <ele>636.00</ele>
        <time>2016-10-29T06:29:05Z</time>
      </trkpt>
      <trkpt lat="42.403711000" lon="-2.626568000">
        <ele>636.00</ele>
        <time>2016-10-29T06:29:06Z</time>
      </trkpt>
      <trkpt lat="42.403711000" lon="-2.626570000">
        <ele>635.90</ele>
        <time>2016-10-29T06:29:07Z</time>
      </trkpt>
      <trkpt lat="42.403712000" lon="-2.626572000">
        <ele>636.00</ele>
        <time>2016-10-29T06:29:08Z</time>
      </trkpt>
      <trkpt lat="42.403713000" lon="-2.626573000">
        <ele>636.10</ele>
        <time>2016-10-29T06:29:09Z</time>
      </trkpt>
      <trkpt lat="42.403714000" lon="-2.626573000">
        <ele>636.00</ele>
        <time>2016-10-29T06:29:10Z</time>
      </trkpt>
      <trkpt lat="42.403713000" lon="-2.626576000">
        <ele>636.00</ele>
        <time>2016-10-29T06:29:12Z</time>
      </trkpt>
      <trkpt lat="42.403710000" lon="-2.626575000">
        <ele>636.00</ele>
        <time>2016-10-29T06:29:13Z</time>
      </trkpt>
      <trkpt lat="42.403706000" lon="-2.626575000">
        <ele>636.00</ele>
        <time>2016-10-29T06:29:14Z</time>
      </trkpt>
      <trkpt lat="42.403703000" lon="-2.626577000">
        <ele>636.00</ele>
        <time>2016-10-29T06:29:15Z</time>
      </trkpt>
      <trkpt lat="42.403698000" lon="-2.626578000">
        <ele>636.00</ele>
        <time>2016-10-29T06:29:16Z</time>
      </trkpt>
      <trkpt lat="42.403698000" lon="-2.626578000">
        <ele>636.00</ele>
        <time>2016-10-29T06:29:17Z</time>
      </trkpt>
      <trkpt lat="42.403698000" lon="-2.626578000">
        <ele>636.00</ele>
        <time>2016-10-29T06:29:18Z</time>
      </trkpt>
      <trkpt lat="42.403696000" lon="-2.626579000">
        <ele>636.00</ele>
        <time>2016-10-29T06:29:19Z</time>
      </trkpt>
      <trkpt lat="42.403695000" lon="-2.626580000">
        <ele>636.20</ele>
        <time>2016-10-29T06:29:20Z</time>
      </trkpt>
      <trkpt lat="42.403692000" lon="-2.626577000">
        <ele>636.30</ele>
        <time>2016-10-29T06:29:21Z</time>
      </trkpt>
      <trkpt lat="42.403692000" lon="-2.626576000">
        <ele>636.60</ele>
        <time>2016-10-29T06:29:22Z</time>
      </trkpt>
      <trkpt lat="42.403693000" lon="-2.626575000">
        <ele>636.70</ele>
        <time>2016-10-29T06:29:23Z</time>
      </trkpt>
      <trkpt lat="42.403691000" lon="-2.626575000">
        <ele>636.90</ele>
        <time>2016-10-29T06:29:24Z</time>
      </trkpt>
      <trkpt lat="42.403690000" lon="-2.626575000">
        <ele>637.00</ele>
        <time>2016-10-29T06:29:25Z</time>
      </trkpt>
      <trkpt lat="42.403689000" lon="-2.626575000">
        <ele>636.80</ele>
        <time>2016-10-29T06:29:26Z</time>
      </trkpt>
      <trkpt lat="42.403687000" lon="-2.626575000">
        <ele>636.70</ele>
        <time>2016-10-29T06:29:27Z</time>
      </trkpt>
      <trkpt lat="42.403686000" lon="-2.626576000">
        <ele>636.70</ele>
        <time>2016-10-29T06:29:28Z</time>
      </trkpt>
      <trkpt lat="42.403686000" lon="-2.626575000">
        <ele>636.60</ele>
        <time>2016-10-29T06:29:29Z</time>
      </trkpt>
      <trkpt lat="42.403687000" lon="-2.626576000">
        <ele>636.50</ele>
        <time>2016-10-29T06:29:30Z</time>
      </trkpt>
      <trkpt lat="42.403687000" lon="-2.626574000">
        <ele>636.50</ele>
        <time>2016-10-29T06:29:31Z</time>
      </trkpt>
      <trkpt lat="42.403688000" lon="-2.626573000">
        <ele>636.40</ele>
        <time>2016-10-29T06:29:32Z</time>
      </trkpt>
      <trkpt lat="42.403687000" lon="-2.626576000">
        <ele>636.40</ele>
        <time>2016-10-29T06:29:33Z</time>
      </trkpt>
      <trkpt lat="42.403689000" lon="-2.626575000">
        <ele>636.30</ele>
        <time>2016-10-29T06:29:34Z</time>
      </trkpt>
      <trkpt lat="42.403691000" lon="-2.626576000">
        <ele>636.20</ele>
        <time>2016-10-29T06:29:35Z</time>
      </trkpt>
      <trkpt lat="42.403689000" lon="-2.626578000">
        <ele>636.20</ele>
        <time>2016-10-29T06:29:36Z</time>
      </trkpt>
      <trkpt lat="42.403689000" lon="-2.626578000">
        <ele>636.10</ele>
        <time>2016-10-29T06:29:37Z</time>
      </trkpt>
      <trkpt lat="42.403690000" lon="-2.626579000">
        <ele>636.10</ele>
        <time>2016-10-29T06:29:38Z</time>
      </trkpt>
      <trkpt lat="42.403693000" lon="-2.626578000">
        <ele>636.10</ele>
        <time>2016-10-29T06:29:39Z</time>
      </trkpt>
      <trkpt lat="42.403695000" lon="-2.626578000">
        <ele>636.20</ele>
        <time>2016-10-29T06:29:40Z</time>
      </trkpt>
      <trkpt lat="42.403696000" lon="-2.626579000">
        <ele>636.30</ele>
        <time>2016-10-29T06:29:41Z</time>
      </trkpt>
      <trkpt lat="42.403697000" lon="-2.626581000">
        <ele>636.40</ele>
        <time>2016-10-29T06:29:42Z</time>
      </trkpt>
      <trkpt lat="42.403698000" lon="-2.626583000">
        <ele>636.50</ele>
        <time>2016-10-29T06:29:43Z</time>
      </trkpt>
      <trkpt lat="42.403697000" lon="-2.626586000">
        <ele>636.50</ele>
        <time>2016-10-29T06:29:44Z</time>
      </trkpt>
      <trkpt lat="42.403696000" lon="-2.626585000">
        <ele>636.60</ele>
        <time>2016-10-29T06:29:45Z</time>
      </trkpt>
      <trkpt lat="42.403696000" lon="-2.626585000">
        <ele>636.60</ele>
        <time>2016-10-29T06:29:46Z</time>
      </trkpt>
      <trkpt lat="42.403695000" lon="-2.626583000">
        <ele>636.60</ele>
        <time>2016-10-29T06:29:47Z</time>
      </trkpt>
      <trkpt lat="42.403695000" lon="-2.626586000">
        <ele>636.80</ele>
        <time>2016-10-29T06:29:48Z</time>
      </trkpt>
      <trkpt lat="42.403699000" lon="-2.626587000">
        <ele>636.90</ele>
        <time>2016-10-29T06:29:49Z</time>
      </trkpt>
      <trkpt lat="42.403702000" lon="-2.626587000">
        <ele>637.00</ele>
        <time>2016-10-29T06:29:50Z</time>
      </trkpt>
      <trkpt lat="42.403701000" lon="-2.626583000">
        <ele>637.10</ele>
        <time>2016-10-29T06:29:51Z</time>
      </trkpt>
      <trkpt lat="42.403702000" lon="-2.626581000">
        <ele>637.10</ele>
        <time>2016-10-29T06:29:52Z</time>
      </trkpt>
      <trkpt lat="42.403704000" lon="-2.626580000">
        <ele>637.10</ele>
        <time>2016-10-29T06:29:53Z</time>
      </trkpt>
      <trkpt lat="42.403703000" lon="-2.626581000">
        <ele>637.00</ele>
        <time>2016-10-29T06:29:54Z</time>
      </trkpt>
      <trkpt lat="42.403703000" lon="-2.626581000">
        <ele>636.80</ele>
        <time>2016-10-29T06:29:55Z</time>
      </trkpt>
      <trkpt lat="42.403704000" lon="-2.626581000">
        <ele>636.70</ele>
        <time>2016-10-29T06:29:56Z</time>
      </trkpt>
      <trkpt lat="42.403705000" lon="-2.626583000">
        <ele>636.70</ele>
        <time>2016-10-29T06:29:57Z</time>
      </trkpt>
      <trkpt lat="42.403706000" lon="-2.626583000">
        <ele>636.60</ele>
        <time>2016-10-29T06:29:58Z</time>
      </trkpt>
      <trkpt lat="42.403708000" lon="-2.626581000">
        <ele>636.60</ele>
        <time>2016-10-29T06:29:59Z</time>
      </trkpt>
      <trkpt lat="42.403709000" lon="-2.626582000">
        <ele>636.60</ele>
        <time>2016-10-29T06:30:00Z</time>
      </trkpt>
      <trkpt lat="42.403707000" lon="-2.626579000">
        <ele>636.60</ele>
        <time>2016-10-29T06:30:01Z</time>
      </trkpt>
      <trkpt lat="42.403707000" lon="-2.626580000">
        <ele>636.70</ele>
        <time>2016-10-29T06:30:02Z</time>
      </trkpt>
      <trkpt lat="42.403708000" lon="-2.626580000">
        <ele>636.70</ele>
        <time>2016-10-29T06:30:03Z</time>
      </trkpt>
      <trkpt lat="42.403708000" lon="-2.626579000">
        <ele>636.60</ele>
        <time>2016-10-29T06:30:04Z</time>
      </trkpt>
      <trkpt lat="42.403708000" lon="-2.626580000">
        <ele>636.60</ele>
        <time>2016-10-29T06:30:05Z</time>
      </trkpt>
      <trkpt lat="42.403709000" lon="-2.626582000">
        <ele>636.60</ele>
        <time>2016-10-29T06:30:06Z</time>
      </trkpt>
      <trkpt lat="42.403710000" lon="-2.626581000">
        <ele>636.50</ele>
        <time>2016-10-29T06:30:07Z</time>
      </trkpt>
      <trkpt lat="42.403710000" lon="-2.626580000">
        <ele>636.40</ele>
        <time>2016-10-29T06:30:08Z</time>
      </trkpt>
      <trkpt lat="42.403710000" lon="-2.626580000">
        <ele>636.30</ele>
        <time>2016-10-29T06:30:09Z</time>
      </trkpt>
      <trkpt lat="42.403711000" lon="-2.626582000">
        <ele>636.20</ele>
        <time>2016-10-29T06:30:10Z</time>
      </trkpt>
      <trkpt lat="42.403711000" lon="-2.626584000">
        <ele>636.20</ele>
        <time>2016-10-29T06:30:11Z</time>
      </trkpt>
      <trkpt lat="42.403712000" lon="-2.626582000">
        <ele>636.10</ele>
        <time>2016-10-29T06:30:13Z</time>
      </trkpt>
      <trkpt lat="42.403712000" lon="-2.626582000">
        <ele>636.20</ele>
        <time>2016-10-29T06:30:14Z</time>
      </trkpt>
      <trkpt lat="42.403711000" lon="-2.626581000">
        <ele>636.20</ele>
        <time>2016-10-29T06:30:15Z</time>
      </trkpt>
      <trkpt lat="42.403711000" lon="-2.626580000">
        <ele>636.30</ele>
        <time>2016-10-29T06:30:16Z</time>
      </trkpt>
      <trkpt lat="42.403709000" lon="-2.626579000">
        <ele>636.30</ele>
        <time>2016-10-29T06:30:17Z</time>
      </trkpt>
      <trkpt lat="42.403707000" lon="-2.626578000">
        <ele>636.40</ele>
        <time>2016-10-29T06:30:18Z</time>
      </trkpt>
      <trkpt lat="42.403705000" lon="-2.626575000">
        <ele>636.50</ele>
        <time>2016-10-29T06:30:19Z</time>
      </trkpt>
      <trkpt lat="42.403705000" lon="-2.626575000">
        <ele>636.50</ele>
        <time>2016-10-29T06:30:20Z</time>
      </trkpt>
      <trkpt lat="42.403707000" lon="-2.626577000">
        <ele>636.50</ele>
        <time>2016-10-29T06:30:21Z</time>
      </trkpt>
      <trkpt lat="42.403709000" lon="-2.626579000">
        <ele>636.50</ele>
        <time>2016-10-29T06:30:22Z</time>
      </trkpt>
      <trkpt lat="42.403711000" lon="-2.626584000">
        <ele>636.60</ele>
        <time>2016-10-29T06:30:23Z</time>
      </trkpt>
      <trkpt lat="42.403713000" lon="-2.626585000">
        <ele>636.60</ele>
        <time>2016-10-29T06:30:24Z</time>
      </trkpt>
      <trkpt lat="42.403713000" lon="-2.626585000">
        <ele>636.60</ele>
        <time>2016-10-29T06:30:25Z</time>
      </trkpt>
      <trkpt lat="42.403713000" lon="-2.626587000">
        <ele>636.70</ele>
        <time>2016-10-29T06:30:26Z</time>
      </trkpt>
      <trkpt lat="42.403712000" lon="-2.626585000">
        <ele>636.70</ele>
        <time>2016-10-29T06:30:27Z</time>
      </trkpt>
      <trkpt lat="42.403712000" lon="-2.626585000">
        <ele>636.70</ele>
        <time>2016-10-29T06:30:28Z</time>
      </trkpt>
      <trkpt lat="42.403710000" lon="-2.626586000">
        <ele>636.70</ele>
        <time>2016-10-29T06:30:29Z</time>
      </trkpt>
      <trkpt lat="42.403710000" lon="-2.626589000">
        <ele>636.80</ele>
        <time>2016-10-29T06:30:30Z</time>
      </trkpt>
      <trkpt lat="42.403709000" lon="-2.626591000">
        <ele>636.90</ele>
        <time>2016-10-29T06:30:31Z</time>
      </trkpt>
      <trkpt lat="42.403708000" lon="-2.626593000">
        <ele>636.90</ele>
        <time>2016-10-29T06:30:32Z</time>
      </trkpt>
      <trkpt lat="42.403706000" lon="-2.626591000">
        <ele>636.80</ele>
        <time>2016-10-29T06:30:33Z</time>
      </trkpt>
      <trkpt lat="42.403707000" lon="-2.626592000">
        <ele>636.80</ele>
        <time>2016-10-29T06:30:34Z</time>
      </trkpt>
      <trkpt lat="42.403708000" lon="-2.626594000">
        <ele>636.70</ele>
        <time>2016-10-29T06:30:35Z</time>
      </trkpt>
      <trkpt lat="42.403710000" lon="-2.626598000">
        <ele>636.60</ele>
        <time>2016-10-29T06:30:36Z</time>
      </trkpt>
      <trkpt lat="42.403709000" lon="-2.626603000">
        <ele>636.60</ele>
        <time>2016-10-29T06:30:37Z</time>
      </trkpt>
      <trkpt lat="42.403708000" lon="-2.626606000">
        <ele>636.60</ele>
        <time>2016-10-29T06:30:38Z</time>
      </trkpt>
      <trkpt lat="42.403710000" lon="-2.626608000">
        <ele>636.60</ele>
        <time>2016-10-29T06:30:39Z</time>
      </trkpt>
      <trkpt lat="42.403712000" lon="-2.626608000">
        <ele>636.80</ele>
        <time>2016-10-29T06:30:40Z</time>
      </trkpt>
      <trkpt lat="42.403714000" lon="-2.626607000">
        <ele>636.90</ele>
        <time>2016-10-29T06:30:41Z</time>
      </trkpt>
      <trkpt lat="42.403715000" lon="-2.626608000">
        <ele>637.00</ele>
        <time>2016-10-29T06:30:42Z</time>
      </trkpt>
      <trkpt lat="42.403716000" lon="-2.626606000">
        <ele>637.10</ele>
        <time>2016-10-29T06:30:43Z</time>
      </trkpt>
      <trkpt lat="42.403714000" lon="-2.626601000">
        <ele>637.10</ele>
        <time>2016-10-29T06:30:44Z</time>
      </trkpt>
      <trkpt lat="42.403714000" lon="-2.626595000">
        <ele>637.10</ele>
        <time>2016-10-29T06:30:45Z</time>
      </trkpt>
      <trkpt lat="42.403714000" lon="-2.626591000">
        <ele>637.20</ele>
        <time>2016-10-29T06:30:46Z</time>
      </trkpt>
      <trkpt lat="42.403713000" lon="-2.626591000">
        <ele>637.20</ele>
        <time>2016-10-29T06:30:47Z</time>
      </trkpt>
      <trkpt lat="42.403714000" lon="-2.626591000">
        <ele>637.00</ele>
        <time>2016-10-29T06:30:48Z</time>
      </trkpt>
      <trkpt lat="42.403713000" lon="-2.626592000">
        <ele>636.80</ele>
        <time>2016-10-29T06:30:49Z</time>
      </trkpt>
      <trkpt lat="42.403712000" lon="-2.626594000">
        <ele>636.70</ele>
        <time>2016-10-29T06:30:50Z</time>
      </trkpt>
      <trkpt lat="42.403713000" lon="-2.626597000">
        <ele>636.60</ele>
        <time>2016-10-29T06:30:51Z</time>
      </trkpt>
      <trkpt lat="42.403714000" lon="-2.626600000">
        <ele>636.60</ele>
        <time>2016-10-29T06:30:52Z</time>
      </trkpt>
      <trkpt lat="42.403716000" lon="-2.626601000">
        <ele>636.60</ele>
        <time>2016-10-29T06:30:53Z</time>
      </trkpt>
      <trkpt lat="42.403718000" lon="-2.626604000">
        <ele>636.70</ele>
        <time>2016-10-29T06:30:54Z</time>
      </trkpt>
      <trkpt lat="42.403718000" lon="-2.626607000">
        <ele>636.70</ele>
        <time>2016-10-29T06:30:55Z</time>
      </trkpt>
      <trkpt lat="42.403717000" lon="-2.626608000">
        <ele>636.60</ele>
        <time>2016-10-29T06:30:56Z</time>
      </trkpt>
      <trkpt lat="42.403718000" lon="-2.626608000">
        <ele>636.60</ele>
        <time>2016-10-29T06:30:57Z</time>
      </trkpt>
      <trkpt lat="42.403719000" lon="-2.626607000">
        <ele>636.60</ele>
        <time>2016-10-29T06:30:58Z</time>
      </trkpt>
      <trkpt lat="42.403716000" lon="-2.626606000">
        <ele>636.50</ele>
        <time>2016-10-29T06:30:59Z</time>
      </trkpt>
      <trkpt lat="42.403715000" lon="-2.626607000">
        <ele>636.50</ele>
        <time>2016-10-29T06:31:00Z</time>
      </trkpt>
      <trkpt lat="42.403714000" lon="-2.626608000">
        <ele>636.50</ele>
        <time>2016-10-29T06:31:01Z</time>
      </trkpt>
      <trkpt lat="42.403712000" lon="-2.626609000">
        <ele>636.50</ele>
        <time>2016-10-29T06:31:02Z</time>
      </trkpt>
      <trkpt lat="42.403713000" lon="-2.626608000">
        <ele>636.50</ele>
        <time>2016-10-29T06:31:03Z</time>
      </trkpt>
      <trkpt lat="42.403716000" lon="-2.626605000">
        <ele>636.50</ele>
        <time>2016-10-29T06:31:04Z</time>
      </trkpt>
      <trkpt lat="42.403719000" lon="-2.626604000">
        <ele>636.50</ele>
        <time>2016-10-29T06:31:05Z</time>
      </trkpt>
      <trkpt lat="42.403722000" lon="-2.626600000">
        <ele>636.50</ele>
        <time>2016-10-29T06:31:06Z</time>
      </trkpt>
      <trkpt lat="42.403725000" lon="-2.626599000">
        <ele>636.60</ele>
        <time>2016-10-29T06:31:07Z</time>
      </trkpt>
      <trkpt lat="42.403728000" lon="-2.626600000">
        <ele>636.60</ele>
        <time>2016-10-29T06:31:08Z</time>
      </trkpt>
      <trkpt lat="42.403728000" lon="-2.626598000">
        <ele>636.60</ele>
        <time>2016-10-29T06:31:09Z</time>
      </trkpt>
      <trkpt lat="42.403728000" lon="-2.626597000">
        <ele>636.70</ele>
        <time>2016-10-29T06:31:10Z</time>
      </trkpt>
      <trkpt lat="42.403727000" lon="-2.626596000">
        <ele>636.70</ele>
        <time>2016-10-29T06:31:11Z</time>
      </trkpt>
      <trkpt lat="42.403726000" lon="-2.626598000">
        <ele>636.70</ele>
        <time>2016-10-29T06:31:12Z</time>
      </trkpt>
      <trkpt lat="42.403721000" lon="-2.626596000">
        <ele>636.70</ele>
        <time>2016-10-29T06:31:14Z</time>
      </trkpt>
      <trkpt lat="42.403718000" lon="-2.626595000">
        <ele>636.70</ele>
        <time>2016-10-29T06:31:15Z</time>
      </trkpt>
      <trkpt lat="42.403717000" lon="-2.626595000">
        <ele>636.60</ele>
        <time>2016-10-29T06:31:16Z</time>
      </trkpt>
      <trkpt lat="42.403715000" lon="-2.626596000">
        <ele>636.60</ele>
        <time>2016-10-29T06:31:17Z</time>
      </trkpt>
      <trkpt lat="42.403713000" lon="-2.626597000">
        <ele>636.60</ele>
        <time>2016-10-29T06:31:18Z</time>
      </trkpt>
      <trkpt lat="42.403712000" lon="-2.626598000">
        <ele>636.50</ele>
        <time>2016-10-29T06:31:19Z</time>
      </trkpt>
      <trkpt lat="42.403711000" lon="-2.626597000">
        <ele>636.50</ele>
        <time>2016-10-29T06:31:20Z</time>
      </trkpt>
      <trkpt lat="42.403706000" lon="-2.626597000">
        <ele>636.50</ele>
        <time>2016-10-29T06:31:21Z</time>
      </trkpt>
      <trkpt lat="42.403703000" lon="-2.626595000">
        <ele>636.60</ele>
        <time>2016-10-29T06:31:22Z</time>
      </trkpt>
      <trkpt lat="42.403703000" lon="-2.626596000">
        <ele>636.60</ele>
        <time>2016-10-29T06:31:23Z</time>
      </trkpt>
      <trkpt lat="42.403706000" lon="-2.626595000">
        <ele>636.60</ele>
        <time>2016-10-29T06:31:24Z</time>
      </trkpt>
      <trkpt lat="42.403705000" lon="-2.626591000">
        <ele>636.50</ele>
        <time>2016-10-29T06:31:25Z</time>
      </trkpt>
      <trkpt lat="42.403705000" lon="-2.626585000">
        <ele>636.60</ele>
        <time>2016-10-29T06:31:26Z</time>
      </trkpt>
      <trkpt lat="42.403704000" lon="-2.626582000">
        <ele>636.60</ele>
        <time>2016-10-29T06:31:27Z</time>
      </trkpt>
      <trkpt lat="42.403701000" lon="-2.626582000">
        <ele>636.60</ele>
        <time>2016-10-29T06:31:28Z</time>
      </trkpt>
      <trkpt lat="42.403700000" lon="-2.626579000">
        <ele>636.50</ele>
        <time>2016-10-29T06:31:29Z</time>
      </trkpt>
      <trkpt lat="42.403698000" lon="-2.626577000">
        <ele>636.50</ele>
        <time>2016-10-29T06:31:30Z</time>
      </trkpt>
      <trkpt lat="42.403697000" lon="-2.626576000">
        <ele>636.50</ele>
        <time>2016-10-29T06:31:31Z</time>
      </trkpt>
      <trkpt lat="42.403696000" lon="-2.626574000">
        <ele>636.40</ele>
        <time>2016-10-29T06:31:32Z</time>
      </trkpt>
      <trkpt lat="42.403697000" lon="-2.626571000">
        <ele>636.40</ele>
        <time>2016-10-29T06:31:33Z</time>
      </trkpt>
      <trkpt lat="42.403697000" lon="-2.626568000">
        <ele>636.50</ele>
        <time>2016-10-29T06:31:34Z</time>
      </trkpt>
      <trkpt lat="42.403696000" lon="-2.626569000">
        <ele>636.60</ele>
        <time>2016-10-29T06:31:35Z</time>
      </trkpt>
      <trkpt lat="42.403696000" lon="-2.626570000">
        <ele>636.60</ele>
        <time>2016-10-29T06:31:36Z</time>
      </trkpt>
      <trkpt lat="42.403698000" lon="-2.626568000">
        <ele>636.70</ele>
        <time>2016-10-29T06:31:37Z</time>
      </trkpt>
      <trkpt lat="42.403701000" lon="-2.626570000">
        <ele>636.60</ele>
        <time>2016-10-29T06:31:38Z</time>
      </trkpt>
      <trkpt lat="42.403703000" lon="-2.626569000">
        <ele>636.60</ele>
        <time>2016-10-29T06:31:39Z</time>
      </trkpt>
      <trkpt lat="42.403707000" lon="-2.626572000">
        <ele>636.50</ele>
        <time>2016-10-29T06:31:40Z</time>
      </trkpt>
      <trkpt lat="42.403709000" lon="-2.626572000">
        <ele>636.50</ele>
        <time>2016-10-29T06:31:41Z</time>
      </trkpt>
      <trkpt lat="42.403713000" lon="-2.626572000">
        <ele>636.50</ele>
        <time>2016-10-29T06:31:42Z</time>
      </trkpt>
      <trkpt lat="42.403716000" lon="-2.626574000">
        <ele>636.50</ele>
        <time>2016-10-29T06:31:43Z</time>
      </trkpt>
      <trkpt lat="42.403717000" lon="-2.626573000">
        <ele>636.50</ele>
        <time>2016-10-29T06:31:44Z</time>
      </trkpt>
      <trkpt lat="42.403719000" lon="-2.626574000">
        <ele>636.50</ele>
        <time>2016-10-29T06:31:45Z</time>
      </trkpt>
      <trkpt lat="42.403720000" lon="-2.626573000">
        <ele>636.40</ele>
        <time>2016-10-29T06:31:46Z</time>
      </trkpt>
      <trkpt lat="42.403718000" lon="-2.626575000">
        <ele>636.40</ele>
        <time>2016-10-29T06:31:47Z</time>
      </trkpt>
      <trkpt lat="42.403718000" lon="-2.626577000">
        <ele>636.40</ele>
        <time>2016-10-29T06:31:48Z</time>
      </trkpt>
      <trkpt lat="42.403719000" lon="-2.626579000">
        <ele>636.40</ele>
        <time>2016-10-29T06:31:49Z</time>
      </trkpt>
      <trkpt lat="42.403720000" lon="-2.626578000">
        <ele>636.40</ele>
        <time>2016-10-29T06:31:50Z</time>
      </trkpt>
      <trkpt lat="42.403718000" lon="-2.626580000">
        <ele>636.50</ele>
        <time>2016-10-29T06:31:51Z</time>
      </trkpt>
      <trkpt lat="42.403720000" lon="-2.626580000">
        <ele>636.60</ele>
        <time>2016-10-29T06:31:52Z</time>
      </trkpt>
      <trkpt lat="42.403722000" lon="-2.626582000">
        <ele>636.60</ele>
        <time>2016-10-29T06:31:53Z</time>
      </trkpt>
      <trkpt lat="42.403725000" lon="-2.626584000">
        <ele>636.60</ele>
        <time>2016-10-29T06:31:54Z</time>
      </trkpt>
      <trkpt lat="42.403728000" lon="-2.626585000">
        <ele>636.60</ele>
        <time>2016-10-29T06:31:55Z</time>
      </trkpt>
      <trkpt lat="42.403731000" lon="-2.626583000">
        <ele>636.60</ele>
        <time>2016-10-29T06:31:56Z</time>
      </trkpt>
      <trkpt lat="42.403731000" lon="-2.626583000">
        <ele>636.60</ele>
        <time>2016-10-29T06:31:57Z</time>
      </trkpt>
      <trkpt lat="42.403729000" lon="-2.626584000">
        <ele>636.40</ele>
        <time>2016-10-29T06:31:58Z</time>
      </trkpt>
      <trkpt lat="42.403726000" lon="-2.626585000">
        <ele>636.30</ele>
        <time>2016-10-29T06:31:59Z</time>
      </trkpt>
      <trkpt lat="42.403725000" lon="-2.626586000">
        <ele>636.30</ele>
        <time>2016-10-29T06:32:00Z</time>
      </trkpt>
      <trkpt lat="42.403722000" lon="-2.626589000">
        <ele>636.40</ele>
        <time>2016-10-29T06:32:01Z</time>
      </trkpt>
      <trkpt lat="42.403719000" lon="-2.626589000">
        <ele>636.40</ele>
        <time>2016-10-29T06:32:02Z</time>
      </trkpt>
      <trkpt lat="42.403716000" lon="-2.626591000">
        <ele>636.40</ele>
        <time>2016-10-29T06:32:03Z</time>
      </trkpt>
      <trkpt lat="42.403714000" lon="-2.626592000">
        <ele>636.40</ele>
        <time>2016-10-29T06:32:04Z</time>
      </trkpt>
      <trkpt lat="42.403712000" lon="-2.626592000">
        <ele>636.50</ele>
        <time>2016-10-29T06:32:05Z</time>
      </trkpt>
      <trkpt lat="42.403709000" lon="-2.626594000">
        <ele>636.50</ele>
        <time>2016-10-29T06:32:06Z</time>
      </trkpt>
      <trkpt lat="42.403708000" lon="-2.626595000">
        <ele>636.60</ele>
        <time>2016-10-29T06:32:07Z</time>
      </trkpt>
      <trkpt lat="42.403708000" lon="-2.626597000">
        <ele>636.70</ele>
        <time>2016-10-29T06:32:08Z</time>
      </trkpt>
      <trkpt lat="42.403708000" lon="-2.626599000">
        <ele>636.70</ele>
        <time>2016-10-29T06:32:09Z</time>
      </trkpt>
      <trkpt lat="42.403707000" lon="-2.626599000">
        <ele>636.70</ele>
        <time>2016-10-29T06:32:10Z</time>
      </trkpt>
      <trkpt lat="42.403709000" lon="-2.626589000">
        <ele>636.70</ele>
        <time>2016-10-29T06:32:11Z</time>
      </trkpt>
      <trkpt lat="42.403708000" lon="-2.626587000">
        <ele>636.90</ele>
        <time>2016-10-29T06:32:12Z</time>
      </trkpt>
      <trkpt lat="42.403707000" lon="-2.626584000">
        <ele>637.00</ele>
        <time>2016-10-29T06:32:13Z</time>
      </trkpt>
      <trkpt lat="42.403707000" lon="-2.626576000">
        <ele>637.10</ele>
        <time>2016-10-29T06:32:15Z</time>
      </trkpt>
      <trkpt lat="42.403707000" lon="-2.626575000">
        <ele>637.20</ele>
        <time>2016-10-29T06:32:16Z</time>
      </trkpt>
      <trkpt lat="42.403706000" lon="-2.626570000">
        <ele>637.20</ele>
        <time>2016-10-29T06:32:17Z</time>
      </trkpt>
      <trkpt lat="42.403704000" lon="-2.626572000">
        <ele>637.30</ele>
        <time>2016-10-29T06:32:18Z</time>
      </trkpt>
      <trkpt lat="42.403704000" lon="-2.626568000">
        <ele>637.30</ele>
        <time>2016-10-29T06:32:19Z</time>
      </trkpt>
      <trkpt lat="42.403701000" lon="-2.626567000">
        <ele>637.30</ele>
        <time>2016-10-29T06:32:20Z</time>
      </trkpt>
      <trkpt lat="42.403703000" lon="-2.626569000">
        <ele>637.30</ele>
        <time>2016-10-29T06:32:21Z</time>
      </trkpt>
      <trkpt lat="42.403704000" lon="-2.626572000">
        <ele>637.20</ele>
        <time>2016-10-29T06:32:22Z</time>
      </trkpt>
      <trkpt lat="42.403705000" lon="-2.626574000">
        <ele>637.10</ele>
        <time>2016-10-29T06:32:23Z</time>
      </trkpt>
      <trkpt lat="42.403706000" lon="-2.626576000">
        <ele>636.90</ele>
        <time>2016-10-29T06:32:24Z</time>
      </trkpt>
      <trkpt lat="42.403708000" lon="-2.626578000">
        <ele>636.80</ele>
        <time>2016-10-29T06:32:25Z</time>
      </trkpt>
      <trkpt lat="42.403710000" lon="-2.626580000">
        <ele>636.70</ele>
        <time>2016-10-29T06:32:26Z</time>
      </trkpt>
      <trkpt lat="42.403712000" lon="-2.626582000">
        <ele>636.60</ele>
        <time>2016-10-29T06:32:27Z</time>
      </trkpt>
      <trkpt lat="42.403711000" lon="-2.626584000">
        <ele>636.60</ele>
        <time>2016-10-29T06:32:28Z</time>
      </trkpt>
      <trkpt lat="42.403709000" lon="-2.626585000">
        <ele>636.60</ele>
        <time>2016-10-29T06:32:29Z</time>
      </trkpt>
      <trkpt lat="42.403708000" lon="-2.626585000">
        <ele>636.60</ele>
        <time>2016-10-29T06:32:30Z</time>
      </trkpt>
      <trkpt lat="42.403709000" lon="-2.626584000">
        <ele>636.70</ele>
        <time>2016-10-29T06:32:31Z</time>
      </trkpt>
      <trkpt lat="42.403708000" lon="-2.626582000">
        <ele>636.70</ele>
        <time>2016-10-29T06:32:32Z</time>
      </trkpt>
      <trkpt lat="42.403708000" lon="-2.626580000">
        <ele>636.70</ele>
        <time>2016-10-29T06:32:33Z</time>
      </trkpt>
      <trkpt lat="42.403709000" lon="-2.626579000">
        <ele>636.90</ele>
        <time>2016-10-29T06:32:34Z</time>
      </trkpt>
      <trkpt lat="42.403710000" lon="-2.626578000">
        <ele>637.00</ele>
        <time>2016-10-29T06:32:35Z</time>
      </trkpt>
      <trkpt lat="42.403710000" lon="-2.626578000">
        <ele>637.10</ele>
        <time>2016-10-29T06:32:36Z</time>
      </trkpt>
      <trkpt lat="42.403710000" lon="-2.626576000">
        <ele>637.10</ele>
        <time>2016-10-29T06:32:37Z</time>
      </trkpt>
      <trkpt lat="42.403708000" lon="-2.626574000">
        <ele>637.20</ele>
        <time>2016-10-29T06:32:38Z</time>
      </trkpt>
      <trkpt lat="42.403708000" lon="-2.626570000">
        <ele>637.20</ele>
        <time>2016-10-29T06:32:39Z</time>
      </trkpt>
      <trkpt lat="42.403710000" lon="-2.626571000">
        <ele>637.10</ele>
        <time>2016-10-29T06:32:40Z</time>
      </trkpt>
      <trkpt lat="42.403710000" lon="-2.626570000">
        <ele>637.00</ele>
        <time>2016-10-29T06:32:41Z</time>
      </trkpt>
      <trkpt lat="42.403711000" lon="-2.626571000">
        <ele>636.90</ele>
        <time>2016-10-29T06:32:42Z</time>
      </trkpt>
      <trkpt lat="42.403710000" lon="-2.626568000">
        <ele>636.80</ele>
        <time>2016-10-29T06:32:43Z</time>
      </trkpt>
      <trkpt lat="42.403709000" lon="-2.626568000">
        <ele>636.80</ele>
        <time>2016-10-29T06:32:44Z</time>
      </trkpt>
      <trkpt lat="42.403707000" lon="-2.626569000">
        <ele>636.70</ele>
        <time>2016-10-29T06:32:45Z</time>
      </trkpt>
      <trkpt lat="42.403703000" lon="-2.626569000">
        <ele>636.70</ele>
        <time>2016-10-29T06:32:46Z</time>
      </trkpt>
      <trkpt lat="42.403702000" lon="-2.626570000">
        <ele>636.60</ele>
        <time>2016-10-29T06:32:47Z</time>
      </trkpt>
      <trkpt lat="42.403701000" lon="-2.626572000">
        <ele>636.60</ele>
        <time>2016-10-29T06:32:48Z</time>
      </trkpt>
      <trkpt lat="42.403697000" lon="-2.626572000">
        <ele>636.60</ele>
        <time>2016-10-29T06:32:49Z</time>
      </trkpt>
      <trkpt lat="42.403697000" lon="-2.626575000">
        <ele>636.70</ele>
        <time>2016-10-29T06:32:50Z</time>
      </trkpt>
      <trkpt lat="42.403696000" lon="-2.626576000">
        <ele>636.70</ele>
        <time>2016-10-29T06:32:51Z</time>
      </trkpt>
      <trkpt lat="42.403694000" lon="-2.626577000">
        <ele>636.70</ele>
        <time>2016-10-29T06:32:52Z</time>
      </trkpt>
      <trkpt lat="42.403693000" lon="-2.626579000">
        <ele>636.70</ele>
        <time>2016-10-29T06:32:53Z</time>
      </trkpt>
      <trkpt lat="42.403692000" lon="-2.626579000">
        <ele>636.80</ele>
        <time>2016-10-29T06:32:54Z</time>
      </trkpt>
      <trkpt lat="42.403691000" lon="-2.626581000">
        <ele>636.80</ele>
        <time>2016-10-29T06:32:55Z</time>
      </trkpt>
      <trkpt lat="42.403691000" lon="-2.626579000">
        <ele>636.60</ele>
        <time>2016-10-29T06:32:56Z</time>
      </trkpt>
      <trkpt lat="42.403692000" lon="-2.626581000">
        <ele>636.50</ele>
        <time>2016-10-29T06:32:57Z</time>
      </trkpt>
      <trkpt lat="42.403693000" lon="-2.626584000">
        <ele>636.40</ele>
        <time>2016-10-29T06:32:58Z</time>
      </trkpt>
      <trkpt lat="42.403693000" lon="-2.626585000">
        <ele>636.30</ele>
        <time>2016-10-29T06:32:59Z</time>
      </trkpt>
      <trkpt lat="42.403693000" lon="-2.626585000">
        <ele>636.30</ele>
        <time>2016-10-29T06:33:00Z</time>
      </trkpt>
      <trkpt lat="42.403696000" lon="-2.626585000">
        <ele>636.20</ele>
        <time>2016-10-29T06:33:01Z</time>
      </trkpt>
      <trkpt lat="42.403697000" lon="-2.626587000">
        <ele>636.30</ele>
        <time>2016-10-29T06:33:02Z</time>
      </trkpt>
      <trkpt lat="42.403694000" lon="-2.626586000">
        <ele>636.40</ele>
        <time>2016-10-29T06:33:03Z</time>
      </trkpt>
      <trkpt lat="42.403692000" lon="-2.626584000">
        <ele>636.40</ele>
        <time>2016-10-29T06:33:04Z</time>
      </trkpt>
      <trkpt lat="42.403694000" lon="-2.626585000">
        <ele>636.50</ele>
        <time>2016-10-29T06:33:05Z</time>
      </trkpt>
      <trkpt lat="42.403696000" lon="-2.626585000">
        <ele>636.30</ele>
        <time>2016-10-29T06:33:06Z</time>
      </trkpt>
      <trkpt lat="42.403693000" lon="-2.626584000">
        <ele>636.20</ele>
        <time>2016-10-29T06:33:07Z</time>
      </trkpt>
      <trkpt lat="42.403692000" lon="-2.626583000">
        <ele>636.10</ele>
        <time>2016-10-29T06:33:08Z</time>
      </trkpt>
      <trkpt lat="42.403693000" lon="-2.626585000">
        <ele>636.00</ele>
        <time>2016-10-29T06:33:09Z</time>
      </trkpt>
      <trkpt lat="42.403691000" lon="-2.626584000">
        <ele>636.10</ele>
        <time>2016-10-29T06:33:10Z</time>
      </trkpt>
      <trkpt lat="42.403691000" lon="-2.626585000">
        <ele>636.20</ele>
        <time>2016-10-29T06:33:11Z</time>
      </trkpt>
      <trkpt lat="42.403691000" lon="-2.626583000">
        <ele>636.30</ele>
        <time>2016-10-29T06:33:12Z</time>
      </trkpt>
      <trkpt lat="42.403691000" lon="-2.626583000">
        <ele>636.30</ele>
        <time>2016-10-29T06:33:13Z</time>
      </trkpt>
      <trkpt lat="42.403690000" lon="-2.626584000">
        <ele>636.40</ele>
        <time>2016-10-29T06:33:14Z</time>
      </trkpt>
      <trkpt lat="42.403688000" lon="-2.626583000">
        <ele>636.50</ele>
        <time>2016-10-29T06:33:16Z</time>
      </trkpt>
      <trkpt lat="42.403685000" lon="-2.626587000">
        <ele>636.50</ele>
        <time>2016-10-29T06:33:17Z</time>
      </trkpt>
      <trkpt lat="42.403682000" lon="-2.626590000">
        <ele>636.50</ele>
        <time>2016-10-29T06:33:18Z</time>
      </trkpt>
      <trkpt lat="42.403681000" lon="-2.626594000">
        <ele>636.40</ele>
        <time>2016-10-29T06:33:19Z</time>
      </trkpt>
      <trkpt lat="42.403679000" lon="-2.626597000">
        <ele>636.40</ele>
        <time>2016-10-29T06:33:20Z</time>
      </trkpt>
      <trkpt lat="42.403678000" lon="-2.626598000">
        <ele>636.40</ele>
        <time>2016-10-29T06:33:21Z</time>
      </trkpt>
      <trkpt lat="42.403678000" lon="-2.626600000">
        <ele>636.40</ele>
        <time>2016-10-29T06:33:22Z</time>
      </trkpt>
      <trkpt lat="42.403679000" lon="-2.626601000">
        <ele>636.40</ele>
        <time>2016-10-29T06:33:23Z</time>
      </trkpt>
      <trkpt lat="42.403679000" lon="-2.626601000">
        <ele>636.30</ele>
        <time>2016-10-29T06:33:24Z</time>
      </trkpt>
      <trkpt lat="42.403680000" lon="-2.626602000">
        <ele>636.30</ele>
        <time>2016-10-29T06:33:25Z</time>
      </trkpt>
      <trkpt lat="42.403680000" lon="-2.626602000">
        <ele>636.20</ele>
        <time>2016-10-29T06:33:26Z</time>
      </trkpt>
      <trkpt lat="42.403682000" lon="-2.626602000">
        <ele>636.20</ele>
        <time>2016-10-29T06:33:27Z</time>
      </trkpt>
      <trkpt lat="42.403683000" lon="-2.626600000">
        <ele>636.30</ele>
        <time>2016-10-29T06:33:28Z</time>
      </trkpt>
      <trkpt lat="42.403684000" lon="-2.626598000">
        <ele>636.40</ele>
        <time>2016-10-29T06:33:29Z</time>
      </trkpt>
      <trkpt lat="42.403686000" lon="-2.626596000">
        <ele>636.40</ele>
        <time>2016-10-29T06:33:30Z</time>
      </trkpt>
      <trkpt lat="42.403689000" lon="-2.626599000">
        <ele>636.40</ele>
        <time>2016-10-29T06:33:31Z</time>
      </trkpt>
      <trkpt lat="42.403690000" lon="-2.626602000">
        <ele>636.50</ele>
        <time>2016-10-29T06:33:32Z</time>
      </trkpt>
      <trkpt lat="42.403690000" lon="-2.626604000">
        <ele>636.50</ele>
        <time>2016-10-29T06:33:33Z</time>
      </trkpt>
      <trkpt lat="42.403690000" lon="-2.626605000">
        <ele>636.50</ele>
        <time>2016-10-29T06:33:34Z</time>
      </trkpt>
      <trkpt lat="42.403690000" lon="-2.626606000">
        <ele>636.50</ele>
        <time>2016-10-29T06:33:35Z</time>
      </trkpt>
      <trkpt lat="42.403691000" lon="-2.626608000">
        <ele>636.50</ele>
        <time>2016-10-29T06:33:36Z</time>
      </trkpt>
      <trkpt lat="42.403694000" lon="-2.626609000">
        <ele>636.50</ele>
        <time>2016-10-29T06:33:37Z</time>
      </trkpt>
      <trkpt lat="42.403693000" lon="-2.626609000">
        <ele>636.50</ele>
        <time>2016-10-29T06:33:38Z</time>
      </trkpt>
      <trkpt lat="42.403694000" lon="-2.626607000">
        <ele>636.50</ele>
        <time>2016-10-29T06:33:39Z</time>
      </trkpt>
      <trkpt lat="42.403697000" lon="-2.626600000">
        <ele>636.50</ele>
        <time>2016-10-29T06:33:40Z</time>
      </trkpt>
      <trkpt lat="42.403701000" lon="-2.626595000">
        <ele>636.50</ele>
        <time>2016-10-29T06:33:41Z</time>
      </trkpt>
      <trkpt lat="42.403705000" lon="-2.626594000">
        <ele>636.60</ele>
        <time>2016-10-29T06:33:42Z</time>
      </trkpt>
      <trkpt lat="42.403709000" lon="-2.626595000">
        <ele>636.60</ele>
        <time>2016-10-29T06:33:43Z</time>
      </trkpt>
      <trkpt lat="42.403710000" lon="-2.626599000">
        <ele>636.60</ele>
        <time>2016-10-29T06:33:44Z</time>
      </trkpt>
      <trkpt lat="42.403710000" lon="-2.626602000">
        <ele>636.60</ele>
        <time>2016-10-29T06:33:45Z</time>
      </trkpt>
      <trkpt lat="42.403712000" lon="-2.626605000">
        <ele>636.60</ele>
        <time>2016-10-29T06:33:46Z</time>
      </trkpt>
      <trkpt lat="42.403714000" lon="-2.626606000">
        <ele>636.60</ele>
        <time>2016-10-29T06:33:47Z</time>
      </trkpt>
      <trkpt lat="42.403713000" lon="-2.626607000">
        <ele>636.60</ele>
        <time>2016-10-29T06:33:48Z</time>
      </trkpt>
      <trkpt lat="42.403712000" lon="-2.626608000">
        <ele>636.60</ele>
        <time>2016-10-29T06:33:49Z</time>
      </trkpt>
      <trkpt lat="42.403710000" lon="-2.626608000">
        <ele>636.50</ele>
        <time>2016-10-29T06:33:50Z</time>
      </trkpt>
      <trkpt lat="42.403709000" lon="-2.626610000">
        <ele>636.50</ele>
        <time>2016-10-29T06:33:51Z</time>
      </trkpt>
      <trkpt lat="42.403708000" lon="-2.626610000">
        <ele>636.50</ele>
        <time>2016-10-29T06:33:52Z</time>
      </trkpt>
      <trkpt lat="42.403709000" lon="-2.626612000">
        <ele>636.40</ele>
        <time>2016-10-29T06:33:53Z</time>
      </trkpt>
      <trkpt lat="42.403710000" lon="-2.626608000">
        <ele>636.40</ele>
        <time>2016-10-29T06:33:54Z</time>
      </trkpt>
      <trkpt lat="42.403711000" lon="-2.626609000">
        <ele>636.40</ele>
        <time>2016-10-29T06:33:55Z</time>
      </trkpt>
      <trkpt lat="42.403713000" lon="-2.626609000">
        <ele>636.40</ele>
        <time>2016-10-29T06:33:56Z</time>
      </trkpt>
      <trkpt lat="42.403714000" lon="-2.626607000">
        <ele>636.40</ele>
        <time>2016-10-29T06:33:57Z</time>
      </trkpt>
      <trkpt lat="42.403715000" lon="-2.626606000">
        <ele>636.40</ele>
        <time>2016-10-29T06:33:58Z</time>
      </trkpt>
      <trkpt lat="42.403714000" lon="-2.626605000">
        <ele>636.40</ele>
        <time>2016-10-29T06:33:59Z</time>
      </trkpt>
      <trkpt lat="42.403715000" lon="-2.626603000">
        <ele>636.40</ele>
        <time>2016-10-29T06:34:00Z</time>
      </trkpt>
      <trkpt lat="42.403715000" lon="-2.626602000">
        <ele>636.50</ele>
        <time>2016-10-29T06:34:01Z</time>
      </trkpt>
      <trkpt lat="42.403716000" lon="-2.626602000">
        <ele>636.50</ele>
        <time>2016-10-29T06:34:02Z</time>
      </trkpt>
      <trkpt lat="42.403717000" lon="-2.626597000">
        <ele>636.60</ele>
        <time>2016-10-29T06:34:03Z</time>
      </trkpt>
      <trkpt lat="42.403719000" lon="-2.626593000">
        <ele>636.60</ele>
        <time>2016-10-29T06:34:04Z</time>
      </trkpt>
      <trkpt lat="42.403722000" lon="-2.626589000">
        <ele>636.60</ele>
        <time>2016-10-29T06:34:05Z</time>
      </trkpt>
      <trkpt lat="42.403724000" lon="-2.626585000">
        <ele>636.80</ele>
        <time>2016-10-29T06:34:06Z</time>
      </trkpt>
      <trkpt lat="42.403724000" lon="-2.626584000">
        <ele>637.00</ele>
        <time>2016-10-29T06:34:07Z</time>
      </trkpt>
      <trkpt lat="42.403723000" lon="-2.626580000">
        <ele>637.20</ele>
        <time>2016-10-29T06:34:08Z</time>
      </trkpt>
      <trkpt lat="42.403723000" lon="-2.626578000">
        <ele>637.40</ele>
        <time>2016-10-29T06:34:09Z</time>
      </trkpt>
      <trkpt lat="42.403724000" lon="-2.626576000">
        <ele>637.40</ele>
        <time>2016-10-29T06:34:10Z</time>
      </trkpt>
      <trkpt lat="42.403723000" lon="-2.626575000">
        <ele>637.40</ele>
        <time>2016-10-29T06:34:11Z</time>
      </trkpt>
      <trkpt lat="42.403722000" lon="-2.626575000">
        <ele>637.30</ele>
        <time>2016-10-29T06:34:12Z</time>
      </trkpt>
      <trkpt lat="42.403719000" lon="-2.626573000">
        <ele>637.30</ele>
        <time>2016-10-29T06:34:13Z</time>
      </trkpt>
      <trkpt lat="42.403716000" lon="-2.626570000">
        <ele>637.30</ele>
        <time>2016-10-29T06:34:14Z</time>
      </trkpt>
      <trkpt lat="42.403715000" lon="-2.626568000">
        <ele>637.20</ele>
        <time>2016-10-29T06:34:15Z</time>
      </trkpt>
      <trkpt lat="42.403713000" lon="-2.626566000">
        <ele>637.00</ele>
        <time>2016-10-29T06:34:17Z</time>
      </trkpt>
      <trkpt lat="42.403712000" lon="-2.626567000">
        <ele>637.00</ele>
        <time>2016-10-29T06:34:18Z</time>
      </trkpt>
      <trkpt lat="42.403709000" lon="-2.626568000">
        <ele>637.10</ele>
        <time>2016-10-29T06:34:19Z</time>
      </trkpt>
      <trkpt lat="42.403707000" lon="-2.626569000">
        <ele>637.00</ele>
        <time>2016-10-29T06:34:20Z</time>
      </trkpt>
      <trkpt lat="42.403703000" lon="-2.626568000">
        <ele>636.90</ele>
        <time>2016-10-29T06:34:21Z</time>
      </trkpt>
      <trkpt lat="42.403701000" lon="-2.626570000">
        <ele>636.80</ele>
        <time>2016-10-29T06:34:22Z</time>
      </trkpt>
      <trkpt lat="42.403698000" lon="-2.626574000">
        <ele>636.80</ele>
        <time>2016-10-29T06:34:23Z</time>
      </trkpt>
      <trkpt lat="42.403695000" lon="-2.626577000">
        <ele>636.70</ele>
        <time>2016-10-29T06:34:24Z</time>
      </trkpt>
      <trkpt lat="42.403694000" lon="-2.626581000">
        <ele>636.60</ele>
        <time>2016-10-29T06:34:25Z</time>
      </trkpt>
      <trkpt lat="42.403690000" lon="-2.626582000">
        <ele>636.50</ele>
        <time>2016-10-29T06:34:26Z</time>
      </trkpt>
      <trkpt lat="42.403686000" lon="-2.626585000">
        <ele>636.40</ele>
        <time>2016-10-29T06:34:27Z</time>
      </trkpt>
      <trkpt lat="42.403683000" lon="-2.626586000">
        <ele>636.30</ele>
        <time>2016-10-29T06:34:28Z</time>
      </trkpt>
      <trkpt lat="42.403681000" lon="-2.626588000">
        <ele>636.20</ele>
        <time>2016-10-29T06:34:29Z</time>
      </trkpt>
      <trkpt lat="42.403681000" lon="-2.626588000">
        <ele>636.20</ele>
        <time>2016-10-29T06:34:30Z</time>
      </trkpt>
      <trkpt lat="42.403679000" lon="-2.626592000">
        <ele>636.20</ele>
        <time>2016-10-29T06:34:31Z</time>
      </trkpt>
      <trkpt lat="42.403676000" lon="-2.626593000">
        <ele>636.50</ele>
        <time>2016-10-29T06:34:32Z</time>
      </trkpt>
      <trkpt lat="42.403673000" lon="-2.626595000">
        <ele>636.70</ele>
        <time>2016-10-29T06:34:33Z</time>
      </trkpt>
      <trkpt lat="42.403669000" lon="-2.626594000">
        <ele>636.90</ele>
        <time>2016-10-29T06:34:34Z</time>
      </trkpt>
      <trkpt lat="42.403668000" lon="-2.626594000">
        <ele>637.00</ele>
        <time>2016-10-29T06:34:35Z</time>
      </trkpt>
      <trkpt lat="42.403668000" lon="-2.626592000">
        <ele>637.10</ele>
        <time>2016-10-29T06:34:36Z</time>
      </trkpt>
      <trkpt lat="42.403668000" lon="-2.626592000">
        <ele>637.10</ele>
        <time>2016-10-29T06:34:37Z</time>
      </trkpt>
      <trkpt lat="42.403666000" lon="-2.626591000">
        <ele>637.10</ele>
        <time>2016-10-29T06:34:38Z</time>
      </trkpt>
      <trkpt lat="42.403667000" lon="-2.626589000">
        <ele>637.10</ele>
        <time>2016-10-29T06:34:39Z</time>
      </trkpt>
      <trkpt lat="42.403666000" lon="-2.626589000">
        <ele>637.10</ele>
        <time>2016-10-29T06:34:40Z</time>
      </trkpt>
      <trkpt lat="42.403667000" lon="-2.626588000">
        <ele>637.10</ele>
        <time>2016-10-29T06:34:41Z</time>
      </trkpt>
      <trkpt lat="42.403671000" lon="-2.626591000">
        <ele>637.10</ele>
        <time>2016-10-29T06:34:42Z</time>
      </trkpt>
      <trkpt lat="42.403675000" lon="-2.626590000">
        <ele>637.10</ele>
        <time>2016-10-29T06:34:43Z</time>
      </trkpt>
      <trkpt lat="42.403678000" lon="-2.626588000">
        <ele>637.00</ele>
        <time>2016-10-29T06:34:44Z</time>
      </trkpt>
      <trkpt lat="42.403681000" lon="-2.626588000">
        <ele>636.80</ele>
        <time>2016-10-29T06:34:45Z</time>
      </trkpt>
      <trkpt lat="42.403682000" lon="-2.626589000">
        <ele>636.80</ele>
        <time>2016-10-29T06:34:46Z</time>
      </trkpt>
      <trkpt lat="42.403680000" lon="-2.626589000">
        <ele>636.70</ele>
        <time>2016-10-29T06:34:47Z</time>
      </trkpt>
      <trkpt lat="42.403681000" lon="-2.626589000">
        <ele>636.90</ele>
        <time>2016-10-29T06:34:48Z</time>
      </trkpt>
      <trkpt lat="42.403683000" lon="-2.626590000">
        <ele>637.00</ele>
        <time>2016-10-29T06:34:49Z</time>
      </trkpt>
      <trkpt lat="42.403684000" lon="-2.626589000">
        <ele>637.10</ele>
        <time>2016-10-29T06:34:50Z</time>
      </trkpt>
      <trkpt lat="42.403687000" lon="-2.626589000">
        <ele>637.20</ele>
        <time>2016-10-29T06:34:51Z</time>
      </trkpt>
      <trkpt lat="42.403687000" lon="-2.626589000">
        <ele>637.10</ele>
        <time>2016-10-29T06:34:52Z</time>
      </trkpt>
      <trkpt lat="42.403686000" lon="-2.626588000">
        <ele>637.00</ele>
        <time>2016-10-29T06:34:53Z</time>
      </trkpt>
      <trkpt lat="42.403685000" lon="-2.626585000">
        <ele>636.90</ele>
        <time>2016-10-29T06:34:54Z</time>
      </trkpt>
      <trkpt lat="42.403687000" lon="-2.626580000">
        <ele>636.90</ele>
        <time>2016-10-29T06:34:55Z</time>
      </trkpt>
      <trkpt lat="42.403688000" lon="-2.626580000">
        <ele>637.00</ele>
        <time>2016-10-29T06:34:56Z</time>
      </trkpt>
      <trkpt lat="42.403693000" lon="-2.626580000">
        <ele>637.10</ele>
        <time>2016-10-29T06:34:57Z</time>
      </trkpt>
      <trkpt lat="42.403695000" lon="-2.626580000">
        <ele>637.20</ele>
        <time>2016-10-29T06:34:58Z</time>
      </trkpt>
      <trkpt lat="42.403695000" lon="-2.626577000">
        <ele>637.20</ele>
        <time>2016-10-29T06:34:59Z</time>
      </trkpt>
      <trkpt lat="42.403699000" lon="-2.626575000">
        <ele>637.10</ele>
        <time>2016-10-29T06:35:00Z</time>
      </trkpt>
      <trkpt lat="42.403702000" lon="-2.626573000">
        <ele>637.00</ele>
        <time>2016-10-29T06:35:01Z</time>
      </trkpt>
      <trkpt lat="42.403704000" lon="-2.626574000">
        <ele>636.90</ele>
        <time>2016-10-29T06:35:02Z</time>
      </trkpt>
      <trkpt lat="42.403704000" lon="-2.626572000">
        <ele>636.90</ele>
        <time>2016-10-29T06:35:03Z</time>
      </trkpt>
      <trkpt lat="42.403705000" lon="-2.626571000">
        <ele>637.00</ele>
        <time>2016-10-29T06:35:04Z</time>
      </trkpt>
      <trkpt lat="42.403704000" lon="-2.626569000">
        <ele>637.00</ele>
        <time>2016-10-29T06:35:05Z</time>
      </trkpt>
      <trkpt lat="42.403704000" lon="-2.626570000">
        <ele>637.10</ele>
        <time>2016-10-29T06:35:06Z</time>
      </trkpt>
      <trkpt lat="42.403702000" lon="-2.626572000">
        <ele>637.10</ele>
        <time>2016-10-29T06:35:07Z</time>
      </trkpt>
      <trkpt lat="42.403701000" lon="-2.626573000">
        <ele>637.00</ele>
        <time>2016-10-29T06:35:08Z</time>
      </trkpt>
      <trkpt lat="42.403704000" lon="-2.626573000">
        <ele>637.00</ele>
        <time>2016-10-29T06:35:09Z</time>
      </trkpt>
      <trkpt lat="42.403707000" lon="-2.626573000">
        <ele>636.90</ele>
        <time>2016-10-29T06:35:10Z</time>
      </trkpt>
      <trkpt lat="42.403707000" lon="-2.626574000">
        <ele>636.90</ele>
        <time>2016-10-29T06:35:11Z</time>
      </trkpt>
      <trkpt lat="42.403706000" lon="-2.626574000">
        <ele>636.80</ele>
        <time>2016-10-29T06:35:12Z</time>
      </trkpt>
      <trkpt lat="42.403708000" lon="-2.626577000">
        <ele>636.80</ele>
        <time>2016-10-29T06:35:13Z</time>
      </trkpt>
      <trkpt lat="42.403708000" lon="-2.626578000">
        <ele>636.90</ele>
        <time>2016-10-29T06:35:14Z</time>
      </trkpt>
      <trkpt lat="42.403709000" lon="-2.626579000">
        <ele>637.00</ele>
        <time>2016-10-29T06:35:15Z</time>
      </trkpt>
      <trkpt lat="42.403709000" lon="-2.626582000">
        <ele>637.10</ele>
        <time>2016-10-29T06:35:16Z</time>
      </trkpt>
      <trkpt lat="42.403706000" lon="-2.626577000">
        <ele>637.00</ele>
        <time>2016-10-29T06:35:18Z</time>
      </trkpt>
      <trkpt lat="42.403706000" lon="-2.626577000">
        <ele>636.90</ele>
        <time>2016-10-29T06:35:19Z</time>
      </trkpt>
      <trkpt lat="42.403707000" lon="-2.626578000">
        <ele>636.80</ele>
        <time>2016-10-29T06:35:20Z</time>
      </trkpt>
      <trkpt lat="42.403705000" lon="-2.626578000">
        <ele>636.70</ele>
        <time>2016-10-29T06:35:21Z</time>
      </trkpt>
      <trkpt lat="42.403704000" lon="-2.626577000">
        <ele>636.70</ele>
        <time>2016-10-29T06:35:22Z</time>
      </trkpt>
      <trkpt lat="42.403704000" lon="-2.626577000">
        <ele>636.70</ele>
        <time>2016-10-29T06:35:23Z</time>
      </trkpt>
      <trkpt lat="42.403703000" lon="-2.626579000">
        <ele>636.70</ele>
        <time>2016-10-29T06:35:24Z</time>
      </trkpt>
      <trkpt lat="42.403703000" lon="-2.626580000">
        <ele>636.70</ele>
        <time>2016-10-29T06:35:25Z</time>
      </trkpt>
      <trkpt lat="42.403702000" lon="-2.626579000">
        <ele>636.70</ele>
        <time>2016-10-29T06:35:26Z</time>
      </trkpt>
      <trkpt lat="42.403702000" lon="-2.626581000">
        <ele>636.70</ele>
        <time>2016-10-29T06:35:27Z</time>
      </trkpt>
      <trkpt lat="42.403701000" lon="-2.626585000">
        <ele>636.70</ele>
        <time>2016-10-29T06:35:28Z</time>
      </trkpt>
      <trkpt lat="42.403699000" lon="-2.626583000">
        <ele>636.70</ele>
        <time>2016-10-29T06:35:29Z</time>
      </trkpt>
      <trkpt lat="42.403699000" lon="-2.626581000">
        <ele>636.70</ele>
        <time>2016-10-29T06:35:30Z</time>
      </trkpt>
      <trkpt lat="42.403700000" lon="-2.626581000">
        <ele>636.70</ele>
        <time>2016-10-29T06:35:31Z</time>
      </trkpt>
      <trkpt lat="42.403699000" lon="-2.626581000">
        <ele>636.70</ele>
        <time>2016-10-29T06:35:32Z</time>
      </trkpt>
      <trkpt lat="42.403699000" lon="-2.626582000">
        <ele>636.70</ele>
        <time>2016-10-29T06:35:33Z</time>
      </trkpt>
      <trkpt lat="42.403703000" lon="-2.626584000">
        <ele>636.70</ele>
        <time>2016-10-29T06:35:34Z</time>
      </trkpt>
      <trkpt lat="42.403703000" lon="-2.626580000">
        <ele>636.70</ele>
        <time>2016-10-29T06:35:35Z</time>
      </trkpt>
      <trkpt lat="42.403702000" lon="-2.626583000">
        <ele>636.60</ele>
        <time>2016-10-29T06:35:36Z</time>
      </trkpt>
      <trkpt lat="42.403703000" lon="-2.626586000">
        <ele>636.50</ele>
        <time>2016-10-29T06:35:37Z</time>
      </trkpt>
      <trkpt lat="42.403704000" lon="-2.626586000">
        <ele>636.50</ele>
        <time>2016-10-29T06:35:38Z</time>
      </trkpt>
      <trkpt lat="42.403704000" lon="-2.626587000">
        <ele>636.50</ele>
        <time>2016-10-29T06:35:39Z</time>
      </trkpt>
      <trkpt lat="42.403705000" lon="-2.626587000">
        <ele>636.50</ele>
        <time>2016-10-29T06:35:40Z</time>
      </trkpt>
      <trkpt lat="42.403704000" lon="-2.626586000">
        <ele>636.50</ele>
        <time>2016-10-29T06:35:41Z</time>
      </trkpt>
      <trkpt lat="42.403705000" lon="-2.626587000">
        <ele>636.50</ele>
        <time>2016-10-29T06:35:42Z</time>
      </trkpt>
      <trkpt lat="42.403706000" lon="-2.626587000">
        <ele>636.50</ele>
        <time>2016-10-29T06:35:43Z</time>
      </trkpt>
      <trkpt lat="42.403707000" lon="-2.626589000">
        <ele>636.50</ele>
        <time>2016-10-29T06:35:44Z</time>
      </trkpt>
      <trkpt lat="42.403708000" lon="-2.626590000">
        <ele>636.50</ele>
        <time>2016-10-29T06:35:45Z</time>
      </trkpt>
      <trkpt lat="42.403710000" lon="-2.626590000">
        <ele>636.50</ele>
        <time>2016-10-29T06:35:46Z</time>
      </trkpt>
      <trkpt lat="42.403713000" lon="-2.626590000">
        <ele>636.60</ele>
        <time>2016-10-29T06:35:47Z</time>
      </trkpt>
      <trkpt lat="42.403716000" lon="-2.626590000">
        <ele>636.50</ele>
        <time>2016-10-29T06:35:48Z</time>
      </trkpt>
      <trkpt lat="42.403720000" lon="-2.626593000">
        <ele>636.50</ele>
        <time>2016-10-29T06:35:49Z</time>
      </trkpt>
      <trkpt lat="42.403723000" lon="-2.626594000">
        <ele>636.40</ele>
        <time>2016-10-29T06:35:50Z</time>
      </trkpt>
      <trkpt lat="42.403728000" lon="-2.626593000">
        <ele>636.40</ele>
        <time>2016-10-29T06:35:51Z</time>
      </trkpt>
      <trkpt lat="42.403731000" lon="-2.626591000">
        <ele>636.40</ele>
        <time>2016-10-29T06:35:52Z</time>
      </trkpt>
      <trkpt lat="42.403733000" lon="-2.626592000">
        <ele>636.30</ele>
        <time>2016-10-29T06:35:53Z</time>
      </trkpt>
      <trkpt lat="42.403738000" lon="-2.626586000">
        <ele>636.30</ele>
        <time>2016-10-29T06:35:54Z</time>
      </trkpt>
      <trkpt lat="42.403738000" lon="-2.626587000">
        <ele>636.30</ele>
        <time>2016-10-29T06:35:55Z</time>
      </trkpt>
      <trkpt lat="42.403739000" lon="-2.626588000">
        <ele>636.40</ele>
        <time>2016-10-29T06:35:56Z</time>
      </trkpt>
      <trkpt lat="42.403738000" lon="-2.626590000">
        <ele>636.40</ele>
        <time>2016-10-29T06:35:57Z</time>
      </trkpt>
      <trkpt lat="42.403738000" lon="-2.626588000">
        <ele>636.50</ele>
        <time>2016-10-29T06:35:58Z</time>
      </trkpt>
      <trkpt lat="42.403739000" lon="-2.626588000">
        <ele>636.50</ele>
        <time>2016-10-29T06:35:59Z</time>
      </trkpt>
      <trkpt lat="42.403739000" lon="-2.626584000">
        <ele>636.50</ele>
        <time>2016-10-29T06:36:00Z</time>
      </trkpt>
      <trkpt lat="42.403739000" lon="-2.626584000">
        <ele>636.50</ele>
        <time>2016-10-29T06:36:01Z</time>
      </trkpt>
      <trkpt lat="42.403739000" lon="-2.626581000">
        <ele>636.50</ele>
        <time>2016-10-29T06:36:02Z</time>
      </trkpt>
      <trkpt lat="42.403740000" lon="-2.626576000">
        <ele>636.50</ele>
        <time>2016-10-29T06:36:03Z</time>
      </trkpt>
      <trkpt lat="42.403739000" lon="-2.626572000">
        <ele>636.50</ele>
        <time>2016-10-29T06:36:04Z</time>
      </trkpt>
      <trkpt lat="42.403740000" lon="-2.626571000">
        <ele>636.50</ele>
        <time>2016-10-29T06:36:05Z</time>
      </trkpt>
      <trkpt lat="42.403739000" lon="-2.626569000">
        <ele>636.50</ele>
        <time>2016-10-29T06:36:06Z</time>
      </trkpt>
      <trkpt lat="42.403737000" lon="-2.626568000">
        <ele>636.50</ele>
        <time>2016-10-29T06:36:07Z</time>
      </trkpt>
      <trkpt lat="42.403736000" lon="-2.626565000">
        <ele>636.40</ele>
        <time>2016-10-29T06:36:08Z</time>
      </trkpt>
      <trkpt lat="42.403738000" lon="-2.626563000">
        <ele>636.40</ele>
        <time>2016-10-29T06:36:09Z</time>
      </trkpt>
      <trkpt lat="42.403739000" lon="-2.626561000">
        <ele>636.50</ele>
        <time>2016-10-29T06:36:10Z</time>
      </trkpt>
      <trkpt lat="42.403737000" lon="-2.626561000">
        <ele>636.60</ele>
        <time>2016-10-29T06:36:11Z</time>
      </trkpt>
      <trkpt lat="42.403736000" lon="-2.626562000">
        <ele>636.70</ele>
        <time>2016-10-29T06:36:12Z</time>
      </trkpt>
      <trkpt lat="42.403736000" lon="-2.626562000">
        <ele>636.70</ele>
        <time>2016-10-29T06:36:13Z</time>
      </trkpt>
      <trkpt lat="42.403734000" lon="-2.626560000">
        <ele>636.70</ele>
        <time>2016-10-29T06:36:14Z</time>
      </trkpt>
      <trkpt lat="42.403734000" lon="-2.626558000">
        <ele>636.70</ele>
        <time>2016-10-29T06:36:15Z</time>
      </trkpt>
      <trkpt lat="42.403733000" lon="-2.626558000">
        <ele>636.80</ele>
        <time>2016-10-29T06:36:16Z</time>
      </trkpt>
      <trkpt lat="42.403734000" lon="-2.626557000">
        <ele>636.80</ele>
        <time>2016-10-29T06:36:17Z</time>
      </trkpt>
      <trkpt lat="42.403736000" lon="-2.626552000">
        <ele>636.80</ele>
        <time>2016-10-29T06:36:19Z</time>
      </trkpt>
      <trkpt lat="42.403737000" lon="-2.626555000">
        <ele>636.70</ele>
        <time>2016-10-29T06:36:20Z</time>
      </trkpt>
      <trkpt lat="42.403738000" lon="-2.626556000">
        <ele>636.70</ele>
        <time>2016-10-29T06:36:21Z</time>
      </trkpt>
      <trkpt lat="42.403737000" lon="-2.626558000">
        <ele>636.70</ele>
        <time>2016-10-29T06:36:22Z</time>
      </trkpt>
      <trkpt lat="42.403736000" lon="-2.626559000">
        <ele>636.60</ele>
        <time>2016-10-29T06:36:23Z</time>
      </trkpt>
      <trkpt lat="42.403735000" lon="-2.626561000">
        <ele>636.60</ele>
        <time>2016-10-29T06:36:24Z</time>
      </trkpt>
      <trkpt lat="42.403737000" lon="-2.626561000">
        <ele>636.60</ele>
        <time>2016-10-29T06:36:25Z</time>
      </trkpt>
      <trkpt lat="42.403738000" lon="-2.626563000">
        <ele>636.50</ele>
        <time>2016-10-29T06:36:26Z</time>
      </trkpt>
      <trkpt lat="42.403738000" lon="-2.626565000">
        <ele>636.40</ele>
        <time>2016-10-29T06:36:27Z</time>
      </trkpt>
      <trkpt lat="42.403740000" lon="-2.626569000">
        <ele>636.30</ele>
        <time>2016-10-29T06:36:28Z</time>
      </trkpt>
      <trkpt lat="42.403741000" lon="-2.626570000">
        <ele>636.30</ele>
        <time>2016-10-29T06:36:29Z</time>
      </trkpt>
      <trkpt lat="42.403739000" lon="-2.626569000">
        <ele>636.20</ele>
        <time>2016-10-29T06:36:30Z</time>
      </trkpt>
      <trkpt lat="42.403739000" lon="-2.626569000">
        <ele>636.20</ele>
        <time>2016-10-29T06:36:31Z</time>
      </trkpt>
      <trkpt lat="42.403738000" lon="-2.626567000">
        <ele>636.20</ele>
        <time>2016-10-29T06:36:32Z</time>
      </trkpt>
      <trkpt lat="42.403735000" lon="-2.626568000">
        <ele>636.30</ele>
        <time>2016-10-29T06:36:33Z</time>
      </trkpt>
      <trkpt lat="42.403732000" lon="-2.626570000">
        <ele>636.40</ele>
        <time>2016-10-29T06:36:34Z</time>
      </trkpt>
      <trkpt lat="42.403729000" lon="-2.626571000">
        <ele>636.50</ele>
        <time>2016-10-29T06:36:35Z</time>
      </trkpt>
      <trkpt lat="42.403727000" lon="-2.626573000">
        <ele>636.60</ele>
        <time>2016-10-29T06:36:36Z</time>
      </trkpt>
      <trkpt lat="42.403725000" lon="-2.626576000">
        <ele>636.60</ele>
        <time>2016-10-29T06:36:37Z</time>
      </trkpt>
      <trkpt lat="42.403725000" lon="-2.626579000">
        <ele>636.70</ele>
        <time>2016-10-29T06:36:38Z</time>
      </trkpt>
      <trkpt lat="42.403724000" lon="-2.626581000">
        <ele>636.70</ele>
        <time>2016-10-29T06:36:39Z</time>
      </trkpt>
      <trkpt lat="42.403723000" lon="-2.626585000">
        <ele>636.60</ele>
        <time>2016-10-29T06:36:40Z</time>
      </trkpt>
      <trkpt lat="42.403721000" lon="-2.626589000">
        <ele>636.50</ele>
        <time>2016-10-29T06:36:41Z</time>
      </trkpt>
      <trkpt lat="42.403722000" lon="-2.626592000">
        <ele>636.50</ele>
        <time>2016-10-29T06:36:42Z</time>
      </trkpt>
      <trkpt lat="42.403720000" lon="-2.626590000">
        <ele>636.50</ele>
        <time>2016-10-29T06:36:43Z</time>
      </trkpt>
      <trkpt lat="42.403720000" lon="-2.626592000">
        <ele>636.50</ele>
        <time>2016-10-29T06:36:44Z</time>
      </trkpt>
      <trkpt lat="42.403718000" lon="-2.626595000">
        <ele>636.50</ele>
        <time>2016-10-29T06:36:45Z</time>
      </trkpt>
      <trkpt lat="42.403718000" lon="-2.626598000">
        <ele>636.60</ele>
        <time>2016-10-29T06:36:46Z</time>
      </trkpt>
      <trkpt lat="42.403718000" lon="-2.626599000">
        <ele>636.60</ele>
        <time>2016-10-29T06:36:47Z</time>
      </trkpt>
      <trkpt lat="42.403717000" lon="-2.626599000">
        <ele>636.70</ele>
        <time>2016-10-29T06:36:48Z</time>
      </trkpt>
      <trkpt lat="42.403717000" lon="-2.626598000">
        <ele>636.70</ele>
        <time>2016-10-29T06:36:49Z</time>
      </trkpt>
      <trkpt lat="42.403715000" lon="-2.626599000">
        <ele>636.70</ele>
        <time>2016-10-29T06:36:50Z</time>
      </trkpt>
      <trkpt lat="42.403714000" lon="-2.626599000">
        <ele>636.60</ele>
        <time>2016-10-29T06:36:51Z</time>
      </trkpt>
      <trkpt lat="42.403713000" lon="-2.626598000">
        <ele>636.60</ele>
        <time>2016-10-29T06:36:52Z</time>
      </trkpt>
      <trkpt lat="42.403710000" lon="-2.626598000">
        <ele>636.50</ele>
        <time>2016-10-29T06:36:53Z</time>
      </trkpt>
      <trkpt lat="42.403707000" lon="-2.626601000">
        <ele>636.50</ele>
        <time>2016-10-29T06:36:54Z</time>
      </trkpt>
      <trkpt lat="42.403704000" lon="-2.626600000">
        <ele>636.50</ele>
        <time>2016-10-29T06:36:55Z</time>
      </trkpt>
      <trkpt lat="42.403701000" lon="-2.626601000">
        <ele>636.30</ele>
        <time>2016-10-29T06:36:56Z</time>
      </trkpt>
      <trkpt lat="42.403697000" lon="-2.626601000">
        <ele>636.20</ele>
        <time>2016-10-29T06:36:57Z</time>
      </trkpt>
      <trkpt lat="42.403694000" lon="-2.626600000">
        <ele>636.20</ele>
        <time>2016-10-29T06:36:58Z</time>
      </trkpt>
      <trkpt lat="42.403691000" lon="-2.626602000">
        <ele>636.10</ele>
        <time>2016-10-29T06:36:59Z</time>
      </trkpt>
      <trkpt lat="42.403688000" lon="-2.626604000">
        <ele>636.10</ele>
        <time>2016-10-29T06:37:00Z</time>
      </trkpt>
      <trkpt lat="42.403685000" lon="-2.626605000">
        <ele>636.00</ele>
        <time>2016-10-29T06:37:01Z</time>
      </trkpt>
      <trkpt lat="42.403684000" lon="-2.626608000">
        <ele>636.40</ele>
        <time>2016-10-29T06:37:02Z</time>
      </trkpt>
      <trkpt lat="42.403683000" lon="-2.626610000">
        <ele>636.80</ele>
        <time>2016-10-29T06:37:03Z</time>
      </trkpt>
      <trkpt lat="42.403684000" lon="-2.626612000">
        <ele>636.60</ele>
        <time>2016-10-29T06:37:04Z</time>
      </trkpt>
      <trkpt lat="42.403685000" lon="-2.626616000">
        <ele>636.50</ele>
        <time>2016-10-29T06:37:05Z</time>
      </trkpt>
      <trkpt lat="42.403684000" lon="-2.626618000">
        <ele>636.40</ele>
        <time>2016-10-29T06:37:06Z</time>
      </trkpt>
      <trkpt lat="42.403681000" lon="-2.626621000">
        <ele>636.40</ele>
        <time>2016-10-29T06:37:07Z</time>
      </trkpt>
      <trkpt lat="42.403679000" lon="-2.626621000">
        <ele>636.30</ele>
        <time>2016-10-29T06:37:08Z</time>
      </trkpt>
      <trkpt lat="42.403676000" lon="-2.626621000">
        <ele>636.30</ele>
        <time>2016-10-29T06:37:09Z</time>
      </trkpt>
      <trkpt lat="42.403675000" lon="-2.626619000">
        <ele>636.30</ele>
        <time>2016-10-29T06:37:10Z</time>
      </trkpt>
      <trkpt lat="42.403673000" lon="-2.626622000">
        <ele>636.30</ele>
        <time>2016-10-29T06:37:11Z</time>
      </trkpt>
      <trkpt lat="42.403672000" lon="-2.626620000">
        <ele>636.30</ele>
        <time>2016-10-29T06:37:12Z</time>
      </trkpt>
      <trkpt lat="42.403670000" lon="-2.626621000">
        <ele>636.30</ele>
        <time>2016-10-29T06:37:13Z</time>
      </trkpt>
      <trkpt lat="42.403671000" lon="-2.626619000">
        <ele>636.40</ele>
        <time>2016-10-29T06:37:14Z</time>
      </trkpt>
      <trkpt lat="42.403670000" lon="-2.626618000">
        <ele>636.50</ele>
        <time>2016-10-29T06:37:15Z</time>
      </trkpt>
      <trkpt lat="42.403670000" lon="-2.626615000">
        <ele>636.50</ele>
        <time>2016-10-29T06:37:16Z</time>
      </trkpt>
      <trkpt lat="42.403668000" lon="-2.626613000">
        <ele>636.50</ele>
        <time>2016-10-29T06:37:17Z</time>
      </trkpt>
      <trkpt lat="42.403668000" lon="-2.626610000">
        <ele>636.60</ele>
        <time>2016-10-29T06:37:18Z</time>
      </trkpt>
      <trkpt lat="42.403669000" lon="-2.626608000">
        <ele>636.70</ele>
        <time>2016-10-29T06:37:20Z</time>
      </trkpt>
      <trkpt lat="42.403670000" lon="-2.626607000">
        <ele>636.80</ele>
        <time>2016-10-29T06:37:21Z</time>
      </trkpt>
      <trkpt lat="42.403669000" lon="-2.626605000">
        <ele>637.00</ele>
        <time>2016-10-29T06:37:22Z</time>
      </trkpt>
      <trkpt lat="42.403669000" lon="-2.626607000">
        <ele>637.10</ele>
        <time>2016-10-29T06:37:23Z</time>
      </trkpt>
      <trkpt lat="42.403670000" lon="-2.626611000">
        <ele>637.10</ele>
        <time>2016-10-29T06:37:24Z</time>
      </trkpt>
      <trkpt lat="42.403672000" lon="-2.626611000">
        <ele>637.10</ele>
        <time>2016-10-29T06:37:25Z</time>
      </trkpt>
      <trkpt lat="42.403672000" lon="-2.626611000">
        <ele>637.00</ele>
        <time>2016-10-29T06:37:26Z</time>
      </trkpt>
      <trkpt lat="42.403672000" lon="-2.626609000">
        <ele>636.90</ele>
        <time>2016-10-29T06:37:27Z</time>
      </trkpt>
      <trkpt lat="42.403672000" lon="-2.626608000">
        <ele>636.80</ele>
        <time>2016-10-29T06:37:28Z</time>
      </trkpt>
      <trkpt lat="42.403675000" lon="-2.626605000">
        <ele>636.80</ele>
        <time>2016-10-29T06:37:29Z</time>
      </trkpt>
      <trkpt lat="42.403676000" lon="-2.626600000">
        <ele>636.80</ele>
        <time>2016-10-29T06:37:30Z</time>
      </trkpt>
      <trkpt lat="42.403675000" lon="-2.626595000">
        <ele>636.70</ele>
        <time>2016-10-29T06:37:31Z</time>
      </trkpt>
      <trkpt lat="42.403674000" lon="-2.626591000">
        <ele>636.70</ele>
        <time>2016-10-29T06:37:32Z</time>
      </trkpt>
      <trkpt lat="42.403672000" lon="-2.626587000">
        <ele>636.70</ele>
        <time>2016-10-29T06:37:33Z</time>
      </trkpt>
      <trkpt lat="42.403671000" lon="-2.626585000">
        <ele>636.60</ele>
        <time>2016-10-29T06:37:34Z</time>
      </trkpt>
      <trkpt lat="42.403671000" lon="-2.626585000">
        <ele>636.60</ele>
        <time>2016-10-29T06:37:35Z</time>
      </trkpt>
      <trkpt lat="42.403671000" lon="-2.626584000">
        <ele>636.50</ele>
        <time>2016-10-29T06:37:36Z</time>
      </trkpt>
      <trkpt lat="42.403670000" lon="-2.626584000">
        <ele>636.50</ele>
        <time>2016-10-29T06:37:37Z</time>
      </trkpt>
      <trkpt lat="42.403670000" lon="-2.626584000">
        <ele>636.50</ele>
        <time>2016-10-29T06:37:38Z</time>
      </trkpt>
      <trkpt lat="42.403671000" lon="-2.626583000">
        <ele>636.40</ele>
        <time>2016-10-29T06:37:39Z</time>
      </trkpt>
      <trkpt lat="42.403671000" lon="-2.626584000">
        <ele>636.40</ele>
        <time>2016-10-29T06:37:40Z</time>
      </trkpt>
      <trkpt lat="42.403672000" lon="-2.626582000">
        <ele>636.40</ele>
        <time>2016-10-29T06:37:41Z</time>
      </trkpt>
      <trkpt lat="42.403673000" lon="-2.626582000">
        <ele>636.50</ele>
        <time>2016-10-29T06:37:42Z</time>
      </trkpt>
      <trkpt lat="42.403675000" lon="-2.626586000">
        <ele>636.50</ele>
        <time>2016-10-29T06:37:43Z</time>
      </trkpt>
      <trkpt lat="42.403678000" lon="-2.626588000">
        <ele>636.50</ele>
        <time>2016-10-29T06:37:44Z</time>
      </trkpt>
      <trkpt lat="42.403681000" lon="-2.626591000">
        <ele>636.50</ele>
        <time>2016-10-29T06:37:45Z</time>
      </trkpt>
      <trkpt lat="42.403682000" lon="-2.626593000">
        <ele>636.50</ele>
        <time>2016-10-29T06:37:46Z</time>
      </trkpt>
      <trkpt lat="42.403683000" lon="-2.626592000">
        <ele>636.50</ele>
        <time>2016-10-29T06:37:47Z</time>
      </trkpt>
      <trkpt lat="42.403684000" lon="-2.626591000">
        <ele>636.50</ele>
        <time>2016-10-29T06:37:48Z</time>
      </trkpt>
      <trkpt lat="42.403685000" lon="-2.626594000">
        <ele>636.50</ele>
        <time>2016-10-29T06:37:49Z</time>
      </trkpt>
      <trkpt lat="42.403683000" lon="-2.626597000">
        <ele>636.50</ele>
        <time>2016-10-29T06:37:50Z</time>
      </trkpt>
      <trkpt lat="42.403684000" lon="-2.626596000">
        <ele>636.50</ele>
        <time>2016-10-29T06:37:51Z</time>
      </trkpt>
      <trkpt lat="42.403683000" lon="-2.626596000">
        <ele>636.50</ele>
        <time>2016-10-29T06:37:52Z</time>
      </trkpt>
      <trkpt lat="42.403683000" lon="-2.626594000">
        <ele>636.50</ele>
        <time>2016-10-29T06:37:53Z</time>
      </trkpt>
      <trkpt lat="42.403685000" lon="-2.626592000">
        <ele>636.50</ele>
        <time>2016-10-29T06:37:54Z</time>
      </trkpt>
      <trkpt lat="42.403687000" lon="-2.626593000">
        <ele>636.60</ele>
        <time>2016-10-29T06:37:55Z</time>
      </trkpt>
      <trkpt lat="42.403687000" lon="-2.626594000">
        <ele>636.60</ele>
        <time>2016-10-29T06:37:56Z</time>
      </trkpt>
      <trkpt lat="42.403688000" lon="-2.626594000">
        <ele>636.60</ele>
        <time>2016-10-29T06:37:57Z</time>
      </trkpt>
      <trkpt lat="42.403689000" lon="-2.626594000">
        <ele>636.60</ele>
        <time>2016-10-29T06:37:58Z</time>
      </trkpt>
      <trkpt lat="42.403689000" lon="-2.626595000">
        <ele>636.50</ele>
        <time>2016-10-29T06:37:59Z</time>
      </trkpt>
      <trkpt lat="42.403689000" lon="-2.626596000">
        <ele>636.40</ele>
        <time>2016-10-29T06:38:00Z</time>
      </trkpt>
      <trkpt lat="42.403690000" lon="-2.626598000">
        <ele>636.30</ele>
        <time>2016-10-29T06:38:01Z</time>
      </trkpt>
      <trkpt lat="42.403692000" lon="-2.626602000">
        <ele>636.30</ele>
        <time>2016-10-29T06:38:02Z</time>
      </trkpt>
      <trkpt lat="42.403697000" lon="-2.626606000">
        <ele>636.30</ele>
        <time>2016-10-29T06:38:03Z</time>
      </trkpt>
      <trkpt lat="42.403699000" lon="-2.626608000">
        <ele>636.20</ele>
        <time>2016-10-29T06:38:04Z</time>
      </trkpt>
      <trkpt lat="42.403702000" lon="-2.626606000">
        <ele>636.10</ele>
        <time>2016-10-29T06:38:05Z</time>
      </trkpt>
      <trkpt lat="42.403703000" lon="-2.626601000">
        <ele>636.10</ele>
        <time>2016-10-29T06:38:06Z</time>
      </trkpt>
      <trkpt lat="42.403703000" lon="-2.626600000">
        <ele>636.20</ele>
        <time>2016-10-29T06:38:07Z</time>
      </trkpt>
      <trkpt lat="42.403706000" lon="-2.626598000">
        <ele>636.20</ele>
        <time>2016-10-29T06:38:08Z</time>
      </trkpt>
      <trkpt lat="42.403708000" lon="-2.626594000">
        <ele>636.20</ele>
        <time>2016-10-29T06:38:09Z</time>
      </trkpt>
      <trkpt lat="42.403709000" lon="-2.626591000">
        <ele>636.20</ele>
        <time>2016-10-29T06:38:10Z</time>
      </trkpt>
      <trkpt lat="42.403711000" lon="-2.626588000">
        <ele>636.20</ele>
        <time>2016-10-29T06:38:11Z</time>
      </trkpt>
      <trkpt lat="42.403713000" lon="-2.626585000">
        <ele>636.20</ele>
        <time>2016-10-29T06:38:12Z</time>
      </trkpt>
      <trkpt lat="42.403716000" lon="-2.626585000">
        <ele>636.20</ele>
        <time>2016-10-29T06:38:13Z</time>
      </trkpt>
      <trkpt lat="42.403718000" lon="-2.626585000">
        <ele>636.20</ele>
        <time>2016-10-29T06:38:14Z</time>
      </trkpt>
      <trkpt lat="42.403720000" lon="-2.626584000">
        <ele>636.20</ele>
        <time>2016-10-29T06:38:15Z</time>
      </trkpt>
      <trkpt lat="42.403711000" lon="-2.626587000">
        <ele>636.20</ele>
        <time>2016-10-29T06:38:16Z</time>
      </trkpt>
      <trkpt lat="42.403706000" lon="-2.626584000">
        <ele>636.30</ele>
        <time>2016-10-29T06:38:17Z</time>
      </trkpt>
      <trkpt lat="42.403704000" lon="-2.626587000">
        <ele>636.30</ele>
        <time>2016-10-29T06:38:18Z</time>
      </trkpt>
      <trkpt lat="42.403703000" lon="-2.626589000">
        <ele>636.30</ele>
        <time>2016-10-29T06:38:19Z</time>
      </trkpt>
      <trkpt lat="42.403698000" lon="-2.626599000">
        <ele>636.30</ele>
        <time>2016-10-29T06:38:21Z</time>
      </trkpt>
      <trkpt lat="42.403698000" lon="-2.626598000">
        <ele>636.30</ele>
        <time>2016-10-29T06:38:22Z</time>
      </trkpt>
      <trkpt lat="42.403695000" lon="-2.626599000">
        <ele>636.40</ele>
        <time>2016-10-29T06:38:23Z</time>
      </trkpt>
      <trkpt lat="42.403681000" lon="-2.626606000">
        <ele>636.70</ele>
        <time>2016-10-29T06:38:24Z</time>
      </trkpt>
      <trkpt lat="42.403666000" lon="-2.626603000">
        <ele>636.90</ele>
        <time>2016-10-29T06:38:25Z</time>
      </trkpt>
      <trkpt lat="42.403657000" lon="-2.626601000">
        <ele>637.10</ele>
        <time>2016-10-29T06:38:26Z</time>
      </trkpt>
      <trkpt lat="42.403652000" lon="-2.626600000">
        <ele>637.20</ele>
        <time>2016-10-29T06:38:27Z</time>
      </trkpt>
      <trkpt lat="42.403644000" lon="-2.626598000">
        <ele>637.00</ele>
        <time>2016-10-29T06:38:28Z</time>
      </trkpt>
      <trkpt lat="42.403629000" lon="-2.626592000">
        <ele>636.90</ele>
        <time>2016-10-29T06:38:29Z</time>
      </trkpt>
      <trkpt lat="42.403617000" lon="-2.626588000">
        <ele>636.80</ele>
        <time>2016-10-29T06:38:30Z</time>
      </trkpt>
      <trkpt lat="42.403603000" lon="-2.626592000">
        <ele>636.80</ele>
        <time>2016-10-29T06:38:31Z</time>
      </trkpt>
      <trkpt lat="42.403590000" lon="-2.626593000">
        <ele>636.70</ele>
        <time>2016-10-29T06:38:32Z</time>
      </trkpt>
      <trkpt lat="42.403586000" lon="-2.626578000">
        <ele>636.70</ele>
        <time>2016-10-29T06:38:33Z</time>
      </trkpt>
      <trkpt lat="42.403590000" lon="-2.626564000">
        <ele>636.60</ele>
        <time>2016-10-29T06:38:34Z</time>
      </trkpt>
      <trkpt lat="42.403605000" lon="-2.626558000">
        <ele>636.60</ele>
        <time>2016-10-29T06:38:35Z</time>
      </trkpt>
      <trkpt lat="42.403615000" lon="-2.626561000">
        <ele>636.60</ele>
        <time>2016-10-29T06:38:36Z</time>
      </trkpt>
      <trkpt lat="42.403624000" lon="-2.626570000">
        <ele>636.50</ele>
        <time>2016-10-29T06:38:37Z</time>
      </trkpt>
      <trkpt lat="42.403632000" lon="-2.626578000">
        <ele>636.50</ele>
        <time>2016-10-29T06:38:38Z</time>
      </trkpt>
      <trkpt lat="42.403641000" lon="-2.626582000">
        <ele>636.50</ele>
        <time>2016-10-29T06:38:39Z</time>
      </trkpt>
      <trkpt lat="42.403651000" lon="-2.626599000">
        <ele>636.50</ele>
        <time>2016-10-29T06:38:40Z</time>
      </trkpt>
      <trkpt lat="42.403661000" lon="-2.626615000">
        <ele>636.50</ele>
        <time>2016-10-29T06:38:41Z</time>
      </trkpt>
      <trkpt lat="42.403669000" lon="-2.626623000">
        <ele>636.70</ele>
        <time>2016-10-29T06:38:42Z</time>
      </trkpt>
      <trkpt lat="42.403674000" lon="-2.626631000">
        <ele>636.90</ele>
        <time>2016-10-29T06:38:43Z</time>
      </trkpt>
      <trkpt lat="42.403677000" lon="-2.626633000">
        <ele>637.00</ele>
        <time>2016-10-29T06:38:44Z</time>
      </trkpt>
      <trkpt lat="42.403685000" lon="-2.626637000">
        <ele>637.10</ele>
        <time>2016-10-29T06:38:45Z</time>
      </trkpt>
      <trkpt lat="42.403695000" lon="-2.626646000">
        <ele>637.10</ele>
        <time>2016-10-29T06:38:46Z</time>
      </trkpt>
      <trkpt lat="42.403703000" lon="-2.626667000">
        <ele>637.20</ele>
        <time>2016-10-29T06:38:47Z</time>
      </trkpt>
      <trkpt lat="42.403702000" lon="-2.626689000">
        <ele>637.00</ele>
        <time>2016-10-29T06:38:48Z</time>
      </trkpt>
      <trkpt lat="42.403695000" lon="-2.626712000">
        <ele>636.80</ele>
        <time>2016-10-29T06:38:49Z</time>
      </trkpt>
      <trkpt lat="42.403688000" lon="-2.626732000">
        <ele>636.70</ele>
        <time>2016-10-29T06:38:50Z</time>
      </trkpt>
      <trkpt lat="42.403679000" lon="-2.626748000">
        <ele>636.60</ele>
        <time>2016-10-29T06:38:51Z</time>
      </trkpt>
      <trkpt lat="42.403671000" lon="-2.626765000">
        <ele>636.60</ele>
        <time>2016-10-29T06:38:52Z</time>
      </trkpt>
      <trkpt lat="42.403664000" lon="-2.626784000">
        <ele>636.50</ele>
        <time>2016-10-29T06:38:53Z</time>
      </trkpt>
      <trkpt lat="42.403654000" lon="-2.626797000">
        <ele>636.50</ele>
        <time>2016-10-29T06:38:54Z</time>
      </trkpt>
      <trkpt lat="42.403643000" lon="-2.626811000">
        <ele>636.50</ele>
        <time>2016-10-29T06:38:55Z</time>
      </trkpt>
      <trkpt lat="42.403628000" lon="-2.626825000">
        <ele>636.60</ele>
        <time>2016-10-29T06:38:56Z</time>
      </trkpt>
      <trkpt lat="42.403617000" lon="-2.626844000">
        <ele>636.60</ele>
        <time>2016-10-29T06:38:57Z</time>
      </trkpt>
      <trkpt lat="42.403605000" lon="-2.626862000">
        <ele>636.60</ele>
        <time>2016-10-29T06:38:58Z</time>
      </trkpt>
      <trkpt lat="42.403595000" lon="-2.626880000">
        <ele>636.60</ele>
        <time>2016-10-29T06:38:59Z</time>
      </trkpt>
      <trkpt lat="42.403583000" lon="-2.626894000">
        <ele>636.60</ele>
        <time>2016-10-29T06:39:00Z</time>
      </trkpt>
      <trkpt lat="42.403570000" lon="-2.626910000">
        <ele>636.60</ele>
        <time>2016-10-29T06:39:01Z</time>
      </trkpt>
      <trkpt lat="42.403554000" lon="-2.626920000">
        <ele>636.80</ele>
        <time>2016-10-29T06:39:02Z</time>
      </trkpt>
      <trkpt lat="42.403536000" lon="-2.626927000">
        <ele>637.00</ele>
        <time>2016-10-29T06:39:03Z</time>
      </trkpt>
      <trkpt lat="42.403517000" lon="-2.626935000">
        <ele>637.10</ele>
        <time>2016-10-29T06:39:04Z</time>
      </trkpt>
      <trkpt lat="42.403498000" lon="-2.626946000">
        <ele>637.30</ele>
        <time>2016-10-29T06:39:05Z</time>
      </trkpt>
      <trkpt lat="42.403480000" lon="-2.626958000">
        <ele>637.40</ele>
        <time>2016-10-29T06:39:06Z</time>
      </trkpt>
      <trkpt lat="42.403465000" lon="-2.626972000">
        <ele>637.50</ele>
        <time>2016-10-29T06:39:07Z</time>
      </trkpt>
      <trkpt lat="42.403450000" lon="-2.626982000">
        <ele>637.60</ele>
        <time>2016-10-29T06:39:08Z</time>
      </trkpt>
      <trkpt lat="42.403432000" lon="-2.626995000">
        <ele>637.80</ele>
        <time>2016-10-29T06:39:09Z</time>
      </trkpt>
      <trkpt lat="42.403414000" lon="-2.627010000">
        <ele>637.90</ele>
        <time>2016-10-29T06:39:10Z</time>
      </trkpt>
      <trkpt lat="42.403399000" lon="-2.627023000">
        <ele>638.00</ele>
        <time>2016-10-29T06:39:11Z</time>
      </trkpt>
      <trkpt lat="42.403385000" lon="-2.627037000">
        <ele>638.00</ele>
        <time>2016-10-29T06:39:12Z</time>
      </trkpt>
      <trkpt lat="42.403369000" lon="-2.627053000">
        <ele>638.10</ele>
        <time>2016-10-29T06:39:13Z</time>
      </trkpt>
      <trkpt lat="42.403353000" lon="-2.627062000">
        <ele>638.20</ele>
        <time>2016-10-29T06:39:14Z</time>
      </trkpt>
      <trkpt lat="42.403338000" lon="-2.627074000">
        <ele>638.20</ele>
        <time>2016-10-29T06:39:15Z</time>
      </trkpt>
      <trkpt lat="42.403321000" lon="-2.627086000">
        <ele>638.30</ele>
        <time>2016-10-29T06:39:16Z</time>
      </trkpt>
      <trkpt lat="42.403306000" lon="-2.627096000">
        <ele>638.30</ele>
        <time>2016-10-29T06:39:17Z</time>
      </trkpt>
      <trkpt lat="42.403288000" lon="-2.627109000">
        <ele>638.40</ele>
        <time>2016-10-29T06:39:18Z</time>
      </trkpt>
      <trkpt lat="42.403270000" lon="-2.627123000">
        <ele>638.50</ele>
        <time>2016-10-29T06:39:19Z</time>
      </trkpt>
      <trkpt lat="42.403251000" lon="-2.627139000">
        <ele>638.60</ele>
        <time>2016-10-29T06:39:20Z</time>
      </trkpt>
      <trkpt lat="42.403204000" lon="-2.627169000">
        <ele>638.90</ele>
        <time>2016-10-29T06:39:22Z</time>
      </trkpt>
      <trkpt lat="42.403180000" lon="-2.627180000">
        <ele>639.00</ele>
        <time>2016-10-29T06:39:23Z</time>
      </trkpt>
      <trkpt lat="42.403160000" lon="-2.627187000">
        <ele>639.10</ele>
        <time>2016-10-29T06:39:24Z</time>
      </trkpt>
      <trkpt lat="42.403139000" lon="-2.627195000">
        <ele>639.20</ele>
        <time>2016-10-29T06:39:25Z</time>
      </trkpt>
      <trkpt lat="42.403115000" lon="-2.627201000">
        <ele>639.20</ele>
        <time>2016-10-29T06:39:26Z</time>
      </trkpt>
      <trkpt lat="42.403096000" lon="-2.627205000">
        <ele>639.30</ele>
        <time>2016-10-29T06:39:27Z</time>
      </trkpt>
      <trkpt lat="42.403076000" lon="-2.627211000">
        <ele>639.30</ele>
        <time>2016-10-29T06:39:28Z</time>
      </trkpt>
      <trkpt lat="42.403057000" lon="-2.627211000">
        <ele>639.40</ele>
        <time>2016-10-29T06:39:29Z</time>
      </trkpt>
      <trkpt lat="42.403039000" lon="-2.627212000">
        <ele>639.60</ele>
        <time>2016-10-29T06:39:30Z</time>
      </trkpt>
      <trkpt lat="42.403021000" lon="-2.627213000">
        <ele>639.70</ele>
        <time>2016-10-29T06:39:31Z</time>
      </trkpt>
      <trkpt lat="42.403001000" lon="-2.627218000">
        <ele>639.90</ele>
        <time>2016-10-29T06:39:32Z</time>
      </trkpt>
      <trkpt lat="42.402983000" lon="-2.627222000">
        <ele>640.10</ele>
        <time>2016-10-29T06:39:33Z</time>
      </trkpt>
      <trkpt lat="42.402965000" lon="-2.627225000">
        <ele>640.20</ele>
        <time>2016-10-29T06:39:34Z</time>
      </trkpt>
      <trkpt lat="42.402946000" lon="-2.627233000">
        <ele>640.30</ele>
        <time>2016-10-29T06:39:35Z</time>
      </trkpt>
      <trkpt lat="42.402925000" lon="-2.627249000">
        <ele>640.50</ele>
        <time>2016-10-29T06:39:36Z</time>
      </trkpt>
      <trkpt lat="42.402908000" lon="-2.627253000">
        <ele>640.60</ele>
        <time>2016-10-29T06:39:37Z</time>
      </trkpt>
      <trkpt lat="42.402888000" lon="-2.627264000">
        <ele>640.80</ele>
        <time>2016-10-29T06:39:38Z</time>
      </trkpt>
      <trkpt lat="42.402872000" lon="-2.627268000">
        <ele>640.90</ele>
        <time>2016-10-29T06:39:39Z</time>
      </trkpt>
      <trkpt lat="42.402857000" lon="-2.627275000">
        <ele>641.10</ele>
        <time>2016-10-29T06:39:40Z</time>
      </trkpt>
      <trkpt lat="42.402838000" lon="-2.627285000">
        <ele>641.30</ele>
        <time>2016-10-29T06:39:41Z</time>
      </trkpt>
      <trkpt lat="42.402818000" lon="-2.627294000">
        <ele>641.40</ele>
        <time>2016-10-29T06:39:42Z</time>
      </trkpt>
      <trkpt lat="42.402798000" lon="-2.627308000">
        <ele>641.50</ele>
        <time>2016-10-29T06:39:43Z</time>
      </trkpt>
      <trkpt lat="42.402783000" lon="-2.627322000">
        <ele>641.60</ele>
        <time>2016-10-29T06:39:44Z</time>
      </trkpt>
      <trkpt lat="42.402768000" lon="-2.627334000">
        <ele>641.70</ele>
        <time>2016-10-29T06:39:45Z</time>
      </trkpt>
      <trkpt lat="42.402752000" lon="-2.627349000">
        <ele>642.00</ele>
        <time>2016-10-29T06:39:46Z</time>
      </trkpt>
      <trkpt lat="42.402738000" lon="-2.627362000">
        <ele>642.20</ele>
        <time>2016-10-29T06:39:47Z</time>
      </trkpt>
      <trkpt lat="42.402722000" lon="-2.627381000">
        <ele>642.60</ele>
        <time>2016-10-29T06:39:48Z</time>
      </trkpt>
      <trkpt lat="42.402708000" lon="-2.627400000">
        <ele>642.80</ele>
        <time>2016-10-29T06:39:49Z</time>
      </trkpt>
      <trkpt lat="42.402694000" lon="-2.627419000">
        <ele>643.00</ele>
        <time>2016-10-29T06:39:50Z</time>
      </trkpt>
      <trkpt lat="42.402679000" lon="-2.627438000">
        <ele>643.20</ele>
        <time>2016-10-29T06:39:51Z</time>
      </trkpt>
      <trkpt lat="42.402666000" lon="-2.627459000">
        <ele>643.30</ele>
        <time>2016-10-29T06:39:52Z</time>
      </trkpt>
      <trkpt lat="42.402654000" lon="-2.627483000">
        <ele>643.50</ele>
        <time>2016-10-29T06:39:53Z</time>
      </trkpt>
      <trkpt lat="42.402645000" lon="-2.627509000">
        <ele>643.60</ele>
        <time>2016-10-29T06:39:54Z</time>
      </trkpt>
      <trkpt lat="42.402633000" lon="-2.627533000">
        <ele>643.60</ele>
        <time>2016-10-29T06:39:55Z</time>
      </trkpt>
      <trkpt lat="42.402625000" lon="-2.627561000">
        <ele>643.80</ele>
        <time>2016-10-29T06:39:56Z</time>
      </trkpt>
      <trkpt lat="42.402616000" lon="-2.627585000">
        <ele>644.00</ele>
        <time>2016-10-29T06:39:57Z</time>
      </trkpt>
      <trkpt lat="42.402610000" lon="-2.627608000">
        <ele>644.30</ele>
        <time>2016-10-29T06:39:58Z</time>
      </trkpt>
      <trkpt lat="42.402604000" lon="-2.627633000">
        <ele>644.60</ele>
        <time>2016-10-29T06:39:59Z</time>
      </trkpt>
      <trkpt lat="42.402597000" lon="-2.627655000">
        <ele>644.90</ele>
        <time>2016-10-29T06:40:00Z</time>
      </trkpt>
      <trkpt lat="42.402590000" lon="-2.627675000">
        <ele>645.10</ele>
        <time>2016-10-29T06:40:01Z</time>
      </trkpt>
      <trkpt lat="42.402581000" lon="-2.627699000">
        <ele>645.20</ele>
        <time>2016-10-29T06:40:02Z</time>
      </trkpt>
      <trkpt lat="42.402570000" lon="-2.627726000">
        <ele>645.40</ele>
        <time>2016-10-29T06:40:03Z</time>
      </trkpt>
      <trkpt lat="42.402560000" lon="-2.627754000">
        <ele>645.50</ele>
        <time>2016-10-29T06:40:04Z</time>
      </trkpt>
      <trkpt lat="42.402549000" lon="-2.627781000">
        <ele>645.60</ele>
        <time>2016-10-29T06:40:05Z</time>
      </trkpt>
      <trkpt lat="42.402541000" lon="-2.627809000">
        <ele>645.80</ele>
        <time>2016-10-29T06:40:06Z</time>
      </trkpt>
      <trkpt lat="42.402533000" lon="-2.627838000">
        <ele>645.90</ele>
        <time>2016-10-29T06:40:07Z</time>
      </trkpt>
      <trkpt lat="42.402523000" lon="-2.627871000">
        <ele>646.00</ele>
        <time>2016-10-29T06:40:08Z</time>
      </trkpt>
      <trkpt lat="42.402512000" lon="-2.627901000">
        <ele>646.10</ele>
        <time>2016-10-29T06:40:09Z</time>
      </trkpt>
      <trkpt lat="42.402502000" lon="-2.627932000">
        <ele>646.20</ele>
        <time>2016-10-29T06:40:10Z</time>
      </trkpt>
      <trkpt lat="42.402492000" lon="-2.627964000">
        <ele>646.30</ele>
        <time>2016-10-29T06:40:11Z</time>
      </trkpt>
      <trkpt lat="42.402480000" lon="-2.627991000">
        <ele>646.40</ele>
        <time>2016-10-29T06:40:12Z</time>
      </trkpt>
      <trkpt lat="42.402472000" lon="-2.628019000">
        <ele>646.50</ele>
        <time>2016-10-29T06:40:13Z</time>
      </trkpt>
      <trkpt lat="42.402463000" lon="-2.628043000">
        <ele>646.80</ele>
        <time>2016-10-29T06:40:14Z</time>
      </trkpt>
      <trkpt lat="42.402456000" lon="-2.628071000">
        <ele>647.00</ele>
        <time>2016-10-29T06:40:15Z</time>
      </trkpt>
      <trkpt lat="42.402451000" lon="-2.628101000">
        <ele>647.20</ele>
        <time>2016-10-29T06:40:16Z</time>
      </trkpt>
      <trkpt lat="42.402440000" lon="-2.628130000">
        <ele>647.30</ele>
        <time>2016-10-29T06:40:17Z</time>
      </trkpt>
      <trkpt lat="42.402434000" lon="-2.628160000">
        <ele>647.20</ele>
        <time>2016-10-29T06:40:18Z</time>
      </trkpt>
      <trkpt lat="42.402430000" lon="-2.628193000">
        <ele>647.20</ele>
        <time>2016-10-29T06:40:19Z</time>
      </trkpt>
      <trkpt lat="42.402420000" lon="-2.628217000">
        <ele>647.10</ele>
        <time>2016-10-29T06:40:20Z</time>
      </trkpt>
      <trkpt lat="42.402410000" lon="-2.628240000">
        <ele>647.10</ele>
        <time>2016-10-29T06:40:21Z</time>
      </trkpt>
      <trkpt lat="42.402390000" lon="-2.628297000">
        <ele>647.30</ele>
        <time>2016-10-29T06:40:23Z</time>
      </trkpt>
      <trkpt lat="42.402377000" lon="-2.628322000">
        <ele>647.40</ele>
        <time>2016-10-29T06:40:24Z</time>
      </trkpt>
      <trkpt lat="42.402366000" lon="-2.628351000">
        <ele>647.50</ele>
        <time>2016-10-29T06:40:25Z</time>
      </trkpt>
      <trkpt lat="42.402359000" lon="-2.628378000">
        <ele>647.50</ele>
        <time>2016-10-29T06:40:26Z</time>
      </trkpt>
      <trkpt lat="42.402350000" lon="-2.628406000">
        <ele>647.60</ele>
        <time>2016-10-29T06:40:27Z</time>
      </trkpt>
      <trkpt lat="42.402341000" lon="-2.628433000">
        <ele>647.60</ele>
        <time>2016-10-29T06:40:28Z</time>
      </trkpt>
      <trkpt lat="42.402331000" lon="-2.628461000">
        <ele>647.60</ele>
        <time>2016-10-29T06:40:29Z</time>
      </trkpt>
      <trkpt lat="42.402323000" lon="-2.628488000">
        <ele>647.70</ele>
        <time>2016-10-29T06:40:30Z</time>
      </trkpt>
      <trkpt lat="42.402314000" lon="-2.628515000">
        <ele>647.80</ele>
        <time>2016-10-29T06:40:31Z</time>
      </trkpt>
      <trkpt lat="42.402306000" lon="-2.628540000">
        <ele>647.90</ele>
        <time>2016-10-29T06:40:32Z</time>
      </trkpt>
      <trkpt lat="42.402293000" lon="-2.628568000">
        <ele>648.00</ele>
        <time>2016-10-29T06:40:33Z</time>
      </trkpt>
      <trkpt lat="42.402284000" lon="-2.628598000">
        <ele>648.20</ele>
        <time>2016-10-29T06:40:34Z</time>
      </trkpt>
      <trkpt lat="42.402273000" lon="-2.628622000">
        <ele>648.30</ele>
        <time>2016-10-29T06:40:35Z</time>
      </trkpt>
      <trkpt lat="42.402262000" lon="-2.628650000">
        <ele>648.40</ele>
        <time>2016-10-29T06:40:36Z</time>
      </trkpt>
      <trkpt lat="42.402252000" lon="-2.628675000">
        <ele>648.50</ele>
        <time>2016-10-29T06:40:37Z</time>
      </trkpt>
      <trkpt lat="42.402244000" lon="-2.628701000">
        <ele>648.60</ele>
        <time>2016-10-29T06:40:38Z</time>
      </trkpt>
      <trkpt lat="42.402234000" lon="-2.628729000">
        <ele>648.70</ele>
        <time>2016-10-29T06:40:39Z</time>
      </trkpt>
      <trkpt lat="42.402222000" lon="-2.628754000">
        <ele>648.90</ele>
        <time>2016-10-29T06:40:40Z</time>
      </trkpt>
      <trkpt lat="42.402209000" lon="-2.628783000">
        <ele>649.00</ele>
        <time>2016-10-29T06:40:41Z</time>
      </trkpt>
      <trkpt lat="42.402197000" lon="-2.628811000">
        <ele>649.20</ele>
        <time>2016-10-29T06:40:42Z</time>
      </trkpt>
      <trkpt lat="42.402185000" lon="-2.628840000">
        <ele>649.30</ele>
        <time>2016-10-29T06:40:43Z</time>
      </trkpt>
      <trkpt lat="42.402175000" lon="-2.628864000">
        <ele>649.40</ele>
        <time>2016-10-29T06:40:44Z</time>
      </trkpt>
      <trkpt lat="42.402163000" lon="-2.628888000">
        <ele>649.50</ele>
        <time>2016-10-29T06:40:45Z</time>
      </trkpt>
      <trkpt lat="42.402150000" lon="-2.628915000">
        <ele>649.70</ele>
        <time>2016-10-29T06:40:46Z</time>
      </trkpt>
      <trkpt lat="42.402137000" lon="-2.628942000">
        <ele>649.90</ele>
        <time>2016-10-29T06:40:47Z</time>
      </trkpt>
      <trkpt lat="42.402127000" lon="-2.628965000">
        <ele>650.00</ele>
        <time>2016-10-29T06:40:48Z</time>
      </trkpt>
      <trkpt lat="42.402117000" lon="-2.628991000">
        <ele>650.10</ele>
        <time>2016-10-29T06:40:49Z</time>
      </trkpt>
      <trkpt lat="42.402105000" lon="-2.629016000">
        <ele>650.20</ele>
        <time>2016-10-29T06:40:50Z</time>
      </trkpt>
      <trkpt lat="42.402091000" lon="-2.629043000">
        <ele>650.30</ele>
        <time>2016-10-29T06:40:51Z</time>
      </trkpt>
      <trkpt lat="42.402080000" lon="-2.629068000">
        <ele>650.40</ele>
        <time>2016-10-29T06:40:52Z</time>
      </trkpt>
      <trkpt lat="42.402070000" lon="-2.629095000">
        <ele>650.60</ele>
        <time>2016-10-29T06:40:53Z</time>
      </trkpt>
      <trkpt lat="42.402056000" lon="-2.629122000">
        <ele>650.70</ele>
        <time>2016-10-29T06:40:54Z</time>
      </trkpt>
      <trkpt lat="42.402047000" lon="-2.629150000">
        <ele>650.90</ele>
        <time>2016-10-29T06:40:55Z</time>
      </trkpt>
      <trkpt lat="42.402034000" lon="-2.629176000">
        <ele>650.90</ele>
        <time>2016-10-29T06:40:56Z</time>
      </trkpt>
      <trkpt lat="42.402018000" lon="-2.629198000">
        <ele>650.90</ele>
        <time>2016-10-29T06:40:57Z</time>
      </trkpt>
      <trkpt lat="42.402006000" lon="-2.629223000">
        <ele>651.10</ele>
        <time>2016-10-29T06:40:58Z</time>
      </trkpt>
      <trkpt lat="42.401989000" lon="-2.629246000">
        <ele>651.30</ele>
        <time>2016-10-29T06:40:59Z</time>
      </trkpt>
      <trkpt lat="42.401977000" lon="-2.629273000">
        <ele>651.30</ele>
        <time>2016-10-29T06:41:00Z</time>
      </trkpt>
      <trkpt lat="42.401966000" lon="-2.629303000">
        <ele>651.40</ele>
        <time>2016-10-29T06:41:01Z</time>
      </trkpt>
      <trkpt lat="42.401952000" lon="-2.629329000">
        <ele>651.50</ele>
        <time>2016-10-29T06:41:02Z</time>
      </trkpt>
      <trkpt lat="42.401938000" lon="-2.629355000">
        <ele>651.60</ele>
        <time>2016-10-29T06:41:03Z</time>
      </trkpt>
      <trkpt lat="42.401921000" lon="-2.629377000">
        <ele>651.80</ele>
        <time>2016-10-29T06:41:04Z</time>
      </trkpt>
      <trkpt lat="42.401907000" lon="-2.629401000">
        <ele>652.00</ele>
        <time>2016-10-29T06:41:05Z</time>
      </trkpt>
      <trkpt lat="42.401893000" lon="-2.629423000">
        <ele>652.10</ele>
        <time>2016-10-29T06:41:06Z</time>
      </trkpt>
      <trkpt lat="42.401877000" lon="-2.629447000">
        <ele>652.20</ele>
        <time>2016-10-29T06:41:07Z</time>
      </trkpt>
      <trkpt lat="42.401861000" lon="-2.629470000">
        <ele>652.30</ele>
        <time>2016-10-29T06:41:08Z</time>
      </trkpt>
      <trkpt lat="42.401845000" lon="-2.629493000">
        <ele>652.30</ele>
        <time>2016-10-29T06:41:09Z</time>
      </trkpt>
      <trkpt lat="42.401828000" lon="-2.629518000">
        <ele>652.40</ele>
        <time>2016-10-29T06:41:10Z</time>
      </trkpt>
      <trkpt lat="42.401809000" lon="-2.629538000">
        <ele>652.40</ele>
        <time>2016-10-29T06:41:11Z</time>
      </trkpt>
      <trkpt lat="42.401789000" lon="-2.629559000">
        <ele>652.40</ele>
        <time>2016-10-29T06:41:12Z</time>
      </trkpt>
      <trkpt lat="42.401770000" lon="-2.629579000">
        <ele>652.50</ele>
        <time>2016-10-29T06:41:13Z</time>
      </trkpt>
      <trkpt lat="42.401748000" lon="-2.629598000">
        <ele>652.60</ele>
        <time>2016-10-29T06:41:14Z</time>
      </trkpt>
      <trkpt lat="42.401725000" lon="-2.629612000">
        <ele>652.70</ele>
        <time>2016-10-29T06:41:15Z</time>
      </trkpt>
      <trkpt lat="42.401699000" lon="-2.629626000">
        <ele>652.90</ele>
        <time>2016-10-29T06:41:16Z</time>
      </trkpt>
      <trkpt lat="42.401671000" lon="-2.629637000">
        <ele>653.10</ele>
        <time>2016-10-29T06:41:17Z</time>
      </trkpt>
      <trkpt lat="42.401645000" lon="-2.629651000">
        <ele>653.20</ele>
        <time>2016-10-29T06:41:18Z</time>
      </trkpt>
      <trkpt lat="42.401621000" lon="-2.629661000">
        <ele>653.30</ele>
        <time>2016-10-29T06:41:19Z</time>
      </trkpt>
      <trkpt lat="42.401596000" lon="-2.629668000">
        <ele>653.30</ele>
        <time>2016-10-29T06:41:20Z</time>
      </trkpt>
      <trkpt lat="42.401575000" lon="-2.629672000">
        <ele>653.40</ele>
        <time>2016-10-29T06:41:21Z</time>
      </trkpt>
      <trkpt lat="42.401550000" lon="-2.629675000">
        <ele>653.40</ele>
        <time>2016-10-29T06:41:22Z</time>
      </trkpt>
      <trkpt lat="42.401503000" lon="-2.629682000">
        <ele>653.50</ele>
        <time>2016-10-29T06:41:24Z</time>
      </trkpt>
      <trkpt lat="42.401479000" lon="-2.629684000">
        <ele>653.50</ele>
        <time>2016-10-29T06:41:25Z</time>
      </trkpt>
      <trkpt lat="42.401454000" lon="-2.629686000">
        <ele>653.60</ele>
        <time>2016-10-29T06:41:26Z</time>
      </trkpt>
      <trkpt lat="42.401428000" lon="-2.629687000">
        <ele>653.80</ele>
        <time>2016-10-29T06:41:27Z</time>
      </trkpt>
      <trkpt lat="42.401402000" lon="-2.629686000">
        <ele>653.80</ele>
        <time>2016-10-29T06:41:28Z</time>
      </trkpt>
      <trkpt lat="42.401377000" lon="-2.629685000">
        <ele>653.80</ele>
        <time>2016-10-29T06:41:29Z</time>
      </trkpt>
      <trkpt lat="42.401354000" lon="-2.629688000">
        <ele>653.90</ele>
        <time>2016-10-29T06:41:30Z</time>
      </trkpt>
      <trkpt lat="42.401327000" lon="-2.629685000">
        <ele>653.90</ele>
        <time>2016-10-29T06:41:31Z</time>
      </trkpt>
      <trkpt lat="42.401300000" lon="-2.629684000">
        <ele>653.90</ele>
        <time>2016-10-29T06:41:32Z</time>
      </trkpt>
      <trkpt lat="42.401276000" lon="-2.629685000">
        <ele>653.90</ele>
        <time>2016-10-29T06:41:33Z</time>
      </trkpt>
      <trkpt lat="42.401248000" lon="-2.629681000">
        <ele>653.90</ele>
        <time>2016-10-29T06:41:34Z</time>
      </trkpt>
      <trkpt lat="42.401222000" lon="-2.629681000">
        <ele>654.00</ele>
        <time>2016-10-29T06:41:35Z</time>
      </trkpt>
      <trkpt lat="42.401195000" lon="-2.629681000">
        <ele>654.00</ele>
        <time>2016-10-29T06:41:36Z</time>
      </trkpt>
      <trkpt lat="42.401170000" lon="-2.629681000">
        <ele>654.00</ele>
        <time>2016-10-29T06:41:37Z</time>
      </trkpt>
      <trkpt lat="42.401145000" lon="-2.629679000">
        <ele>654.30</ele>
        <time>2016-10-29T06:41:38Z</time>
      </trkpt>
      <trkpt lat="42.401119000" lon="-2.629680000">
        <ele>654.50</ele>
        <time>2016-10-29T06:41:39Z</time>
      </trkpt>
      <trkpt lat="42.401094000" lon="-2.629676000">
        <ele>654.70</ele>
        <time>2016-10-29T06:41:40Z</time>
      </trkpt>
      <trkpt lat="42.401068000" lon="-2.629676000">
        <ele>654.80</ele>
        <time>2016-10-29T06:41:41Z</time>
      </trkpt>
      <trkpt lat="42.401039000" lon="-2.629675000">
        <ele>654.70</ele>
        <time>2016-10-29T06:41:42Z</time>
      </trkpt>
      <trkpt lat="42.401013000" lon="-2.629679000">
        <ele>654.70</ele>
        <time>2016-10-29T06:41:43Z</time>
      </trkpt>
      <trkpt lat="42.400985000" lon="-2.629680000">
        <ele>654.70</ele>
        <time>2016-10-29T06:41:44Z</time>
      </trkpt>
      <trkpt lat="42.400955000" lon="-2.629684000">
        <ele>654.70</ele>
        <time>2016-10-29T06:41:45Z</time>
      </trkpt>
      <trkpt lat="42.400927000" lon="-2.629689000">
        <ele>654.70</ele>
        <time>2016-10-29T06:41:46Z</time>
      </trkpt>
      <trkpt lat="42.400903000" lon="-2.629694000">
        <ele>654.70</ele>
        <time>2016-10-29T06:41:47Z</time>
      </trkpt>
      <trkpt lat="42.400879000" lon="-2.629698000">
        <ele>654.80</ele>
        <time>2016-10-29T06:41:48Z</time>
      </trkpt>
      <trkpt lat="42.400854000" lon="-2.629706000">
        <ele>654.80</ele>
        <time>2016-10-29T06:41:49Z</time>
      </trkpt>
      <trkpt lat="42.400828000" lon="-2.629714000">
        <ele>654.90</ele>
        <time>2016-10-29T06:41:50Z</time>
      </trkpt>
      <trkpt lat="42.400803000" lon="-2.629727000">
        <ele>654.90</ele>
        <time>2016-10-29T06:41:51Z</time>
      </trkpt>
      <trkpt lat="42.400779000" lon="-2.629738000">
        <ele>654.90</ele>
        <time>2016-10-29T06:41:52Z</time>
      </trkpt>
      <trkpt lat="42.400753000" lon="-2.629753000">
        <ele>654.80</ele>
        <time>2016-10-29T06:41:53Z</time>
      </trkpt>
      <trkpt lat="42.400727000" lon="-2.629769000">
        <ele>654.70</ele>
        <time>2016-10-29T06:41:54Z</time>
      </trkpt>
      <trkpt lat="42.400702000" lon="-2.629786000">
        <ele>654.70</ele>
        <time>2016-10-29T06:41:55Z</time>
      </trkpt>
      <trkpt lat="42.400678000" lon="-2.629800000">
        <ele>654.70</ele>
        <time>2016-10-29T06:41:56Z</time>
      </trkpt>
      <trkpt lat="42.400653000" lon="-2.629815000">
        <ele>654.70</ele>
        <time>2016-10-29T06:41:57Z</time>
      </trkpt>
      <trkpt lat="42.400631000" lon="-2.629832000">
        <ele>654.70</ele>
        <time>2016-10-29T06:41:58Z</time>
      </trkpt>
      <trkpt lat="42.400605000" lon="-2.629847000">
        <ele>654.70</ele>
        <time>2016-10-29T06:41:59Z</time>
      </trkpt>
      <trkpt lat="42.400580000" lon="-2.629862000">
        <ele>654.80</ele>
        <time>2016-10-29T06:42:00Z</time>
      </trkpt>
      <trkpt lat="42.400554000" lon="-2.629877000">
        <ele>654.90</ele>
        <time>2016-10-29T06:42:01Z</time>
      </trkpt>
      <trkpt lat="42.400530000" lon="-2.629894000">
        <ele>655.00</ele>
        <time>2016-10-29T06:42:02Z</time>
      </trkpt>
      <trkpt lat="42.400507000" lon="-2.629909000">
        <ele>655.00</ele>
        <time>2016-10-29T06:42:03Z</time>
      </trkpt>
      <trkpt lat="42.400483000" lon="-2.629923000">
        <ele>655.20</ele>
        <time>2016-10-29T06:42:04Z</time>
      </trkpt>
      <trkpt lat="42.400459000" lon="-2.629938000">
        <ele>655.40</ele>
        <time>2016-10-29T06:42:05Z</time>
      </trkpt>
      <trkpt lat="42.400436000" lon="-2.629953000">
        <ele>655.50</ele>
        <time>2016-10-29T06:42:06Z</time>
      </trkpt>
      <trkpt lat="42.400411000" lon="-2.629969000">
        <ele>655.70</ele>
        <time>2016-10-29T06:42:07Z</time>
      </trkpt>
      <trkpt lat="42.400387000" lon="-2.629987000">
        <ele>655.70</ele>
        <time>2016-10-29T06:42:08Z</time>
      </trkpt>
      <trkpt lat="42.400362000" lon="-2.630002000">
        <ele>655.80</ele>
        <time>2016-10-29T06:42:09Z</time>
      </trkpt>
      <trkpt lat="42.400337000" lon="-2.630015000">
        <ele>655.90</ele>
        <time>2016-10-29T06:42:10Z</time>
      </trkpt>
      <trkpt lat="42.400314000" lon="-2.630028000">
        <ele>655.90</ele>
        <time>2016-10-29T06:42:11Z</time>
      </trkpt>
      <trkpt lat="42.400291000" lon="-2.630038000">
        <ele>655.90</ele>
        <time>2016-10-29T06:42:12Z</time>
      </trkpt>
      <trkpt lat="42.400270000" lon="-2.630050000">
        <ele>655.90</ele>
        <time>2016-10-29T06:42:13Z</time>
      </trkpt>
      <trkpt lat="42.400249000" lon="-2.630060000">
        <ele>656.00</ele>
        <time>2016-10-29T06:42:14Z</time>
      </trkpt>
      <trkpt lat="42.400230000" lon="-2.630073000">
        <ele>656.10</ele>
        <time>2016-10-29T06:42:15Z</time>
      </trkpt>
      <trkpt lat="42.400209000" lon="-2.630088000">
        <ele>656.40</ele>
        <time>2016-10-29T06:42:16Z</time>
      </trkpt>
      <trkpt lat="42.400187000" lon="-2.630099000">
        <ele>656.60</ele>
        <time>2016-10-29T06:42:17Z</time>
      </trkpt>
      <trkpt lat="42.400164000" lon="-2.630112000">
        <ele>656.70</ele>
        <time>2016-10-29T06:42:18Z</time>
      </trkpt>
      <trkpt lat="42.400140000" lon="-2.630121000">
        <ele>656.80</ele>
        <time>2016-10-29T06:42:19Z</time>
      </trkpt>
      <trkpt lat="42.400117000" lon="-2.630137000">
        <ele>657.00</ele>
        <time>2016-10-29T06:42:20Z</time>
      </trkpt>
      <trkpt lat="42.400093000" lon="-2.630148000">
        <ele>657.10</ele>
        <time>2016-10-29T06:42:21Z</time>
      </trkpt>
      <trkpt lat="42.400072000" lon="-2.630157000">
        <ele>657.20</ele>
        <time>2016-10-29T06:42:22Z</time>
      </trkpt>
      <trkpt lat="42.400052000" lon="-2.630173000">
        <ele>657.30</ele>
        <time>2016-10-29T06:42:23Z</time>
      </trkpt>
      <trkpt lat="42.400011000" lon="-2.630203000">
        <ele>657.80</ele>
        <time>2016-10-29T06:42:25Z</time>
      </trkpt>
      <trkpt lat="42.399991000" lon="-2.630218000">
        <ele>658.00</ele>
        <time>2016-10-29T06:42:26Z</time>
      </trkpt>
      <trkpt lat="42.399971000" lon="-2.630232000">
        <ele>658.20</ele>
        <time>2016-10-29T06:42:27Z</time>
      </trkpt>
      <trkpt lat="42.399949000" lon="-2.630245000">
        <ele>658.60</ele>
        <time>2016-10-29T06:42:28Z</time>
      </trkpt>
      <trkpt lat="42.399931000" lon="-2.630260000">
        <ele>659.00</ele>
        <time>2016-10-29T06:42:29Z</time>
      </trkpt>
      <trkpt lat="42.399912000" lon="-2.630275000">
        <ele>659.20</ele>
        <time>2016-10-29T06:42:30Z</time>
      </trkpt>
      <trkpt lat="42.399893000" lon="-2.630296000">
        <ele>659.40</ele>
        <time>2016-10-29T06:42:31Z</time>
      </trkpt>
      <trkpt lat="42.399877000" lon="-2.630312000">
        <ele>659.50</ele>
        <time>2016-10-29T06:42:32Z</time>
      </trkpt>
      <trkpt lat="42.399859000" lon="-2.630325000">
        <ele>659.60</ele>
        <time>2016-10-29T06:42:33Z</time>
      </trkpt>
      <trkpt lat="42.399842000" lon="-2.630343000">
        <ele>659.80</ele>
        <time>2016-10-29T06:42:34Z</time>
      </trkpt>
      <trkpt lat="42.399825000" lon="-2.630363000">
        <ele>659.90</ele>
        <time>2016-10-29T06:42:35Z</time>
      </trkpt>
      <trkpt lat="42.399811000" lon="-2.630383000">
        <ele>659.90</ele>
        <time>2016-10-29T06:42:36Z</time>
      </trkpt>
      <trkpt lat="42.399794000" lon="-2.630399000">
        <ele>660.00</ele>
        <time>2016-10-29T06:42:37Z</time>
      </trkpt>
      <trkpt lat="42.399780000" lon="-2.630415000">
        <ele>660.20</ele>
        <time>2016-10-29T06:42:38Z</time>
      </trkpt>
      <trkpt lat="42.399769000" lon="-2.630437000">
        <ele>660.30</ele>
        <time>2016-10-29T06:42:39Z</time>
      </trkpt>
      <trkpt lat="42.399753000" lon="-2.630455000">
        <ele>660.50</ele>
        <time>2016-10-29T06:42:40Z</time>
      </trkpt>
      <trkpt lat="42.399741000" lon="-2.630480000">
        <ele>660.70</ele>
        <time>2016-10-29T06:42:41Z</time>
      </trkpt>
      <trkpt lat="42.399729000" lon="-2.630502000">
        <ele>661.00</ele>
        <time>2016-10-29T06:42:42Z</time>
      </trkpt>
      <trkpt lat="42.399716000" lon="-2.630527000">
        <ele>661.20</ele>
        <time>2016-10-29T06:42:43Z</time>
      </trkpt>
      <trkpt lat="42.399704000" lon="-2.630549000">
        <ele>661.30</ele>
        <time>2016-10-29T06:42:44Z</time>
      </trkpt>
      <trkpt lat="42.399693000" lon="-2.630577000">
        <ele>661.40</ele>
        <time>2016-10-29T06:42:45Z</time>
      </trkpt>
      <trkpt lat="42.399683000" lon="-2.630605000">
        <ele>661.60</ele>
        <time>2016-10-29T06:42:46Z</time>
      </trkpt>
      <trkpt lat="42.399674000" lon="-2.630634000">
        <ele>661.80</ele>
        <time>2016-10-29T06:42:47Z</time>
      </trkpt>
      <trkpt lat="42.399668000" lon="-2.630665000">
        <ele>661.90</ele>
        <time>2016-10-29T06:42:48Z</time>
      </trkpt>
      <trkpt lat="42.399661000" lon="-2.630694000">
        <ele>662.00</ele>
        <time>2016-10-29T06:42:49Z</time>
      </trkpt>
      <trkpt lat="42.399651000" lon="-2.630724000">
        <ele>662.10</ele>
        <time>2016-10-29T06:42:50Z</time>
      </trkpt>
      <trkpt lat="42.399643000" lon="-2.630754000">
        <ele>662.20</ele>
        <time>2016-10-29T06:42:51Z</time>
      </trkpt>
      <trkpt lat="42.399640000" lon="-2.630786000">
        <ele>662.40</ele>
        <time>2016-10-29T06:42:52Z</time>
      </trkpt>
      <trkpt lat="42.399633000" lon="-2.630817000">
        <ele>662.60</ele>
        <time>2016-10-29T06:42:53Z</time>
      </trkpt>
      <trkpt lat="42.399628000" lon="-2.630851000">
        <ele>662.70</ele>
        <time>2016-10-29T06:42:54Z</time>
      </trkpt>
      <trkpt lat="42.399625000" lon="-2.630885000">
        <ele>662.80</ele>
        <time>2016-10-29T06:42:55Z</time>
      </trkpt>
      <trkpt lat="42.399620000" lon="-2.630914000">
        <ele>662.90</ele>
        <time>2016-10-29T06:42:56Z</time>
      </trkpt>
      <trkpt lat="42.399615000" lon="-2.630944000">
        <ele>663.00</ele>
        <time>2016-10-29T06:42:57Z</time>
      </trkpt>
      <trkpt lat="42.399612000" lon="-2.630975000">
        <ele>663.20</ele>
        <time>2016-10-29T06:42:58Z</time>
      </trkpt>
      <trkpt lat="42.399612000" lon="-2.631008000">
        <ele>663.30</ele>
        <time>2016-10-29T06:42:59Z</time>
      </trkpt>
      <trkpt lat="42.399610000" lon="-2.631037000">
        <ele>663.40</ele>
        <time>2016-10-29T06:43:00Z</time>
      </trkpt>
      <trkpt lat="42.399611000" lon="-2.631067000">
        <ele>663.50</ele>
        <time>2016-10-29T06:43:01Z</time>
      </trkpt>
      <trkpt lat="42.399612000" lon="-2.631097000">
        <ele>663.50</ele>
        <time>2016-10-29T06:43:02Z</time>
      </trkpt>
      <trkpt lat="42.399612000" lon="-2.631124000">
        <ele>663.60</ele>
        <time>2016-10-29T06:43:03Z</time>
      </trkpt>
      <trkpt lat="42.399616000" lon="-2.631155000">
        <ele>663.80</ele>
        <time>2016-10-29T06:43:04Z</time>
      </trkpt>
      <trkpt lat="42.399622000" lon="-2.631185000">
        <ele>664.00</ele>
        <time>2016-10-29T06:43:05Z</time>
      </trkpt>
      <trkpt lat="42.399624000" lon="-2.631216000">
        <ele>664.20</ele>
        <time>2016-10-29T06:43:06Z</time>
      </trkpt>
      <trkpt lat="42.399626000" lon="-2.631245000">
        <ele>664.40</ele>
        <time>2016-10-29T06:43:07Z</time>
      </trkpt>
      <trkpt lat="42.399623000" lon="-2.631279000">
        <ele>664.60</ele>
        <time>2016-10-29T06:43:08Z</time>
      </trkpt>
      <trkpt lat="42.399624000" lon="-2.631309000">
        <ele>664.70</ele>
        <time>2016-10-29T06:43:09Z</time>
      </trkpt>
      <trkpt lat="42.399625000" lon="-2.631339000">
        <ele>664.80</ele>
        <time>2016-10-29T06:43:10Z</time>
      </trkpt>
      <trkpt lat="42.399627000" lon="-2.631373000">
        <ele>664.90</ele>
        <time>2016-10-29T06:43:11Z</time>
      </trkpt>
      <trkpt lat="42.399630000" lon="-2.631407000">
        <ele>665.00</ele>
        <time>2016-10-29T06:43:12Z</time>
      </trkpt>
      <trkpt lat="42.399634000" lon="-2.631441000">
        <ele>665.10</ele>
        <time>2016-10-29T06:43:13Z</time>
      </trkpt>
      <trkpt lat="42.399638000" lon="-2.631475000">
        <ele>665.10</ele>
        <time>2016-10-29T06:43:14Z</time>
      </trkpt>
      <trkpt lat="42.399641000" lon="-2.631509000">
        <ele>665.10</ele>
        <time>2016-10-29T06:43:15Z</time>
      </trkpt>
      <trkpt lat="42.399641000" lon="-2.631543000">
        <ele>665.20</ele>
        <time>2016-10-29T06:43:16Z</time>
      </trkpt>
      <trkpt lat="42.399643000" lon="-2.631577000">
        <ele>665.20</ele>
        <time>2016-10-29T06:43:17Z</time>
      </trkpt>
      <trkpt lat="42.399648000" lon="-2.631608000">
        <ele>665.40</ele>
        <time>2016-10-29T06:43:18Z</time>
      </trkpt>
      <trkpt lat="42.399648000" lon="-2.631642000">
        <ele>665.60</ele>
        <time>2016-10-29T06:43:19Z</time>
      </trkpt>
      <trkpt lat="42.399650000" lon="-2.631676000">
        <ele>665.80</ele>
        <time>2016-10-29T06:43:20Z</time>
      </trkpt>
      <trkpt lat="42.399651000" lon="-2.631711000">
        <ele>665.90</ele>
        <time>2016-10-29T06:43:21Z</time>
      </trkpt>
      <trkpt lat="42.399654000" lon="-2.631751000">
        <ele>666.00</ele>
        <time>2016-10-29T06:43:22Z</time>
      </trkpt>
      <trkpt lat="42.399656000" lon="-2.631786000">
        <ele>666.00</ele>
        <time>2016-10-29T06:43:23Z</time>
      </trkpt>
      <trkpt lat="42.399653000" lon="-2.631822000">
        <ele>666.10</ele>
        <time>2016-10-29T06:43:24Z</time>
      </trkpt>
      <trkpt lat="42.399654000" lon="-2.631898000">
        <ele>666.30</ele>
        <time>2016-10-29T06:43:26Z</time>
      </trkpt>
      <trkpt lat="42.399658000" lon="-2.631937000">
        <ele>666.30</ele>
        <time>2016-10-29T06:43:27Z</time>
      </trkpt>
      <trkpt lat="42.399659000" lon="-2.631978000">
        <ele>666.40</ele>
        <time>2016-10-29T06:43:28Z</time>
      </trkpt>
      <trkpt lat="42.399656000" lon="-2.632019000">
        <ele>666.40</ele>
        <time>2016-10-29T06:43:29Z</time>
      </trkpt>
      <trkpt lat="42.399655000" lon="-2.632059000">
        <ele>666.40</ele>
        <time>2016-10-29T06:43:30Z</time>
      </trkpt>
      <trkpt lat="42.399649000" lon="-2.632103000">
        <ele>666.40</ele>
        <time>2016-10-29T06:43:31Z</time>
      </trkpt>
      <trkpt lat="42.399647000" lon="-2.632150000">
        <ele>666.40</ele>
        <time>2016-10-29T06:43:32Z</time>
      </trkpt>
      <trkpt lat="42.399643000" lon="-2.632194000">
        <ele>666.30</ele>
        <time>2016-10-29T06:43:33Z</time>
      </trkpt>
      <trkpt lat="42.399639000" lon="-2.632239000">
        <ele>666.10</ele>
        <time>2016-10-29T06:43:34Z</time>
      </trkpt>
      <trkpt lat="42.399634000" lon="-2.632282000">
        <ele>665.90</ele>
        <time>2016-10-29T06:43:35Z</time>
      </trkpt>
      <trkpt lat="42.399632000" lon="-2.632325000">
        <ele>665.70</ele>
        <time>2016-10-29T06:43:36Z</time>
      </trkpt>
      <trkpt lat="42.399628000" lon="-2.632366000">
        <ele>665.50</ele>
        <time>2016-10-29T06:43:37Z</time>
      </trkpt>
      <trkpt lat="42.399626000" lon="-2.632409000">
        <ele>665.30</ele>
        <time>2016-10-29T06:43:38Z</time>
      </trkpt>
      <trkpt lat="42.399623000" lon="-2.632450000">
        <ele>665.20</ele>
        <time>2016-10-29T06:43:39Z</time>
      </trkpt>
      <trkpt lat="42.399620000" lon="-2.632493000">
        <ele>665.10</ele>
        <time>2016-10-29T06:43:40Z</time>
      </trkpt>
      <trkpt lat="42.399616000" lon="-2.632534000">
        <ele>665.00</ele>
        <time>2016-10-29T06:43:41Z</time>
      </trkpt>
      <trkpt lat="42.399616000" lon="-2.632575000">
        <ele>664.90</ele>
        <time>2016-10-29T06:43:42Z</time>
      </trkpt>
      <trkpt lat="42.399613000" lon="-2.632617000">
        <ele>664.90</ele>
        <time>2016-10-29T06:43:43Z</time>
      </trkpt>
      <trkpt lat="42.399611000" lon="-2.632656000">
        <ele>664.90</ele>
        <time>2016-10-29T06:43:44Z</time>
      </trkpt>
      <trkpt lat="42.399609000" lon="-2.632697000">
        <ele>665.00</ele>
        <time>2016-10-29T06:43:45Z</time>
      </trkpt>
      <trkpt lat="42.399608000" lon="-2.632736000">
        <ele>665.00</ele>
        <time>2016-10-29T06:43:46Z</time>
      </trkpt>
      <trkpt lat="42.399606000" lon="-2.632774000">
        <ele>665.00</ele>
        <time>2016-10-29T06:43:47Z</time>
      </trkpt>
      <trkpt lat="42.399605000" lon="-2.632809000">
        <ele>665.10</ele>
        <time>2016-10-29T06:43:48Z</time>
      </trkpt>
      <trkpt lat="42.399605000" lon="-2.632847000">
        <ele>665.10</ele>
        <time>2016-10-29T06:43:49Z</time>
      </trkpt>
      <trkpt lat="42.399605000" lon="-2.632882000">
        <ele>665.20</ele>
        <time>2016-10-29T06:43:50Z</time>
      </trkpt>
      <trkpt lat="42.399606000" lon="-2.632916000">
        <ele>665.20</ele>
        <time>2016-10-29T06:43:51Z</time>
      </trkpt>
      <trkpt lat="42.399607000" lon="-2.632956000">
        <ele>665.20</ele>
        <time>2016-10-29T06:43:52Z</time>
      </trkpt>
      <trkpt lat="42.399606000" lon="-2.632994000">
        <ele>665.30</ele>
        <time>2016-10-29T06:43:53Z</time>
      </trkpt>
      <trkpt lat="42.399607000" lon="-2.633028000">
        <ele>665.30</ele>
        <time>2016-10-29T06:43:54Z</time>
      </trkpt>
      <trkpt lat="42.399607000" lon="-2.633066000">
        <ele>665.40</ele>
        <time>2016-10-29T06:43:55Z</time>
      </trkpt>
      <trkpt lat="42.399608000" lon="-2.633102000">
        <ele>665.50</ele>
        <time>2016-10-29T06:43:56Z</time>
      </trkpt>
      <trkpt lat="42.399608000" lon="-2.633138000">
        <ele>665.50</ele>
        <time>2016-10-29T06:43:57Z</time>
      </trkpt>
      <trkpt lat="42.399610000" lon="-2.633177000">
        <ele>665.50</ele>
        <time>2016-10-29T06:43:58Z</time>
      </trkpt>
      <trkpt lat="42.399611000" lon="-2.633212000">
        <ele>665.50</ele>
        <time>2016-10-29T06:43:59Z</time>
      </trkpt>
      <trkpt lat="42.399616000" lon="-2.633250000">
        <ele>665.80</ele>
        <time>2016-10-29T06:44:00Z</time>
      </trkpt>
      <trkpt lat="42.399618000" lon="-2.633286000">
        <ele>665.90</ele>
        <time>2016-10-29T06:44:01Z</time>
      </trkpt>
      <trkpt lat="42.399619000" lon="-2.633321000">
        <ele>666.10</ele>
        <time>2016-10-29T06:44:02Z</time>
      </trkpt>
      <trkpt lat="42.399621000" lon="-2.633357000">
        <ele>666.20</ele>
        <time>2016-10-29T06:44:03Z</time>
      </trkpt>
      <trkpt lat="42.399623000" lon="-2.633393000">
        <ele>666.40</ele>
        <time>2016-10-29T06:44:04Z</time>
      </trkpt>
      <trkpt lat="42.399623000" lon="-2.633426000">
        <ele>666.60</ele>
        <time>2016-10-29T06:44:05Z</time>
      </trkpt>
      <trkpt lat="42.399627000" lon="-2.633464000">
        <ele>666.90</ele>
        <time>2016-10-29T06:44:06Z</time>
      </trkpt>
      <trkpt lat="42.399628000" lon="-2.633497000">
        <ele>667.00</ele>
        <time>2016-10-29T06:44:07Z</time>
      </trkpt>
      <trkpt lat="42.399630000" lon="-2.633530000">
        <ele>667.20</ele>
        <time>2016-10-29T06:44:08Z</time>
      </trkpt>
      <trkpt lat="42.399634000" lon="-2.633566000">
        <ele>667.40</ele>
        <time>2016-10-29T06:44:09Z</time>
      </trkpt>
      <trkpt lat="42.399638000" lon="-2.633604000">
        <ele>667.50</ele>
        <time>2016-10-29T06:44:10Z</time>
      </trkpt>
      <trkpt lat="42.399642000" lon="-2.633640000">
        <ele>667.50</ele>
        <time>2016-10-29T06:44:11Z</time>
      </trkpt>
      <trkpt lat="42.399645000" lon="-2.633675000">
        <ele>667.60</ele>
        <time>2016-10-29T06:44:12Z</time>
      </trkpt>
      <trkpt lat="42.399648000" lon="-2.633709000">
        <ele>667.70</ele>
        <time>2016-10-29T06:44:13Z</time>
      </trkpt>
      <trkpt lat="42.399653000" lon="-2.633741000">
        <ele>667.80</ele>
        <time>2016-10-29T06:44:14Z</time>
      </trkpt>
      <trkpt lat="42.399654000" lon="-2.633776000">
        <ele>667.90</ele>
        <time>2016-10-29T06:44:15Z</time>
      </trkpt>
      <trkpt lat="42.399657000" lon="-2.633811000">
        <ele>667.90</ele>
        <time>2016-10-29T06:44:16Z</time>
      </trkpt>
      <trkpt lat="42.399660000" lon="-2.633845000">
        <ele>668.00</ele>
        <time>2016-10-29T06:44:17Z</time>
      </trkpt>
      <trkpt lat="42.399661000" lon="-2.633878000">
        <ele>668.20</ele>
        <time>2016-10-29T06:44:18Z</time>
      </trkpt>
      <trkpt lat="42.399666000" lon="-2.633908000">
        <ele>668.30</ele>
        <time>2016-10-29T06:44:19Z</time>
      </trkpt>
      <trkpt lat="42.399670000" lon="-2.633939000">
        <ele>668.40</ele>
        <time>2016-10-29T06:44:20Z</time>
      </trkpt>
      <trkpt lat="42.399668000" lon="-2.633967000">
        <ele>668.60</ele>
        <time>2016-10-29T06:44:21Z</time>
      </trkpt>
      <trkpt lat="42.399673000" lon="-2.633998000">
        <ele>668.80</ele>
        <time>2016-10-29T06:44:22Z</time>
      </trkpt>
      <trkpt lat="42.399675000" lon="-2.634027000">
        <ele>669.00</ele>
        <time>2016-10-29T06:44:23Z</time>
      </trkpt>
      <trkpt lat="42.399678000" lon="-2.634056000">
        <ele>669.20</ele>
        <time>2016-10-29T06:44:24Z</time>
      </trkpt>
      <trkpt lat="42.399684000" lon="-2.634083000">
        <ele>669.50</ele>
        <time>2016-10-29T06:44:25Z</time>
      </trkpt>
      <trkpt lat="42.399688000" lon="-2.634143000">
        <ele>669.70</ele>
        <time>2016-10-29T06:44:27Z</time>
      </trkpt>
      <trkpt lat="42.399689000" lon="-2.634176000">
        <ele>669.90</ele>
        <time>2016-10-29T06:44:28Z</time>
      </trkpt>
      <trkpt lat="42.399691000" lon="-2.634204000">
        <ele>670.10</ele>
        <time>2016-10-29T06:44:29Z</time>
      </trkpt>
      <trkpt lat="42.399695000" lon="-2.634238000">
        <ele>670.20</ele>
        <time>2016-10-29T06:44:30Z</time>
      </trkpt>
      <trkpt lat="42.399697000" lon="-2.634270000">
        <ele>670.30</ele>
        <time>2016-10-29T06:44:31Z</time>
      </trkpt>
      <trkpt lat="42.399701000" lon="-2.634299000">
        <ele>670.60</ele>
        <time>2016-10-29T06:44:32Z</time>
      </trkpt>
      <trkpt lat="42.399701000" lon="-2.634330000">
        <ele>670.70</ele>
        <time>2016-10-29T06:44:33Z</time>
      </trkpt>
      <trkpt lat="42.399703000" lon="-2.634359000">
        <ele>670.80</ele>
        <time>2016-10-29T06:44:34Z</time>
      </trkpt>
      <trkpt lat="42.399708000" lon="-2.634392000">
        <ele>670.90</ele>
        <time>2016-10-29T06:44:35Z</time>
      </trkpt>
      <trkpt lat="42.399711000" lon="-2.634426000">
        <ele>671.10</ele>
        <time>2016-10-29T06:44:36Z</time>
      </trkpt>
      <trkpt lat="42.399716000" lon="-2.634456000">
        <ele>671.20</ele>
        <time>2016-10-29T06:44:37Z</time>
      </trkpt>
      <trkpt lat="42.399721000" lon="-2.634488000">
        <ele>671.50</ele>
        <time>2016-10-29T06:44:38Z</time>
      </trkpt>
      <trkpt lat="42.399726000" lon="-2.634521000">
        <ele>671.60</ele>
        <time>2016-10-29T06:44:39Z</time>
      </trkpt>
      <trkpt lat="42.399732000" lon="-2.634551000">
        <ele>671.60</ele>
        <time>2016-10-29T06:44:40Z</time>
      </trkpt>
      <trkpt lat="42.399737000" lon="-2.634583000">
        <ele>671.60</ele>
        <time>2016-10-29T06:44:41Z</time>
      </trkpt>
      <trkpt lat="42.399741000" lon="-2.634614000">
        <ele>671.80</ele>
        <time>2016-10-29T06:44:42Z</time>
      </trkpt>
      <trkpt lat="42.399745000" lon="-2.634645000">
        <ele>671.90</ele>
        <time>2016-10-29T06:44:43Z</time>
      </trkpt>
      <trkpt lat="42.399749000" lon="-2.634675000">
        <ele>672.10</ele>
        <time>2016-10-29T06:44:44Z</time>
      </trkpt>
      <trkpt lat="42.399752000" lon="-2.634703000">
        <ele>672.30</ele>
        <time>2016-10-29T06:44:45Z</time>
      </trkpt>
      <trkpt lat="42.399755000" lon="-2.634732000">
        <ele>672.50</ele>
        <time>2016-10-29T06:44:46Z</time>
      </trkpt>
      <trkpt lat="42.399760000" lon="-2.634761000">
        <ele>672.60</ele>
        <time>2016-10-29T06:44:47Z</time>
      </trkpt>
      <trkpt lat="42.399766000" lon="-2.634789000">
        <ele>672.70</ele>
        <time>2016-10-29T06:44:48Z</time>
      </trkpt>
      <trkpt lat="42.399773000" lon="-2.634816000">
        <ele>672.80</ele>
        <time>2016-10-29T06:44:49Z</time>
      </trkpt>
      <trkpt lat="42.399779000" lon="-2.634845000">
        <ele>673.00</ele>
        <time>2016-10-29T06:44:50Z</time>
      </trkpt>
      <trkpt lat="42.399786000" lon="-2.634872000">
        <ele>673.20</ele>
        <time>2016-10-29T06:44:51Z</time>
      </trkpt>
      <trkpt lat="42.399793000" lon="-2.634900000">
        <ele>673.40</ele>
        <time>2016-10-29T06:44:52Z</time>
      </trkpt>
      <trkpt lat="42.399798000" lon="-2.634930000">
        <ele>673.50</ele>
        <time>2016-10-29T06:44:53Z</time>
      </trkpt>
      <trkpt lat="42.399805000" lon="-2.634961000">
        <ele>673.70</ele>
        <time>2016-10-29T06:44:54Z</time>
      </trkpt>
      <trkpt lat="42.399811000" lon="-2.634988000">
        <ele>673.70</ele>
        <time>2016-10-29T06:44:55Z</time>
      </trkpt>
      <trkpt lat="42.399815000" lon="-2.635018000">
        <ele>673.90</ele>
        <time>2016-10-29T06:44:56Z</time>
      </trkpt>
      <trkpt lat="42.399822000" lon="-2.635043000">
        <ele>674.00</ele>
        <time>2016-10-29T06:44:57Z</time>
      </trkpt>
      <trkpt lat="42.399830000" lon="-2.635069000">
        <ele>674.20</ele>
        <time>2016-10-29T06:44:58Z</time>
      </trkpt>
      <trkpt lat="42.399837000" lon="-2.635096000">
        <ele>674.40</ele>
        <time>2016-10-29T06:44:59Z</time>
      </trkpt>
      <trkpt lat="42.399846000" lon="-2.635121000">
        <ele>674.50</ele>
        <time>2016-10-29T06:45:00Z</time>
      </trkpt>
      <trkpt lat="42.399854000" lon="-2.635141000">
        <ele>674.70</ele>
        <time>2016-10-29T06:45:01Z</time>
      </trkpt>
      <trkpt lat="42.399863000" lon="-2.635160000">
        <ele>674.80</ele>
        <time>2016-10-29T06:45:02Z</time>
      </trkpt>
      <trkpt lat="42.399871000" lon="-2.635181000">
        <ele>674.90</ele>
        <time>2016-10-29T06:45:03Z</time>
      </trkpt>
      <trkpt lat="42.399881000" lon="-2.635204000">
        <ele>675.00</ele>
        <time>2016-10-29T06:45:04Z</time>
      </trkpt>
      <trkpt lat="42.399891000" lon="-2.635226000">
        <ele>675.10</ele>
        <time>2016-10-29T06:45:05Z</time>
      </trkpt>
      <trkpt lat="42.399903000" lon="-2.635246000">
        <ele>675.30</ele>
        <time>2016-10-29T06:45:06Z</time>
      </trkpt>
      <trkpt lat="42.399916000" lon="-2.635265000">
        <ele>675.50</ele>
        <time>2016-10-29T06:45:07Z</time>
      </trkpt>
      <trkpt lat="42.399926000" lon="-2.635282000">
        <ele>675.70</ele>
        <time>2016-10-29T06:45:08Z</time>
      </trkpt>
      <trkpt lat="42.399938000" lon="-2.635302000">
        <ele>675.80</ele>
        <time>2016-10-29T06:45:09Z</time>
      </trkpt>
      <trkpt lat="42.399950000" lon="-2.635325000">
        <ele>676.20</ele>
        <time>2016-10-29T06:45:10Z</time>
      </trkpt>
      <trkpt lat="42.399959000" lon="-2.635345000">
        <ele>676.40</ele>
        <time>2016-10-29T06:45:11Z</time>
      </trkpt>
      <trkpt lat="42.399971000" lon="-2.635368000">
        <ele>676.70</ele>
        <time>2016-10-29T06:45:12Z</time>
      </trkpt>
      <trkpt lat="42.399983000" lon="-2.635388000">
        <ele>676.90</ele>
        <time>2016-10-29T06:45:13Z</time>
      </trkpt>
      <trkpt lat="42.399996000" lon="-2.635411000">
        <ele>677.00</ele>
        <time>2016-10-29T06:45:14Z</time>
      </trkpt>
      <trkpt lat="42.400007000" lon="-2.635428000">
        <ele>677.00</ele>
        <time>2016-10-29T06:45:15Z</time>
      </trkpt>
      <trkpt lat="42.400021000" lon="-2.635449000">
        <ele>677.20</ele>
        <time>2016-10-29T06:45:16Z</time>
      </trkpt>
      <trkpt lat="42.400035000" lon="-2.635469000">
        <ele>677.30</ele>
        <time>2016-10-29T06:45:17Z</time>
      </trkpt>
      <trkpt lat="42.400047000" lon="-2.635490000">
        <ele>677.60</ele>
        <time>2016-10-29T06:45:18Z</time>
      </trkpt>
      <trkpt lat="42.400060000" lon="-2.635507000">
        <ele>677.80</ele>
        <time>2016-10-29T06:45:19Z</time>
      </trkpt>
      <trkpt lat="42.400074000" lon="-2.635526000">
        <ele>678.00</ele>
        <time>2016-10-29T06:45:20Z</time>
      </trkpt>
      <trkpt lat="42.400086000" lon="-2.635544000">
        <ele>678.10</ele>
        <time>2016-10-29T06:45:21Z</time>
      </trkpt>
      <trkpt lat="42.400101000" lon="-2.635562000">
        <ele>678.40</ele>
        <time>2016-10-29T06:45:22Z</time>
      </trkpt>
      <trkpt lat="42.400113000" lon="-2.635581000">
        <ele>678.60</ele>
        <time>2016-10-29T06:45:23Z</time>
      </trkpt>
      <trkpt lat="42.400125000" lon="-2.635600000">
        <ele>678.70</ele>
        <time>2016-10-29T06:45:24Z</time>
      </trkpt>
      <trkpt lat="42.400140000" lon="-2.635618000">
        <ele>678.80</ele>
        <time>2016-10-29T06:45:25Z</time>
      </trkpt>
      <trkpt lat="42.400151000" lon="-2.635637000">
        <ele>679.00</ele>
        <time>2016-10-29T06:45:26Z</time>
      </trkpt>
      <trkpt lat="42.400172000" lon="-2.635668000">
        <ele>679.50</ele>
        <time>2016-10-29T06:45:28Z</time>
      </trkpt>
      <trkpt lat="42.400185000" lon="-2.635688000">
        <ele>679.70</ele>
        <time>2016-10-29T06:45:29Z</time>
      </trkpt>
      <trkpt lat="42.400201000" lon="-2.635708000">
        <ele>680.10</ele>
        <time>2016-10-29T06:45:30Z</time>
      </trkpt>
      <trkpt lat="42.400213000" lon="-2.635723000">
        <ele>680.30</ele>
        <time>2016-10-29T06:45:31Z</time>
      </trkpt>
      <trkpt lat="42.400225000" lon="-2.635738000">
        <ele>680.50</ele>
        <time>2016-10-29T06:45:32Z</time>
      </trkpt>
      <trkpt lat="42.400239000" lon="-2.635752000">
        <ele>680.60</ele>
        <time>2016-10-29T06:45:33Z</time>
      </trkpt>
      <trkpt lat="42.400253000" lon="-2.635769000">
        <ele>680.80</ele>
        <time>2016-10-29T06:45:34Z</time>
      </trkpt>
      <trkpt lat="42.400265000" lon="-2.635789000">
        <ele>681.00</ele>
        <time>2016-10-29T06:45:35Z</time>
      </trkpt>
      <trkpt lat="42.400276000" lon="-2.635805000">
        <ele>681.20</ele>
        <time>2016-10-29T06:45:36Z</time>
      </trkpt>
      <trkpt lat="42.400285000" lon="-2.635823000">
        <ele>681.40</ele>
        <time>2016-10-29T06:45:37Z</time>
      </trkpt>
      <trkpt lat="42.400296000" lon="-2.635841000">
        <ele>681.60</ele>
        <time>2016-10-29T06:45:38Z</time>
      </trkpt>
      <trkpt lat="42.400308000" lon="-2.635861000">
        <ele>681.80</ele>
        <time>2016-10-29T06:45:39Z</time>
      </trkpt>
      <trkpt lat="42.400323000" lon="-2.635881000">
        <ele>681.90</ele>
        <time>2016-10-29T06:45:40Z</time>
      </trkpt>
      <trkpt lat="42.400338000" lon="-2.635896000">
        <ele>682.00</ele>
        <time>2016-10-29T06:45:41Z</time>
      </trkpt>
      <trkpt lat="42.400352000" lon="-2.635911000">
        <ele>682.30</ele>
        <time>2016-10-29T06:45:42Z</time>
      </trkpt>
      <trkpt lat="42.400367000" lon="-2.635930000">
        <ele>682.50</ele>
        <time>2016-10-29T06:45:43Z</time>
      </trkpt>
      <trkpt lat="42.400378000" lon="-2.635948000">
        <ele>682.70</ele>
        <time>2016-10-29T06:45:44Z</time>
      </trkpt>
      <trkpt lat="42.400393000" lon="-2.635970000">
        <ele>682.80</ele>
        <time>2016-10-29T06:45:45Z</time>
      </trkpt>
      <trkpt lat="42.400407000" lon="-2.635989000">
        <ele>682.90</ele>
        <time>2016-10-29T06:45:46Z</time>
      </trkpt>
      <trkpt lat="42.400419000" lon="-2.636004000">
        <ele>683.00</ele>
        <time>2016-10-29T06:45:47Z</time>
      </trkpt>
      <trkpt lat="42.400432000" lon="-2.636022000">
        <ele>683.30</ele>
        <time>2016-10-29T06:45:48Z</time>
      </trkpt>
      <trkpt lat="42.400447000" lon="-2.636038000">
        <ele>683.50</ele>
        <time>2016-10-29T06:45:49Z</time>
      </trkpt>
      <trkpt lat="42.400462000" lon="-2.636057000">
        <ele>683.70</ele>
        <time>2016-10-29T06:45:50Z</time>
      </trkpt>
      <trkpt lat="42.400476000" lon="-2.636076000">
        <ele>684.00</ele>
        <time>2016-10-29T06:45:51Z</time>
      </trkpt>
      <trkpt lat="42.400491000" lon="-2.636095000">
        <ele>684.20</ele>
        <time>2016-10-29T06:45:52Z</time>
      </trkpt>
      <trkpt lat="42.400507000" lon="-2.636115000">
        <ele>684.30</ele>
        <time>2016-10-29T06:45:53Z</time>
      </trkpt>
      <trkpt lat="42.400523000" lon="-2.636134000">
        <ele>684.60</ele>
        <time>2016-10-29T06:45:54Z</time>
      </trkpt>
      <trkpt lat="42.400538000" lon="-2.636154000">
        <ele>684.80</ele>
        <time>2016-10-29T06:45:55Z</time>
      </trkpt>
      <trkpt lat="42.400552000" lon="-2.636173000">
        <ele>684.90</ele>
        <time>2016-10-29T06:45:56Z</time>
      </trkpt>
      <trkpt lat="42.400569000" lon="-2.636192000">
        <ele>685.00</ele>
        <time>2016-10-29T06:45:57Z</time>
      </trkpt>
      <trkpt lat="42.400584000" lon="-2.636213000">
        <ele>685.20</ele>
        <time>2016-10-29T06:45:58Z</time>
      </trkpt>
      <trkpt lat="42.400600000" lon="-2.636236000">
        <ele>685.40</ele>
        <time>2016-10-29T06:45:59Z</time>
      </trkpt>
      <trkpt lat="42.400615000" lon="-2.636257000">
        <ele>685.70</ele>
        <time>2016-10-29T06:46:00Z</time>
      </trkpt>
      <trkpt lat="42.400631000" lon="-2.636277000">
        <ele>685.80</ele>
        <time>2016-10-29T06:46:01Z</time>
      </trkpt>
      <trkpt lat="42.400646000" lon="-2.636297000">
        <ele>686.00</ele>
        <time>2016-10-29T06:46:02Z</time>
      </trkpt>
      <trkpt lat="42.400662000" lon="-2.636316000">
        <ele>686.10</ele>
        <time>2016-10-29T06:46:03Z</time>
      </trkpt>
      <trkpt lat="42.400679000" lon="-2.636336000">
        <ele>686.20</ele>
        <time>2016-10-29T06:46:04Z</time>
      </trkpt>
      <trkpt lat="42.400697000" lon="-2.636356000">
        <ele>686.20</ele>
        <time>2016-10-29T06:46:05Z</time>
      </trkpt>
      <trkpt lat="42.400714000" lon="-2.636374000">
        <ele>686.30</ele>
        <time>2016-10-29T06:46:06Z</time>
      </trkpt>
      <trkpt lat="42.400734000" lon="-2.636395000">
        <ele>686.40</ele>
        <time>2016-10-29T06:46:07Z</time>
      </trkpt>
      <trkpt lat="42.400750000" lon="-2.636414000">
        <ele>686.60</ele>
        <time>2016-10-29T06:46:08Z</time>
      </trkpt>
      <trkpt lat="42.400767000" lon="-2.636435000">
        <ele>686.80</ele>
        <time>2016-10-29T06:46:09Z</time>
      </trkpt>
      <trkpt lat="42.400783000" lon="-2.636452000">
        <ele>687.10</ele>
        <time>2016-10-29T06:46:10Z</time>
      </trkpt>
      <trkpt lat="42.400801000" lon="-2.636470000">
        <ele>687.30</ele>
        <time>2016-10-29T06:46:11Z</time>
      </trkpt>
      <trkpt lat="42.400818000" lon="-2.636485000">
        <ele>687.40</ele>
        <time>2016-10-29T06:46:12Z</time>
      </trkpt>
      <trkpt lat="42.400836000" lon="-2.636503000">
        <ele>687.60</ele>
        <time>2016-10-29T06:46:13Z</time>
      </trkpt>
      <trkpt lat="42.400856000" lon="-2.636517000">
        <ele>687.60</ele>
        <time>2016-10-29T06:46:14Z</time>
      </trkpt>
      <trkpt lat="42.400873000" lon="-2.636529000">
        <ele>687.70</ele>
        <time>2016-10-29T06:46:15Z</time>
      </trkpt>
      <trkpt lat="42.400889000" lon="-2.636540000">
        <ele>687.70</ele>
        <time>2016-10-29T06:46:16Z</time>
      </trkpt>
      <trkpt lat="42.400907000" lon="-2.636550000">
        <ele>687.70</ele>
        <time>2016-10-29T06:46:17Z</time>
      </trkpt>
      <trkpt lat="42.400923000" lon="-2.636560000">
        <ele>687.60</ele>
        <time>2016-10-29T06:46:18Z</time>
      </trkpt>
      <trkpt lat="42.400942000" lon="-2.636571000">
        <ele>687.50</ele>
        <time>2016-10-29T06:46:19Z</time>
      </trkpt>
      <trkpt lat="42.400960000" lon="-2.636580000">
        <ele>687.50</ele>
        <time>2016-10-29T06:46:20Z</time>
      </trkpt>
      <trkpt lat="42.400979000" lon="-2.636591000">
        <ele>687.50</ele>
        <time>2016-10-29T06:46:21Z</time>
      </trkpt>
      <trkpt lat="42.401002000" lon="-2.636602000">
        <ele>687.60</ele>
        <time>2016-10-29T06:46:22Z</time>
      </trkpt>
      <trkpt lat="42.401027000" lon="-2.636610000">
        <ele>687.70</ele>
        <time>2016-10-29T06:46:23Z</time>
      </trkpt>
      <trkpt lat="42.401051000" lon="-2.636615000">
        <ele>687.80</ele>
        <time>2016-10-29T06:46:24Z</time>
      </trkpt>
      <trkpt lat="42.401073000" lon="-2.636622000">
        <ele>687.90</ele>
        <time>2016-10-29T06:46:25Z</time>
      </trkpt>
      <trkpt lat="42.401099000" lon="-2.636630000">
        <ele>687.90</ele>
        <time>2016-10-29T06:46:26Z</time>
      </trkpt>
      <trkpt lat="42.401121000" lon="-2.636638000">
        <ele>688.00</ele>
        <time>2016-10-29T06:46:27Z</time>
      </trkpt>
      <trkpt lat="42.401168000" lon="-2.636646000">
        <ele>688.10</ele>
        <time>2016-10-29T06:46:29Z</time>
      </trkpt>
      <trkpt lat="42.401191000" lon="-2.636650000">
        <ele>688.20</ele>
        <time>2016-10-29T06:46:30Z</time>
      </trkpt>
      <trkpt lat="42.401214000" lon="-2.636655000">
        <ele>688.30</ele>
        <time>2016-10-29T06:46:31Z</time>
      </trkpt>
      <trkpt lat="42.401237000" lon="-2.636658000">
        <ele>688.50</ele>
        <time>2016-10-29T06:46:32Z</time>
      </trkpt>
      <trkpt lat="42.401258000" lon="-2.636658000">
        <ele>688.60</ele>
        <time>2016-10-29T06:46:33Z</time>
      </trkpt>
      <trkpt lat="42.401280000" lon="-2.636659000">
        <ele>688.80</ele>
        <time>2016-10-29T06:46:34Z</time>
      </trkpt>
      <trkpt lat="42.401303000" lon="-2.636658000">
        <ele>688.90</ele>
        <time>2016-10-29T06:46:35Z</time>
      </trkpt>
      <trkpt lat="42.401326000" lon="-2.636656000">
        <ele>689.00</ele>
        <time>2016-10-29T06:46:36Z</time>
      </trkpt>
      <trkpt lat="42.401352000" lon="-2.636657000">
        <ele>689.10</ele>
        <time>2016-10-29T06:46:37Z</time>
      </trkpt>
      <trkpt lat="42.401379000" lon="-2.636655000">
        <ele>689.10</ele>
        <time>2016-10-29T06:46:38Z</time>
      </trkpt>
      <trkpt lat="42.401404000" lon="-2.636651000">
        <ele>689.00</ele>
        <time>2016-10-29T06:46:39Z</time>
      </trkpt>
      <trkpt lat="42.401428000" lon="-2.636647000">
        <ele>689.00</ele>
        <time>2016-10-29T06:46:40Z</time>
      </trkpt>
      <trkpt lat="42.401454000" lon="-2.636647000">
        <ele>688.90</ele>
        <time>2016-10-29T06:46:41Z</time>
      </trkpt>
      <trkpt lat="42.401479000" lon="-2.636647000">
        <ele>689.10</ele>
        <time>2016-10-29T06:46:42Z</time>
      </trkpt>
      <trkpt lat="42.401502000" lon="-2.636645000">
        <ele>689.20</ele>
        <time>2016-10-29T06:46:43Z</time>
      </trkpt>
      <trkpt lat="42.401525000" lon="-2.636643000">
        <ele>689.30</ele>
        <time>2016-10-29T06:46:44Z</time>
      </trkpt>
      <trkpt lat="42.401547000" lon="-2.636643000">
        <ele>689.40</ele>
        <time>2016-10-29T06:46:45Z</time>
      </trkpt>
      <trkpt lat="42.401570000" lon="-2.636643000">
        <ele>689.70</ele>
        <time>2016-10-29T06:46:46Z</time>
      </trkpt>
      <trkpt lat="42.401593000" lon="-2.636646000">
        <ele>689.90</ele>
        <time>2016-10-29T06:46:47Z</time>
      </trkpt>
      <trkpt lat="42.401618000" lon="-2.636649000">
        <ele>690.20</ele>
        <time>2016-10-29T06:46:48Z</time>
      </trkpt>
      <trkpt lat="42.401642000" lon="-2.636651000">
        <ele>690.50</ele>
        <time>2016-10-29T06:46:49Z</time>
      </trkpt>
      <trkpt lat="42.401666000" lon="-2.636654000">
        <ele>690.60</ele>
        <time>2016-10-29T06:46:50Z</time>
      </trkpt>
      <trkpt lat="42.401688000" lon="-2.636661000">
        <ele>690.80</ele>
        <time>2016-10-29T06:46:51Z</time>
      </trkpt>
      <trkpt lat="42.401711000" lon="-2.636667000">
        <ele>690.90</ele>
        <time>2016-10-29T06:46:52Z</time>
      </trkpt>
      <trkpt lat="42.401733000" lon="-2.636673000">
        <ele>690.90</ele>
        <time>2016-10-29T06:46:53Z</time>
      </trkpt>
      <trkpt lat="42.401755000" lon="-2.636681000">
        <ele>690.90</ele>
        <time>2016-10-29T06:46:54Z</time>
      </trkpt>
      <trkpt lat="42.401778000" lon="-2.636687000">
        <ele>691.00</ele>
        <time>2016-10-29T06:46:55Z</time>
      </trkpt>
      <trkpt lat="42.401801000" lon="-2.636690000">
        <ele>691.10</ele>
        <time>2016-10-29T06:46:56Z</time>
      </trkpt>
      <trkpt lat="42.401823000" lon="-2.636693000">
        <ele>691.10</ele>
        <time>2016-10-29T06:46:57Z</time>
      </trkpt>
      <trkpt lat="42.401845000" lon="-2.636695000">
        <ele>691.30</ele>
        <time>2016-10-29T06:46:58Z</time>
      </trkpt>
      <trkpt lat="42.401868000" lon="-2.636693000">
        <ele>691.40</ele>
        <time>2016-10-29T06:46:59Z</time>
      </trkpt>
      <trkpt lat="42.401888000" lon="-2.636692000">
        <ele>691.50</ele>
        <time>2016-10-29T06:47:00Z</time>
      </trkpt>
      <trkpt lat="42.401911000" lon="-2.636691000">
        <ele>691.50</ele>
        <time>2016-10-29T06:47:01Z</time>
      </trkpt>
      <trkpt lat="42.401934000" lon="-2.636692000">
        <ele>691.70</ele>
        <time>2016-10-29T06:47:02Z</time>
      </trkpt>
      <trkpt lat="42.401957000" lon="-2.636689000">
        <ele>691.70</ele>
        <time>2016-10-29T06:47:03Z</time>
      </trkpt>
      <trkpt lat="42.401982000" lon="-2.636687000">
        <ele>691.90</ele>
        <time>2016-10-29T06:47:04Z</time>
      </trkpt>
      <trkpt lat="42.402006000" lon="-2.636686000">
        <ele>692.00</ele>
        <time>2016-10-29T06:47:05Z</time>
      </trkpt>
      <trkpt lat="42.402027000" lon="-2.636685000">
        <ele>692.10</ele>
        <time>2016-10-29T06:47:06Z</time>
      </trkpt>
      <trkpt lat="42.402050000" lon="-2.636689000">
        <ele>692.10</ele>
        <time>2016-10-29T06:47:07Z</time>
      </trkpt>
      <trkpt lat="42.402073000" lon="-2.636688000">
        <ele>692.30</ele>
        <time>2016-10-29T06:47:08Z</time>
      </trkpt>
      <trkpt lat="42.402093000" lon="-2.636688000">
        <ele>692.50</ele>
        <time>2016-10-29T06:47:09Z</time>
      </trkpt>
      <trkpt lat="42.402114000" lon="-2.636688000">
        <ele>692.80</ele>
        <time>2016-10-29T06:47:10Z</time>
      </trkpt>
      <trkpt lat="42.402134000" lon="-2.636687000">
        <ele>693.00</ele>
        <time>2016-10-29T06:47:11Z</time>
      </trkpt>
      <trkpt lat="42.402155000" lon="-2.636688000">
        <ele>693.10</ele>
        <time>2016-10-29T06:47:12Z</time>
      </trkpt>
      <trkpt lat="42.402177000" lon="-2.636692000">
        <ele>693.20</ele>
        <time>2016-10-29T06:47:13Z</time>
      </trkpt>
      <trkpt lat="42.402197000" lon="-2.636696000">
        <ele>693.30</ele>
        <time>2016-10-29T06:47:14Z</time>
      </trkpt>
      <trkpt lat="42.402219000" lon="-2.636697000">
        <ele>693.40</ele>
        <time>2016-10-29T06:47:15Z</time>
      </trkpt>
      <trkpt lat="42.402240000" lon="-2.636701000">
        <ele>693.50</ele>
        <time>2016-10-29T06:47:16Z</time>
      </trkpt>
      <trkpt lat="42.402262000" lon="-2.636705000">
        <ele>693.60</ele>
        <time>2016-10-29T06:47:17Z</time>
      </trkpt>
      <trkpt lat="42.402285000" lon="-2.636710000">
        <ele>693.90</ele>
        <time>2016-10-29T06:47:18Z</time>
      </trkpt>
      <trkpt lat="42.402307000" lon="-2.636719000">
        <ele>694.20</ele>
        <time>2016-10-29T06:47:19Z</time>
      </trkpt>
      <trkpt lat="42.402328000" lon="-2.636729000">
        <ele>694.30</ele>
        <time>2016-10-29T06:47:20Z</time>
      </trkpt>
      <trkpt lat="42.402351000" lon="-2.636740000">
        <ele>694.50</ele>
        <time>2016-10-29T06:47:21Z</time>
      </trkpt>
      <trkpt lat="42.402374000" lon="-2.636747000">
        <ele>694.70</ele>
        <time>2016-10-29T06:47:22Z</time>
      </trkpt>
      <trkpt lat="42.402395000" lon="-2.636758000">
        <ele>694.90</ele>
        <time>2016-10-29T06:47:23Z</time>
      </trkpt>
      <trkpt lat="42.402415000" lon="-2.636771000">
        <ele>695.10</ele>
        <time>2016-10-29T06:47:24Z</time>
      </trkpt>
      <trkpt lat="42.402436000" lon="-2.636788000">
        <ele>695.20</ele>
        <time>2016-10-29T06:47:25Z</time>
      </trkpt>
      <trkpt lat="42.402456000" lon="-2.636805000">
        <ele>695.40</ele>
        <time>2016-10-29T06:47:26Z</time>
      </trkpt>
      <trkpt lat="42.402475000" lon="-2.636817000">
        <ele>695.40</ele>
        <time>2016-10-29T06:47:27Z</time>
      </trkpt>
      <trkpt lat="42.402494000" lon="-2.636835000">
        <ele>695.40</ele>
        <time>2016-10-29T06:47:28Z</time>
      </trkpt>
      <trkpt lat="42.402533000" lon="-2.636871000">
        <ele>695.40</ele>
        <time>2016-10-29T06:47:30Z</time>
      </trkpt>
      <trkpt lat="42.402552000" lon="-2.636887000">
        <ele>695.40</ele>
        <time>2016-10-29T06:47:31Z</time>
      </trkpt>
      <trkpt lat="42.402571000" lon="-2.636904000">
        <ele>695.50</ele>
        <time>2016-10-29T06:47:32Z</time>
      </trkpt>
      <trkpt lat="42.402591000" lon="-2.636921000">
        <ele>695.50</ele>
        <time>2016-10-29T06:47:33Z</time>
      </trkpt>
      <trkpt lat="42.402611000" lon="-2.636942000">
        <ele>695.60</ele>
        <time>2016-10-29T06:47:34Z</time>
      </trkpt>
      <trkpt lat="42.402629000" lon="-2.636961000">
        <ele>695.60</ele>
        <time>2016-10-29T06:47:35Z</time>
      </trkpt>
      <trkpt lat="42.402646000" lon="-2.636981000">
        <ele>695.60</ele>
        <time>2016-10-29T06:47:36Z</time>
      </trkpt>
      <trkpt lat="42.402665000" lon="-2.637001000">
        <ele>695.60</ele>
        <time>2016-10-29T06:47:37Z</time>
      </trkpt>
      <trkpt lat="42.402685000" lon="-2.637019000">
        <ele>695.70</ele>
        <time>2016-10-29T06:47:38Z</time>
      </trkpt>
      <trkpt lat="42.402706000" lon="-2.637040000">
        <ele>695.70</ele>
        <time>2016-10-29T06:47:39Z</time>
      </trkpt>
      <trkpt lat="42.402726000" lon="-2.637060000">
        <ele>695.80</ele>
        <time>2016-10-29T06:47:40Z</time>
      </trkpt>
      <trkpt lat="42.402744000" lon="-2.637081000">
        <ele>695.90</ele>
        <time>2016-10-29T06:47:41Z</time>
      </trkpt>
      <trkpt lat="42.402763000" lon="-2.637099000">
        <ele>696.00</ele>
        <time>2016-10-29T06:47:42Z</time>
      </trkpt>
      <trkpt lat="42.402782000" lon="-2.637115000">
        <ele>696.00</ele>
        <time>2016-10-29T06:47:43Z</time>
      </trkpt>
      <trkpt lat="42.402801000" lon="-2.637131000">
        <ele>696.10</ele>
        <time>2016-10-29T06:47:44Z</time>
      </trkpt>
      <trkpt lat="42.402821000" lon="-2.637149000">
        <ele>696.10</ele>
        <time>2016-10-29T06:47:45Z</time>
      </trkpt>
      <trkpt lat="42.402839000" lon="-2.637169000">
        <ele>696.20</ele>
        <time>2016-10-29T06:47:46Z</time>
      </trkpt>
      <trkpt lat="42.402858000" lon="-2.637189000">
        <ele>696.30</ele>
        <time>2016-10-29T06:47:47Z</time>
      </trkpt>
      <trkpt lat="42.402876000" lon="-2.637209000">
        <ele>696.50</ele>
        <time>2016-10-29T06:47:48Z</time>
      </trkpt>
      <trkpt lat="42.402897000" lon="-2.637230000">
        <ele>696.70</ele>
        <time>2016-10-29T06:47:49Z</time>
      </trkpt>
      <trkpt lat="42.402915000" lon="-2.637250000">
        <ele>696.80</ele>
        <time>2016-10-29T06:47:50Z</time>
      </trkpt>
      <trkpt lat="42.402933000" lon="-2.637270000">
        <ele>697.00</ele>
        <time>2016-10-29T06:47:51Z</time>
      </trkpt>
      <trkpt lat="42.402948000" lon="-2.637289000">
        <ele>697.20</ele>
        <time>2016-10-29T06:47:52Z</time>
      </trkpt>
      <trkpt lat="42.402965000" lon="-2.637312000">
        <ele>697.30</ele>
        <time>2016-10-29T06:47:53Z</time>
      </trkpt>
      <trkpt lat="42.402980000" lon="-2.637333000">
        <ele>697.50</ele>
        <time>2016-10-29T06:47:54Z</time>
      </trkpt>
      <trkpt lat="42.402995000" lon="-2.637354000">
        <ele>697.60</ele>
        <time>2016-10-29T06:47:55Z</time>
      </trkpt>
      <trkpt lat="42.403011000" lon="-2.637377000">
        <ele>697.90</ele>
        <time>2016-10-29T06:47:56Z</time>
      </trkpt>
      <trkpt lat="42.403027000" lon="-2.637396000">
        <ele>698.20</ele>
        <time>2016-10-29T06:47:57Z</time>
      </trkpt>
      <trkpt lat="42.403043000" lon="-2.637415000">
        <ele>698.40</ele>
        <time>2016-10-29T06:47:58Z</time>
      </trkpt>
      <trkpt lat="42.403059000" lon="-2.637438000">
        <ele>698.60</ele>
        <time>2016-10-29T06:47:59Z</time>
      </trkpt>
      <trkpt lat="42.403074000" lon="-2.637460000">
        <ele>698.80</ele>
        <time>2016-10-29T06:48:00Z</time>
      </trkpt>
      <trkpt lat="42.403089000" lon="-2.637485000">
        <ele>698.90</ele>
        <time>2016-10-29T06:48:01Z</time>
      </trkpt>
      <trkpt lat="42.403105000" lon="-2.637511000">
        <ele>699.00</ele>
        <time>2016-10-29T06:48:02Z</time>
      </trkpt>
      <trkpt lat="42.403118000" lon="-2.637535000">
        <ele>699.10</ele>
        <time>2016-10-29T06:48:03Z</time>
      </trkpt>
      <trkpt lat="42.403133000" lon="-2.637556000">
        <ele>699.20</ele>
        <time>2016-10-29T06:48:04Z</time>
      </trkpt>
      <trkpt lat="42.403146000" lon="-2.637579000">
        <ele>699.30</ele>
        <time>2016-10-29T06:48:05Z</time>
      </trkpt>
      <trkpt lat="42.403159000" lon="-2.637602000">
        <ele>699.60</ele>
        <time>2016-10-29T06:48:06Z</time>
      </trkpt>
      <trkpt lat="42.403174000" lon="-2.637622000">
        <ele>699.80</ele>
        <time>2016-10-29T06:48:07Z</time>
      </trkpt>
      <trkpt lat="42.403186000" lon="-2.637642000">
        <ele>700.00</ele>
        <time>2016-10-29T06:48:08Z</time>
      </trkpt>
      <trkpt lat="42.403201000" lon="-2.637662000">
        <ele>700.20</ele>
        <time>2016-10-29T06:48:09Z</time>
      </trkpt>
      <trkpt lat="42.403216000" lon="-2.637682000">
        <ele>700.30</ele>
        <time>2016-10-29T06:48:10Z</time>
      </trkpt>
      <trkpt lat="42.403229000" lon="-2.637701000">
        <ele>700.40</ele>
        <time>2016-10-29T06:48:11Z</time>
      </trkpt>
      <trkpt lat="42.403243000" lon="-2.637722000">
        <ele>700.50</ele>
        <time>2016-10-29T06:48:12Z</time>
      </trkpt>
      <trkpt lat="42.403256000" lon="-2.637744000">
        <ele>700.50</ele>
        <time>2016-10-29T06:48:13Z</time>
      </trkpt>
      <trkpt lat="42.403273000" lon="-2.637759000">
        <ele>700.50</ele>
        <time>2016-10-29T06:48:14Z</time>
      </trkpt>
      <trkpt lat="42.403288000" lon="-2.637777000">
        <ele>700.50</ele>
        <time>2016-10-29T06:48:15Z</time>
      </trkpt>
      <trkpt lat="42.403304000" lon="-2.637799000">
        <ele>700.50</ele>
        <time>2016-10-29T06:48:16Z</time>
      </trkpt>
      <trkpt lat="42.403314000" lon="-2.637816000">
        <ele>700.60</ele>
        <time>2016-10-29T06:48:17Z</time>
      </trkpt>
      <trkpt lat="42.403329000" lon="-2.637836000">
        <ele>700.70</ele>
        <time>2016-10-29T06:48:18Z</time>
      </trkpt>
      <trkpt lat="42.403342000" lon="-2.637856000">
        <ele>700.80</ele>
        <time>2016-10-29T06:48:19Z</time>
      </trkpt>
      <trkpt lat="42.403358000" lon="-2.637876000">
        <ele>701.10</ele>
        <time>2016-10-29T06:48:20Z</time>
      </trkpt>
      <trkpt lat="42.403373000" lon="-2.637896000">
        <ele>701.20</ele>
        <time>2016-10-29T06:48:21Z</time>
      </trkpt>
      <trkpt lat="42.403387000" lon="-2.637920000">
        <ele>701.60</ele>
        <time>2016-10-29T06:48:22Z</time>
      </trkpt>
      <trkpt lat="42.403401000" lon="-2.637941000">
        <ele>701.90</ele>
        <time>2016-10-29T06:48:23Z</time>
      </trkpt>
      <trkpt lat="42.403415000" lon="-2.637962000">
        <ele>702.10</ele>
        <time>2016-10-29T06:48:24Z</time>
      </trkpt>
      <trkpt lat="42.403430000" lon="-2.637983000">
        <ele>702.20</ele>
        <time>2016-10-29T06:48:25Z</time>
      </trkpt>
      <trkpt lat="42.403444000" lon="-2.638005000">
        <ele>702.40</ele>
        <time>2016-10-29T06:48:26Z</time>
      </trkpt>
      <trkpt lat="42.403458000" lon="-2.638022000">
        <ele>702.60</ele>
        <time>2016-10-29T06:48:27Z</time>
      </trkpt>
      <trkpt lat="42.403472000" lon="-2.638043000">
        <ele>702.80</ele>
        <time>2016-10-29T06:48:28Z</time>
      </trkpt>
      <trkpt lat="42.403485000" lon="-2.638065000">
        <ele>703.00</ele>
        <time>2016-10-29T06:48:29Z</time>
      </trkpt>
      <trkpt lat="42.403512000" lon="-2.638104000">
        <ele>703.40</ele>
        <time>2016-10-29T06:48:31Z</time>
      </trkpt>
      <trkpt lat="42.403525000" lon="-2.638127000">
        <ele>703.60</ele>
        <time>2016-10-29T06:48:32Z</time>
      </trkpt>
      <trkpt lat="42.403539000" lon="-2.638147000">
        <ele>703.70</ele>
        <time>2016-10-29T06:48:33Z</time>
      </trkpt>
      <trkpt lat="42.403553000" lon="-2.638165000">
        <ele>704.00</ele>
        <time>2016-10-29T06:48:34Z</time>
      </trkpt>
      <trkpt lat="42.403566000" lon="-2.638186000">
        <ele>704.20</ele>
        <time>2016-10-29T06:48:35Z</time>
      </trkpt>
      <trkpt lat="42.403582000" lon="-2.638208000">
        <ele>704.60</ele>
        <time>2016-10-29T06:48:36Z</time>
      </trkpt>
      <trkpt lat="42.403599000" lon="-2.638230000">
        <ele>704.80</ele>
        <time>2016-10-29T06:48:37Z</time>
      </trkpt>
      <trkpt lat="42.403615000" lon="-2.638248000">
        <ele>705.00</ele>
        <time>2016-10-29T06:48:38Z</time>
      </trkpt>
      <trkpt lat="42.403631000" lon="-2.638268000">
        <ele>705.20</ele>
        <time>2016-10-29T06:48:39Z</time>
      </trkpt>
      <trkpt lat="42.403645000" lon="-2.638292000">
        <ele>705.30</ele>
        <time>2016-10-29T06:48:40Z</time>
      </trkpt>
      <trkpt lat="42.403662000" lon="-2.638310000">
        <ele>705.40</ele>
        <time>2016-10-29T06:48:41Z</time>
      </trkpt>
      <trkpt lat="42.403677000" lon="-2.638329000">
        <ele>705.50</ele>
        <time>2016-10-29T06:48:42Z</time>
      </trkpt>
      <trkpt lat="42.403693000" lon="-2.638347000">
        <ele>705.50</ele>
        <time>2016-10-29T06:48:43Z</time>
      </trkpt>
      <trkpt lat="42.403709000" lon="-2.638364000">
        <ele>705.60</ele>
        <time>2016-10-29T06:48:44Z</time>
      </trkpt>
      <trkpt lat="42.403725000" lon="-2.638384000">
        <ele>705.60</ele>
        <time>2016-10-29T06:48:45Z</time>
      </trkpt>
      <trkpt lat="42.403740000" lon="-2.638406000">
        <ele>705.80</ele>
        <time>2016-10-29T06:48:46Z</time>
      </trkpt>
      <trkpt lat="42.403755000" lon="-2.638422000">
        <ele>706.00</ele>
        <time>2016-10-29T06:48:47Z</time>
      </trkpt>
      <trkpt lat="42.403768000" lon="-2.638442000">
        <ele>706.20</ele>
        <time>2016-10-29T06:48:48Z</time>
      </trkpt>
      <trkpt lat="42.403782000" lon="-2.638460000">
        <ele>706.30</ele>
        <time>2016-10-29T06:48:49Z</time>
      </trkpt>
      <trkpt lat="42.403799000" lon="-2.638481000">
        <ele>706.50</ele>
        <time>2016-10-29T06:48:50Z</time>
      </trkpt>
      <trkpt lat="42.403815000" lon="-2.638500000">
        <ele>706.60</ele>
        <time>2016-10-29T06:48:51Z</time>
      </trkpt>
      <trkpt lat="42.403831000" lon="-2.638522000">
        <ele>706.70</ele>
        <time>2016-10-29T06:48:52Z</time>
      </trkpt>
      <trkpt lat="42.403846000" lon="-2.638542000">
        <ele>706.80</ele>
        <time>2016-10-29T06:48:53Z</time>
      </trkpt>
      <trkpt lat="42.403861000" lon="-2.638562000">
        <ele>706.90</ele>
        <time>2016-10-29T06:48:54Z</time>
      </trkpt>
      <trkpt lat="42.403877000" lon="-2.638584000">
        <ele>706.90</ele>
        <time>2016-10-29T06:48:55Z</time>
      </trkpt>
      <trkpt lat="42.403894000" lon="-2.638607000">
        <ele>707.20</ele>
        <time>2016-10-29T06:48:56Z</time>
      </trkpt>
      <trkpt lat="42.403908000" lon="-2.638629000">
        <ele>707.50</ele>
        <time>2016-10-29T06:48:57Z</time>
      </trkpt>
      <trkpt lat="42.403921000" lon="-2.638648000">
        <ele>707.80</ele>
        <time>2016-10-29T06:48:58Z</time>
      </trkpt>
      <trkpt lat="42.403932000" lon="-2.638675000">
        <ele>708.00</ele>
        <time>2016-10-29T06:48:59Z</time>
      </trkpt>
      <trkpt lat="42.403946000" lon="-2.638697000">
        <ele>708.20</ele>
        <time>2016-10-29T06:49:00Z</time>
      </trkpt>
      <trkpt lat="42.403960000" lon="-2.638722000">
        <ele>708.40</ele>
        <time>2016-10-29T06:49:01Z</time>
      </trkpt>
      <trkpt lat="42.403971000" lon="-2.638746000">
        <ele>708.70</ele>
        <time>2016-10-29T06:49:02Z</time>
      </trkpt>
      <trkpt lat="42.403984000" lon="-2.638770000">
        <ele>709.00</ele>
        <time>2016-10-29T06:49:03Z</time>
      </trkpt>
      <trkpt lat="42.403995000" lon="-2.638799000">
        <ele>709.20</ele>
        <time>2016-10-29T06:49:04Z</time>
      </trkpt>
      <trkpt lat="42.404001000" lon="-2.638826000">
        <ele>709.30</ele>
        <time>2016-10-29T06:49:05Z</time>
      </trkpt>
      <trkpt lat="42.404007000" lon="-2.638852000">
        <ele>709.40</ele>
        <time>2016-10-29T06:49:06Z</time>
      </trkpt>
      <trkpt lat="42.404012000" lon="-2.638881000">
        <ele>709.50</ele>
        <time>2016-10-29T06:49:07Z</time>
      </trkpt>
      <trkpt lat="42.404016000" lon="-2.638912000">
        <ele>709.70</ele>
        <time>2016-10-29T06:49:08Z</time>
      </trkpt>
      <trkpt lat="42.404016000" lon="-2.638942000">
        <ele>709.90</ele>
        <time>2016-10-29T06:49:09Z</time>
      </trkpt>
      <trkpt lat="42.404018000" lon="-2.638976000">
        <ele>710.00</ele>
        <time>2016-10-29T06:49:10Z</time>
      </trkpt>
      <trkpt lat="42.404016000" lon="-2.639004000">
        <ele>710.10</ele>
        <time>2016-10-29T06:49:11Z</time>
      </trkpt>
      <trkpt lat="42.404013000" lon="-2.639034000">
        <ele>710.20</ele>
        <time>2016-10-29T06:49:12Z</time>
      </trkpt>
      <trkpt lat="42.404007000" lon="-2.639061000">
        <ele>710.20</ele>
        <time>2016-10-29T06:49:13Z</time>
      </trkpt>
      <trkpt lat="42.404001000" lon="-2.639087000">
        <ele>710.30</ele>
        <time>2016-10-29T06:49:14Z</time>
      </trkpt>
      <trkpt lat="42.403991000" lon="-2.639112000">
        <ele>710.30</ele>
        <time>2016-10-29T06:49:15Z</time>
      </trkpt>
      <trkpt lat="42.403977000" lon="-2.639134000">
        <ele>710.50</ele>
        <time>2016-10-29T06:49:16Z</time>
      </trkpt>
      <trkpt lat="42.403964000" lon="-2.639157000">
        <ele>710.70</ele>
        <time>2016-10-29T06:49:17Z</time>
      </trkpt>
      <trkpt lat="42.403952000" lon="-2.639179000">
        <ele>710.90</ele>
        <time>2016-10-29T06:49:18Z</time>
      </trkpt>
      <trkpt lat="42.403937000" lon="-2.639198000">
        <ele>711.00</ele>
        <time>2016-10-29T06:49:19Z</time>
      </trkpt>
      <trkpt lat="42.403923000" lon="-2.639216000">
        <ele>711.10</ele>
        <time>2016-10-29T06:49:20Z</time>
      </trkpt>
      <trkpt lat="42.403905000" lon="-2.639231000">
        <ele>711.20</ele>
        <time>2016-10-29T06:49:21Z</time>
      </trkpt>
      <trkpt lat="42.403891000" lon="-2.639244000">
        <ele>711.30</ele>
        <time>2016-10-29T06:49:22Z</time>
      </trkpt>
      <trkpt lat="42.403874000" lon="-2.639253000">
        <ele>711.40</ele>
        <time>2016-10-29T06:49:23Z</time>
      </trkpt>
      <trkpt lat="42.403857000" lon="-2.639263000">
        <ele>711.50</ele>
        <time>2016-10-29T06:49:24Z</time>
      </trkpt>
      <trkpt lat="42.403839000" lon="-2.639271000">
        <ele>711.60</ele>
        <time>2016-10-29T06:49:25Z</time>
      </trkpt>
      <trkpt lat="42.403820000" lon="-2.639272000">
        <ele>711.70</ele>
        <time>2016-10-29T06:49:26Z</time>
      </trkpt>
      <trkpt lat="42.403801000" lon="-2.639279000">
        <ele>711.90</ele>
        <time>2016-10-29T06:49:27Z</time>
      </trkpt>
      <trkpt lat="42.403782000" lon="-2.639283000">
        <ele>712.10</ele>
        <time>2016-10-29T06:49:28Z</time>
      </trkpt>
      <trkpt lat="42.403763000" lon="-2.639286000">
        <ele>712.20</ele>
        <time>2016-10-29T06:49:29Z</time>
      </trkpt>
      <trkpt lat="42.403747000" lon="-2.639287000">
        <ele>712.50</ele>
        <time>2016-10-29T06:49:30Z</time>
      </trkpt>
      <trkpt lat="42.403708000" lon="-2.639291000">
        <ele>712.80</ele>
        <time>2016-10-29T06:49:32Z</time>
      </trkpt>
      <trkpt lat="42.403688000" lon="-2.639294000">
        <ele>713.00</ele>
        <time>2016-10-29T06:49:33Z</time>
      </trkpt>
      <trkpt lat="42.403668000" lon="-2.639292000">
        <ele>713.10</ele>
        <time>2016-10-29T06:49:34Z</time>
      </trkpt>
      <trkpt lat="42.403651000" lon="-2.639291000">
        <ele>713.30</ele>
        <time>2016-10-29T06:49:35Z</time>
      </trkpt>
      <trkpt lat="42.403636000" lon="-2.639289000">
        <ele>713.60</ele>
        <time>2016-10-29T06:49:36Z</time>
      </trkpt>
      <trkpt lat="42.403621000" lon="-2.639288000">
        <ele>713.80</ele>
        <time>2016-10-29T06:49:37Z</time>
      </trkpt>
      <trkpt lat="42.403606000" lon="-2.639291000">
        <ele>714.00</ele>
        <time>2016-10-29T06:49:38Z</time>
      </trkpt>
      <trkpt lat="42.403590000" lon="-2.639289000">
        <ele>714.10</ele>
        <time>2016-10-29T06:49:39Z</time>
      </trkpt>
      <trkpt lat="42.403574000" lon="-2.639286000">
        <ele>714.30</ele>
        <time>2016-10-29T06:49:40Z</time>
      </trkpt>
      <trkpt lat="42.403556000" lon="-2.639282000">
        <ele>714.50</ele>
        <time>2016-10-29T06:49:41Z</time>
      </trkpt>
      <trkpt lat="42.403540000" lon="-2.639280000">
        <ele>714.80</ele>
        <time>2016-10-29T06:49:42Z</time>
      </trkpt>
      <trkpt lat="42.403522000" lon="-2.639277000">
        <ele>715.00</ele>
        <time>2016-10-29T06:49:43Z</time>
      </trkpt>
      <trkpt lat="42.403505000" lon="-2.639275000">
        <ele>715.30</ele>
        <time>2016-10-29T06:49:44Z</time>
      </trkpt>
      <trkpt lat="42.403488000" lon="-2.639275000">
        <ele>715.50</ele>
        <time>2016-10-29T06:49:45Z</time>
      </trkpt>
      <trkpt lat="42.403471000" lon="-2.639273000">
        <ele>715.70</ele>
        <time>2016-10-29T06:49:46Z</time>
      </trkpt>
      <trkpt lat="42.403454000" lon="-2.639275000">
        <ele>715.90</ele>
        <time>2016-10-29T06:49:47Z</time>
      </trkpt>
      <trkpt lat="42.403438000" lon="-2.639275000">
        <ele>716.00</ele>
        <time>2016-10-29T06:49:48Z</time>
      </trkpt>
      <trkpt lat="42.403420000" lon="-2.639274000">
        <ele>716.20</ele>
        <time>2016-10-29T06:49:49Z</time>
      </trkpt>
      <trkpt lat="42.403405000" lon="-2.639276000">
        <ele>716.40</ele>
        <time>2016-10-29T06:49:50Z</time>
      </trkpt>
      <trkpt lat="42.403390000" lon="-2.639274000">
        <ele>716.50</ele>
        <time>2016-10-29T06:49:51Z</time>
      </trkpt>
      <trkpt lat="42.403375000" lon="-2.639269000">
        <ele>716.60</ele>
        <time>2016-10-29T06:49:52Z</time>
      </trkpt>
      <trkpt lat="42.403361000" lon="-2.639264000">
        <ele>716.70</ele>
        <time>2016-10-29T06:49:53Z</time>
      </trkpt>
      <trkpt lat="42.403346000" lon="-2.639263000">
        <ele>716.80</ele>
        <time>2016-10-29T06:49:54Z</time>
      </trkpt>
      <trkpt lat="42.403326000" lon="-2.639263000">
        <ele>716.80</ele>
        <time>2016-10-29T06:49:55Z</time>
      </trkpt>
      <trkpt lat="42.403310000" lon="-2.639260000">
        <ele>717.10</ele>
        <time>2016-10-29T06:49:56Z</time>
      </trkpt>
      <trkpt lat="42.403291000" lon="-2.639262000">
        <ele>717.30</ele>
        <time>2016-10-29T06:49:57Z</time>
      </trkpt>
      <trkpt lat="42.403276000" lon="-2.639263000">
        <ele>717.40</ele>
        <time>2016-10-29T06:49:58Z</time>
      </trkpt>
      <trkpt lat="42.403260000" lon="-2.639265000">
        <ele>717.50</ele>
        <time>2016-10-29T06:49:59Z</time>
      </trkpt>
      <trkpt lat="42.403243000" lon="-2.639263000">
        <ele>717.90</ele>
        <time>2016-10-29T06:50:00Z</time>
      </trkpt>
      <trkpt lat="42.403228000" lon="-2.639261000">
        <ele>718.20</ele>
        <time>2016-10-29T06:50:01Z</time>
      </trkpt>
      <trkpt lat="42.403210000" lon="-2.639257000">
        <ele>718.40</ele>
        <time>2016-10-29T06:50:02Z</time>
      </trkpt>
      <trkpt lat="42.403194000" lon="-2.639255000">
        <ele>718.60</ele>
        <time>2016-10-29T06:50:03Z</time>
      </trkpt>
      <trkpt lat="42.403179000" lon="-2.639253000">
        <ele>718.70</ele>
        <time>2016-10-29T06:50:04Z</time>
      </trkpt>
      <trkpt lat="42.403162000" lon="-2.639250000">
        <ele>718.80</ele>
        <time>2016-10-29T06:50:05Z</time>
      </trkpt>
      <trkpt lat="42.403145000" lon="-2.639247000">
        <ele>719.00</ele>
        <time>2016-10-29T06:50:06Z</time>
      </trkpt>
      <trkpt lat="42.403129000" lon="-2.639244000">
        <ele>719.20</ele>
        <time>2016-10-29T06:50:07Z</time>
      </trkpt>
      <trkpt lat="42.403111000" lon="-2.639242000">
        <ele>719.40</ele>
        <time>2016-10-29T06:50:08Z</time>
      </trkpt>
      <trkpt lat="42.403095000" lon="-2.639238000">
        <ele>719.60</ele>
        <time>2016-10-29T06:50:09Z</time>
      </trkpt>
      <trkpt lat="42.403080000" lon="-2.639238000">
        <ele>719.70</ele>
        <time>2016-10-29T06:50:10Z</time>
      </trkpt>
      <trkpt lat="42.403063000" lon="-2.639236000">
        <ele>719.80</ele>
        <time>2016-10-29T06:50:11Z</time>
      </trkpt>
      <trkpt lat="42.403047000" lon="-2.639231000">
        <ele>719.90</ele>
        <time>2016-10-29T06:50:12Z</time>
      </trkpt>
      <trkpt lat="42.403030000" lon="-2.639226000">
        <ele>720.00</ele>
        <time>2016-10-29T06:50:13Z</time>
      </trkpt>
      <trkpt lat="42.403012000" lon="-2.639219000">
        <ele>720.20</ele>
        <time>2016-10-29T06:50:14Z</time>
      </trkpt>
      <trkpt lat="42.402993000" lon="-2.639220000">
        <ele>720.30</ele>
        <time>2016-10-29T06:50:15Z</time>
      </trkpt>
      <trkpt lat="42.402977000" lon="-2.639218000">
        <ele>720.40</ele>
        <time>2016-10-29T06:50:16Z</time>
      </trkpt>
      <trkpt lat="42.402961000" lon="-2.639215000">
        <ele>720.50</ele>
        <time>2016-10-29T06:50:17Z</time>
      </trkpt>
      <trkpt lat="42.402946000" lon="-2.639213000">
        <ele>720.60</ele>
        <time>2016-10-29T06:50:18Z</time>
      </trkpt>
      <trkpt lat="42.402929000" lon="-2.639207000">
        <ele>720.70</ele>
        <time>2016-10-29T06:50:19Z</time>
      </trkpt>
      <trkpt lat="42.402913000" lon="-2.639206000">
        <ele>720.90</ele>
        <time>2016-10-29T06:50:20Z</time>
      </trkpt>
      <trkpt lat="42.402896000" lon="-2.639207000">
        <ele>721.10</ele>
        <time>2016-10-29T06:50:21Z</time>
      </trkpt>
      <trkpt lat="42.402880000" lon="-2.639204000">
        <ele>721.20</ele>
        <time>2016-10-29T06:50:22Z</time>
      </trkpt>
      <trkpt lat="42.402861000" lon="-2.639202000">
        <ele>721.30</ele>
        <time>2016-10-29T06:50:23Z</time>
      </trkpt>
      <trkpt lat="42.402845000" lon="-2.639199000">
        <ele>721.50</ele>
        <time>2016-10-29T06:50:24Z</time>
      </trkpt>
      <trkpt lat="42.402829000" lon="-2.639197000">
        <ele>721.60</ele>
        <time>2016-10-29T06:50:25Z</time>
      </trkpt>
      <trkpt lat="42.402809000" lon="-2.639195000">
        <ele>721.60</ele>
        <time>2016-10-29T06:50:26Z</time>
      </trkpt>
      <trkpt lat="42.402793000" lon="-2.639193000">
        <ele>721.60</ele>
        <time>2016-10-29T06:50:27Z</time>
      </trkpt>
      <trkpt lat="42.402776000" lon="-2.639189000">
        <ele>721.70</ele>
        <time>2016-10-29T06:50:28Z</time>
      </trkpt>
      <trkpt lat="42.402760000" lon="-2.639190000">
        <ele>721.70</ele>
        <time>2016-10-29T06:50:29Z</time>
      </trkpt>
      <trkpt lat="42.402742000" lon="-2.639188000">
        <ele>721.90</ele>
        <time>2016-10-29T06:50:30Z</time>
      </trkpt>
      <trkpt lat="42.402727000" lon="-2.639183000">
        <ele>722.10</ele>
        <time>2016-10-29T06:50:31Z</time>
      </trkpt>
      <trkpt lat="42.402694000" lon="-2.639172000">
        <ele>722.50</ele>
        <time>2016-10-29T06:50:33Z</time>
      </trkpt>
      <trkpt lat="42.402676000" lon="-2.639167000">
        <ele>722.70</ele>
        <time>2016-10-29T06:50:34Z</time>
      </trkpt>
      <trkpt lat="42.402658000" lon="-2.639170000">
        <ele>722.90</ele>
        <time>2016-10-29T06:50:35Z</time>
      </trkpt>
      <trkpt lat="42.402641000" lon="-2.639167000">
        <ele>723.20</ele>
        <time>2016-10-29T06:50:36Z</time>
      </trkpt>
      <trkpt lat="42.402624000" lon="-2.639165000">
        <ele>723.40</ele>
        <time>2016-10-29T06:50:37Z</time>
      </trkpt>
      <trkpt lat="42.402607000" lon="-2.639165000">
        <ele>723.60</ele>
        <time>2016-10-29T06:50:38Z</time>
      </trkpt>
      <trkpt lat="42.402590000" lon="-2.639159000">
        <ele>723.70</ele>
        <time>2016-10-29T06:50:39Z</time>
      </trkpt>
      <trkpt lat="42.402573000" lon="-2.639155000">
        <ele>723.80</ele>
        <time>2016-10-29T06:50:40Z</time>
      </trkpt>
      <trkpt lat="42.402557000" lon="-2.639152000">
        <ele>723.90</ele>
        <time>2016-10-29T06:50:41Z</time>
      </trkpt>
      <trkpt lat="42.402540000" lon="-2.639152000">
        <ele>724.10</ele>
        <time>2016-10-29T06:50:42Z</time>
      </trkpt>
      <trkpt lat="42.402523000" lon="-2.639153000">
        <ele>724.20</ele>
        <time>2016-10-29T06:50:43Z</time>
      </trkpt>
      <trkpt lat="42.402506000" lon="-2.639149000">
        <ele>724.20</ele>
        <time>2016-10-29T06:50:44Z</time>
      </trkpt>
      <trkpt lat="42.402490000" lon="-2.639147000">
        <ele>724.30</ele>
        <time>2016-10-29T06:50:45Z</time>
      </trkpt>
      <trkpt lat="42.402474000" lon="-2.639142000">
        <ele>724.40</ele>
        <time>2016-10-29T06:50:46Z</time>
      </trkpt>
      <trkpt lat="42.402457000" lon="-2.639135000">
        <ele>724.50</ele>
        <time>2016-10-29T06:50:47Z</time>
      </trkpt>
      <trkpt lat="42.402440000" lon="-2.639135000">
        <ele>724.70</ele>
        <time>2016-10-29T06:50:48Z</time>
      </trkpt>
      <trkpt lat="42.402422000" lon="-2.639131000">
        <ele>724.80</ele>
        <time>2016-10-29T06:50:49Z</time>
      </trkpt>
      <trkpt lat="42.402403000" lon="-2.639127000">
        <ele>724.90</ele>
        <time>2016-10-29T06:50:50Z</time>
      </trkpt>
      <trkpt lat="42.402384000" lon="-2.639124000">
        <ele>724.90</ele>
        <time>2016-10-29T06:50:51Z</time>
      </trkpt>
      <trkpt lat="42.402368000" lon="-2.639117000">
        <ele>725.00</ele>
        <time>2016-10-29T06:50:52Z</time>
      </trkpt>
      <trkpt lat="42.402350000" lon="-2.639118000">
        <ele>725.00</ele>
        <time>2016-10-29T06:50:53Z</time>
      </trkpt>
      <trkpt lat="42.402333000" lon="-2.639116000">
        <ele>725.20</ele>
        <time>2016-10-29T06:50:54Z</time>
      </trkpt>
      <trkpt lat="42.402315000" lon="-2.639111000">
        <ele>725.30</ele>
        <time>2016-10-29T06:50:55Z</time>
      </trkpt>
      <trkpt lat="42.402298000" lon="-2.639109000">
        <ele>725.40</ele>
        <time>2016-10-29T06:50:56Z</time>
      </trkpt>
      <trkpt lat="42.402278000" lon="-2.639104000">
        <ele>725.50</ele>
        <time>2016-10-29T06:50:57Z</time>
      </trkpt>
      <trkpt lat="42.402261000" lon="-2.639097000">
        <ele>725.70</ele>
        <time>2016-10-29T06:50:58Z</time>
      </trkpt>
      <trkpt lat="42.402243000" lon="-2.639094000">
        <ele>725.80</ele>
        <time>2016-10-29T06:50:59Z</time>
      </trkpt>
      <trkpt lat="42.402229000" lon="-2.639090000">
        <ele>726.10</ele>
        <time>2016-10-29T06:51:00Z</time>
      </trkpt>
      <trkpt lat="42.402216000" lon="-2.639084000">
        <ele>726.30</ele>
        <time>2016-10-29T06:51:01Z</time>
      </trkpt>
      <trkpt lat="42.402201000" lon="-2.639084000">
        <ele>726.50</ele>
        <time>2016-10-29T06:51:02Z</time>
      </trkpt>
      <trkpt lat="42.402187000" lon="-2.639080000">
        <ele>726.60</ele>
        <time>2016-10-29T06:51:03Z</time>
      </trkpt>
      <trkpt lat="42.402172000" lon="-2.639079000">
        <ele>726.80</ele>
        <time>2016-10-29T06:51:04Z</time>
      </trkpt>
      <trkpt lat="42.402155000" lon="-2.639082000">
        <ele>726.80</ele>
        <time>2016-10-29T06:51:05Z</time>
      </trkpt>
      <trkpt lat="42.402138000" lon="-2.639084000">
        <ele>727.00</ele>
        <time>2016-10-29T06:51:06Z</time>
      </trkpt>
      <trkpt lat="42.402119000" lon="-2.639083000">
        <ele>727.10</ele>
        <time>2016-10-29T06:51:07Z</time>
      </trkpt>
      <trkpt lat="42.402102000" lon="-2.639083000">
        <ele>727.30</ele>
        <time>2016-10-29T06:51:08Z</time>
      </trkpt>
      <trkpt lat="42.402083000" lon="-2.639080000">
        <ele>727.40</ele>
        <time>2016-10-29T06:51:09Z</time>
      </trkpt>
      <trkpt lat="42.402066000" lon="-2.639068000">
        <ele>727.50</ele>
        <time>2016-10-29T06:51:10Z</time>
      </trkpt>
      <trkpt lat="42.402046000" lon="-2.639062000">
        <ele>727.60</ele>
        <time>2016-10-29T06:51:11Z</time>
      </trkpt>
      <trkpt lat="42.402027000" lon="-2.639054000">
        <ele>728.00</ele>
        <time>2016-10-29T06:51:12Z</time>
      </trkpt>
      <trkpt lat="42.402011000" lon="-2.639049000">
        <ele>728.20</ele>
        <time>2016-10-29T06:51:13Z</time>
      </trkpt>
      <trkpt lat="42.401991000" lon="-2.639047000">
        <ele>728.40</ele>
        <time>2016-10-29T06:51:14Z</time>
      </trkpt>
      <trkpt lat="42.401972000" lon="-2.639045000">
        <ele>728.50</ele>
        <time>2016-10-29T06:51:15Z</time>
      </trkpt>
      <trkpt lat="42.401955000" lon="-2.639045000">
        <ele>728.60</ele>
        <time>2016-10-29T06:51:16Z</time>
      </trkpt>
      <trkpt lat="42.401938000" lon="-2.639046000">
        <ele>728.70</ele>
        <time>2016-10-29T06:51:17Z</time>
      </trkpt>
      <trkpt lat="42.401920000" lon="-2.639045000">
        <ele>728.80</ele>
        <time>2016-10-29T06:51:18Z</time>
      </trkpt>
      <trkpt lat="42.401903000" lon="-2.639045000">
        <ele>728.90</ele>
        <time>2016-10-29T06:51:19Z</time>
      </trkpt>
      <trkpt lat="42.401886000" lon="-2.639046000">
        <ele>729.10</ele>
        <time>2016-10-29T06:51:20Z</time>
      </trkpt>
      <trkpt lat="42.401872000" lon="-2.639044000">
        <ele>729.20</ele>
        <time>2016-10-29T06:51:21Z</time>
      </trkpt>
      <trkpt lat="42.401855000" lon="-2.639037000">
        <ele>729.40</ele>
        <time>2016-10-29T06:51:22Z</time>
      </trkpt>
      <trkpt lat="42.401837000" lon="-2.639034000">
        <ele>729.50</ele>
        <time>2016-10-29T06:51:23Z</time>
      </trkpt>
      <trkpt lat="42.401818000" lon="-2.639030000">
        <ele>729.60</ele>
        <time>2016-10-29T06:51:24Z</time>
      </trkpt>
      <trkpt lat="42.401802000" lon="-2.639031000">
        <ele>729.80</ele>
        <time>2016-10-29T06:51:25Z</time>
      </trkpt>
      <trkpt lat="42.401782000" lon="-2.639029000">
        <ele>729.90</ele>
        <time>2016-10-29T06:51:26Z</time>
      </trkpt>
      <trkpt lat="42.401763000" lon="-2.639026000">
        <ele>730.10</ele>
        <time>2016-10-29T06:51:27Z</time>
      </trkpt>
      <trkpt lat="42.401744000" lon="-2.639024000">
        <ele>730.40</ele>
        <time>2016-10-29T06:51:28Z</time>
      </trkpt>
      <trkpt lat="42.401725000" lon="-2.639020000">
        <ele>730.70</ele>
        <time>2016-10-29T06:51:29Z</time>
      </trkpt>
      <trkpt lat="42.401708000" lon="-2.639017000">
        <ele>730.80</ele>
        <time>2016-10-29T06:51:30Z</time>
      </trkpt>
      <trkpt lat="42.401691000" lon="-2.639016000">
        <ele>730.90</ele>
        <time>2016-10-29T06:51:31Z</time>
      </trkpt>
      <trkpt lat="42.401676000" lon="-2.639016000">
        <ele>731.10</ele>
        <time>2016-10-29T06:51:32Z</time>
      </trkpt>
      <trkpt lat="42.401642000" lon="-2.639014000">
        <ele>731.20</ele>
        <time>2016-10-29T06:51:34Z</time>
      </trkpt>
      <trkpt lat="42.401626000" lon="-2.639008000">
        <ele>731.20</ele>
        <time>2016-10-29T06:51:35Z</time>
      </trkpt>
      <trkpt lat="42.401609000" lon="-2.639004000">
        <ele>731.30</ele>
        <time>2016-10-29T06:51:36Z</time>
      </trkpt>
      <trkpt lat="42.401592000" lon="-2.638998000">
        <ele>731.30</ele>
        <time>2016-10-29T06:51:37Z</time>
      </trkpt>
      <trkpt lat="42.401575000" lon="-2.638997000">
        <ele>731.50</ele>
        <time>2016-10-29T06:51:38Z</time>
      </trkpt>
      <trkpt lat="42.401558000" lon="-2.638994000">
        <ele>731.60</ele>
        <time>2016-10-29T06:51:39Z</time>
      </trkpt>
      <trkpt lat="42.401540000" lon="-2.638990000">
        <ele>731.80</ele>
        <time>2016-10-29T06:51:40Z</time>
      </trkpt>
      <trkpt lat="42.401522000" lon="-2.638986000">
        <ele>731.90</ele>
        <time>2016-10-29T06:51:41Z</time>
      </trkpt>
      <trkpt lat="42.401505000" lon="-2.638983000">
        <ele>732.10</ele>
        <time>2016-10-29T06:51:42Z</time>
      </trkpt>
      <trkpt lat="42.401488000" lon="-2.638981000">
        <ele>732.20</ele>
        <time>2016-10-29T06:51:43Z</time>
      </trkpt>
      <trkpt lat="42.401469000" lon="-2.638979000">
        <ele>732.30</ele>
        <time>2016-10-29T06:51:44Z</time>
      </trkpt>
      <trkpt lat="42.401450000" lon="-2.638978000">
        <ele>732.50</ele>
        <time>2016-10-29T06:51:45Z</time>
      </trkpt>
      <trkpt lat="42.401431000" lon="-2.638976000">
        <ele>732.50</ele>
        <time>2016-10-29T06:51:46Z</time>
      </trkpt>
      <trkpt lat="42.401416000" lon="-2.638973000">
        <ele>732.60</ele>
        <time>2016-10-29T06:51:47Z</time>
      </trkpt>
      <trkpt lat="42.401398000" lon="-2.638970000">
        <ele>732.90</ele>
        <time>2016-10-29T06:51:48Z</time>
      </trkpt>
      <trkpt lat="42.401380000" lon="-2.638970000">
        <ele>733.10</ele>
        <time>2016-10-29T06:51:49Z</time>
      </trkpt>
      <trkpt lat="42.401363000" lon="-2.638968000">
        <ele>733.30</ele>
        <time>2016-10-29T06:51:50Z</time>
      </trkpt>
      <trkpt lat="42.401343000" lon="-2.638967000">
        <ele>733.40</ele>
        <time>2016-10-29T06:51:51Z</time>
      </trkpt>
      <trkpt lat="42.401327000" lon="-2.638963000">
        <ele>733.50</ele>
        <time>2016-10-29T06:51:52Z</time>
      </trkpt>
      <trkpt lat="42.401307000" lon="-2.638956000">
        <ele>733.60</ele>
        <time>2016-10-29T06:51:53Z</time>
      </trkpt>
      <trkpt lat="42.401290000" lon="-2.638950000">
        <ele>733.80</ele>
        <time>2016-10-29T06:51:54Z</time>
      </trkpt>
      <trkpt lat="42.401276000" lon="-2.638946000">
        <ele>734.00</ele>
        <time>2016-10-29T06:51:55Z</time>
      </trkpt>
      <trkpt lat="42.401258000" lon="-2.638945000">
        <ele>734.30</ele>
        <time>2016-10-29T06:51:56Z</time>
      </trkpt>
      <trkpt lat="42.401240000" lon="-2.638942000">
        <ele>734.50</ele>
        <time>2016-10-29T06:51:57Z</time>
      </trkpt>
      <trkpt lat="42.401221000" lon="-2.638941000">
        <ele>734.80</ele>
        <time>2016-10-29T06:51:58Z</time>
      </trkpt>
      <trkpt lat="42.401205000" lon="-2.638940000">
        <ele>735.00</ele>
        <time>2016-10-29T06:51:59Z</time>
      </trkpt>
      <trkpt lat="42.401188000" lon="-2.638937000">
        <ele>735.20</ele>
        <time>2016-10-29T06:52:00Z</time>
      </trkpt>
      <trkpt lat="42.401169000" lon="-2.638935000">
        <ele>735.40</ele>
        <time>2016-10-29T06:52:01Z</time>
      </trkpt>
      <trkpt lat="42.401151000" lon="-2.638935000">
        <ele>735.60</ele>
        <time>2016-10-29T06:52:02Z</time>
      </trkpt>
      <trkpt lat="42.401130000" lon="-2.638934000">
        <ele>735.70</ele>
        <time>2016-10-29T06:52:03Z</time>
      </trkpt>
      <trkpt lat="42.401112000" lon="-2.638931000">
        <ele>735.90</ele>
        <time>2016-10-29T06:52:04Z</time>
      </trkpt>
      <trkpt lat="42.401095000" lon="-2.638930000">
        <ele>736.00</ele>
        <time>2016-10-29T06:52:05Z</time>
      </trkpt>
      <trkpt lat="42.401076000" lon="-2.638928000">
        <ele>736.20</ele>
        <time>2016-10-29T06:52:06Z</time>
      </trkpt>
      <trkpt lat="42.401057000" lon="-2.638927000">
        <ele>736.30</ele>
        <time>2016-10-29T06:52:07Z</time>
      </trkpt>
      <trkpt lat="42.401039000" lon="-2.638924000">
        <ele>736.40</ele>
        <time>2016-10-29T06:52:08Z</time>
      </trkpt>
      <trkpt lat="42.401022000" lon="-2.638921000">
        <ele>736.50</ele>
        <time>2016-10-29T06:52:09Z</time>
      </trkpt>
      <trkpt lat="42.401004000" lon="-2.638918000">
        <ele>736.60</ele>
        <time>2016-10-29T06:52:10Z</time>
      </trkpt>
      <trkpt lat="42.400986000" lon="-2.638920000">
        <ele>736.70</ele>
        <time>2016-10-29T06:52:11Z</time>
      </trkpt>
      <trkpt lat="42.400968000" lon="-2.638916000">
        <ele>737.00</ele>
        <time>2016-10-29T06:52:12Z</time>
      </trkpt>
      <trkpt lat="42.400949000" lon="-2.638915000">
        <ele>737.20</ele>
        <time>2016-10-29T06:52:13Z</time>
      </trkpt>
      <trkpt lat="42.400929000" lon="-2.638909000">
        <ele>737.40</ele>
        <time>2016-10-29T06:52:14Z</time>
      </trkpt>
      <trkpt lat="42.400911000" lon="-2.638905000">
        <ele>737.50</ele>
        <time>2016-10-29T06:52:15Z</time>
      </trkpt>
      <trkpt lat="42.400895000" lon="-2.638901000">
        <ele>737.70</ele>
        <time>2016-10-29T06:52:16Z</time>
      </trkpt>
      <trkpt lat="42.400875000" lon="-2.638899000">
        <ele>737.80</ele>
        <time>2016-10-29T06:52:17Z</time>
      </trkpt>
      <trkpt lat="42.400857000" lon="-2.638896000">
        <ele>737.90</ele>
        <time>2016-10-29T06:52:18Z</time>
      </trkpt>
      <trkpt lat="42.400836000" lon="-2.638893000">
        <ele>738.00</ele>
        <time>2016-10-29T06:52:19Z</time>
      </trkpt>
      <trkpt lat="42.400819000" lon="-2.638894000">
        <ele>738.00</ele>
        <time>2016-10-29T06:52:20Z</time>
      </trkpt>
      <trkpt lat="42.400805000" lon="-2.638893000">
        <ele>738.10</ele>
        <time>2016-10-29T06:52:21Z</time>
      </trkpt>
      <trkpt lat="42.400786000" lon="-2.638891000">
        <ele>738.20</ele>
        <time>2016-10-29T06:52:22Z</time>
      </trkpt>
      <trkpt lat="42.400769000" lon="-2.638888000">
        <ele>738.30</ele>
        <time>2016-10-29T06:52:23Z</time>
      </trkpt>
      <trkpt lat="42.400752000" lon="-2.638884000">
        <ele>738.50</ele>
        <time>2016-10-29T06:52:24Z</time>
      </trkpt>
      <trkpt lat="42.400736000" lon="-2.638883000">
        <ele>738.60</ele>
        <time>2016-10-29T06:52:25Z</time>
      </trkpt>
      <trkpt lat="42.400720000" lon="-2.638878000">
        <ele>738.70</ele>
        <time>2016-10-29T06:52:26Z</time>
      </trkpt>
      <trkpt lat="42.400704000" lon="-2.638875000">
        <ele>738.80</ele>
        <time>2016-10-29T06:52:27Z</time>
      </trkpt>
      <trkpt lat="42.400686000" lon="-2.638874000">
        <ele>739.00</ele>
        <time>2016-10-29T06:52:28Z</time>
      </trkpt>
      <trkpt lat="42.400667000" lon="-2.638872000">
        <ele>739.20</ele>
        <time>2016-10-29T06:52:29Z</time>
      </trkpt>
      <trkpt lat="42.400648000" lon="-2.638869000">
        <ele>739.40</ele>
        <time>2016-10-29T06:52:30Z</time>
      </trkpt>
      <trkpt lat="42.400630000" lon="-2.638870000">
        <ele>739.50</ele>
        <time>2016-10-29T06:52:31Z</time>
      </trkpt>
      <trkpt lat="42.400615000" lon="-2.638869000">
        <ele>739.60</ele>
        <time>2016-10-29T06:52:32Z</time>
      </trkpt>
      <trkpt lat="42.400598000" lon="-2.638865000">
        <ele>739.70</ele>
        <time>2016-10-29T06:52:33Z</time>
      </trkpt>
      <trkpt lat="42.400564000" lon="-2.638854000">
        <ele>739.90</ele>
        <time>2016-10-29T06:52:35Z</time>
      </trkpt>
      <trkpt lat="42.400546000" lon="-2.638849000">
        <ele>740.10</ele>
        <time>2016-10-29T06:52:36Z</time>
      </trkpt>
      <trkpt lat="42.400527000" lon="-2.638845000">
        <ele>740.20</ele>
        <time>2016-10-29T06:52:37Z</time>
      </trkpt>
      <trkpt lat="42.400509000" lon="-2.638841000">
        <ele>740.20</ele>
        <time>2016-10-29T06:52:38Z</time>
      </trkpt>
      <trkpt lat="42.400490000" lon="-2.638840000">
        <ele>740.30</ele>
        <time>2016-10-29T06:52:39Z</time>
      </trkpt>
      <trkpt lat="42.400472000" lon="-2.638838000">
        <ele>740.50</ele>
        <time>2016-10-29T06:52:40Z</time>
      </trkpt>
      <trkpt lat="42.400455000" lon="-2.638839000">
        <ele>740.60</ele>
        <time>2016-10-29T06:52:41Z</time>
      </trkpt>
      <trkpt lat="42.400441000" lon="-2.638835000">
        <ele>740.70</ele>
        <time>2016-10-29T06:52:42Z</time>
      </trkpt>
      <trkpt lat="42.400425000" lon="-2.638835000">
        <ele>740.80</ele>
        <time>2016-10-29T06:52:43Z</time>
      </trkpt>
      <trkpt lat="42.400410000" lon="-2.638836000">
        <ele>741.10</ele>
        <time>2016-10-29T06:52:44Z</time>
      </trkpt>
      <trkpt lat="42.400392000" lon="-2.638838000">
        <ele>741.30</ele>
        <time>2016-10-29T06:52:45Z</time>
      </trkpt>
      <trkpt lat="42.400374000" lon="-2.638836000">
        <ele>741.50</ele>
        <time>2016-10-29T06:52:46Z</time>
      </trkpt>
      <trkpt lat="42.400356000" lon="-2.638835000">
        <ele>741.60</ele>
        <time>2016-10-29T06:52:47Z</time>
      </trkpt>
      <trkpt lat="42.400337000" lon="-2.638829000">
        <ele>741.70</ele>
        <time>2016-10-29T06:52:48Z</time>
      </trkpt>
      <trkpt lat="42.400322000" lon="-2.638823000">
        <ele>741.80</ele>
        <time>2016-10-29T06:52:49Z</time>
      </trkpt>
      <trkpt lat="42.400306000" lon="-2.638820000">
        <ele>741.80</ele>
        <time>2016-10-29T06:52:50Z</time>
      </trkpt>
      <trkpt lat="42.400287000" lon="-2.638819000">
        <ele>741.90</ele>
        <time>2016-10-29T06:52:51Z</time>
      </trkpt>
      <trkpt lat="42.400272000" lon="-2.638818000">
        <ele>742.00</ele>
        <time>2016-10-29T06:52:52Z</time>
      </trkpt>
      <trkpt lat="42.400253000" lon="-2.638817000">
        <ele>742.10</ele>
        <time>2016-10-29T06:52:53Z</time>
      </trkpt>
      <trkpt lat="42.400235000" lon="-2.638815000">
        <ele>742.40</ele>
        <time>2016-10-29T06:52:54Z</time>
      </trkpt>
      <trkpt lat="42.400218000" lon="-2.638810000">
        <ele>742.50</ele>
        <time>2016-10-29T06:52:55Z</time>
      </trkpt>
      <trkpt lat="42.400202000" lon="-2.638809000">
        <ele>742.70</ele>
        <time>2016-10-29T06:52:56Z</time>
      </trkpt>
      <trkpt lat="42.400186000" lon="-2.638812000">
        <ele>742.90</ele>
        <time>2016-10-29T06:52:57Z</time>
      </trkpt>
      <trkpt lat="42.400170000" lon="-2.638814000">
        <ele>743.10</ele>
        <time>2016-10-29T06:52:58Z</time>
      </trkpt>
      <trkpt lat="42.400154000" lon="-2.638811000">
        <ele>743.30</ele>
        <time>2016-10-29T06:52:59Z</time>
      </trkpt>
      <trkpt lat="42.400137000" lon="-2.638808000">
        <ele>743.40</ele>
        <time>2016-10-29T06:53:00Z</time>
      </trkpt>
      <trkpt lat="42.400120000" lon="-2.638806000">
        <ele>743.50</ele>
        <time>2016-10-29T06:53:01Z</time>
      </trkpt>
      <trkpt lat="42.400103000" lon="-2.638803000">
        <ele>743.60</ele>
        <time>2016-10-29T06:53:02Z</time>
      </trkpt>
      <trkpt lat="42.400083000" lon="-2.638803000">
        <ele>743.60</ele>
        <time>2016-10-29T06:53:03Z</time>
      </trkpt>
      <trkpt lat="42.400066000" lon="-2.638799000">
        <ele>743.70</ele>
        <time>2016-10-29T06:53:04Z</time>
      </trkpt>
      <trkpt lat="42.400049000" lon="-2.638795000">
        <ele>743.70</ele>
        <time>2016-10-29T06:53:05Z</time>
      </trkpt>
      <trkpt lat="42.400031000" lon="-2.638793000">
        <ele>744.00</ele>
        <time>2016-10-29T06:53:06Z</time>
      </trkpt>
      <trkpt lat="42.400013000" lon="-2.638787000">
        <ele>744.20</ele>
        <time>2016-10-29T06:53:07Z</time>
      </trkpt>
      <trkpt lat="42.399998000" lon="-2.638791000">
        <ele>744.40</ele>
        <time>2016-10-29T06:53:08Z</time>
      </trkpt>
      <trkpt lat="42.399981000" lon="-2.638785000">
        <ele>744.50</ele>
        <time>2016-10-29T06:53:09Z</time>
      </trkpt>
      <trkpt lat="42.399962000" lon="-2.638780000">
        <ele>744.60</ele>
        <time>2016-10-29T06:53:10Z</time>
      </trkpt>
      <trkpt lat="42.399946000" lon="-2.638779000">
        <ele>744.70</ele>
        <time>2016-10-29T06:53:11Z</time>
      </trkpt>
      <trkpt lat="42.399928000" lon="-2.638779000">
        <ele>744.70</ele>
        <time>2016-10-29T06:53:12Z</time>
      </trkpt>
      <trkpt lat="42.399911000" lon="-2.638777000">
        <ele>744.70</ele>
        <time>2016-10-29T06:53:13Z</time>
      </trkpt>
      <trkpt lat="42.399894000" lon="-2.638775000">
        <ele>745.00</ele>
        <time>2016-10-29T06:53:14Z</time>
      </trkpt>
      <trkpt lat="42.399877000" lon="-2.638774000">
        <ele>745.20</ele>
        <time>2016-10-29T06:53:15Z</time>
      </trkpt>
      <trkpt lat="42.399860000" lon="-2.638768000">
        <ele>745.40</ele>
        <time>2016-10-29T06:53:16Z</time>
      </trkpt>
      <trkpt lat="42.399841000" lon="-2.638767000">
        <ele>745.50</ele>
        <time>2016-10-29T06:53:17Z</time>
      </trkpt>
      <trkpt lat="42.399823000" lon="-2.638762000">
        <ele>745.60</ele>
        <time>2016-10-29T06:53:18Z</time>
      </trkpt>
      <trkpt lat="42.399806000" lon="-2.638757000">
        <ele>745.60</ele>
        <time>2016-10-29T06:53:19Z</time>
      </trkpt>
      <trkpt lat="42.399788000" lon="-2.638757000">
        <ele>745.80</ele>
        <time>2016-10-29T06:53:20Z</time>
      </trkpt>
      <trkpt lat="42.399771000" lon="-2.638754000">
        <ele>745.80</ele>
        <time>2016-10-29T06:53:21Z</time>
      </trkpt>
      <trkpt lat="42.399755000" lon="-2.638754000">
        <ele>746.10</ele>
        <time>2016-10-29T06:53:22Z</time>
      </trkpt>
      <trkpt lat="42.399737000" lon="-2.638750000">
        <ele>746.30</ele>
        <time>2016-10-29T06:53:23Z</time>
      </trkpt>
      <trkpt lat="42.399719000" lon="-2.638745000">
        <ele>746.40</ele>
        <time>2016-10-29T06:53:24Z</time>
      </trkpt>
      <trkpt lat="42.399702000" lon="-2.638742000">
        <ele>746.60</ele>
        <time>2016-10-29T06:53:25Z</time>
      </trkpt>
      <trkpt lat="42.399686000" lon="-2.638740000">
        <ele>746.70</ele>
        <time>2016-10-29T06:53:26Z</time>
      </trkpt>
      <trkpt lat="42.399669000" lon="-2.638737000">
        <ele>746.80</ele>
        <time>2016-10-29T06:53:27Z</time>
      </trkpt>
      <trkpt lat="42.399653000" lon="-2.638736000">
        <ele>746.90</ele>
        <time>2016-10-29T06:53:28Z</time>
      </trkpt>
      <trkpt lat="42.399636000" lon="-2.638732000">
        <ele>747.00</ele>
        <time>2016-10-29T06:53:29Z</time>
      </trkpt>
      <trkpt lat="42.399616000" lon="-2.638727000">
        <ele>747.10</ele>
        <time>2016-10-29T06:53:30Z</time>
      </trkpt>
      <trkpt lat="42.399596000" lon="-2.638728000">
        <ele>747.20</ele>
        <time>2016-10-29T06:53:31Z</time>
      </trkpt>
      <trkpt lat="42.399579000" lon="-2.638731000">
        <ele>747.20</ele>
        <time>2016-10-29T06:53:32Z</time>
      </trkpt>
      <trkpt lat="42.399562000" lon="-2.638730000">
        <ele>747.30</ele>
        <time>2016-10-29T06:53:33Z</time>
      </trkpt>
      <trkpt lat="42.399545000" lon="-2.638726000">
        <ele>747.40</ele>
        <time>2016-10-29T06:53:34Z</time>
      </trkpt>
      <trkpt lat="42.399509000" lon="-2.638717000">
        <ele>747.80</ele>
        <time>2016-10-29T06:53:36Z</time>
      </trkpt>
      <trkpt lat="42.399490000" lon="-2.638715000">
        <ele>748.00</ele>
        <time>2016-10-29T06:53:37Z</time>
      </trkpt>
      <trkpt lat="42.399473000" lon="-2.638716000">
        <ele>748.10</ele>
        <time>2016-10-29T06:53:38Z</time>
      </trkpt>
      <trkpt lat="42.399455000" lon="-2.638714000">
        <ele>748.20</ele>
        <time>2016-10-29T06:53:39Z</time>
      </trkpt>
      <trkpt lat="42.399438000" lon="-2.638714000">
        <ele>748.40</ele>
        <time>2016-10-29T06:53:40Z</time>
      </trkpt>
      <trkpt lat="42.399422000" lon="-2.638714000">
        <ele>748.50</ele>
        <time>2016-10-29T06:53:41Z</time>
      </trkpt>
      <trkpt lat="42.399407000" lon="-2.638714000">
        <ele>748.60</ele>
        <time>2016-10-29T06:53:42Z</time>
      </trkpt>
      <trkpt lat="42.399390000" lon="-2.638714000">
        <ele>748.70</ele>
        <time>2016-10-29T06:53:43Z</time>
      </trkpt>
      <trkpt lat="42.399372000" lon="-2.638712000">
        <ele>748.90</ele>
        <time>2016-10-29T06:53:44Z</time>
      </trkpt>
      <trkpt lat="42.399355000" lon="-2.638711000">
        <ele>749.10</ele>
        <time>2016-10-29T06:53:45Z</time>
      </trkpt>
      <trkpt lat="42.399338000" lon="-2.638709000">
        <ele>749.20</ele>
        <time>2016-10-29T06:53:46Z</time>
      </trkpt>
      <trkpt lat="42.399319000" lon="-2.638702000">
        <ele>749.30</ele>
        <time>2016-10-29T06:53:47Z</time>
      </trkpt>
      <trkpt lat="42.399299000" lon="-2.638698000">
        <ele>749.40</ele>
        <time>2016-10-29T06:53:48Z</time>
      </trkpt>
      <trkpt lat="42.399279000" lon="-2.638695000">
        <ele>749.50</ele>
        <time>2016-10-29T06:53:49Z</time>
      </trkpt>
      <trkpt lat="42.399260000" lon="-2.638695000">
        <ele>749.60</ele>
        <time>2016-10-29T06:53:50Z</time>
      </trkpt>
      <trkpt lat="42.399240000" lon="-2.638692000">
        <ele>749.60</ele>
        <time>2016-10-29T06:53:51Z</time>
      </trkpt>
      <trkpt lat="42.399219000" lon="-2.638689000">
        <ele>749.70</ele>
        <time>2016-10-29T06:53:52Z</time>
      </trkpt>
      <trkpt lat="42.399199000" lon="-2.638689000">
        <ele>749.70</ele>
        <time>2016-10-29T06:53:53Z</time>
      </trkpt>
      <trkpt lat="42.399178000" lon="-2.638689000">
        <ele>749.80</ele>
        <time>2016-10-29T06:53:54Z</time>
      </trkpt>
      <trkpt lat="42.399157000" lon="-2.638687000">
        <ele>749.90</ele>
        <time>2016-10-29T06:53:55Z</time>
      </trkpt>
      <trkpt lat="42.399136000" lon="-2.638685000">
        <ele>749.90</ele>
        <time>2016-10-29T06:53:56Z</time>
      </trkpt>
      <trkpt lat="42.399115000" lon="-2.638683000">
        <ele>749.90</ele>
        <time>2016-10-29T06:53:57Z</time>
      </trkpt>
      <trkpt lat="42.399095000" lon="-2.638679000">
        <ele>750.00</ele>
        <time>2016-10-29T06:53:58Z</time>
      </trkpt>
      <trkpt lat="42.399073000" lon="-2.638675000">
        <ele>750.00</ele>
        <time>2016-10-29T06:53:59Z</time>
      </trkpt>
      <trkpt lat="42.399052000" lon="-2.638668000">
        <ele>750.10</ele>
        <time>2016-10-29T06:54:00Z</time>
      </trkpt>
      <trkpt lat="42.399029000" lon="-2.638665000">
        <ele>750.10</ele>
        <time>2016-10-29T06:54:01Z</time>
      </trkpt>
      <trkpt lat="42.399009000" lon="-2.638664000">
        <ele>750.30</ele>
        <time>2016-10-29T06:54:02Z</time>
      </trkpt>
      <trkpt lat="42.398985000" lon="-2.638659000">
        <ele>750.40</ele>
        <time>2016-10-29T06:54:03Z</time>
      </trkpt>
      <trkpt lat="42.398963000" lon="-2.638654000">
        <ele>750.50</ele>
        <time>2016-10-29T06:54:04Z</time>
      </trkpt>
      <trkpt lat="42.398941000" lon="-2.638650000">
        <ele>750.60</ele>
        <time>2016-10-29T06:54:05Z</time>
      </trkpt>
      <trkpt lat="42.398917000" lon="-2.638640000">
        <ele>750.70</ele>
        <time>2016-10-29T06:54:06Z</time>
      </trkpt>
      <trkpt lat="42.398892000" lon="-2.638633000">
        <ele>750.70</ele>
        <time>2016-10-29T06:54:07Z</time>
      </trkpt>
      <trkpt lat="42.398866000" lon="-2.638626000">
        <ele>750.60</ele>
        <time>2016-10-29T06:54:08Z</time>
      </trkpt>
      <trkpt lat="42.398841000" lon="-2.638619000">
        <ele>750.50</ele>
        <time>2016-10-29T06:54:09Z</time>
      </trkpt>
      <trkpt lat="42.398816000" lon="-2.638615000">
        <ele>750.50</ele>
        <time>2016-10-29T06:54:10Z</time>
      </trkpt>
      <trkpt lat="42.398789000" lon="-2.638609000">
        <ele>750.40</ele>
        <time>2016-10-29T06:54:11Z</time>
      </trkpt>
      <trkpt lat="42.398763000" lon="-2.638601000">
        <ele>750.40</ele>
        <time>2016-10-29T06:54:12Z</time>
      </trkpt>
      <trkpt lat="42.398737000" lon="-2.638589000">
        <ele>750.40</ele>
        <time>2016-10-29T06:54:13Z</time>
      </trkpt>
      <trkpt lat="42.398713000" lon="-2.638578000">
        <ele>750.30</ele>
        <time>2016-10-29T06:54:14Z</time>
      </trkpt>
      <trkpt lat="42.398687000" lon="-2.638567000">
        <ele>750.20</ele>
        <time>2016-10-29T06:54:15Z</time>
      </trkpt>
      <trkpt lat="42.398665000" lon="-2.638552000">
        <ele>750.20</ele>
        <time>2016-10-29T06:54:16Z</time>
      </trkpt>
      <trkpt lat="42.398645000" lon="-2.638539000">
        <ele>750.20</ele>
        <time>2016-10-29T06:54:17Z</time>
      </trkpt>
      <trkpt lat="42.398622000" lon="-2.638525000">
        <ele>750.10</ele>
        <time>2016-10-29T06:54:18Z</time>
      </trkpt>
      <trkpt lat="42.398598000" lon="-2.638514000">
        <ele>750.10</ele>
        <time>2016-10-29T06:54:19Z</time>
      </trkpt>
      <trkpt lat="42.398574000" lon="-2.638501000">
        <ele>750.10</ele>
        <time>2016-10-29T06:54:20Z</time>
      </trkpt>
      <trkpt lat="42.398549000" lon="-2.638487000">
        <ele>750.20</ele>
        <time>2016-10-29T06:54:21Z</time>
      </trkpt>
      <trkpt lat="42.398526000" lon="-2.638469000">
        <ele>750.20</ele>
        <time>2016-10-29T06:54:22Z</time>
      </trkpt>
      <trkpt lat="42.398504000" lon="-2.638449000">
        <ele>750.20</ele>
        <time>2016-10-29T06:54:23Z</time>
      </trkpt>
      <trkpt lat="42.398481000" lon="-2.638430000">
        <ele>750.20</ele>
        <time>2016-10-29T06:54:24Z</time>
      </trkpt>
      <trkpt lat="42.398458000" lon="-2.638412000">
        <ele>750.20</ele>
        <time>2016-10-29T06:54:25Z</time>
      </trkpt>
      <trkpt lat="42.398437000" lon="-2.638397000">
        <ele>750.30</ele>
        <time>2016-10-29T06:54:26Z</time>
      </trkpt>
      <trkpt lat="42.398414000" lon="-2.638381000">
        <ele>750.30</ele>
        <time>2016-10-29T06:54:27Z</time>
      </trkpt>
      <trkpt lat="42.398390000" lon="-2.638366000">
        <ele>750.40</ele>
        <time>2016-10-29T06:54:28Z</time>
      </trkpt>
      <trkpt lat="42.398369000" lon="-2.638348000">
        <ele>750.40</ele>
        <time>2016-10-29T06:54:29Z</time>
      </trkpt>
      <trkpt lat="42.398349000" lon="-2.638329000">
        <ele>750.40</ele>
        <time>2016-10-29T06:54:30Z</time>
      </trkpt>
      <trkpt lat="42.398328000" lon="-2.638311000">
        <ele>750.40</ele>
        <time>2016-10-29T06:54:31Z</time>
      </trkpt>
      <trkpt lat="42.398305000" lon="-2.638296000">
        <ele>750.50</ele>
        <time>2016-10-29T06:54:32Z</time>
      </trkpt>
      <trkpt lat="42.398281000" lon="-2.638281000">
        <ele>750.50</ele>
        <time>2016-10-29T06:54:33Z</time>
      </trkpt>
      <trkpt lat="42.398258000" lon="-2.638259000">
        <ele>750.50</ele>
        <time>2016-10-29T06:54:34Z</time>
      </trkpt>
      <trkpt lat="42.398229000" lon="-2.638243000">
        <ele>750.50</ele>
        <time>2016-10-29T06:54:35Z</time>
      </trkpt>
      <trkpt lat="42.398174000" lon="-2.638210000">
        <ele>750.60</ele>
        <time>2016-10-29T06:54:37Z</time>
      </trkpt>
      <trkpt lat="42.398142000" lon="-2.638197000">
        <ele>750.60</ele>
        <time>2016-10-29T06:54:38Z</time>
      </trkpt>
      <trkpt lat="42.398112000" lon="-2.638184000">
        <ele>750.60</ele>
        <time>2016-10-29T06:54:39Z</time>
      </trkpt>
      <trkpt lat="42.398086000" lon="-2.638168000">
        <ele>750.70</ele>
        <time>2016-10-29T06:54:40Z</time>
      </trkpt>
      <trkpt lat="42.398061000" lon="-2.638150000">
        <ele>750.80</ele>
        <time>2016-10-29T06:54:41Z</time>
      </trkpt>
      <trkpt lat="42.398035000" lon="-2.638139000">
        <ele>750.70</ele>
        <time>2016-10-29T06:54:42Z</time>
      </trkpt>
      <trkpt lat="42.398011000" lon="-2.638132000">
        <ele>750.70</ele>
        <time>2016-10-29T06:54:43Z</time>
      </trkpt>
      <trkpt lat="42.397988000" lon="-2.638131000">
        <ele>750.70</ele>
        <time>2016-10-29T06:54:44Z</time>
      </trkpt>
      <trkpt lat="42.397959000" lon="-2.638129000">
        <ele>750.70</ele>
        <time>2016-10-29T06:54:45Z</time>
      </trkpt>
      <trkpt lat="42.397930000" lon="-2.638127000">
        <ele>750.50</ele>
        <time>2016-10-29T06:54:46Z</time>
      </trkpt>
      <trkpt lat="42.397896000" lon="-2.638121000">
        <ele>750.40</ele>
        <time>2016-10-29T06:54:47Z</time>
      </trkpt>
      <trkpt lat="42.397864000" lon="-2.638113000">
        <ele>750.40</ele>
        <time>2016-10-29T06:54:48Z</time>
      </trkpt>
      <trkpt lat="42.397834000" lon="-2.638103000">
        <ele>750.30</ele>
        <time>2016-10-29T06:54:49Z</time>
      </trkpt>
      <trkpt lat="42.397801000" lon="-2.638091000">
        <ele>750.30</ele>
        <time>2016-10-29T06:54:50Z</time>
      </trkpt>
      <trkpt lat="42.397763000" lon="-2.638081000">
        <ele>750.20</ele>
        <time>2016-10-29T06:54:51Z</time>
      </trkpt>
      <trkpt lat="42.397729000" lon="-2.638067000">
        <ele>750.10</ele>
        <time>2016-10-29T06:54:52Z</time>
      </trkpt>
      <trkpt lat="42.397693000" lon="-2.638053000">
        <ele>750.10</ele>
        <time>2016-10-29T06:54:53Z</time>
      </trkpt>
      <trkpt lat="42.397659000" lon="-2.638036000">
        <ele>750.00</ele>
        <time>2016-10-29T06:54:54Z</time>
      </trkpt>
      <trkpt lat="42.397624000" lon="-2.638017000">
        <ele>750.00</ele>
        <time>2016-10-29T06:54:55Z</time>
      </trkpt>
      <trkpt lat="42.397593000" lon="-2.638001000">
        <ele>749.90</ele>
        <time>2016-10-29T06:54:56Z</time>
      </trkpt>
      <trkpt lat="42.397566000" lon="-2.637987000">
        <ele>749.80</ele>
        <time>2016-10-29T06:54:57Z</time>
      </trkpt>
      <trkpt lat="42.397536000" lon="-2.637977000">
        <ele>749.70</ele>
        <time>2016-10-29T06:54:58Z</time>
      </trkpt>
      <trkpt lat="42.397504000" lon="-2.637965000">
        <ele>749.60</ele>
        <time>2016-10-29T06:54:59Z</time>
      </trkpt>
      <trkpt lat="42.397473000" lon="-2.637951000">
        <ele>749.60</ele>
        <time>2016-10-29T06:55:00Z</time>
      </trkpt>
      <trkpt lat="42.397439000" lon="-2.637938000">
        <ele>749.50</ele>
        <time>2016-10-29T06:55:01Z</time>
      </trkpt>
      <trkpt lat="42.397409000" lon="-2.637923000">
        <ele>749.50</ele>
        <time>2016-10-29T06:55:02Z</time>
      </trkpt>
      <trkpt lat="42.397378000" lon="-2.637901000">
        <ele>749.40</ele>
        <time>2016-10-29T06:55:03Z</time>
      </trkpt>
      <trkpt lat="42.397344000" lon="-2.637881000">
        <ele>749.40</ele>
        <time>2016-10-29T06:55:04Z</time>
      </trkpt>
      <trkpt lat="42.397311000" lon="-2.637860000">
        <ele>749.40</ele>
        <time>2016-10-29T06:55:05Z</time>
      </trkpt>
      <trkpt lat="42.397277000" lon="-2.637839000">
        <ele>749.50</ele>
        <time>2016-10-29T06:55:06Z</time>
      </trkpt>
      <trkpt lat="42.397244000" lon="-2.637818000">
        <ele>749.60</ele>
        <time>2016-10-29T06:55:07Z</time>
      </trkpt>
      <trkpt lat="42.397210000" lon="-2.637802000">
        <ele>749.50</ele>
        <time>2016-10-29T06:55:08Z</time>
      </trkpt>
      <trkpt lat="42.397174000" lon="-2.637782000">
        <ele>749.50</ele>
        <time>2016-10-29T06:55:09Z</time>
      </trkpt>
      <trkpt lat="42.397138000" lon="-2.637762000">
        <ele>749.50</ele>
        <time>2016-10-29T06:55:10Z</time>
      </trkpt>
      <trkpt lat="42.397100000" lon="-2.637743000">
        <ele>749.40</ele>
        <time>2016-10-29T06:55:11Z</time>
      </trkpt>
      <trkpt lat="42.397061000" lon="-2.637727000">
        <ele>749.20</ele>
        <time>2016-10-29T06:55:12Z</time>
      </trkpt>
      <trkpt lat="42.397024000" lon="-2.637704000">
        <ele>749.00</ele>
        <time>2016-10-29T06:55:13Z</time>
      </trkpt>
      <trkpt lat="42.396985000" lon="-2.637688000">
        <ele>748.80</ele>
        <time>2016-10-29T06:55:14Z</time>
      </trkpt>
      <trkpt lat="42.396946000" lon="-2.637668000">
        <ele>748.70</ele>
        <time>2016-10-29T06:55:15Z</time>
      </trkpt>
      <trkpt lat="42.396905000" lon="-2.637644000">
        <ele>748.60</ele>
        <time>2016-10-29T06:55:16Z</time>
      </trkpt>
      <trkpt lat="42.396864000" lon="-2.637629000">
        <ele>748.50</ele>
        <time>2016-10-29T06:55:17Z</time>
      </trkpt>
      <trkpt lat="42.396826000" lon="-2.637617000">
        <ele>748.40</ele>
        <time>2016-10-29T06:55:18Z</time>
      </trkpt>
      <trkpt lat="42.396787000" lon="-2.637605000">
        <ele>748.30</ele>
        <time>2016-10-29T06:55:19Z</time>
      </trkpt>
      <trkpt lat="42.396746000" lon="-2.637596000">
        <ele>748.20</ele>
        <time>2016-10-29T06:55:20Z</time>
      </trkpt>
      <trkpt lat="42.396702000" lon="-2.637587000">
        <ele>748.20</ele>
        <time>2016-10-29T06:55:21Z</time>
      </trkpt>
      <trkpt lat="42.396657000" lon="-2.637576000">
        <ele>748.10</ele>
        <time>2016-10-29T06:55:22Z</time>
      </trkpt>
      <trkpt lat="42.396616000" lon="-2.637567000">
        <ele>748.10</ele>
        <time>2016-10-29T06:55:23Z</time>
      </trkpt>
      <trkpt lat="42.396575000" lon="-2.637561000">
        <ele>748.20</ele>
        <time>2016-10-29T06:55:24Z</time>
      </trkpt>
      <trkpt lat="42.396536000" lon="-2.637556000">
        <ele>748.20</ele>
        <time>2016-10-29T06:55:25Z</time>
      </trkpt>
      <trkpt lat="42.396499000" lon="-2.637552000">
        <ele>748.20</ele>
        <time>2016-10-29T06:55:26Z</time>
      </trkpt>
      <trkpt lat="42.396462000" lon="-2.637552000">
        <ele>748.20</ele>
        <time>2016-10-29T06:55:27Z</time>
      </trkpt>
      <trkpt lat="42.396428000" lon="-2.637551000">
        <ele>748.50</ele>
        <time>2016-10-29T06:55:28Z</time>
      </trkpt>
      <trkpt lat="42.396393000" lon="-2.637543000">
        <ele>748.60</ele>
        <time>2016-10-29T06:55:29Z</time>
      </trkpt>
      <trkpt lat="42.396359000" lon="-2.637541000">
        <ele>748.90</ele>
        <time>2016-10-29T06:55:30Z</time>
      </trkpt>
      <trkpt lat="42.396327000" lon="-2.637538000">
        <ele>749.10</ele>
        <time>2016-10-29T06:55:31Z</time>
      </trkpt>
      <trkpt lat="42.396294000" lon="-2.637533000">
        <ele>749.30</ele>
        <time>2016-10-29T06:55:32Z</time>
      </trkpt>
      <trkpt lat="42.396261000" lon="-2.637530000">
        <ele>749.40</ele>
        <time>2016-10-29T06:55:33Z</time>
      </trkpt>
      <trkpt lat="42.396229000" lon="-2.637531000">
        <ele>749.50</ele>
        <time>2016-10-29T06:55:34Z</time>
      </trkpt>
      <trkpt lat="42.396195000" lon="-2.637528000">
        <ele>749.60</ele>
        <time>2016-10-29T06:55:35Z</time>
      </trkpt>
      <trkpt lat="42.396160000" lon="-2.637522000">
        <ele>749.70</ele>
        <time>2016-10-29T06:55:36Z</time>
      </trkpt>
      <trkpt lat="42.396091000" lon="-2.637515000">
        <ele>749.80</ele>
        <time>2016-10-29T06:55:38Z</time>
      </trkpt>
      <trkpt lat="42.396056000" lon="-2.637513000">
        <ele>749.90</ele>
        <time>2016-10-29T06:55:39Z</time>
      </trkpt>
      <trkpt lat="42.396021000" lon="-2.637513000">
        <ele>750.00</ele>
        <time>2016-10-29T06:55:40Z</time>
      </trkpt>
      <trkpt lat="42.395983000" lon="-2.637511000">
        <ele>750.00</ele>
        <time>2016-10-29T06:55:41Z</time>
      </trkpt>
      <trkpt lat="42.395947000" lon="-2.637511000">
        <ele>750.10</ele>
        <time>2016-10-29T06:55:42Z</time>
      </trkpt>
      <trkpt lat="42.395913000" lon="-2.637515000">
        <ele>750.20</ele>
        <time>2016-10-29T06:55:43Z</time>
      </trkpt>
      <trkpt lat="42.395878000" lon="-2.637516000">
        <ele>750.50</ele>
        <time>2016-10-29T06:55:44Z</time>
      </trkpt>
      <trkpt lat="42.395844000" lon="-2.637521000">
        <ele>750.70</ele>
        <time>2016-10-29T06:55:45Z</time>
      </trkpt>
      <trkpt lat="42.395806000" lon="-2.637526000">
        <ele>750.80</ele>
        <time>2016-10-29T06:55:46Z</time>
      </trkpt>
      <trkpt lat="42.395766000" lon="-2.637533000">
        <ele>751.00</ele>
        <time>2016-10-29T06:55:47Z</time>
      </trkpt>
      <trkpt lat="42.395724000" lon="-2.637544000">
        <ele>751.00</ele>
        <time>2016-10-29T06:55:48Z</time>
      </trkpt>
      <trkpt lat="42.395680000" lon="-2.637560000">
        <ele>751.00</ele>
        <time>2016-10-29T06:55:49Z</time>
      </trkpt>
      <trkpt lat="42.395634000" lon="-2.637582000">
        <ele>750.90</ele>
        <time>2016-10-29T06:55:50Z</time>
      </trkpt>
      <trkpt lat="42.395586000" lon="-2.637608000">
        <ele>750.90</ele>
        <time>2016-10-29T06:55:51Z</time>
      </trkpt>
      <trkpt lat="42.395533000" lon="-2.637640000">
        <ele>750.70</ele>
        <time>2016-10-29T06:55:52Z</time>
      </trkpt>
      <trkpt lat="42.395477000" lon="-2.637681000">
        <ele>750.60</ele>
        <time>2016-10-29T06:55:53Z</time>
      </trkpt>
      <trkpt lat="42.395412000" lon="-2.637728000">
        <ele>750.10</ele>
        <time>2016-10-29T06:55:54Z</time>
      </trkpt>
      <trkpt lat="42.395346000" lon="-2.637785000">
        <ele>749.80</ele>
        <time>2016-10-29T06:55:55Z</time>
      </trkpt>
      <trkpt lat="42.395274000" lon="-2.637854000">
        <ele>749.10</ele>
        <time>2016-10-29T06:55:56Z</time>
      </trkpt>
      <trkpt lat="42.395201000" lon="-2.637935000">
        <ele>748.50</ele>
        <time>2016-10-29T06:55:57Z</time>
      </trkpt>
      <trkpt lat="42.395125000" lon="-2.638026000">
        <ele>747.50</ele>
        <time>2016-10-29T06:55:58Z</time>
      </trkpt>
      <trkpt lat="42.395051000" lon="-2.638118000">
        <ele>746.70</ele>
        <time>2016-10-29T06:55:59Z</time>
      </trkpt>
      <trkpt lat="42.394973000" lon="-2.638214000">
        <ele>745.80</ele>
        <time>2016-10-29T06:56:00Z</time>
      </trkpt>
      <trkpt lat="42.394893000" lon="-2.638317000">
        <ele>745.10</ele>
        <time>2016-10-29T06:56:01Z</time>
      </trkpt>
      <trkpt lat="42.394814000" lon="-2.638421000">
        <ele>744.10</ele>
        <time>2016-10-29T06:56:02Z</time>
      </trkpt>
      <trkpt lat="42.394735000" lon="-2.638524000">
        <ele>743.40</ele>
        <time>2016-10-29T06:56:03Z</time>
      </trkpt>
      <trkpt lat="42.394657000" lon="-2.638624000">
        <ele>742.20</ele>
        <time>2016-10-29T06:56:04Z</time>
      </trkpt>
      <trkpt lat="42.394580000" lon="-2.638724000">
        <ele>741.30</ele>
        <time>2016-10-29T06:56:05Z</time>
      </trkpt>
      <trkpt lat="42.394502000" lon="-2.638822000">
        <ele>740.50</ele>
        <time>2016-10-29T06:56:06Z</time>
      </trkpt>
      <trkpt lat="42.394427000" lon="-2.638921000">
        <ele>739.90</ele>
        <time>2016-10-29T06:56:07Z</time>
      </trkpt>
      <trkpt lat="42.394355000" lon="-2.639023000">
        <ele>739.30</ele>
        <time>2016-10-29T06:56:08Z</time>
      </trkpt>
      <trkpt lat="42.394287000" lon="-2.639124000">
        <ele>738.90</ele>
        <time>2016-10-29T06:56:09Z</time>
      </trkpt>
      <trkpt lat="42.394226000" lon="-2.639229000">
        <ele>738.50</ele>
        <time>2016-10-29T06:56:10Z</time>
      </trkpt>
      <trkpt lat="42.394165000" lon="-2.639327000">
        <ele>738.30</ele>
        <time>2016-10-29T06:56:11Z</time>
      </trkpt>
      <trkpt lat="42.394105000" lon="-2.639425000">
        <ele>737.60</ele>
        <time>2016-10-29T06:56:12Z</time>
      </trkpt>
      <trkpt lat="42.394049000" lon="-2.639516000">
        <ele>737.20</ele>
        <time>2016-10-29T06:56:13Z</time>
      </trkpt>
      <trkpt lat="42.393991000" lon="-2.639603000">
        <ele>736.80</ele>
        <time>2016-10-29T06:56:14Z</time>
      </trkpt>
      <trkpt lat="42.393937000" lon="-2.639687000">
        <ele>736.60</ele>
        <time>2016-10-29T06:56:15Z</time>
      </trkpt>
      <trkpt lat="42.393884000" lon="-2.639766000">
        <ele>736.40</ele>
        <time>2016-10-29T06:56:16Z</time>
      </trkpt>
      <trkpt lat="42.393831000" lon="-2.639842000">
        <ele>736.20</ele>
        <time>2016-10-29T06:56:17Z</time>
      </trkpt>
      <trkpt lat="42.393780000" lon="-2.639915000">
        <ele>736.30</ele>
        <time>2016-10-29T06:56:18Z</time>
      </trkpt>
      <trkpt lat="42.393731000" lon="-2.639985000">
        <ele>736.40</ele>
        <time>2016-10-29T06:56:19Z</time>
      </trkpt>
      <trkpt lat="42.393687000" lon="-2.640045000">
        <ele>736.40</ele>
        <time>2016-10-29T06:56:20Z</time>
      </trkpt>
      <trkpt lat="42.393647000" lon="-2.640099000">
        <ele>736.50</ele>
        <time>2016-10-29T06:56:21Z</time>
      </trkpt>
      <trkpt lat="42.393610000" lon="-2.640151000">
        <ele>736.50</ele>
        <time>2016-10-29T06:56:22Z</time>
      </trkpt>
      <trkpt lat="42.393573000" lon="-2.640201000">
        <ele>736.50</ele>
        <time>2016-10-29T06:56:23Z</time>
      </trkpt>
      <trkpt lat="42.393538000" lon="-2.640251000">
        <ele>736.30</ele>
        <time>2016-10-29T06:56:24Z</time>
      </trkpt>
      <trkpt lat="42.393504000" lon="-2.640302000">
        <ele>736.20</ele>
        <time>2016-10-29T06:56:25Z</time>
      </trkpt>
      <trkpt lat="42.393472000" lon="-2.640353000">
        <ele>736.30</ele>
        <time>2016-10-29T06:56:26Z</time>
      </trkpt>
      <trkpt lat="42.393441000" lon="-2.640398000">
        <ele>736.40</ele>
        <time>2016-10-29T06:56:27Z</time>
      </trkpt>
      <trkpt lat="42.393411000" lon="-2.640449000">
        <ele>736.40</ele>
        <time>2016-10-29T06:56:28Z</time>
      </trkpt>
      <trkpt lat="42.393375000" lon="-2.640492000">
        <ele>736.50</ele>
        <time>2016-10-29T06:56:29Z</time>
      </trkpt>
      <trkpt lat="42.393341000" lon="-2.640541000">
        <ele>736.50</ele>
        <time>2016-10-29T06:56:30Z</time>
      </trkpt>
      <trkpt lat="42.393309000" lon="-2.640589000">
        <ele>736.50</ele>
        <time>2016-10-29T06:56:31Z</time>
      </trkpt>
      <trkpt lat="42.393271000" lon="-2.640640000">
        <ele>736.40</ele>
        <time>2016-10-29T06:56:32Z</time>
      </trkpt>
      <trkpt lat="42.393237000" lon="-2.640698000">
        <ele>736.30</ele>
        <time>2016-10-29T06:56:33Z</time>
      </trkpt>
      <trkpt lat="42.393206000" lon="-2.640755000">
        <ele>736.20</ele>
        <time>2016-10-29T06:56:34Z</time>
      </trkpt>
      <trkpt lat="42.393174000" lon="-2.640810000">
        <ele>736.10</ele>
        <time>2016-10-29T06:56:35Z</time>
      </trkpt>
      <trkpt lat="42.393146000" lon="-2.640870000">
        <ele>736.00</ele>
        <time>2016-10-29T06:56:36Z</time>
      </trkpt>
      <trkpt lat="42.393120000" lon="-2.640933000">
        <ele>736.00</ele>
        <time>2016-10-29T06:56:37Z</time>
      </trkpt>
      <trkpt lat="42.393071000" lon="-2.641064000">
        <ele>735.90</ele>
        <time>2016-10-29T06:56:39Z</time>
      </trkpt>
      <trkpt lat="42.393049000" lon="-2.641127000">
        <ele>735.90</ele>
        <time>2016-10-29T06:56:40Z</time>
      </trkpt>
      <trkpt lat="42.393026000" lon="-2.641189000">
        <ele>736.00</ele>
        <time>2016-10-29T06:56:41Z</time>
      </trkpt>
      <trkpt lat="42.393005000" lon="-2.641254000">
        <ele>736.10</ele>
        <time>2016-10-29T06:56:42Z</time>
      </trkpt>
      <trkpt lat="42.392986000" lon="-2.641315000">
        <ele>736.20</ele>
        <time>2016-10-29T06:56:43Z</time>
      </trkpt>
      <trkpt lat="42.392962000" lon="-2.641374000">
        <ele>736.50</ele>
        <time>2016-10-29T06:56:44Z</time>
      </trkpt>
      <trkpt lat="42.392933000" lon="-2.641432000">
        <ele>736.60</ele>
        <time>2016-10-29T06:56:45Z</time>
      </trkpt>
      <trkpt lat="42.392903000" lon="-2.641483000">
        <ele>736.80</ele>
        <time>2016-10-29T06:56:46Z</time>
      </trkpt>
      <trkpt lat="42.392869000" lon="-2.641530000">
        <ele>737.00</ele>
        <time>2016-10-29T06:56:47Z</time>
      </trkpt>
      <trkpt lat="42.392838000" lon="-2.641573000">
        <ele>737.10</ele>
        <time>2016-10-29T06:56:48Z</time>
      </trkpt>
      <trkpt lat="42.392807000" lon="-2.641614000">
        <ele>737.20</ele>
        <time>2016-10-29T06:56:49Z</time>
      </trkpt>
      <trkpt lat="42.392775000" lon="-2.641653000">
        <ele>737.40</ele>
        <time>2016-10-29T06:56:50Z</time>
      </trkpt>
      <trkpt lat="42.392745000" lon="-2.641691000">
        <ele>737.50</ele>
        <time>2016-10-29T06:56:51Z</time>
      </trkpt>
      <trkpt lat="42.392714000" lon="-2.641724000">
        <ele>737.80</ele>
        <time>2016-10-29T06:56:52Z</time>
      </trkpt>
      <trkpt lat="42.392682000" lon="-2.641756000">
        <ele>738.00</ele>
        <time>2016-10-29T06:56:53Z</time>
      </trkpt>
      <trkpt lat="42.392648000" lon="-2.641790000">
        <ele>738.30</ele>
        <time>2016-10-29T06:56:54Z</time>
      </trkpt>
      <trkpt lat="42.392613000" lon="-2.641820000">
        <ele>738.60</ele>
        <time>2016-10-29T06:56:55Z</time>
      </trkpt>
      <trkpt lat="42.392581000" lon="-2.641847000">
        <ele>738.80</ele>
        <time>2016-10-29T06:56:56Z</time>
      </trkpt>
      <trkpt lat="42.392545000" lon="-2.641867000">
        <ele>739.00</ele>
        <time>2016-10-29T06:56:57Z</time>
      </trkpt>
      <trkpt lat="42.392511000" lon="-2.641881000">
        <ele>739.20</ele>
        <time>2016-10-29T06:56:58Z</time>
      </trkpt>
      <trkpt lat="42.392482000" lon="-2.641894000">
        <ele>739.40</ele>
        <time>2016-10-29T06:56:59Z</time>
      </trkpt>
      <trkpt lat="42.392452000" lon="-2.641900000">
        <ele>739.70</ele>
        <time>2016-10-29T06:57:00Z</time>
      </trkpt>
      <trkpt lat="42.392422000" lon="-2.641903000">
        <ele>739.90</ele>
        <time>2016-10-29T06:57:01Z</time>
      </trkpt>
      <trkpt lat="42.392395000" lon="-2.641902000">
        <ele>740.00</ele>
        <time>2016-10-29T06:57:02Z</time>
      </trkpt>
      <trkpt lat="42.392366000" lon="-2.641901000">
        <ele>740.10</ele>
        <time>2016-10-29T06:57:03Z</time>
      </trkpt>
      <trkpt lat="42.392339000" lon="-2.641899000">
        <ele>740.10</ele>
        <time>2016-10-29T06:57:04Z</time>
      </trkpt>
      <trkpt lat="42.392309000" lon="-2.641896000">
        <ele>740.00</ele>
        <time>2016-10-29T06:57:05Z</time>
      </trkpt>
      <trkpt lat="42.392278000" lon="-2.641893000">
        <ele>739.90</ele>
        <time>2016-10-29T06:57:06Z</time>
      </trkpt>
      <trkpt lat="42.392244000" lon="-2.641892000">
        <ele>739.90</ele>
        <time>2016-10-29T06:57:07Z</time>
      </trkpt>
      <trkpt lat="42.392207000" lon="-2.641891000">
        <ele>739.80</ele>
        <time>2016-10-29T06:57:08Z</time>
      </trkpt>
      <trkpt lat="42.392166000" lon="-2.641888000">
        <ele>739.70</ele>
        <time>2016-10-29T06:57:09Z</time>
      </trkpt>
      <trkpt lat="42.392123000" lon="-2.641881000">
        <ele>739.50</ele>
        <time>2016-10-29T06:57:10Z</time>
      </trkpt>
      <trkpt lat="42.392074000" lon="-2.641880000">
        <ele>739.30</ele>
        <time>2016-10-29T06:57:11Z</time>
      </trkpt>
      <trkpt lat="42.392025000" lon="-2.641885000">
        <ele>739.20</ele>
        <time>2016-10-29T06:57:12Z</time>
      </trkpt>
      <trkpt lat="42.391972000" lon="-2.641893000">
        <ele>739.10</ele>
        <time>2016-10-29T06:57:13Z</time>
      </trkpt>
      <trkpt lat="42.391919000" lon="-2.641906000">
        <ele>738.80</ele>
        <time>2016-10-29T06:57:14Z</time>
      </trkpt>
      <trkpt lat="42.391863000" lon="-2.641926000">
        <ele>738.60</ele>
        <time>2016-10-29T06:57:15Z</time>
      </trkpt>
      <trkpt lat="42.391803000" lon="-2.641949000">
        <ele>738.40</ele>
        <time>2016-10-29T06:57:16Z</time>
      </trkpt>
      <trkpt lat="42.391739000" lon="-2.641976000">
        <ele>738.20</ele>
        <time>2016-10-29T06:57:17Z</time>
      </trkpt>
      <trkpt lat="42.391673000" lon="-2.642004000">
        <ele>737.80</ele>
        <time>2016-10-29T06:57:18Z</time>
      </trkpt>
      <trkpt lat="42.391604000" lon="-2.642031000">
        <ele>737.60</ele>
        <time>2016-10-29T06:57:19Z</time>
      </trkpt>
      <trkpt lat="42.391531000" lon="-2.642061000">
        <ele>737.10</ele>
        <time>2016-10-29T06:57:20Z</time>
      </trkpt>
      <trkpt lat="42.391460000" lon="-2.642095000">
        <ele>736.80</ele>
        <time>2016-10-29T06:57:21Z</time>
      </trkpt>
      <trkpt lat="42.391385000" lon="-2.642131000">
        <ele>736.50</ele>
        <time>2016-10-29T06:57:22Z</time>
      </trkpt>
      <trkpt lat="42.391308000" lon="-2.642164000">
        <ele>736.20</ele>
        <time>2016-10-29T06:57:23Z</time>
      </trkpt>
      <trkpt lat="42.391230000" lon="-2.642197000">
        <ele>735.90</ele>
        <time>2016-10-29T06:57:24Z</time>
      </trkpt>
      <trkpt lat="42.391150000" lon="-2.642230000">
        <ele>735.70</ele>
        <time>2016-10-29T06:57:25Z</time>
      </trkpt>
      <trkpt lat="42.391068000" lon="-2.642259000">
        <ele>735.50</ele>
        <time>2016-10-29T06:57:26Z</time>
      </trkpt>
      <trkpt lat="42.390985000" lon="-2.642286000">
        <ele>735.30</ele>
        <time>2016-10-29T06:57:27Z</time>
      </trkpt>
      <trkpt lat="42.390899000" lon="-2.642314000">
        <ele>734.80</ele>
        <time>2016-10-29T06:57:28Z</time>
      </trkpt>
      <trkpt lat="42.390808000" lon="-2.642334000">
        <ele>734.30</ele>
        <time>2016-10-29T06:57:29Z</time>
      </trkpt>
      <trkpt lat="42.390713000" lon="-2.642341000">
        <ele>733.70</ele>
        <time>2016-10-29T06:57:30Z</time>
      </trkpt>
      <trkpt lat="42.390614000" lon="-2.642332000">
        <ele>733.20</ele>
        <time>2016-10-29T06:57:31Z</time>
      </trkpt>
      <trkpt lat="42.390513000" lon="-2.642305000">
        <ele>732.30</ele>
        <time>2016-10-29T06:57:32Z</time>
      </trkpt>
      <trkpt lat="42.390418000" lon="-2.642269000">
        <ele>731.50</ele>
        <time>2016-10-29T06:57:33Z</time>
      </trkpt>
      <trkpt lat="42.390321000" lon="-2.642229000">
        <ele>731.00</ele>
        <time>2016-10-29T06:57:34Z</time>
      </trkpt>
      <trkpt lat="42.390226000" lon="-2.642188000">
        <ele>730.60</ele>
        <time>2016-10-29T06:57:35Z</time>
      </trkpt>
      <trkpt lat="42.390131000" lon="-2.642146000">
        <ele>730.30</ele>
        <time>2016-10-29T06:57:36Z</time>
      </trkpt>
      <trkpt lat="42.390036000" lon="-2.642106000">
        <ele>730.10</ele>
        <time>2016-10-29T06:57:37Z</time>
      </trkpt>
      <trkpt lat="42.389943000" lon="-2.642065000">
        <ele>729.50</ele>
        <time>2016-10-29T06:57:38Z</time>
      </trkpt>
      <trkpt lat="42.389757000" lon="-2.641994000">
        <ele>728.60</ele>
        <time>2016-10-29T06:57:40Z</time>
      </trkpt>
      <trkpt lat="42.389670000" lon="-2.641964000">
        <ele>728.20</ele>
        <time>2016-10-29T06:57:41Z</time>
      </trkpt>
      <trkpt lat="42.389586000" lon="-2.641944000">
        <ele>727.50</ele>
        <time>2016-10-29T06:57:42Z</time>
      </trkpt>
      <trkpt lat="42.389500000" lon="-2.641938000">
        <ele>727.00</ele>
        <time>2016-10-29T06:57:43Z</time>
      </trkpt>
      <trkpt lat="42.389413000" lon="-2.641942000">
        <ele>726.60</ele>
        <time>2016-10-29T06:57:44Z</time>
      </trkpt>
      <trkpt lat="42.389323000" lon="-2.641954000">
        <ele>726.40</ele>
        <time>2016-10-29T06:57:45Z</time>
      </trkpt>
      <trkpt lat="42.389233000" lon="-2.641977000">
        <ele>725.80</ele>
        <time>2016-10-29T06:57:46Z</time>
      </trkpt>
      <trkpt lat="42.389142000" lon="-2.642015000">
        <ele>725.30</ele>
        <time>2016-10-29T06:57:47Z</time>
      </trkpt>
      <trkpt lat="42.389050000" lon="-2.642063000">
        <ele>724.80</ele>
        <time>2016-10-29T06:57:48Z</time>
      </trkpt>
      <trkpt lat="42.388960000" lon="-2.642117000">
        <ele>724.40</ele>
        <time>2016-10-29T06:57:49Z</time>
      </trkpt>
      <trkpt lat="42.388873000" lon="-2.642173000">
        <ele>723.90</ele>
        <time>2016-10-29T06:57:50Z</time>
      </trkpt>
      <trkpt lat="42.388784000" lon="-2.642228000">
        <ele>723.60</ele>
        <time>2016-10-29T06:57:51Z</time>
      </trkpt>
      <trkpt lat="42.388700000" lon="-2.642281000">
        <ele>723.10</ele>
        <time>2016-10-29T06:57:52Z</time>
      </trkpt>
      <trkpt lat="42.388613000" lon="-2.642324000">
        <ele>722.70</ele>
        <time>2016-10-29T06:57:53Z</time>
      </trkpt>
      <trkpt lat="42.388533000" lon="-2.642373000">
        <ele>722.30</ele>
        <time>2016-10-29T06:57:54Z</time>
      </trkpt>
      <trkpt lat="42.388456000" lon="-2.642421000">
        <ele>722.00</ele>
        <time>2016-10-29T06:57:55Z</time>
      </trkpt>
      <trkpt lat="42.388380000" lon="-2.642465000">
        <ele>721.70</ele>
        <time>2016-10-29T06:57:56Z</time>
      </trkpt>
      <trkpt lat="42.388307000" lon="-2.642507000">
        <ele>721.60</ele>
        <time>2016-10-29T06:57:57Z</time>
      </trkpt>
      <trkpt lat="42.388233000" lon="-2.642548000">
        <ele>721.40</ele>
        <time>2016-10-29T06:57:58Z</time>
      </trkpt>
      <trkpt lat="42.388162000" lon="-2.642586000">
        <ele>721.30</ele>
        <time>2016-10-29T06:57:59Z</time>
      </trkpt>
      <trkpt lat="42.388095000" lon="-2.642628000">
        <ele>721.30</ele>
        <time>2016-10-29T06:58:00Z</time>
      </trkpt>
      <trkpt lat="42.388031000" lon="-2.642666000">
        <ele>721.20</ele>
        <time>2016-10-29T06:58:01Z</time>
      </trkpt>
      <trkpt lat="42.387969000" lon="-2.642702000">
        <ele>721.20</ele>
        <time>2016-10-29T06:58:02Z</time>
      </trkpt>
      <trkpt lat="42.387910000" lon="-2.642737000">
        <ele>721.10</ele>
        <time>2016-10-29T06:58:03Z</time>
      </trkpt>
      <trkpt lat="42.387854000" lon="-2.642772000">
        <ele>720.80</ele>
        <time>2016-10-29T06:58:04Z</time>
      </trkpt>
      <trkpt lat="42.387801000" lon="-2.642804000">
        <ele>720.60</ele>
        <time>2016-10-29T06:58:05Z</time>
      </trkpt>
      <trkpt lat="42.387748000" lon="-2.642838000">
        <ele>720.70</ele>
        <time>2016-10-29T06:58:06Z</time>
      </trkpt>
      <trkpt lat="42.387695000" lon="-2.642872000">
        <ele>720.70</ele>
        <time>2016-10-29T06:58:07Z</time>
      </trkpt>
      <trkpt lat="42.387641000" lon="-2.642904000">
        <ele>720.70</ele>
        <time>2016-10-29T06:58:08Z</time>
      </trkpt>
      <trkpt lat="42.387585000" lon="-2.642937000">
        <ele>720.70</ele>
        <time>2016-10-29T06:58:09Z</time>
      </trkpt>
      <trkpt lat="42.387529000" lon="-2.642972000">
        <ele>720.90</ele>
        <time>2016-10-29T06:58:10Z</time>
      </trkpt>
      <trkpt lat="42.387472000" lon="-2.643001000">
        <ele>721.00</ele>
        <time>2016-10-29T06:58:11Z</time>
      </trkpt>
      <trkpt lat="42.387414000" lon="-2.643032000">
        <ele>721.10</ele>
        <time>2016-10-29T06:58:12Z</time>
      </trkpt>
      <trkpt lat="42.387360000" lon="-2.643062000">
        <ele>721.10</ele>
        <time>2016-10-29T06:58:13Z</time>
      </trkpt>
      <trkpt lat="42.387309000" lon="-2.643094000">
        <ele>721.00</ele>
        <time>2016-10-29T06:58:14Z</time>
      </trkpt>
      <trkpt lat="42.387254000" lon="-2.643124000">
        <ele>720.90</ele>
        <time>2016-10-29T06:58:15Z</time>
      </trkpt>
      <trkpt lat="42.387203000" lon="-2.643155000">
        <ele>720.90</ele>
        <time>2016-10-29T06:58:16Z</time>
      </trkpt>
      <trkpt lat="42.387151000" lon="-2.643188000">
        <ele>720.80</ele>
        <time>2016-10-29T06:58:17Z</time>
      </trkpt>
      <trkpt lat="42.387100000" lon="-2.643220000">
        <ele>720.80</ele>
        <time>2016-10-29T06:58:18Z</time>
      </trkpt>
      <trkpt lat="42.387049000" lon="-2.643249000">
        <ele>720.80</ele>
        <time>2016-10-29T06:58:19Z</time>
      </trkpt>
      <trkpt lat="42.386997000" lon="-2.643281000">
        <ele>720.70</ele>
        <time>2016-10-29T06:58:20Z</time>
      </trkpt>
      <trkpt lat="42.386948000" lon="-2.643314000">
        <ele>720.60</ele>
        <time>2016-10-29T06:58:21Z</time>
      </trkpt>
      <trkpt lat="42.386898000" lon="-2.643344000">
        <ele>720.50</ele>
        <time>2016-10-29T06:58:22Z</time>
      </trkpt>
      <trkpt lat="42.386850000" lon="-2.643367000">
        <ele>720.40</ele>
        <time>2016-10-29T06:58:23Z</time>
      </trkpt>
      <trkpt lat="42.386803000" lon="-2.643394000">
        <ele>720.40</ele>
        <time>2016-10-29T06:58:24Z</time>
      </trkpt>
      <trkpt lat="42.386756000" lon="-2.643423000">
        <ele>720.40</ele>
        <time>2016-10-29T06:58:25Z</time>
      </trkpt>
      <trkpt lat="42.386708000" lon="-2.643455000">
        <ele>720.70</ele>
        <time>2016-10-29T06:58:26Z</time>
      </trkpt>
      <trkpt lat="42.386660000" lon="-2.643484000">
        <ele>720.90</ele>
        <time>2016-10-29T06:58:27Z</time>
      </trkpt>
      <trkpt lat="42.386612000" lon="-2.643517000">
        <ele>721.10</ele>
        <time>2016-10-29T06:58:28Z</time>
      </trkpt>
      <trkpt lat="42.386567000" lon="-2.643553000">
        <ele>721.20</ele>
        <time>2016-10-29T06:58:29Z</time>
      </trkpt>
      <trkpt lat="42.386524000" lon="-2.643592000">
        <ele>721.20</ele>
        <time>2016-10-29T06:58:30Z</time>
      </trkpt>
      <trkpt lat="42.386481000" lon="-2.643632000">
        <ele>721.20</ele>
        <time>2016-10-29T06:58:31Z</time>
      </trkpt>
      <trkpt lat="42.386439000" lon="-2.643672000">
        <ele>721.30</ele>
        <time>2016-10-29T06:58:32Z</time>
      </trkpt>
      <trkpt lat="42.386400000" lon="-2.643714000">
        <ele>721.30</ele>
        <time>2016-10-29T06:58:33Z</time>
      </trkpt>
      <trkpt lat="42.386361000" lon="-2.643756000">
        <ele>721.30</ele>
        <time>2016-10-29T06:58:34Z</time>
      </trkpt>
      <trkpt lat="42.386323000" lon="-2.643798000">
        <ele>721.30</ele>
        <time>2016-10-29T06:58:35Z</time>
      </trkpt>
      <trkpt lat="42.386280000" lon="-2.643836000">
        <ele>721.30</ele>
        <time>2016-10-29T06:58:36Z</time>
      </trkpt>
      <trkpt lat="42.386239000" lon="-2.643877000">
        <ele>721.30</ele>
        <time>2016-10-29T06:58:37Z</time>
      </trkpt>
      <trkpt lat="42.386199000" lon="-2.643918000">
        <ele>721.10</ele>
        <time>2016-10-29T06:58:38Z</time>
      </trkpt>
      <trkpt lat="42.386161000" lon="-2.643959000">
        <ele>720.90</ele>
        <time>2016-10-29T06:58:39Z</time>
      </trkpt>
      <trkpt lat="42.386085000" lon="-2.644048000">
        <ele>720.60</ele>
        <time>2016-10-29T06:58:41Z</time>
      </trkpt>
      <trkpt lat="42.386050000" lon="-2.644092000">
        <ele>720.60</ele>
        <time>2016-10-29T06:58:42Z</time>
      </trkpt>
      <trkpt lat="42.386014000" lon="-2.644135000">
        <ele>720.60</ele>
        <time>2016-10-29T06:58:43Z</time>
      </trkpt>
      <trkpt lat="42.385978000" lon="-2.644180000">
        <ele>720.70</ele>
        <time>2016-10-29T06:58:44Z</time>
      </trkpt>
      <trkpt lat="42.385946000" lon="-2.644226000">
        <ele>720.70</ele>
        <time>2016-10-29T06:58:45Z</time>
      </trkpt>
      <trkpt lat="42.385914000" lon="-2.644272000">
        <ele>720.80</ele>
        <time>2016-10-29T06:58:46Z</time>
      </trkpt>
      <trkpt lat="42.385880000" lon="-2.644316000">
        <ele>720.90</ele>
        <time>2016-10-29T06:58:47Z</time>
      </trkpt>
      <trkpt lat="42.385844000" lon="-2.644357000">
        <ele>720.90</ele>
        <time>2016-10-29T06:58:48Z</time>
      </trkpt>
      <trkpt lat="42.385810000" lon="-2.644395000">
        <ele>720.90</ele>
        <time>2016-10-29T06:58:49Z</time>
      </trkpt>
      <trkpt lat="42.385778000" lon="-2.644432000">
        <ele>720.90</ele>
        <time>2016-10-29T06:58:50Z</time>
      </trkpt>
      <trkpt lat="42.385746000" lon="-2.644470000">
        <ele>720.90</ele>
        <time>2016-10-29T06:58:51Z</time>
      </trkpt>
      <trkpt lat="42.385715000" lon="-2.644504000">
        <ele>720.90</ele>
        <time>2016-10-29T06:58:52Z</time>
      </trkpt>
      <trkpt lat="42.385686000" lon="-2.644543000">
        <ele>720.90</ele>
        <time>2016-10-29T06:58:53Z</time>
      </trkpt>
      <trkpt lat="42.385658000" lon="-2.644581000">
        <ele>721.00</ele>
        <time>2016-10-29T06:58:54Z</time>
      </trkpt>
      <trkpt lat="42.385629000" lon="-2.644619000">
        <ele>721.10</ele>
        <time>2016-10-29T06:58:55Z</time>
      </trkpt>
      <trkpt lat="42.385600000" lon="-2.644660000">
        <ele>721.20</ele>
        <time>2016-10-29T06:58:56Z</time>
      </trkpt>
      <trkpt lat="42.385570000" lon="-2.644694000">
        <ele>721.20</ele>
        <time>2016-10-29T06:58:57Z</time>
      </trkpt>
      <trkpt lat="42.385539000" lon="-2.644731000">
        <ele>721.50</ele>
        <time>2016-10-29T06:58:58Z</time>
      </trkpt>
      <trkpt lat="42.385511000" lon="-2.644764000">
        <ele>721.80</ele>
        <time>2016-10-29T06:58:59Z</time>
      </trkpt>
      <trkpt lat="42.385481000" lon="-2.644800000">
        <ele>721.90</ele>
        <time>2016-10-29T06:59:00Z</time>
      </trkpt>
      <trkpt lat="42.385452000" lon="-2.644833000">
        <ele>722.10</ele>
        <time>2016-10-29T06:59:01Z</time>
      </trkpt>
      <trkpt lat="42.385423000" lon="-2.644864000">
        <ele>722.20</ele>
        <time>2016-10-29T06:59:02Z</time>
      </trkpt>
      <trkpt lat="42.385393000" lon="-2.644894000">
        <ele>722.30</ele>
        <time>2016-10-29T06:59:03Z</time>
      </trkpt>
      <trkpt lat="42.385365000" lon="-2.644927000">
        <ele>722.50</ele>
        <time>2016-10-29T06:59:04Z</time>
      </trkpt>
      <trkpt lat="42.385336000" lon="-2.644955000">
        <ele>722.60</ele>
        <time>2016-10-29T06:59:05Z</time>
      </trkpt>
      <trkpt lat="42.385309000" lon="-2.644980000">
        <ele>722.80</ele>
        <time>2016-10-29T06:59:06Z</time>
      </trkpt>
      <trkpt lat="42.385284000" lon="-2.645003000">
        <ele>723.00</ele>
        <time>2016-10-29T06:59:07Z</time>
      </trkpt>
      <trkpt lat="42.385260000" lon="-2.645025000">
        <ele>723.30</ele>
        <time>2016-10-29T06:59:08Z</time>
      </trkpt>
      <trkpt lat="42.385233000" lon="-2.645045000">
        <ele>723.60</ele>
        <time>2016-10-29T06:59:09Z</time>
      </trkpt>
      <trkpt lat="42.385206000" lon="-2.645066000">
        <ele>723.90</ele>
        <time>2016-10-29T06:59:10Z</time>
      </trkpt>
      <trkpt lat="42.385181000" lon="-2.645090000">
        <ele>724.20</ele>
        <time>2016-10-29T06:59:11Z</time>
      </trkpt>
      <trkpt lat="42.385157000" lon="-2.645108000">
        <ele>724.60</ele>
        <time>2016-10-29T06:59:12Z</time>
      </trkpt>
      <trkpt lat="42.385133000" lon="-2.645131000">
        <ele>724.90</ele>
        <time>2016-10-29T06:59:13Z</time>
      </trkpt>
      <trkpt lat="42.385107000" lon="-2.645155000">
        <ele>725.30</ele>
        <time>2016-10-29T06:59:14Z</time>
      </trkpt>
      <trkpt lat="42.385082000" lon="-2.645176000">
        <ele>725.60</ele>
        <time>2016-10-29T06:59:15Z</time>
      </trkpt>
      <trkpt lat="42.385062000" lon="-2.645194000">
        <ele>725.90</ele>
        <time>2016-10-29T06:59:16Z</time>
      </trkpt>
      <trkpt lat="42.385040000" lon="-2.645211000">
        <ele>726.10</ele>
        <time>2016-10-29T06:59:17Z</time>
      </trkpt>
      <trkpt lat="42.385020000" lon="-2.645227000">
        <ele>726.30</ele>
        <time>2016-10-29T06:59:18Z</time>
      </trkpt>
      <trkpt lat="42.384995000" lon="-2.645245000">
        <ele>726.40</ele>
        <time>2016-10-29T06:59:19Z</time>
      </trkpt>
      <trkpt lat="42.384970000" lon="-2.645259000">
        <ele>726.50</ele>
        <time>2016-10-29T06:59:20Z</time>
      </trkpt>
      <trkpt lat="42.384946000" lon="-2.645280000">
        <ele>726.60</ele>
        <time>2016-10-29T06:59:21Z</time>
      </trkpt>
      <trkpt lat="42.384921000" lon="-2.645297000">
        <ele>726.80</ele>
        <time>2016-10-29T06:59:22Z</time>
      </trkpt>
      <trkpt lat="42.384895000" lon="-2.645308000">
        <ele>726.90</ele>
        <time>2016-10-29T06:59:23Z</time>
      </trkpt>
      <trkpt lat="42.384866000" lon="-2.645319000">
        <ele>727.10</ele>
        <time>2016-10-29T06:59:24Z</time>
      </trkpt>
      <trkpt lat="42.384839000" lon="-2.645341000">
        <ele>727.20</ele>
        <time>2016-10-29T06:59:25Z</time>
      </trkpt>
      <trkpt lat="42.384810000" lon="-2.645356000">
        <ele>727.30</ele>
        <time>2016-10-29T06:59:26Z</time>
      </trkpt>
      <trkpt lat="42.384780000" lon="-2.645372000">
        <ele>727.30</ele>
        <time>2016-10-29T06:59:27Z</time>
      </trkpt>
      <trkpt lat="42.384750000" lon="-2.645392000">
        <ele>727.20</ele>
        <time>2016-10-29T06:59:28Z</time>
      </trkpt>
      <trkpt lat="42.384715000" lon="-2.645411000">
        <ele>727.10</ele>
        <time>2016-10-29T06:59:29Z</time>
      </trkpt>
      <trkpt lat="42.384678000" lon="-2.645430000">
        <ele>727.00</ele>
        <time>2016-10-29T06:59:30Z</time>
      </trkpt>
      <trkpt lat="42.384641000" lon="-2.645448000">
        <ele>727.00</ele>
        <time>2016-10-29T06:59:31Z</time>
      </trkpt>
      <trkpt lat="42.384602000" lon="-2.645469000">
        <ele>726.90</ele>
        <time>2016-10-29T06:59:32Z</time>
      </trkpt>
      <trkpt lat="42.384564000" lon="-2.645491000">
        <ele>726.90</ele>
        <time>2016-10-29T06:59:33Z</time>
      </trkpt>
      <trkpt lat="42.384524000" lon="-2.645516000">
        <ele>726.70</ele>
        <time>2016-10-29T06:59:34Z</time>
      </trkpt>
      <trkpt lat="42.384481000" lon="-2.645539000">
        <ele>726.60</ele>
        <time>2016-10-29T06:59:35Z</time>
      </trkpt>
      <trkpt lat="42.384437000" lon="-2.645563000">
        <ele>726.50</ele>
        <time>2016-10-29T06:59:36Z</time>
      </trkpt>
      <trkpt lat="42.384393000" lon="-2.645589000">
        <ele>726.40</ele>
        <time>2016-10-29T06:59:37Z</time>
      </trkpt>
      <trkpt lat="42.384346000" lon="-2.645610000">
        <ele>726.30</ele>
        <time>2016-10-29T06:59:38Z</time>
      </trkpt>
      <trkpt lat="42.384299000" lon="-2.645635000">
        <ele>726.20</ele>
        <time>2016-10-29T06:59:39Z</time>
      </trkpt>
      <trkpt lat="42.384250000" lon="-2.645660000">
        <ele>726.00</ele>
        <time>2016-10-29T06:59:40Z</time>
      </trkpt>
      <trkpt lat="42.384150000" lon="-2.645712000">
        <ele>725.70</ele>
        <time>2016-10-29T06:59:42Z</time>
      </trkpt>
      <trkpt lat="42.384098000" lon="-2.645742000">
        <ele>725.60</ele>
        <time>2016-10-29T06:59:43Z</time>
      </trkpt>
      <trkpt lat="42.384043000" lon="-2.645776000">
        <ele>725.20</ele>
        <time>2016-10-29T06:59:44Z</time>
      </trkpt>
      <trkpt lat="42.383985000" lon="-2.645811000">
        <ele>724.90</ele>
        <time>2016-10-29T06:59:45Z</time>
      </trkpt>
      <trkpt lat="42.383929000" lon="-2.645846000">
        <ele>724.60</ele>
        <time>2016-10-29T06:59:46Z</time>
      </trkpt>
      <trkpt lat="42.383873000" lon="-2.645876000">
        <ele>724.30</ele>
        <time>2016-10-29T06:59:47Z</time>
      </trkpt>
      <trkpt lat="42.383817000" lon="-2.645902000">
        <ele>724.00</ele>
        <time>2016-10-29T06:59:48Z</time>
      </trkpt>
      <trkpt lat="42.383760000" lon="-2.645936000">
        <ele>723.80</ele>
        <time>2016-10-29T06:59:49Z</time>
      </trkpt>
      <trkpt lat="42.383705000" lon="-2.645968000">
        <ele>723.50</ele>
        <time>2016-10-29T06:59:50Z</time>
      </trkpt>
      <trkpt lat="42.383649000" lon="-2.645998000">
        <ele>723.30</ele>
        <time>2016-10-29T06:59:51Z</time>
      </trkpt>
      <trkpt lat="42.383593000" lon="-2.646028000">
        <ele>723.20</ele>
        <time>2016-10-29T06:59:52Z</time>
      </trkpt>
      <trkpt lat="42.383540000" lon="-2.646056000">
        <ele>723.10</ele>
        <time>2016-10-29T06:59:53Z</time>
      </trkpt>
      <trkpt lat="42.383486000" lon="-2.646082000">
        <ele>723.00</ele>
        <time>2016-10-29T06:59:54Z</time>
      </trkpt>
      <trkpt lat="42.383436000" lon="-2.646111000">
        <ele>723.00</ele>
        <time>2016-10-29T06:59:55Z</time>
      </trkpt>
      <trkpt lat="42.383385000" lon="-2.646136000">
        <ele>722.90</ele>
        <time>2016-10-29T06:59:56Z</time>
      </trkpt>
      <trkpt lat="42.383336000" lon="-2.646163000">
        <ele>722.80</ele>
        <time>2016-10-29T06:59:57Z</time>
      </trkpt>
      <trkpt lat="42.383287000" lon="-2.646190000">
        <ele>722.60</ele>
        <time>2016-10-29T06:59:58Z</time>
      </trkpt>
      <trkpt lat="42.383238000" lon="-2.646211000">
        <ele>722.40</ele>
        <time>2016-10-29T06:59:59Z</time>
      </trkpt>
      <trkpt lat="42.383189000" lon="-2.646236000">
        <ele>722.30</ele>
        <time>2016-10-29T07:00:00Z</time>
      </trkpt>
      <trkpt lat="42.383140000" lon="-2.646261000">
        <ele>722.20</ele>
        <time>2016-10-29T07:00:01Z</time>
      </trkpt>
      <trkpt lat="42.383093000" lon="-2.646284000">
        <ele>722.30</ele>
        <time>2016-10-29T07:00:02Z</time>
      </trkpt>
      <trkpt lat="42.383044000" lon="-2.646307000">
        <ele>722.40</ele>
        <time>2016-10-29T07:00:03Z</time>
      </trkpt>
      <trkpt lat="42.382995000" lon="-2.646328000">
        <ele>722.40</ele>
        <time>2016-10-29T07:00:04Z</time>
      </trkpt>
      <trkpt lat="42.382949000" lon="-2.646353000">
        <ele>722.50</ele>
        <time>2016-10-29T07:00:05Z</time>
      </trkpt>
      <trkpt lat="42.382901000" lon="-2.646379000">
        <ele>722.50</ele>
        <time>2016-10-29T07:00:06Z</time>
      </trkpt>
      <trkpt lat="42.382855000" lon="-2.646406000">
        <ele>722.50</ele>
        <time>2016-10-29T07:00:07Z</time>
      </trkpt>
      <trkpt lat="42.382810000" lon="-2.646437000">
        <ele>722.50</ele>
        <time>2016-10-29T07:00:08Z</time>
      </trkpt>
      <trkpt lat="42.382763000" lon="-2.646464000">
        <ele>722.50</ele>
        <time>2016-10-29T07:00:09Z</time>
      </trkpt>
      <trkpt lat="42.382716000" lon="-2.646489000">
        <ele>722.40</ele>
        <time>2016-10-29T07:00:10Z</time>
      </trkpt>
      <trkpt lat="42.382670000" lon="-2.646508000">
        <ele>722.40</ele>
        <time>2016-10-29T07:00:11Z</time>
      </trkpt>
      <trkpt lat="42.382626000" lon="-2.646524000">
        <ele>722.40</ele>
        <time>2016-10-29T07:00:12Z</time>
      </trkpt>
      <trkpt lat="42.382582000" lon="-2.646541000">
        <ele>722.40</ele>
        <time>2016-10-29T07:00:13Z</time>
      </trkpt>
      <trkpt lat="42.382538000" lon="-2.646562000">
        <ele>722.30</ele>
        <time>2016-10-29T07:00:14Z</time>
      </trkpt>
      <trkpt lat="42.382494000" lon="-2.646576000">
        <ele>722.30</ele>
        <time>2016-10-29T07:00:15Z</time>
      </trkpt>
      <trkpt lat="42.382450000" lon="-2.646588000">
        <ele>722.00</ele>
        <time>2016-10-29T07:00:16Z</time>
      </trkpt>
      <trkpt lat="42.382405000" lon="-2.646603000">
        <ele>721.80</ele>
        <time>2016-10-29T07:00:17Z</time>
      </trkpt>
      <trkpt lat="42.382360000" lon="-2.646615000">
        <ele>721.80</ele>
        <time>2016-10-29T07:00:18Z</time>
      </trkpt>
      <trkpt lat="42.382314000" lon="-2.646627000">
        <ele>721.80</ele>
        <time>2016-10-29T07:00:19Z</time>
      </trkpt>
      <trkpt lat="42.382267000" lon="-2.646639000">
        <ele>721.90</ele>
        <time>2016-10-29T07:00:20Z</time>
      </trkpt>
      <trkpt lat="42.382218000" lon="-2.646648000">
        <ele>721.90</ele>
        <time>2016-10-29T07:00:21Z</time>
      </trkpt>
      <trkpt lat="42.382170000" lon="-2.646660000">
        <ele>721.90</ele>
        <time>2016-10-29T07:00:22Z</time>
      </trkpt>
      <trkpt lat="42.382118000" lon="-2.646664000">
        <ele>721.90</ele>
        <time>2016-10-29T07:00:23Z</time>
      </trkpt>
      <trkpt lat="42.382065000" lon="-2.646671000">
        <ele>721.80</ele>
        <time>2016-10-29T07:00:24Z</time>
      </trkpt>
      <trkpt lat="42.382009000" lon="-2.646679000">
        <ele>721.70</ele>
        <time>2016-10-29T07:00:25Z</time>
      </trkpt>
      <trkpt lat="42.381954000" lon="-2.646686000">
        <ele>721.50</ele>
        <time>2016-10-29T07:00:26Z</time>
      </trkpt>
      <trkpt lat="42.381899000" lon="-2.646691000">
        <ele>721.30</ele>
        <time>2016-10-29T07:00:27Z</time>
      </trkpt>
      <trkpt lat="42.381842000" lon="-2.646698000">
        <ele>721.10</ele>
        <time>2016-10-29T07:00:28Z</time>
      </trkpt>
      <trkpt lat="42.381785000" lon="-2.646701000">
        <ele>721.00</ele>
        <time>2016-10-29T07:00:29Z</time>
      </trkpt>
      <trkpt lat="42.381726000" lon="-2.646705000">
        <ele>720.90</ele>
        <time>2016-10-29T07:00:30Z</time>
      </trkpt>
      <trkpt lat="42.381667000" lon="-2.646707000">
        <ele>720.90</ele>
        <time>2016-10-29T07:00:31Z</time>
      </trkpt>
      <trkpt lat="42.381609000" lon="-2.646711000">
        <ele>720.60</ele>
        <time>2016-10-29T07:00:32Z</time>
      </trkpt>
      <trkpt lat="42.381555000" lon="-2.646720000">
        <ele>720.30</ele>
        <time>2016-10-29T07:00:33Z</time>
      </trkpt>
      <trkpt lat="42.381502000" lon="-2.646726000">
        <ele>720.10</ele>
        <time>2016-10-29T07:00:34Z</time>
      </trkpt>
      <trkpt lat="42.381447000" lon="-2.646732000">
        <ele>719.90</ele>
        <time>2016-10-29T07:00:35Z</time>
      </trkpt>
      <trkpt lat="42.381393000" lon="-2.646737000">
        <ele>719.70</ele>
        <time>2016-10-29T07:00:36Z</time>
      </trkpt>
      <trkpt lat="42.381342000" lon="-2.646743000">
        <ele>719.60</ele>
        <time>2016-10-29T07:00:37Z</time>
      </trkpt>
      <trkpt lat="42.381289000" lon="-2.646748000">
        <ele>719.40</ele>
        <time>2016-10-29T07:00:38Z</time>
      </trkpt>
      <trkpt lat="42.381240000" lon="-2.646751000">
        <ele>719.40</ele>
        <time>2016-10-29T07:00:39Z</time>
      </trkpt>
      <trkpt lat="42.381191000" lon="-2.646754000">
        <ele>719.30</ele>
        <time>2016-10-29T07:00:40Z</time>
      </trkpt>
      <trkpt lat="42.381142000" lon="-2.646759000">
        <ele>719.20</ele>
        <time>2016-10-29T07:00:41Z</time>
      </trkpt>
      <trkpt lat="42.381045000" lon="-2.646768000">
        <ele>719.10</ele>
        <time>2016-10-29T07:00:43Z</time>
      </trkpt>
      <trkpt lat="42.380999000" lon="-2.646776000">
        <ele>719.10</ele>
        <time>2016-10-29T07:00:44Z</time>
      </trkpt>
      <trkpt lat="42.380953000" lon="-2.646787000">
        <ele>719.20</ele>
        <time>2016-10-29T07:00:45Z</time>
      </trkpt>
      <trkpt lat="42.380909000" lon="-2.646801000">
        <ele>719.20</ele>
        <time>2016-10-29T07:00:46Z</time>
      </trkpt>
      <trkpt lat="42.380865000" lon="-2.646818000">
        <ele>719.20</ele>
        <time>2016-10-29T07:00:47Z</time>
      </trkpt>
      <trkpt lat="42.380820000" lon="-2.646837000">
        <ele>719.20</ele>
        <time>2016-10-29T07:00:48Z</time>
      </trkpt>
      <trkpt lat="42.380777000" lon="-2.646865000">
        <ele>719.20</ele>
        <time>2016-10-29T07:00:49Z</time>
      </trkpt>
      <trkpt lat="42.380735000" lon="-2.646898000">
        <ele>719.20</ele>
        <time>2016-10-29T07:00:50Z</time>
      </trkpt>
      <trkpt lat="42.380697000" lon="-2.646936000">
        <ele>719.20</ele>
        <time>2016-10-29T07:00:51Z</time>
      </trkpt>
      <trkpt lat="42.380660000" lon="-2.646975000">
        <ele>719.20</ele>
        <time>2016-10-29T07:00:52Z</time>
      </trkpt>
      <trkpt lat="42.380626000" lon="-2.647021000">
        <ele>719.20</ele>
        <time>2016-10-29T07:00:53Z</time>
      </trkpt>
      <trkpt lat="42.380595000" lon="-2.647071000">
        <ele>719.20</ele>
        <time>2016-10-29T07:00:54Z</time>
      </trkpt>
      <trkpt lat="42.380565000" lon="-2.647123000">
        <ele>719.10</ele>
        <time>2016-10-29T07:00:55Z</time>
      </trkpt>
      <trkpt lat="42.380538000" lon="-2.647180000">
        <ele>719.10</ele>
        <time>2016-10-29T07:00:56Z</time>
      </trkpt>
      <trkpt lat="42.380514000" lon="-2.647235000">
        <ele>719.10</ele>
        <time>2016-10-29T07:00:57Z</time>
      </trkpt>
      <trkpt lat="42.380491000" lon="-2.647289000">
        <ele>719.20</ele>
        <time>2016-10-29T07:00:58Z</time>
      </trkpt>
      <trkpt lat="42.380467000" lon="-2.647343000">
        <ele>719.30</ele>
        <time>2016-10-29T07:00:59Z</time>
      </trkpt>
      <trkpt lat="42.380445000" lon="-2.647399000">
        <ele>719.10</ele>
        <time>2016-10-29T07:01:00Z</time>
      </trkpt>
      <trkpt lat="42.380420000" lon="-2.647453000">
        <ele>719.00</ele>
        <time>2016-10-29T07:01:01Z</time>
      </trkpt>
      <trkpt lat="42.380391000" lon="-2.647508000">
        <ele>719.20</ele>
        <time>2016-10-29T07:01:02Z</time>
      </trkpt>
      <trkpt lat="42.380357000" lon="-2.647560000">
        <ele>719.30</ele>
        <time>2016-10-29T07:01:03Z</time>
      </trkpt>
      <trkpt lat="42.380320000" lon="-2.647606000">
        <ele>719.20</ele>
        <time>2016-10-29T07:01:04Z</time>
      </trkpt>
      <trkpt lat="42.380282000" lon="-2.647645000">
        <ele>719.10</ele>
        <time>2016-10-29T07:01:05Z</time>
      </trkpt>
      <trkpt lat="42.380247000" lon="-2.647684000">
        <ele>719.10</ele>
        <time>2016-10-29T07:01:06Z</time>
      </trkpt>
      <trkpt lat="42.380211000" lon="-2.647722000">
        <ele>719.00</ele>
        <time>2016-10-29T07:01:07Z</time>
      </trkpt>
      <trkpt lat="42.380171000" lon="-2.647756000">
        <ele>719.00</ele>
        <time>2016-10-29T07:01:08Z</time>
      </trkpt>
      <trkpt lat="42.380130000" lon="-2.647787000">
        <ele>718.90</ele>
        <time>2016-10-29T07:01:09Z</time>
      </trkpt>
      <trkpt lat="42.380090000" lon="-2.647819000">
        <ele>718.90</ele>
        <time>2016-10-29T07:01:10Z</time>
      </trkpt>
      <trkpt lat="42.380050000" lon="-2.647850000">
        <ele>718.80</ele>
        <time>2016-10-29T07:01:11Z</time>
      </trkpt>
      <trkpt lat="42.380009000" lon="-2.647877000">
        <ele>718.80</ele>
        <time>2016-10-29T07:01:12Z</time>
      </trkpt>
      <trkpt lat="42.379969000" lon="-2.647903000">
        <ele>718.80</ele>
        <time>2016-10-29T07:01:13Z</time>
      </trkpt>
      <trkpt lat="42.379929000" lon="-2.647927000">
        <ele>718.80</ele>
        <time>2016-10-29T07:01:14Z</time>
      </trkpt>
      <trkpt lat="42.379888000" lon="-2.647952000">
        <ele>718.90</ele>
        <time>2016-10-29T07:01:15Z</time>
      </trkpt>
      <trkpt lat="42.379847000" lon="-2.647978000">
        <ele>718.90</ele>
        <time>2016-10-29T07:01:16Z</time>
      </trkpt>
      <trkpt lat="42.379808000" lon="-2.648004000">
        <ele>718.90</ele>
        <time>2016-10-29T07:01:17Z</time>
      </trkpt>
      <trkpt lat="42.379765000" lon="-2.648027000">
        <ele>719.00</ele>
        <time>2016-10-29T07:01:18Z</time>
      </trkpt>
      <trkpt lat="42.379724000" lon="-2.648051000">
        <ele>719.00</ele>
        <time>2016-10-29T07:01:19Z</time>
      </trkpt>
      <trkpt lat="42.379683000" lon="-2.648076000">
        <ele>719.00</ele>
        <time>2016-10-29T07:01:20Z</time>
      </trkpt>
      <trkpt lat="42.379642000" lon="-2.648101000">
        <ele>719.10</ele>
        <time>2016-10-29T07:01:21Z</time>
      </trkpt>
      <trkpt lat="42.379600000" lon="-2.648121000">
        <ele>719.20</ele>
        <time>2016-10-29T07:01:22Z</time>
      </trkpt>
      <trkpt lat="42.379559000" lon="-2.648146000">
        <ele>719.20</ele>
        <time>2016-10-29T07:01:23Z</time>
      </trkpt>
      <trkpt lat="42.379520000" lon="-2.648172000">
        <ele>719.30</ele>
        <time>2016-10-29T07:01:24Z</time>
      </trkpt>
      <trkpt lat="42.379480000" lon="-2.648201000">
        <ele>719.30</ele>
        <time>2016-10-29T07:01:25Z</time>
      </trkpt>
      <trkpt lat="42.379441000" lon="-2.648234000">
        <ele>719.40</ele>
        <time>2016-10-29T07:01:26Z</time>
      </trkpt>
      <trkpt lat="42.379403000" lon="-2.648265000">
        <ele>719.40</ele>
        <time>2016-10-29T07:01:27Z</time>
      </trkpt>
      <trkpt lat="42.379365000" lon="-2.648296000">
        <ele>719.40</ele>
        <time>2016-10-29T07:01:28Z</time>
      </trkpt>
      <trkpt lat="42.379328000" lon="-2.648327000">
        <ele>719.40</ele>
        <time>2016-10-29T07:01:29Z</time>
      </trkpt>
      <trkpt lat="42.379294000" lon="-2.648364000">
        <ele>719.60</ele>
        <time>2016-10-29T07:01:30Z</time>
      </trkpt>
      <trkpt lat="42.379259000" lon="-2.648401000">
        <ele>719.80</ele>
        <time>2016-10-29T07:01:31Z</time>
      </trkpt>
      <trkpt lat="42.379225000" lon="-2.648439000">
        <ele>719.90</ele>
        <time>2016-10-29T07:01:32Z</time>
      </trkpt>
      <trkpt lat="42.379192000" lon="-2.648474000">
        <ele>720.00</ele>
        <time>2016-10-29T07:01:33Z</time>
      </trkpt>
      <trkpt lat="42.379158000" lon="-2.648514000">
        <ele>720.10</ele>
        <time>2016-10-29T07:01:34Z</time>
      </trkpt>
      <trkpt lat="42.379126000" lon="-2.648551000">
        <ele>720.20</ele>
        <time>2016-10-29T07:01:35Z</time>
      </trkpt>
      <trkpt lat="42.379094000" lon="-2.648588000">
        <ele>720.30</ele>
        <time>2016-10-29T07:01:36Z</time>
      </trkpt>
      <trkpt lat="42.379061000" lon="-2.648624000">
        <ele>720.30</ele>
        <time>2016-10-29T07:01:37Z</time>
      </trkpt>
      <trkpt lat="42.379030000" lon="-2.648664000">
        <ele>720.50</ele>
        <time>2016-10-29T07:01:38Z</time>
      </trkpt>
      <trkpt lat="42.378996000" lon="-2.648701000">
        <ele>720.60</ele>
        <time>2016-10-29T07:01:39Z</time>
      </trkpt>
      <trkpt lat="42.378963000" lon="-2.648736000">
        <ele>720.70</ele>
        <time>2016-10-29T07:01:40Z</time>
      </trkpt>
      <trkpt lat="42.378932000" lon="-2.648774000">
        <ele>720.80</ele>
        <time>2016-10-29T07:01:41Z</time>
      </trkpt>
      <trkpt lat="42.378900000" lon="-2.648809000">
        <ele>720.90</ele>
        <time>2016-10-29T07:01:42Z</time>
      </trkpt>
      <trkpt lat="42.378843000" lon="-2.648876000">
        <ele>720.90</ele>
        <time>2016-10-29T07:01:44Z</time>
      </trkpt>
      <trkpt lat="42.378812000" lon="-2.648907000">
        <ele>721.00</ele>
        <time>2016-10-29T07:01:45Z</time>
      </trkpt>
      <trkpt lat="42.378786000" lon="-2.648939000">
        <ele>720.90</ele>
        <time>2016-10-29T07:01:46Z</time>
      </trkpt>
      <trkpt lat="42.378757000" lon="-2.648970000">
        <ele>720.90</ele>
        <time>2016-10-29T07:01:47Z</time>
      </trkpt>
      <trkpt lat="42.378731000" lon="-2.649001000">
        <ele>720.90</ele>
        <time>2016-10-29T07:01:48Z</time>
      </trkpt>
      <trkpt lat="42.378707000" lon="-2.649030000">
        <ele>720.90</ele>
        <time>2016-10-29T07:01:49Z</time>
      </trkpt>
      <trkpt lat="42.378682000" lon="-2.649058000">
        <ele>720.90</ele>
        <time>2016-10-29T07:01:50Z</time>
      </trkpt>
      <trkpt lat="42.378658000" lon="-2.649076000">
        <ele>720.90</ele>
        <time>2016-10-29T07:01:51Z</time>
      </trkpt>
      <trkpt lat="42.378638000" lon="-2.649099000">
        <ele>720.70</ele>
        <time>2016-10-29T07:01:52Z</time>
      </trkpt>
      <trkpt lat="42.378619000" lon="-2.649117000">
        <ele>720.60</ele>
        <time>2016-10-29T07:01:53Z</time>
      </trkpt>
      <trkpt lat="42.378599000" lon="-2.649139000">
        <ele>720.60</ele>
        <time>2016-10-29T07:01:54Z</time>
      </trkpt>
      <trkpt lat="42.378580000" lon="-2.649156000">
        <ele>720.50</ele>
        <time>2016-10-29T07:01:55Z</time>
      </trkpt>
      <trkpt lat="42.378567000" lon="-2.649161000">
        <ele>720.50</ele>
        <time>2016-10-29T07:01:56Z</time>
      </trkpt>
      <trkpt lat="42.378559000" lon="-2.649164000">
        <ele>720.40</ele>
        <time>2016-10-29T07:01:57Z</time>
      </trkpt>
      <trkpt lat="42.378556000" lon="-2.649166000">
        <ele>720.50</ele>
        <time>2016-10-29T07:01:58Z</time>
      </trkpt>
      <trkpt lat="42.378555000" lon="-2.649167000">
        <ele>720.50</ele>
        <time>2016-10-29T07:01:59Z</time>
      </trkpt>
      <trkpt lat="42.378554000" lon="-2.649163000">
        <ele>720.50</ele>
        <time>2016-10-29T07:02:00Z</time>
      </trkpt>
      <trkpt lat="42.378553000" lon="-2.649163000">
        <ele>720.50</ele>
        <time>2016-10-29T07:02:01Z</time>
      </trkpt>
      <trkpt lat="42.378555000" lon="-2.649163000">
        <ele>720.60</ele>
        <time>2016-10-29T07:02:02Z</time>
      </trkpt>
      <trkpt lat="42.378556000" lon="-2.649162000">
        <ele>720.60</ele>
        <time>2016-10-29T07:02:03Z</time>
      </trkpt>
      <trkpt lat="42.378557000" lon="-2.649161000">
        <ele>720.60</ele>
        <time>2016-10-29T07:02:04Z</time>
      </trkpt>
      <trkpt lat="42.378558000" lon="-2.649160000">
        <ele>720.60</ele>
        <time>2016-10-29T07:02:05Z</time>
      </trkpt>
      <trkpt lat="42.378557000" lon="-2.649160000">
        <ele>720.70</ele>
        <time>2016-10-29T07:02:06Z</time>
      </trkpt>
      <trkpt lat="42.378556000" lon="-2.649160000">
        <ele>720.70</ele>
        <time>2016-10-29T07:02:07Z</time>
      </trkpt>
      <trkpt lat="42.378556000" lon="-2.649161000">
        <ele>720.70</ele>
        <time>2016-10-29T07:02:08Z</time>
      </trkpt>
      <trkpt lat="42.378556000" lon="-2.649162000">
        <ele>720.80</ele>
        <time>2016-10-29T07:02:09Z</time>
      </trkpt>
      <trkpt lat="42.378555000" lon="-2.649163000">
        <ele>720.70</ele>
        <time>2016-10-29T07:02:10Z</time>
      </trkpt>
      <trkpt lat="42.378554000" lon="-2.649164000">
        <ele>720.60</ele>
        <time>2016-10-29T07:02:11Z</time>
      </trkpt>
      <trkpt lat="42.378555000" lon="-2.649166000">
        <ele>720.50</ele>
        <time>2016-10-29T07:02:12Z</time>
      </trkpt>
      <trkpt lat="42.378556000" lon="-2.649167000">
        <ele>720.50</ele>
        <time>2016-10-29T07:02:13Z</time>
      </trkpt>
      <trkpt lat="42.378556000" lon="-2.649165000">
        <ele>720.40</ele>
        <time>2016-10-29T07:02:14Z</time>
      </trkpt>
      <trkpt lat="42.378556000" lon="-2.649164000">
        <ele>720.40</ele>
        <time>2016-10-29T07:02:15Z</time>
      </trkpt>
      <trkpt lat="42.378557000" lon="-2.649163000">
        <ele>720.40</ele>
        <time>2016-10-29T07:02:16Z</time>
      </trkpt>
      <trkpt lat="42.378558000" lon="-2.649162000">
        <ele>720.40</ele>
        <time>2016-10-29T07:02:17Z</time>
      </trkpt>
      <trkpt lat="42.378559000" lon="-2.649161000">
        <ele>720.40</ele>
        <time>2016-10-29T07:02:18Z</time>
      </trkpt>
      <trkpt lat="42.378559000" lon="-2.649160000">
        <ele>720.40</ele>
        <time>2016-10-29T07:02:19Z</time>
      </trkpt>
      <trkpt lat="42.378559000" lon="-2.649159000">
        <ele>720.40</ele>
        <time>2016-10-29T07:02:20Z</time>
      </trkpt>
      <trkpt lat="42.378559000" lon="-2.649158000">
        <ele>720.30</ele>
        <time>2016-10-29T07:02:21Z</time>
      </trkpt>
      <trkpt lat="42.378559000" lon="-2.649157000">
        <ele>720.30</ele>
        <time>2016-10-29T07:02:22Z</time>
      </trkpt>
      <trkpt lat="42.378558000" lon="-2.649157000">
        <ele>720.30</ele>
        <time>2016-10-29T07:02:23Z</time>
      </trkpt>
      <trkpt lat="42.378557000" lon="-2.649157000">
        <ele>720.20</ele>
        <time>2016-10-29T07:02:24Z</time>
      </trkpt>
      <trkpt lat="42.378556000" lon="-2.649157000">
        <ele>720.20</ele>
        <time>2016-10-29T07:02:25Z</time>
      </trkpt>
      <trkpt lat="42.378556000" lon="-2.649157000">
        <ele>720.20</ele>
        <time>2016-10-29T07:02:26Z</time>
      </trkpt>
      <trkpt lat="42.378556000" lon="-2.649156000">
        <ele>720.20</ele>
        <time>2016-10-29T07:02:27Z</time>
      </trkpt>
      <trkpt lat="42.378555000" lon="-2.649156000">
        <ele>720.20</ele>
        <time>2016-10-29T07:02:28Z</time>
      </trkpt>
      <trkpt lat="42.378554000" lon="-2.649157000">
        <ele>720.30</ele>
        <time>2016-10-29T07:02:29Z</time>
      </trkpt>
      <trkpt lat="42.378554000" lon="-2.649157000">
        <ele>720.40</ele>
        <time>2016-10-29T07:02:30Z</time>
      </trkpt>
      <trkpt lat="42.378554000" lon="-2.649157000">
        <ele>720.50</ele>
        <time>2016-10-29T07:02:31Z</time>
      </trkpt>
      <trkpt lat="42.378554000" lon="-2.649156000">
        <ele>720.50</ele>
        <time>2016-10-29T07:02:32Z</time>
      </trkpt>
      <trkpt lat="42.378554000" lon="-2.649156000">
        <ele>720.60</ele>
        <time>2016-10-29T07:02:33Z</time>
      </trkpt>
      <trkpt lat="42.378554000" lon="-2.649155000">
        <ele>720.70</ele>
        <time>2016-10-29T07:02:34Z</time>
      </trkpt>
      <trkpt lat="42.378553000" lon="-2.649156000">
        <ele>720.80</ele>
        <time>2016-10-29T07:02:35Z</time>
      </trkpt>
      <trkpt lat="42.378553000" lon="-2.649156000">
        <ele>720.80</ele>
        <time>2016-10-29T07:02:36Z</time>
      </trkpt>
      <trkpt lat="42.378552000" lon="-2.649156000">
        <ele>720.80</ele>
        <time>2016-10-29T07:02:37Z</time>
      </trkpt>
      <trkpt lat="42.378551000" lon="-2.649156000">
        <ele>720.80</ele>
        <time>2016-10-29T07:02:38Z</time>
      </trkpt>
      <trkpt lat="42.378551000" lon="-2.649157000">
        <ele>720.70</ele>
        <time>2016-10-29T07:02:39Z</time>
      </trkpt>
      <trkpt lat="42.378550000" lon="-2.649158000">
        <ele>720.60</ele>
        <time>2016-10-29T07:02:40Z</time>
      </trkpt>
      <trkpt lat="42.378550000" lon="-2.649158000">
        <ele>720.50</ele>
        <time>2016-10-29T07:02:41Z</time>
      </trkpt>
      <trkpt lat="42.378549000" lon="-2.649158000">
        <ele>720.50</ele>
        <time>2016-10-29T07:02:42Z</time>
      </trkpt>
      <trkpt lat="42.378549000" lon="-2.649159000">
        <ele>720.60</ele>
        <time>2016-10-29T07:02:43Z</time>
      </trkpt>
      <trkpt lat="42.378549000" lon="-2.649160000">
        <ele>720.70</ele>
        <time>2016-10-29T07:02:45Z</time>
      </trkpt>
      <trkpt lat="42.378549000" lon="-2.649161000">
        <ele>720.80</ele>
        <time>2016-10-29T07:02:46Z</time>
      </trkpt>
      <trkpt lat="42.378548000" lon="-2.649161000">
        <ele>720.80</ele>
        <time>2016-10-29T07:02:47Z</time>
      </trkpt>
      <trkpt lat="42.378548000" lon="-2.649160000">
        <ele>720.70</ele>
        <time>2016-10-29T07:02:48Z</time>
      </trkpt>
      <trkpt lat="42.378547000" lon="-2.649161000">
        <ele>720.70</ele>
        <time>2016-10-29T07:02:49Z</time>
      </trkpt>
      <trkpt lat="42.378547000" lon="-2.649162000">
        <ele>720.60</ele>
        <time>2016-10-29T07:02:50Z</time>
      </trkpt>
      <trkpt lat="42.378546000" lon="-2.649162000">
        <ele>720.60</ele>
        <time>2016-10-29T07:02:51Z</time>
      </trkpt>
      <trkpt lat="42.378546000" lon="-2.649164000">
        <ele>720.70</ele>
        <time>2016-10-29T07:02:52Z</time>
      </trkpt>
      <trkpt lat="42.378546000" lon="-2.649180000">
        <ele>720.70</ele>
        <time>2016-10-29T07:02:53Z</time>
      </trkpt>
      <trkpt lat="42.378544000" lon="-2.649202000">
        <ele>720.70</ele>
        <time>2016-10-29T07:02:54Z</time>
      </trkpt>
      <trkpt lat="42.378535000" lon="-2.649220000">
        <ele>720.70</ele>
        <time>2016-10-29T07:02:55Z</time>
      </trkpt>
      <trkpt lat="42.378522000" lon="-2.649233000">
        <ele>720.70</ele>
        <time>2016-10-29T07:02:56Z</time>
      </trkpt>
      <trkpt lat="42.378507000" lon="-2.649237000">
        <ele>720.70</ele>
        <time>2016-10-29T07:02:57Z</time>
      </trkpt>
      <trkpt lat="42.378491000" lon="-2.649240000">
        <ele>720.80</ele>
        <time>2016-10-29T07:02:58Z</time>
      </trkpt>
      <trkpt lat="42.378470000" lon="-2.649233000">
        <ele>720.80</ele>
        <time>2016-10-29T07:02:59Z</time>
      </trkpt>
      <trkpt lat="42.378450000" lon="-2.649223000">
        <ele>720.80</ele>
        <time>2016-10-29T07:03:00Z</time>
      </trkpt>
      <trkpt lat="42.378428000" lon="-2.649207000">
        <ele>720.80</ele>
        <time>2016-10-29T07:03:01Z</time>
      </trkpt>
      <trkpt lat="42.378410000" lon="-2.649187000">
        <ele>720.80</ele>
        <time>2016-10-29T07:03:02Z</time>
      </trkpt>
      <trkpt lat="42.378391000" lon="-2.649165000">
        <ele>720.80</ele>
        <time>2016-10-29T07:03:03Z</time>
      </trkpt>
      <trkpt lat="42.378372000" lon="-2.649146000">
        <ele>720.90</ele>
        <time>2016-10-29T07:03:04Z</time>
      </trkpt>
      <trkpt lat="42.378353000" lon="-2.649127000">
        <ele>721.00</ele>
        <time>2016-10-29T07:03:05Z</time>
      </trkpt>
      <trkpt lat="42.378333000" lon="-2.649102000">
        <ele>721.00</ele>
        <time>2016-10-29T07:03:06Z</time>
      </trkpt>
      <trkpt lat="42.378309000" lon="-2.649076000">
        <ele>721.00</ele>
        <time>2016-10-29T07:03:07Z</time>
      </trkpt>
      <trkpt lat="42.378287000" lon="-2.649048000">
        <ele>721.10</ele>
        <time>2016-10-29T07:03:08Z</time>
      </trkpt>
      <trkpt lat="42.378265000" lon="-2.649022000">
        <ele>721.10</ele>
        <time>2016-10-29T07:03:09Z</time>
      </trkpt>
      <trkpt lat="42.378243000" lon="-2.648993000">
        <ele>721.10</ele>
        <time>2016-10-29T07:03:10Z</time>
      </trkpt>
      <trkpt lat="42.378217000" lon="-2.648962000">
        <ele>721.20</ele>
        <time>2016-10-29T07:03:11Z</time>
      </trkpt>
      <trkpt lat="42.378195000" lon="-2.648935000">
        <ele>721.10</ele>
        <time>2016-10-29T07:03:12Z</time>
      </trkpt>
      <trkpt lat="42.378172000" lon="-2.648909000">
        <ele>721.10</ele>
        <time>2016-10-29T07:03:13Z</time>
      </trkpt>
      <trkpt lat="42.378150000" lon="-2.648883000">
        <ele>721.00</ele>
        <time>2016-10-29T07:03:14Z</time>
      </trkpt>
      <trkpt lat="42.378127000" lon="-2.648855000">
        <ele>721.00</ele>
        <time>2016-10-29T07:03:15Z</time>
      </trkpt>
      <trkpt lat="42.378103000" lon="-2.648833000">
        <ele>721.00</ele>
        <time>2016-10-29T07:03:16Z</time>
      </trkpt>
      <trkpt lat="42.378075000" lon="-2.648810000">
        <ele>720.90</ele>
        <time>2016-10-29T07:03:17Z</time>
      </trkpt>
      <trkpt lat="42.378052000" lon="-2.648787000">
        <ele>720.90</ele>
        <time>2016-10-29T07:03:18Z</time>
      </trkpt>
      <trkpt lat="42.378029000" lon="-2.648762000">
        <ele>720.80</ele>
        <time>2016-10-29T07:03:19Z</time>
      </trkpt>
      <trkpt lat="42.378008000" lon="-2.648734000">
        <ele>720.80</ele>
        <time>2016-10-29T07:03:20Z</time>
      </trkpt>
      <trkpt lat="42.377988000" lon="-2.648706000">
        <ele>720.80</ele>
        <time>2016-10-29T07:03:21Z</time>
      </trkpt>
      <trkpt lat="42.377967000" lon="-2.648681000">
        <ele>720.90</ele>
        <time>2016-10-29T07:03:22Z</time>
      </trkpt>
      <trkpt lat="42.377945000" lon="-2.648656000">
        <ele>720.90</ele>
        <time>2016-10-29T07:03:23Z</time>
      </trkpt>
      <trkpt lat="42.377922000" lon="-2.648629000">
        <ele>721.00</ele>
        <time>2016-10-29T07:03:24Z</time>
      </trkpt>
      <trkpt lat="42.377901000" lon="-2.648608000">
        <ele>721.10</ele>
        <time>2016-10-29T07:03:25Z</time>
      </trkpt>
      <trkpt lat="42.377878000" lon="-2.648588000">
        <ele>721.20</ele>
        <time>2016-10-29T07:03:26Z</time>
      </trkpt>
      <trkpt lat="42.377855000" lon="-2.648571000">
        <ele>721.30</ele>
        <time>2016-10-29T07:03:27Z</time>
      </trkpt>
      <trkpt lat="42.377829000" lon="-2.648552000">
        <ele>721.50</ele>
        <time>2016-10-29T07:03:28Z</time>
      </trkpt>
      <trkpt lat="42.377804000" lon="-2.648533000">
        <ele>721.60</ele>
        <time>2016-10-29T07:03:29Z</time>
      </trkpt>
      <trkpt lat="42.377781000" lon="-2.648518000">
        <ele>721.90</ele>
        <time>2016-10-29T07:03:30Z</time>
      </trkpt>
      <trkpt lat="42.377756000" lon="-2.648507000">
        <ele>722.20</ele>
        <time>2016-10-29T07:03:31Z</time>
      </trkpt>
      <trkpt lat="42.377729000" lon="-2.648494000">
        <ele>722.50</ele>
        <time>2016-10-29T07:03:32Z</time>
      </trkpt>
      <trkpt lat="42.377704000" lon="-2.648482000">
        <ele>722.60</ele>
        <time>2016-10-29T07:03:33Z</time>
      </trkpt>
      <trkpt lat="42.377680000" lon="-2.648469000">
        <ele>722.80</ele>
        <time>2016-10-29T07:03:34Z</time>
      </trkpt>
      <trkpt lat="42.377656000" lon="-2.648458000">
        <ele>722.90</ele>
        <time>2016-10-29T07:03:35Z</time>
      </trkpt>
      <trkpt lat="42.377630000" lon="-2.648452000">
        <ele>723.10</ele>
        <time>2016-10-29T07:03:36Z</time>
      </trkpt>
      <trkpt lat="42.377601000" lon="-2.648448000">
        <ele>723.20</ele>
        <time>2016-10-29T07:03:37Z</time>
      </trkpt>
      <trkpt lat="42.377574000" lon="-2.648443000">
        <ele>723.30</ele>
        <time>2016-10-29T07:03:38Z</time>
      </trkpt>
      <trkpt lat="42.377546000" lon="-2.648444000">
        <ele>723.50</ele>
        <time>2016-10-29T07:03:39Z</time>
      </trkpt>
      <trkpt lat="42.377516000" lon="-2.648445000">
        <ele>723.60</ele>
        <time>2016-10-29T07:03:40Z</time>
      </trkpt>
      <trkpt lat="42.377487000" lon="-2.648452000">
        <ele>723.60</ele>
        <time>2016-10-29T07:03:41Z</time>
      </trkpt>
      <trkpt lat="42.377460000" lon="-2.648460000">
        <ele>723.70</ele>
        <time>2016-10-29T07:03:42Z</time>
      </trkpt>
      <trkpt lat="42.377433000" lon="-2.648466000">
        <ele>723.70</ele>
        <time>2016-10-29T07:03:43Z</time>
      </trkpt>
      <trkpt lat="42.377405000" lon="-2.648475000">
        <ele>723.80</ele>
        <time>2016-10-29T07:03:44Z</time>
      </trkpt>
      <trkpt lat="42.377352000" lon="-2.648504000">
        <ele>724.00</ele>
        <time>2016-10-29T07:03:46Z</time>
      </trkpt>
      <trkpt lat="42.377323000" lon="-2.648519000">
        <ele>724.10</ele>
        <time>2016-10-29T07:03:47Z</time>
      </trkpt>
      <trkpt lat="42.377294000" lon="-2.648536000">
        <ele>724.20</ele>
        <time>2016-10-29T07:03:48Z</time>
      </trkpt>
      <trkpt lat="42.377266000" lon="-2.648556000">
        <ele>724.20</ele>
        <time>2016-10-29T07:03:49Z</time>
      </trkpt>
      <trkpt lat="42.377240000" lon="-2.648579000">
        <ele>724.30</ele>
        <time>2016-10-29T07:03:50Z</time>
      </trkpt>
      <trkpt lat="42.377211000" lon="-2.648602000">
        <ele>724.30</ele>
        <time>2016-10-29T07:03:51Z</time>
      </trkpt>
      <trkpt lat="42.377182000" lon="-2.648621000">
        <ele>724.30</ele>
        <time>2016-10-29T07:03:52Z</time>
      </trkpt>
      <trkpt lat="42.377155000" lon="-2.648642000">
        <ele>724.30</ele>
        <time>2016-10-29T07:03:53Z</time>
      </trkpt>
      <trkpt lat="42.377128000" lon="-2.648661000">
        <ele>724.20</ele>
        <time>2016-10-29T07:03:54Z</time>
      </trkpt>
      <trkpt lat="42.377104000" lon="-2.648679000">
        <ele>724.10</ele>
        <time>2016-10-29T07:03:55Z</time>
      </trkpt>
      <trkpt lat="42.377080000" lon="-2.648704000">
        <ele>724.00</ele>
        <time>2016-10-29T07:03:56Z</time>
      </trkpt>
      <trkpt lat="42.377056000" lon="-2.648726000">
        <ele>724.00</ele>
        <time>2016-10-29T07:03:57Z</time>
      </trkpt>
      <trkpt lat="42.377032000" lon="-2.648748000">
        <ele>724.20</ele>
        <time>2016-10-29T07:03:58Z</time>
      </trkpt>
      <trkpt lat="42.377008000" lon="-2.648769000">
        <ele>724.40</ele>
        <time>2016-10-29T07:03:59Z</time>
      </trkpt>
      <trkpt lat="42.376989000" lon="-2.648798000">
        <ele>724.50</ele>
        <time>2016-10-29T07:04:00Z</time>
      </trkpt>
      <trkpt lat="42.376970000" lon="-2.648829000">
        <ele>724.60</ele>
        <time>2016-10-29T07:04:01Z</time>
      </trkpt>
      <trkpt lat="42.376952000" lon="-2.648855000">
        <ele>724.80</ele>
        <time>2016-10-29T07:04:02Z</time>
      </trkpt>
      <trkpt lat="42.376936000" lon="-2.648881000">
        <ele>725.00</ele>
        <time>2016-10-29T07:04:03Z</time>
      </trkpt>
      <trkpt lat="42.376920000" lon="-2.648905000">
        <ele>725.10</ele>
        <time>2016-10-29T07:04:04Z</time>
      </trkpt>
      <trkpt lat="42.376906000" lon="-2.648930000">
        <ele>725.20</ele>
        <time>2016-10-29T07:04:05Z</time>
      </trkpt>
      <trkpt lat="42.376891000" lon="-2.648960000">
        <ele>725.50</ele>
        <time>2016-10-29T07:04:06Z</time>
      </trkpt>
      <trkpt lat="42.376875000" lon="-2.648994000">
        <ele>725.70</ele>
        <time>2016-10-29T07:04:07Z</time>
      </trkpt>
      <trkpt lat="42.376864000" lon="-2.649022000">
        <ele>725.90</ele>
        <time>2016-10-29T07:04:08Z</time>
      </trkpt>
      <trkpt lat="42.376851000" lon="-2.649055000">
        <ele>726.10</ele>
        <time>2016-10-29T07:04:09Z</time>
      </trkpt>
      <trkpt lat="42.376833000" lon="-2.649083000">
        <ele>726.40</ele>
        <time>2016-10-29T07:04:10Z</time>
      </trkpt>
      <trkpt lat="42.376816000" lon="-2.649109000">
        <ele>726.60</ele>
        <time>2016-10-29T07:04:11Z</time>
      </trkpt>
      <trkpt lat="42.376801000" lon="-2.649139000">
        <ele>726.80</ele>
        <time>2016-10-29T07:04:12Z</time>
      </trkpt>
      <trkpt lat="42.376783000" lon="-2.649168000">
        <ele>727.00</ele>
        <time>2016-10-29T07:04:13Z</time>
      </trkpt>
      <trkpt lat="42.376767000" lon="-2.649196000">
        <ele>727.30</ele>
        <time>2016-10-29T07:04:14Z</time>
      </trkpt>
      <trkpt lat="42.376751000" lon="-2.649227000">
        <ele>727.50</ele>
        <time>2016-10-29T07:04:15Z</time>
      </trkpt>
      <trkpt lat="42.376734000" lon="-2.649258000">
        <ele>727.60</ele>
        <time>2016-10-29T07:04:16Z</time>
      </trkpt>
      <trkpt lat="42.376715000" lon="-2.649288000">
        <ele>727.60</ele>
        <time>2016-10-29T07:04:17Z</time>
      </trkpt>
      <trkpt lat="42.376697000" lon="-2.649316000">
        <ele>727.70</ele>
        <time>2016-10-29T07:04:18Z</time>
      </trkpt>
      <trkpt lat="42.376682000" lon="-2.649343000">
        <ele>727.70</ele>
        <time>2016-10-29T07:04:19Z</time>
      </trkpt>
      <trkpt lat="42.376668000" lon="-2.649371000">
        <ele>727.70</ele>
        <time>2016-10-29T07:04:20Z</time>
      </trkpt>
      <trkpt lat="42.376653000" lon="-2.649399000">
        <ele>727.70</ele>
        <time>2016-10-29T07:04:21Z</time>
      </trkpt>
      <trkpt lat="42.376638000" lon="-2.649424000">
        <ele>727.80</ele>
        <time>2016-10-29T07:04:22Z</time>
      </trkpt>
      <trkpt lat="42.376619000" lon="-2.649452000">
        <ele>727.90</ele>
        <time>2016-10-29T07:04:23Z</time>
      </trkpt>
      <trkpt lat="42.376603000" lon="-2.649483000">
        <ele>728.00</ele>
        <time>2016-10-29T07:04:24Z</time>
      </trkpt>
      <trkpt lat="42.376587000" lon="-2.649515000">
        <ele>728.00</ele>
        <time>2016-10-29T07:04:25Z</time>
      </trkpt>
      <trkpt lat="42.376574000" lon="-2.649548000">
        <ele>728.10</ele>
        <time>2016-10-29T07:04:26Z</time>
      </trkpt>
      <trkpt lat="42.376559000" lon="-2.649578000">
        <ele>728.10</ele>
        <time>2016-10-29T07:04:27Z</time>
      </trkpt>
      <trkpt lat="42.376542000" lon="-2.649604000">
        <ele>728.20</ele>
        <time>2016-10-29T07:04:28Z</time>
      </trkpt>
      <trkpt lat="42.376524000" lon="-2.649629000">
        <ele>728.20</ele>
        <time>2016-10-29T07:04:29Z</time>
      </trkpt>
      <trkpt lat="42.376508000" lon="-2.649657000">
        <ele>728.30</ele>
        <time>2016-10-29T07:04:30Z</time>
      </trkpt>
      <trkpt lat="42.376495000" lon="-2.649689000">
        <ele>728.30</ele>
        <time>2016-10-29T07:04:31Z</time>
      </trkpt>
      <trkpt lat="42.376476000" lon="-2.649720000">
        <ele>728.30</ele>
        <time>2016-10-29T07:04:32Z</time>
      </trkpt>
      <trkpt lat="42.376457000" lon="-2.649749000">
        <ele>728.20</ele>
        <time>2016-10-29T07:04:33Z</time>
      </trkpt>
      <trkpt lat="42.376442000" lon="-2.649786000">
        <ele>728.20</ele>
        <time>2016-10-29T07:04:34Z</time>
      </trkpt>
      <trkpt lat="42.376425000" lon="-2.649818000">
        <ele>728.20</ele>
        <time>2016-10-29T07:04:35Z</time>
      </trkpt>
      <trkpt lat="42.376406000" lon="-2.649853000">
        <ele>728.20</ele>
        <time>2016-10-29T07:04:36Z</time>
      </trkpt>
      <trkpt lat="42.376392000" lon="-2.649886000">
        <ele>728.20</ele>
        <time>2016-10-29T07:04:37Z</time>
      </trkpt>
      <trkpt lat="42.376376000" lon="-2.649919000">
        <ele>728.20</ele>
        <time>2016-10-29T07:04:38Z</time>
      </trkpt>
      <trkpt lat="42.376358000" lon="-2.649947000">
        <ele>728.20</ele>
        <time>2016-10-29T07:04:39Z</time>
      </trkpt>
      <trkpt lat="42.376339000" lon="-2.649976000">
        <ele>728.20</ele>
        <time>2016-10-29T07:04:40Z</time>
      </trkpt>
      <trkpt lat="42.376320000" lon="-2.650008000">
        <ele>728.30</ele>
        <time>2016-10-29T07:04:41Z</time>
      </trkpt>
      <trkpt lat="42.376302000" lon="-2.650044000">
        <ele>728.40</ele>
        <time>2016-10-29T07:04:42Z</time>
      </trkpt>
      <trkpt lat="42.376283000" lon="-2.650080000">
        <ele>728.50</ele>
        <time>2016-10-29T07:04:43Z</time>
      </trkpt>
      <trkpt lat="42.376264000" lon="-2.650116000">
        <ele>728.50</ele>
        <time>2016-10-29T07:04:44Z</time>
      </trkpt>
      <trkpt lat="42.376244000" lon="-2.650152000">
        <ele>728.60</ele>
        <time>2016-10-29T07:04:45Z</time>
      </trkpt>
      <trkpt lat="42.376202000" lon="-2.650225000">
        <ele>728.60</ele>
        <time>2016-10-29T07:04:47Z</time>
      </trkpt>
      <trkpt lat="42.376178000" lon="-2.650262000">
        <ele>728.60</ele>
        <time>2016-10-29T07:04:48Z</time>
      </trkpt>
      <trkpt lat="42.376157000" lon="-2.650302000">
        <ele>728.60</ele>
        <time>2016-10-29T07:04:49Z</time>
      </trkpt>
      <trkpt lat="42.376132000" lon="-2.650342000">
        <ele>728.50</ele>
        <time>2016-10-29T07:04:50Z</time>
      </trkpt>
      <trkpt lat="42.376110000" lon="-2.650382000">
        <ele>728.50</ele>
        <time>2016-10-29T07:04:51Z</time>
      </trkpt>
      <trkpt lat="42.376090000" lon="-2.650424000">
        <ele>728.50</ele>
        <time>2016-10-29T07:04:52Z</time>
      </trkpt>
      <trkpt lat="42.376067000" lon="-2.650464000">
        <ele>728.50</ele>
        <time>2016-10-29T07:04:53Z</time>
      </trkpt>
      <trkpt lat="42.376045000" lon="-2.650506000">
        <ele>728.60</ele>
        <time>2016-10-29T07:04:54Z</time>
      </trkpt>
      <trkpt lat="42.376020000" lon="-2.650550000">
        <ele>728.60</ele>
        <time>2016-10-29T07:04:55Z</time>
      </trkpt>
      <trkpt lat="42.375994000" lon="-2.650595000">
        <ele>728.70</ele>
        <time>2016-10-29T07:04:56Z</time>
      </trkpt>
      <trkpt lat="42.375971000" lon="-2.650640000">
        <ele>728.70</ele>
        <time>2016-10-29T07:04:57Z</time>
      </trkpt>
      <trkpt lat="42.375947000" lon="-2.650683000">
        <ele>728.60</ele>
        <time>2016-10-29T07:04:58Z</time>
      </trkpt>
      <trkpt lat="42.375922000" lon="-2.650728000">
        <ele>728.50</ele>
        <time>2016-10-29T07:04:59Z</time>
      </trkpt>
      <trkpt lat="42.375895000" lon="-2.650771000">
        <ele>728.50</ele>
        <time>2016-10-29T07:05:00Z</time>
      </trkpt>
      <trkpt lat="42.375864000" lon="-2.650815000">
        <ele>728.40</ele>
        <time>2016-10-29T07:05:01Z</time>
      </trkpt>
      <trkpt lat="42.375838000" lon="-2.650853000">
        <ele>728.40</ele>
        <time>2016-10-29T07:05:02Z</time>
      </trkpt>
      <trkpt lat="42.375811000" lon="-2.650895000">
        <ele>728.40</ele>
        <time>2016-10-29T07:05:03Z</time>
      </trkpt>
      <trkpt lat="42.375784000" lon="-2.650933000">
        <ele>728.40</ele>
        <time>2016-10-29T07:05:04Z</time>
      </trkpt>
      <trkpt lat="42.375755000" lon="-2.650970000">
        <ele>728.40</ele>
        <time>2016-10-29T07:05:05Z</time>
      </trkpt>
      <trkpt lat="42.375726000" lon="-2.651008000">
        <ele>728.30</ele>
        <time>2016-10-29T07:05:06Z</time>
      </trkpt>
      <trkpt lat="42.375696000" lon="-2.651046000">
        <ele>728.20</ele>
        <time>2016-10-29T07:05:07Z</time>
      </trkpt>
      <trkpt lat="42.375664000" lon="-2.651081000">
        <ele>728.10</ele>
        <time>2016-10-29T07:05:08Z</time>
      </trkpt>
      <trkpt lat="42.375632000" lon="-2.651117000">
        <ele>728.10</ele>
        <time>2016-10-29T07:05:09Z</time>
      </trkpt>
      <trkpt lat="42.375600000" lon="-2.651150000">
        <ele>728.10</ele>
        <time>2016-10-29T07:05:10Z</time>
      </trkpt>
      <trkpt lat="42.375571000" lon="-2.651185000">
        <ele>728.20</ele>
        <time>2016-10-29T07:05:11Z</time>
      </trkpt>
      <trkpt lat="42.375538000" lon="-2.651216000">
        <ele>728.30</ele>
        <time>2016-10-29T07:05:12Z</time>
      </trkpt>
      <trkpt lat="42.375504000" lon="-2.651249000">
        <ele>728.40</ele>
        <time>2016-10-29T07:05:13Z</time>
      </trkpt>
      <trkpt lat="42.375474000" lon="-2.651277000">
        <ele>728.50</ele>
        <time>2016-10-29T07:05:14Z</time>
      </trkpt>
      <trkpt lat="42.375443000" lon="-2.651304000">
        <ele>728.60</ele>
        <time>2016-10-29T07:05:15Z</time>
      </trkpt>
      <trkpt lat="42.375407000" lon="-2.651328000">
        <ele>728.70</ele>
        <time>2016-10-29T07:05:16Z</time>
      </trkpt>
      <trkpt lat="42.375373000" lon="-2.651355000">
        <ele>728.80</ele>
        <time>2016-10-29T07:05:17Z</time>
      </trkpt>
      <trkpt lat="42.375335000" lon="-2.651376000">
        <ele>729.00</ele>
        <time>2016-10-29T07:05:18Z</time>
      </trkpt>
      <trkpt lat="42.375299000" lon="-2.651400000">
        <ele>729.10</ele>
        <time>2016-10-29T07:05:19Z</time>
      </trkpt>
      <trkpt lat="42.375264000" lon="-2.651426000">
        <ele>729.20</ele>
        <time>2016-10-29T07:05:20Z</time>
      </trkpt>
      <trkpt lat="42.375230000" lon="-2.651448000">
        <ele>729.40</ele>
        <time>2016-10-29T07:05:21Z</time>
      </trkpt>
      <trkpt lat="42.375195000" lon="-2.651467000">
        <ele>729.50</ele>
        <time>2016-10-29T07:05:22Z</time>
      </trkpt>
      <trkpt lat="42.375162000" lon="-2.651488000">
        <ele>729.50</ele>
        <time>2016-10-29T07:05:23Z</time>
      </trkpt>
      <trkpt lat="42.375125000" lon="-2.651505000">
        <ele>729.60</ele>
        <time>2016-10-29T07:05:24Z</time>
      </trkpt>
      <trkpt lat="42.375089000" lon="-2.651524000">
        <ele>729.70</ele>
        <time>2016-10-29T07:05:25Z</time>
      </trkpt>
      <trkpt lat="42.375052000" lon="-2.651538000">
        <ele>729.80</ele>
        <time>2016-10-29T07:05:26Z</time>
      </trkpt>
      <trkpt lat="42.375016000" lon="-2.651551000">
        <ele>729.80</ele>
        <time>2016-10-29T07:05:27Z</time>
      </trkpt>
      <trkpt lat="42.374978000" lon="-2.651564000">
        <ele>729.90</ele>
        <time>2016-10-29T07:05:28Z</time>
      </trkpt>
      <trkpt lat="42.374940000" lon="-2.651581000">
        <ele>729.90</ele>
        <time>2016-10-29T07:05:29Z</time>
      </trkpt>
      <trkpt lat="42.374904000" lon="-2.651597000">
        <ele>730.10</ele>
        <time>2016-10-29T07:05:30Z</time>
      </trkpt>
      <trkpt lat="42.374866000" lon="-2.651613000">
        <ele>730.30</ele>
        <time>2016-10-29T07:05:31Z</time>
      </trkpt>
      <trkpt lat="42.374829000" lon="-2.651629000">
        <ele>730.60</ele>
        <time>2016-10-29T07:05:32Z</time>
      </trkpt>
      <trkpt lat="42.374792000" lon="-2.651644000">
        <ele>730.90</ele>
        <time>2016-10-29T07:05:33Z</time>
      </trkpt>
      <trkpt lat="42.374758000" lon="-2.651663000">
        <ele>731.00</ele>
        <time>2016-10-29T07:05:34Z</time>
      </trkpt>
      <trkpt lat="42.374723000" lon="-2.651685000">
        <ele>731.20</ele>
        <time>2016-10-29T07:05:35Z</time>
      </trkpt>
      <trkpt lat="42.374688000" lon="-2.651705000">
        <ele>731.30</ele>
        <time>2016-10-29T07:05:36Z</time>
      </trkpt>
      <trkpt lat="42.374654000" lon="-2.651729000">
        <ele>731.40</ele>
        <time>2016-10-29T07:05:37Z</time>
      </trkpt>
      <trkpt lat="42.374620000" lon="-2.651751000">
        <ele>731.50</ele>
        <time>2016-10-29T07:05:38Z</time>
      </trkpt>
      <trkpt lat="42.374588000" lon="-2.651771000">
        <ele>731.60</ele>
        <time>2016-10-29T07:05:39Z</time>
      </trkpt>
      <trkpt lat="42.374552000" lon="-2.651796000">
        <ele>731.70</ele>
        <time>2016-10-29T07:05:40Z</time>
      </trkpt>
      <trkpt lat="42.374520000" lon="-2.651821000">
        <ele>731.80</ele>
        <time>2016-10-29T07:05:41Z</time>
      </trkpt>
      <trkpt lat="42.374488000" lon="-2.651844000">
        <ele>732.00</ele>
        <time>2016-10-29T07:05:42Z</time>
      </trkpt>
      <trkpt lat="42.374456000" lon="-2.651867000">
        <ele>732.10</ele>
        <time>2016-10-29T07:05:43Z</time>
      </trkpt>
      <trkpt lat="42.374420000" lon="-2.651893000">
        <ele>732.40</ele>
        <time>2016-10-29T07:05:44Z</time>
      </trkpt>
      <trkpt lat="42.374389000" lon="-2.651917000">
        <ele>732.60</ele>
        <time>2016-10-29T07:05:45Z</time>
      </trkpt>
      <trkpt lat="42.374357000" lon="-2.651939000">
        <ele>732.90</ele>
        <time>2016-10-29T07:05:46Z</time>
      </trkpt>
      <trkpt lat="42.374293000" lon="-2.651985000">
        <ele>733.20</ele>
        <time>2016-10-29T07:05:48Z</time>
      </trkpt>
      <trkpt lat="42.374265000" lon="-2.652010000">
        <ele>733.40</ele>
        <time>2016-10-29T07:05:49Z</time>
      </trkpt>
      <trkpt lat="42.374233000" lon="-2.652033000">
        <ele>733.60</ele>
        <time>2016-10-29T07:05:50Z</time>
      </trkpt>
      <trkpt lat="42.374203000" lon="-2.652056000">
        <ele>733.80</ele>
        <time>2016-10-29T07:05:51Z</time>
      </trkpt>
      <trkpt lat="42.374173000" lon="-2.652083000">
        <ele>733.90</ele>
        <time>2016-10-29T07:05:52Z</time>
      </trkpt>
      <trkpt lat="42.374142000" lon="-2.652104000">
        <ele>734.00</ele>
        <time>2016-10-29T07:05:53Z</time>
      </trkpt>
      <trkpt lat="42.374111000" lon="-2.652125000">
        <ele>734.10</ele>
        <time>2016-10-29T07:05:54Z</time>
      </trkpt>
      <trkpt lat="42.374079000" lon="-2.652143000">
        <ele>734.30</ele>
        <time>2016-10-29T07:05:55Z</time>
      </trkpt>
      <trkpt lat="42.374046000" lon="-2.652165000">
        <ele>734.30</ele>
        <time>2016-10-29T07:05:56Z</time>
      </trkpt>
      <trkpt lat="42.374017000" lon="-2.652188000">
        <ele>734.40</ele>
        <time>2016-10-29T07:05:57Z</time>
      </trkpt>
      <trkpt lat="42.373986000" lon="-2.652210000">
        <ele>734.70</ele>
        <time>2016-10-29T07:05:58Z</time>
      </trkpt>
      <trkpt lat="42.373953000" lon="-2.652233000">
        <ele>734.90</ele>
        <time>2016-10-29T07:05:59Z</time>
      </trkpt>
      <trkpt lat="42.373920000" lon="-2.652258000">
        <ele>735.10</ele>
        <time>2016-10-29T07:06:00Z</time>
      </trkpt>
      <trkpt lat="42.373888000" lon="-2.652282000">
        <ele>735.20</ele>
        <time>2016-10-29T07:06:01Z</time>
      </trkpt>
      <trkpt lat="42.373858000" lon="-2.652304000">
        <ele>735.30</ele>
        <time>2016-10-29T07:06:02Z</time>
      </trkpt>
      <trkpt lat="42.373830000" lon="-2.652323000">
        <ele>735.40</ele>
        <time>2016-10-29T07:06:03Z</time>
      </trkpt>
      <trkpt lat="42.373803000" lon="-2.652347000">
        <ele>735.50</ele>
        <time>2016-10-29T07:06:04Z</time>
      </trkpt>
      <trkpt lat="42.373772000" lon="-2.652372000">
        <ele>735.50</ele>
        <time>2016-10-29T07:06:05Z</time>
      </trkpt>
      <trkpt lat="42.373744000" lon="-2.652396000">
        <ele>735.50</ele>
        <time>2016-10-29T07:06:06Z</time>
      </trkpt>
      <trkpt lat="42.373715000" lon="-2.652420000">
        <ele>735.60</ele>
        <time>2016-10-29T07:06:07Z</time>
      </trkpt>
      <trkpt lat="42.373688000" lon="-2.652446000">
        <ele>735.80</ele>
        <time>2016-10-29T07:06:08Z</time>
      </trkpt>
      <trkpt lat="42.373662000" lon="-2.652475000">
        <ele>735.90</ele>
        <time>2016-10-29T07:06:09Z</time>
      </trkpt>
      <trkpt lat="42.373635000" lon="-2.652502000">
        <ele>736.10</ele>
        <time>2016-10-29T07:06:10Z</time>
      </trkpt>
      <trkpt lat="42.373610000" lon="-2.652532000">
        <ele>736.10</ele>
        <time>2016-10-29T07:06:11Z</time>
      </trkpt>
      <trkpt lat="42.373585000" lon="-2.652562000">
        <ele>736.20</ele>
        <time>2016-10-29T07:06:12Z</time>
      </trkpt>
      <trkpt lat="42.373561000" lon="-2.652592000">
        <ele>736.30</ele>
        <time>2016-10-29T07:06:13Z</time>
      </trkpt>
      <trkpt lat="42.373536000" lon="-2.652623000">
        <ele>736.30</ele>
        <time>2016-10-29T07:06:14Z</time>
      </trkpt>
      <trkpt lat="42.373511000" lon="-2.652652000">
        <ele>736.30</ele>
        <time>2016-10-29T07:06:15Z</time>
      </trkpt>
      <trkpt lat="42.373485000" lon="-2.652684000">
        <ele>736.40</ele>
        <time>2016-10-29T07:06:16Z</time>
      </trkpt>
      <trkpt lat="42.373461000" lon="-2.652717000">
        <ele>736.40</ele>
        <time>2016-10-29T07:06:17Z</time>
      </trkpt>
      <trkpt lat="42.373437000" lon="-2.652745000">
        <ele>736.40</ele>
        <time>2016-10-29T07:06:18Z</time>
      </trkpt>
      <trkpt lat="42.373412000" lon="-2.652775000">
        <ele>736.50</ele>
        <time>2016-10-29T07:06:19Z</time>
      </trkpt>
      <trkpt lat="42.373390000" lon="-2.652803000">
        <ele>736.50</ele>
        <time>2016-10-29T07:06:20Z</time>
      </trkpt>
      <trkpt lat="42.373370000" lon="-2.652830000">
        <ele>736.60</ele>
        <time>2016-10-29T07:06:21Z</time>
      </trkpt>
      <trkpt lat="42.373348000" lon="-2.652860000">
        <ele>736.70</ele>
        <time>2016-10-29T07:06:22Z</time>
      </trkpt>
      <trkpt lat="42.373326000" lon="-2.652892000">
        <ele>736.90</ele>
        <time>2016-10-29T07:06:23Z</time>
      </trkpt>
      <trkpt lat="42.373301000" lon="-2.652918000">
        <ele>737.00</ele>
        <time>2016-10-29T07:06:24Z</time>
      </trkpt>
      <trkpt lat="42.373277000" lon="-2.652946000">
        <ele>737.10</ele>
        <time>2016-10-29T07:06:25Z</time>
      </trkpt>
      <trkpt lat="42.373256000" lon="-2.652973000">
        <ele>737.20</ele>
        <time>2016-10-29T07:06:26Z</time>
      </trkpt>
      <trkpt lat="42.373232000" lon="-2.653002000">
        <ele>737.30</ele>
        <time>2016-10-29T07:06:27Z</time>
      </trkpt>
      <trkpt lat="42.373207000" lon="-2.653029000">
        <ele>737.30</ele>
        <time>2016-10-29T07:06:28Z</time>
      </trkpt>
      <trkpt lat="42.373184000" lon="-2.653059000">
        <ele>737.40</ele>
        <time>2016-10-29T07:06:29Z</time>
      </trkpt>
      <trkpt lat="42.373161000" lon="-2.653088000">
        <ele>737.40</ele>
        <time>2016-10-29T07:06:30Z</time>
      </trkpt>
      <trkpt lat="42.373139000" lon="-2.653115000">
        <ele>737.40</ele>
        <time>2016-10-29T07:06:31Z</time>
      </trkpt>
      <trkpt lat="42.373114000" lon="-2.653145000">
        <ele>737.80</ele>
        <time>2016-10-29T07:06:32Z</time>
      </trkpt>
      <trkpt lat="42.373091000" lon="-2.653174000">
        <ele>738.00</ele>
        <time>2016-10-29T07:06:33Z</time>
      </trkpt>
      <trkpt lat="42.373069000" lon="-2.653202000">
        <ele>738.20</ele>
        <time>2016-10-29T07:06:34Z</time>
      </trkpt>
      <trkpt lat="42.373046000" lon="-2.653228000">
        <ele>738.40</ele>
        <time>2016-10-29T07:06:35Z</time>
      </trkpt>
      <trkpt lat="42.373023000" lon="-2.653258000">
        <ele>738.40</ele>
        <time>2016-10-29T07:06:36Z</time>
      </trkpt>
      <trkpt lat="42.373000000" lon="-2.653286000">
        <ele>738.40</ele>
        <time>2016-10-29T07:06:37Z</time>
      </trkpt>
      <trkpt lat="42.372975000" lon="-2.653316000">
        <ele>738.50</ele>
        <time>2016-10-29T07:06:38Z</time>
      </trkpt>
      <trkpt lat="42.372948000" lon="-2.653345000">
        <ele>738.50</ele>
        <time>2016-10-29T07:06:39Z</time>
      </trkpt>
      <trkpt lat="42.372925000" lon="-2.653378000">
        <ele>738.70</ele>
        <time>2016-10-29T07:06:40Z</time>
      </trkpt>
      <trkpt lat="42.372899000" lon="-2.653407000">
        <ele>738.80</ele>
        <time>2016-10-29T07:06:41Z</time>
      </trkpt>
      <trkpt lat="42.372872000" lon="-2.653439000">
        <ele>739.00</ele>
        <time>2016-10-29T07:06:42Z</time>
      </trkpt>
      <trkpt lat="42.372846000" lon="-2.653472000">
        <ele>739.20</ele>
        <time>2016-10-29T07:06:43Z</time>
      </trkpt>
      <trkpt lat="42.372819000" lon="-2.653502000">
        <ele>739.30</ele>
        <time>2016-10-29T07:06:44Z</time>
      </trkpt>
      <trkpt lat="42.372797000" lon="-2.653535000">
        <ele>739.30</ele>
        <time>2016-10-29T07:06:45Z</time>
      </trkpt>
      <trkpt lat="42.372773000" lon="-2.653565000">
        <ele>739.60</ele>
        <time>2016-10-29T07:06:46Z</time>
      </trkpt>
      <trkpt lat="42.372748000" lon="-2.653596000">
        <ele>739.80</ele>
        <time>2016-10-29T07:06:47Z</time>
      </trkpt>
      <trkpt lat="42.372696000" lon="-2.653650000">
        <ele>740.10</ele>
        <time>2016-10-29T07:06:49Z</time>
      </trkpt>
      <trkpt lat="42.372670000" lon="-2.653678000">
        <ele>740.40</ele>
        <time>2016-10-29T07:06:50Z</time>
      </trkpt>
      <trkpt lat="42.372642000" lon="-2.653707000">
        <ele>740.70</ele>
        <time>2016-10-29T07:06:51Z</time>
      </trkpt>
      <trkpt lat="42.372616000" lon="-2.653735000">
        <ele>740.90</ele>
        <time>2016-10-29T07:06:52Z</time>
      </trkpt>
      <trkpt lat="42.372591000" lon="-2.653763000">
        <ele>741.10</ele>
        <time>2016-10-29T07:06:53Z</time>
      </trkpt>
      <trkpt lat="42.372566000" lon="-2.653791000">
        <ele>741.30</ele>
        <time>2016-10-29T07:06:54Z</time>
      </trkpt>
      <trkpt lat="42.372540000" lon="-2.653819000">
        <ele>741.50</ele>
        <time>2016-10-29T07:06:55Z</time>
      </trkpt>
      <trkpt lat="42.372513000" lon="-2.653848000">
        <ele>741.60</ele>
        <time>2016-10-29T07:06:56Z</time>
      </trkpt>
      <trkpt lat="42.372488000" lon="-2.653873000">
        <ele>741.70</ele>
        <time>2016-10-29T07:06:57Z</time>
      </trkpt>
      <trkpt lat="42.372463000" lon="-2.653902000">
        <ele>741.90</ele>
        <time>2016-10-29T07:06:58Z</time>
      </trkpt>
      <trkpt lat="42.372435000" lon="-2.653928000">
        <ele>742.00</ele>
        <time>2016-10-29T07:06:59Z</time>
      </trkpt>
      <trkpt lat="42.372411000" lon="-2.653956000">
        <ele>742.10</ele>
        <time>2016-10-29T07:07:00Z</time>
      </trkpt>
      <trkpt lat="42.372382000" lon="-2.653984000">
        <ele>742.20</ele>
        <time>2016-10-29T07:07:01Z</time>
      </trkpt>
      <trkpt lat="42.372355000" lon="-2.654007000">
        <ele>742.30</ele>
        <time>2016-10-29T07:07:02Z</time>
      </trkpt>
      <trkpt lat="42.372323000" lon="-2.654026000">
        <ele>742.40</ele>
        <time>2016-10-29T07:07:03Z</time>
      </trkpt>
      <trkpt lat="42.372293000" lon="-2.654046000">
        <ele>742.50</ele>
        <time>2016-10-29T07:07:04Z</time>
      </trkpt>
      <trkpt lat="42.372261000" lon="-2.654072000">
        <ele>742.50</ele>
        <time>2016-10-29T07:07:05Z</time>
      </trkpt>
      <trkpt lat="42.372233000" lon="-2.654094000">
        <ele>742.60</ele>
        <time>2016-10-29T07:07:06Z</time>
      </trkpt>
      <trkpt lat="42.372204000" lon="-2.654115000">
        <ele>742.60</ele>
        <time>2016-10-29T07:07:07Z</time>
      </trkpt>
      <trkpt lat="42.372179000" lon="-2.654141000">
        <ele>742.70</ele>
        <time>2016-10-29T07:07:08Z</time>
      </trkpt>
      <trkpt lat="42.372149000" lon="-2.654163000">
        <ele>742.90</ele>
        <time>2016-10-29T07:07:09Z</time>
      </trkpt>
      <trkpt lat="42.372119000" lon="-2.654185000">
        <ele>742.90</ele>
        <time>2016-10-29T07:07:10Z</time>
      </trkpt>
      <trkpt lat="42.372091000" lon="-2.654205000">
        <ele>743.00</ele>
        <time>2016-10-29T07:07:11Z</time>
      </trkpt>
      <trkpt lat="42.372064000" lon="-2.654225000">
        <ele>743.10</ele>
        <time>2016-10-29T07:07:12Z</time>
      </trkpt>
      <trkpt lat="42.372035000" lon="-2.654251000">
        <ele>743.20</ele>
        <time>2016-10-29T07:07:13Z</time>
      </trkpt>
      <trkpt lat="42.372007000" lon="-2.654277000">
        <ele>743.30</ele>
        <time>2016-10-29T07:07:14Z</time>
      </trkpt>
      <trkpt lat="42.371980000" lon="-2.654301000">
        <ele>743.40</ele>
        <time>2016-10-29T07:07:15Z</time>
      </trkpt>
      <trkpt lat="42.371954000" lon="-2.654327000">
        <ele>743.50</ele>
        <time>2016-10-29T07:07:16Z</time>
      </trkpt>
      <trkpt lat="42.371928000" lon="-2.654350000">
        <ele>743.60</ele>
        <time>2016-10-29T07:07:17Z</time>
      </trkpt>
      <trkpt lat="42.371899000" lon="-2.654374000">
        <ele>743.70</ele>
        <time>2016-10-29T07:07:18Z</time>
      </trkpt>
      <trkpt lat="42.371875000" lon="-2.654398000">
        <ele>743.90</ele>
        <time>2016-10-29T07:07:19Z</time>
      </trkpt>
      <trkpt lat="42.371849000" lon="-2.654419000">
        <ele>744.00</ele>
        <time>2016-10-29T07:07:20Z</time>
      </trkpt>
      <trkpt lat="42.371823000" lon="-2.654443000">
        <ele>744.00</ele>
        <time>2016-10-29T07:07:21Z</time>
      </trkpt>
      <trkpt lat="42.371794000" lon="-2.654464000">
        <ele>744.10</ele>
        <time>2016-10-29T07:07:22Z</time>
      </trkpt>
      <trkpt lat="42.371766000" lon="-2.654483000">
        <ele>744.20</ele>
        <time>2016-10-29T07:07:23Z</time>
      </trkpt>
      <trkpt lat="42.371738000" lon="-2.654502000">
        <ele>744.40</ele>
        <time>2016-10-29T07:07:24Z</time>
      </trkpt>
      <trkpt lat="42.371707000" lon="-2.654521000">
        <ele>744.60</ele>
        <time>2016-10-29T07:07:25Z</time>
      </trkpt>
      <trkpt lat="42.371676000" lon="-2.654539000">
        <ele>744.70</ele>
        <time>2016-10-29T07:07:26Z</time>
      </trkpt>
      <trkpt lat="42.371643000" lon="-2.654553000">
        <ele>744.80</ele>
        <time>2016-10-29T07:07:27Z</time>
      </trkpt>
      <trkpt lat="42.371613000" lon="-2.654566000">
        <ele>744.80</ele>
        <time>2016-10-29T07:07:28Z</time>
      </trkpt>
      <trkpt lat="42.371584000" lon="-2.654580000">
        <ele>744.90</ele>
        <time>2016-10-29T07:07:29Z</time>
      </trkpt>
      <trkpt lat="42.371552000" lon="-2.654593000">
        <ele>744.90</ele>
        <time>2016-10-29T07:07:30Z</time>
      </trkpt>
      <trkpt lat="42.371518000" lon="-2.654605000">
        <ele>744.80</ele>
        <time>2016-10-29T07:07:31Z</time>
      </trkpt>
      <trkpt lat="42.371485000" lon="-2.654615000">
        <ele>744.80</ele>
        <time>2016-10-29T07:07:32Z</time>
      </trkpt>
      <trkpt lat="42.371453000" lon="-2.654628000">
        <ele>744.80</ele>
        <time>2016-10-29T07:07:33Z</time>
      </trkpt>
      <trkpt lat="42.371420000" lon="-2.654641000">
        <ele>744.80</ele>
        <time>2016-10-29T07:07:34Z</time>
      </trkpt>
      <trkpt lat="42.371387000" lon="-2.654649000">
        <ele>744.80</ele>
        <time>2016-10-29T07:07:35Z</time>
      </trkpt>
      <trkpt lat="42.371352000" lon="-2.654655000">
        <ele>744.90</ele>
        <time>2016-10-29T07:07:36Z</time>
      </trkpt>
      <trkpt lat="42.371319000" lon="-2.654660000">
        <ele>744.90</ele>
        <time>2016-10-29T07:07:37Z</time>
      </trkpt>
      <trkpt lat="42.371285000" lon="-2.654666000">
        <ele>745.10</ele>
        <time>2016-10-29T07:07:38Z</time>
      </trkpt>
      <trkpt lat="42.371251000" lon="-2.654674000">
        <ele>745.10</ele>
        <time>2016-10-29T07:07:39Z</time>
      </trkpt>
      <trkpt lat="42.371217000" lon="-2.654684000">
        <ele>745.30</ele>
        <time>2016-10-29T07:07:40Z</time>
      </trkpt>
      <trkpt lat="42.371182000" lon="-2.654695000">
        <ele>745.40</ele>
        <time>2016-10-29T07:07:41Z</time>
      </trkpt>
      <trkpt lat="42.371148000" lon="-2.654705000">
        <ele>745.60</ele>
        <time>2016-10-29T07:07:42Z</time>
      </trkpt>
      <trkpt lat="42.371116000" lon="-2.654716000">
        <ele>745.70</ele>
        <time>2016-10-29T07:07:43Z</time>
      </trkpt>
      <trkpt lat="42.371084000" lon="-2.654727000">
        <ele>745.80</ele>
        <time>2016-10-29T07:07:44Z</time>
      </trkpt>
      <trkpt lat="42.371049000" lon="-2.654739000">
        <ele>745.90</ele>
        <time>2016-10-29T07:07:45Z</time>
      </trkpt>
      <trkpt lat="42.371016000" lon="-2.654747000">
        <ele>745.90</ele>
        <time>2016-10-29T07:07:46Z</time>
      </trkpt>
      <trkpt lat="42.370983000" lon="-2.654760000">
        <ele>745.80</ele>
        <time>2016-10-29T07:07:47Z</time>
      </trkpt>
      <trkpt lat="42.370952000" lon="-2.654774000">
        <ele>745.80</ele>
        <time>2016-10-29T07:07:48Z</time>
      </trkpt>
      <trkpt lat="42.370888000" lon="-2.654792000">
        <ele>746.00</ele>
        <time>2016-10-29T07:07:50Z</time>
      </trkpt>
      <trkpt lat="42.370856000" lon="-2.654803000">
        <ele>746.10</ele>
        <time>2016-10-29T07:07:51Z</time>
      </trkpt>
      <trkpt lat="42.370825000" lon="-2.654819000">
        <ele>746.30</ele>
        <time>2016-10-29T07:07:52Z</time>
      </trkpt>
      <trkpt lat="42.370792000" lon="-2.654832000">
        <ele>746.50</ele>
        <time>2016-10-29T07:07:53Z</time>
      </trkpt>
      <trkpt lat="42.370763000" lon="-2.654847000">
        <ele>746.70</ele>
        <time>2016-10-29T07:07:54Z</time>
      </trkpt>
      <trkpt lat="42.370734000" lon="-2.654859000">
        <ele>746.80</ele>
        <time>2016-10-29T07:07:55Z</time>
      </trkpt>
      <trkpt lat="42.370705000" lon="-2.654869000">
        <ele>747.00</ele>
        <time>2016-10-29T07:07:56Z</time>
      </trkpt>
      <trkpt lat="42.370677000" lon="-2.654877000">
        <ele>747.10</ele>
        <time>2016-10-29T07:07:57Z</time>
      </trkpt>
      <trkpt lat="42.370645000" lon="-2.654887000">
        <ele>747.20</ele>
        <time>2016-10-29T07:07:58Z</time>
      </trkpt>
      <trkpt lat="42.370615000" lon="-2.654893000">
        <ele>747.30</ele>
        <time>2016-10-29T07:07:59Z</time>
      </trkpt>
      <trkpt lat="42.370585000" lon="-2.654898000">
        <ele>747.60</ele>
        <time>2016-10-29T07:08:00Z</time>
      </trkpt>
      <trkpt lat="42.370556000" lon="-2.654901000">
        <ele>747.80</ele>
        <time>2016-10-29T07:08:01Z</time>
      </trkpt>
      <trkpt lat="42.370526000" lon="-2.654901000">
        <ele>748.00</ele>
        <time>2016-10-29T07:08:02Z</time>
      </trkpt>
      <trkpt lat="42.370495000" lon="-2.654900000">
        <ele>748.20</ele>
        <time>2016-10-29T07:08:03Z</time>
      </trkpt>
      <trkpt lat="42.370467000" lon="-2.654897000">
        <ele>748.30</ele>
        <time>2016-10-29T07:08:04Z</time>
      </trkpt>
      <trkpt lat="42.370438000" lon="-2.654896000">
        <ele>748.40</ele>
        <time>2016-10-29T07:08:05Z</time>
      </trkpt>
      <trkpt lat="42.370408000" lon="-2.654890000">
        <ele>748.60</ele>
        <time>2016-10-29T07:08:06Z</time>
      </trkpt>
      <trkpt lat="42.370379000" lon="-2.654885000">
        <ele>748.80</ele>
        <time>2016-10-29T07:08:07Z</time>
      </trkpt>
      <trkpt lat="42.370352000" lon="-2.654876000">
        <ele>749.10</ele>
        <time>2016-10-29T07:08:08Z</time>
      </trkpt>
      <trkpt lat="42.370328000" lon="-2.654866000">
        <ele>749.40</ele>
        <time>2016-10-29T07:08:09Z</time>
      </trkpt>
      <trkpt lat="42.370307000" lon="-2.654859000">
        <ele>749.60</ele>
        <time>2016-10-29T07:08:10Z</time>
      </trkpt>
      <trkpt lat="42.370284000" lon="-2.654852000">
        <ele>749.70</ele>
        <time>2016-10-29T07:08:11Z</time>
      </trkpt>
      <trkpt lat="42.370262000" lon="-2.654849000">
        <ele>749.80</ele>
        <time>2016-10-29T07:08:12Z</time>
      </trkpt>
      <trkpt lat="42.370239000" lon="-2.654847000">
        <ele>749.90</ele>
        <time>2016-10-29T07:08:13Z</time>
      </trkpt>
      <trkpt lat="42.370214000" lon="-2.654846000">
        <ele>750.00</ele>
        <time>2016-10-29T07:08:14Z</time>
      </trkpt>
      <trkpt lat="42.370193000" lon="-2.654850000">
        <ele>750.00</ele>
        <time>2016-10-29T07:08:15Z</time>
      </trkpt>
      <trkpt lat="42.370174000" lon="-2.654850000">
        <ele>750.00</ele>
        <time>2016-10-29T07:08:16Z</time>
      </trkpt>
      <trkpt lat="42.370157000" lon="-2.654853000">
        <ele>750.10</ele>
        <time>2016-10-29T07:08:17Z</time>
      </trkpt>
      <trkpt lat="42.370141000" lon="-2.654856000">
        <ele>750.10</ele>
        <time>2016-10-29T07:08:18Z</time>
      </trkpt>
      <trkpt lat="42.370129000" lon="-2.654864000">
        <ele>750.20</ele>
        <time>2016-10-29T07:08:19Z</time>
      </trkpt>
      <trkpt lat="42.370117000" lon="-2.654868000">
        <ele>750.30</ele>
        <time>2016-10-29T07:08:20Z</time>
      </trkpt>
      <trkpt lat="42.370104000" lon="-2.654879000">
        <ele>750.40</ele>
        <time>2016-10-29T07:08:21Z</time>
      </trkpt>
      <trkpt lat="42.370091000" lon="-2.654888000">
        <ele>750.50</ele>
        <time>2016-10-29T07:08:22Z</time>
      </trkpt>
      <trkpt lat="42.370080000" lon="-2.654902000">
        <ele>750.60</ele>
        <time>2016-10-29T07:08:23Z</time>
      </trkpt>
      <trkpt lat="42.370073000" lon="-2.654917000">
        <ele>750.80</ele>
        <time>2016-10-29T07:08:24Z</time>
      </trkpt>
      <trkpt lat="42.370066000" lon="-2.654932000">
        <ele>750.80</ele>
        <time>2016-10-29T07:08:25Z</time>
      </trkpt>
      <trkpt lat="42.370059000" lon="-2.654944000">
        <ele>751.00</ele>
        <time>2016-10-29T07:08:26Z</time>
      </trkpt>
      <trkpt lat="42.370051000" lon="-2.654954000">
        <ele>751.10</ele>
        <time>2016-10-29T07:08:27Z</time>
      </trkpt>
      <trkpt lat="42.370044000" lon="-2.654962000">
        <ele>751.20</ele>
        <time>2016-10-29T07:08:28Z</time>
      </trkpt>
      <trkpt lat="42.370037000" lon="-2.654971000">
        <ele>751.20</ele>
        <time>2016-10-29T07:08:29Z</time>
      </trkpt>
      <trkpt lat="42.370033000" lon="-2.654982000">
        <ele>751.00</ele>
        <time>2016-10-29T07:08:30Z</time>
      </trkpt>
      <trkpt lat="42.370025000" lon="-2.654988000">
        <ele>750.90</ele>
        <time>2016-10-29T07:08:31Z</time>
      </trkpt>
      <trkpt lat="42.370021000" lon="-2.654992000">
        <ele>750.70</ele>
        <time>2016-10-29T07:08:32Z</time>
      </trkpt>
      <trkpt lat="42.370018000" lon="-2.654996000">
        <ele>750.70</ele>
        <time>2016-10-29T07:08:33Z</time>
      </trkpt>
      <trkpt lat="42.370016000" lon="-2.654997000">
        <ele>750.80</ele>
        <time>2016-10-29T07:08:34Z</time>
      </trkpt>
      <trkpt lat="42.370018000" lon="-2.655005000">
        <ele>750.90</ele>
        <time>2016-10-29T07:08:35Z</time>
      </trkpt>
      <trkpt lat="42.370024000" lon="-2.655011000">
        <ele>751.00</ele>
        <time>2016-10-29T07:08:36Z</time>
      </trkpt>
      <trkpt lat="42.370026000" lon="-2.655012000">
        <ele>751.10</ele>
        <time>2016-10-29T07:08:37Z</time>
      </trkpt>
      <trkpt lat="42.370029000" lon="-2.655010000">
        <ele>751.10</ele>
        <time>2016-10-29T07:08:38Z</time>
      </trkpt>
      <trkpt lat="42.370033000" lon="-2.655011000">
        <ele>751.10</ele>
        <time>2016-10-29T07:08:39Z</time>
      </trkpt>
      <trkpt lat="42.370033000" lon="-2.655013000">
        <ele>751.00</ele>
        <time>2016-10-29T07:08:40Z</time>
      </trkpt>
      <trkpt lat="42.370027000" lon="-2.655021000">
        <ele>750.90</ele>
        <time>2016-10-29T07:08:41Z</time>
      </trkpt>
      <trkpt lat="42.370011000" lon="-2.655030000">
        <ele>750.80</ele>
        <time>2016-10-29T07:08:42Z</time>
      </trkpt>
      <trkpt lat="42.369996000" lon="-2.655041000">
        <ele>750.70</ele>
        <time>2016-10-29T07:08:43Z</time>
      </trkpt>
      <trkpt lat="42.369982000" lon="-2.655061000">
        <ele>751.00</ele>
        <time>2016-10-29T07:08:44Z</time>
      </trkpt>
      <trkpt lat="42.369967000" lon="-2.655082000">
        <ele>751.10</ele>
        <time>2016-10-29T07:08:45Z</time>
      </trkpt>
      <trkpt lat="42.369953000" lon="-2.655104000">
        <ele>751.30</ele>
        <time>2016-10-29T07:08:46Z</time>
      </trkpt>
      <trkpt lat="42.369937000" lon="-2.655122000">
        <ele>751.40</ele>
        <time>2016-10-29T07:08:47Z</time>
      </trkpt>
      <trkpt lat="42.369922000" lon="-2.655142000">
        <ele>751.50</ele>
        <time>2016-10-29T07:08:48Z</time>
      </trkpt>
      <trkpt lat="42.369906000" lon="-2.655162000">
        <ele>751.50</ele>
        <time>2016-10-29T07:08:49Z</time>
      </trkpt>
      <trkpt lat="42.369873000" lon="-2.655214000">
        <ele>751.70</ele>
        <time>2016-10-29T07:08:51Z</time>
      </trkpt>
      <trkpt lat="42.369857000" lon="-2.655244000">
        <ele>751.90</ele>
        <time>2016-10-29T07:08:52Z</time>
      </trkpt>
      <trkpt lat="42.369835000" lon="-2.655272000">
        <ele>752.00</ele>
        <time>2016-10-29T07:08:53Z</time>
      </trkpt>
      <trkpt lat="42.369816000" lon="-2.655305000">
        <ele>752.10</ele>
        <time>2016-10-29T07:08:54Z</time>
      </trkpt>
      <trkpt lat="42.369793000" lon="-2.655336000">
        <ele>752.20</ele>
        <time>2016-10-29T07:08:55Z</time>
      </trkpt>
      <trkpt lat="42.369772000" lon="-2.655367000">
        <ele>752.30</ele>
        <time>2016-10-29T07:08:56Z</time>
      </trkpt>
      <trkpt lat="42.369744000" lon="-2.655400000">
        <ele>752.30</ele>
        <time>2016-10-29T07:08:57Z</time>
      </trkpt>
      <trkpt lat="42.369721000" lon="-2.655425000">
        <ele>752.50</ele>
        <time>2016-10-29T07:08:58Z</time>
      </trkpt>
      <trkpt lat="42.369699000" lon="-2.655458000">
        <ele>752.50</ele>
        <time>2016-10-29T07:08:59Z</time>
      </trkpt>
      <trkpt lat="42.369680000" lon="-2.655487000">
        <ele>752.70</ele>
        <time>2016-10-29T07:09:00Z</time>
      </trkpt>
      <trkpt lat="42.369660000" lon="-2.655516000">
        <ele>752.80</ele>
        <time>2016-10-29T07:09:01Z</time>
      </trkpt>
      <trkpt lat="42.369638000" lon="-2.655545000">
        <ele>752.80</ele>
        <time>2016-10-29T07:09:02Z</time>
      </trkpt>
      <trkpt lat="42.369617000" lon="-2.655577000">
        <ele>752.90</ele>
        <time>2016-10-29T07:09:03Z</time>
      </trkpt>
      <trkpt lat="42.369597000" lon="-2.655604000">
        <ele>753.00</ele>
        <time>2016-10-29T07:09:04Z</time>
      </trkpt>
      <trkpt lat="42.369579000" lon="-2.655638000">
        <ele>753.10</ele>
        <time>2016-10-29T07:09:05Z</time>
      </trkpt>
      <trkpt lat="42.369559000" lon="-2.655674000">
        <ele>753.20</ele>
        <time>2016-10-29T07:09:06Z</time>
      </trkpt>
      <trkpt lat="42.369537000" lon="-2.655711000">
        <ele>753.30</ele>
        <time>2016-10-29T07:09:07Z</time>
      </trkpt>
      <trkpt lat="42.369512000" lon="-2.655742000">
        <ele>753.50</ele>
        <time>2016-10-29T07:09:08Z</time>
      </trkpt>
      <trkpt lat="42.369487000" lon="-2.655776000">
        <ele>753.60</ele>
        <time>2016-10-29T07:09:09Z</time>
      </trkpt>
      <trkpt lat="42.369463000" lon="-2.655809000">
        <ele>753.60</ele>
        <time>2016-10-29T07:09:10Z</time>
      </trkpt>
      <trkpt lat="42.369439000" lon="-2.655841000">
        <ele>753.60</ele>
        <time>2016-10-29T07:09:11Z</time>
      </trkpt>
      <trkpt lat="42.369415000" lon="-2.655871000">
        <ele>753.60</ele>
        <time>2016-10-29T07:09:12Z</time>
      </trkpt>
      <trkpt lat="42.369390000" lon="-2.655902000">
        <ele>753.60</ele>
        <time>2016-10-29T07:09:13Z</time>
      </trkpt>
      <trkpt lat="42.369365000" lon="-2.655933000">
        <ele>753.60</ele>
        <time>2016-10-29T07:09:14Z</time>
      </trkpt>
      <trkpt lat="42.369340000" lon="-2.655969000">
        <ele>753.60</ele>
        <time>2016-10-29T07:09:15Z</time>
      </trkpt>
      <trkpt lat="42.369314000" lon="-2.656002000">
        <ele>753.90</ele>
        <time>2016-10-29T07:09:16Z</time>
      </trkpt>
      <trkpt lat="42.369287000" lon="-2.656036000">
        <ele>754.10</ele>
        <time>2016-10-29T07:09:17Z</time>
      </trkpt>
      <trkpt lat="42.369263000" lon="-2.656066000">
        <ele>754.30</ele>
        <time>2016-10-29T07:09:18Z</time>
      </trkpt>
      <trkpt lat="42.369236000" lon="-2.656093000">
        <ele>754.40</ele>
        <time>2016-10-29T07:09:19Z</time>
      </trkpt>
      <trkpt lat="42.369211000" lon="-2.656119000">
        <ele>754.50</ele>
        <time>2016-10-29T07:09:20Z</time>
      </trkpt>
      <trkpt lat="42.369182000" lon="-2.656140000">
        <ele>754.50</ele>
        <time>2016-10-29T07:09:21Z</time>
      </trkpt>
      <trkpt lat="42.369152000" lon="-2.656159000">
        <ele>754.70</ele>
        <time>2016-10-29T07:09:22Z</time>
      </trkpt>
      <trkpt lat="42.369119000" lon="-2.656179000">
        <ele>754.90</ele>
        <time>2016-10-29T07:09:23Z</time>
      </trkpt>
      <trkpt lat="42.369088000" lon="-2.656193000">
        <ele>755.10</ele>
        <time>2016-10-29T07:09:24Z</time>
      </trkpt>
      <trkpt lat="42.369057000" lon="-2.656211000">
        <ele>755.30</ele>
        <time>2016-10-29T07:09:25Z</time>
      </trkpt>
      <trkpt lat="42.369027000" lon="-2.656234000">
        <ele>755.40</ele>
        <time>2016-10-29T07:09:26Z</time>
      </trkpt>
      <trkpt lat="42.368995000" lon="-2.656255000">
        <ele>755.50</ele>
        <time>2016-10-29T07:09:27Z</time>
      </trkpt>
      <trkpt lat="42.368961000" lon="-2.656274000">
        <ele>755.60</ele>
        <time>2016-10-29T07:09:28Z</time>
      </trkpt>
      <trkpt lat="42.368929000" lon="-2.656293000">
        <ele>755.70</ele>
        <time>2016-10-29T07:09:29Z</time>
      </trkpt>
      <trkpt lat="42.368895000" lon="-2.656309000">
        <ele>755.70</ele>
        <time>2016-10-29T07:09:30Z</time>
      </trkpt>
      <trkpt lat="42.368861000" lon="-2.656325000">
        <ele>755.80</ele>
        <time>2016-10-29T07:09:31Z</time>
      </trkpt>
      <trkpt lat="42.368826000" lon="-2.656336000">
        <ele>755.90</ele>
        <time>2016-10-29T07:09:32Z</time>
      </trkpt>
      <trkpt lat="42.368795000" lon="-2.656349000">
        <ele>756.00</ele>
        <time>2016-10-29T07:09:33Z</time>
      </trkpt>
      <trkpt lat="42.368765000" lon="-2.656363000">
        <ele>756.30</ele>
        <time>2016-10-29T07:09:34Z</time>
      </trkpt>
      <trkpt lat="42.368734000" lon="-2.656376000">
        <ele>756.50</ele>
        <time>2016-10-29T07:09:35Z</time>
      </trkpt>
      <trkpt lat="42.368701000" lon="-2.656393000">
        <ele>756.70</ele>
        <time>2016-10-29T07:09:36Z</time>
      </trkpt>
      <trkpt lat="42.368667000" lon="-2.656400000">
        <ele>756.80</ele>
        <time>2016-10-29T07:09:37Z</time>
      </trkpt>
      <trkpt lat="42.368632000" lon="-2.656414000">
        <ele>756.90</ele>
        <time>2016-10-29T07:09:38Z</time>
      </trkpt>
      <trkpt lat="42.368595000" lon="-2.656425000">
        <ele>756.90</ele>
        <time>2016-10-29T07:09:39Z</time>
      </trkpt>
      <trkpt lat="42.368559000" lon="-2.656438000">
        <ele>756.90</ele>
        <time>2016-10-29T07:09:40Z</time>
      </trkpt>
      <trkpt lat="42.368522000" lon="-2.656445000">
        <ele>756.90</ele>
        <time>2016-10-29T07:09:41Z</time>
      </trkpt>
      <trkpt lat="42.368489000" lon="-2.656454000">
        <ele>757.10</ele>
        <time>2016-10-29T07:09:42Z</time>
      </trkpt>
      <trkpt lat="42.368457000" lon="-2.656465000">
        <ele>757.30</ele>
        <time>2016-10-29T07:09:43Z</time>
      </trkpt>
      <trkpt lat="42.368425000" lon="-2.656477000">
        <ele>757.40</ele>
        <time>2016-10-29T07:09:44Z</time>
      </trkpt>
      <trkpt lat="42.368390000" lon="-2.656488000">
        <ele>757.50</ele>
        <time>2016-10-29T07:09:45Z</time>
      </trkpt>
      <trkpt lat="42.368360000" lon="-2.656495000">
        <ele>757.70</ele>
        <time>2016-10-29T07:09:46Z</time>
      </trkpt>
      <trkpt lat="42.368329000" lon="-2.656502000">
        <ele>757.90</ele>
        <time>2016-10-29T07:09:47Z</time>
      </trkpt>
      <trkpt lat="42.368300000" lon="-2.656503000">
        <ele>758.00</ele>
        <time>2016-10-29T07:09:48Z</time>
      </trkpt>
      <trkpt lat="42.368271000" lon="-2.656494000">
        <ele>758.10</ele>
        <time>2016-10-29T07:09:49Z</time>
      </trkpt>
      <trkpt lat="42.368243000" lon="-2.656490000">
        <ele>758.20</ele>
        <time>2016-10-29T07:09:50Z</time>
      </trkpt>
      <trkpt lat="42.368189000" lon="-2.656472000">
        <ele>758.40</ele>
        <time>2016-10-29T07:09:52Z</time>
      </trkpt>
      <trkpt lat="42.368162000" lon="-2.656460000">
        <ele>758.50</ele>
        <time>2016-10-29T07:09:53Z</time>
      </trkpt>
      <trkpt lat="42.368137000" lon="-2.656446000">
        <ele>758.50</ele>
        <time>2016-10-29T07:09:54Z</time>
      </trkpt>
      <trkpt lat="42.368112000" lon="-2.656430000">
        <ele>758.60</ele>
        <time>2016-10-29T07:09:55Z</time>
      </trkpt>
      <trkpt lat="42.368086000" lon="-2.656418000">
        <ele>758.60</ele>
        <time>2016-10-29T07:09:56Z</time>
      </trkpt>
      <trkpt lat="42.368064000" lon="-2.656399000">
        <ele>758.60</ele>
        <time>2016-10-29T07:09:57Z</time>
      </trkpt>
      <trkpt lat="42.368042000" lon="-2.656379000">
        <ele>758.80</ele>
        <time>2016-10-29T07:09:58Z</time>
      </trkpt>
      <trkpt lat="42.368013000" lon="-2.656362000">
        <ele>758.90</ele>
        <time>2016-10-29T07:09:59Z</time>
      </trkpt>
      <trkpt lat="42.367984000" lon="-2.656347000">
        <ele>759.00</ele>
        <time>2016-10-29T07:10:00Z</time>
      </trkpt>
      <trkpt lat="42.367954000" lon="-2.656334000">
        <ele>759.00</ele>
        <time>2016-10-29T07:10:01Z</time>
      </trkpt>
      <trkpt lat="42.367924000" lon="-2.656321000">
        <ele>759.40</ele>
        <time>2016-10-29T07:10:02Z</time>
      </trkpt>
      <trkpt lat="42.367893000" lon="-2.656296000">
        <ele>759.70</ele>
        <time>2016-10-29T07:10:03Z</time>
      </trkpt>
      <trkpt lat="42.367863000" lon="-2.656279000">
        <ele>759.90</ele>
        <time>2016-10-29T07:10:04Z</time>
      </trkpt>
      <trkpt lat="42.367835000" lon="-2.656264000">
        <ele>760.10</ele>
        <time>2016-10-29T07:10:05Z</time>
      </trkpt>
      <trkpt lat="42.367808000" lon="-2.656254000">
        <ele>760.30</ele>
        <time>2016-10-29T07:10:06Z</time>
      </trkpt>
      <trkpt lat="42.367779000" lon="-2.656241000">
        <ele>760.40</ele>
        <time>2016-10-29T07:10:07Z</time>
      </trkpt>
      <trkpt lat="42.367753000" lon="-2.656233000">
        <ele>760.50</ele>
        <time>2016-10-29T07:10:08Z</time>
      </trkpt>
      <trkpt lat="42.367724000" lon="-2.656223000">
        <ele>760.50</ele>
        <time>2016-10-29T07:10:09Z</time>
      </trkpt>
      <trkpt lat="42.367696000" lon="-2.656216000">
        <ele>760.60</ele>
        <time>2016-10-29T07:10:10Z</time>
      </trkpt>
      <trkpt lat="42.367666000" lon="-2.656203000">
        <ele>760.70</ele>
        <time>2016-10-29T07:10:11Z</time>
      </trkpt>
      <trkpt lat="42.367631000" lon="-2.656188000">
        <ele>760.90</ele>
        <time>2016-10-29T07:10:12Z</time>
      </trkpt>
      <trkpt lat="42.367593000" lon="-2.656177000">
        <ele>761.00</ele>
        <time>2016-10-29T07:10:13Z</time>
      </trkpt>
      <trkpt lat="42.367555000" lon="-2.656172000">
        <ele>761.00</ele>
        <time>2016-10-29T07:10:14Z</time>
      </trkpt>
      <trkpt lat="42.367531000" lon="-2.656172000">
        <ele>761.10</ele>
        <time>2016-10-29T07:10:15Z</time>
      </trkpt>
      <trkpt lat="42.367504000" lon="-2.656200000">
        <ele>761.20</ele>
        <time>2016-10-29T07:10:16Z</time>
      </trkpt>
      <trkpt lat="42.367473000" lon="-2.656219000">
        <ele>761.30</ele>
        <time>2016-10-29T07:10:17Z</time>
      </trkpt>
      <trkpt lat="42.367440000" lon="-2.656230000">
        <ele>761.50</ele>
        <time>2016-10-29T07:10:18Z</time>
      </trkpt>
      <trkpt lat="42.367406000" lon="-2.656226000">
        <ele>761.60</ele>
        <time>2016-10-29T07:10:19Z</time>
      </trkpt>
      <trkpt lat="42.367370000" lon="-2.656214000">
        <ele>761.80</ele>
        <time>2016-10-29T07:10:20Z</time>
      </trkpt>
      <trkpt lat="42.367338000" lon="-2.656201000">
        <ele>761.90</ele>
        <time>2016-10-29T07:10:21Z</time>
      </trkpt>
      <trkpt lat="42.367307000" lon="-2.656189000">
        <ele>762.00</ele>
        <time>2016-10-29T07:10:22Z</time>
      </trkpt>
      <trkpt lat="42.367278000" lon="-2.656171000">
        <ele>762.10</ele>
        <time>2016-10-29T07:10:23Z</time>
      </trkpt>
      <trkpt lat="42.367249000" lon="-2.656154000">
        <ele>762.10</ele>
        <time>2016-10-29T07:10:24Z</time>
      </trkpt>
      <trkpt lat="42.367217000" lon="-2.656148000">
        <ele>762.10</ele>
        <time>2016-10-29T07:10:25Z</time>
      </trkpt>
      <trkpt lat="42.367192000" lon="-2.656127000">
        <ele>762.20</ele>
        <time>2016-10-29T07:10:26Z</time>
      </trkpt>
      <trkpt lat="42.367168000" lon="-2.656104000">
        <ele>762.20</ele>
        <time>2016-10-29T07:10:27Z</time>
      </trkpt>
      <trkpt lat="42.367139000" lon="-2.656072000">
        <ele>762.20</ele>
        <time>2016-10-29T07:10:28Z</time>
      </trkpt>
      <trkpt lat="42.367111000" lon="-2.656061000">
        <ele>762.20</ele>
        <time>2016-10-29T07:10:29Z</time>
      </trkpt>
      <trkpt lat="42.367085000" lon="-2.656054000">
        <ele>762.40</ele>
        <time>2016-10-29T07:10:30Z</time>
      </trkpt>
      <trkpt lat="42.367058000" lon="-2.656048000">
        <ele>762.60</ele>
        <time>2016-10-29T07:10:31Z</time>
      </trkpt>
      <trkpt lat="42.367038000" lon="-2.656045000">
        <ele>762.70</ele>
        <time>2016-10-29T07:10:32Z</time>
      </trkpt>
      <trkpt lat="42.367024000" lon="-2.656036000">
        <ele>762.80</ele>
        <time>2016-10-29T07:10:33Z</time>
      </trkpt>
      <trkpt lat="42.367014000" lon="-2.656022000">
        <ele>763.00</ele>
        <time>2016-10-29T07:10:34Z</time>
      </trkpt>
      <trkpt lat="42.367011000" lon="-2.656008000">
        <ele>763.10</ele>
        <time>2016-10-29T07:10:35Z</time>
      </trkpt>
      <trkpt lat="42.367010000" lon="-2.656004000">
        <ele>763.30</ele>
        <time>2016-10-29T07:10:36Z</time>
      </trkpt>
      <trkpt lat="42.367009000" lon="-2.656000000">
        <ele>763.40</ele>
        <time>2016-10-29T07:10:37Z</time>
      </trkpt>
      <trkpt lat="42.367005000" lon="-2.655998000">
        <ele>763.60</ele>
        <time>2016-10-29T07:10:38Z</time>
      </trkpt>
      <trkpt lat="42.367003000" lon="-2.655991000">
        <ele>763.80</ele>
        <time>2016-10-29T07:10:39Z</time>
      </trkpt>
      <trkpt lat="42.367000000" lon="-2.655983000">
        <ele>763.70</ele>
        <time>2016-10-29T07:10:40Z</time>
      </trkpt>
      <trkpt lat="42.367001000" lon="-2.655975000">
        <ele>763.70</ele>
        <time>2016-10-29T07:10:41Z</time>
      </trkpt>
      <trkpt lat="42.367003000" lon="-2.655969000">
        <ele>763.80</ele>
        <time>2016-10-29T07:10:42Z</time>
      </trkpt>
      <trkpt lat="42.367001000" lon="-2.655968000">
        <ele>763.80</ele>
        <time>2016-10-29T07:10:43Z</time>
      </trkpt>
      <trkpt lat="42.367001000" lon="-2.655966000">
        <ele>763.80</ele>
        <time>2016-10-29T07:10:44Z</time>
      </trkpt>
      <trkpt lat="42.366998000" lon="-2.655963000">
        <ele>763.80</ele>
        <time>2016-10-29T07:10:45Z</time>
      </trkpt>
      <trkpt lat="42.366996000" lon="-2.655966000">
        <ele>763.90</ele>
        <time>2016-10-29T07:10:46Z</time>
      </trkpt>
      <trkpt lat="42.366993000" lon="-2.655967000">
        <ele>763.90</ele>
        <time>2016-10-29T07:10:47Z</time>
      </trkpt>
      <trkpt lat="42.366992000" lon="-2.655968000">
        <ele>763.90</ele>
        <time>2016-10-29T07:10:48Z</time>
      </trkpt>
      <trkpt lat="42.366995000" lon="-2.655972000">
        <ele>763.90</ele>
        <time>2016-10-29T07:10:49Z</time>
      </trkpt>
      <trkpt lat="42.366994000" lon="-2.655973000">
        <ele>763.80</ele>
        <time>2016-10-29T07:10:50Z</time>
      </trkpt>
      <trkpt lat="42.366993000" lon="-2.655975000">
        <ele>763.70</ele>
        <time>2016-10-29T07:10:51Z</time>
      </trkpt>
      <trkpt lat="42.366995000" lon="-2.655973000">
        <ele>763.50</ele>
        <time>2016-10-29T07:10:53Z</time>
      </trkpt>
      <trkpt lat="42.366996000" lon="-2.655975000">
        <ele>763.50</ele>
        <time>2016-10-29T07:10:54Z</time>
      </trkpt>
      <trkpt lat="42.366995000" lon="-2.655975000">
        <ele>763.40</ele>
        <time>2016-10-29T07:10:55Z</time>
      </trkpt>
      <trkpt lat="42.366997000" lon="-2.655975000">
        <ele>763.50</ele>
        <time>2016-10-29T07:10:56Z</time>
      </trkpt>
      <trkpt lat="42.366998000" lon="-2.655974000">
        <ele>763.60</ele>
        <time>2016-10-29T07:10:57Z</time>
      </trkpt>
      <trkpt lat="42.366997000" lon="-2.655971000">
        <ele>763.60</ele>
        <time>2016-10-29T07:10:58Z</time>
      </trkpt>
      <trkpt lat="42.366997000" lon="-2.655972000">
        <ele>763.70</ele>
        <time>2016-10-29T07:10:59Z</time>
      </trkpt>
      <trkpt lat="42.366996000" lon="-2.655972000">
        <ele>763.70</ele>
        <time>2016-10-29T07:11:00Z</time>
      </trkpt>
      <trkpt lat="42.366995000" lon="-2.655974000">
        <ele>763.70</ele>
        <time>2016-10-29T07:11:01Z</time>
      </trkpt>
      <trkpt lat="42.366997000" lon="-2.655972000">
        <ele>763.70</ele>
        <time>2016-10-29T07:11:02Z</time>
      </trkpt>
      <trkpt lat="42.366997000" lon="-2.655973000">
        <ele>763.70</ele>
        <time>2016-10-29T07:11:03Z</time>
      </trkpt>
      <trkpt lat="42.366998000" lon="-2.655975000">
        <ele>763.60</ele>
        <time>2016-10-29T07:11:04Z</time>
      </trkpt>
      <trkpt lat="42.366998000" lon="-2.655973000">
        <ele>763.60</ele>
        <time>2016-10-29T07:11:05Z</time>
      </trkpt>
      <trkpt lat="42.366999000" lon="-2.655972000">
        <ele>763.60</ele>
        <time>2016-10-29T07:11:06Z</time>
      </trkpt>
      <trkpt lat="42.366999000" lon="-2.655973000">
        <ele>763.50</ele>
        <time>2016-10-29T07:11:07Z</time>
      </trkpt>
      <trkpt lat="42.366998000" lon="-2.655974000">
        <ele>763.50</ele>
        <time>2016-10-29T07:11:08Z</time>
      </trkpt>
      <trkpt lat="42.366997000" lon="-2.655971000">
        <ele>763.60</ele>
        <time>2016-10-29T07:11:09Z</time>
      </trkpt>
      <trkpt lat="42.366996000" lon="-2.655969000">
        <ele>763.60</ele>
        <time>2016-10-29T07:11:10Z</time>
      </trkpt>
      <trkpt lat="42.366994000" lon="-2.655969000">
        <ele>763.60</ele>
        <time>2016-10-29T07:11:11Z</time>
      </trkpt>
      <trkpt lat="42.366997000" lon="-2.655967000">
        <ele>763.70</ele>
        <time>2016-10-29T07:11:12Z</time>
      </trkpt>
      <trkpt lat="42.366999000" lon="-2.655971000">
        <ele>763.70</ele>
        <time>2016-10-29T07:11:13Z</time>
      </trkpt>
      <trkpt lat="42.367002000" lon="-2.655976000">
        <ele>763.70</ele>
        <time>2016-10-29T07:11:14Z</time>
      </trkpt>
      <trkpt lat="42.367005000" lon="-2.655977000">
        <ele>763.70</ele>
        <time>2016-10-29T07:11:15Z</time>
      </trkpt>
      <trkpt lat="42.367008000" lon="-2.655977000">
        <ele>763.70</ele>
        <time>2016-10-29T07:11:16Z</time>
      </trkpt>
      <trkpt lat="42.367009000" lon="-2.655976000">
        <ele>763.70</ele>
        <time>2016-10-29T07:11:17Z</time>
      </trkpt>
      <trkpt lat="42.367010000" lon="-2.655978000">
        <ele>763.70</ele>
        <time>2016-10-29T07:11:18Z</time>
      </trkpt>
      <trkpt lat="42.367011000" lon="-2.655977000">
        <ele>763.70</ele>
        <time>2016-10-29T07:11:19Z</time>
      </trkpt>
      <trkpt lat="42.367011000" lon="-2.655982000">
        <ele>763.70</ele>
        <time>2016-10-29T07:11:20Z</time>
      </trkpt>
      <trkpt lat="42.367011000" lon="-2.655985000">
        <ele>763.90</ele>
        <time>2016-10-29T07:11:21Z</time>
      </trkpt>
      <trkpt lat="42.367011000" lon="-2.655985000">
        <ele>764.00</ele>
        <time>2016-10-29T07:11:22Z</time>
      </trkpt>
      <trkpt lat="42.367010000" lon="-2.655979000">
        <ele>764.00</ele>
        <time>2016-10-29T07:11:23Z</time>
      </trkpt>
      <trkpt lat="42.367009000" lon="-2.655978000">
        <ele>764.00</ele>
        <time>2016-10-29T07:11:24Z</time>
      </trkpt>
      <trkpt lat="42.367009000" lon="-2.655978000">
        <ele>763.90</ele>
        <time>2016-10-29T07:11:25Z</time>
      </trkpt>
      <trkpt lat="42.367006000" lon="-2.655978000">
        <ele>763.90</ele>
        <time>2016-10-29T07:11:26Z</time>
      </trkpt>
      <trkpt lat="42.367003000" lon="-2.655976000">
        <ele>763.90</ele>
        <time>2016-10-29T07:11:27Z</time>
      </trkpt>
      <trkpt lat="42.367000000" lon="-2.655975000">
        <ele>763.90</ele>
        <time>2016-10-29T07:11:28Z</time>
      </trkpt>
      <trkpt lat="42.367000000" lon="-2.655977000">
        <ele>764.00</ele>
        <time>2016-10-29T07:11:29Z</time>
      </trkpt>
      <trkpt lat="42.367000000" lon="-2.655976000">
        <ele>764.00</ele>
        <time>2016-10-29T07:11:30Z</time>
      </trkpt>
      <trkpt lat="42.366999000" lon="-2.655977000">
        <ele>764.10</ele>
        <time>2016-10-29T07:11:31Z</time>
      </trkpt>
      <trkpt lat="42.366997000" lon="-2.655980000">
        <ele>764.10</ele>
        <time>2016-10-29T07:11:32Z</time>
      </trkpt>
      <trkpt lat="42.366999000" lon="-2.655981000">
        <ele>764.20</ele>
        <time>2016-10-29T07:11:33Z</time>
      </trkpt>
      <trkpt lat="42.366999000" lon="-2.655984000">
        <ele>764.20</ele>
        <time>2016-10-29T07:11:34Z</time>
      </trkpt>
      <trkpt lat="42.366998000" lon="-2.655984000">
        <ele>764.30</ele>
        <time>2016-10-29T07:11:35Z</time>
      </trkpt>
      <trkpt lat="42.366999000" lon="-2.655983000">
        <ele>764.30</ele>
        <time>2016-10-29T07:11:36Z</time>
      </trkpt>
      <trkpt lat="42.367000000" lon="-2.655983000">
        <ele>764.30</ele>
        <time>2016-10-29T07:11:37Z</time>
      </trkpt>
      <trkpt lat="42.367000000" lon="-2.655985000">
        <ele>764.30</ele>
        <time>2016-10-29T07:11:38Z</time>
      </trkpt>
      <trkpt lat="42.367001000" lon="-2.655990000">
        <ele>764.30</ele>
        <time>2016-10-29T07:11:39Z</time>
      </trkpt>
      <trkpt lat="42.367002000" lon="-2.655987000">
        <ele>764.30</ele>
        <time>2016-10-29T07:11:40Z</time>
      </trkpt>
      <trkpt lat="42.367002000" lon="-2.655986000">
        <ele>764.20</ele>
        <time>2016-10-29T07:11:41Z</time>
      </trkpt>
      <trkpt lat="42.367005000" lon="-2.655985000">
        <ele>764.20</ele>
        <time>2016-10-29T07:11:42Z</time>
      </trkpt>
      <trkpt lat="42.367006000" lon="-2.655983000">
        <ele>764.20</ele>
        <time>2016-10-29T07:11:43Z</time>
      </trkpt>
      <trkpt lat="42.367005000" lon="-2.655983000">
        <ele>764.20</ele>
        <time>2016-10-29T07:11:44Z</time>
      </trkpt>
      <trkpt lat="42.367004000" lon="-2.655981000">
        <ele>764.20</ele>
        <time>2016-10-29T07:11:45Z</time>
      </trkpt>
      <trkpt lat="42.367004000" lon="-2.655979000">
        <ele>764.20</ele>
        <time>2016-10-29T07:11:46Z</time>
      </trkpt>
      <trkpt lat="42.367004000" lon="-2.655973000">
        <ele>764.20</ele>
        <time>2016-10-29T07:11:47Z</time>
      </trkpt>
      <trkpt lat="42.367005000" lon="-2.655969000">
        <ele>764.20</ele>
        <time>2016-10-29T07:11:48Z</time>
      </trkpt>
      <trkpt lat="42.367006000" lon="-2.655964000">
        <ele>764.20</ele>
        <time>2016-10-29T07:11:49Z</time>
      </trkpt>
      <trkpt lat="42.367006000" lon="-2.655962000">
        <ele>764.20</ele>
        <time>2016-10-29T07:11:50Z</time>
      </trkpt>
      <trkpt lat="42.367009000" lon="-2.655961000">
        <ele>764.20</ele>
        <time>2016-10-29T07:11:51Z</time>
      </trkpt>
      <trkpt lat="42.367009000" lon="-2.655959000">
        <ele>764.10</ele>
        <time>2016-10-29T07:11:52Z</time>
      </trkpt>
      <trkpt lat="42.367011000" lon="-2.655958000">
        <ele>763.90</ele>
        <time>2016-10-29T07:11:54Z</time>
      </trkpt>
      <trkpt lat="42.367012000" lon="-2.655960000">
        <ele>763.80</ele>
        <time>2016-10-29T07:11:55Z</time>
      </trkpt>
      <trkpt lat="42.367013000" lon="-2.655961000">
        <ele>763.80</ele>
        <time>2016-10-29T07:11:56Z</time>
      </trkpt>
      <trkpt lat="42.367015000" lon="-2.655966000">
        <ele>763.80</ele>
        <time>2016-10-29T07:11:57Z</time>
      </trkpt>
      <trkpt lat="42.367018000" lon="-2.655969000">
        <ele>763.80</ele>
        <time>2016-10-29T07:11:58Z</time>
      </trkpt>
      <trkpt lat="42.367020000" lon="-2.655971000">
        <ele>763.80</ele>
        <time>2016-10-29T07:11:59Z</time>
      </trkpt>
      <trkpt lat="42.367021000" lon="-2.655969000">
        <ele>763.90</ele>
        <time>2016-10-29T07:12:00Z</time>
      </trkpt>
      <trkpt lat="42.367023000" lon="-2.655972000">
        <ele>763.90</ele>
        <time>2016-10-29T07:12:01Z</time>
      </trkpt>
      <trkpt lat="42.367022000" lon="-2.655975000">
        <ele>763.90</ele>
        <time>2016-10-29T07:12:02Z</time>
      </trkpt>
      <trkpt lat="42.367023000" lon="-2.655975000">
        <ele>763.80</ele>
        <time>2016-10-29T07:12:03Z</time>
      </trkpt>
      <trkpt lat="42.367022000" lon="-2.655973000">
        <ele>763.80</ele>
        <time>2016-10-29T07:12:04Z</time>
      </trkpt>
      <trkpt lat="42.367021000" lon="-2.655974000">
        <ele>763.90</ele>
        <time>2016-10-29T07:12:05Z</time>
      </trkpt>
      <trkpt lat="42.367020000" lon="-2.655977000">
        <ele>764.00</ele>
        <time>2016-10-29T07:12:06Z</time>
      </trkpt>
      <trkpt lat="42.367016000" lon="-2.655978000">
        <ele>764.00</ele>
        <time>2016-10-29T07:12:07Z</time>
      </trkpt>
      <trkpt lat="42.367013000" lon="-2.655978000">
        <ele>764.00</ele>
        <time>2016-10-29T07:12:08Z</time>
      </trkpt>
      <trkpt lat="42.367011000" lon="-2.655977000">
        <ele>764.00</ele>
        <time>2016-10-29T07:12:09Z</time>
      </trkpt>
      <trkpt lat="42.367011000" lon="-2.655978000">
        <ele>764.10</ele>
        <time>2016-10-29T07:12:10Z</time>
      </trkpt>
      <trkpt lat="42.367008000" lon="-2.655977000">
        <ele>764.00</ele>
        <time>2016-10-29T07:12:11Z</time>
      </trkpt>
      <trkpt lat="42.367007000" lon="-2.655974000">
        <ele>763.90</ele>
        <time>2016-10-29T07:12:12Z</time>
      </trkpt>
      <trkpt lat="42.367008000" lon="-2.655975000">
        <ele>763.90</ele>
        <time>2016-10-29T07:12:13Z</time>
      </trkpt>
      <trkpt lat="42.367004000" lon="-2.655975000">
        <ele>763.90</ele>
        <time>2016-10-29T07:12:14Z</time>
      </trkpt>
      <trkpt lat="42.367001000" lon="-2.655972000">
        <ele>763.90</ele>
        <time>2016-10-29T07:12:15Z</time>
      </trkpt>
      <trkpt lat="42.366998000" lon="-2.655971000">
        <ele>763.80</ele>
        <time>2016-10-29T07:12:16Z</time>
      </trkpt>
      <trkpt lat="42.366995000" lon="-2.655970000">
        <ele>764.00</ele>
        <time>2016-10-29T07:12:17Z</time>
      </trkpt>
      <trkpt lat="42.366994000" lon="-2.655970000">
        <ele>764.10</ele>
        <time>2016-10-29T07:12:18Z</time>
      </trkpt>
      <trkpt lat="42.366994000" lon="-2.655970000">
        <ele>764.10</ele>
        <time>2016-10-29T07:12:19Z</time>
      </trkpt>
      <trkpt lat="42.366995000" lon="-2.655971000">
        <ele>764.10</ele>
        <time>2016-10-29T07:12:20Z</time>
      </trkpt>
      <trkpt lat="42.366997000" lon="-2.655971000">
        <ele>764.10</ele>
        <time>2016-10-29T07:12:21Z</time>
      </trkpt>
      <trkpt lat="42.366998000" lon="-2.655969000">
        <ele>764.10</ele>
        <time>2016-10-29T07:12:22Z</time>
      </trkpt>
      <trkpt lat="42.366999000" lon="-2.655969000">
        <ele>764.00</ele>
        <time>2016-10-29T07:12:23Z</time>
      </trkpt>
      <trkpt lat="42.367000000" lon="-2.655969000">
        <ele>764.00</ele>
        <time>2016-10-29T07:12:24Z</time>
      </trkpt>
      <trkpt lat="42.367001000" lon="-2.655970000">
        <ele>763.90</ele>
        <time>2016-10-29T07:12:25Z</time>
      </trkpt>
      <trkpt lat="42.367000000" lon="-2.655974000">
        <ele>763.90</ele>
        <time>2016-10-29T07:12:26Z</time>
      </trkpt>
      <trkpt lat="42.366999000" lon="-2.655974000">
        <ele>763.90</ele>
        <time>2016-10-29T07:12:27Z</time>
      </trkpt>
      <trkpt lat="42.367000000" lon="-2.655974000">
        <ele>764.00</ele>
        <time>2016-10-29T07:12:28Z</time>
      </trkpt>
      <trkpt lat="42.367001000" lon="-2.655973000">
        <ele>764.00</ele>
        <time>2016-10-29T07:12:29Z</time>
      </trkpt>
      <trkpt lat="42.367000000" lon="-2.655973000">
        <ele>764.00</ele>
        <time>2016-10-29T07:12:30Z</time>
      </trkpt>
      <trkpt lat="42.367002000" lon="-2.655972000">
        <ele>764.00</ele>
        <time>2016-10-29T07:12:31Z</time>
      </trkpt>
      <trkpt lat="42.367005000" lon="-2.655974000">
        <ele>764.00</ele>
        <time>2016-10-29T07:12:32Z</time>
      </trkpt>
      <trkpt lat="42.367005000" lon="-2.655976000">
        <ele>764.00</ele>
        <time>2016-10-29T07:12:33Z</time>
      </trkpt>
      <trkpt lat="42.367005000" lon="-2.655976000">
        <ele>764.00</ele>
        <time>2016-10-29T07:12:34Z</time>
      </trkpt>
      <trkpt lat="42.367005000" lon="-2.655977000">
        <ele>764.10</ele>
        <time>2016-10-29T07:12:35Z</time>
      </trkpt>
      <trkpt lat="42.367006000" lon="-2.655976000">
        <ele>764.10</ele>
        <time>2016-10-29T07:12:36Z</time>
      </trkpt>
      <trkpt lat="42.367006000" lon="-2.655974000">
        <ele>764.10</ele>
        <time>2016-10-29T07:12:37Z</time>
      </trkpt>
      <trkpt lat="42.367007000" lon="-2.655973000">
        <ele>764.20</ele>
        <time>2016-10-29T07:12:38Z</time>
      </trkpt>
      <trkpt lat="42.367009000" lon="-2.655973000">
        <ele>764.20</ele>
        <time>2016-10-29T07:12:39Z</time>
      </trkpt>
      <trkpt lat="42.367010000" lon="-2.655971000">
        <ele>764.20</ele>
        <time>2016-10-29T07:12:40Z</time>
      </trkpt>
      <trkpt lat="42.367010000" lon="-2.655970000">
        <ele>764.20</ele>
        <time>2016-10-29T07:12:41Z</time>
      </trkpt>
      <trkpt lat="42.367010000" lon="-2.655969000">
        <ele>764.20</ele>
        <time>2016-10-29T07:12:42Z</time>
      </trkpt>
      <trkpt lat="42.367011000" lon="-2.655967000">
        <ele>764.30</ele>
        <time>2016-10-29T07:12:43Z</time>
      </trkpt>
      <trkpt lat="42.367010000" lon="-2.655966000">
        <ele>764.30</ele>
        <time>2016-10-29T07:12:44Z</time>
      </trkpt>
      <trkpt lat="42.367009000" lon="-2.655964000">
        <ele>764.40</ele>
        <time>2016-10-29T07:12:45Z</time>
      </trkpt>
      <trkpt lat="42.367006000" lon="-2.655965000">
        <ele>764.50</ele>
        <time>2016-10-29T07:12:46Z</time>
      </trkpt>
      <trkpt lat="42.367005000" lon="-2.655965000">
        <ele>764.50</ele>
        <time>2016-10-29T07:12:47Z</time>
      </trkpt>
      <trkpt lat="42.367003000" lon="-2.655961000">
        <ele>764.50</ele>
        <time>2016-10-29T07:12:48Z</time>
      </trkpt>
      <trkpt lat="42.367001000" lon="-2.655959000">
        <ele>764.40</ele>
        <time>2016-10-29T07:12:49Z</time>
      </trkpt>
      <trkpt lat="42.367000000" lon="-2.655960000">
        <ele>764.40</ele>
        <time>2016-10-29T07:12:50Z</time>
      </trkpt>
      <trkpt lat="42.366996000" lon="-2.655959000">
        <ele>764.30</ele>
        <time>2016-10-29T07:12:51Z</time>
      </trkpt>
      <trkpt lat="42.366993000" lon="-2.655959000">
        <ele>764.30</ele>
        <time>2016-10-29T07:12:52Z</time>
      </trkpt>
      <trkpt lat="42.366993000" lon="-2.655957000">
        <ele>764.10</ele>
        <time>2016-10-29T07:12:53Z</time>
      </trkpt>
      <trkpt lat="42.366992000" lon="-2.655956000">
        <ele>763.90</ele>
        <time>2016-10-29T07:12:55Z</time>
      </trkpt>
      <trkpt lat="42.366988000" lon="-2.655955000">
        <ele>763.80</ele>
        <time>2016-10-29T07:12:56Z</time>
      </trkpt>
      <trkpt lat="42.366985000" lon="-2.655952000">
        <ele>763.80</ele>
        <time>2016-10-29T07:12:57Z</time>
      </trkpt>
      <trkpt lat="42.366979000" lon="-2.655950000">
        <ele>763.70</ele>
        <time>2016-10-29T07:12:58Z</time>
      </trkpt>
      <trkpt lat="42.366973000" lon="-2.655948000">
        <ele>763.90</ele>
        <time>2016-10-29T07:12:59Z</time>
      </trkpt>
      <trkpt lat="42.366975000" lon="-2.655946000">
        <ele>764.00</ele>
        <time>2016-10-29T07:13:00Z</time>
      </trkpt>
      <trkpt lat="42.366973000" lon="-2.655945000">
        <ele>764.10</ele>
        <time>2016-10-29T07:13:01Z</time>
      </trkpt>
      <trkpt lat="42.366972000" lon="-2.655946000">
        <ele>764.20</ele>
        <time>2016-10-29T07:13:02Z</time>
      </trkpt>
      <trkpt lat="42.366970000" lon="-2.655946000">
        <ele>764.30</ele>
        <time>2016-10-29T07:13:03Z</time>
      </trkpt>
      <trkpt lat="42.366970000" lon="-2.655945000">
        <ele>764.30</ele>
        <time>2016-10-29T07:13:04Z</time>
      </trkpt>
      <trkpt lat="42.366969000" lon="-2.655946000">
        <ele>764.40</ele>
        <time>2016-10-29T07:13:05Z</time>
      </trkpt>
      <trkpt lat="42.366968000" lon="-2.655944000">
        <ele>764.50</ele>
        <time>2016-10-29T07:13:06Z</time>
      </trkpt>
      <trkpt lat="42.366969000" lon="-2.655947000">
        <ele>764.40</ele>
        <time>2016-10-29T07:13:07Z</time>
      </trkpt>
      <trkpt lat="42.366972000" lon="-2.655946000">
        <ele>764.30</ele>
        <time>2016-10-29T07:13:08Z</time>
      </trkpt>
      <trkpt lat="42.366975000" lon="-2.655948000">
        <ele>764.40</ele>
        <time>2016-10-29T07:13:09Z</time>
      </trkpt>
      <trkpt lat="42.366977000" lon="-2.655949000">
        <ele>764.40</ele>
        <time>2016-10-29T07:13:10Z</time>
      </trkpt>
      <trkpt lat="42.366980000" lon="-2.655952000">
        <ele>764.20</ele>
        <time>2016-10-29T07:13:11Z</time>
      </trkpt>
      <trkpt lat="42.366984000" lon="-2.655954000">
        <ele>764.00</ele>
        <time>2016-10-29T07:13:12Z</time>
      </trkpt>
      <trkpt lat="42.366989000" lon="-2.655954000">
        <ele>763.90</ele>
        <time>2016-10-29T07:13:13Z</time>
      </trkpt>
      <trkpt lat="42.366995000" lon="-2.655952000">
        <ele>763.90</ele>
        <time>2016-10-29T07:13:14Z</time>
      </trkpt>
      <trkpt lat="42.366999000" lon="-2.655951000">
        <ele>763.80</ele>
        <time>2016-10-29T07:13:15Z</time>
      </trkpt>
      <trkpt lat="42.367001000" lon="-2.655950000">
        <ele>763.80</ele>
        <time>2016-10-29T07:13:16Z</time>
      </trkpt>
      <trkpt lat="42.367004000" lon="-2.655949000">
        <ele>763.80</ele>
        <time>2016-10-29T07:13:17Z</time>
      </trkpt>
      <trkpt lat="42.367008000" lon="-2.655950000">
        <ele>763.90</ele>
        <time>2016-10-29T07:13:18Z</time>
      </trkpt>
      <trkpt lat="42.367012000" lon="-2.655949000">
        <ele>763.90</ele>
        <time>2016-10-29T07:13:19Z</time>
      </trkpt>
      <trkpt lat="42.367014000" lon="-2.655949000">
        <ele>764.00</ele>
        <time>2016-10-29T07:13:20Z</time>
      </trkpt>
      <trkpt lat="42.367015000" lon="-2.655949000">
        <ele>764.00</ele>
        <time>2016-10-29T07:13:21Z</time>
      </trkpt>
      <trkpt lat="42.367016000" lon="-2.655949000">
        <ele>764.00</ele>
        <time>2016-10-29T07:13:22Z</time>
      </trkpt>
      <trkpt lat="42.367016000" lon="-2.655950000">
        <ele>764.00</ele>
        <time>2016-10-29T07:13:23Z</time>
      </trkpt>
      <trkpt lat="42.367017000" lon="-2.655950000">
        <ele>764.00</ele>
        <time>2016-10-29T07:13:24Z</time>
      </trkpt>
      <trkpt lat="42.367018000" lon="-2.655949000">
        <ele>764.00</ele>
        <time>2016-10-29T07:13:25Z</time>
      </trkpt>
      <trkpt lat="42.367017000" lon="-2.655949000">
        <ele>764.10</ele>
        <time>2016-10-29T07:13:26Z</time>
      </trkpt>
      <trkpt lat="42.367016000" lon="-2.655949000">
        <ele>764.10</ele>
        <time>2016-10-29T07:13:27Z</time>
      </trkpt>
      <trkpt lat="42.367016000" lon="-2.655949000">
        <ele>764.20</ele>
        <time>2016-10-29T07:13:28Z</time>
      </trkpt>
      <trkpt lat="42.367016000" lon="-2.655950000">
        <ele>764.20</ele>
        <time>2016-10-29T07:13:29Z</time>
      </trkpt>
      <trkpt lat="42.367016000" lon="-2.655949000">
        <ele>764.20</ele>
        <time>2016-10-29T07:13:30Z</time>
      </trkpt>
      <trkpt lat="42.367016000" lon="-2.655949000">
        <ele>764.30</ele>
        <time>2016-10-29T07:13:31Z</time>
      </trkpt>
      <trkpt lat="42.367016000" lon="-2.655951000">
        <ele>764.40</ele>
        <time>2016-10-29T07:13:32Z</time>
      </trkpt>
      <trkpt lat="42.367016000" lon="-2.655952000">
        <ele>764.40</ele>
        <time>2016-10-29T07:13:33Z</time>
      </trkpt>
      <trkpt lat="42.367017000" lon="-2.655954000">
        <ele>764.40</ele>
        <time>2016-10-29T07:13:34Z</time>
      </trkpt>
      <trkpt lat="42.367017000" lon="-2.655956000">
        <ele>764.30</ele>
        <time>2016-10-29T07:13:35Z</time>
      </trkpt>
      <trkpt lat="42.367016000" lon="-2.655958000">
        <ele>764.20</ele>
        <time>2016-10-29T07:13:36Z</time>
      </trkpt>
      <trkpt lat="42.367017000" lon="-2.655956000">
        <ele>764.20</ele>
        <time>2016-10-29T07:13:37Z</time>
      </trkpt>
      <trkpt lat="42.367017000" lon="-2.655958000">
        <ele>764.20</ele>
        <time>2016-10-29T07:13:38Z</time>
      </trkpt>
      <trkpt lat="42.367016000" lon="-2.655957000">
        <ele>764.10</ele>
        <time>2016-10-29T07:13:39Z</time>
      </trkpt>
      <trkpt lat="42.367015000" lon="-2.655960000">
        <ele>764.00</ele>
        <time>2016-10-29T07:13:40Z</time>
      </trkpt>
      <trkpt lat="42.367013000" lon="-2.655960000">
        <ele>764.00</ele>
        <time>2016-10-29T07:13:41Z</time>
      </trkpt>
      <trkpt lat="42.367011000" lon="-2.655962000">
        <ele>763.90</ele>
        <time>2016-10-29T07:13:42Z</time>
      </trkpt>
      <trkpt lat="42.367010000" lon="-2.655960000">
        <ele>763.90</ele>
        <time>2016-10-29T07:13:43Z</time>
      </trkpt>
      <trkpt lat="42.367011000" lon="-2.655962000">
        <ele>763.90</ele>
        <time>2016-10-29T07:13:44Z</time>
      </trkpt>
      <trkpt lat="42.367010000" lon="-2.655963000">
        <ele>763.90</ele>
        <time>2016-10-29T07:13:45Z</time>
      </trkpt>
      <trkpt lat="42.367009000" lon="-2.655964000">
        <ele>763.80</ele>
        <time>2016-10-29T07:13:46Z</time>
      </trkpt>
      <trkpt lat="42.367009000" lon="-2.655967000">
        <ele>763.80</ele>
        <time>2016-10-29T07:13:47Z</time>
      </trkpt>
      <trkpt lat="42.367010000" lon="-2.655968000">
        <ele>763.80</ele>
        <time>2016-10-29T07:13:48Z</time>
      </trkpt>
      <trkpt lat="42.367010000" lon="-2.655967000">
        <ele>763.80</ele>
        <time>2016-10-29T07:13:49Z</time>
      </trkpt>
      <trkpt lat="42.367011000" lon="-2.655968000">
        <ele>763.70</ele>
        <time>2016-10-29T07:13:50Z</time>
      </trkpt>
      <trkpt lat="42.367011000" lon="-2.655973000">
        <ele>763.70</ele>
        <time>2016-10-29T07:13:51Z</time>
      </trkpt>
      <trkpt lat="42.367011000" lon="-2.655975000">
        <ele>763.60</ele>
        <time>2016-10-29T07:13:52Z</time>
      </trkpt>
      <trkpt lat="42.367010000" lon="-2.655979000">
        <ele>763.60</ele>
        <time>2016-10-29T07:13:53Z</time>
      </trkpt>
      <trkpt lat="42.367009000" lon="-2.655979000">
        <ele>763.60</ele>
        <time>2016-10-29T07:13:54Z</time>
      </trkpt>
      <trkpt lat="42.367008000" lon="-2.655978000">
        <ele>763.70</ele>
        <time>2016-10-29T07:13:55Z</time>
      </trkpt>
      <trkpt lat="42.367006000" lon="-2.655980000">
        <ele>763.80</ele>
        <time>2016-10-29T07:13:57Z</time>
      </trkpt>
      <trkpt lat="42.367005000" lon="-2.655980000">
        <ele>763.90</ele>
        <time>2016-10-29T07:13:58Z</time>
      </trkpt>
      <trkpt lat="42.367005000" lon="-2.655982000">
        <ele>763.90</ele>
        <time>2016-10-29T07:13:59Z</time>
      </trkpt>
      <trkpt lat="42.367005000" lon="-2.655983000">
        <ele>763.90</ele>
        <time>2016-10-29T07:14:00Z</time>
      </trkpt>
      <trkpt lat="42.367006000" lon="-2.655981000">
        <ele>764.10</ele>
        <time>2016-10-29T07:14:01Z</time>
      </trkpt>
      <trkpt lat="42.367004000" lon="-2.655980000">
        <ele>764.30</ele>
        <time>2016-10-29T07:14:02Z</time>
      </trkpt>
      <trkpt lat="42.367004000" lon="-2.655981000">
        <ele>764.40</ele>
        <time>2016-10-29T07:14:03Z</time>
      </trkpt>
      <trkpt lat="42.367005000" lon="-2.655981000">
        <ele>764.50</ele>
        <time>2016-10-29T07:14:04Z</time>
      </trkpt>
      <trkpt lat="42.367004000" lon="-2.655981000">
        <ele>764.60</ele>
        <time>2016-10-29T07:14:05Z</time>
      </trkpt>
      <trkpt lat="42.367004000" lon="-2.655979000">
        <ele>764.60</ele>
        <time>2016-10-29T07:14:06Z</time>
      </trkpt>
      <trkpt lat="42.367006000" lon="-2.655977000">
        <ele>764.50</ele>
        <time>2016-10-29T07:14:07Z</time>
      </trkpt>
      <trkpt lat="42.367005000" lon="-2.655977000">
        <ele>764.50</ele>
        <time>2016-10-29T07:14:08Z</time>
      </trkpt>
      <trkpt lat="42.367005000" lon="-2.655979000">
        <ele>764.30</ele>
        <time>2016-10-29T07:14:09Z</time>
      </trkpt>
      <trkpt lat="42.367004000" lon="-2.655980000">
        <ele>764.20</ele>
        <time>2016-10-29T07:14:10Z</time>
      </trkpt>
      <trkpt lat="42.367001000" lon="-2.655976000">
        <ele>764.20</ele>
        <time>2016-10-29T07:14:11Z</time>
      </trkpt>
      <trkpt lat="42.367000000" lon="-2.655975000">
        <ele>764.20</ele>
        <time>2016-10-29T07:14:12Z</time>
      </trkpt>
      <trkpt lat="42.367002000" lon="-2.655975000">
        <ele>764.20</ele>
        <time>2016-10-29T07:14:13Z</time>
      </trkpt>
      <trkpt lat="42.367002000" lon="-2.655975000">
        <ele>764.10</ele>
        <time>2016-10-29T07:14:14Z</time>
      </trkpt>
      <trkpt lat="42.367004000" lon="-2.655976000">
        <ele>764.00</ele>
        <time>2016-10-29T07:14:15Z</time>
      </trkpt>
      <trkpt lat="42.367005000" lon="-2.655975000">
        <ele>763.80</ele>
        <time>2016-10-29T07:14:16Z</time>
      </trkpt>
      <trkpt lat="42.367007000" lon="-2.655976000">
        <ele>763.70</ele>
        <time>2016-10-29T07:14:17Z</time>
      </trkpt>
      <trkpt lat="42.367007000" lon="-2.655977000">
        <ele>763.70</ele>
        <time>2016-10-29T07:14:18Z</time>
      </trkpt>
      <trkpt lat="42.367006000" lon="-2.655979000">
        <ele>763.90</ele>
        <time>2016-10-29T07:14:19Z</time>
      </trkpt>
      <trkpt lat="42.367006000" lon="-2.655983000">
        <ele>764.00</ele>
        <time>2016-10-29T07:14:20Z</time>
      </trkpt>
      <trkpt lat="42.367004000" lon="-2.655989000">
        <ele>764.20</ele>
        <time>2016-10-29T07:14:21Z</time>
      </trkpt>
      <trkpt lat="42.367004000" lon="-2.655990000">
        <ele>764.20</ele>
        <time>2016-10-29T07:14:22Z</time>
      </trkpt>
      <trkpt lat="42.367002000" lon="-2.655989000">
        <ele>764.30</ele>
        <time>2016-10-29T07:14:23Z</time>
      </trkpt>
      <trkpt lat="42.367001000" lon="-2.655991000">
        <ele>764.40</ele>
        <time>2016-10-29T07:14:24Z</time>
      </trkpt>
      <trkpt lat="42.366999000" lon="-2.655994000">
        <ele>764.40</ele>
        <time>2016-10-29T07:14:25Z</time>
      </trkpt>
      <trkpt lat="42.366997000" lon="-2.655997000">
        <ele>764.40</ele>
        <time>2016-10-29T07:14:26Z</time>
      </trkpt>
      <trkpt lat="42.366994000" lon="-2.655997000">
        <ele>764.40</ele>
        <time>2016-10-29T07:14:27Z</time>
      </trkpt>
      <trkpt lat="42.366996000" lon="-2.655994000">
        <ele>764.30</ele>
        <time>2016-10-29T07:14:28Z</time>
      </trkpt>
      <trkpt lat="42.367000000" lon="-2.655989000">
        <ele>764.30</ele>
        <time>2016-10-29T07:14:29Z</time>
      </trkpt>
      <trkpt lat="42.367008000" lon="-2.655991000">
        <ele>764.30</ele>
        <time>2016-10-29T07:14:30Z</time>
      </trkpt>
      <trkpt lat="42.367012000" lon="-2.655992000">
        <ele>764.30</ele>
        <time>2016-10-29T07:14:31Z</time>
      </trkpt>
      <trkpt lat="42.367010000" lon="-2.655992000">
        <ele>764.30</ele>
        <time>2016-10-29T07:14:32Z</time>
      </trkpt>
      <trkpt lat="42.367005000" lon="-2.655995000">
        <ele>764.20</ele>
        <time>2016-10-29T07:14:33Z</time>
      </trkpt>
      <trkpt lat="42.367005000" lon="-2.655999000">
        <ele>764.10</ele>
        <time>2016-10-29T07:14:34Z</time>
      </trkpt>
      <trkpt lat="42.367003000" lon="-2.656006000">
        <ele>764.20</ele>
        <time>2016-10-29T07:14:35Z</time>
      </trkpt>
      <trkpt lat="42.366999000" lon="-2.656015000">
        <ele>764.20</ele>
        <time>2016-10-29T07:14:36Z</time>
      </trkpt>
      <trkpt lat="42.367001000" lon="-2.656025000">
        <ele>764.10</ele>
        <time>2016-10-29T07:14:37Z</time>
      </trkpt>
      <trkpt lat="42.367003000" lon="-2.656028000">
        <ele>764.10</ele>
        <time>2016-10-29T07:14:38Z</time>
      </trkpt>
      <trkpt lat="42.367004000" lon="-2.656029000">
        <ele>763.90</ele>
        <time>2016-10-29T07:14:39Z</time>
      </trkpt>
      <trkpt lat="42.367008000" lon="-2.656035000">
        <ele>763.80</ele>
        <time>2016-10-29T07:14:40Z</time>
      </trkpt>
      <trkpt lat="42.367011000" lon="-2.656043000">
        <ele>763.70</ele>
        <time>2016-10-29T07:14:41Z</time>
      </trkpt>
      <trkpt lat="42.367017000" lon="-2.656054000">
        <ele>763.70</ele>
        <time>2016-10-29T07:14:42Z</time>
      </trkpt>
      <trkpt lat="42.367024000" lon="-2.656059000">
        <ele>763.70</ele>
        <time>2016-10-29T07:14:43Z</time>
      </trkpt>
      <trkpt lat="42.367027000" lon="-2.656061000">
        <ele>763.70</ele>
        <time>2016-10-29T07:14:44Z</time>
      </trkpt>
      <trkpt lat="42.367032000" lon="-2.656063000">
        <ele>763.70</ele>
        <time>2016-10-29T07:14:45Z</time>
      </trkpt>
      <trkpt lat="42.367034000" lon="-2.656065000">
        <ele>763.70</ele>
        <time>2016-10-29T07:14:46Z</time>
      </trkpt>
      <trkpt lat="42.367039000" lon="-2.656067000">
        <ele>763.70</ele>
        <time>2016-10-29T07:14:47Z</time>
      </trkpt>
      <trkpt lat="42.367048000" lon="-2.656066000">
        <ele>763.70</ele>
        <time>2016-10-29T07:14:48Z</time>
      </trkpt>
      <trkpt lat="42.367060000" lon="-2.656061000">
        <ele>763.60</ele>
        <time>2016-10-29T07:14:49Z</time>
      </trkpt>
      <trkpt lat="42.367069000" lon="-2.656054000">
        <ele>763.60</ele>
        <time>2016-10-29T07:14:50Z</time>
      </trkpt>
      <trkpt lat="42.367072000" lon="-2.656043000">
        <ele>763.50</ele>
        <time>2016-10-29T07:14:51Z</time>
      </trkpt>
      <trkpt lat="42.367078000" lon="-2.656037000">
        <ele>763.50</ele>
        <time>2016-10-29T07:14:52Z</time>
      </trkpt>
      <trkpt lat="42.367080000" lon="-2.656032000">
        <ele>763.50</ele>
        <time>2016-10-29T07:14:53Z</time>
      </trkpt>
      <trkpt lat="42.367081000" lon="-2.656031000">
        <ele>763.40</ele>
        <time>2016-10-29T07:14:54Z</time>
      </trkpt>
      <trkpt lat="42.367079000" lon="-2.656031000">
        <ele>763.40</ele>
        <time>2016-10-29T07:14:55Z</time>
      </trkpt>
      <trkpt lat="42.367082000" lon="-2.656026000">
        <ele>763.30</ele>
        <time>2016-10-29T07:14:56Z</time>
      </trkpt>
      <trkpt lat="42.367091000" lon="-2.656026000">
        <ele>763.40</ele>
        <time>2016-10-29T07:14:58Z</time>
      </trkpt>
      <trkpt lat="42.367098000" lon="-2.656024000">
        <ele>763.40</ele>
        <time>2016-10-29T07:14:59Z</time>
      </trkpt>
      <trkpt lat="42.367100000" lon="-2.656031000">
        <ele>763.40</ele>
        <time>2016-10-29T07:15:00Z</time>
      </trkpt>
      <trkpt lat="42.367101000" lon="-2.656035000">
        <ele>763.60</ele>
        <time>2016-10-29T07:15:01Z</time>
      </trkpt>
      <trkpt lat="42.367102000" lon="-2.656040000">
        <ele>763.70</ele>
        <time>2016-10-29T07:15:02Z</time>
      </trkpt>
      <trkpt lat="42.367100000" lon="-2.656040000">
        <ele>763.70</ele>
        <time>2016-10-29T07:15:03Z</time>
      </trkpt>
      <trkpt lat="42.367099000" lon="-2.656049000">
        <ele>763.80</ele>
        <time>2016-10-29T07:15:04Z</time>
      </trkpt>
      <trkpt lat="42.367098000" lon="-2.656052000">
        <ele>763.80</ele>
        <time>2016-10-29T07:15:05Z</time>
      </trkpt>
      <trkpt lat="42.367097000" lon="-2.656057000">
        <ele>763.90</ele>
        <time>2016-10-29T07:15:06Z</time>
      </trkpt>
      <trkpt lat="42.367100000" lon="-2.656057000">
        <ele>763.90</ele>
        <time>2016-10-29T07:15:07Z</time>
      </trkpt>
      <trkpt lat="42.367101000" lon="-2.656058000">
        <ele>763.90</ele>
        <time>2016-10-29T07:15:08Z</time>
      </trkpt>
      <trkpt lat="42.367102000" lon="-2.656055000">
        <ele>763.80</ele>
        <time>2016-10-29T07:15:09Z</time>
      </trkpt>
      <trkpt lat="42.367103000" lon="-2.656054000">
        <ele>763.70</ele>
        <time>2016-10-29T07:15:10Z</time>
      </trkpt>
      <trkpt lat="42.367105000" lon="-2.656054000">
        <ele>763.70</ele>
        <time>2016-10-29T07:15:11Z</time>
      </trkpt>
      <trkpt lat="42.367104000" lon="-2.656058000">
        <ele>763.60</ele>
        <time>2016-10-29T07:15:12Z</time>
      </trkpt>
      <trkpt lat="42.367107000" lon="-2.656072000">
        <ele>763.60</ele>
        <time>2016-10-29T07:15:13Z</time>
      </trkpt>
      <trkpt lat="42.367105000" lon="-2.656075000">
        <ele>763.50</ele>
        <time>2016-10-29T07:15:14Z</time>
      </trkpt>
      <trkpt lat="42.367103000" lon="-2.656075000">
        <ele>763.50</ele>
        <time>2016-10-29T07:15:15Z</time>
      </trkpt>
      <trkpt lat="42.367102000" lon="-2.656073000">
        <ele>763.50</ele>
        <time>2016-10-29T07:15:16Z</time>
      </trkpt>
      <trkpt lat="42.367101000" lon="-2.656072000">
        <ele>763.60</ele>
        <time>2016-10-29T07:15:17Z</time>
      </trkpt>
      <trkpt lat="42.367101000" lon="-2.656072000">
        <ele>763.60</ele>
        <time>2016-10-29T07:15:18Z</time>
      </trkpt>
      <trkpt lat="42.367099000" lon="-2.656071000">
        <ele>763.60</ele>
        <time>2016-10-29T07:15:19Z</time>
      </trkpt>
      <trkpt lat="42.367097000" lon="-2.656070000">
        <ele>763.60</ele>
        <time>2016-10-29T07:15:20Z</time>
      </trkpt>
      <trkpt lat="42.367097000" lon="-2.656068000">
        <ele>763.70</ele>
        <time>2016-10-29T07:15:21Z</time>
      </trkpt>
      <trkpt lat="42.367097000" lon="-2.656068000">
        <ele>763.70</ele>
        <time>2016-10-29T07:15:22Z</time>
      </trkpt>
      <trkpt lat="42.367097000" lon="-2.656066000">
        <ele>763.60</ele>
        <time>2016-10-29T07:15:23Z</time>
      </trkpt>
      <trkpt lat="42.367099000" lon="-2.656066000">
        <ele>763.60</ele>
        <time>2016-10-29T07:15:24Z</time>
      </trkpt>
      <trkpt lat="42.367099000" lon="-2.656067000">
        <ele>763.50</ele>
        <time>2016-10-29T07:15:25Z</time>
      </trkpt>
      <trkpt lat="42.367099000" lon="-2.656066000">
        <ele>763.50</ele>
        <time>2016-10-29T07:15:26Z</time>
      </trkpt>
      <trkpt lat="42.367099000" lon="-2.656065000">
        <ele>763.60</ele>
        <time>2016-10-29T07:15:27Z</time>
      </trkpt>
      <trkpt lat="42.367100000" lon="-2.656065000">
        <ele>763.60</ele>
        <time>2016-10-29T07:15:28Z</time>
      </trkpt>
      <trkpt lat="42.367099000" lon="-2.656063000">
        <ele>763.60</ele>
        <time>2016-10-29T07:15:29Z</time>
      </trkpt>
      <trkpt lat="42.367098000" lon="-2.656061000">
        <ele>763.70</ele>
        <time>2016-10-29T07:15:30Z</time>
      </trkpt>
      <trkpt lat="42.367094000" lon="-2.656060000">
        <ele>763.50</ele>
        <time>2016-10-29T07:15:31Z</time>
      </trkpt>
      <trkpt lat="42.367093000" lon="-2.656061000">
        <ele>763.30</ele>
        <time>2016-10-29T07:15:32Z</time>
      </trkpt>
      <trkpt lat="42.367093000" lon="-2.656062000">
        <ele>763.20</ele>
        <time>2016-10-29T07:15:33Z</time>
      </trkpt>
      <trkpt lat="42.367091000" lon="-2.656060000">
        <ele>763.20</ele>
        <time>2016-10-29T07:15:34Z</time>
      </trkpt>
      <trkpt lat="42.367092000" lon="-2.656059000">
        <ele>763.20</ele>
        <time>2016-10-29T07:15:35Z</time>
      </trkpt>
      <trkpt lat="42.367093000" lon="-2.656060000">
        <ele>763.20</ele>
        <time>2016-10-29T07:15:36Z</time>
      </trkpt>
      <trkpt lat="42.367101000" lon="-2.656061000">
        <ele>763.20</ele>
        <time>2016-10-29T07:15:37Z</time>
      </trkpt>
      <trkpt lat="42.367119000" lon="-2.656069000">
        <ele>763.20</ele>
        <time>2016-10-29T07:15:38Z</time>
      </trkpt>
      <trkpt lat="42.367142000" lon="-2.656075000">
        <ele>763.20</ele>
        <time>2016-10-29T07:15:39Z</time>
      </trkpt>
      <trkpt lat="42.367164000" lon="-2.656076000">
        <ele>763.20</ele>
        <time>2016-10-29T07:15:40Z</time>
      </trkpt>
      <trkpt lat="42.367187000" lon="-2.656072000">
        <ele>763.20</ele>
        <time>2016-10-29T07:15:41Z</time>
      </trkpt>
      <trkpt lat="42.367202000" lon="-2.656083000">
        <ele>763.20</ele>
        <time>2016-10-29T07:15:42Z</time>
      </trkpt>
      <trkpt lat="42.367224000" lon="-2.656093000">
        <ele>763.40</ele>
        <time>2016-10-29T07:15:43Z</time>
      </trkpt>
      <trkpt lat="42.367247000" lon="-2.656111000">
        <ele>763.50</ele>
        <time>2016-10-29T07:15:44Z</time>
      </trkpt>
      <trkpt lat="42.367273000" lon="-2.656116000">
        <ele>763.60</ele>
        <time>2016-10-29T07:15:45Z</time>
      </trkpt>
      <trkpt lat="42.367299000" lon="-2.656127000">
        <ele>763.70</ele>
        <time>2016-10-29T07:15:46Z</time>
      </trkpt>
      <trkpt lat="42.367319000" lon="-2.656138000">
        <ele>763.70</ele>
        <time>2016-10-29T07:15:47Z</time>
      </trkpt>
      <trkpt lat="42.367342000" lon="-2.656146000">
        <ele>763.60</ele>
        <time>2016-10-29T07:15:48Z</time>
      </trkpt>
      <trkpt lat="42.367372000" lon="-2.656156000">
        <ele>763.60</ele>
        <time>2016-10-29T07:15:49Z</time>
      </trkpt>
      <trkpt lat="42.367399000" lon="-2.656167000">
        <ele>763.50</ele>
        <time>2016-10-29T07:15:50Z</time>
      </trkpt>
      <trkpt lat="42.367423000" lon="-2.656171000">
        <ele>763.50</ele>
        <time>2016-10-29T07:15:51Z</time>
      </trkpt>
      <trkpt lat="42.367440000" lon="-2.656169000">
        <ele>763.40</ele>
        <time>2016-10-29T07:15:52Z</time>
      </trkpt>
      <trkpt lat="42.367465000" lon="-2.656157000">
        <ele>763.30</ele>
        <time>2016-10-29T07:15:53Z</time>
      </trkpt>
      <trkpt lat="42.367499000" lon="-2.656147000">
        <ele>763.20</ele>
        <time>2016-10-29T07:15:54Z</time>
      </trkpt>
      <trkpt lat="42.367531000" lon="-2.656138000">
        <ele>762.90</ele>
        <time>2016-10-29T07:15:55Z</time>
      </trkpt>
      <trkpt lat="42.367567000" lon="-2.656147000">
        <ele>762.70</ele>
        <time>2016-10-29T07:15:56Z</time>
      </trkpt>
      <trkpt lat="42.367602000" lon="-2.656167000">
        <ele>762.60</ele>
        <time>2016-10-29T07:15:57Z</time>
      </trkpt>
      <trkpt lat="42.367671000" lon="-2.656201000">
        <ele>762.30</ele>
        <time>2016-10-29T07:15:59Z</time>
      </trkpt>
      <trkpt lat="42.367709000" lon="-2.656222000">
        <ele>762.20</ele>
        <time>2016-10-29T07:16:00Z</time>
      </trkpt>
      <trkpt lat="42.367748000" lon="-2.656243000">
        <ele>762.00</ele>
        <time>2016-10-29T07:16:01Z</time>
      </trkpt>
      <trkpt lat="42.367784000" lon="-2.656265000">
        <ele>761.80</ele>
        <time>2016-10-29T07:16:02Z</time>
      </trkpt>
      <trkpt lat="42.367820000" lon="-2.656294000">
        <ele>761.60</ele>
        <time>2016-10-29T07:16:03Z</time>
      </trkpt>
      <trkpt lat="42.367851000" lon="-2.656321000">
        <ele>761.50</ele>
        <time>2016-10-29T07:16:04Z</time>
      </trkpt>
      <trkpt lat="42.367879000" lon="-2.656345000">
        <ele>761.40</ele>
        <time>2016-10-29T07:16:05Z</time>
      </trkpt>
      <trkpt lat="42.367907000" lon="-2.656365000">
        <ele>761.30</ele>
        <time>2016-10-29T07:16:06Z</time>
      </trkpt>
      <trkpt lat="42.367936000" lon="-2.656376000">
        <ele>761.10</ele>
        <time>2016-10-29T07:16:07Z</time>
      </trkpt>
      <trkpt lat="42.367965000" lon="-2.656393000">
        <ele>761.00</ele>
        <time>2016-10-29T07:16:08Z</time>
      </trkpt>
      <trkpt lat="42.367997000" lon="-2.656412000">
        <ele>760.80</ele>
        <time>2016-10-29T07:16:09Z</time>
      </trkpt>
      <trkpt lat="42.368028000" lon="-2.656429000">
        <ele>760.70</ele>
        <time>2016-10-29T07:16:10Z</time>
      </trkpt>
      <trkpt lat="42.368061000" lon="-2.656448000">
        <ele>760.60</ele>
        <time>2016-10-29T07:16:11Z</time>
      </trkpt>
      <trkpt lat="42.368095000" lon="-2.656474000">
        <ele>760.50</ele>
        <time>2016-10-29T07:16:12Z</time>
      </trkpt>
      <trkpt lat="42.368132000" lon="-2.656499000">
        <ele>760.30</ele>
        <time>2016-10-29T07:16:13Z</time>
      </trkpt>
      <trkpt lat="42.368163000" lon="-2.656517000">
        <ele>760.20</ele>
        <time>2016-10-29T07:16:14Z</time>
      </trkpt>
      <trkpt lat="42.368201000" lon="-2.656531000">
        <ele>760.10</ele>
        <time>2016-10-29T07:16:15Z</time>
      </trkpt>
      <trkpt lat="42.368245000" lon="-2.656538000">
        <ele>759.90</ele>
        <time>2016-10-29T07:16:16Z</time>
      </trkpt>
      <trkpt lat="42.368302000" lon="-2.656530000">
        <ele>759.60</ele>
        <time>2016-10-29T07:16:17Z</time>
      </trkpt>
      <trkpt lat="42.368351000" lon="-2.656520000">
        <ele>759.30</ele>
        <time>2016-10-29T07:16:18Z</time>
      </trkpt>
      <trkpt lat="42.368396000" lon="-2.656502000">
        <ele>759.10</ele>
        <time>2016-10-29T07:16:19Z</time>
      </trkpt>
      <trkpt lat="42.368447000" lon="-2.656489000">
        <ele>759.00</ele>
        <time>2016-10-29T07:16:20Z</time>
      </trkpt>
      <trkpt lat="42.368500000" lon="-2.656468000">
        <ele>759.10</ele>
        <time>2016-10-29T07:16:21Z</time>
      </trkpt>
      <trkpt lat="42.368550000" lon="-2.656449000">
        <ele>759.10</ele>
        <time>2016-10-29T07:16:22Z</time>
      </trkpt>
      <trkpt lat="42.368598000" lon="-2.656426000">
        <ele>759.20</ele>
        <time>2016-10-29T07:16:23Z</time>
      </trkpt>
      <trkpt lat="42.368646000" lon="-2.656406000">
        <ele>759.20</ele>
        <time>2016-10-29T07:16:24Z</time>
      </trkpt>
      <trkpt lat="42.368682000" lon="-2.656384000">
        <ele>759.10</ele>
        <time>2016-10-29T07:16:25Z</time>
      </trkpt>
      <trkpt lat="42.368721000" lon="-2.656368000">
        <ele>759.00</ele>
        <time>2016-10-29T07:16:26Z</time>
      </trkpt>
      <trkpt lat="42.368758000" lon="-2.656351000">
        <ele>758.80</ele>
        <time>2016-10-29T07:16:27Z</time>
      </trkpt>
      <trkpt lat="42.368792000" lon="-2.656329000">
        <ele>758.60</ele>
        <time>2016-10-29T07:16:28Z</time>
      </trkpt>
      <trkpt lat="42.368829000" lon="-2.656310000">
        <ele>758.40</ele>
        <time>2016-10-29T07:16:29Z</time>
      </trkpt>
      <trkpt lat="42.368860000" lon="-2.656302000">
        <ele>758.20</ele>
        <time>2016-10-29T07:16:30Z</time>
      </trkpt>
      <trkpt lat="42.368887000" lon="-2.656292000">
        <ele>758.10</ele>
        <time>2016-10-29T07:16:31Z</time>
      </trkpt>
      <trkpt lat="42.368920000" lon="-2.656278000">
        <ele>758.00</ele>
        <time>2016-10-29T07:16:32Z</time>
      </trkpt>
      <trkpt lat="42.368956000" lon="-2.656263000">
        <ele>757.80</ele>
        <time>2016-10-29T07:16:33Z</time>
      </trkpt>
      <trkpt lat="42.368990000" lon="-2.656247000">
        <ele>757.60</ele>
        <time>2016-10-29T07:16:34Z</time>
      </trkpt>
      <trkpt lat="42.369026000" lon="-2.656228000">
        <ele>757.40</ele>
        <time>2016-10-29T07:16:35Z</time>
      </trkpt>
      <trkpt lat="42.369063000" lon="-2.656210000">
        <ele>757.20</ele>
        <time>2016-10-29T07:16:36Z</time>
      </trkpt>
      <trkpt lat="42.369099000" lon="-2.656196000">
        <ele>757.10</ele>
        <time>2016-10-29T07:16:37Z</time>
      </trkpt>
      <trkpt lat="42.369131000" lon="-2.656171000">
        <ele>757.00</ele>
        <time>2016-10-29T07:16:38Z</time>
      </trkpt>
      <trkpt lat="42.369161000" lon="-2.656146000">
        <ele>756.90</ele>
        <time>2016-10-29T07:16:39Z</time>
      </trkpt>
      <trkpt lat="42.369186000" lon="-2.656124000">
        <ele>756.80</ele>
        <time>2016-10-29T07:16:40Z</time>
      </trkpt>
      <trkpt lat="42.369215000" lon="-2.656107000">
        <ele>756.70</ele>
        <time>2016-10-29T07:16:41Z</time>
      </trkpt>
      <trkpt lat="42.369243000" lon="-2.656087000">
        <ele>756.70</ele>
        <time>2016-10-29T07:16:42Z</time>
      </trkpt>
      <trkpt lat="42.369273000" lon="-2.656061000">
        <ele>756.50</ele>
        <time>2016-10-29T07:16:43Z</time>
      </trkpt>
      <trkpt lat="42.369303000" lon="-2.656030000">
        <ele>756.40</ele>
        <time>2016-10-29T07:16:44Z</time>
      </trkpt>
      <trkpt lat="42.369334000" lon="-2.655994000">
        <ele>756.30</ele>
        <time>2016-10-29T07:16:45Z</time>
      </trkpt>
      <trkpt lat="42.369366000" lon="-2.655950000">
        <ele>756.30</ele>
        <time>2016-10-29T07:16:46Z</time>
      </trkpt>
      <trkpt lat="42.369397000" lon="-2.655904000">
        <ele>755.90</ele>
        <time>2016-10-29T07:16:47Z</time>
      </trkpt>
      <trkpt lat="42.369428000" lon="-2.655853000">
        <ele>755.70</ele>
        <time>2016-10-29T07:16:48Z</time>
      </trkpt>
      <trkpt lat="42.369465000" lon="-2.655804000">
        <ele>755.50</ele>
        <time>2016-10-29T07:16:49Z</time>
      </trkpt>
      <trkpt lat="42.369501000" lon="-2.655750000">
        <ele>755.40</ele>
        <time>2016-10-29T07:16:50Z</time>
      </trkpt>
      <trkpt lat="42.369537000" lon="-2.655699000">
        <ele>755.30</ele>
        <time>2016-10-29T07:16:51Z</time>
      </trkpt>
      <trkpt lat="42.369575000" lon="-2.655646000">
        <ele>755.20</ele>
        <time>2016-10-29T07:16:52Z</time>
      </trkpt>
      <trkpt lat="42.369613000" lon="-2.655591000">
        <ele>755.20</ele>
        <time>2016-10-29T07:16:53Z</time>
      </trkpt>
      <trkpt lat="42.369652000" lon="-2.655536000">
        <ele>755.10</ele>
        <time>2016-10-29T07:16:54Z</time>
      </trkpt>
      <trkpt lat="42.369690000" lon="-2.655480000">
        <ele>755.00</ele>
        <time>2016-10-29T07:16:55Z</time>
      </trkpt>
      <trkpt lat="42.369730000" lon="-2.655421000">
        <ele>754.90</ele>
        <time>2016-10-29T07:16:56Z</time>
      </trkpt>
      <trkpt lat="42.369770000" lon="-2.655366000">
        <ele>754.70</ele>
        <time>2016-10-29T07:16:57Z</time>
      </trkpt>
      <trkpt lat="42.369810000" lon="-2.655312000">
        <ele>754.50</ele>
        <time>2016-10-29T07:16:58Z</time>
      </trkpt>
      <trkpt lat="42.369850000" lon="-2.655254000">
        <ele>754.20</ele>
        <time>2016-10-29T07:16:59Z</time>
      </trkpt>
      <trkpt lat="42.369928000" lon="-2.655133000">
        <ele>753.80</ele>
        <time>2016-10-29T07:17:01Z</time>
      </trkpt>
      <trkpt lat="42.369966000" lon="-2.655074000">
        <ele>753.60</ele>
        <time>2016-10-29T07:17:02Z</time>
      </trkpt>
      <trkpt lat="42.370006000" lon="-2.655008000">
        <ele>753.40</ele>
        <time>2016-10-29T07:17:03Z</time>
      </trkpt>
      <trkpt lat="42.370037000" lon="-2.654942000">
        <ele>753.30</ele>
        <time>2016-10-29T07:17:04Z</time>
      </trkpt>
      <trkpt lat="42.370060000" lon="-2.654893000">
        <ele>753.20</ele>
        <time>2016-10-29T07:17:05Z</time>
      </trkpt>
      <trkpt lat="42.370070000" lon="-2.654849000">
        <ele>753.10</ele>
        <time>2016-10-29T07:17:06Z</time>
      </trkpt>
      <trkpt lat="42.370069000" lon="-2.654808000">
        <ele>752.90</ele>
        <time>2016-10-29T07:17:07Z</time>
      </trkpt>
      <trkpt lat="42.370046000" lon="-2.654782000">
        <ele>752.70</ele>
        <time>2016-10-29T07:17:08Z</time>
      </trkpt>
      <trkpt lat="42.370019000" lon="-2.654763000">
        <ele>752.50</ele>
        <time>2016-10-29T07:17:09Z</time>
      </trkpt>
      <trkpt lat="42.369986000" lon="-2.654748000">
        <ele>752.40</ele>
        <time>2016-10-29T07:17:10Z</time>
      </trkpt>
      <trkpt lat="42.369955000" lon="-2.654733000">
        <ele>752.40</ele>
        <time>2016-10-29T07:17:11Z</time>
      </trkpt>
      <trkpt lat="42.369922000" lon="-2.654715000">
        <ele>752.30</ele>
        <time>2016-10-29T07:17:12Z</time>
      </trkpt>
      <trkpt lat="42.369890000" lon="-2.654696000">
        <ele>752.30</ele>
        <time>2016-10-29T07:17:13Z</time>
      </trkpt>
      <trkpt lat="42.369859000" lon="-2.654679000">
        <ele>752.20</ele>
        <time>2016-10-29T07:17:14Z</time>
      </trkpt>
      <trkpt lat="42.369826000" lon="-2.654664000">
        <ele>752.20</ele>
        <time>2016-10-29T07:17:15Z</time>
      </trkpt>
      <trkpt lat="42.369794000" lon="-2.654650000">
        <ele>752.20</ele>
        <time>2016-10-29T07:17:16Z</time>
      </trkpt>
      <trkpt lat="42.369760000" lon="-2.654636000">
        <ele>752.40</ele>
        <time>2016-10-29T07:17:17Z</time>
      </trkpt>
      <trkpt lat="42.369728000" lon="-2.654623000">
        <ele>752.50</ele>
        <time>2016-10-29T07:17:18Z</time>
      </trkpt>
      <trkpt lat="42.369697000" lon="-2.654611000">
        <ele>752.70</ele>
        <time>2016-10-29T07:17:19Z</time>
      </trkpt>
      <trkpt lat="42.369665000" lon="-2.654594000">
        <ele>752.80</ele>
        <time>2016-10-29T07:17:20Z</time>
      </trkpt>
      <trkpt lat="42.369637000" lon="-2.654584000">
        <ele>753.20</ele>
        <time>2016-10-29T07:17:21Z</time>
      </trkpt>
      <trkpt lat="42.369605000" lon="-2.654573000">
        <ele>753.40</ele>
        <time>2016-10-29T07:17:22Z</time>
      </trkpt>
      <trkpt lat="42.369573000" lon="-2.654559000">
        <ele>753.80</ele>
        <time>2016-10-29T07:17:23Z</time>
      </trkpt>
      <trkpt lat="42.369541000" lon="-2.654545000">
        <ele>754.00</ele>
        <time>2016-10-29T07:17:24Z</time>
      </trkpt>
      <trkpt lat="42.369509000" lon="-2.654532000">
        <ele>754.20</ele>
        <time>2016-10-29T07:17:25Z</time>
      </trkpt>
      <trkpt lat="42.369476000" lon="-2.654518000">
        <ele>754.30</ele>
        <time>2016-10-29T07:17:26Z</time>
      </trkpt>
      <trkpt lat="42.369444000" lon="-2.654503000">
        <ele>754.40</ele>
        <time>2016-10-29T07:17:27Z</time>
      </trkpt>
      <trkpt lat="42.369412000" lon="-2.654487000">
        <ele>754.40</ele>
        <time>2016-10-29T07:17:28Z</time>
      </trkpt>
      <trkpt lat="42.369378000" lon="-2.654474000">
        <ele>754.50</ele>
        <time>2016-10-29T07:17:29Z</time>
      </trkpt>
      <trkpt lat="42.369349000" lon="-2.654464000">
        <ele>754.50</ele>
        <time>2016-10-29T07:17:30Z</time>
      </trkpt>
      <trkpt lat="42.369322000" lon="-2.654450000">
        <ele>754.80</ele>
        <time>2016-10-29T07:17:31Z</time>
      </trkpt>
      <trkpt lat="42.369292000" lon="-2.654434000">
        <ele>754.90</ele>
        <time>2016-10-29T07:17:32Z</time>
      </trkpt>
      <trkpt lat="42.369260000" lon="-2.654422000">
        <ele>755.10</ele>
        <time>2016-10-29T07:17:33Z</time>
      </trkpt>
      <trkpt lat="42.369230000" lon="-2.654408000">
        <ele>755.20</ele>
        <time>2016-10-29T07:17:34Z</time>
      </trkpt>
      <trkpt lat="42.369204000" lon="-2.654396000">
        <ele>755.60</ele>
        <time>2016-10-29T07:17:35Z</time>
      </trkpt>
      <trkpt lat="42.369172000" lon="-2.654382000">
        <ele>755.90</ele>
        <time>2016-10-29T07:17:36Z</time>
      </trkpt>
      <trkpt lat="42.369139000" lon="-2.654369000">
        <ele>756.10</ele>
        <time>2016-10-29T07:17:37Z</time>
      </trkpt>
      <trkpt lat="42.369107000" lon="-2.654355000">
        <ele>756.30</ele>
        <time>2016-10-29T07:17:38Z</time>
      </trkpt>
      <trkpt lat="42.369075000" lon="-2.654343000">
        <ele>756.50</ele>
        <time>2016-10-29T07:17:39Z</time>
      </trkpt>
      <trkpt lat="42.369040000" lon="-2.654329000">
        <ele>756.60</ele>
        <time>2016-10-29T07:17:40Z</time>
      </trkpt>
      <trkpt lat="42.369008000" lon="-2.654315000">
        <ele>756.90</ele>
        <time>2016-10-29T07:17:41Z</time>
      </trkpt>
      <trkpt lat="42.368979000" lon="-2.654300000">
        <ele>757.10</ele>
        <time>2016-10-29T07:17:42Z</time>
      </trkpt>
      <trkpt lat="42.368949000" lon="-2.654285000">
        <ele>757.20</ele>
        <time>2016-10-29T07:17:43Z</time>
      </trkpt>
      <trkpt lat="42.368918000" lon="-2.654269000">
        <ele>757.40</ele>
        <time>2016-10-29T07:17:44Z</time>
      </trkpt>
      <trkpt lat="42.368886000" lon="-2.654258000">
        <ele>757.50</ele>
        <time>2016-10-29T07:17:45Z</time>
      </trkpt>
      <trkpt lat="42.368856000" lon="-2.654245000">
        <ele>757.50</ele>
        <time>2016-10-29T07:17:46Z</time>
      </trkpt>
      <trkpt lat="42.368824000" lon="-2.654231000">
        <ele>757.60</ele>
        <time>2016-10-29T07:17:47Z</time>
      </trkpt>
      <trkpt lat="42.368793000" lon="-2.654219000">
        <ele>757.70</ele>
        <time>2016-10-29T07:17:48Z</time>
      </trkpt>
      <trkpt lat="42.368762000" lon="-2.654204000">
        <ele>757.80</ele>
        <time>2016-10-29T07:17:49Z</time>
      </trkpt>
      <trkpt lat="42.368733000" lon="-2.654190000">
        <ele>757.90</ele>
        <time>2016-10-29T07:17:50Z</time>
      </trkpt>
      <trkpt lat="42.368701000" lon="-2.654176000">
        <ele>758.10</ele>
        <time>2016-10-29T07:17:51Z</time>
      </trkpt>
      <trkpt lat="42.368670000" lon="-2.654161000">
        <ele>758.30</ele>
        <time>2016-10-29T07:17:52Z</time>
      </trkpt>
      <trkpt lat="42.368639000" lon="-2.654149000">
        <ele>758.40</ele>
        <time>2016-10-29T07:17:53Z</time>
      </trkpt>
      <trkpt lat="42.368607000" lon="-2.654137000">
        <ele>758.40</ele>
        <time>2016-10-29T07:17:54Z</time>
      </trkpt>
      <trkpt lat="42.368578000" lon="-2.654119000">
        <ele>758.70</ele>
        <time>2016-10-29T07:17:55Z</time>
      </trkpt>
      <trkpt lat="42.368545000" lon="-2.654104000">
        <ele>758.90</ele>
        <time>2016-10-29T07:17:56Z</time>
      </trkpt>
      <trkpt lat="42.368512000" lon="-2.654088000">
        <ele>759.10</ele>
        <time>2016-10-29T07:17:57Z</time>
      </trkpt>
      <trkpt lat="42.368479000" lon="-2.654075000">
        <ele>759.30</ele>
        <time>2016-10-29T07:17:58Z</time>
      </trkpt>
      <trkpt lat="42.368446000" lon="-2.654064000">
        <ele>759.40</ele>
        <time>2016-10-29T07:17:59Z</time>
      </trkpt>
      <trkpt lat="42.368413000" lon="-2.654053000">
        <ele>759.50</ele>
        <time>2016-10-29T07:18:00Z</time>
      </trkpt>
      <trkpt lat="42.368351000" lon="-2.654029000">
        <ele>759.80</ele>
        <time>2016-10-29T07:18:02Z</time>
      </trkpt>
      <trkpt lat="42.368319000" lon="-2.654014000">
        <ele>760.00</ele>
        <time>2016-10-29T07:18:03Z</time>
      </trkpt>
      <trkpt lat="42.368285000" lon="-2.653997000">
        <ele>760.20</ele>
        <time>2016-10-29T07:18:04Z</time>
      </trkpt>
      <trkpt lat="42.368253000" lon="-2.653981000">
        <ele>760.40</ele>
        <time>2016-10-29T07:18:05Z</time>
      </trkpt>
      <trkpt lat="42.368222000" lon="-2.653966000">
        <ele>760.50</ele>
        <time>2016-10-29T07:18:06Z</time>
      </trkpt>
      <trkpt lat="42.368191000" lon="-2.653950000">
        <ele>760.70</ele>
        <time>2016-10-29T07:18:07Z</time>
      </trkpt>
      <trkpt lat="42.368160000" lon="-2.653936000">
        <ele>760.90</ele>
        <time>2016-10-29T07:18:08Z</time>
      </trkpt>
      <trkpt lat="42.368128000" lon="-2.653925000">
        <ele>761.00</ele>
        <time>2016-10-29T07:18:09Z</time>
      </trkpt>
      <trkpt lat="42.368098000" lon="-2.653910000">
        <ele>761.00</ele>
        <time>2016-10-29T07:18:10Z</time>
      </trkpt>
      <trkpt lat="42.368066000" lon="-2.653896000">
        <ele>761.20</ele>
        <time>2016-10-29T07:18:11Z</time>
      </trkpt>
      <trkpt lat="42.368033000" lon="-2.653880000">
        <ele>761.30</ele>
        <time>2016-10-29T07:18:12Z</time>
      </trkpt>
      <trkpt lat="42.368000000" lon="-2.653866000">
        <ele>761.40</ele>
        <time>2016-10-29T07:18:13Z</time>
      </trkpt>
      <trkpt lat="42.367966000" lon="-2.653856000">
        <ele>761.50</ele>
        <time>2016-10-29T07:18:14Z</time>
      </trkpt>
      <trkpt lat="42.367935000" lon="-2.653846000">
        <ele>761.80</ele>
        <time>2016-10-29T07:18:15Z</time>
      </trkpt>
      <trkpt lat="42.367903000" lon="-2.653832000">
        <ele>762.00</ele>
        <time>2016-10-29T07:18:16Z</time>
      </trkpt>
      <trkpt lat="42.367871000" lon="-2.653817000">
        <ele>762.20</ele>
        <time>2016-10-29T07:18:17Z</time>
      </trkpt>
      <trkpt lat="42.367840000" lon="-2.653808000">
        <ele>762.30</ele>
        <time>2016-10-29T07:18:18Z</time>
      </trkpt>
      <trkpt lat="42.367808000" lon="-2.653798000">
        <ele>762.40</ele>
        <time>2016-10-29T07:18:19Z</time>
      </trkpt>
      <trkpt lat="42.367776000" lon="-2.653787000">
        <ele>762.50</ele>
        <time>2016-10-29T07:18:20Z</time>
      </trkpt>
      <trkpt lat="42.367745000" lon="-2.653775000">
        <ele>762.50</ele>
        <time>2016-10-29T07:18:21Z</time>
      </trkpt>
      <trkpt lat="42.367713000" lon="-2.653768000">
        <ele>762.50</ele>
        <time>2016-10-29T07:18:22Z</time>
      </trkpt>
      <trkpt lat="42.367681000" lon="-2.653764000">
        <ele>763.00</ele>
        <time>2016-10-29T07:18:23Z</time>
      </trkpt>
      <trkpt lat="42.367650000" lon="-2.653751000">
        <ele>763.30</ele>
        <time>2016-10-29T07:18:24Z</time>
      </trkpt>
      <trkpt lat="42.367617000" lon="-2.653742000">
        <ele>763.50</ele>
        <time>2016-10-29T07:18:25Z</time>
      </trkpt>
      <trkpt lat="42.367582000" lon="-2.653735000">
        <ele>763.70</ele>
        <time>2016-10-29T07:18:26Z</time>
      </trkpt>
      <trkpt lat="42.367547000" lon="-2.653730000">
        <ele>763.80</ele>
        <time>2016-10-29T07:18:27Z</time>
      </trkpt>
      <trkpt lat="42.367515000" lon="-2.653723000">
        <ele>763.90</ele>
        <time>2016-10-29T07:18:28Z</time>
      </trkpt>
      <trkpt lat="42.367483000" lon="-2.653720000">
        <ele>764.00</ele>
        <time>2016-10-29T07:18:29Z</time>
      </trkpt>
      <trkpt lat="42.367450000" lon="-2.653716000">
        <ele>764.10</ele>
        <time>2016-10-29T07:18:30Z</time>
      </trkpt>
      <trkpt lat="42.367418000" lon="-2.653713000">
        <ele>764.30</ele>
        <time>2016-10-29T07:18:31Z</time>
      </trkpt>
      <trkpt lat="42.367385000" lon="-2.653710000">
        <ele>764.40</ele>
        <time>2016-10-29T07:18:32Z</time>
      </trkpt>
      <trkpt lat="42.367351000" lon="-2.653710000">
        <ele>764.50</ele>
        <time>2016-10-29T07:18:33Z</time>
      </trkpt>
      <trkpt lat="42.367313000" lon="-2.653714000">
        <ele>764.70</ele>
        <time>2016-10-29T07:18:34Z</time>
      </trkpt>
      <trkpt lat="42.367276000" lon="-2.653716000">
        <ele>765.00</ele>
        <time>2016-10-29T07:18:35Z</time>
      </trkpt>
      <trkpt lat="42.367241000" lon="-2.653718000">
        <ele>765.20</ele>
        <time>2016-10-29T07:18:36Z</time>
      </trkpt>
      <trkpt lat="42.367204000" lon="-2.653718000">
        <ele>765.40</ele>
        <time>2016-10-29T07:18:37Z</time>
      </trkpt>
      <trkpt lat="42.367170000" lon="-2.653717000">
        <ele>765.60</ele>
        <time>2016-10-29T07:18:38Z</time>
      </trkpt>
      <trkpt lat="42.367134000" lon="-2.653719000">
        <ele>765.70</ele>
        <time>2016-10-29T07:18:39Z</time>
      </trkpt>
      <trkpt lat="42.367099000" lon="-2.653723000">
        <ele>765.80</ele>
        <time>2016-10-29T07:18:40Z</time>
      </trkpt>
      <trkpt lat="42.367064000" lon="-2.653730000">
        <ele>765.90</ele>
        <time>2016-10-29T07:18:41Z</time>
      </trkpt>
      <trkpt lat="42.367030000" lon="-2.653733000">
        <ele>765.90</ele>
        <time>2016-10-29T07:18:42Z</time>
      </trkpt>
      <trkpt lat="42.366998000" lon="-2.653736000">
        <ele>766.00</ele>
        <time>2016-10-29T07:18:43Z</time>
      </trkpt>
      <trkpt lat="42.366964000" lon="-2.653740000">
        <ele>766.00</ele>
        <time>2016-10-29T07:18:44Z</time>
      </trkpt>
      <trkpt lat="42.366933000" lon="-2.653746000">
        <ele>766.10</ele>
        <time>2016-10-29T07:18:45Z</time>
      </trkpt>
      <trkpt lat="42.366899000" lon="-2.653751000">
        <ele>766.20</ele>
        <time>2016-10-29T07:18:46Z</time>
      </trkpt>
      <trkpt lat="42.366865000" lon="-2.653758000">
        <ele>766.40</ele>
        <time>2016-10-29T07:18:47Z</time>
      </trkpt>
      <trkpt lat="42.366831000" lon="-2.653766000">
        <ele>766.60</ele>
        <time>2016-10-29T07:18:48Z</time>
      </trkpt>
      <trkpt lat="42.366797000" lon="-2.653774000">
        <ele>766.70</ele>
        <time>2016-10-29T07:18:49Z</time>
      </trkpt>
      <trkpt lat="42.366763000" lon="-2.653785000">
        <ele>766.80</ele>
        <time>2016-10-29T07:18:50Z</time>
      </trkpt>
      <trkpt lat="42.366728000" lon="-2.653795000">
        <ele>766.90</ele>
        <time>2016-10-29T07:18:51Z</time>
      </trkpt>
      <trkpt lat="42.366694000" lon="-2.653804000">
        <ele>767.00</ele>
        <time>2016-10-29T07:18:52Z</time>
      </trkpt>
      <trkpt lat="42.366660000" lon="-2.653812000">
        <ele>767.20</ele>
        <time>2016-10-29T07:18:53Z</time>
      </trkpt>
      <trkpt lat="42.366625000" lon="-2.653821000">
        <ele>767.40</ele>
        <time>2016-10-29T07:18:54Z</time>
      </trkpt>
      <trkpt lat="42.366589000" lon="-2.653831000">
        <ele>767.70</ele>
        <time>2016-10-29T07:18:55Z</time>
      </trkpt>
      <trkpt lat="42.366554000" lon="-2.653840000">
        <ele>768.00</ele>
        <time>2016-10-29T07:18:56Z</time>
      </trkpt>
      <trkpt lat="42.366521000" lon="-2.653855000">
        <ele>768.20</ele>
        <time>2016-10-29T07:18:57Z</time>
      </trkpt>
      <trkpt lat="42.366485000" lon="-2.653871000">
        <ele>768.30</ele>
        <time>2016-10-29T07:18:58Z</time>
      </trkpt>
      <trkpt lat="42.366449000" lon="-2.653878000">
        <ele>768.50</ele>
        <time>2016-10-29T07:18:59Z</time>
      </trkpt>
      <trkpt lat="42.366414000" lon="-2.653885000">
        <ele>768.70</ele>
        <time>2016-10-29T07:19:00Z</time>
      </trkpt>
      <trkpt lat="42.366381000" lon="-2.653897000">
        <ele>768.70</ele>
        <time>2016-10-29T07:19:01Z</time>
      </trkpt>
      <trkpt lat="42.366313000" lon="-2.653922000">
        <ele>768.80</ele>
        <time>2016-10-29T07:19:03Z</time>
      </trkpt>
      <trkpt lat="42.366277000" lon="-2.653932000">
        <ele>768.90</ele>
        <time>2016-10-29T07:19:04Z</time>
      </trkpt>
      <trkpt lat="42.366241000" lon="-2.653940000">
        <ele>769.00</ele>
        <time>2016-10-29T07:19:05Z</time>
      </trkpt>
      <trkpt lat="42.366207000" lon="-2.653950000">
        <ele>769.00</ele>
        <time>2016-10-29T07:19:06Z</time>
      </trkpt>
      <trkpt lat="42.366170000" lon="-2.653956000">
        <ele>769.10</ele>
        <time>2016-10-29T07:19:07Z</time>
      </trkpt>
      <trkpt lat="42.366134000" lon="-2.653961000">
        <ele>769.20</ele>
        <time>2016-10-29T07:19:08Z</time>
      </trkpt>
      <trkpt lat="42.366097000" lon="-2.653962000">
        <ele>769.30</ele>
        <time>2016-10-29T07:19:09Z</time>
      </trkpt>
      <trkpt lat="42.366063000" lon="-2.653964000">
        <ele>769.30</ele>
        <time>2016-10-29T07:19:10Z</time>
      </trkpt>
      <trkpt lat="42.366026000" lon="-2.653964000">
        <ele>769.40</ele>
        <time>2016-10-29T07:19:11Z</time>
      </trkpt>
      <trkpt lat="42.365991000" lon="-2.653966000">
        <ele>769.50</ele>
        <time>2016-10-29T07:19:12Z</time>
      </trkpt>
      <trkpt lat="42.365956000" lon="-2.653966000">
        <ele>769.60</ele>
        <time>2016-10-29T07:19:13Z</time>
      </trkpt>
      <trkpt lat="42.365921000" lon="-2.653962000">
        <ele>769.70</ele>
        <time>2016-10-29T07:19:14Z</time>
      </trkpt>
      <trkpt lat="42.365886000" lon="-2.653956000">
        <ele>769.80</ele>
        <time>2016-10-29T07:19:15Z</time>
      </trkpt>
      <trkpt lat="42.365851000" lon="-2.653946000">
        <ele>769.80</ele>
        <time>2016-10-29T07:19:16Z</time>
      </trkpt>
      <trkpt lat="42.365817000" lon="-2.653932000">
        <ele>769.90</ele>
        <time>2016-10-29T07:19:17Z</time>
      </trkpt>
      <trkpt lat="42.365785000" lon="-2.653916000">
        <ele>769.90</ele>
        <time>2016-10-29T07:19:18Z</time>
      </trkpt>
      <trkpt lat="42.365750000" lon="-2.653897000">
        <ele>769.90</ele>
        <time>2016-10-29T07:19:19Z</time>
      </trkpt>
      <trkpt lat="42.365718000" lon="-2.653866000">
        <ele>769.90</ele>
        <time>2016-10-29T07:19:20Z</time>
      </trkpt>
      <trkpt lat="42.365686000" lon="-2.653834000">
        <ele>769.90</ele>
        <time>2016-10-29T07:19:21Z</time>
      </trkpt>
      <trkpt lat="42.365656000" lon="-2.653799000">
        <ele>770.00</ele>
        <time>2016-10-29T07:19:22Z</time>
      </trkpt>
      <trkpt lat="42.365626000" lon="-2.653758000">
        <ele>770.00</ele>
        <time>2016-10-29T07:19:23Z</time>
      </trkpt>
      <trkpt lat="42.365596000" lon="-2.653716000">
        <ele>770.00</ele>
        <time>2016-10-29T07:19:24Z</time>
      </trkpt>
      <trkpt lat="42.365569000" lon="-2.653675000">
        <ele>769.90</ele>
        <time>2016-10-29T07:19:25Z</time>
      </trkpt>
      <trkpt lat="42.365543000" lon="-2.653629000">
        <ele>769.80</ele>
        <time>2016-10-29T07:19:26Z</time>
      </trkpt>
      <trkpt lat="42.365510000" lon="-2.653588000">
        <ele>769.70</ele>
        <time>2016-10-29T07:19:27Z</time>
      </trkpt>
      <trkpt lat="42.365475000" lon="-2.653540000">
        <ele>769.60</ele>
        <time>2016-10-29T07:19:28Z</time>
      </trkpt>
      <trkpt lat="42.365439000" lon="-2.653490000">
        <ele>769.50</ele>
        <time>2016-10-29T07:19:29Z</time>
      </trkpt>
      <trkpt lat="42.365401000" lon="-2.653440000">
        <ele>769.40</ele>
        <time>2016-10-29T07:19:30Z</time>
      </trkpt>
      <trkpt lat="42.365362000" lon="-2.653393000">
        <ele>769.10</ele>
        <time>2016-10-29T07:19:31Z</time>
      </trkpt>
      <trkpt lat="42.365317000" lon="-2.653350000">
        <ele>768.80</ele>
        <time>2016-10-29T07:19:32Z</time>
      </trkpt>
      <trkpt lat="42.365271000" lon="-2.653307000">
        <ele>768.60</ele>
        <time>2016-10-29T07:19:33Z</time>
      </trkpt>
      <trkpt lat="42.365223000" lon="-2.653265000">
        <ele>768.50</ele>
        <time>2016-10-29T07:19:34Z</time>
      </trkpt>
      <trkpt lat="42.365174000" lon="-2.653225000">
        <ele>768.40</ele>
        <time>2016-10-29T07:19:35Z</time>
      </trkpt>
      <trkpt lat="42.365124000" lon="-2.653191000">
        <ele>768.30</ele>
        <time>2016-10-29T07:19:36Z</time>
      </trkpt>
      <trkpt lat="42.365074000" lon="-2.653161000">
        <ele>768.10</ele>
        <time>2016-10-29T07:19:37Z</time>
      </trkpt>
      <trkpt lat="42.365023000" lon="-2.653144000">
        <ele>767.90</ele>
        <time>2016-10-29T07:19:38Z</time>
      </trkpt>
      <trkpt lat="42.364971000" lon="-2.653137000">
        <ele>767.70</ele>
        <time>2016-10-29T07:19:39Z</time>
      </trkpt>
      <trkpt lat="42.364921000" lon="-2.653139000">
        <ele>767.50</ele>
        <time>2016-10-29T07:19:40Z</time>
      </trkpt>
      <trkpt lat="42.364873000" lon="-2.653142000">
        <ele>767.40</ele>
        <time>2016-10-29T07:19:41Z</time>
      </trkpt>
      <trkpt lat="42.364830000" lon="-2.653158000">
        <ele>767.30</ele>
        <time>2016-10-29T07:19:42Z</time>
      </trkpt>
      <trkpt lat="42.364789000" lon="-2.653178000">
        <ele>767.40</ele>
        <time>2016-10-29T07:19:43Z</time>
      </trkpt>
      <trkpt lat="42.364751000" lon="-2.653199000">
        <ele>767.50</ele>
        <time>2016-10-29T07:19:44Z</time>
      </trkpt>
      <trkpt lat="42.364716000" lon="-2.653226000">
        <ele>767.60</ele>
        <time>2016-10-29T07:19:45Z</time>
      </trkpt>
      <trkpt lat="42.364681000" lon="-2.653256000">
        <ele>767.60</ele>
        <time>2016-10-29T07:19:46Z</time>
      </trkpt>
      <trkpt lat="42.364650000" lon="-2.653288000">
        <ele>767.70</ele>
        <time>2016-10-29T07:19:47Z</time>
      </trkpt>
      <trkpt lat="42.364621000" lon="-2.653321000">
        <ele>767.70</ele>
        <time>2016-10-29T07:19:48Z</time>
      </trkpt>
      <trkpt lat="42.364594000" lon="-2.653356000">
        <ele>767.80</ele>
        <time>2016-10-29T07:19:49Z</time>
      </trkpt>
      <trkpt lat="42.364571000" lon="-2.653394000">
        <ele>768.00</ele>
        <time>2016-10-29T07:19:50Z</time>
      </trkpt>
      <trkpt lat="42.364552000" lon="-2.653432000">
        <ele>768.20</ele>
        <time>2016-10-29T07:19:51Z</time>
      </trkpt>
      <trkpt lat="42.364535000" lon="-2.653472000">
        <ele>768.50</ele>
        <time>2016-10-29T07:19:52Z</time>
      </trkpt>
      <trkpt lat="42.364521000" lon="-2.653512000">
        <ele>768.70</ele>
        <time>2016-10-29T07:19:53Z</time>
      </trkpt>
      <trkpt lat="42.364506000" lon="-2.653551000">
        <ele>768.90</ele>
        <time>2016-10-29T07:19:54Z</time>
      </trkpt>
      <trkpt lat="42.364494000" lon="-2.653591000">
        <ele>769.00</ele>
        <time>2016-10-29T07:19:55Z</time>
      </trkpt>
      <trkpt lat="42.364483000" lon="-2.653626000">
        <ele>769.10</ele>
        <time>2016-10-29T07:19:56Z</time>
      </trkpt>
      <trkpt lat="42.364470000" lon="-2.653666000">
        <ele>769.40</ele>
        <time>2016-10-29T07:19:57Z</time>
      </trkpt>
      <trkpt lat="42.364458000" lon="-2.653703000">
        <ele>769.70</ele>
        <time>2016-10-29T07:19:58Z</time>
      </trkpt>
      <trkpt lat="42.364448000" lon="-2.653742000">
        <ele>769.90</ele>
        <time>2016-10-29T07:19:59Z</time>
      </trkpt>
      <trkpt lat="42.364435000" lon="-2.653781000">
        <ele>770.00</ele>
        <time>2016-10-29T07:20:00Z</time>
      </trkpt>
      <trkpt lat="42.364426000" lon="-2.653818000">
        <ele>770.40</ele>
        <time>2016-10-29T07:20:01Z</time>
      </trkpt>
      <trkpt lat="42.364416000" lon="-2.653862000">
        <ele>770.80</ele>
        <time>2016-10-29T07:20:02Z</time>
      </trkpt>
      <trkpt lat="42.364407000" lon="-2.653902000">
        <ele>771.20</ele>
        <time>2016-10-29T07:20:03Z</time>
      </trkpt>
      <trkpt lat="42.364385000" lon="-2.653980000">
        <ele>771.90</ele>
        <time>2016-10-29T07:20:05Z</time>
      </trkpt>
      <trkpt lat="42.364374000" lon="-2.654019000">
        <ele>772.10</ele>
        <time>2016-10-29T07:20:06Z</time>
      </trkpt>
      <trkpt lat="42.364361000" lon="-2.654056000">
        <ele>772.40</ele>
        <time>2016-10-29T07:20:07Z</time>
      </trkpt>
      <trkpt lat="42.364347000" lon="-2.654091000">
        <ele>772.50</ele>
        <time>2016-10-29T07:20:08Z</time>
      </trkpt>
      <trkpt lat="42.364333000" lon="-2.654127000">
        <ele>772.80</ele>
        <time>2016-10-29T07:20:09Z</time>
      </trkpt>
      <trkpt lat="42.364320000" lon="-2.654164000">
        <ele>772.90</ele>
        <time>2016-10-29T07:20:10Z</time>
      </trkpt>
      <trkpt lat="42.364304000" lon="-2.654197000">
        <ele>773.20</ele>
        <time>2016-10-29T07:20:11Z</time>
      </trkpt>
      <trkpt lat="42.364291000" lon="-2.654230000">
        <ele>773.40</ele>
        <time>2016-10-29T07:20:12Z</time>
      </trkpt>
      <trkpt lat="42.364274000" lon="-2.654261000">
        <ele>773.60</ele>
        <time>2016-10-29T07:20:13Z</time>
      </trkpt>
      <trkpt lat="42.364259000" lon="-2.654292000">
        <ele>773.70</ele>
        <time>2016-10-29T07:20:14Z</time>
      </trkpt>
      <trkpt lat="42.364242000" lon="-2.654323000">
        <ele>773.90</ele>
        <time>2016-10-29T07:20:15Z</time>
      </trkpt>
      <trkpt lat="42.364225000" lon="-2.654350000">
        <ele>774.00</ele>
        <time>2016-10-29T07:20:16Z</time>
      </trkpt>
      <trkpt lat="42.364208000" lon="-2.654379000">
        <ele>774.20</ele>
        <time>2016-10-29T07:20:17Z</time>
      </trkpt>
      <trkpt lat="42.364191000" lon="-2.654407000">
        <ele>774.20</ele>
        <time>2016-10-29T07:20:18Z</time>
      </trkpt>
      <trkpt lat="42.364174000" lon="-2.654436000">
        <ele>774.60</ele>
        <time>2016-10-29T07:20:19Z</time>
      </trkpt>
      <trkpt lat="42.364154000" lon="-2.654467000">
        <ele>774.80</ele>
        <time>2016-10-29T07:20:20Z</time>
      </trkpt>
      <trkpt lat="42.364133000" lon="-2.654494000">
        <ele>775.00</ele>
        <time>2016-10-29T07:20:21Z</time>
      </trkpt>
      <trkpt lat="42.364110000" lon="-2.654519000">
        <ele>775.20</ele>
        <time>2016-10-29T07:20:22Z</time>
      </trkpt>
      <trkpt lat="42.364088000" lon="-2.654545000">
        <ele>775.20</ele>
        <time>2016-10-29T07:20:23Z</time>
      </trkpt>
      <trkpt lat="42.364065000" lon="-2.654571000">
        <ele>775.30</ele>
        <time>2016-10-29T07:20:24Z</time>
      </trkpt>
      <trkpt lat="42.364041000" lon="-2.654592000">
        <ele>775.30</ele>
        <time>2016-10-29T07:20:25Z</time>
      </trkpt>
      <trkpt lat="42.364016000" lon="-2.654610000">
        <ele>775.30</ele>
        <time>2016-10-29T07:20:26Z</time>
      </trkpt>
      <trkpt lat="42.363994000" lon="-2.654634000">
        <ele>775.70</ele>
        <time>2016-10-29T07:20:27Z</time>
      </trkpt>
      <trkpt lat="42.363969000" lon="-2.654652000">
        <ele>775.90</ele>
        <time>2016-10-29T07:20:28Z</time>
      </trkpt>
      <trkpt lat="42.363944000" lon="-2.654670000">
        <ele>776.10</ele>
        <time>2016-10-29T07:20:29Z</time>
      </trkpt>
      <trkpt lat="42.363920000" lon="-2.654685000">
        <ele>776.30</ele>
        <time>2016-10-29T07:20:30Z</time>
      </trkpt>
      <trkpt lat="42.363898000" lon="-2.654700000">
        <ele>776.40</ele>
        <time>2016-10-29T07:20:31Z</time>
      </trkpt>
      <trkpt lat="42.363874000" lon="-2.654716000">
        <ele>776.60</ele>
        <time>2016-10-29T07:20:32Z</time>
      </trkpt>
      <trkpt lat="42.363846000" lon="-2.654731000">
        <ele>776.80</ele>
        <time>2016-10-29T07:20:33Z</time>
      </trkpt>
      <trkpt lat="42.363819000" lon="-2.654751000">
        <ele>777.00</ele>
        <time>2016-10-29T07:20:34Z</time>
      </trkpt>
      <trkpt lat="42.363792000" lon="-2.654771000">
        <ele>777.30</ele>
        <time>2016-10-29T07:20:35Z</time>
      </trkpt>
      <trkpt lat="42.363766000" lon="-2.654788000">
        <ele>777.50</ele>
        <time>2016-10-29T07:20:36Z</time>
      </trkpt>
      <trkpt lat="42.363740000" lon="-2.654800000">
        <ele>777.70</ele>
        <time>2016-10-29T07:20:37Z</time>
      </trkpt>
      <trkpt lat="42.363712000" lon="-2.654809000">
        <ele>777.80</ele>
        <time>2016-10-29T07:20:38Z</time>
      </trkpt>
      <trkpt lat="42.363681000" lon="-2.654819000">
        <ele>777.90</ele>
        <time>2016-10-29T07:20:39Z</time>
      </trkpt>
      <trkpt lat="42.363653000" lon="-2.654828000">
        <ele>778.00</ele>
        <time>2016-10-29T07:20:40Z</time>
      </trkpt>
      <trkpt lat="42.363626000" lon="-2.654838000">
        <ele>778.30</ele>
        <time>2016-10-29T07:20:41Z</time>
      </trkpt>
      <trkpt lat="42.363597000" lon="-2.654848000">
        <ele>778.50</ele>
        <time>2016-10-29T07:20:42Z</time>
      </trkpt>
      <trkpt lat="42.363565000" lon="-2.654856000">
        <ele>778.70</ele>
        <time>2016-10-29T07:20:43Z</time>
      </trkpt>
      <trkpt lat="42.363535000" lon="-2.654862000">
        <ele>778.90</ele>
        <time>2016-10-29T07:20:44Z</time>
      </trkpt>
      <trkpt lat="42.363506000" lon="-2.654865000">
        <ele>779.00</ele>
        <time>2016-10-29T07:20:45Z</time>
      </trkpt>
      <trkpt lat="42.363477000" lon="-2.654869000">
        <ele>779.00</ele>
        <time>2016-10-29T07:20:46Z</time>
      </trkpt>
      <trkpt lat="42.363447000" lon="-2.654872000">
        <ele>779.10</ele>
        <time>2016-10-29T07:20:47Z</time>
      </trkpt>
      <trkpt lat="42.363416000" lon="-2.654873000">
        <ele>779.20</ele>
        <time>2016-10-29T07:20:48Z</time>
      </trkpt>
      <trkpt lat="42.363387000" lon="-2.654882000">
        <ele>779.30</ele>
        <time>2016-10-29T07:20:49Z</time>
      </trkpt>
      <trkpt lat="42.363360000" lon="-2.654886000">
        <ele>779.30</ele>
        <time>2016-10-29T07:20:50Z</time>
      </trkpt>
      <trkpt lat="42.363333000" lon="-2.654890000">
        <ele>779.30</ele>
        <time>2016-10-29T07:20:51Z</time>
      </trkpt>
      <trkpt lat="42.363303000" lon="-2.654892000">
        <ele>779.40</ele>
        <time>2016-10-29T07:20:52Z</time>
      </trkpt>
      <trkpt lat="42.363273000" lon="-2.654895000">
        <ele>779.50</ele>
        <time>2016-10-29T07:20:53Z</time>
      </trkpt>
      <trkpt lat="42.363243000" lon="-2.654894000">
        <ele>779.60</ele>
        <time>2016-10-29T07:20:54Z</time>
      </trkpt>
      <trkpt lat="42.363214000" lon="-2.654897000">
        <ele>779.70</ele>
        <time>2016-10-29T07:20:55Z</time>
      </trkpt>
      <trkpt lat="42.363185000" lon="-2.654900000">
        <ele>779.80</ele>
        <time>2016-10-29T07:20:56Z</time>
      </trkpt>
      <trkpt lat="42.363154000" lon="-2.654904000">
        <ele>779.80</ele>
        <time>2016-10-29T07:20:57Z</time>
      </trkpt>
      <trkpt lat="42.363125000" lon="-2.654908000">
        <ele>779.90</ele>
        <time>2016-10-29T07:20:58Z</time>
      </trkpt>
      <trkpt lat="42.363096000" lon="-2.654914000">
        <ele>780.00</ele>
        <time>2016-10-29T07:20:59Z</time>
      </trkpt>
      <trkpt lat="42.363066000" lon="-2.654920000">
        <ele>780.10</ele>
        <time>2016-10-29T07:21:00Z</time>
      </trkpt>
      <trkpt lat="42.363039000" lon="-2.654927000">
        <ele>780.30</ele>
        <time>2016-10-29T07:21:01Z</time>
      </trkpt>
      <trkpt lat="42.363012000" lon="-2.654934000">
        <ele>780.40</ele>
        <time>2016-10-29T07:21:02Z</time>
      </trkpt>
      <trkpt lat="42.362984000" lon="-2.654946000">
        <ele>780.60</ele>
        <time>2016-10-29T07:21:03Z</time>
      </trkpt>
      <trkpt lat="42.362956000" lon="-2.654951000">
        <ele>780.80</ele>
        <time>2016-10-29T07:21:04Z</time>
      </trkpt>
      <trkpt lat="42.362898000" lon="-2.654964000">
        <ele>781.10</ele>
        <time>2016-10-29T07:21:06Z</time>
      </trkpt>
      <trkpt lat="42.362872000" lon="-2.654975000">
        <ele>781.30</ele>
        <time>2016-10-29T07:21:07Z</time>
      </trkpt>
      <trkpt lat="42.362843000" lon="-2.654987000">
        <ele>781.40</ele>
        <time>2016-10-29T07:21:08Z</time>
      </trkpt>
      <trkpt lat="42.362814000" lon="-2.655001000">
        <ele>781.50</ele>
        <time>2016-10-29T07:21:09Z</time>
      </trkpt>
      <trkpt lat="42.362785000" lon="-2.655015000">
        <ele>781.60</ele>
        <time>2016-10-29T07:21:10Z</time>
      </trkpt>
      <trkpt lat="42.362756000" lon="-2.655031000">
        <ele>781.80</ele>
        <time>2016-10-29T07:21:11Z</time>
      </trkpt>
      <trkpt lat="42.362727000" lon="-2.655046000">
        <ele>781.90</ele>
        <time>2016-10-29T07:21:12Z</time>
      </trkpt>
      <trkpt lat="42.362699000" lon="-2.655062000">
        <ele>782.10</ele>
        <time>2016-10-29T07:21:13Z</time>
      </trkpt>
      <trkpt lat="42.362671000" lon="-2.655077000">
        <ele>782.20</ele>
        <time>2016-10-29T07:21:14Z</time>
      </trkpt>
      <trkpt lat="42.362645000" lon="-2.655096000">
        <ele>782.30</ele>
        <time>2016-10-29T07:21:15Z</time>
      </trkpt>
      <trkpt lat="42.362616000" lon="-2.655114000">
        <ele>782.40</ele>
        <time>2016-10-29T07:21:16Z</time>
      </trkpt>
      <trkpt lat="42.362591000" lon="-2.655134000">
        <ele>782.50</ele>
        <time>2016-10-29T07:21:17Z</time>
      </trkpt>
      <trkpt lat="42.362563000" lon="-2.655157000">
        <ele>782.60</ele>
        <time>2016-10-29T07:21:18Z</time>
      </trkpt>
      <trkpt lat="42.362538000" lon="-2.655180000">
        <ele>782.90</ele>
        <time>2016-10-29T07:21:19Z</time>
      </trkpt>
      <trkpt lat="42.362509000" lon="-2.655201000">
        <ele>783.10</ele>
        <time>2016-10-29T07:21:20Z</time>
      </trkpt>
      <trkpt lat="42.362482000" lon="-2.655224000">
        <ele>783.40</ele>
        <time>2016-10-29T07:21:21Z</time>
      </trkpt>
      <trkpt lat="42.362455000" lon="-2.655249000">
        <ele>783.50</ele>
        <time>2016-10-29T07:21:22Z</time>
      </trkpt>
      <trkpt lat="42.362427000" lon="-2.655273000">
        <ele>783.60</ele>
        <time>2016-10-29T07:21:23Z</time>
      </trkpt>
      <trkpt lat="42.362399000" lon="-2.655298000">
        <ele>783.70</ele>
        <time>2016-10-29T07:21:24Z</time>
      </trkpt>
      <trkpt lat="42.362372000" lon="-2.655323000">
        <ele>783.80</ele>
        <time>2016-10-29T07:21:25Z</time>
      </trkpt>
      <trkpt lat="42.362344000" lon="-2.655344000">
        <ele>783.90</ele>
        <time>2016-10-29T07:21:26Z</time>
      </trkpt>
      <trkpt lat="42.362315000" lon="-2.655367000">
        <ele>783.60</ele>
        <time>2016-10-29T07:21:27Z</time>
      </trkpt>
      <trkpt lat="42.362288000" lon="-2.655390000">
        <ele>783.50</ele>
        <time>2016-10-29T07:21:28Z</time>
      </trkpt>
      <trkpt lat="42.362262000" lon="-2.655412000">
        <ele>783.30</ele>
        <time>2016-10-29T07:21:29Z</time>
      </trkpt>
      <trkpt lat="42.362238000" lon="-2.655436000">
        <ele>783.20</ele>
        <time>2016-10-29T07:21:30Z</time>
      </trkpt>
      <trkpt lat="42.362213000" lon="-2.655461000">
        <ele>783.50</ele>
        <time>2016-10-29T07:21:31Z</time>
      </trkpt>
      <trkpt lat="42.362188000" lon="-2.655483000">
        <ele>783.60</ele>
        <time>2016-10-29T07:21:32Z</time>
      </trkpt>
      <trkpt lat="42.362159000" lon="-2.655504000">
        <ele>783.70</ele>
        <time>2016-10-29T07:21:33Z</time>
      </trkpt>
      <trkpt lat="42.362132000" lon="-2.655523000">
        <ele>783.80</ele>
        <time>2016-10-29T07:21:34Z</time>
      </trkpt>
      <trkpt lat="42.362103000" lon="-2.655543000">
        <ele>784.00</ele>
        <time>2016-10-29T07:21:35Z</time>
      </trkpt>
      <trkpt lat="42.362076000" lon="-2.655561000">
        <ele>784.10</ele>
        <time>2016-10-29T07:21:36Z</time>
      </trkpt>
      <trkpt lat="42.362047000" lon="-2.655582000">
        <ele>784.20</ele>
        <time>2016-10-29T07:21:37Z</time>
      </trkpt>
      <trkpt lat="42.362018000" lon="-2.655603000">
        <ele>784.30</ele>
        <time>2016-10-29T07:21:38Z</time>
      </trkpt>
      <trkpt lat="42.361990000" lon="-2.655624000">
        <ele>784.40</ele>
        <time>2016-10-29T07:21:39Z</time>
      </trkpt>
      <trkpt lat="42.361961000" lon="-2.655643000">
        <ele>784.50</ele>
        <time>2016-10-29T07:21:40Z</time>
      </trkpt>
      <trkpt lat="42.361931000" lon="-2.655664000">
        <ele>784.50</ele>
        <time>2016-10-29T07:21:41Z</time>
      </trkpt>
      <trkpt lat="42.361901000" lon="-2.655684000">
        <ele>784.50</ele>
        <time>2016-10-29T07:21:42Z</time>
      </trkpt>
      <trkpt lat="42.361869000" lon="-2.655702000">
        <ele>784.70</ele>
        <time>2016-10-29T07:21:43Z</time>
      </trkpt>
      <trkpt lat="42.361840000" lon="-2.655716000">
        <ele>784.80</ele>
        <time>2016-10-29T07:21:44Z</time>
      </trkpt>
      <trkpt lat="42.361806000" lon="-2.655730000">
        <ele>784.90</ele>
        <time>2016-10-29T07:21:45Z</time>
      </trkpt>
      <trkpt lat="42.361776000" lon="-2.655743000">
        <ele>785.00</ele>
        <time>2016-10-29T07:21:46Z</time>
      </trkpt>
      <trkpt lat="42.361745000" lon="-2.655756000">
        <ele>785.00</ele>
        <time>2016-10-29T07:21:47Z</time>
      </trkpt>
      <trkpt lat="42.361714000" lon="-2.655767000">
        <ele>785.00</ele>
        <time>2016-10-29T07:21:48Z</time>
      </trkpt>
      <trkpt lat="42.361683000" lon="-2.655781000">
        <ele>785.00</ele>
        <time>2016-10-29T07:21:49Z</time>
      </trkpt>
      <trkpt lat="42.361653000" lon="-2.655793000">
        <ele>785.00</ele>
        <time>2016-10-29T07:21:50Z</time>
      </trkpt>
      <trkpt lat="42.361624000" lon="-2.655803000">
        <ele>785.30</ele>
        <time>2016-10-29T07:21:51Z</time>
      </trkpt>
      <trkpt lat="42.361594000" lon="-2.655811000">
        <ele>785.50</ele>
        <time>2016-10-29T07:21:52Z</time>
      </trkpt>
      <trkpt lat="42.361564000" lon="-2.655822000">
        <ele>785.60</ele>
        <time>2016-10-29T07:21:53Z</time>
      </trkpt>
      <trkpt lat="42.361532000" lon="-2.655831000">
        <ele>785.70</ele>
        <time>2016-10-29T07:21:54Z</time>
      </trkpt>
      <trkpt lat="42.361500000" lon="-2.655835000">
        <ele>785.80</ele>
        <time>2016-10-29T07:21:55Z</time>
      </trkpt>
      <trkpt lat="42.361470000" lon="-2.655842000">
        <ele>785.90</ele>
        <time>2016-10-29T07:21:56Z</time>
      </trkpt>
      <trkpt lat="42.361440000" lon="-2.655851000">
        <ele>785.90</ele>
        <time>2016-10-29T07:21:57Z</time>
      </trkpt>
      <trkpt lat="42.361410000" lon="-2.655857000">
        <ele>785.90</ele>
        <time>2016-10-29T07:21:58Z</time>
      </trkpt>
      <trkpt lat="42.361382000" lon="-2.655862000">
        <ele>786.00</ele>
        <time>2016-10-29T07:21:59Z</time>
      </trkpt>
      <trkpt lat="42.361354000" lon="-2.655868000">
        <ele>786.00</ele>
        <time>2016-10-29T07:22:00Z</time>
      </trkpt>
      <trkpt lat="42.361324000" lon="-2.655869000">
        <ele>786.30</ele>
        <time>2016-10-29T07:22:01Z</time>
      </trkpt>
      <trkpt lat="42.361295000" lon="-2.655874000">
        <ele>786.60</ele>
        <time>2016-10-29T07:22:02Z</time>
      </trkpt>
      <trkpt lat="42.361263000" lon="-2.655879000">
        <ele>786.70</ele>
        <time>2016-10-29T07:22:03Z</time>
      </trkpt>
      <trkpt lat="42.361235000" lon="-2.655889000">
        <ele>786.90</ele>
        <time>2016-10-29T07:22:04Z</time>
      </trkpt>
      <trkpt lat="42.361207000" lon="-2.655892000">
        <ele>787.00</ele>
        <time>2016-10-29T07:22:05Z</time>
      </trkpt>
      <trkpt lat="42.361179000" lon="-2.655897000">
        <ele>787.20</ele>
        <time>2016-10-29T07:22:06Z</time>
      </trkpt>
      <trkpt lat="42.361124000" lon="-2.655903000">
        <ele>787.50</ele>
        <time>2016-10-29T07:22:08Z</time>
      </trkpt>
      <trkpt lat="42.361095000" lon="-2.655903000">
        <ele>787.50</ele>
        <time>2016-10-29T07:22:09Z</time>
      </trkpt>
      <trkpt lat="42.361065000" lon="-2.655901000">
        <ele>787.60</ele>
        <time>2016-10-29T07:22:10Z</time>
      </trkpt>
      <trkpt lat="42.361038000" lon="-2.655903000">
        <ele>787.70</ele>
        <time>2016-10-29T07:22:11Z</time>
      </trkpt>
      <trkpt lat="42.361009000" lon="-2.655903000">
        <ele>787.70</ele>
        <time>2016-10-29T07:22:12Z</time>
      </trkpt>
      <trkpt lat="42.360983000" lon="-2.655903000">
        <ele>788.00</ele>
        <time>2016-10-29T07:22:13Z</time>
      </trkpt>
      <trkpt lat="42.360955000" lon="-2.655903000">
        <ele>788.20</ele>
        <time>2016-10-29T07:22:14Z</time>
      </trkpt>
      <trkpt lat="42.360926000" lon="-2.655900000">
        <ele>788.50</ele>
        <time>2016-10-29T07:22:15Z</time>
      </trkpt>
      <trkpt lat="42.360897000" lon="-2.655898000">
        <ele>788.70</ele>
        <time>2016-10-29T07:22:16Z</time>
      </trkpt>
      <trkpt lat="42.360871000" lon="-2.655895000">
        <ele>788.90</ele>
        <time>2016-10-29T07:22:17Z</time>
      </trkpt>
      <trkpt lat="42.360843000" lon="-2.655893000">
        <ele>789.00</ele>
        <time>2016-10-29T07:22:18Z</time>
      </trkpt>
      <trkpt lat="42.360816000" lon="-2.655892000">
        <ele>789.10</ele>
        <time>2016-10-29T07:22:19Z</time>
      </trkpt>
      <trkpt lat="42.360792000" lon="-2.655890000">
        <ele>789.20</ele>
        <time>2016-10-29T07:22:20Z</time>
      </trkpt>
      <trkpt lat="42.360764000" lon="-2.655886000">
        <ele>789.30</ele>
        <time>2016-10-29T07:22:21Z</time>
      </trkpt>
      <trkpt lat="42.360736000" lon="-2.655882000">
        <ele>789.30</ele>
        <time>2016-10-29T07:22:22Z</time>
      </trkpt>
      <trkpt lat="42.360707000" lon="-2.655880000">
        <ele>789.40</ele>
        <time>2016-10-29T07:22:23Z</time>
      </trkpt>
      <trkpt lat="42.360677000" lon="-2.655876000">
        <ele>789.40</ele>
        <time>2016-10-29T07:22:24Z</time>
      </trkpt>
      <trkpt lat="42.360649000" lon="-2.655872000">
        <ele>789.60</ele>
        <time>2016-10-29T07:22:25Z</time>
      </trkpt>
      <trkpt lat="42.360620000" lon="-2.655871000">
        <ele>789.70</ele>
        <time>2016-10-29T07:22:26Z</time>
      </trkpt>
      <trkpt lat="42.360591000" lon="-2.655872000">
        <ele>789.90</ele>
        <time>2016-10-29T07:22:27Z</time>
      </trkpt>
      <trkpt lat="42.360562000" lon="-2.655869000">
        <ele>790.00</ele>
        <time>2016-10-29T07:22:28Z</time>
      </trkpt>
      <trkpt lat="42.360534000" lon="-2.655866000">
        <ele>790.20</ele>
        <time>2016-10-29T07:22:29Z</time>
      </trkpt>
      <trkpt lat="42.360504000" lon="-2.655861000">
        <ele>790.30</ele>
        <time>2016-10-29T07:22:30Z</time>
      </trkpt>
      <trkpt lat="42.360475000" lon="-2.655860000">
        <ele>790.70</ele>
        <time>2016-10-29T07:22:31Z</time>
      </trkpt>
      <trkpt lat="42.360446000" lon="-2.655860000">
        <ele>791.00</ele>
        <time>2016-10-29T07:22:32Z</time>
      </trkpt>
      <trkpt lat="42.360420000" lon="-2.655865000">
        <ele>791.30</ele>
        <time>2016-10-29T07:22:33Z</time>
      </trkpt>
      <trkpt lat="42.360394000" lon="-2.655869000">
        <ele>791.40</ele>
        <time>2016-10-29T07:22:34Z</time>
      </trkpt>
      <trkpt lat="42.360368000" lon="-2.655868000">
        <ele>791.60</ele>
        <time>2016-10-29T07:22:35Z</time>
      </trkpt>
      <trkpt lat="42.360344000" lon="-2.655868000">
        <ele>791.80</ele>
        <time>2016-10-29T07:22:36Z</time>
      </trkpt>
      <trkpt lat="42.360317000" lon="-2.655868000">
        <ele>791.90</ele>
        <time>2016-10-29T07:22:37Z</time>
      </trkpt>
      <trkpt lat="42.360292000" lon="-2.655872000">
        <ele>792.00</ele>
        <time>2016-10-29T07:22:38Z</time>
      </trkpt>
      <trkpt lat="42.360265000" lon="-2.655879000">
        <ele>792.20</ele>
        <time>2016-10-29T07:22:39Z</time>
      </trkpt>
      <trkpt lat="42.360237000" lon="-2.655889000">
        <ele>792.30</ele>
        <time>2016-10-29T07:22:40Z</time>
      </trkpt>
      <trkpt lat="42.360209000" lon="-2.655901000">
        <ele>792.50</ele>
        <time>2016-10-29T07:22:41Z</time>
      </trkpt>
      <trkpt lat="42.360178000" lon="-2.655914000">
        <ele>792.60</ele>
        <time>2016-10-29T07:22:42Z</time>
      </trkpt>
      <trkpt lat="42.360149000" lon="-2.655927000">
        <ele>792.70</ele>
        <time>2016-10-29T07:22:43Z</time>
      </trkpt>
      <trkpt lat="42.360122000" lon="-2.655937000">
        <ele>792.80</ele>
        <time>2016-10-29T07:22:44Z</time>
      </trkpt>
      <trkpt lat="42.360091000" lon="-2.655943000">
        <ele>793.00</ele>
        <time>2016-10-29T07:22:45Z</time>
      </trkpt>
      <trkpt lat="42.360063000" lon="-2.655955000">
        <ele>793.10</ele>
        <time>2016-10-29T07:22:46Z</time>
      </trkpt>
      <trkpt lat="42.360034000" lon="-2.655967000">
        <ele>793.30</ele>
        <time>2016-10-29T07:22:47Z</time>
      </trkpt>
      <trkpt lat="42.360004000" lon="-2.655981000">
        <ele>793.40</ele>
        <time>2016-10-29T07:22:48Z</time>
      </trkpt>
      <trkpt lat="42.359974000" lon="-2.655993000">
        <ele>793.70</ele>
        <time>2016-10-29T07:22:49Z</time>
      </trkpt>
      <trkpt lat="42.359945000" lon="-2.656008000">
        <ele>793.80</ele>
        <time>2016-10-29T07:22:50Z</time>
      </trkpt>
      <trkpt lat="42.359915000" lon="-2.656024000">
        <ele>794.10</ele>
        <time>2016-10-29T07:22:51Z</time>
      </trkpt>
      <trkpt lat="42.359888000" lon="-2.656039000">
        <ele>794.30</ele>
        <time>2016-10-29T07:22:52Z</time>
      </trkpt>
      <trkpt lat="42.359861000" lon="-2.656055000">
        <ele>794.50</ele>
        <time>2016-10-29T07:22:53Z</time>
      </trkpt>
      <trkpt lat="42.359830000" lon="-2.656075000">
        <ele>794.70</ele>
        <time>2016-10-29T07:22:54Z</time>
      </trkpt>
      <trkpt lat="42.359801000" lon="-2.656090000">
        <ele>794.90</ele>
        <time>2016-10-29T07:22:55Z</time>
      </trkpt>
      <trkpt lat="42.359773000" lon="-2.656108000">
        <ele>795.00</ele>
        <time>2016-10-29T07:22:56Z</time>
      </trkpt>
      <trkpt lat="42.359746000" lon="-2.656123000">
        <ele>795.20</ele>
        <time>2016-10-29T07:22:57Z</time>
      </trkpt>
      <trkpt lat="42.359717000" lon="-2.656137000">
        <ele>795.40</ele>
        <time>2016-10-29T07:22:58Z</time>
      </trkpt>
      <trkpt lat="42.359689000" lon="-2.656152000">
        <ele>795.50</ele>
        <time>2016-10-29T07:22:59Z</time>
      </trkpt>
      <trkpt lat="42.359662000" lon="-2.656165000">
        <ele>795.60</ele>
        <time>2016-10-29T07:23:00Z</time>
      </trkpt>
      <trkpt lat="42.359633000" lon="-2.656179000">
        <ele>795.90</ele>
        <time>2016-10-29T07:23:01Z</time>
      </trkpt>
      <trkpt lat="42.359603000" lon="-2.656197000">
        <ele>796.10</ele>
        <time>2016-10-29T07:23:02Z</time>
      </trkpt>
      <trkpt lat="42.359572000" lon="-2.656210000">
        <ele>796.20</ele>
        <time>2016-10-29T07:23:03Z</time>
      </trkpt>
      <trkpt lat="42.359540000" lon="-2.656226000">
        <ele>796.30</ele>
        <time>2016-10-29T07:23:04Z</time>
      </trkpt>
      <trkpt lat="42.359511000" lon="-2.656240000">
        <ele>796.30</ele>
        <time>2016-10-29T07:23:05Z</time>
      </trkpt>
      <trkpt lat="42.359483000" lon="-2.656258000">
        <ele>796.20</ele>
        <time>2016-10-29T07:23:06Z</time>
      </trkpt>
      <trkpt lat="42.359455000" lon="-2.656273000">
        <ele>796.20</ele>
        <time>2016-10-29T07:23:07Z</time>
      </trkpt>
      <trkpt lat="42.359399000" lon="-2.656301000">
        <ele>796.30</ele>
        <time>2016-10-29T07:23:09Z</time>
      </trkpt>
      <trkpt lat="42.359369000" lon="-2.656316000">
        <ele>796.40</ele>
        <time>2016-10-29T07:23:10Z</time>
      </trkpt>
      <trkpt lat="42.359341000" lon="-2.656329000">
        <ele>796.50</ele>
        <time>2016-10-29T07:23:11Z</time>
      </trkpt>
      <trkpt lat="42.359313000" lon="-2.656342000">
        <ele>796.60</ele>
        <time>2016-10-29T07:23:12Z</time>
      </trkpt>
      <trkpt lat="42.359285000" lon="-2.656355000">
        <ele>796.70</ele>
        <time>2016-10-29T07:23:13Z</time>
      </trkpt>
      <trkpt lat="42.359256000" lon="-2.656365000">
        <ele>796.80</ele>
        <time>2016-10-29T07:23:14Z</time>
      </trkpt>
      <trkpt lat="42.359227000" lon="-2.656378000">
        <ele>796.90</ele>
        <time>2016-10-29T07:23:15Z</time>
      </trkpt>
      <trkpt lat="42.359200000" lon="-2.656390000">
        <ele>797.00</ele>
        <time>2016-10-29T07:23:16Z</time>
      </trkpt>
      <trkpt lat="42.359172000" lon="-2.656401000">
        <ele>797.10</ele>
        <time>2016-10-29T07:23:17Z</time>
      </trkpt>
      <trkpt lat="42.359145000" lon="-2.656411000">
        <ele>797.30</ele>
        <time>2016-10-29T07:23:18Z</time>
      </trkpt>
      <trkpt lat="42.359120000" lon="-2.656422000">
        <ele>797.50</ele>
        <time>2016-10-29T07:23:19Z</time>
      </trkpt>
      <trkpt lat="42.359092000" lon="-2.656435000">
        <ele>797.60</ele>
        <time>2016-10-29T07:23:20Z</time>
      </trkpt>
      <trkpt lat="42.359065000" lon="-2.656442000">
        <ele>797.70</ele>
        <time>2016-10-29T07:23:21Z</time>
      </trkpt>
      <trkpt lat="42.359037000" lon="-2.656453000">
        <ele>797.80</ele>
        <time>2016-10-29T07:23:22Z</time>
      </trkpt>
      <trkpt lat="42.359012000" lon="-2.656464000">
        <ele>797.80</ele>
        <time>2016-10-29T07:23:23Z</time>
      </trkpt>
      <trkpt lat="42.358987000" lon="-2.656478000">
        <ele>797.90</ele>
        <time>2016-10-29T07:23:24Z</time>
      </trkpt>
      <trkpt lat="42.358962000" lon="-2.656488000">
        <ele>798.10</ele>
        <time>2016-10-29T07:23:25Z</time>
      </trkpt>
      <trkpt lat="42.358933000" lon="-2.656495000">
        <ele>798.30</ele>
        <time>2016-10-29T07:23:26Z</time>
      </trkpt>
      <trkpt lat="42.358907000" lon="-2.656505000">
        <ele>798.50</ele>
        <time>2016-10-29T07:23:27Z</time>
      </trkpt>
      <trkpt lat="42.358881000" lon="-2.656511000">
        <ele>798.70</ele>
        <time>2016-10-29T07:23:28Z</time>
      </trkpt>
      <trkpt lat="42.358854000" lon="-2.656521000">
        <ele>799.00</ele>
        <time>2016-10-29T07:23:29Z</time>
      </trkpt>
      <trkpt lat="42.358826000" lon="-2.656528000">
        <ele>799.20</ele>
        <time>2016-10-29T07:23:30Z</time>
      </trkpt>
      <trkpt lat="42.358797000" lon="-2.656532000">
        <ele>799.60</ele>
        <time>2016-10-29T07:23:31Z</time>
      </trkpt>
      <trkpt lat="42.358770000" lon="-2.656536000">
        <ele>800.00</ele>
        <time>2016-10-29T07:23:32Z</time>
      </trkpt>
      <trkpt lat="42.358744000" lon="-2.656541000">
        <ele>800.20</ele>
        <time>2016-10-29T07:23:33Z</time>
      </trkpt>
      <trkpt lat="42.358719000" lon="-2.656551000">
        <ele>800.40</ele>
        <time>2016-10-29T07:23:34Z</time>
      </trkpt>
      <trkpt lat="42.358691000" lon="-2.656560000">
        <ele>800.50</ele>
        <time>2016-10-29T07:23:35Z</time>
      </trkpt>
      <trkpt lat="42.358666000" lon="-2.656566000">
        <ele>800.50</ele>
        <time>2016-10-29T07:23:36Z</time>
      </trkpt>
      <trkpt lat="42.358639000" lon="-2.656573000">
        <ele>800.60</ele>
        <time>2016-10-29T07:23:37Z</time>
      </trkpt>
      <trkpt lat="42.358613000" lon="-2.656577000">
        <ele>800.60</ele>
        <time>2016-10-29T07:23:38Z</time>
      </trkpt>
      <trkpt lat="42.358591000" lon="-2.656581000">
        <ele>800.80</ele>
        <time>2016-10-29T07:23:39Z</time>
      </trkpt>
      <trkpt lat="42.358566000" lon="-2.656589000">
        <ele>800.90</ele>
        <time>2016-10-29T07:23:40Z</time>
      </trkpt>
      <trkpt lat="42.358541000" lon="-2.656591000">
        <ele>801.10</ele>
        <time>2016-10-29T07:23:41Z</time>
      </trkpt>
      <trkpt lat="42.358515000" lon="-2.656597000">
        <ele>801.20</ele>
        <time>2016-10-29T07:23:42Z</time>
      </trkpt>
      <trkpt lat="42.358491000" lon="-2.656606000">
        <ele>801.30</ele>
        <time>2016-10-29T07:23:43Z</time>
      </trkpt>
      <trkpt lat="42.358469000" lon="-2.656615000">
        <ele>801.30</ele>
        <time>2016-10-29T07:23:44Z</time>
      </trkpt>
      <trkpt lat="42.358441000" lon="-2.656619000">
        <ele>801.40</ele>
        <time>2016-10-29T07:23:45Z</time>
      </trkpt>
      <trkpt lat="42.358415000" lon="-2.656621000">
        <ele>801.50</ele>
        <time>2016-10-29T07:23:46Z</time>
      </trkpt>
      <trkpt lat="42.358389000" lon="-2.656631000">
        <ele>801.70</ele>
        <time>2016-10-29T07:23:47Z</time>
      </trkpt>
      <trkpt lat="42.358363000" lon="-2.656640000">
        <ele>801.80</ele>
        <time>2016-10-29T07:23:48Z</time>
      </trkpt>
      <trkpt lat="42.358336000" lon="-2.656645000">
        <ele>802.10</ele>
        <time>2016-10-29T07:23:49Z</time>
      </trkpt>
      <trkpt lat="42.358309000" lon="-2.656650000">
        <ele>802.40</ele>
        <time>2016-10-29T07:23:50Z</time>
      </trkpt>
      <trkpt lat="42.358284000" lon="-2.656655000">
        <ele>802.60</ele>
        <time>2016-10-29T07:23:51Z</time>
      </trkpt>
      <trkpt lat="42.358260000" lon="-2.656659000">
        <ele>802.80</ele>
        <time>2016-10-29T07:23:52Z</time>
      </trkpt>
      <trkpt lat="42.358232000" lon="-2.656665000">
        <ele>803.10</ele>
        <time>2016-10-29T07:23:53Z</time>
      </trkpt>
      <trkpt lat="42.358206000" lon="-2.656671000">
        <ele>803.30</ele>
        <time>2016-10-29T07:23:54Z</time>
      </trkpt>
      <trkpt lat="42.358180000" lon="-2.656675000">
        <ele>803.50</ele>
        <time>2016-10-29T07:23:55Z</time>
      </trkpt>
      <trkpt lat="42.358155000" lon="-2.656678000">
        <ele>803.60</ele>
        <time>2016-10-29T07:23:56Z</time>
      </trkpt>
      <trkpt lat="42.358130000" lon="-2.656679000">
        <ele>803.80</ele>
        <time>2016-10-29T07:23:57Z</time>
      </trkpt>
      <trkpt lat="42.358105000" lon="-2.656682000">
        <ele>804.00</ele>
        <time>2016-10-29T07:23:58Z</time>
      </trkpt>
      <trkpt lat="42.358076000" lon="-2.656682000">
        <ele>804.10</ele>
        <time>2016-10-29T07:23:59Z</time>
      </trkpt>
      <trkpt lat="42.358049000" lon="-2.656685000">
        <ele>804.30</ele>
        <time>2016-10-29T07:24:00Z</time>
      </trkpt>
      <trkpt lat="42.358025000" lon="-2.656685000">
        <ele>804.50</ele>
        <time>2016-10-29T07:24:01Z</time>
      </trkpt>
      <trkpt lat="42.358000000" lon="-2.656691000">
        <ele>804.60</ele>
        <time>2016-10-29T07:24:02Z</time>
      </trkpt>
      <trkpt lat="42.357976000" lon="-2.656693000">
        <ele>804.80</ele>
        <time>2016-10-29T07:24:03Z</time>
      </trkpt>
      <trkpt lat="42.357952000" lon="-2.656699000">
        <ele>805.00</ele>
        <time>2016-10-29T07:24:04Z</time>
      </trkpt>
      <trkpt lat="42.357929000" lon="-2.656708000">
        <ele>805.20</ele>
        <time>2016-10-29T07:24:05Z</time>
      </trkpt>
      <trkpt lat="42.357904000" lon="-2.656716000">
        <ele>805.30</ele>
        <time>2016-10-29T07:24:06Z</time>
      </trkpt>
      <trkpt lat="42.357878000" lon="-2.656723000">
        <ele>805.40</ele>
        <time>2016-10-29T07:24:07Z</time>
      </trkpt>
      <trkpt lat="42.357855000" lon="-2.656727000">
        <ele>805.50</ele>
        <time>2016-10-29T07:24:08Z</time>
      </trkpt>
      <trkpt lat="42.357805000" lon="-2.656733000">
        <ele>805.90</ele>
        <time>2016-10-29T07:24:10Z</time>
      </trkpt>
      <trkpt lat="42.357783000" lon="-2.656734000">
        <ele>806.10</ele>
        <time>2016-10-29T07:24:11Z</time>
      </trkpt>
      <trkpt lat="42.357759000" lon="-2.656735000">
        <ele>806.20</ele>
        <time>2016-10-29T07:24:12Z</time>
      </trkpt>
      <trkpt lat="42.357732000" lon="-2.656740000">
        <ele>806.50</ele>
        <time>2016-10-29T07:24:13Z</time>
      </trkpt>
      <trkpt lat="42.357710000" lon="-2.656742000">
        <ele>806.60</ele>
        <time>2016-10-29T07:24:14Z</time>
      </trkpt>
      <trkpt lat="42.357689000" lon="-2.656743000">
        <ele>806.80</ele>
        <time>2016-10-29T07:24:15Z</time>
      </trkpt>
      <trkpt lat="42.357665000" lon="-2.656748000">
        <ele>806.90</ele>
        <time>2016-10-29T07:24:16Z</time>
      </trkpt>
      <trkpt lat="42.357644000" lon="-2.656752000">
        <ele>807.00</ele>
        <time>2016-10-29T07:24:17Z</time>
      </trkpt>
      <trkpt lat="42.357622000" lon="-2.656756000">
        <ele>807.10</ele>
        <time>2016-10-29T07:24:18Z</time>
      </trkpt>
      <trkpt lat="42.357599000" lon="-2.656758000">
        <ele>807.10</ele>
        <time>2016-10-29T07:24:19Z</time>
      </trkpt>
      <trkpt lat="42.357576000" lon="-2.656763000">
        <ele>807.20</ele>
        <time>2016-10-29T07:24:20Z</time>
      </trkpt>
      <trkpt lat="42.357555000" lon="-2.656766000">
        <ele>807.30</ele>
        <time>2016-10-29T07:24:21Z</time>
      </trkpt>
      <trkpt lat="42.357531000" lon="-2.656766000">
        <ele>807.40</ele>
        <time>2016-10-29T07:24:22Z</time>
      </trkpt>
      <trkpt lat="42.357506000" lon="-2.656771000">
        <ele>807.70</ele>
        <time>2016-10-29T07:24:23Z</time>
      </trkpt>
      <trkpt lat="42.357481000" lon="-2.656774000">
        <ele>808.00</ele>
        <time>2016-10-29T07:24:24Z</time>
      </trkpt>
      <trkpt lat="42.357455000" lon="-2.656778000">
        <ele>808.10</ele>
        <time>2016-10-29T07:24:25Z</time>
      </trkpt>
      <trkpt lat="42.357430000" lon="-2.656781000">
        <ele>808.20</ele>
        <time>2016-10-29T07:24:26Z</time>
      </trkpt>
      <trkpt lat="42.357409000" lon="-2.656786000">
        <ele>808.40</ele>
        <time>2016-10-29T07:24:27Z</time>
      </trkpt>
      <trkpt lat="42.357385000" lon="-2.656787000">
        <ele>808.50</ele>
        <time>2016-10-29T07:24:28Z</time>
      </trkpt>
      <trkpt lat="42.357359000" lon="-2.656788000">
        <ele>808.60</ele>
        <time>2016-10-29T07:24:29Z</time>
      </trkpt>
      <trkpt lat="42.357334000" lon="-2.656790000">
        <ele>808.70</ele>
        <time>2016-10-29T07:24:30Z</time>
      </trkpt>
      <trkpt lat="42.357311000" lon="-2.656793000">
        <ele>808.80</ele>
        <time>2016-10-29T07:24:31Z</time>
      </trkpt>
      <trkpt lat="42.357289000" lon="-2.656797000">
        <ele>808.90</ele>
        <time>2016-10-29T07:24:32Z</time>
      </trkpt>
      <trkpt lat="42.357269000" lon="-2.656798000">
        <ele>809.10</ele>
        <time>2016-10-29T07:24:33Z</time>
      </trkpt>
      <trkpt lat="42.357247000" lon="-2.656796000">
        <ele>809.30</ele>
        <time>2016-10-29T07:24:34Z</time>
      </trkpt>
      <trkpt lat="42.357231000" lon="-2.656796000">
        <ele>809.50</ele>
        <time>2016-10-29T07:24:35Z</time>
      </trkpt>
      <trkpt lat="42.357214000" lon="-2.656793000">
        <ele>809.60</ele>
        <time>2016-10-29T07:24:36Z</time>
      </trkpt>
      <trkpt lat="42.357195000" lon="-2.656796000">
        <ele>809.80</ele>
        <time>2016-10-29T07:24:37Z</time>
      </trkpt>
      <trkpt lat="42.357175000" lon="-2.656796000">
        <ele>809.90</ele>
        <time>2016-10-29T07:24:38Z</time>
      </trkpt>
      <trkpt lat="42.357153000" lon="-2.656785000">
        <ele>810.00</ele>
        <time>2016-10-29T07:24:39Z</time>
      </trkpt>
      <trkpt lat="42.357134000" lon="-2.656773000">
        <ele>810.10</ele>
        <time>2016-10-29T07:24:40Z</time>
      </trkpt>
      <trkpt lat="42.357116000" lon="-2.656764000">
        <ele>810.20</ele>
        <time>2016-10-29T07:24:41Z</time>
      </trkpt>
      <trkpt lat="42.357096000" lon="-2.656754000">
        <ele>810.30</ele>
        <time>2016-10-29T07:24:42Z</time>
      </trkpt>
      <trkpt lat="42.357084000" lon="-2.656739000">
        <ele>810.50</ele>
        <time>2016-10-29T07:24:43Z</time>
      </trkpt>
      <trkpt lat="42.357071000" lon="-2.656727000">
        <ele>810.60</ele>
        <time>2016-10-29T07:24:44Z</time>
      </trkpt>
      <trkpt lat="42.357055000" lon="-2.656712000">
        <ele>810.70</ele>
        <time>2016-10-29T07:24:45Z</time>
      </trkpt>
      <trkpt lat="42.357038000" lon="-2.656699000">
        <ele>810.80</ele>
        <time>2016-10-29T07:24:46Z</time>
      </trkpt>
      <trkpt lat="42.357022000" lon="-2.656687000">
        <ele>811.00</ele>
        <time>2016-10-29T07:24:47Z</time>
      </trkpt>
      <trkpt lat="42.357008000" lon="-2.656677000">
        <ele>811.20</ele>
        <time>2016-10-29T07:24:48Z</time>
      </trkpt>
      <trkpt lat="42.356995000" lon="-2.656666000">
        <ele>811.60</ele>
        <time>2016-10-29T07:24:49Z</time>
      </trkpt>
      <trkpt lat="42.356982000" lon="-2.656656000">
        <ele>811.90</ele>
        <time>2016-10-29T07:24:50Z</time>
      </trkpt>
      <trkpt lat="42.356968000" lon="-2.656647000">
        <ele>812.30</ele>
        <time>2016-10-29T07:24:51Z</time>
      </trkpt>
      <trkpt lat="42.356951000" lon="-2.656640000">
        <ele>812.60</ele>
        <time>2016-10-29T07:24:52Z</time>
      </trkpt>
      <trkpt lat="42.356932000" lon="-2.656631000">
        <ele>812.80</ele>
        <time>2016-10-29T07:24:53Z</time>
      </trkpt>
      <trkpt lat="42.356914000" lon="-2.656623000">
        <ele>813.00</ele>
        <time>2016-10-29T07:24:54Z</time>
      </trkpt>
      <trkpt lat="42.356895000" lon="-2.656612000">
        <ele>813.20</ele>
        <time>2016-10-29T07:24:55Z</time>
      </trkpt>
      <trkpt lat="42.356878000" lon="-2.656604000">
        <ele>813.30</ele>
        <time>2016-10-29T07:24:56Z</time>
      </trkpt>
      <trkpt lat="42.356858000" lon="-2.656596000">
        <ele>813.40</ele>
        <time>2016-10-29T07:24:57Z</time>
      </trkpt>
      <trkpt lat="42.356841000" lon="-2.656590000">
        <ele>813.50</ele>
        <time>2016-10-29T07:24:58Z</time>
      </trkpt>
      <trkpt lat="42.356826000" lon="-2.656584000">
        <ele>813.70</ele>
        <time>2016-10-29T07:24:59Z</time>
      </trkpt>
      <trkpt lat="42.356811000" lon="-2.656577000">
        <ele>813.80</ele>
        <time>2016-10-29T07:25:00Z</time>
      </trkpt>
      <trkpt lat="42.356795000" lon="-2.656570000">
        <ele>814.00</ele>
        <time>2016-10-29T07:25:01Z</time>
      </trkpt>
      <trkpt lat="42.356781000" lon="-2.656563000">
        <ele>814.20</ele>
        <time>2016-10-29T07:25:02Z</time>
      </trkpt>
      <trkpt lat="42.356765000" lon="-2.656553000">
        <ele>814.50</ele>
        <time>2016-10-29T07:25:03Z</time>
      </trkpt>
      <trkpt lat="42.356750000" lon="-2.656541000">
        <ele>814.70</ele>
        <time>2016-10-29T07:25:04Z</time>
      </trkpt>
      <trkpt lat="42.356737000" lon="-2.656533000">
        <ele>814.90</ele>
        <time>2016-10-29T07:25:05Z</time>
      </trkpt>
      <trkpt lat="42.356719000" lon="-2.656524000">
        <ele>815.10</ele>
        <time>2016-10-29T07:25:06Z</time>
      </trkpt>
      <trkpt lat="42.356703000" lon="-2.656520000">
        <ele>815.30</ele>
        <time>2016-10-29T07:25:07Z</time>
      </trkpt>
      <trkpt lat="42.356688000" lon="-2.656515000">
        <ele>815.40</ele>
        <time>2016-10-29T07:25:08Z</time>
      </trkpt>
      <trkpt lat="42.356675000" lon="-2.656514000">
        <ele>815.60</ele>
        <time>2016-10-29T07:25:09Z</time>
      </trkpt>
      <trkpt lat="42.356651000" lon="-2.656499000">
        <ele>815.80</ele>
        <time>2016-10-29T07:25:11Z</time>
      </trkpt>
      <trkpt lat="42.356637000" lon="-2.656487000">
        <ele>815.90</ele>
        <time>2016-10-29T07:25:12Z</time>
      </trkpt>
      <trkpt lat="42.356624000" lon="-2.656476000">
        <ele>816.20</ele>
        <time>2016-10-29T07:25:13Z</time>
      </trkpt>
      <trkpt lat="42.356608000" lon="-2.656464000">
        <ele>816.50</ele>
        <time>2016-10-29T07:25:14Z</time>
      </trkpt>
      <trkpt lat="42.356594000" lon="-2.656459000">
        <ele>816.70</ele>
        <time>2016-10-29T07:25:15Z</time>
      </trkpt>
      <trkpt lat="42.356579000" lon="-2.656451000">
        <ele>816.90</ele>
        <time>2016-10-29T07:25:16Z</time>
      </trkpt>
      <trkpt lat="42.356564000" lon="-2.656442000">
        <ele>817.10</ele>
        <time>2016-10-29T07:25:17Z</time>
      </trkpt>
      <trkpt lat="42.356551000" lon="-2.656430000">
        <ele>817.20</ele>
        <time>2016-10-29T07:25:18Z</time>
      </trkpt>
      <trkpt lat="42.356537000" lon="-2.656420000">
        <ele>817.40</ele>
        <time>2016-10-29T07:25:19Z</time>
      </trkpt>
      <trkpt lat="42.356525000" lon="-2.656412000">
        <ele>817.50</ele>
        <time>2016-10-29T07:25:20Z</time>
      </trkpt>
      <trkpt lat="42.356514000" lon="-2.656401000">
        <ele>818.00</ele>
        <time>2016-10-29T07:25:21Z</time>
      </trkpt>
      <trkpt lat="42.356501000" lon="-2.656389000">
        <ele>818.30</ele>
        <time>2016-10-29T07:25:22Z</time>
      </trkpt>
      <trkpt lat="42.356488000" lon="-2.656380000">
        <ele>818.60</ele>
        <time>2016-10-29T07:25:23Z</time>
      </trkpt>
      <trkpt lat="42.356476000" lon="-2.656366000">
        <ele>818.80</ele>
        <time>2016-10-29T07:25:24Z</time>
      </trkpt>
      <trkpt lat="42.356464000" lon="-2.656354000">
        <ele>818.90</ele>
        <time>2016-10-29T07:25:25Z</time>
      </trkpt>
      <trkpt lat="42.356450000" lon="-2.656342000">
        <ele>819.10</ele>
        <time>2016-10-29T07:25:26Z</time>
      </trkpt>
      <trkpt lat="42.356436000" lon="-2.656329000">
        <ele>819.40</ele>
        <time>2016-10-29T07:25:27Z</time>
      </trkpt>
      <trkpt lat="42.356422000" lon="-2.656321000">
        <ele>819.70</ele>
        <time>2016-10-29T07:25:28Z</time>
      </trkpt>
      <trkpt lat="42.356408000" lon="-2.656309000">
        <ele>820.00</ele>
        <time>2016-10-29T07:25:29Z</time>
      </trkpt>
      <trkpt lat="42.356395000" lon="-2.656298000">
        <ele>820.20</ele>
        <time>2016-10-29T07:25:30Z</time>
      </trkpt>
      <trkpt lat="42.356381000" lon="-2.656285000">
        <ele>820.40</ele>
        <time>2016-10-29T07:25:31Z</time>
      </trkpt>
      <trkpt lat="42.356368000" lon="-2.656276000">
        <ele>820.70</ele>
        <time>2016-10-29T07:25:32Z</time>
      </trkpt>
      <trkpt lat="42.356355000" lon="-2.656263000">
        <ele>820.90</ele>
        <time>2016-10-29T07:25:33Z</time>
      </trkpt>
      <trkpt lat="42.356341000" lon="-2.656253000">
        <ele>821.20</ele>
        <time>2016-10-29T07:25:34Z</time>
      </trkpt>
      <trkpt lat="42.356327000" lon="-2.656246000">
        <ele>821.50</ele>
        <time>2016-10-29T07:25:35Z</time>
      </trkpt>
      <trkpt lat="42.356311000" lon="-2.656237000">
        <ele>821.70</ele>
        <time>2016-10-29T07:25:36Z</time>
      </trkpt>
      <trkpt lat="42.356297000" lon="-2.656227000">
        <ele>822.10</ele>
        <time>2016-10-29T07:25:37Z</time>
      </trkpt>
      <trkpt lat="42.356283000" lon="-2.656218000">
        <ele>822.40</ele>
        <time>2016-10-29T07:25:38Z</time>
      </trkpt>
      <trkpt lat="42.356269000" lon="-2.656216000">
        <ele>822.60</ele>
        <time>2016-10-29T07:25:39Z</time>
      </trkpt>
      <trkpt lat="42.356254000" lon="-2.656216000">
        <ele>822.80</ele>
        <time>2016-10-29T07:25:40Z</time>
      </trkpt>
      <trkpt lat="42.356239000" lon="-2.656213000">
        <ele>823.10</ele>
        <time>2016-10-29T07:25:41Z</time>
      </trkpt>
      <trkpt lat="42.356225000" lon="-2.656209000">
        <ele>823.30</ele>
        <time>2016-10-29T07:25:42Z</time>
      </trkpt>
      <trkpt lat="42.356212000" lon="-2.656203000">
        <ele>823.40</ele>
        <time>2016-10-29T07:25:43Z</time>
      </trkpt>
      <trkpt lat="42.356197000" lon="-2.656193000">
        <ele>823.50</ele>
        <time>2016-10-29T07:25:44Z</time>
      </trkpt>
      <trkpt lat="42.356183000" lon="-2.656188000">
        <ele>823.70</ele>
        <time>2016-10-29T07:25:45Z</time>
      </trkpt>
      <trkpt lat="42.356167000" lon="-2.656183000">
        <ele>823.80</ele>
        <time>2016-10-29T07:25:46Z</time>
      </trkpt>
      <trkpt lat="42.356156000" lon="-2.656179000">
        <ele>824.30</ele>
        <time>2016-10-29T07:25:47Z</time>
      </trkpt>
      <trkpt lat="42.356142000" lon="-2.656179000">
        <ele>824.60</ele>
        <time>2016-10-29T07:25:48Z</time>
      </trkpt>
      <trkpt lat="42.356125000" lon="-2.656180000">
        <ele>824.90</ele>
        <time>2016-10-29T07:25:49Z</time>
      </trkpt>
      <trkpt lat="42.356108000" lon="-2.656174000">
        <ele>825.10</ele>
        <time>2016-10-29T07:25:50Z</time>
      </trkpt>
      <trkpt lat="42.356091000" lon="-2.656172000">
        <ele>825.30</ele>
        <time>2016-10-29T07:25:51Z</time>
      </trkpt>
      <trkpt lat="42.356072000" lon="-2.656170000">
        <ele>825.50</ele>
        <time>2016-10-29T07:25:52Z</time>
      </trkpt>
      <trkpt lat="42.356055000" lon="-2.656168000">
        <ele>825.80</ele>
        <time>2016-10-29T07:25:53Z</time>
      </trkpt>
      <trkpt lat="42.356038000" lon="-2.656164000">
        <ele>826.00</ele>
        <time>2016-10-29T07:25:54Z</time>
      </trkpt>
      <trkpt lat="42.356019000" lon="-2.656161000">
        <ele>826.30</ele>
        <time>2016-10-29T07:25:55Z</time>
      </trkpt>
      <trkpt lat="42.356001000" lon="-2.656158000">
        <ele>826.40</ele>
        <time>2016-10-29T07:25:56Z</time>
      </trkpt>
      <trkpt lat="42.355985000" lon="-2.656153000">
        <ele>826.50</ele>
        <time>2016-10-29T07:25:57Z</time>
      </trkpt>
      <trkpt lat="42.355968000" lon="-2.656151000">
        <ele>826.60</ele>
        <time>2016-10-29T07:25:58Z</time>
      </trkpt>
      <trkpt lat="42.355950000" lon="-2.656148000">
        <ele>826.70</ele>
        <time>2016-10-29T07:25:59Z</time>
      </trkpt>
      <trkpt lat="42.355932000" lon="-2.656145000">
        <ele>826.70</ele>
        <time>2016-10-29T07:26:00Z</time>
      </trkpt>
      <trkpt lat="42.355915000" lon="-2.656140000">
        <ele>826.80</ele>
        <time>2016-10-29T07:26:01Z</time>
      </trkpt>
      <trkpt lat="42.355897000" lon="-2.656136000">
        <ele>826.80</ele>
        <time>2016-10-29T07:26:02Z</time>
      </trkpt>
      <trkpt lat="42.355879000" lon="-2.656135000">
        <ele>826.90</ele>
        <time>2016-10-29T07:26:03Z</time>
      </trkpt>
      <trkpt lat="42.355862000" lon="-2.656131000">
        <ele>826.90</ele>
        <time>2016-10-29T07:26:04Z</time>
      </trkpt>
      <trkpt lat="42.355845000" lon="-2.656128000">
        <ele>826.90</ele>
        <time>2016-10-29T07:26:05Z</time>
      </trkpt>
      <trkpt lat="42.355828000" lon="-2.656123000">
        <ele>826.90</ele>
        <time>2016-10-29T07:26:06Z</time>
      </trkpt>
      <trkpt lat="42.355811000" lon="-2.656118000">
        <ele>827.10</ele>
        <time>2016-10-29T07:26:07Z</time>
      </trkpt>
      <trkpt lat="42.355794000" lon="-2.656112000">
        <ele>827.30</ele>
        <time>2016-10-29T07:26:08Z</time>
      </trkpt>
      <trkpt lat="42.355778000" lon="-2.656106000">
        <ele>827.40</ele>
        <time>2016-10-29T07:26:09Z</time>
      </trkpt>
      <trkpt lat="42.355761000" lon="-2.656100000">
        <ele>827.40</ele>
        <time>2016-10-29T07:26:10Z</time>
      </trkpt>
      <trkpt lat="42.355726000" lon="-2.656090000">
        <ele>827.50</ele>
        <time>2016-10-29T07:26:12Z</time>
      </trkpt>
      <trkpt lat="42.355709000" lon="-2.656083000">
        <ele>827.70</ele>
        <time>2016-10-29T07:26:13Z</time>
      </trkpt>
      <trkpt lat="42.355692000" lon="-2.656073000">
        <ele>827.80</ele>
        <time>2016-10-29T07:26:14Z</time>
      </trkpt>
      <trkpt lat="42.355676000" lon="-2.656068000">
        <ele>828.10</ele>
        <time>2016-10-29T07:26:15Z</time>
      </trkpt>
      <trkpt lat="42.355662000" lon="-2.656062000">
        <ele>828.30</ele>
        <time>2016-10-29T07:26:16Z</time>
      </trkpt>
      <trkpt lat="42.355652000" lon="-2.656058000">
        <ele>828.50</ele>
        <time>2016-10-29T07:26:17Z</time>
      </trkpt>
      <trkpt lat="42.355639000" lon="-2.656048000">
        <ele>828.60</ele>
        <time>2016-10-29T07:26:18Z</time>
      </trkpt>
      <trkpt lat="42.355627000" lon="-2.656040000">
        <ele>828.70</ele>
        <time>2016-10-29T07:26:19Z</time>
      </trkpt>
      <trkpt lat="42.355615000" lon="-2.656031000">
        <ele>828.80</ele>
        <time>2016-10-29T07:26:20Z</time>
      </trkpt>
      <trkpt lat="42.355602000" lon="-2.656023000">
        <ele>829.10</ele>
        <time>2016-10-29T07:26:21Z</time>
      </trkpt>
      <trkpt lat="42.355591000" lon="-2.656015000">
        <ele>829.20</ele>
        <time>2016-10-29T07:26:22Z</time>
      </trkpt>
      <trkpt lat="42.355577000" lon="-2.656007000">
        <ele>829.50</ele>
        <time>2016-10-29T07:26:23Z</time>
      </trkpt>
      <trkpt lat="42.355566000" lon="-2.655999000">
        <ele>829.70</ele>
        <time>2016-10-29T07:26:24Z</time>
      </trkpt>
      <trkpt lat="42.355552000" lon="-2.655988000">
        <ele>829.90</ele>
        <time>2016-10-29T07:26:25Z</time>
      </trkpt>
      <trkpt lat="42.355540000" lon="-2.655981000">
        <ele>830.10</ele>
        <time>2016-10-29T07:26:26Z</time>
      </trkpt>
      <trkpt lat="42.355527000" lon="-2.655972000">
        <ele>830.40</ele>
        <time>2016-10-29T07:26:27Z</time>
      </trkpt>
      <trkpt lat="42.355514000" lon="-2.655963000">
        <ele>830.60</ele>
        <time>2016-10-29T07:26:28Z</time>
      </trkpt>
      <trkpt lat="42.355504000" lon="-2.655951000">
        <ele>830.90</ele>
        <time>2016-10-29T07:26:29Z</time>
      </trkpt>
      <trkpt lat="42.355496000" lon="-2.655939000">
        <ele>831.20</ele>
        <time>2016-10-29T07:26:30Z</time>
      </trkpt>
      <trkpt lat="42.355484000" lon="-2.655927000">
        <ele>831.40</ele>
        <time>2016-10-29T07:26:31Z</time>
      </trkpt>
      <trkpt lat="42.355474000" lon="-2.655916000">
        <ele>831.50</ele>
        <time>2016-10-29T07:26:32Z</time>
      </trkpt>
      <trkpt lat="42.355463000" lon="-2.655904000">
        <ele>831.80</ele>
        <time>2016-10-29T07:26:33Z</time>
      </trkpt>
      <trkpt lat="42.355448000" lon="-2.655897000">
        <ele>832.00</ele>
        <time>2016-10-29T07:26:34Z</time>
      </trkpt>
      <trkpt lat="42.355434000" lon="-2.655886000">
        <ele>832.40</ele>
        <time>2016-10-29T07:26:35Z</time>
      </trkpt>
      <trkpt lat="42.355423000" lon="-2.655877000">
        <ele>832.70</ele>
        <time>2016-10-29T07:26:36Z</time>
      </trkpt>
      <trkpt lat="42.355410000" lon="-2.655870000">
        <ele>833.00</ele>
        <time>2016-10-29T07:26:37Z</time>
      </trkpt>
      <trkpt lat="42.355399000" lon="-2.655861000">
        <ele>833.20</ele>
        <time>2016-10-29T07:26:38Z</time>
      </trkpt>
      <trkpt lat="42.355384000" lon="-2.655849000">
        <ele>833.30</ele>
        <time>2016-10-29T07:26:39Z</time>
      </trkpt>
      <trkpt lat="42.355371000" lon="-2.655837000">
        <ele>833.50</ele>
        <time>2016-10-29T07:26:40Z</time>
      </trkpt>
      <trkpt lat="42.355359000" lon="-2.655827000">
        <ele>833.60</ele>
        <time>2016-10-29T07:26:41Z</time>
      </trkpt>
      <trkpt lat="42.355350000" lon="-2.655817000">
        <ele>833.60</ele>
        <time>2016-10-29T07:26:42Z</time>
      </trkpt>
      <trkpt lat="42.355342000" lon="-2.655812000">
        <ele>833.80</ele>
        <time>2016-10-29T07:26:43Z</time>
      </trkpt>
      <trkpt lat="42.355333000" lon="-2.655800000">
        <ele>833.90</ele>
        <time>2016-10-29T07:26:44Z</time>
      </trkpt>
      <trkpt lat="42.355323000" lon="-2.655790000">
        <ele>834.20</ele>
        <time>2016-10-29T07:26:45Z</time>
      </trkpt>
      <trkpt lat="42.355313000" lon="-2.655784000">
        <ele>834.40</ele>
        <time>2016-10-29T07:26:46Z</time>
      </trkpt>
      <trkpt lat="42.355303000" lon="-2.655775000">
        <ele>834.60</ele>
        <time>2016-10-29T07:26:47Z</time>
      </trkpt>
      <trkpt lat="42.355296000" lon="-2.655763000">
        <ele>834.80</ele>
        <time>2016-10-29T07:26:48Z</time>
      </trkpt>
      <trkpt lat="42.355286000" lon="-2.655754000">
        <ele>834.90</ele>
        <time>2016-10-29T07:26:49Z</time>
      </trkpt>
      <trkpt lat="42.355275000" lon="-2.655746000">
        <ele>835.00</ele>
        <time>2016-10-29T07:26:50Z</time>
      </trkpt>
      <trkpt lat="42.355264000" lon="-2.655732000">
        <ele>835.20</ele>
        <time>2016-10-29T07:26:51Z</time>
      </trkpt>
      <trkpt lat="42.355255000" lon="-2.655720000">
        <ele>835.40</ele>
        <time>2016-10-29T07:26:52Z</time>
      </trkpt>
      <trkpt lat="42.355244000" lon="-2.655713000">
        <ele>835.70</ele>
        <time>2016-10-29T07:26:53Z</time>
      </trkpt>
      <trkpt lat="42.355233000" lon="-2.655706000">
        <ele>835.90</ele>
        <time>2016-10-29T07:26:54Z</time>
      </trkpt>
      <trkpt lat="42.355224000" lon="-2.655689000">
        <ele>836.20</ele>
        <time>2016-10-29T07:26:55Z</time>
      </trkpt>
      <trkpt lat="42.355218000" lon="-2.655677000">
        <ele>836.40</ele>
        <time>2016-10-29T07:26:56Z</time>
      </trkpt>
      <trkpt lat="42.355209000" lon="-2.655669000">
        <ele>836.60</ele>
        <time>2016-10-29T07:26:57Z</time>
      </trkpt>
      <trkpt lat="42.355200000" lon="-2.655658000">
        <ele>836.80</ele>
        <time>2016-10-29T07:26:58Z</time>
      </trkpt>
      <trkpt lat="42.355191000" lon="-2.655648000">
        <ele>837.10</ele>
        <time>2016-10-29T07:26:59Z</time>
      </trkpt>
      <trkpt lat="42.355181000" lon="-2.655641000">
        <ele>837.30</ele>
        <time>2016-10-29T07:27:00Z</time>
      </trkpt>
      <trkpt lat="42.355168000" lon="-2.655633000">
        <ele>837.60</ele>
        <time>2016-10-29T07:27:01Z</time>
      </trkpt>
      <trkpt lat="42.355158000" lon="-2.655619000">
        <ele>837.80</ele>
        <time>2016-10-29T07:27:02Z</time>
      </trkpt>
      <trkpt lat="42.355148000" lon="-2.655607000">
        <ele>838.00</ele>
        <time>2016-10-29T07:27:03Z</time>
      </trkpt>
      <trkpt lat="42.355139000" lon="-2.655596000">
        <ele>838.30</ele>
        <time>2016-10-29T07:27:04Z</time>
      </trkpt>
      <trkpt lat="42.355125000" lon="-2.655584000">
        <ele>838.40</ele>
        <time>2016-10-29T07:27:05Z</time>
      </trkpt>
      <trkpt lat="42.355112000" lon="-2.655571000">
        <ele>838.50</ele>
        <time>2016-10-29T07:27:06Z</time>
      </trkpt>
      <trkpt lat="42.355100000" lon="-2.655560000">
        <ele>838.70</ele>
        <time>2016-10-29T07:27:07Z</time>
      </trkpt>
      <trkpt lat="42.355088000" lon="-2.655549000">
        <ele>838.90</ele>
        <time>2016-10-29T07:27:08Z</time>
      </trkpt>
      <trkpt lat="42.355077000" lon="-2.655537000">
        <ele>839.00</ele>
        <time>2016-10-29T07:27:09Z</time>
      </trkpt>
      <trkpt lat="42.355067000" lon="-2.655527000">
        <ele>839.10</ele>
        <time>2016-10-29T07:27:10Z</time>
      </trkpt>
      <trkpt lat="42.355057000" lon="-2.655516000">
        <ele>839.40</ele>
        <time>2016-10-29T07:27:11Z</time>
      </trkpt>
      <trkpt lat="42.355039000" lon="-2.655482000">
        <ele>839.70</ele>
        <time>2016-10-29T07:27:13Z</time>
      </trkpt>
      <trkpt lat="42.355028000" lon="-2.655472000">
        <ele>839.80</ele>
        <time>2016-10-29T07:27:14Z</time>
      </trkpt>
      <trkpt lat="42.355019000" lon="-2.655462000">
        <ele>839.90</ele>
        <time>2016-10-29T07:27:15Z</time>
      </trkpt>
      <trkpt lat="42.355008000" lon="-2.655456000">
        <ele>839.90</ele>
        <time>2016-10-29T07:27:16Z</time>
      </trkpt>
      <trkpt lat="42.354998000" lon="-2.655447000">
        <ele>840.00</ele>
        <time>2016-10-29T07:27:17Z</time>
      </trkpt>
      <trkpt lat="42.354988000" lon="-2.655439000">
        <ele>840.10</ele>
        <time>2016-10-29T07:27:18Z</time>
      </trkpt>
      <trkpt lat="42.354977000" lon="-2.655428000">
        <ele>840.50</ele>
        <time>2016-10-29T07:27:19Z</time>
      </trkpt>
      <trkpt lat="42.354969000" lon="-2.655418000">
        <ele>840.90</ele>
        <time>2016-10-29T07:27:20Z</time>
      </trkpt>
      <trkpt lat="42.354962000" lon="-2.655407000">
        <ele>841.10</ele>
        <time>2016-10-29T07:27:21Z</time>
      </trkpt>
      <trkpt lat="42.354953000" lon="-2.655394000">
        <ele>841.30</ele>
        <time>2016-10-29T07:27:22Z</time>
      </trkpt>
      <trkpt lat="42.354943000" lon="-2.655385000">
        <ele>841.40</ele>
        <time>2016-10-29T07:27:23Z</time>
      </trkpt>
      <trkpt lat="42.354934000" lon="-2.655374000">
        <ele>841.50</ele>
        <time>2016-10-29T07:27:24Z</time>
      </trkpt>
      <trkpt lat="42.354922000" lon="-2.655365000">
        <ele>841.60</ele>
        <time>2016-10-29T07:27:25Z</time>
      </trkpt>
      <trkpt lat="42.354913000" lon="-2.655351000">
        <ele>841.70</ele>
        <time>2016-10-29T07:27:26Z</time>
      </trkpt>
      <trkpt lat="42.354902000" lon="-2.655338000">
        <ele>842.10</ele>
        <time>2016-10-29T07:27:27Z</time>
      </trkpt>
      <trkpt lat="42.354892000" lon="-2.655326000">
        <ele>842.40</ele>
        <time>2016-10-29T07:27:28Z</time>
      </trkpt>
      <trkpt lat="42.354886000" lon="-2.655312000">
        <ele>842.70</ele>
        <time>2016-10-29T07:27:29Z</time>
      </trkpt>
      <trkpt lat="42.354876000" lon="-2.655299000">
        <ele>842.90</ele>
        <time>2016-10-29T07:27:30Z</time>
      </trkpt>
      <trkpt lat="42.354867000" lon="-2.655287000">
        <ele>843.10</ele>
        <time>2016-10-29T07:27:31Z</time>
      </trkpt>
      <trkpt lat="42.354858000" lon="-2.655275000">
        <ele>843.20</ele>
        <time>2016-10-29T07:27:32Z</time>
      </trkpt>
      <trkpt lat="42.354849000" lon="-2.655263000">
        <ele>843.30</ele>
        <time>2016-10-29T07:27:33Z</time>
      </trkpt>
      <trkpt lat="42.354841000" lon="-2.655254000">
        <ele>843.50</ele>
        <time>2016-10-29T07:27:34Z</time>
      </trkpt>
      <trkpt lat="42.354833000" lon="-2.655243000">
        <ele>843.60</ele>
        <time>2016-10-29T07:27:35Z</time>
      </trkpt>
      <trkpt lat="42.354823000" lon="-2.655230000">
        <ele>843.70</ele>
        <time>2016-10-29T07:27:36Z</time>
      </trkpt>
      <trkpt lat="42.354813000" lon="-2.655218000">
        <ele>843.90</ele>
        <time>2016-10-29T07:27:37Z</time>
      </trkpt>
      <trkpt lat="42.354804000" lon="-2.655207000">
        <ele>844.00</ele>
        <time>2016-10-29T07:27:38Z</time>
      </trkpt>
      <trkpt lat="42.354790000" lon="-2.655198000">
        <ele>844.20</ele>
        <time>2016-10-29T07:27:39Z</time>
      </trkpt>
      <trkpt lat="42.354779000" lon="-2.655192000">
        <ele>844.40</ele>
        <time>2016-10-29T07:27:40Z</time>
      </trkpt>
      <trkpt lat="42.354770000" lon="-2.655177000">
        <ele>844.60</ele>
        <time>2016-10-29T07:27:41Z</time>
      </trkpt>
      <trkpt lat="42.354761000" lon="-2.655163000">
        <ele>844.70</ele>
        <time>2016-10-29T07:27:42Z</time>
      </trkpt>
      <trkpt lat="42.354752000" lon="-2.655146000">
        <ele>844.90</ele>
        <time>2016-10-29T07:27:43Z</time>
      </trkpt>
      <trkpt lat="42.354742000" lon="-2.655130000">
        <ele>844.90</ele>
        <time>2016-10-29T07:27:44Z</time>
      </trkpt>
      <trkpt lat="42.354731000" lon="-2.655114000">
        <ele>845.00</ele>
        <time>2016-10-29T07:27:45Z</time>
      </trkpt>
      <trkpt lat="42.354720000" lon="-2.655105000">
        <ele>845.00</ele>
        <time>2016-10-29T07:27:46Z</time>
      </trkpt>
      <trkpt lat="42.354711000" lon="-2.655089000">
        <ele>845.30</ele>
        <time>2016-10-29T07:27:47Z</time>
      </trkpt>
      <trkpt lat="42.354700000" lon="-2.655076000">
        <ele>845.60</ele>
        <time>2016-10-29T07:27:48Z</time>
      </trkpt>
      <trkpt lat="42.354692000" lon="-2.655068000">
        <ele>845.70</ele>
        <time>2016-10-29T07:27:49Z</time>
      </trkpt>
      <trkpt lat="42.354682000" lon="-2.655054000">
        <ele>845.90</ele>
        <time>2016-10-29T07:27:50Z</time>
      </trkpt>
      <trkpt lat="42.354675000" lon="-2.655043000">
        <ele>846.00</ele>
        <time>2016-10-29T07:27:51Z</time>
      </trkpt>
      <trkpt lat="42.354665000" lon="-2.655032000">
        <ele>846.10</ele>
        <time>2016-10-29T07:27:52Z</time>
      </trkpt>
      <trkpt lat="42.354659000" lon="-2.655022000">
        <ele>846.40</ele>
        <time>2016-10-29T07:27:53Z</time>
      </trkpt>
      <trkpt lat="42.354648000" lon="-2.655010000">
        <ele>846.60</ele>
        <time>2016-10-29T07:27:54Z</time>
      </trkpt>
      <trkpt lat="42.354636000" lon="-2.654999000">
        <ele>846.90</ele>
        <time>2016-10-29T07:27:55Z</time>
      </trkpt>
      <trkpt lat="42.354629000" lon="-2.654988000">
        <ele>847.10</ele>
        <time>2016-10-29T07:27:56Z</time>
      </trkpt>
      <trkpt lat="42.354620000" lon="-2.654978000">
        <ele>847.40</ele>
        <time>2016-10-29T07:27:57Z</time>
      </trkpt>
      <trkpt lat="42.354609000" lon="-2.654966000">
        <ele>847.60</ele>
        <time>2016-10-29T07:27:58Z</time>
      </trkpt>
      <trkpt lat="42.354602000" lon="-2.654953000">
        <ele>847.90</ele>
        <time>2016-10-29T07:27:59Z</time>
      </trkpt>
      <trkpt lat="42.354596000" lon="-2.654939000">
        <ele>848.00</ele>
        <time>2016-10-29T07:28:00Z</time>
      </trkpt>
      <trkpt lat="42.354586000" lon="-2.654928000">
        <ele>848.20</ele>
        <time>2016-10-29T07:28:01Z</time>
      </trkpt>
      <trkpt lat="42.354578000" lon="-2.654918000">
        <ele>848.30</ele>
        <time>2016-10-29T07:28:02Z</time>
      </trkpt>
      <trkpt lat="42.354569000" lon="-2.654907000">
        <ele>848.50</ele>
        <time>2016-10-29T07:28:03Z</time>
      </trkpt>
      <trkpt lat="42.354560000" lon="-2.654893000">
        <ele>848.70</ele>
        <time>2016-10-29T07:28:04Z</time>
      </trkpt>
      <trkpt lat="42.354547000" lon="-2.654881000">
        <ele>848.90</ele>
        <time>2016-10-29T07:28:05Z</time>
      </trkpt>
      <trkpt lat="42.354537000" lon="-2.654868000">
        <ele>849.00</ele>
        <time>2016-10-29T07:28:06Z</time>
      </trkpt>
      <trkpt lat="42.354527000" lon="-2.654856000">
        <ele>849.20</ele>
        <time>2016-10-29T07:28:07Z</time>
      </trkpt>
      <trkpt lat="42.354519000" lon="-2.654841000">
        <ele>849.40</ele>
        <time>2016-10-29T07:28:08Z</time>
      </trkpt>
      <trkpt lat="42.354511000" lon="-2.654826000">
        <ele>849.50</ele>
        <time>2016-10-29T07:28:09Z</time>
      </trkpt>
      <trkpt lat="42.354500000" lon="-2.654816000">
        <ele>849.60</ele>
        <time>2016-10-29T07:28:10Z</time>
      </trkpt>
      <trkpt lat="42.354488000" lon="-2.654808000">
        <ele>849.70</ele>
        <time>2016-10-29T07:28:11Z</time>
      </trkpt>
      <trkpt lat="42.354483000" lon="-2.654797000">
        <ele>849.80</ele>
        <time>2016-10-29T07:28:12Z</time>
      </trkpt>
      <trkpt lat="42.354462000" lon="-2.654774000">
        <ele>850.60</ele>
        <time>2016-10-29T07:28:14Z</time>
      </trkpt>
      <trkpt lat="42.354451000" lon="-2.654764000">
        <ele>851.00</ele>
        <time>2016-10-29T07:28:15Z</time>
      </trkpt>
      <trkpt lat="42.354442000" lon="-2.654752000">
        <ele>851.30</ele>
        <time>2016-10-29T07:28:16Z</time>
      </trkpt>
      <trkpt lat="42.354428000" lon="-2.654746000">
        <ele>851.30</ele>
        <time>2016-10-29T07:28:17Z</time>
      </trkpt>
      <trkpt lat="42.354419000" lon="-2.654736000">
        <ele>851.40</ele>
        <time>2016-10-29T07:28:18Z</time>
      </trkpt>
      <trkpt lat="42.354407000" lon="-2.654724000">
        <ele>851.60</ele>
        <time>2016-10-29T07:28:19Z</time>
      </trkpt>
      <trkpt lat="42.354398000" lon="-2.654711000">
        <ele>851.70</ele>
        <time>2016-10-29T07:28:20Z</time>
      </trkpt>
      <trkpt lat="42.354386000" lon="-2.654699000">
        <ele>851.80</ele>
        <time>2016-10-29T07:28:21Z</time>
      </trkpt>
      <trkpt lat="42.354377000" lon="-2.654689000">
        <ele>851.90</ele>
        <time>2016-10-29T07:28:22Z</time>
      </trkpt>
      <trkpt lat="42.354370000" lon="-2.654677000">
        <ele>852.10</ele>
        <time>2016-10-29T07:28:23Z</time>
      </trkpt>
      <trkpt lat="42.354362000" lon="-2.654669000">
        <ele>852.30</ele>
        <time>2016-10-29T07:28:24Z</time>
      </trkpt>
      <trkpt lat="42.354354000" lon="-2.654660000">
        <ele>852.50</ele>
        <time>2016-10-29T07:28:25Z</time>
      </trkpt>
      <trkpt lat="42.354345000" lon="-2.654647000">
        <ele>852.70</ele>
        <time>2016-10-29T07:28:26Z</time>
      </trkpt>
      <trkpt lat="42.354335000" lon="-2.654636000">
        <ele>852.80</ele>
        <time>2016-10-29T07:28:27Z</time>
      </trkpt>
      <trkpt lat="42.354328000" lon="-2.654623000">
        <ele>852.80</ele>
        <time>2016-10-29T07:28:28Z</time>
      </trkpt>
      <trkpt lat="42.354317000" lon="-2.654613000">
        <ele>852.90</ele>
        <time>2016-10-29T07:28:29Z</time>
      </trkpt>
      <trkpt lat="42.354309000" lon="-2.654602000">
        <ele>853.00</ele>
        <time>2016-10-29T07:28:30Z</time>
      </trkpt>
      <trkpt lat="42.354300000" lon="-2.654596000">
        <ele>853.30</ele>
        <time>2016-10-29T07:28:31Z</time>
      </trkpt>
      <trkpt lat="42.354286000" lon="-2.654585000">
        <ele>853.40</ele>
        <time>2016-10-29T07:28:32Z</time>
      </trkpt>
      <trkpt lat="42.354274000" lon="-2.654573000">
        <ele>853.60</ele>
        <time>2016-10-29T07:28:33Z</time>
      </trkpt>
      <trkpt lat="42.354264000" lon="-2.654558000">
        <ele>853.80</ele>
        <time>2016-10-29T07:28:34Z</time>
      </trkpt>
      <trkpt lat="42.354256000" lon="-2.654553000">
        <ele>854.10</ele>
        <time>2016-10-29T07:28:35Z</time>
      </trkpt>
      <trkpt lat="42.354246000" lon="-2.654544000">
        <ele>854.30</ele>
        <time>2016-10-29T07:28:36Z</time>
      </trkpt>
      <trkpt lat="42.354238000" lon="-2.654530000">
        <ele>854.50</ele>
        <time>2016-10-29T07:28:37Z</time>
      </trkpt>
      <trkpt lat="42.354231000" lon="-2.654519000">
        <ele>854.60</ele>
        <time>2016-10-29T07:28:38Z</time>
      </trkpt>
      <trkpt lat="42.354219000" lon="-2.654510000">
        <ele>854.80</ele>
        <time>2016-10-29T07:28:39Z</time>
      </trkpt>
      <trkpt lat="42.354208000" lon="-2.654499000">
        <ele>854.90</ele>
        <time>2016-10-29T07:28:40Z</time>
      </trkpt>
      <trkpt lat="42.354194000" lon="-2.654490000">
        <ele>855.10</ele>
        <time>2016-10-29T07:28:41Z</time>
      </trkpt>
      <trkpt lat="42.354186000" lon="-2.654477000">
        <ele>855.20</ele>
        <time>2016-10-29T07:28:42Z</time>
      </trkpt>
      <trkpt lat="42.354176000" lon="-2.654463000">
        <ele>855.40</ele>
        <time>2016-10-29T07:28:43Z</time>
      </trkpt>
      <trkpt lat="42.354164000" lon="-2.654454000">
        <ele>855.50</ele>
        <time>2016-10-29T07:28:44Z</time>
      </trkpt>
      <trkpt lat="42.354155000" lon="-2.654442000">
        <ele>855.90</ele>
        <time>2016-10-29T07:28:45Z</time>
      </trkpt>
      <trkpt lat="42.354139000" lon="-2.654433000">
        <ele>856.20</ele>
        <time>2016-10-29T07:28:46Z</time>
      </trkpt>
      <trkpt lat="42.354127000" lon="-2.654422000">
        <ele>856.40</ele>
        <time>2016-10-29T07:28:47Z</time>
      </trkpt>
      <trkpt lat="42.354111000" lon="-2.654413000">
        <ele>856.60</ele>
        <time>2016-10-29T07:28:48Z</time>
      </trkpt>
      <trkpt lat="42.354094000" lon="-2.654406000">
        <ele>856.70</ele>
        <time>2016-10-29T07:28:49Z</time>
      </trkpt>
      <trkpt lat="42.354078000" lon="-2.654391000">
        <ele>856.80</ele>
        <time>2016-10-29T07:28:50Z</time>
      </trkpt>
      <trkpt lat="42.354064000" lon="-2.654385000">
        <ele>856.90</ele>
        <time>2016-10-29T07:28:51Z</time>
      </trkpt>
      <trkpt lat="42.354052000" lon="-2.654379000">
        <ele>856.90</ele>
        <time>2016-10-29T07:28:52Z</time>
      </trkpt>
      <trkpt lat="42.354040000" lon="-2.654373000">
        <ele>857.00</ele>
        <time>2016-10-29T07:28:53Z</time>
      </trkpt>
      <trkpt lat="42.354025000" lon="-2.654358000">
        <ele>857.10</ele>
        <time>2016-10-29T07:28:54Z</time>
      </trkpt>
      <trkpt lat="42.354013000" lon="-2.654351000">
        <ele>857.40</ele>
        <time>2016-10-29T07:28:55Z</time>
      </trkpt>
      <trkpt lat="42.354004000" lon="-2.654345000">
        <ele>857.60</ele>
        <time>2016-10-29T07:28:56Z</time>
      </trkpt>
      <trkpt lat="42.353994000" lon="-2.654336000">
        <ele>857.70</ele>
        <time>2016-10-29T07:28:57Z</time>
      </trkpt>
      <trkpt lat="42.353983000" lon="-2.654328000">
        <ele>857.80</ele>
        <time>2016-10-29T07:28:58Z</time>
      </trkpt>
      <trkpt lat="42.353975000" lon="-2.654316000">
        <ele>858.10</ele>
        <time>2016-10-29T07:28:59Z</time>
      </trkpt>
      <trkpt lat="42.353964000" lon="-2.654304000">
        <ele>858.30</ele>
        <time>2016-10-29T07:29:00Z</time>
      </trkpt>
      <trkpt lat="42.353955000" lon="-2.654294000">
        <ele>858.50</ele>
        <time>2016-10-29T07:29:01Z</time>
      </trkpt>
      <trkpt lat="42.353944000" lon="-2.654283000">
        <ele>858.60</ele>
        <time>2016-10-29T07:29:02Z</time>
      </trkpt>
      <trkpt lat="42.353930000" lon="-2.654276000">
        <ele>858.70</ele>
        <time>2016-10-29T07:29:03Z</time>
      </trkpt>
      <trkpt lat="42.353920000" lon="-2.654268000">
        <ele>858.80</ele>
        <time>2016-10-29T07:29:04Z</time>
      </trkpt>
      <trkpt lat="42.353908000" lon="-2.654255000">
        <ele>859.00</ele>
        <time>2016-10-29T07:29:05Z</time>
      </trkpt>
      <trkpt lat="42.353900000" lon="-2.654249000">
        <ele>859.20</ele>
        <time>2016-10-29T07:29:06Z</time>
      </trkpt>
      <trkpt lat="42.353891000" lon="-2.654239000">
        <ele>859.30</ele>
        <time>2016-10-29T07:29:07Z</time>
      </trkpt>
      <trkpt lat="42.353881000" lon="-2.654229000">
        <ele>859.40</ele>
        <time>2016-10-29T07:29:08Z</time>
      </trkpt>
      <trkpt lat="42.353868000" lon="-2.654219000">
        <ele>859.50</ele>
        <time>2016-10-29T07:29:09Z</time>
      </trkpt>
      <trkpt lat="42.353854000" lon="-2.654211000">
        <ele>859.50</ele>
        <time>2016-10-29T07:29:10Z</time>
      </trkpt>
      <trkpt lat="42.353839000" lon="-2.654204000">
        <ele>859.80</ele>
        <time>2016-10-29T07:29:11Z</time>
      </trkpt>
      <trkpt lat="42.353824000" lon="-2.654182000">
        <ele>859.90</ele>
        <time>2016-10-29T07:29:12Z</time>
      </trkpt>
      <trkpt lat="42.353814000" lon="-2.654171000">
        <ele>860.10</ele>
        <time>2016-10-29T07:29:13Z</time>
      </trkpt>
      <trkpt lat="42.353794000" lon="-2.654144000">
        <ele>860.50</ele>
        <time>2016-10-29T07:29:15Z</time>
      </trkpt>
      <trkpt lat="42.353781000" lon="-2.654129000">
        <ele>860.70</ele>
        <time>2016-10-29T07:29:16Z</time>
      </trkpt>
      <trkpt lat="42.353770000" lon="-2.654121000">
        <ele>860.90</ele>
        <time>2016-10-29T07:29:17Z</time>
      </trkpt>
      <trkpt lat="42.353757000" lon="-2.654115000">
        <ele>861.10</ele>
        <time>2016-10-29T07:29:18Z</time>
      </trkpt>
      <trkpt lat="42.353746000" lon="-2.654104000">
        <ele>861.20</ele>
        <time>2016-10-29T07:29:19Z</time>
      </trkpt>
      <trkpt lat="42.353735000" lon="-2.654094000">
        <ele>861.30</ele>
        <time>2016-10-29T07:29:20Z</time>
      </trkpt>
      <trkpt lat="42.353723000" lon="-2.654084000">
        <ele>861.40</ele>
        <time>2016-10-29T07:29:21Z</time>
      </trkpt>
      <trkpt lat="42.353713000" lon="-2.654077000">
        <ele>861.50</ele>
        <time>2016-10-29T07:29:22Z</time>
      </trkpt>
      <trkpt lat="42.353701000" lon="-2.654071000">
        <ele>861.60</ele>
        <time>2016-10-29T07:29:23Z</time>
      </trkpt>
      <trkpt lat="42.353690000" lon="-2.654060000">
        <ele>861.70</ele>
        <time>2016-10-29T07:29:24Z</time>
      </trkpt>
      <trkpt lat="42.353682000" lon="-2.654052000">
        <ele>862.00</ele>
        <time>2016-10-29T07:29:25Z</time>
      </trkpt>
      <trkpt lat="42.353674000" lon="-2.654039000">
        <ele>862.30</ele>
        <time>2016-10-29T07:29:26Z</time>
      </trkpt>
      <trkpt lat="42.353663000" lon="-2.654029000">
        <ele>862.50</ele>
        <time>2016-10-29T07:29:27Z</time>
      </trkpt>
      <trkpt lat="42.353652000" lon="-2.654023000">
        <ele>862.70</ele>
        <time>2016-10-29T07:29:28Z</time>
      </trkpt>
      <trkpt lat="42.353640000" lon="-2.654016000">
        <ele>862.90</ele>
        <time>2016-10-29T07:29:29Z</time>
      </trkpt>
      <trkpt lat="42.353629000" lon="-2.654009000">
        <ele>863.00</ele>
        <time>2016-10-29T07:29:30Z</time>
      </trkpt>
      <trkpt lat="42.353616000" lon="-2.654000000">
        <ele>863.20</ele>
        <time>2016-10-29T07:29:31Z</time>
      </trkpt>
      <trkpt lat="42.353604000" lon="-2.653993000">
        <ele>863.20</ele>
        <time>2016-10-29T07:29:32Z</time>
      </trkpt>
      <trkpt lat="42.353596000" lon="-2.653979000">
        <ele>863.40</ele>
        <time>2016-10-29T07:29:33Z</time>
      </trkpt>
      <trkpt lat="42.353587000" lon="-2.653969000">
        <ele>863.60</ele>
        <time>2016-10-29T07:29:34Z</time>
      </trkpt>
      <trkpt lat="42.353576000" lon="-2.653963000">
        <ele>863.70</ele>
        <time>2016-10-29T07:29:35Z</time>
      </trkpt>
      <trkpt lat="42.353567000" lon="-2.653952000">
        <ele>863.80</ele>
        <time>2016-10-29T07:29:36Z</time>
      </trkpt>
      <trkpt lat="42.353558000" lon="-2.653945000">
        <ele>863.90</ele>
        <time>2016-10-29T07:29:37Z</time>
      </trkpt>
      <trkpt lat="42.353548000" lon="-2.653935000">
        <ele>864.00</ele>
        <time>2016-10-29T07:29:38Z</time>
      </trkpt>
      <trkpt lat="42.353537000" lon="-2.653927000">
        <ele>864.30</ele>
        <time>2016-10-29T07:29:39Z</time>
      </trkpt>
      <trkpt lat="42.353525000" lon="-2.653917000">
        <ele>864.40</ele>
        <time>2016-10-29T07:29:40Z</time>
      </trkpt>
      <trkpt lat="42.353514000" lon="-2.653909000">
        <ele>864.70</ele>
        <time>2016-10-29T07:29:41Z</time>
      </trkpt>
      <trkpt lat="42.353504000" lon="-2.653901000">
        <ele>864.80</ele>
        <time>2016-10-29T07:29:42Z</time>
      </trkpt>
      <trkpt lat="42.353491000" lon="-2.653891000">
        <ele>865.00</ele>
        <time>2016-10-29T07:29:43Z</time>
      </trkpt>
      <trkpt lat="42.353481000" lon="-2.653880000">
        <ele>865.10</ele>
        <time>2016-10-29T07:29:44Z</time>
      </trkpt>
      <trkpt lat="42.353474000" lon="-2.653866000">
        <ele>865.50</ele>
        <time>2016-10-29T07:29:45Z</time>
      </trkpt>
      <trkpt lat="42.353461000" lon="-2.653858000">
        <ele>865.70</ele>
        <time>2016-10-29T07:29:46Z</time>
      </trkpt>
      <trkpt lat="42.353448000" lon="-2.653849000">
        <ele>866.00</ele>
        <time>2016-10-29T07:29:47Z</time>
      </trkpt>
      <trkpt lat="42.353442000" lon="-2.653844000">
        <ele>866.20</ele>
        <time>2016-10-29T07:29:48Z</time>
      </trkpt>
      <trkpt lat="42.353427000" lon="-2.653832000">
        <ele>866.40</ele>
        <time>2016-10-29T07:29:49Z</time>
      </trkpt>
      <trkpt lat="42.353418000" lon="-2.653825000">
        <ele>866.60</ele>
        <time>2016-10-29T07:29:50Z</time>
      </trkpt>
      <trkpt lat="42.353407000" lon="-2.653817000">
        <ele>866.70</ele>
        <time>2016-10-29T07:29:51Z</time>
      </trkpt>
      <trkpt lat="42.353396000" lon="-2.653810000">
        <ele>866.80</ele>
        <time>2016-10-29T07:29:52Z</time>
      </trkpt>
      <trkpt lat="42.353387000" lon="-2.653796000">
        <ele>867.10</ele>
        <time>2016-10-29T07:29:53Z</time>
      </trkpt>
      <trkpt lat="42.353374000" lon="-2.653786000">
        <ele>867.30</ele>
        <time>2016-10-29T07:29:54Z</time>
      </trkpt>
      <trkpt lat="42.353361000" lon="-2.653775000">
        <ele>867.50</ele>
        <time>2016-10-29T07:29:55Z</time>
      </trkpt>
      <trkpt lat="42.353347000" lon="-2.653761000">
        <ele>867.60</ele>
        <time>2016-10-29T07:29:56Z</time>
      </trkpt>
      <trkpt lat="42.353332000" lon="-2.653749000">
        <ele>867.90</ele>
        <time>2016-10-29T07:29:57Z</time>
      </trkpt>
      <trkpt lat="42.353316000" lon="-2.653742000">
        <ele>868.10</ele>
        <time>2016-10-29T07:29:58Z</time>
      </trkpt>
      <trkpt lat="42.353303000" lon="-2.653732000">
        <ele>868.20</ele>
        <time>2016-10-29T07:29:59Z</time>
      </trkpt>
      <trkpt lat="42.353289000" lon="-2.653725000">
        <ele>868.40</ele>
        <time>2016-10-29T07:30:00Z</time>
      </trkpt>
      <trkpt lat="42.353277000" lon="-2.653713000">
        <ele>868.50</ele>
        <time>2016-10-29T07:30:01Z</time>
      </trkpt>
      <trkpt lat="42.353266000" lon="-2.653702000">
        <ele>868.70</ele>
        <time>2016-10-29T07:30:02Z</time>
      </trkpt>
      <trkpt lat="42.353253000" lon="-2.653689000">
        <ele>868.80</ele>
        <time>2016-10-29T07:30:03Z</time>
      </trkpt>
      <trkpt lat="42.353242000" lon="-2.653680000">
        <ele>868.90</ele>
        <time>2016-10-29T07:30:04Z</time>
      </trkpt>
      <trkpt lat="42.353232000" lon="-2.653669000">
        <ele>869.10</ele>
        <time>2016-10-29T07:30:05Z</time>
      </trkpt>
      <trkpt lat="42.353221000" lon="-2.653661000">
        <ele>869.20</ele>
        <time>2016-10-29T07:30:06Z</time>
      </trkpt>
      <trkpt lat="42.353210000" lon="-2.653651000">
        <ele>869.40</ele>
        <time>2016-10-29T07:30:07Z</time>
      </trkpt>
      <trkpt lat="42.353200000" lon="-2.653643000">
        <ele>869.50</ele>
        <time>2016-10-29T07:30:08Z</time>
      </trkpt>
      <trkpt lat="42.353189000" lon="-2.653632000">
        <ele>869.80</ele>
        <time>2016-10-29T07:30:09Z</time>
      </trkpt>
      <trkpt lat="42.353180000" lon="-2.653626000">
        <ele>870.00</ele>
        <time>2016-10-29T07:30:10Z</time>
      </trkpt>
      <trkpt lat="42.353168000" lon="-2.653616000">
        <ele>870.20</ele>
        <time>2016-10-29T07:30:11Z</time>
      </trkpt>
      <trkpt lat="42.353156000" lon="-2.653609000">
        <ele>870.30</ele>
        <time>2016-10-29T07:30:12Z</time>
      </trkpt>
      <trkpt lat="42.353143000" lon="-2.653601000">
        <ele>870.70</ele>
        <time>2016-10-29T07:30:13Z</time>
      </trkpt>
      <trkpt lat="42.353131000" lon="-2.653592000">
        <ele>870.90</ele>
        <time>2016-10-29T07:30:14Z</time>
      </trkpt>
      <trkpt lat="42.353119000" lon="-2.653584000">
        <ele>871.10</ele>
        <time>2016-10-29T07:30:15Z</time>
      </trkpt>
      <trkpt lat="42.353094000" lon="-2.653563000">
        <ele>871.30</ele>
        <time>2016-10-29T07:30:17Z</time>
      </trkpt>
      <trkpt lat="42.353082000" lon="-2.653553000">
        <ele>871.40</ele>
        <time>2016-10-29T07:30:18Z</time>
      </trkpt>
      <trkpt lat="42.353069000" lon="-2.653541000">
        <ele>871.40</ele>
        <time>2016-10-29T07:30:19Z</time>
      </trkpt>
      <trkpt lat="42.353056000" lon="-2.653530000">
        <ele>871.50</ele>
        <time>2016-10-29T07:30:20Z</time>
      </trkpt>
      <trkpt lat="42.353045000" lon="-2.653518000">
        <ele>871.60</ele>
        <time>2016-10-29T07:30:21Z</time>
      </trkpt>
      <trkpt lat="42.353029000" lon="-2.653508000">
        <ele>871.70</ele>
        <time>2016-10-29T07:30:22Z</time>
      </trkpt>
      <trkpt lat="42.353015000" lon="-2.653496000">
        <ele>871.80</ele>
        <time>2016-10-29T07:30:23Z</time>
      </trkpt>
      <trkpt lat="42.353001000" lon="-2.653488000">
        <ele>871.90</ele>
        <time>2016-10-29T07:30:24Z</time>
      </trkpt>
      <trkpt lat="42.352991000" lon="-2.653481000">
        <ele>872.00</ele>
        <time>2016-10-29T07:30:25Z</time>
      </trkpt>
      <trkpt lat="42.352980000" lon="-2.653474000">
        <ele>872.10</ele>
        <time>2016-10-29T07:30:26Z</time>
      </trkpt>
      <trkpt lat="42.352969000" lon="-2.653467000">
        <ele>872.30</ele>
        <time>2016-10-29T07:30:27Z</time>
      </trkpt>
      <trkpt lat="42.352958000" lon="-2.653457000">
        <ele>872.50</ele>
        <time>2016-10-29T07:30:28Z</time>
      </trkpt>
      <trkpt lat="42.352949000" lon="-2.653449000">
        <ele>872.80</ele>
        <time>2016-10-29T07:30:29Z</time>
      </trkpt>
      <trkpt lat="42.352941000" lon="-2.653440000">
        <ele>873.00</ele>
        <time>2016-10-29T07:30:30Z</time>
      </trkpt>
      <trkpt lat="42.352932000" lon="-2.653430000">
        <ele>873.40</ele>
        <time>2016-10-29T07:30:31Z</time>
      </trkpt>
      <trkpt lat="42.352922000" lon="-2.653420000">
        <ele>873.70</ele>
        <time>2016-10-29T07:30:32Z</time>
      </trkpt>
      <trkpt lat="42.352913000" lon="-2.653410000">
        <ele>874.00</ele>
        <time>2016-10-29T07:30:33Z</time>
      </trkpt>
      <trkpt lat="42.352903000" lon="-2.653399000">
        <ele>874.20</ele>
        <time>2016-10-29T07:30:34Z</time>
      </trkpt>
      <trkpt lat="42.352894000" lon="-2.653389000">
        <ele>874.50</ele>
        <time>2016-10-29T07:30:35Z</time>
      </trkpt>
      <trkpt lat="42.352886000" lon="-2.653381000">
        <ele>874.70</ele>
        <time>2016-10-29T07:30:36Z</time>
      </trkpt>
      <trkpt lat="42.352875000" lon="-2.653370000">
        <ele>874.80</ele>
        <time>2016-10-29T07:30:37Z</time>
      </trkpt>
      <trkpt lat="42.352862000" lon="-2.653357000">
        <ele>874.90</ele>
        <time>2016-10-29T07:30:38Z</time>
      </trkpt>
      <trkpt lat="42.352849000" lon="-2.653346000">
        <ele>875.10</ele>
        <time>2016-10-29T07:30:39Z</time>
      </trkpt>
      <trkpt lat="42.352838000" lon="-2.653335000">
        <ele>875.30</ele>
        <time>2016-10-29T07:30:40Z</time>
      </trkpt>
      <trkpt lat="42.352827000" lon="-2.653320000">
        <ele>875.40</ele>
        <time>2016-10-29T07:30:41Z</time>
      </trkpt>
      <trkpt lat="42.352814000" lon="-2.653310000">
        <ele>875.50</ele>
        <time>2016-10-29T07:30:42Z</time>
      </trkpt>
      <trkpt lat="42.352803000" lon="-2.653297000">
        <ele>875.70</ele>
        <time>2016-10-29T07:30:43Z</time>
      </trkpt>
      <trkpt lat="42.352792000" lon="-2.653286000">
        <ele>875.80</ele>
        <time>2016-10-29T07:30:44Z</time>
      </trkpt>
      <trkpt lat="42.352778000" lon="-2.653273000">
        <ele>875.90</ele>
        <time>2016-10-29T07:30:45Z</time>
      </trkpt>
      <trkpt lat="42.352764000" lon="-2.653262000">
        <ele>876.00</ele>
        <time>2016-10-29T07:30:46Z</time>
      </trkpt>
      <trkpt lat="42.352753000" lon="-2.653256000">
        <ele>876.30</ele>
        <time>2016-10-29T07:30:47Z</time>
      </trkpt>
      <trkpt lat="42.352744000" lon="-2.653245000">
        <ele>876.50</ele>
        <time>2016-10-29T07:30:48Z</time>
      </trkpt>
      <trkpt lat="42.352733000" lon="-2.653231000">
        <ele>876.80</ele>
        <time>2016-10-29T07:30:49Z</time>
      </trkpt>
      <trkpt lat="42.352722000" lon="-2.653221000">
        <ele>877.00</ele>
        <time>2016-10-29T07:30:50Z</time>
      </trkpt>
      <trkpt lat="42.352710000" lon="-2.653211000">
        <ele>877.20</ele>
        <time>2016-10-29T07:30:51Z</time>
      </trkpt>
      <trkpt lat="42.352700000" lon="-2.653204000">
        <ele>877.30</ele>
        <time>2016-10-29T07:30:52Z</time>
      </trkpt>
      <trkpt lat="42.352689000" lon="-2.653197000">
        <ele>877.60</ele>
        <time>2016-10-29T07:30:53Z</time>
      </trkpt>
      <trkpt lat="42.352681000" lon="-2.653190000">
        <ele>877.80</ele>
        <time>2016-10-29T07:30:54Z</time>
      </trkpt>
      <trkpt lat="42.352671000" lon="-2.653180000">
        <ele>878.00</ele>
        <time>2016-10-29T07:30:55Z</time>
      </trkpt>
      <trkpt lat="42.352664000" lon="-2.653166000">
        <ele>878.10</ele>
        <time>2016-10-29T07:30:56Z</time>
      </trkpt>
      <trkpt lat="42.352655000" lon="-2.653153000">
        <ele>878.20</ele>
        <time>2016-10-29T07:30:57Z</time>
      </trkpt>
      <trkpt lat="42.352644000" lon="-2.653146000">
        <ele>878.30</ele>
        <time>2016-10-29T07:30:58Z</time>
      </trkpt>
      <trkpt lat="42.352633000" lon="-2.653135000">
        <ele>878.80</ele>
        <time>2016-10-29T07:30:59Z</time>
      </trkpt>
      <trkpt lat="42.352625000" lon="-2.653124000">
        <ele>879.10</ele>
        <time>2016-10-29T07:31:00Z</time>
      </trkpt>
      <trkpt lat="42.352613000" lon="-2.653112000">
        <ele>879.30</ele>
        <time>2016-10-29T07:31:01Z</time>
      </trkpt>
      <trkpt lat="42.352597000" lon="-2.653107000">
        <ele>879.50</ele>
        <time>2016-10-29T07:31:02Z</time>
      </trkpt>
      <trkpt lat="42.352585000" lon="-2.653095000">
        <ele>879.60</ele>
        <time>2016-10-29T07:31:03Z</time>
      </trkpt>
      <trkpt lat="42.352573000" lon="-2.653084000">
        <ele>879.70</ele>
        <time>2016-10-29T07:31:04Z</time>
      </trkpt>
      <trkpt lat="42.352563000" lon="-2.653070000">
        <ele>880.00</ele>
        <time>2016-10-29T07:31:05Z</time>
      </trkpt>
      <trkpt lat="42.352555000" lon="-2.653061000">
        <ele>880.30</ele>
        <time>2016-10-29T07:31:06Z</time>
      </trkpt>
      <trkpt lat="42.352547000" lon="-2.653055000">
        <ele>880.40</ele>
        <time>2016-10-29T07:31:07Z</time>
      </trkpt>
      <trkpt lat="42.352538000" lon="-2.653047000">
        <ele>880.60</ele>
        <time>2016-10-29T07:31:08Z</time>
      </trkpt>
      <trkpt lat="42.352528000" lon="-2.653038000">
        <ele>880.70</ele>
        <time>2016-10-29T07:31:09Z</time>
      </trkpt>
      <trkpt lat="42.352520000" lon="-2.653027000">
        <ele>880.90</ele>
        <time>2016-10-29T07:31:10Z</time>
      </trkpt>
      <trkpt lat="42.352507000" lon="-2.653021000">
        <ele>881.20</ele>
        <time>2016-10-29T07:31:11Z</time>
      </trkpt>
      <trkpt lat="42.352497000" lon="-2.653011000">
        <ele>881.40</ele>
        <time>2016-10-29T07:31:12Z</time>
      </trkpt>
      <trkpt lat="42.352488000" lon="-2.653000000">
        <ele>881.60</ele>
        <time>2016-10-29T07:31:13Z</time>
      </trkpt>
      <trkpt lat="42.352480000" lon="-2.652993000">
        <ele>881.80</ele>
        <time>2016-10-29T07:31:14Z</time>
      </trkpt>
      <trkpt lat="42.352471000" lon="-2.652987000">
        <ele>882.00</ele>
        <time>2016-10-29T07:31:15Z</time>
      </trkpt>
      <trkpt lat="42.352462000" lon="-2.652979000">
        <ele>882.10</ele>
        <time>2016-10-29T07:31:16Z</time>
      </trkpt>
      <trkpt lat="42.352454000" lon="-2.652970000">
        <ele>882.30</ele>
        <time>2016-10-29T07:31:17Z</time>
      </trkpt>
      <trkpt lat="42.352435000" lon="-2.652950000">
        <ele>882.50</ele>
        <time>2016-10-29T07:31:19Z</time>
      </trkpt>
      <trkpt lat="42.352428000" lon="-2.652941000">
        <ele>882.60</ele>
        <time>2016-10-29T07:31:20Z</time>
      </trkpt>
      <trkpt lat="42.352420000" lon="-2.652931000">
        <ele>882.70</ele>
        <time>2016-10-29T07:31:21Z</time>
      </trkpt>
      <trkpt lat="42.352409000" lon="-2.652923000">
        <ele>882.80</ele>
        <time>2016-10-29T07:31:22Z</time>
      </trkpt>
      <trkpt lat="42.352399000" lon="-2.652913000">
        <ele>883.00</ele>
        <time>2016-10-29T07:31:23Z</time>
      </trkpt>
      <trkpt lat="42.352389000" lon="-2.652902000">
        <ele>883.20</ele>
        <time>2016-10-29T07:31:24Z</time>
      </trkpt>
      <trkpt lat="42.352380000" lon="-2.652889000">
        <ele>883.40</ele>
        <time>2016-10-29T07:31:25Z</time>
      </trkpt>
      <trkpt lat="42.352368000" lon="-2.652879000">
        <ele>883.60</ele>
        <time>2016-10-29T07:31:26Z</time>
      </trkpt>
      <trkpt lat="42.352356000" lon="-2.652866000">
        <ele>883.90</ele>
        <time>2016-10-29T07:31:27Z</time>
      </trkpt>
      <trkpt lat="42.352343000" lon="-2.652858000">
        <ele>884.10</ele>
        <time>2016-10-29T07:31:28Z</time>
      </trkpt>
      <trkpt lat="42.352333000" lon="-2.652846000">
        <ele>884.30</ele>
        <time>2016-10-29T07:31:29Z</time>
      </trkpt>
      <trkpt lat="42.352324000" lon="-2.652835000">
        <ele>884.40</ele>
        <time>2016-10-29T07:31:30Z</time>
      </trkpt>
      <trkpt lat="42.352317000" lon="-2.652824000">
        <ele>884.60</ele>
        <time>2016-10-29T07:31:31Z</time>
      </trkpt>
      <trkpt lat="42.352307000" lon="-2.652810000">
        <ele>884.80</ele>
        <time>2016-10-29T07:31:32Z</time>
      </trkpt>
      <trkpt lat="42.352301000" lon="-2.652799000">
        <ele>884.90</ele>
        <time>2016-10-29T07:31:33Z</time>
      </trkpt>
      <trkpt lat="42.352291000" lon="-2.652790000">
        <ele>885.00</ele>
        <time>2016-10-29T07:31:34Z</time>
      </trkpt>
      <trkpt lat="42.352279000" lon="-2.652780000">
        <ele>885.20</ele>
        <time>2016-10-29T07:31:35Z</time>
      </trkpt>
      <trkpt lat="42.352266000" lon="-2.652773000">
        <ele>885.30</ele>
        <time>2016-10-29T07:31:36Z</time>
      </trkpt>
      <trkpt lat="42.352254000" lon="-2.652762000">
        <ele>885.50</ele>
        <time>2016-10-29T07:31:37Z</time>
      </trkpt>
      <trkpt lat="42.352246000" lon="-2.652752000">
        <ele>885.70</ele>
        <time>2016-10-29T07:31:38Z</time>
      </trkpt>
      <trkpt lat="42.352239000" lon="-2.652738000">
        <ele>886.00</ele>
        <time>2016-10-29T07:31:39Z</time>
      </trkpt>
      <trkpt lat="42.352227000" lon="-2.652727000">
        <ele>886.20</ele>
        <time>2016-10-29T07:31:40Z</time>
      </trkpt>
      <trkpt lat="42.352216000" lon="-2.652715000">
        <ele>886.40</ele>
        <time>2016-10-29T07:31:41Z</time>
      </trkpt>
      <trkpt lat="42.352204000" lon="-2.652709000">
        <ele>886.60</ele>
        <time>2016-10-29T07:31:42Z</time>
      </trkpt>
      <trkpt lat="42.352194000" lon="-2.652698000">
        <ele>886.90</ele>
        <time>2016-10-29T07:31:43Z</time>
      </trkpt>
      <trkpt lat="42.352180000" lon="-2.652684000">
        <ele>887.10</ele>
        <time>2016-10-29T07:31:44Z</time>
      </trkpt>
      <trkpt lat="42.352169000" lon="-2.652673000">
        <ele>887.30</ele>
        <time>2016-10-29T07:31:45Z</time>
      </trkpt>
      <trkpt lat="42.352158000" lon="-2.652663000">
        <ele>887.40</ele>
        <time>2016-10-29T07:31:46Z</time>
      </trkpt>
      <trkpt lat="42.352145000" lon="-2.652661000">
        <ele>887.70</ele>
        <time>2016-10-29T07:31:47Z</time>
      </trkpt>
      <trkpt lat="42.352139000" lon="-2.652650000">
        <ele>888.00</ele>
        <time>2016-10-29T07:31:48Z</time>
      </trkpt>
      <trkpt lat="42.352131000" lon="-2.652641000">
        <ele>888.10</ele>
        <time>2016-10-29T07:31:49Z</time>
      </trkpt>
      <trkpt lat="42.352125000" lon="-2.652631000">
        <ele>888.30</ele>
        <time>2016-10-29T07:31:50Z</time>
      </trkpt>
      <trkpt lat="42.352122000" lon="-2.652620000">
        <ele>888.40</ele>
        <time>2016-10-29T07:31:51Z</time>
      </trkpt>
      <trkpt lat="42.352112000" lon="-2.652616000">
        <ele>888.40</ele>
        <time>2016-10-29T07:31:52Z</time>
      </trkpt>
      <trkpt lat="42.352101000" lon="-2.652605000">
        <ele>888.50</ele>
        <time>2016-10-29T07:31:53Z</time>
      </trkpt>
      <trkpt lat="42.352091000" lon="-2.652596000">
        <ele>888.50</ele>
        <time>2016-10-29T07:31:54Z</time>
      </trkpt>
      <trkpt lat="42.352083000" lon="-2.652585000">
        <ele>888.60</ele>
        <time>2016-10-29T07:31:55Z</time>
      </trkpt>
      <trkpt lat="42.352074000" lon="-2.652577000">
        <ele>888.60</ele>
        <time>2016-10-29T07:31:56Z</time>
      </trkpt>
      <trkpt lat="42.352066000" lon="-2.652567000">
        <ele>888.80</ele>
        <time>2016-10-29T07:31:57Z</time>
      </trkpt>
      <trkpt lat="42.352055000" lon="-2.652558000">
        <ele>889.00</ele>
        <time>2016-10-29T07:31:58Z</time>
      </trkpt>
      <trkpt lat="42.352043000" lon="-2.652548000">
        <ele>889.30</ele>
        <time>2016-10-29T07:31:59Z</time>
      </trkpt>
      <trkpt lat="42.352036000" lon="-2.652536000">
        <ele>889.40</ele>
        <time>2016-10-29T07:32:00Z</time>
      </trkpt>
      <trkpt lat="42.352025000" lon="-2.652522000">
        <ele>889.70</ele>
        <time>2016-10-29T07:32:01Z</time>
      </trkpt>
      <trkpt lat="42.352014000" lon="-2.652509000">
        <ele>889.90</ele>
        <time>2016-10-29T07:32:02Z</time>
      </trkpt>
      <trkpt lat="42.352000000" lon="-2.652497000">
        <ele>890.10</ele>
        <time>2016-10-29T07:32:03Z</time>
      </trkpt>
      <trkpt lat="42.351987000" lon="-2.652487000">
        <ele>890.20</ele>
        <time>2016-10-29T07:32:04Z</time>
      </trkpt>
      <trkpt lat="42.351977000" lon="-2.652475000">
        <ele>890.50</ele>
        <time>2016-10-29T07:32:05Z</time>
      </trkpt>
      <trkpt lat="42.351966000" lon="-2.652465000">
        <ele>890.70</ele>
        <time>2016-10-29T07:32:06Z</time>
      </trkpt>
      <trkpt lat="42.351953000" lon="-2.652455000">
        <ele>890.90</ele>
        <time>2016-10-29T07:32:07Z</time>
      </trkpt>
      <trkpt lat="42.351942000" lon="-2.652445000">
        <ele>891.10</ele>
        <time>2016-10-29T07:32:08Z</time>
      </trkpt>
      <trkpt lat="42.351931000" lon="-2.652440000">
        <ele>891.30</ele>
        <time>2016-10-29T07:32:09Z</time>
      </trkpt>
      <trkpt lat="42.351922000" lon="-2.652428000">
        <ele>891.40</ele>
        <time>2016-10-29T07:32:10Z</time>
      </trkpt>
      <trkpt lat="42.351912000" lon="-2.652421000">
        <ele>891.50</ele>
        <time>2016-10-29T07:32:11Z</time>
      </trkpt>
      <trkpt lat="42.351899000" lon="-2.652409000">
        <ele>891.60</ele>
        <time>2016-10-29T07:32:12Z</time>
      </trkpt>
      <trkpt lat="42.351892000" lon="-2.652395000">
        <ele>891.60</ele>
        <time>2016-10-29T07:32:13Z</time>
      </trkpt>
      <trkpt lat="42.351881000" lon="-2.652387000">
        <ele>891.70</ele>
        <time>2016-10-29T07:32:14Z</time>
      </trkpt>
      <trkpt lat="42.351870000" lon="-2.652376000">
        <ele>891.80</ele>
        <time>2016-10-29T07:32:15Z</time>
      </trkpt>
      <trkpt lat="42.351861000" lon="-2.652368000">
        <ele>891.90</ele>
        <time>2016-10-29T07:32:16Z</time>
      </trkpt>
      <trkpt lat="42.351852000" lon="-2.652358000">
        <ele>892.00</ele>
        <time>2016-10-29T07:32:17Z</time>
      </trkpt>
      <trkpt lat="42.351844000" lon="-2.652350000">
        <ele>892.10</ele>
        <time>2016-10-29T07:32:18Z</time>
      </trkpt>
      <trkpt lat="42.351834000" lon="-2.652341000">
        <ele>892.20</ele>
        <time>2016-10-29T07:32:19Z</time>
      </trkpt>
      <trkpt lat="42.351817000" lon="-2.652321000">
        <ele>892.60</ele>
        <time>2016-10-29T07:32:21Z</time>
      </trkpt>
      <trkpt lat="42.351808000" lon="-2.652310000">
        <ele>892.90</ele>
        <time>2016-10-29T07:32:22Z</time>
      </trkpt>
      <trkpt lat="42.351801000" lon="-2.652295000">
        <ele>893.10</ele>
        <time>2016-10-29T07:32:23Z</time>
      </trkpt>
      <trkpt lat="42.351791000" lon="-2.652282000">
        <ele>893.20</ele>
        <time>2016-10-29T07:32:24Z</time>
      </trkpt>
      <trkpt lat="42.351778000" lon="-2.652270000">
        <ele>893.30</ele>
        <time>2016-10-29T07:32:25Z</time>
      </trkpt>
      <trkpt lat="42.351771000" lon="-2.652261000">
        <ele>893.40</ele>
        <time>2016-10-29T07:32:26Z</time>
      </trkpt>
      <trkpt lat="42.351761000" lon="-2.652250000">
        <ele>893.50</ele>
        <time>2016-10-29T07:32:27Z</time>
      </trkpt>
      <trkpt lat="42.351752000" lon="-2.652243000">
        <ele>893.50</ele>
        <time>2016-10-29T07:32:28Z</time>
      </trkpt>
      <trkpt lat="42.351737000" lon="-2.652236000">
        <ele>893.70</ele>
        <time>2016-10-29T07:32:29Z</time>
      </trkpt>
      <trkpt lat="42.351724000" lon="-2.652226000">
        <ele>893.80</ele>
        <time>2016-10-29T07:32:30Z</time>
      </trkpt>
      <trkpt lat="42.351711000" lon="-2.652213000">
        <ele>894.00</ele>
        <time>2016-10-29T07:32:31Z</time>
      </trkpt>
      <trkpt lat="42.351700000" lon="-2.652203000">
        <ele>894.20</ele>
        <time>2016-10-29T07:32:32Z</time>
      </trkpt>
      <trkpt lat="42.351692000" lon="-2.652191000">
        <ele>894.40</ele>
        <time>2016-10-29T07:32:33Z</time>
      </trkpt>
      <trkpt lat="42.351682000" lon="-2.652182000">
        <ele>894.60</ele>
        <time>2016-10-29T07:32:34Z</time>
      </trkpt>
      <trkpt lat="42.351672000" lon="-2.652174000">
        <ele>894.70</ele>
        <time>2016-10-29T07:32:35Z</time>
      </trkpt>
      <trkpt lat="42.351664000" lon="-2.652164000">
        <ele>894.80</ele>
        <time>2016-10-29T07:32:36Z</time>
      </trkpt>
      <trkpt lat="42.351654000" lon="-2.652157000">
        <ele>894.90</ele>
        <time>2016-10-29T07:32:37Z</time>
      </trkpt>
      <trkpt lat="42.351645000" lon="-2.652150000">
        <ele>895.00</ele>
        <time>2016-10-29T07:32:38Z</time>
      </trkpt>
      <trkpt lat="42.351634000" lon="-2.652141000">
        <ele>895.30</ele>
        <time>2016-10-29T07:32:39Z</time>
      </trkpt>
      <trkpt lat="42.351624000" lon="-2.652139000">
        <ele>895.50</ele>
        <time>2016-10-29T07:32:40Z</time>
      </trkpt>
      <trkpt lat="42.351616000" lon="-2.652130000">
        <ele>895.80</ele>
        <time>2016-10-29T07:32:41Z</time>
      </trkpt>
      <trkpt lat="42.351608000" lon="-2.652120000">
        <ele>896.00</ele>
        <time>2016-10-29T07:32:42Z</time>
      </trkpt>
      <trkpt lat="42.351598000" lon="-2.652113000">
        <ele>896.20</ele>
        <time>2016-10-29T07:32:43Z</time>
      </trkpt>
      <trkpt lat="42.351593000" lon="-2.652103000">
        <ele>896.30</ele>
        <time>2016-10-29T07:32:44Z</time>
      </trkpt>
      <trkpt lat="42.351584000" lon="-2.652096000">
        <ele>896.60</ele>
        <time>2016-10-29T07:32:45Z</time>
      </trkpt>
      <trkpt lat="42.351572000" lon="-2.652085000">
        <ele>896.70</ele>
        <time>2016-10-29T07:32:46Z</time>
      </trkpt>
      <trkpt lat="42.351560000" lon="-2.652078000">
        <ele>896.80</ele>
        <time>2016-10-29T07:32:47Z</time>
      </trkpt>
      <trkpt lat="42.351551000" lon="-2.652066000">
        <ele>896.90</ele>
        <time>2016-10-29T07:32:48Z</time>
      </trkpt>
      <trkpt lat="42.351542000" lon="-2.652057000">
        <ele>897.00</ele>
        <time>2016-10-29T07:32:49Z</time>
      </trkpt>
      <trkpt lat="42.351533000" lon="-2.652048000">
        <ele>897.20</ele>
        <time>2016-10-29T07:32:50Z</time>
      </trkpt>
      <trkpt lat="42.351526000" lon="-2.652037000">
        <ele>897.50</ele>
        <time>2016-10-29T07:32:51Z</time>
      </trkpt>
      <trkpt lat="42.351518000" lon="-2.652029000">
        <ele>897.70</ele>
        <time>2016-10-29T07:32:52Z</time>
      </trkpt>
      <trkpt lat="42.351509000" lon="-2.652019000">
        <ele>897.90</ele>
        <time>2016-10-29T07:32:53Z</time>
      </trkpt>
      <trkpt lat="42.351501000" lon="-2.652010000">
        <ele>898.10</ele>
        <time>2016-10-29T07:32:54Z</time>
      </trkpt>
      <trkpt lat="42.351493000" lon="-2.651998000">
        <ele>898.30</ele>
        <time>2016-10-29T07:32:55Z</time>
      </trkpt>
      <trkpt lat="42.351485000" lon="-2.651985000">
        <ele>898.30</ele>
        <time>2016-10-29T07:32:56Z</time>
      </trkpt>
      <trkpt lat="42.351474000" lon="-2.651975000">
        <ele>898.50</ele>
        <time>2016-10-29T07:32:57Z</time>
      </trkpt>
      <trkpt lat="42.351466000" lon="-2.651966000">
        <ele>898.70</ele>
        <time>2016-10-29T07:32:58Z</time>
      </trkpt>
      <trkpt lat="42.351457000" lon="-2.651956000">
        <ele>898.90</ele>
        <time>2016-10-29T07:32:59Z</time>
      </trkpt>
      <trkpt lat="42.351449000" lon="-2.651948000">
        <ele>899.10</ele>
        <time>2016-10-29T07:33:00Z</time>
      </trkpt>
      <trkpt lat="42.351443000" lon="-2.651941000">
        <ele>899.30</ele>
        <time>2016-10-29T07:33:01Z</time>
      </trkpt>
      <trkpt lat="42.351435000" lon="-2.651934000">
        <ele>899.40</ele>
        <time>2016-10-29T07:33:02Z</time>
      </trkpt>
      <trkpt lat="42.351419000" lon="-2.651927000">
        <ele>899.60</ele>
        <time>2016-10-29T07:33:03Z</time>
      </trkpt>
      <trkpt lat="42.351405000" lon="-2.651921000">
        <ele>899.80</ele>
        <time>2016-10-29T07:33:04Z</time>
      </trkpt>
      <trkpt lat="42.351391000" lon="-2.651909000">
        <ele>900.00</ele>
        <time>2016-10-29T07:33:05Z</time>
      </trkpt>
      <trkpt lat="42.351382000" lon="-2.651893000">
        <ele>900.10</ele>
        <time>2016-10-29T07:33:06Z</time>
      </trkpt>
      <trkpt lat="42.351373000" lon="-2.651882000">
        <ele>900.30</ele>
        <time>2016-10-29T07:33:07Z</time>
      </trkpt>
      <trkpt lat="42.351361000" lon="-2.651873000">
        <ele>900.40</ele>
        <time>2016-10-29T07:33:08Z</time>
      </trkpt>
      <trkpt lat="42.351349000" lon="-2.651864000">
        <ele>900.60</ele>
        <time>2016-10-29T07:33:09Z</time>
      </trkpt>
      <trkpt lat="42.351339000" lon="-2.651856000">
        <ele>900.70</ele>
        <time>2016-10-29T07:33:10Z</time>
      </trkpt>
      <trkpt lat="42.351327000" lon="-2.651848000">
        <ele>901.10</ele>
        <time>2016-10-29T07:33:11Z</time>
      </trkpt>
      <trkpt lat="42.351322000" lon="-2.651836000">
        <ele>901.30</ele>
        <time>2016-10-29T07:33:12Z</time>
      </trkpt>
      <trkpt lat="42.351312000" lon="-2.651828000">
        <ele>901.50</ele>
        <time>2016-10-29T07:33:13Z</time>
      </trkpt>
      <trkpt lat="42.351300000" lon="-2.651815000">
        <ele>901.70</ele>
        <time>2016-10-29T07:33:14Z</time>
      </trkpt>
      <trkpt lat="42.351289000" lon="-2.651807000">
        <ele>901.80</ele>
        <time>2016-10-29T07:33:15Z</time>
      </trkpt>
      <trkpt lat="42.351279000" lon="-2.651798000">
        <ele>901.90</ele>
        <time>2016-10-29T07:33:16Z</time>
      </trkpt>
      <trkpt lat="42.351269000" lon="-2.651788000">
        <ele>902.10</ele>
        <time>2016-10-29T07:33:17Z</time>
      </trkpt>
      <trkpt lat="42.351259000" lon="-2.651778000">
        <ele>902.20</ele>
        <time>2016-10-29T07:33:18Z</time>
      </trkpt>
      <trkpt lat="42.351248000" lon="-2.651771000">
        <ele>902.40</ele>
        <time>2016-10-29T07:33:19Z</time>
      </trkpt>
      <trkpt lat="42.351235000" lon="-2.651763000">
        <ele>902.50</ele>
        <time>2016-10-29T07:33:20Z</time>
      </trkpt>
      <trkpt lat="42.351208000" lon="-2.651746000">
        <ele>902.70</ele>
        <time>2016-10-29T07:33:22Z</time>
      </trkpt>
      <trkpt lat="42.351197000" lon="-2.651736000">
        <ele>902.90</ele>
        <time>2016-10-29T07:33:23Z</time>
      </trkpt>
      <trkpt lat="42.351191000" lon="-2.651723000">
        <ele>903.00</ele>
        <time>2016-10-29T07:33:24Z</time>
      </trkpt>
      <trkpt lat="42.351181000" lon="-2.651711000">
        <ele>903.20</ele>
        <time>2016-10-29T07:33:25Z</time>
      </trkpt>
      <trkpt lat="42.351170000" lon="-2.651703000">
        <ele>903.20</ele>
        <time>2016-10-29T07:33:26Z</time>
      </trkpt>
      <trkpt lat="42.351160000" lon="-2.651699000">
        <ele>903.30</ele>
        <time>2016-10-29T07:33:27Z</time>
      </trkpt>
      <trkpt lat="42.351150000" lon="-2.651689000">
        <ele>903.30</ele>
        <time>2016-10-29T07:33:28Z</time>
      </trkpt>
      <trkpt lat="42.351142000" lon="-2.651677000">
        <ele>903.50</ele>
        <time>2016-10-29T07:33:29Z</time>
      </trkpt>
      <trkpt lat="42.351131000" lon="-2.651670000">
        <ele>903.60</ele>
        <time>2016-10-29T07:33:30Z</time>
      </trkpt>
      <trkpt lat="42.351120000" lon="-2.651663000">
        <ele>903.80</ele>
        <time>2016-10-29T07:33:31Z</time>
      </trkpt>
      <trkpt lat="42.351109000" lon="-2.651651000">
        <ele>903.90</ele>
        <time>2016-10-29T07:33:32Z</time>
      </trkpt>
      <trkpt lat="42.351098000" lon="-2.651640000">
        <ele>904.10</ele>
        <time>2016-10-29T07:33:33Z</time>
      </trkpt>
      <trkpt lat="42.351088000" lon="-2.651625000">
        <ele>904.20</ele>
        <time>2016-10-29T07:33:34Z</time>
      </trkpt>
      <trkpt lat="42.351079000" lon="-2.651613000">
        <ele>904.60</ele>
        <time>2016-10-29T07:33:35Z</time>
      </trkpt>
      <trkpt lat="42.351073000" lon="-2.651602000">
        <ele>904.90</ele>
        <time>2016-10-29T07:33:36Z</time>
      </trkpt>
      <trkpt lat="42.351065000" lon="-2.651590000">
        <ele>905.20</ele>
        <time>2016-10-29T07:33:37Z</time>
      </trkpt>
      <trkpt lat="42.351058000" lon="-2.651579000">
        <ele>905.40</ele>
        <time>2016-10-29T07:33:38Z</time>
      </trkpt>
      <trkpt lat="42.351049000" lon="-2.651569000">
        <ele>905.50</ele>
        <time>2016-10-29T07:33:39Z</time>
      </trkpt>
      <trkpt lat="42.351038000" lon="-2.651557000">
        <ele>905.60</ele>
        <time>2016-10-29T07:33:40Z</time>
      </trkpt>
      <trkpt lat="42.351024000" lon="-2.651548000">
        <ele>905.80</ele>
        <time>2016-10-29T07:33:41Z</time>
      </trkpt>
      <trkpt lat="42.351013000" lon="-2.651533000">
        <ele>906.00</ele>
        <time>2016-10-29T07:33:42Z</time>
      </trkpt>
      <trkpt lat="42.351005000" lon="-2.651521000">
        <ele>906.10</ele>
        <time>2016-10-29T07:33:43Z</time>
      </trkpt>
      <trkpt lat="42.350997000" lon="-2.651509000">
        <ele>906.30</ele>
        <time>2016-10-29T07:33:44Z</time>
      </trkpt>
      <trkpt lat="42.350987000" lon="-2.651499000">
        <ele>906.40</ele>
        <time>2016-10-29T07:33:45Z</time>
      </trkpt>
      <trkpt lat="42.350976000" lon="-2.651484000">
        <ele>906.50</ele>
        <time>2016-10-29T07:33:46Z</time>
      </trkpt>
      <trkpt lat="42.350968000" lon="-2.651468000">
        <ele>906.60</ele>
        <time>2016-10-29T07:33:47Z</time>
      </trkpt>
      <trkpt lat="42.350957000" lon="-2.651455000">
        <ele>906.70</ele>
        <time>2016-10-29T07:33:48Z</time>
      </trkpt>
      <trkpt lat="42.350949000" lon="-2.651447000">
        <ele>906.90</ele>
        <time>2016-10-29T07:33:49Z</time>
      </trkpt>
      <trkpt lat="42.350940000" lon="-2.651438000">
        <ele>907.00</ele>
        <time>2016-10-29T07:33:50Z</time>
      </trkpt>
      <trkpt lat="42.350930000" lon="-2.651431000">
        <ele>907.10</ele>
        <time>2016-10-29T07:33:51Z</time>
      </trkpt>
      <trkpt lat="42.350922000" lon="-2.651421000">
        <ele>907.20</ele>
        <time>2016-10-29T07:33:52Z</time>
      </trkpt>
      <trkpt lat="42.350909000" lon="-2.651410000">
        <ele>907.40</ele>
        <time>2016-10-29T07:33:53Z</time>
      </trkpt>
      <trkpt lat="42.350903000" lon="-2.651397000">
        <ele>907.50</ele>
        <time>2016-10-29T07:33:54Z</time>
      </trkpt>
      <trkpt lat="42.350898000" lon="-2.651387000">
        <ele>907.80</ele>
        <time>2016-10-29T07:33:55Z</time>
      </trkpt>
      <trkpt lat="42.350890000" lon="-2.651377000">
        <ele>908.10</ele>
        <time>2016-10-29T07:33:56Z</time>
      </trkpt>
      <trkpt lat="42.350880000" lon="-2.651369000">
        <ele>908.20</ele>
        <time>2016-10-29T07:33:57Z</time>
      </trkpt>
      <trkpt lat="42.350869000" lon="-2.651357000">
        <ele>908.40</ele>
        <time>2016-10-29T07:33:58Z</time>
      </trkpt>
      <trkpt lat="42.350859000" lon="-2.651347000">
        <ele>908.60</ele>
        <time>2016-10-29T07:33:59Z</time>
      </trkpt>
      <trkpt lat="42.350848000" lon="-2.651337000">
        <ele>908.80</ele>
        <time>2016-10-29T07:34:00Z</time>
      </trkpt>
      <trkpt lat="42.350836000" lon="-2.651329000">
        <ele>909.10</ele>
        <time>2016-10-29T07:34:01Z</time>
      </trkpt>
      <trkpt lat="42.350828000" lon="-2.651316000">
        <ele>909.20</ele>
        <time>2016-10-29T07:34:02Z</time>
      </trkpt>
      <trkpt lat="42.350819000" lon="-2.651305000">
        <ele>909.40</ele>
        <time>2016-10-29T07:34:03Z</time>
      </trkpt>
      <trkpt lat="42.350809000" lon="-2.651292000">
        <ele>909.50</ele>
        <time>2016-10-29T07:34:04Z</time>
      </trkpt>
      <trkpt lat="42.350799000" lon="-2.651283000">
        <ele>909.50</ele>
        <time>2016-10-29T07:34:05Z</time>
      </trkpt>
      <trkpt lat="42.350790000" lon="-2.651275000">
        <ele>909.60</ele>
        <time>2016-10-29T07:34:06Z</time>
      </trkpt>
      <trkpt lat="42.350780000" lon="-2.651268000">
        <ele>909.90</ele>
        <time>2016-10-29T07:34:07Z</time>
      </trkpt>
      <trkpt lat="42.350767000" lon="-2.651262000">
        <ele>910.10</ele>
        <time>2016-10-29T07:34:08Z</time>
      </trkpt>
      <trkpt lat="42.350755000" lon="-2.651248000">
        <ele>910.30</ele>
        <time>2016-10-29T07:34:09Z</time>
      </trkpt>
      <trkpt lat="42.350743000" lon="-2.651239000">
        <ele>910.40</ele>
        <time>2016-10-29T07:34:10Z</time>
      </trkpt>
      <trkpt lat="42.350730000" lon="-2.651236000">
        <ele>910.80</ele>
        <time>2016-10-29T07:34:11Z</time>
      </trkpt>
      <trkpt lat="42.350719000" lon="-2.651228000">
        <ele>911.10</ele>
        <time>2016-10-29T07:34:12Z</time>
      </trkpt>
      <trkpt lat="42.350707000" lon="-2.651217000">
        <ele>911.40</ele>
        <time>2016-10-29T07:34:13Z</time>
      </trkpt>
      <trkpt lat="42.350695000" lon="-2.651207000">
        <ele>911.60</ele>
        <time>2016-10-29T07:34:14Z</time>
      </trkpt>
      <trkpt lat="42.350688000" lon="-2.651194000">
        <ele>911.80</ele>
        <time>2016-10-29T07:34:15Z</time>
      </trkpt>
      <trkpt lat="42.350680000" lon="-2.651185000">
        <ele>911.90</ele>
        <time>2016-10-29T07:34:16Z</time>
      </trkpt>
      <trkpt lat="42.350669000" lon="-2.651178000">
        <ele>912.10</ele>
        <time>2016-10-29T07:34:17Z</time>
      </trkpt>
      <trkpt lat="42.350660000" lon="-2.651166000">
        <ele>912.20</ele>
        <time>2016-10-29T07:34:18Z</time>
      </trkpt>
      <trkpt lat="42.350645000" lon="-2.651158000">
        <ele>912.40</ele>
        <time>2016-10-29T07:34:19Z</time>
      </trkpt>
      <trkpt lat="42.350631000" lon="-2.651146000">
        <ele>912.50</ele>
        <time>2016-10-29T07:34:20Z</time>
      </trkpt>
      <trkpt lat="42.350622000" lon="-2.651134000">
        <ele>912.60</ele>
        <time>2016-10-29T07:34:21Z</time>
      </trkpt>
      <trkpt lat="42.350604000" lon="-2.651111000">
        <ele>912.90</ele>
        <time>2016-10-29T07:34:23Z</time>
      </trkpt>
      <trkpt lat="42.350592000" lon="-2.651102000">
        <ele>913.00</ele>
        <time>2016-10-29T07:34:24Z</time>
      </trkpt>
      <trkpt lat="42.350577000" lon="-2.651086000">
        <ele>913.20</ele>
        <time>2016-10-29T07:34:25Z</time>
      </trkpt>
      <trkpt lat="42.350564000" lon="-2.651073000">
        <ele>913.40</ele>
        <time>2016-10-29T07:34:26Z</time>
      </trkpt>
      <trkpt lat="42.350551000" lon="-2.651061000">
        <ele>913.50</ele>
        <time>2016-10-29T07:34:27Z</time>
      </trkpt>
      <trkpt lat="42.350541000" lon="-2.651052000">
        <ele>913.60</ele>
        <time>2016-10-29T07:34:28Z</time>
      </trkpt>
      <trkpt lat="42.350532000" lon="-2.651042000">
        <ele>913.90</ele>
        <time>2016-10-29T07:34:29Z</time>
      </trkpt>
      <trkpt lat="42.350521000" lon="-2.651035000">
        <ele>914.20</ele>
        <time>2016-10-29T07:34:30Z</time>
      </trkpt>
      <trkpt lat="42.350514000" lon="-2.651026000">
        <ele>914.40</ele>
        <time>2016-10-29T07:34:31Z</time>
      </trkpt>
      <trkpt lat="42.350504000" lon="-2.651019000">
        <ele>914.60</ele>
        <time>2016-10-29T07:34:32Z</time>
      </trkpt>
      <trkpt lat="42.350495000" lon="-2.651007000">
        <ele>914.80</ele>
        <time>2016-10-29T07:34:33Z</time>
      </trkpt>
      <trkpt lat="42.350484000" lon="-2.650994000">
        <ele>915.00</ele>
        <time>2016-10-29T07:34:34Z</time>
      </trkpt>
      <trkpt lat="42.350476000" lon="-2.650981000">
        <ele>915.20</ele>
        <time>2016-10-29T07:34:35Z</time>
      </trkpt>
      <trkpt lat="42.350465000" lon="-2.650972000">
        <ele>915.30</ele>
        <time>2016-10-29T07:34:36Z</time>
      </trkpt>
      <trkpt lat="42.350454000" lon="-2.650964000">
        <ele>915.50</ele>
        <time>2016-10-29T07:34:37Z</time>
      </trkpt>
      <trkpt lat="42.350444000" lon="-2.650954000">
        <ele>915.70</ele>
        <time>2016-10-29T07:34:38Z</time>
      </trkpt>
      <trkpt lat="42.350436000" lon="-2.650940000">
        <ele>916.00</ele>
        <time>2016-10-29T07:34:39Z</time>
      </trkpt>
      <trkpt lat="42.350425000" lon="-2.650929000">
        <ele>916.20</ele>
        <time>2016-10-29T07:34:40Z</time>
      </trkpt>
      <trkpt lat="42.350415000" lon="-2.650920000">
        <ele>916.40</ele>
        <time>2016-10-29T07:34:41Z</time>
      </trkpt>
      <trkpt lat="42.350408000" lon="-2.650911000">
        <ele>916.50</ele>
        <time>2016-10-29T07:34:42Z</time>
      </trkpt>
      <trkpt lat="42.350398000" lon="-2.650900000">
        <ele>916.70</ele>
        <time>2016-10-29T07:34:43Z</time>
      </trkpt>
      <trkpt lat="42.350387000" lon="-2.650891000">
        <ele>916.80</ele>
        <time>2016-10-29T07:34:44Z</time>
      </trkpt>
      <trkpt lat="42.350378000" lon="-2.650880000">
        <ele>917.00</ele>
        <time>2016-10-29T07:34:45Z</time>
      </trkpt>
      <trkpt lat="42.350369000" lon="-2.650871000">
        <ele>917.10</ele>
        <time>2016-10-29T07:34:46Z</time>
      </trkpt>
      <trkpt lat="42.350356000" lon="-2.650864000">
        <ele>917.30</ele>
        <time>2016-10-29T07:34:47Z</time>
      </trkpt>
      <trkpt lat="42.350350000" lon="-2.650854000">
        <ele>917.50</ele>
        <time>2016-10-29T07:34:48Z</time>
      </trkpt>
      <trkpt lat="42.350343000" lon="-2.650839000">
        <ele>917.60</ele>
        <time>2016-10-29T07:34:49Z</time>
      </trkpt>
      <trkpt lat="42.350331000" lon="-2.650830000">
        <ele>917.70</ele>
        <time>2016-10-29T07:34:50Z</time>
      </trkpt>
      <trkpt lat="42.350325000" lon="-2.650818000">
        <ele>917.80</ele>
        <time>2016-10-29T07:34:51Z</time>
      </trkpt>
      <trkpt lat="42.350319000" lon="-2.650807000">
        <ele>917.80</ele>
        <time>2016-10-29T07:34:52Z</time>
      </trkpt>
      <trkpt lat="42.350310000" lon="-2.650797000">
        <ele>917.90</ele>
        <time>2016-10-29T07:34:53Z</time>
      </trkpt>
      <trkpt lat="42.350297000" lon="-2.650786000">
        <ele>918.00</ele>
        <time>2016-10-29T07:34:54Z</time>
      </trkpt>
      <trkpt lat="42.350286000" lon="-2.650773000">
        <ele>918.10</ele>
        <time>2016-10-29T07:34:55Z</time>
      </trkpt>
      <trkpt lat="42.350276000" lon="-2.650762000">
        <ele>918.20</ele>
        <time>2016-10-29T07:34:56Z</time>
      </trkpt>
      <trkpt lat="42.350267000" lon="-2.650754000">
        <ele>918.30</ele>
        <time>2016-10-29T07:34:57Z</time>
      </trkpt>
      <trkpt lat="42.350259000" lon="-2.650746000">
        <ele>918.30</ele>
        <time>2016-10-29T07:34:58Z</time>
      </trkpt>
      <trkpt lat="42.350248000" lon="-2.650740000">
        <ele>918.40</ele>
        <time>2016-10-29T07:34:59Z</time>
      </trkpt>
      <trkpt lat="42.350237000" lon="-2.650732000">
        <ele>918.40</ele>
        <time>2016-10-29T07:35:00Z</time>
      </trkpt>
      <trkpt lat="42.350227000" lon="-2.650722000">
        <ele>918.40</ele>
        <time>2016-10-29T07:35:01Z</time>
      </trkpt>
      <trkpt lat="42.350215000" lon="-2.650720000">
        <ele>918.50</ele>
        <time>2016-10-29T07:35:02Z</time>
      </trkpt>
      <trkpt lat="42.350207000" lon="-2.650711000">
        <ele>918.50</ele>
        <time>2016-10-29T07:35:03Z</time>
      </trkpt>
      <trkpt lat="42.350202000" lon="-2.650702000">
        <ele>918.60</ele>
        <time>2016-10-29T07:35:04Z</time>
      </trkpt>
      <trkpt lat="42.350193000" lon="-2.650695000">
        <ele>918.70</ele>
        <time>2016-10-29T07:35:05Z</time>
      </trkpt>
      <trkpt lat="42.350182000" lon="-2.650685000">
        <ele>918.80</ele>
        <time>2016-10-29T07:35:06Z</time>
      </trkpt>
      <trkpt lat="42.350170000" lon="-2.650676000">
        <ele>919.00</ele>
        <time>2016-10-29T07:35:07Z</time>
      </trkpt>
      <trkpt lat="42.350161000" lon="-2.650668000">
        <ele>919.10</ele>
        <time>2016-10-29T07:35:08Z</time>
      </trkpt>
      <trkpt lat="42.350152000" lon="-2.650657000">
        <ele>919.20</ele>
        <time>2016-10-29T07:35:09Z</time>
      </trkpt>
      <trkpt lat="42.350145000" lon="-2.650645000">
        <ele>919.30</ele>
        <time>2016-10-29T07:35:10Z</time>
      </trkpt>
      <trkpt lat="42.350136000" lon="-2.650634000">
        <ele>919.60</ele>
        <time>2016-10-29T07:35:11Z</time>
      </trkpt>
      <trkpt lat="42.350127000" lon="-2.650623000">
        <ele>919.80</ele>
        <time>2016-10-29T07:35:12Z</time>
      </trkpt>
      <trkpt lat="42.350117000" lon="-2.650612000">
        <ele>920.00</ele>
        <time>2016-10-29T07:35:13Z</time>
      </trkpt>
      <trkpt lat="42.350108000" lon="-2.650603000">
        <ele>920.20</ele>
        <time>2016-10-29T07:35:14Z</time>
      </trkpt>
      <trkpt lat="42.350100000" lon="-2.650592000">
        <ele>920.40</ele>
        <time>2016-10-29T07:35:15Z</time>
      </trkpt>
      <trkpt lat="42.350091000" lon="-2.650584000">
        <ele>920.60</ele>
        <time>2016-10-29T07:35:16Z</time>
      </trkpt>
      <trkpt lat="42.350081000" lon="-2.650577000">
        <ele>920.80</ele>
        <time>2016-10-29T07:35:17Z</time>
      </trkpt>
      <trkpt lat="42.350070000" lon="-2.650565000">
        <ele>920.90</ele>
        <time>2016-10-29T07:35:18Z</time>
      </trkpt>
      <trkpt lat="42.350059000" lon="-2.650547000">
        <ele>920.90</ele>
        <time>2016-10-29T07:35:19Z</time>
      </trkpt>
      <trkpt lat="42.350047000" lon="-2.650536000">
        <ele>921.00</ele>
        <time>2016-10-29T07:35:20Z</time>
      </trkpt>
      <trkpt lat="42.350041000" lon="-2.650528000">
        <ele>921.30</ele>
        <time>2016-10-29T07:35:21Z</time>
      </trkpt>
      <trkpt lat="42.350032000" lon="-2.650518000">
        <ele>921.50</ele>
        <time>2016-10-29T07:35:22Z</time>
      </trkpt>
      <trkpt lat="42.350012000" lon="-2.650498000">
        <ele>921.80</ele>
        <time>2016-10-29T07:35:24Z</time>
      </trkpt>
      <trkpt lat="42.350000000" lon="-2.650489000">
        <ele>921.90</ele>
        <time>2016-10-29T07:35:25Z</time>
      </trkpt>
      <trkpt lat="42.349988000" lon="-2.650479000">
        <ele>922.00</ele>
        <time>2016-10-29T07:35:26Z</time>
      </trkpt>
      <trkpt lat="42.349978000" lon="-2.650465000">
        <ele>922.10</ele>
        <time>2016-10-29T07:35:27Z</time>
      </trkpt>
      <trkpt lat="42.349965000" lon="-2.650451000">
        <ele>922.20</ele>
        <time>2016-10-29T07:35:28Z</time>
      </trkpt>
      <trkpt lat="42.349956000" lon="-2.650443000">
        <ele>922.60</ele>
        <time>2016-10-29T07:35:29Z</time>
      </trkpt>
      <trkpt lat="42.349952000" lon="-2.650428000">
        <ele>922.90</ele>
        <time>2016-10-29T07:35:30Z</time>
      </trkpt>
      <trkpt lat="42.349946000" lon="-2.650420000">
        <ele>923.10</ele>
        <time>2016-10-29T07:35:31Z</time>
      </trkpt>
      <trkpt lat="42.349939000" lon="-2.650414000">
        <ele>923.30</ele>
        <time>2016-10-29T07:35:32Z</time>
      </trkpt>
      <trkpt lat="42.349929000" lon="-2.650411000">
        <ele>923.50</ele>
        <time>2016-10-29T07:35:33Z</time>
      </trkpt>
      <trkpt lat="42.349920000" lon="-2.650404000">
        <ele>923.60</ele>
        <time>2016-10-29T07:35:34Z</time>
      </trkpt>
      <trkpt lat="42.349910000" lon="-2.650398000">
        <ele>923.90</ele>
        <time>2016-10-29T07:35:35Z</time>
      </trkpt>
      <trkpt lat="42.349899000" lon="-2.650388000">
        <ele>924.00</ele>
        <time>2016-10-29T07:35:36Z</time>
      </trkpt>
      <trkpt lat="42.349891000" lon="-2.650375000">
        <ele>924.20</ele>
        <time>2016-10-29T07:35:37Z</time>
      </trkpt>
      <trkpt lat="42.349882000" lon="-2.650366000">
        <ele>924.30</ele>
        <time>2016-10-29T07:35:38Z</time>
      </trkpt>
      <trkpt lat="42.349870000" lon="-2.650359000">
        <ele>924.40</ele>
        <time>2016-10-29T07:35:39Z</time>
      </trkpt>
      <trkpt lat="42.349859000" lon="-2.650351000">
        <ele>924.40</ele>
        <time>2016-10-29T07:35:40Z</time>
      </trkpt>
      <trkpt lat="42.349848000" lon="-2.650343000">
        <ele>924.50</ele>
        <time>2016-10-29T07:35:41Z</time>
      </trkpt>
      <trkpt lat="42.349839000" lon="-2.650335000">
        <ele>924.50</ele>
        <time>2016-10-29T07:35:42Z</time>
      </trkpt>
      <trkpt lat="42.349833000" lon="-2.650325000">
        <ele>924.50</ele>
        <time>2016-10-29T07:35:43Z</time>
      </trkpt>
      <trkpt lat="42.349825000" lon="-2.650314000">
        <ele>924.50</ele>
        <time>2016-10-29T07:35:44Z</time>
      </trkpt>
      <trkpt lat="42.349815000" lon="-2.650302000">
        <ele>924.90</ele>
        <time>2016-10-29T07:35:45Z</time>
      </trkpt>
      <trkpt lat="42.349805000" lon="-2.650291000">
        <ele>925.20</ele>
        <time>2016-10-29T07:35:46Z</time>
      </trkpt>
      <trkpt lat="42.349793000" lon="-2.650281000">
        <ele>925.30</ele>
        <time>2016-10-29T07:35:47Z</time>
      </trkpt>
      <trkpt lat="42.349783000" lon="-2.650272000">
        <ele>925.50</ele>
        <time>2016-10-29T07:35:48Z</time>
      </trkpt>
      <trkpt lat="42.349773000" lon="-2.650264000">
        <ele>925.60</ele>
        <time>2016-10-29T07:35:49Z</time>
      </trkpt>
      <trkpt lat="42.349765000" lon="-2.650254000">
        <ele>925.70</ele>
        <time>2016-10-29T07:35:50Z</time>
      </trkpt>
      <trkpt lat="42.349753000" lon="-2.650241000">
        <ele>926.00</ele>
        <time>2016-10-29T07:35:51Z</time>
      </trkpt>
      <trkpt lat="42.349744000" lon="-2.650230000">
        <ele>926.30</ele>
        <time>2016-10-29T07:35:52Z</time>
      </trkpt>
      <trkpt lat="42.349734000" lon="-2.650219000">
        <ele>926.50</ele>
        <time>2016-10-29T07:35:53Z</time>
      </trkpt>
      <trkpt lat="42.349723000" lon="-2.650211000">
        <ele>926.60</ele>
        <time>2016-10-29T07:35:54Z</time>
      </trkpt>
      <trkpt lat="42.349709000" lon="-2.650198000">
        <ele>926.80</ele>
        <time>2016-10-29T07:35:55Z</time>
      </trkpt>
      <trkpt lat="42.349696000" lon="-2.650184000">
        <ele>926.90</ele>
        <time>2016-10-29T07:35:56Z</time>
      </trkpt>
      <trkpt lat="42.349686000" lon="-2.650170000">
        <ele>927.00</ele>
        <time>2016-10-29T07:35:57Z</time>
      </trkpt>
      <trkpt lat="42.349675000" lon="-2.650153000">
        <ele>927.10</ele>
        <time>2016-10-29T07:35:58Z</time>
      </trkpt>
      <trkpt lat="42.349665000" lon="-2.650141000">
        <ele>927.10</ele>
        <time>2016-10-29T07:35:59Z</time>
      </trkpt>
      <trkpt lat="42.349656000" lon="-2.650129000">
        <ele>927.20</ele>
        <time>2016-10-29T07:36:00Z</time>
      </trkpt>
      <trkpt lat="42.349646000" lon="-2.650124000">
        <ele>927.40</ele>
        <time>2016-10-29T07:36:01Z</time>
      </trkpt>
      <trkpt lat="42.349635000" lon="-2.650117000">
        <ele>927.60</ele>
        <time>2016-10-29T07:36:02Z</time>
      </trkpt>
      <trkpt lat="42.349625000" lon="-2.650109000">
        <ele>927.80</ele>
        <time>2016-10-29T07:36:03Z</time>
      </trkpt>
      <trkpt lat="42.349614000" lon="-2.650102000">
        <ele>927.90</ele>
        <time>2016-10-29T07:36:04Z</time>
      </trkpt>
      <trkpt lat="42.349603000" lon="-2.650095000">
        <ele>928.30</ele>
        <time>2016-10-29T07:36:05Z</time>
      </trkpt>
      <trkpt lat="42.349590000" lon="-2.650084000">
        <ele>928.60</ele>
        <time>2016-10-29T07:36:06Z</time>
      </trkpt>
      <trkpt lat="42.349583000" lon="-2.650073000">
        <ele>928.90</ele>
        <time>2016-10-29T07:36:07Z</time>
      </trkpt>
      <trkpt lat="42.349574000" lon="-2.650062000">
        <ele>929.10</ele>
        <time>2016-10-29T07:36:08Z</time>
      </trkpt>
      <trkpt lat="42.349563000" lon="-2.650050000">
        <ele>929.40</ele>
        <time>2016-10-29T07:36:09Z</time>
      </trkpt>
      <trkpt lat="42.349553000" lon="-2.650041000">
        <ele>929.60</ele>
        <time>2016-10-29T07:36:10Z</time>
      </trkpt>
      <trkpt lat="42.349541000" lon="-2.650032000">
        <ele>929.80</ele>
        <time>2016-10-29T07:36:11Z</time>
      </trkpt>
      <trkpt lat="42.349532000" lon="-2.650023000">
        <ele>930.00</ele>
        <time>2016-10-29T07:36:12Z</time>
      </trkpt>
      <trkpt lat="42.349524000" lon="-2.650010000">
        <ele>930.20</ele>
        <time>2016-10-29T07:36:13Z</time>
      </trkpt>
      <trkpt lat="42.349511000" lon="-2.650001000">
        <ele>930.30</ele>
        <time>2016-10-29T07:36:14Z</time>
      </trkpt>
      <trkpt lat="42.349501000" lon="-2.649990000">
        <ele>930.50</ele>
        <time>2016-10-29T07:36:15Z</time>
      </trkpt>
      <trkpt lat="42.349491000" lon="-2.649983000">
        <ele>930.60</ele>
        <time>2016-10-29T07:36:16Z</time>
      </trkpt>
      <trkpt lat="42.349485000" lon="-2.649973000">
        <ele>930.90</ele>
        <time>2016-10-29T07:36:17Z</time>
      </trkpt>
      <trkpt lat="42.349475000" lon="-2.649965000">
        <ele>931.10</ele>
        <time>2016-10-29T07:36:18Z</time>
      </trkpt>
      <trkpt lat="42.349465000" lon="-2.649957000">
        <ele>931.30</ele>
        <time>2016-10-29T07:36:19Z</time>
      </trkpt>
      <trkpt lat="42.349455000" lon="-2.649946000">
        <ele>931.40</ele>
        <time>2016-10-29T07:36:20Z</time>
      </trkpt>
      <trkpt lat="42.349446000" lon="-2.649933000">
        <ele>931.60</ele>
        <time>2016-10-29T07:36:21Z</time>
      </trkpt>
      <trkpt lat="42.349437000" lon="-2.649921000">
        <ele>931.70</ele>
        <time>2016-10-29T07:36:22Z</time>
      </trkpt>
      <trkpt lat="42.349429000" lon="-2.649910000">
        <ele>932.00</ele>
        <time>2016-10-29T07:36:23Z</time>
      </trkpt>
      <trkpt lat="42.349412000" lon="-2.649885000">
        <ele>932.50</ele>
        <time>2016-10-29T07:36:25Z</time>
      </trkpt>
      <trkpt lat="42.349404000" lon="-2.649875000">
        <ele>932.70</ele>
        <time>2016-10-29T07:36:26Z</time>
      </trkpt>
      <trkpt lat="42.349395000" lon="-2.649867000">
        <ele>932.80</ele>
        <time>2016-10-29T07:36:27Z</time>
      </trkpt>
      <trkpt lat="42.349386000" lon="-2.649857000">
        <ele>932.90</ele>
        <time>2016-10-29T07:36:28Z</time>
      </trkpt>
      <trkpt lat="42.349376000" lon="-2.649844000">
        <ele>933.00</ele>
        <time>2016-10-29T07:36:29Z</time>
      </trkpt>
      <trkpt lat="42.349365000" lon="-2.649834000">
        <ele>933.10</ele>
        <time>2016-10-29T07:36:30Z</time>
      </trkpt>
      <trkpt lat="42.349357000" lon="-2.649824000">
        <ele>933.20</ele>
        <time>2016-10-29T07:36:31Z</time>
      </trkpt>
      <trkpt lat="42.349345000" lon="-2.649815000">
        <ele>933.30</ele>
        <time>2016-10-29T07:36:32Z</time>
      </trkpt>
      <trkpt lat="42.349337000" lon="-2.649804000">
        <ele>933.40</ele>
        <time>2016-10-29T07:36:33Z</time>
      </trkpt>
      <trkpt lat="42.349328000" lon="-2.649792000">
        <ele>933.60</ele>
        <time>2016-10-29T07:36:34Z</time>
      </trkpt>
      <trkpt lat="42.349319000" lon="-2.649782000">
        <ele>933.80</ele>
        <time>2016-10-29T07:36:35Z</time>
      </trkpt>
      <trkpt lat="42.349308000" lon="-2.649769000">
        <ele>933.90</ele>
        <time>2016-10-29T07:36:36Z</time>
      </trkpt>
      <trkpt lat="42.349295000" lon="-2.649759000">
        <ele>934.20</ele>
        <time>2016-10-29T07:36:37Z</time>
      </trkpt>
      <trkpt lat="42.349285000" lon="-2.649747000">
        <ele>934.40</ele>
        <time>2016-10-29T07:36:38Z</time>
      </trkpt>
      <trkpt lat="42.349275000" lon="-2.649734000">
        <ele>934.60</ele>
        <time>2016-10-29T07:36:39Z</time>
      </trkpt>
      <trkpt lat="42.349268000" lon="-2.649722000">
        <ele>934.70</ele>
        <time>2016-10-29T07:36:40Z</time>
      </trkpt>
      <trkpt lat="42.349257000" lon="-2.649718000">
        <ele>934.80</ele>
        <time>2016-10-29T07:36:41Z</time>
      </trkpt>
      <trkpt lat="42.349246000" lon="-2.649708000">
        <ele>934.90</ele>
        <time>2016-10-29T07:36:42Z</time>
      </trkpt>
      <trkpt lat="42.349234000" lon="-2.649698000">
        <ele>934.90</ele>
        <time>2016-10-29T07:36:43Z</time>
      </trkpt>
      <trkpt lat="42.349224000" lon="-2.649686000">
        <ele>935.00</ele>
        <time>2016-10-29T07:36:44Z</time>
      </trkpt>
      <trkpt lat="42.349214000" lon="-2.649675000">
        <ele>935.00</ele>
        <time>2016-10-29T07:36:45Z</time>
      </trkpt>
      <trkpt lat="42.349207000" lon="-2.649666000">
        <ele>935.10</ele>
        <time>2016-10-29T07:36:46Z</time>
      </trkpt>
      <trkpt lat="42.349196000" lon="-2.649659000">
        <ele>935.20</ele>
        <time>2016-10-29T07:36:47Z</time>
      </trkpt>
      <trkpt lat="42.349185000" lon="-2.649650000">
        <ele>935.30</ele>
        <time>2016-10-29T07:36:48Z</time>
      </trkpt>
      <trkpt lat="42.349175000" lon="-2.649635000">
        <ele>935.40</ele>
        <time>2016-10-29T07:36:49Z</time>
      </trkpt>
      <trkpt lat="42.349164000" lon="-2.649624000">
        <ele>935.50</ele>
        <time>2016-10-29T07:36:50Z</time>
      </trkpt>
      <trkpt lat="42.349152000" lon="-2.649614000">
        <ele>935.80</ele>
        <time>2016-10-29T07:36:51Z</time>
      </trkpt>
      <trkpt lat="42.349141000" lon="-2.649603000">
        <ele>936.00</ele>
        <time>2016-10-29T07:36:52Z</time>
      </trkpt>
      <trkpt lat="42.349131000" lon="-2.649594000">
        <ele>936.20</ele>
        <time>2016-10-29T07:36:53Z</time>
      </trkpt>
      <trkpt lat="42.349120000" lon="-2.649584000">
        <ele>936.40</ele>
        <time>2016-10-29T07:36:54Z</time>
      </trkpt>
      <trkpt lat="42.349111000" lon="-2.649576000">
        <ele>936.60</ele>
        <time>2016-10-29T07:36:55Z</time>
      </trkpt>
      <trkpt lat="42.349101000" lon="-2.649568000">
        <ele>936.80</ele>
        <time>2016-10-29T07:36:56Z</time>
      </trkpt>
      <trkpt lat="42.349088000" lon="-2.649559000">
        <ele>937.10</ele>
        <time>2016-10-29T07:36:57Z</time>
      </trkpt>
      <trkpt lat="42.349076000" lon="-2.649547000">
        <ele>937.30</ele>
        <time>2016-10-29T07:36:58Z</time>
      </trkpt>
      <trkpt lat="42.349063000" lon="-2.649535000">
        <ele>937.50</ele>
        <time>2016-10-29T07:36:59Z</time>
      </trkpt>
      <trkpt lat="42.349050000" lon="-2.649529000">
        <ele>937.60</ele>
        <time>2016-10-29T07:37:00Z</time>
      </trkpt>
      <trkpt lat="42.349039000" lon="-2.649514000">
        <ele>937.70</ele>
        <time>2016-10-29T07:37:01Z</time>
      </trkpt>
      <trkpt lat="42.349028000" lon="-2.649505000">
        <ele>937.80</ele>
        <time>2016-10-29T07:37:02Z</time>
      </trkpt>
      <trkpt lat="42.349018000" lon="-2.649494000">
        <ele>938.10</ele>
        <time>2016-10-29T07:37:03Z</time>
      </trkpt>
      <trkpt lat="42.349006000" lon="-2.649484000">
        <ele>938.30</ele>
        <time>2016-10-29T07:37:04Z</time>
      </trkpt>
      <trkpt lat="42.348995000" lon="-2.649473000">
        <ele>938.50</ele>
        <time>2016-10-29T07:37:05Z</time>
      </trkpt>
      <trkpt lat="42.348988000" lon="-2.649463000">
        <ele>938.80</ele>
        <time>2016-10-29T07:37:06Z</time>
      </trkpt>
      <trkpt lat="42.348979000" lon="-2.649454000">
        <ele>939.00</ele>
        <time>2016-10-29T07:37:07Z</time>
      </trkpt>
      <trkpt lat="42.348968000" lon="-2.649447000">
        <ele>939.30</ele>
        <time>2016-10-29T07:37:08Z</time>
      </trkpt>
      <trkpt lat="42.348959000" lon="-2.649438000">
        <ele>939.60</ele>
        <time>2016-10-29T07:37:09Z</time>
      </trkpt>
      <trkpt lat="42.348953000" lon="-2.649426000">
        <ele>939.80</ele>
        <time>2016-10-29T07:37:10Z</time>
      </trkpt>
      <trkpt lat="42.348945000" lon="-2.649416000">
        <ele>940.00</ele>
        <time>2016-10-29T07:37:11Z</time>
      </trkpt>
      <trkpt lat="42.348935000" lon="-2.649407000">
        <ele>940.10</ele>
        <time>2016-10-29T07:37:12Z</time>
      </trkpt>
      <trkpt lat="42.348924000" lon="-2.649396000">
        <ele>940.30</ele>
        <time>2016-10-29T07:37:13Z</time>
      </trkpt>
      <trkpt lat="42.348917000" lon="-2.649387000">
        <ele>940.50</ele>
        <time>2016-10-29T07:37:14Z</time>
      </trkpt>
      <trkpt lat="42.348905000" lon="-2.649376000">
        <ele>940.70</ele>
        <time>2016-10-29T07:37:15Z</time>
      </trkpt>
      <trkpt lat="42.348894000" lon="-2.649365000">
        <ele>940.90</ele>
        <time>2016-10-29T07:37:16Z</time>
      </trkpt>
      <trkpt lat="42.348887000" lon="-2.649353000">
        <ele>941.00</ele>
        <time>2016-10-29T07:37:17Z</time>
      </trkpt>
      <trkpt lat="42.348880000" lon="-2.649338000">
        <ele>941.10</ele>
        <time>2016-10-29T07:37:18Z</time>
      </trkpt>
      <trkpt lat="42.348873000" lon="-2.649328000">
        <ele>941.30</ele>
        <time>2016-10-29T07:37:19Z</time>
      </trkpt>
      <trkpt lat="42.348865000" lon="-2.649321000">
        <ele>941.40</ele>
        <time>2016-10-29T07:37:20Z</time>
      </trkpt>
      <trkpt lat="42.348854000" lon="-2.649313000">
        <ele>941.60</ele>
        <time>2016-10-29T07:37:21Z</time>
      </trkpt>
      <trkpt lat="42.348844000" lon="-2.649304000">
        <ele>941.60</ele>
        <time>2016-10-29T07:37:22Z</time>
      </trkpt>
      <trkpt lat="42.348836000" lon="-2.649296000">
        <ele>941.90</ele>
        <time>2016-10-29T07:37:23Z</time>
      </trkpt>
      <trkpt lat="42.348827000" lon="-2.649288000">
        <ele>942.10</ele>
        <time>2016-10-29T07:37:24Z</time>
      </trkpt>
      <trkpt lat="42.348820000" lon="-2.649279000">
        <ele>942.30</ele>
        <time>2016-10-29T07:37:25Z</time>
      </trkpt>
      <trkpt lat="42.348801000" lon="-2.649259000">
        <ele>942.60</ele>
        <time>2016-10-29T07:37:27Z</time>
      </trkpt>
      <trkpt lat="42.348793000" lon="-2.649246000">
        <ele>942.80</ele>
        <time>2016-10-29T07:37:28Z</time>
      </trkpt>
      <trkpt lat="42.348784000" lon="-2.649232000">
        <ele>942.90</ele>
        <time>2016-10-29T07:37:29Z</time>
      </trkpt>
      <trkpt lat="42.348776000" lon="-2.649221000">
        <ele>943.00</ele>
        <time>2016-10-29T07:37:30Z</time>
      </trkpt>
      <trkpt lat="42.348767000" lon="-2.649211000">
        <ele>943.20</ele>
        <time>2016-10-29T07:37:31Z</time>
      </trkpt>
      <trkpt lat="42.348760000" lon="-2.649200000">
        <ele>943.40</ele>
        <time>2016-10-29T07:37:32Z</time>
      </trkpt>
      <trkpt lat="42.348751000" lon="-2.649187000">
        <ele>943.60</ele>
        <time>2016-10-29T07:37:33Z</time>
      </trkpt>
      <trkpt lat="42.348742000" lon="-2.649180000">
        <ele>943.80</ele>
        <time>2016-10-29T07:37:34Z</time>
      </trkpt>
      <trkpt lat="42.348735000" lon="-2.649172000">
        <ele>944.00</ele>
        <time>2016-10-29T07:37:35Z</time>
      </trkpt>
      <trkpt lat="42.348723000" lon="-2.649161000">
        <ele>944.20</ele>
        <time>2016-10-29T07:37:36Z</time>
      </trkpt>
      <trkpt lat="42.348715000" lon="-2.649149000">
        <ele>944.40</ele>
        <time>2016-10-29T07:37:37Z</time>
      </trkpt>
      <trkpt lat="42.348704000" lon="-2.649141000">
        <ele>944.60</ele>
        <time>2016-10-29T07:37:38Z</time>
      </trkpt>
      <trkpt lat="42.348693000" lon="-2.649129000">
        <ele>944.80</ele>
        <time>2016-10-29T07:37:39Z</time>
      </trkpt>
      <trkpt lat="42.348680000" lon="-2.649117000">
        <ele>944.90</ele>
        <time>2016-10-29T07:37:40Z</time>
      </trkpt>
      <trkpt lat="42.348670000" lon="-2.649103000">
        <ele>945.00</ele>
        <time>2016-10-29T07:37:41Z</time>
      </trkpt>
      <trkpt lat="42.348664000" lon="-2.649088000">
        <ele>945.00</ele>
        <time>2016-10-29T07:37:42Z</time>
      </trkpt>
      <trkpt lat="42.348654000" lon="-2.649076000">
        <ele>945.20</ele>
        <time>2016-10-29T07:37:43Z</time>
      </trkpt>
      <trkpt lat="42.348645000" lon="-2.649067000">
        <ele>945.40</ele>
        <time>2016-10-29T07:37:44Z</time>
      </trkpt>
      <trkpt lat="42.348637000" lon="-2.649059000">
        <ele>945.60</ele>
        <time>2016-10-29T07:37:45Z</time>
      </trkpt>
      <trkpt lat="42.348629000" lon="-2.649048000">
        <ele>945.80</ele>
        <time>2016-10-29T07:37:46Z</time>
      </trkpt>
      <trkpt lat="42.348621000" lon="-2.649040000">
        <ele>945.90</ele>
        <time>2016-10-29T07:37:47Z</time>
      </trkpt>
      <trkpt lat="42.348614000" lon="-2.649033000">
        <ele>946.00</ele>
        <time>2016-10-29T07:37:48Z</time>
      </trkpt>
      <trkpt lat="42.348609000" lon="-2.649022000">
        <ele>946.10</ele>
        <time>2016-10-29T07:37:49Z</time>
      </trkpt>
      <trkpt lat="42.348602000" lon="-2.649007000">
        <ele>946.20</ele>
        <time>2016-10-29T07:37:50Z</time>
      </trkpt>
      <trkpt lat="42.348593000" lon="-2.648996000">
        <ele>946.30</ele>
        <time>2016-10-29T07:37:51Z</time>
      </trkpt>
      <trkpt lat="42.348582000" lon="-2.648986000">
        <ele>946.40</ele>
        <time>2016-10-29T07:37:52Z</time>
      </trkpt>
      <trkpt lat="42.348573000" lon="-2.648972000">
        <ele>946.50</ele>
        <time>2016-10-29T07:37:53Z</time>
      </trkpt>
      <trkpt lat="42.348562000" lon="-2.648961000">
        <ele>946.50</ele>
        <time>2016-10-29T07:37:54Z</time>
      </trkpt>
      <trkpt lat="42.348553000" lon="-2.648950000">
        <ele>946.60</ele>
        <time>2016-10-29T07:37:55Z</time>
      </trkpt>
      <trkpt lat="42.348547000" lon="-2.648934000">
        <ele>946.60</ele>
        <time>2016-10-29T07:37:56Z</time>
      </trkpt>
      <trkpt lat="42.348540000" lon="-2.648921000">
        <ele>946.70</ele>
        <time>2016-10-29T07:37:57Z</time>
      </trkpt>
      <trkpt lat="42.348530000" lon="-2.648908000">
        <ele>946.90</ele>
        <time>2016-10-29T07:37:58Z</time>
      </trkpt>
      <trkpt lat="42.348523000" lon="-2.648895000">
        <ele>947.00</ele>
        <time>2016-10-29T07:37:59Z</time>
      </trkpt>
      <trkpt lat="42.348515000" lon="-2.648882000">
        <ele>947.10</ele>
        <time>2016-10-29T07:38:00Z</time>
      </trkpt>
      <trkpt lat="42.348508000" lon="-2.648869000">
        <ele>947.30</ele>
        <time>2016-10-29T07:38:01Z</time>
      </trkpt>
      <trkpt lat="42.348501000" lon="-2.648857000">
        <ele>947.40</ele>
        <time>2016-10-29T07:38:02Z</time>
      </trkpt>
      <trkpt lat="42.348492000" lon="-2.648843000">
        <ele>947.50</ele>
        <time>2016-10-29T07:38:03Z</time>
      </trkpt>
      <trkpt lat="42.348486000" lon="-2.648831000">
        <ele>947.70</ele>
        <time>2016-10-29T07:38:04Z</time>
      </trkpt>
      <trkpt lat="42.348479000" lon="-2.648819000">
        <ele>947.80</ele>
        <time>2016-10-29T07:38:05Z</time>
      </trkpt>
      <trkpt lat="42.348470000" lon="-2.648805000">
        <ele>947.90</ele>
        <time>2016-10-29T07:38:06Z</time>
      </trkpt>
      <trkpt lat="42.348465000" lon="-2.648790000">
        <ele>948.10</ele>
        <time>2016-10-29T07:38:07Z</time>
      </trkpt>
      <trkpt lat="42.348458000" lon="-2.648773000">
        <ele>948.30</ele>
        <time>2016-10-29T07:38:08Z</time>
      </trkpt>
      <trkpt lat="42.348454000" lon="-2.648758000">
        <ele>948.40</ele>
        <time>2016-10-29T07:38:09Z</time>
      </trkpt>
      <trkpt lat="42.348448000" lon="-2.648744000">
        <ele>948.50</ele>
        <time>2016-10-29T07:38:10Z</time>
      </trkpt>
      <trkpt lat="42.348440000" lon="-2.648734000">
        <ele>948.70</ele>
        <time>2016-10-29T07:38:11Z</time>
      </trkpt>
      <trkpt lat="42.348432000" lon="-2.648719000">
        <ele>948.80</ele>
        <time>2016-10-29T07:38:12Z</time>
      </trkpt>
      <trkpt lat="42.348424000" lon="-2.648706000">
        <ele>949.20</ele>
        <time>2016-10-29T07:38:13Z</time>
      </trkpt>
      <trkpt lat="42.348418000" lon="-2.648694000">
        <ele>949.50</ele>
        <time>2016-10-29T07:38:14Z</time>
      </trkpt>
      <trkpt lat="42.348410000" lon="-2.648682000">
        <ele>949.80</ele>
        <time>2016-10-29T07:38:15Z</time>
      </trkpt>
      <trkpt lat="42.348401000" lon="-2.648673000">
        <ele>950.00</ele>
        <time>2016-10-29T07:38:16Z</time>
      </trkpt>
      <trkpt lat="42.348392000" lon="-2.648661000">
        <ele>950.10</ele>
        <time>2016-10-29T07:38:17Z</time>
      </trkpt>
      <trkpt lat="42.348383000" lon="-2.648649000">
        <ele>950.30</ele>
        <time>2016-10-29T07:38:18Z</time>
      </trkpt>
      <trkpt lat="42.348372000" lon="-2.648635000">
        <ele>950.50</ele>
        <time>2016-10-29T07:38:19Z</time>
      </trkpt>
      <trkpt lat="42.348368000" lon="-2.648618000">
        <ele>950.60</ele>
        <time>2016-10-29T07:38:20Z</time>
      </trkpt>
      <trkpt lat="42.348364000" lon="-2.648602000">
        <ele>950.80</ele>
        <time>2016-10-29T07:38:21Z</time>
      </trkpt>
      <trkpt lat="42.348363000" lon="-2.648592000">
        <ele>951.00</ele>
        <time>2016-10-29T07:38:22Z</time>
      </trkpt>
      <trkpt lat="42.348357000" lon="-2.648579000">
        <ele>951.20</ele>
        <time>2016-10-29T07:38:23Z</time>
      </trkpt>
      <trkpt lat="42.348351000" lon="-2.648569000">
        <ele>951.30</ele>
        <time>2016-10-29T07:38:24Z</time>
      </trkpt>
      <trkpt lat="42.348342000" lon="-2.648563000">
        <ele>951.40</ele>
        <time>2016-10-29T07:38:25Z</time>
      </trkpt>
      <trkpt lat="42.348338000" lon="-2.648548000">
        <ele>951.50</ele>
        <time>2016-10-29T07:38:26Z</time>
      </trkpt>
      <trkpt lat="42.348338000" lon="-2.648539000">
        <ele>951.60</ele>
        <time>2016-10-29T07:38:27Z</time>
      </trkpt>
      <trkpt lat="42.348320000" lon="-2.648523000">
        <ele>951.90</ele>
        <time>2016-10-29T07:38:29Z</time>
      </trkpt>
      <trkpt lat="42.348313000" lon="-2.648510000">
        <ele>952.00</ele>
        <time>2016-10-29T07:38:30Z</time>
      </trkpt>
      <trkpt lat="42.348311000" lon="-2.648494000">
        <ele>952.40</ele>
        <time>2016-10-29T07:38:31Z</time>
      </trkpt>
      <trkpt lat="42.348308000" lon="-2.648482000">
        <ele>952.70</ele>
        <time>2016-10-29T07:38:32Z</time>
      </trkpt>
      <trkpt lat="42.348301000" lon="-2.648468000">
        <ele>953.00</ele>
        <time>2016-10-29T07:38:33Z</time>
      </trkpt>
      <trkpt lat="42.348296000" lon="-2.648450000">
        <ele>953.20</ele>
        <time>2016-10-29T07:38:34Z</time>
      </trkpt>
      <trkpt lat="42.348291000" lon="-2.648435000">
        <ele>953.40</ele>
        <time>2016-10-29T07:38:35Z</time>
      </trkpt>
      <trkpt lat="42.348283000" lon="-2.648421000">
        <ele>953.50</ele>
        <time>2016-10-29T07:38:36Z</time>
      </trkpt>
      <trkpt lat="42.348274000" lon="-2.648412000">
        <ele>953.60</ele>
        <time>2016-10-29T07:38:37Z</time>
      </trkpt>
      <trkpt lat="42.348268000" lon="-2.648402000">
        <ele>953.60</ele>
        <time>2016-10-29T07:38:38Z</time>
      </trkpt>
      <trkpt lat="42.348260000" lon="-2.648393000">
        <ele>953.80</ele>
        <time>2016-10-29T07:38:39Z</time>
      </trkpt>
      <trkpt lat="42.348253000" lon="-2.648381000">
        <ele>953.80</ele>
        <time>2016-10-29T07:38:40Z</time>
      </trkpt>
      <trkpt lat="42.348246000" lon="-2.648364000">
        <ele>954.10</ele>
        <time>2016-10-29T07:38:41Z</time>
      </trkpt>
      <trkpt lat="42.348235000" lon="-2.648351000">
        <ele>954.30</ele>
        <time>2016-10-29T07:38:42Z</time>
      </trkpt>
      <trkpt lat="42.348229000" lon="-2.648337000">
        <ele>954.50</ele>
        <time>2016-10-29T07:38:43Z</time>
      </trkpt>
      <trkpt lat="42.348221000" lon="-2.648323000">
        <ele>954.60</ele>
        <time>2016-10-29T07:38:44Z</time>
      </trkpt>
      <trkpt lat="42.348212000" lon="-2.648313000">
        <ele>954.80</ele>
        <time>2016-10-29T07:38:45Z</time>
      </trkpt>
      <trkpt lat="42.348208000" lon="-2.648306000">
        <ele>954.80</ele>
        <time>2016-10-29T07:38:46Z</time>
      </trkpt>
      <trkpt lat="42.348205000" lon="-2.648297000">
        <ele>955.00</ele>
        <time>2016-10-29T07:38:47Z</time>
      </trkpt>
      <trkpt lat="42.348201000" lon="-2.648282000">
        <ele>955.10</ele>
        <time>2016-10-29T07:38:48Z</time>
      </trkpt>
      <trkpt lat="42.348200000" lon="-2.648265000">
        <ele>955.10</ele>
        <time>2016-10-29T07:38:49Z</time>
      </trkpt>
      <trkpt lat="42.348195000" lon="-2.648253000">
        <ele>955.20</ele>
        <time>2016-10-29T07:38:50Z</time>
      </trkpt>
      <trkpt lat="42.348191000" lon="-2.648238000">
        <ele>955.20</ele>
        <time>2016-10-29T07:38:51Z</time>
      </trkpt>
      <trkpt lat="42.348187000" lon="-2.648215000">
        <ele>955.30</ele>
        <time>2016-10-29T07:38:52Z</time>
      </trkpt>
      <trkpt lat="42.348186000" lon="-2.648195000">
        <ele>955.40</ele>
        <time>2016-10-29T07:38:53Z</time>
      </trkpt>
      <trkpt lat="42.348184000" lon="-2.648177000">
        <ele>955.40</ele>
        <time>2016-10-29T07:38:54Z</time>
      </trkpt>
      <trkpt lat="42.348179000" lon="-2.648164000">
        <ele>955.60</ele>
        <time>2016-10-29T07:38:55Z</time>
      </trkpt>
      <trkpt lat="42.348172000" lon="-2.648150000">
        <ele>955.80</ele>
        <time>2016-10-29T07:38:56Z</time>
      </trkpt>
      <trkpt lat="42.348165000" lon="-2.648139000">
        <ele>956.10</ele>
        <time>2016-10-29T07:38:57Z</time>
      </trkpt>
      <trkpt lat="42.348160000" lon="-2.648127000">
        <ele>956.30</ele>
        <time>2016-10-29T07:38:58Z</time>
      </trkpt>
      <trkpt lat="42.348155000" lon="-2.648115000">
        <ele>956.50</ele>
        <time>2016-10-29T07:38:59Z</time>
      </trkpt>
      <trkpt lat="42.348151000" lon="-2.648099000">
        <ele>956.60</ele>
        <time>2016-10-29T07:39:00Z</time>
      </trkpt>
      <trkpt lat="42.348147000" lon="-2.648089000">
        <ele>957.00</ele>
        <time>2016-10-29T07:39:01Z</time>
      </trkpt>
      <trkpt lat="42.348143000" lon="-2.648080000">
        <ele>957.20</ele>
        <time>2016-10-29T07:39:02Z</time>
      </trkpt>
      <trkpt lat="42.348139000" lon="-2.648066000">
        <ele>957.50</ele>
        <time>2016-10-29T07:39:03Z</time>
      </trkpt>
      <trkpt lat="42.348132000" lon="-2.648055000">
        <ele>957.70</ele>
        <time>2016-10-29T07:39:04Z</time>
      </trkpt>
      <trkpt lat="42.348128000" lon="-2.648043000">
        <ele>957.90</ele>
        <time>2016-10-29T07:39:05Z</time>
      </trkpt>
      <trkpt lat="42.348122000" lon="-2.648029000">
        <ele>958.10</ele>
        <time>2016-10-29T07:39:06Z</time>
      </trkpt>
      <trkpt lat="42.348114000" lon="-2.648019000">
        <ele>958.20</ele>
        <time>2016-10-29T07:39:07Z</time>
      </trkpt>
      <trkpt lat="42.348108000" lon="-2.648007000">
        <ele>958.30</ele>
        <time>2016-10-29T07:39:08Z</time>
      </trkpt>
      <trkpt lat="42.348104000" lon="-2.647996000">
        <ele>958.50</ele>
        <time>2016-10-29T07:39:09Z</time>
      </trkpt>
      <trkpt lat="42.348097000" lon="-2.647985000">
        <ele>958.60</ele>
        <time>2016-10-29T07:39:10Z</time>
      </trkpt>
      <trkpt lat="42.348089000" lon="-2.647974000">
        <ele>958.70</ele>
        <time>2016-10-29T07:39:11Z</time>
      </trkpt>
      <trkpt lat="42.348083000" lon="-2.647964000">
        <ele>958.80</ele>
        <time>2016-10-29T07:39:12Z</time>
      </trkpt>
      <trkpt lat="42.348080000" lon="-2.647951000">
        <ele>959.10</ele>
        <time>2016-10-29T07:39:13Z</time>
      </trkpt>
      <trkpt lat="42.348075000" lon="-2.647939000">
        <ele>959.30</ele>
        <time>2016-10-29T07:39:14Z</time>
      </trkpt>
      <trkpt lat="42.348069000" lon="-2.647927000">
        <ele>959.40</ele>
        <time>2016-10-29T07:39:15Z</time>
      </trkpt>
      <trkpt lat="42.348063000" lon="-2.647915000">
        <ele>959.50</ele>
        <time>2016-10-29T07:39:16Z</time>
      </trkpt>
      <trkpt lat="42.348056000" lon="-2.647908000">
        <ele>959.70</ele>
        <time>2016-10-29T07:39:17Z</time>
      </trkpt>
      <trkpt lat="42.348048000" lon="-2.647893000">
        <ele>959.80</ele>
        <time>2016-10-29T07:39:18Z</time>
      </trkpt>
      <trkpt lat="42.348042000" lon="-2.647876000">
        <ele>959.90</ele>
        <time>2016-10-29T07:39:19Z</time>
      </trkpt>
      <trkpt lat="42.348037000" lon="-2.647863000">
        <ele>959.90</ele>
        <time>2016-10-29T07:39:20Z</time>
      </trkpt>
      <trkpt lat="42.348035000" lon="-2.647848000">
        <ele>960.20</ele>
        <time>2016-10-29T07:39:21Z</time>
      </trkpt>
      <trkpt lat="42.348032000" lon="-2.647835000">
        <ele>960.40</ele>
        <time>2016-10-29T07:39:22Z</time>
      </trkpt>
      <trkpt lat="42.348024000" lon="-2.647825000">
        <ele>960.60</ele>
        <time>2016-10-29T07:39:23Z</time>
      </trkpt>
      <trkpt lat="42.348017000" lon="-2.647811000">
        <ele>960.70</ele>
        <time>2016-10-29T07:39:24Z</time>
      </trkpt>
      <trkpt lat="42.348012000" lon="-2.647796000">
        <ele>960.90</ele>
        <time>2016-10-29T07:39:25Z</time>
      </trkpt>
      <trkpt lat="42.348005000" lon="-2.647782000">
        <ele>961.10</ele>
        <time>2016-10-29T07:39:26Z</time>
      </trkpt>
      <trkpt lat="42.348002000" lon="-2.647768000">
        <ele>961.40</ele>
        <time>2016-10-29T07:39:27Z</time>
      </trkpt>
      <trkpt lat="42.347998000" lon="-2.647752000">
        <ele>961.70</ele>
        <time>2016-10-29T07:39:28Z</time>
      </trkpt>
      <trkpt lat="42.347991000" lon="-2.647743000">
        <ele>961.90</ele>
        <time>2016-10-29T07:39:29Z</time>
      </trkpt>
      <trkpt lat="42.347978000" lon="-2.647715000">
        <ele>962.00</ele>
        <time>2016-10-29T07:39:31Z</time>
      </trkpt>
      <trkpt lat="42.347972000" lon="-2.647703000">
        <ele>962.00</ele>
        <time>2016-10-29T07:39:32Z</time>
      </trkpt>
      <trkpt lat="42.347967000" lon="-2.647690000">
        <ele>962.00</ele>
        <time>2016-10-29T07:39:33Z</time>
      </trkpt>
      <trkpt lat="42.347961000" lon="-2.647676000">
        <ele>962.00</ele>
        <time>2016-10-29T07:39:34Z</time>
      </trkpt>
      <trkpt lat="42.347955000" lon="-2.647663000">
        <ele>962.30</ele>
        <time>2016-10-29T07:39:35Z</time>
      </trkpt>
      <trkpt lat="42.347949000" lon="-2.647648000">
        <ele>962.50</ele>
        <time>2016-10-29T07:39:36Z</time>
      </trkpt>
      <trkpt lat="42.347947000" lon="-2.647633000">
        <ele>962.70</ele>
        <time>2016-10-29T07:39:37Z</time>
      </trkpt>
      <trkpt lat="42.347941000" lon="-2.647617000">
        <ele>962.90</ele>
        <time>2016-10-29T07:39:38Z</time>
      </trkpt>
      <trkpt lat="42.347935000" lon="-2.647601000">
        <ele>963.10</ele>
        <time>2016-10-29T07:39:39Z</time>
      </trkpt>
      <trkpt lat="42.347930000" lon="-2.647589000">
        <ele>963.40</ele>
        <time>2016-10-29T07:39:40Z</time>
      </trkpt>
      <trkpt lat="42.347923000" lon="-2.647580000">
        <ele>963.70</ele>
        <time>2016-10-29T07:39:41Z</time>
      </trkpt>
      <trkpt lat="42.347917000" lon="-2.647569000">
        <ele>964.00</ele>
        <time>2016-10-29T07:39:42Z</time>
      </trkpt>
      <trkpt lat="42.347914000" lon="-2.647554000">
        <ele>964.20</ele>
        <time>2016-10-29T07:39:43Z</time>
      </trkpt>
      <trkpt lat="42.347912000" lon="-2.647538000">
        <ele>964.40</ele>
        <time>2016-10-29T07:39:44Z</time>
      </trkpt>
      <trkpt lat="42.347909000" lon="-2.647528000">
        <ele>964.50</ele>
        <time>2016-10-29T07:39:45Z</time>
      </trkpt>
      <trkpt lat="42.347902000" lon="-2.647516000">
        <ele>964.60</ele>
        <time>2016-10-29T07:39:46Z</time>
      </trkpt>
      <trkpt lat="42.347897000" lon="-2.647505000">
        <ele>964.80</ele>
        <time>2016-10-29T07:39:47Z</time>
      </trkpt>
      <trkpt lat="42.347893000" lon="-2.647492000">
        <ele>964.90</ele>
        <time>2016-10-29T07:39:48Z</time>
      </trkpt>
      <trkpt lat="42.347889000" lon="-2.647479000">
        <ele>965.10</ele>
        <time>2016-10-29T07:39:49Z</time>
      </trkpt>
      <trkpt lat="42.347881000" lon="-2.647468000">
        <ele>965.20</ele>
        <time>2016-10-29T07:39:50Z</time>
      </trkpt>
      <trkpt lat="42.347875000" lon="-2.647457000">
        <ele>965.40</ele>
        <time>2016-10-29T07:39:51Z</time>
      </trkpt>
      <trkpt lat="42.347869000" lon="-2.647445000">
        <ele>965.60</ele>
        <time>2016-10-29T07:39:52Z</time>
      </trkpt>
      <trkpt lat="42.347862000" lon="-2.647433000">
        <ele>965.80</ele>
        <time>2016-10-29T07:39:53Z</time>
      </trkpt>
      <trkpt lat="42.347853000" lon="-2.647421000">
        <ele>965.90</ele>
        <time>2016-10-29T07:39:54Z</time>
      </trkpt>
      <trkpt lat="42.347844000" lon="-2.647408000">
        <ele>965.90</ele>
        <time>2016-10-29T07:39:55Z</time>
      </trkpt>
      <trkpt lat="42.347838000" lon="-2.647392000">
        <ele>966.00</ele>
        <time>2016-10-29T07:39:56Z</time>
      </trkpt>
      <trkpt lat="42.347832000" lon="-2.647376000">
        <ele>966.10</ele>
        <time>2016-10-29T07:39:57Z</time>
      </trkpt>
      <trkpt lat="42.347825000" lon="-2.647359000">
        <ele>966.30</ele>
        <time>2016-10-29T07:39:58Z</time>
      </trkpt>
      <trkpt lat="42.347815000" lon="-2.647345000">
        <ele>966.30</ele>
        <time>2016-10-29T07:39:59Z</time>
      </trkpt>
      <trkpt lat="42.347809000" lon="-2.647332000">
        <ele>966.40</ele>
        <time>2016-10-29T07:40:00Z</time>
      </trkpt>
      <trkpt lat="42.347805000" lon="-2.647319000">
        <ele>966.50</ele>
        <time>2016-10-29T07:40:01Z</time>
      </trkpt>
      <trkpt lat="42.347798000" lon="-2.647306000">
        <ele>966.60</ele>
        <time>2016-10-29T07:40:02Z</time>
      </trkpt>
      <trkpt lat="42.347796000" lon="-2.647291000">
        <ele>966.90</ele>
        <time>2016-10-29T07:40:03Z</time>
      </trkpt>
      <trkpt lat="42.347796000" lon="-2.647276000">
        <ele>967.10</ele>
        <time>2016-10-29T07:40:04Z</time>
      </trkpt>
      <trkpt lat="42.347793000" lon="-2.647263000">
        <ele>967.40</ele>
        <time>2016-10-29T07:40:05Z</time>
      </trkpt>
      <trkpt lat="42.347789000" lon="-2.647252000">
        <ele>967.70</ele>
        <time>2016-10-29T07:40:06Z</time>
      </trkpt>
      <trkpt lat="42.347783000" lon="-2.647245000">
        <ele>967.80</ele>
        <time>2016-10-29T07:40:07Z</time>
      </trkpt>
      <trkpt lat="42.347781000" lon="-2.647232000">
        <ele>967.80</ele>
        <time>2016-10-29T07:40:08Z</time>
      </trkpt>
      <trkpt lat="42.347779000" lon="-2.647220000">
        <ele>968.00</ele>
        <time>2016-10-29T07:40:09Z</time>
      </trkpt>
      <trkpt lat="42.347769000" lon="-2.647208000">
        <ele>968.10</ele>
        <time>2016-10-29T07:40:10Z</time>
      </trkpt>
      <trkpt lat="42.347763000" lon="-2.647194000">
        <ele>968.30</ele>
        <time>2016-10-29T07:40:11Z</time>
      </trkpt>
      <trkpt lat="42.347756000" lon="-2.647182000">
        <ele>968.40</ele>
        <time>2016-10-29T07:40:12Z</time>
      </trkpt>
      <trkpt lat="42.347750000" lon="-2.647168000">
        <ele>968.50</ele>
        <time>2016-10-29T07:40:13Z</time>
      </trkpt>
      <trkpt lat="42.347746000" lon="-2.647153000">
        <ele>968.70</ele>
        <time>2016-10-29T07:40:14Z</time>
      </trkpt>
      <trkpt lat="42.347739000" lon="-2.647139000">
        <ele>968.80</ele>
        <time>2016-10-29T07:40:15Z</time>
      </trkpt>
      <trkpt lat="42.347730000" lon="-2.647124000">
        <ele>968.80</ele>
        <time>2016-10-29T07:40:16Z</time>
      </trkpt>
      <trkpt lat="42.347724000" lon="-2.647112000">
        <ele>969.10</ele>
        <time>2016-10-29T07:40:17Z</time>
      </trkpt>
      <trkpt lat="42.347719000" lon="-2.647100000">
        <ele>969.30</ele>
        <time>2016-10-29T07:40:18Z</time>
      </trkpt>
      <trkpt lat="42.347716000" lon="-2.647090000">
        <ele>969.50</ele>
        <time>2016-10-29T07:40:19Z</time>
      </trkpt>
      <trkpt lat="42.347711000" lon="-2.647075000">
        <ele>969.60</ele>
        <time>2016-10-29T07:40:20Z</time>
      </trkpt>
      <trkpt lat="42.347703000" lon="-2.647065000">
        <ele>969.70</ele>
        <time>2016-10-29T07:40:21Z</time>
      </trkpt>
      <trkpt lat="42.347693000" lon="-2.647053000">
        <ele>969.70</ele>
        <time>2016-10-29T07:40:22Z</time>
      </trkpt>
      <trkpt lat="42.347688000" lon="-2.647040000">
        <ele>969.70</ele>
        <time>2016-10-29T07:40:23Z</time>
      </trkpt>
      <trkpt lat="42.347686000" lon="-2.647029000">
        <ele>969.70</ele>
        <time>2016-10-29T07:40:24Z</time>
      </trkpt>
      <trkpt lat="42.347682000" lon="-2.647019000">
        <ele>969.90</ele>
        <time>2016-10-29T07:40:25Z</time>
      </trkpt>
      <trkpt lat="42.347678000" lon="-2.647005000">
        <ele>970.10</ele>
        <time>2016-10-29T07:40:26Z</time>
      </trkpt>
      <trkpt lat="42.347673000" lon="-2.646996000">
        <ele>970.30</ele>
        <time>2016-10-29T07:40:27Z</time>
      </trkpt>
      <trkpt lat="42.347669000" lon="-2.646986000">
        <ele>970.40</ele>
        <time>2016-10-29T07:40:28Z</time>
      </trkpt>
      <trkpt lat="42.347660000" lon="-2.646977000">
        <ele>970.60</ele>
        <time>2016-10-29T07:40:29Z</time>
      </trkpt>
      <trkpt lat="42.347655000" lon="-2.646964000">
        <ele>970.70</ele>
        <time>2016-10-29T07:40:30Z</time>
      </trkpt>
      <trkpt lat="42.347650000" lon="-2.646946000">
        <ele>971.00</ele>
        <time>2016-10-29T07:40:31Z</time>
      </trkpt>
      <trkpt lat="42.347633000" lon="-2.646918000">
        <ele>971.30</ele>
        <time>2016-10-29T07:40:33Z</time>
      </trkpt>
      <trkpt lat="42.347626000" lon="-2.646901000">
        <ele>971.50</ele>
        <time>2016-10-29T07:40:34Z</time>
      </trkpt>
      <trkpt lat="42.347621000" lon="-2.646887000">
        <ele>971.60</ele>
        <time>2016-10-29T07:40:35Z</time>
      </trkpt>
      <trkpt lat="42.347613000" lon="-2.646869000">
        <ele>971.60</ele>
        <time>2016-10-29T07:40:36Z</time>
      </trkpt>
      <trkpt lat="42.347607000" lon="-2.646853000">
        <ele>971.70</ele>
        <time>2016-10-29T07:40:37Z</time>
      </trkpt>
      <trkpt lat="42.347601000" lon="-2.646844000">
        <ele>971.70</ele>
        <time>2016-10-29T07:40:38Z</time>
      </trkpt>
      <trkpt lat="42.347596000" lon="-2.646830000">
        <ele>971.90</ele>
        <time>2016-10-29T07:40:39Z</time>
      </trkpt>
      <trkpt lat="42.347591000" lon="-2.646817000">
        <ele>972.00</ele>
        <time>2016-10-29T07:40:40Z</time>
      </trkpt>
      <trkpt lat="42.347586000" lon="-2.646807000">
        <ele>972.10</ele>
        <time>2016-10-29T07:40:41Z</time>
      </trkpt>
      <trkpt lat="42.347584000" lon="-2.646793000">
        <ele>972.20</ele>
        <time>2016-10-29T07:40:42Z</time>
      </trkpt>
      <trkpt lat="42.347574000" lon="-2.646788000">
        <ele>972.30</ele>
        <time>2016-10-29T07:40:43Z</time>
      </trkpt>
      <trkpt lat="42.347568000" lon="-2.646775000">
        <ele>972.40</ele>
        <time>2016-10-29T07:40:44Z</time>
      </trkpt>
      <trkpt lat="42.347561000" lon="-2.646759000">
        <ele>972.60</ele>
        <time>2016-10-29T07:40:45Z</time>
      </trkpt>
      <trkpt lat="42.347555000" lon="-2.646747000">
        <ele>972.80</ele>
        <time>2016-10-29T07:40:46Z</time>
      </trkpt>
      <trkpt lat="42.347553000" lon="-2.646732000">
        <ele>972.90</ele>
        <time>2016-10-29T07:40:47Z</time>
      </trkpt>
      <trkpt lat="42.347547000" lon="-2.646723000">
        <ele>973.00</ele>
        <time>2016-10-29T07:40:48Z</time>
      </trkpt>
      <trkpt lat="42.347539000" lon="-2.646714000">
        <ele>973.30</ele>
        <time>2016-10-29T07:40:49Z</time>
      </trkpt>
      <trkpt lat="42.347528000" lon="-2.646703000">
        <ele>973.40</ele>
        <time>2016-10-29T07:40:50Z</time>
      </trkpt>
      <trkpt lat="42.347523000" lon="-2.646692000">
        <ele>973.50</ele>
        <time>2016-10-29T07:40:51Z</time>
      </trkpt>
      <trkpt lat="42.347517000" lon="-2.646679000">
        <ele>973.60</ele>
        <time>2016-10-29T07:40:52Z</time>
      </trkpt>
      <trkpt lat="42.347514000" lon="-2.646664000">
        <ele>973.80</ele>
        <time>2016-10-29T07:40:53Z</time>
      </trkpt>
      <trkpt lat="42.347507000" lon="-2.646647000">
        <ele>973.90</ele>
        <time>2016-10-29T07:40:54Z</time>
      </trkpt>
      <trkpt lat="42.347504000" lon="-2.646635000">
        <ele>974.00</ele>
        <time>2016-10-29T07:40:55Z</time>
      </trkpt>
      <trkpt lat="42.347496000" lon="-2.646619000">
        <ele>974.10</ele>
        <time>2016-10-29T07:40:56Z</time>
      </trkpt>
      <trkpt lat="42.347486000" lon="-2.646603000">
        <ele>974.20</ele>
        <time>2016-10-29T07:40:57Z</time>
      </trkpt>
      <trkpt lat="42.347482000" lon="-2.646589000">
        <ele>974.30</ele>
        <time>2016-10-29T07:40:58Z</time>
      </trkpt>
      <trkpt lat="42.347472000" lon="-2.646577000">
        <ele>974.60</ele>
        <time>2016-10-29T07:40:59Z</time>
      </trkpt>
      <trkpt lat="42.347467000" lon="-2.646567000">
        <ele>974.80</ele>
        <time>2016-10-29T07:41:00Z</time>
      </trkpt>
      <trkpt lat="42.347458000" lon="-2.646553000">
        <ele>975.00</ele>
        <time>2016-10-29T07:41:01Z</time>
      </trkpt>
      <trkpt lat="42.347451000" lon="-2.646543000">
        <ele>975.10</ele>
        <time>2016-10-29T07:41:02Z</time>
      </trkpt>
      <trkpt lat="42.347441000" lon="-2.646528000">
        <ele>975.30</ele>
        <time>2016-10-29T07:41:03Z</time>
      </trkpt>
      <trkpt lat="42.347434000" lon="-2.646514000">
        <ele>975.50</ele>
        <time>2016-10-29T07:41:04Z</time>
      </trkpt>
      <trkpt lat="42.347427000" lon="-2.646504000">
        <ele>975.60</ele>
        <time>2016-10-29T07:41:05Z</time>
      </trkpt>
      <trkpt lat="42.347419000" lon="-2.646491000">
        <ele>975.60</ele>
        <time>2016-10-29T07:41:06Z</time>
      </trkpt>
      <trkpt lat="42.347412000" lon="-2.646478000">
        <ele>975.70</ele>
        <time>2016-10-29T07:41:07Z</time>
      </trkpt>
      <trkpt lat="42.347406000" lon="-2.646464000">
        <ele>975.70</ele>
        <time>2016-10-29T07:41:08Z</time>
      </trkpt>
      <trkpt lat="42.347400000" lon="-2.646450000">
        <ele>975.80</ele>
        <time>2016-10-29T07:41:09Z</time>
      </trkpt>
      <trkpt lat="42.347393000" lon="-2.646438000">
        <ele>975.90</ele>
        <time>2016-10-29T07:41:10Z</time>
      </trkpt>
      <trkpt lat="42.347387000" lon="-2.646422000">
        <ele>976.10</ele>
        <time>2016-10-29T07:41:11Z</time>
      </trkpt>
      <trkpt lat="42.347379000" lon="-2.646409000">
        <ele>976.30</ele>
        <time>2016-10-29T07:41:12Z</time>
      </trkpt>
      <trkpt lat="42.347368000" lon="-2.646395000">
        <ele>976.40</ele>
        <time>2016-10-29T07:41:13Z</time>
      </trkpt>
      <trkpt lat="42.347357000" lon="-2.646382000">
        <ele>976.40</ele>
        <time>2016-10-29T07:41:14Z</time>
      </trkpt>
      <trkpt lat="42.347346000" lon="-2.646373000">
        <ele>976.60</ele>
        <time>2016-10-29T07:41:15Z</time>
      </trkpt>
      <trkpt lat="42.347339000" lon="-2.646360000">
        <ele>976.80</ele>
        <time>2016-10-29T07:41:16Z</time>
      </trkpt>
      <trkpt lat="42.347334000" lon="-2.646348000">
        <ele>977.00</ele>
        <time>2016-10-29T07:41:17Z</time>
      </trkpt>
      <trkpt lat="42.347325000" lon="-2.646338000">
        <ele>977.20</ele>
        <time>2016-10-29T07:41:18Z</time>
      </trkpt>
      <trkpt lat="42.347319000" lon="-2.646321000">
        <ele>977.30</ele>
        <time>2016-10-29T07:41:19Z</time>
      </trkpt>
      <trkpt lat="42.347312000" lon="-2.646309000">
        <ele>977.50</ele>
        <time>2016-10-29T07:41:20Z</time>
      </trkpt>
      <trkpt lat="42.347305000" lon="-2.646297000">
        <ele>977.70</ele>
        <time>2016-10-29T07:41:21Z</time>
      </trkpt>
      <trkpt lat="42.347296000" lon="-2.646289000">
        <ele>977.90</ele>
        <time>2016-10-29T07:41:22Z</time>
      </trkpt>
      <trkpt lat="42.347289000" lon="-2.646277000">
        <ele>977.90</ele>
        <time>2016-10-29T07:41:23Z</time>
      </trkpt>
      <trkpt lat="42.347284000" lon="-2.646264000">
        <ele>978.00</ele>
        <time>2016-10-29T07:41:24Z</time>
      </trkpt>
      <trkpt lat="42.347280000" lon="-2.646241000">
        <ele>978.10</ele>
        <time>2016-10-29T07:41:25Z</time>
      </trkpt>
      <trkpt lat="42.347277000" lon="-2.646223000">
        <ele>978.20</ele>
        <time>2016-10-29T07:41:26Z</time>
      </trkpt>
      <trkpt lat="42.347275000" lon="-2.646205000">
        <ele>978.30</ele>
        <time>2016-10-29T07:41:27Z</time>
      </trkpt>
      <trkpt lat="42.347264000" lon="-2.646193000">
        <ele>978.40</ele>
        <time>2016-10-29T07:41:28Z</time>
      </trkpt>
      <trkpt lat="42.347255000" lon="-2.646182000">
        <ele>978.50</ele>
        <time>2016-10-29T07:41:29Z</time>
      </trkpt>
      <trkpt lat="42.347243000" lon="-2.646168000">
        <ele>978.60</ele>
        <time>2016-10-29T07:41:30Z</time>
      </trkpt>
      <trkpt lat="42.347229000" lon="-2.646157000">
        <ele>978.80</ele>
        <time>2016-10-29T07:41:31Z</time>
      </trkpt>
      <trkpt lat="42.347217000" lon="-2.646152000">
        <ele>979.00</ele>
        <time>2016-10-29T07:41:32Z</time>
      </trkpt>
      <trkpt lat="42.347206000" lon="-2.646135000">
        <ele>979.10</ele>
        <time>2016-10-29T07:41:33Z</time>
      </trkpt>
      <trkpt lat="42.347188000" lon="-2.646103000">
        <ele>979.30</ele>
        <time>2016-10-29T07:41:35Z</time>
      </trkpt>
      <trkpt lat="42.347180000" lon="-2.646088000">
        <ele>979.40</ele>
        <time>2016-10-29T07:41:36Z</time>
      </trkpt>
      <trkpt lat="42.347173000" lon="-2.646072000">
        <ele>979.50</ele>
        <time>2016-10-29T07:41:37Z</time>
      </trkpt>
      <trkpt lat="42.347165000" lon="-2.646059000">
        <ele>979.60</ele>
        <time>2016-10-29T07:41:38Z</time>
      </trkpt>
      <trkpt lat="42.347159000" lon="-2.646047000">
        <ele>979.70</ele>
        <time>2016-10-29T07:41:39Z</time>
      </trkpt>
      <trkpt lat="42.347151000" lon="-2.646034000">
        <ele>979.80</ele>
        <time>2016-10-29T07:41:40Z</time>
      </trkpt>
      <trkpt lat="42.347139000" lon="-2.646023000">
        <ele>979.80</ele>
        <time>2016-10-29T07:41:41Z</time>
      </trkpt>
      <trkpt lat="42.347130000" lon="-2.646011000">
        <ele>979.90</ele>
        <time>2016-10-29T07:41:42Z</time>
      </trkpt>
      <trkpt lat="42.347120000" lon="-2.646002000">
        <ele>979.90</ele>
        <time>2016-10-29T07:41:43Z</time>
      </trkpt>
      <trkpt lat="42.347113000" lon="-2.645991000">
        <ele>979.90</ele>
        <time>2016-10-29T07:41:44Z</time>
      </trkpt>
      <trkpt lat="42.347104000" lon="-2.645978000">
        <ele>980.20</ele>
        <time>2016-10-29T07:41:45Z</time>
      </trkpt>
      <trkpt lat="42.347095000" lon="-2.645966000">
        <ele>980.30</ele>
        <time>2016-10-29T07:41:46Z</time>
      </trkpt>
      <trkpt lat="42.347086000" lon="-2.645960000">
        <ele>980.50</ele>
        <time>2016-10-29T07:41:47Z</time>
      </trkpt>
      <trkpt lat="42.347077000" lon="-2.645947000">
        <ele>980.60</ele>
        <time>2016-10-29T07:41:48Z</time>
      </trkpt>
      <trkpt lat="42.347064000" lon="-2.645941000">
        <ele>980.80</ele>
        <time>2016-10-29T07:41:49Z</time>
      </trkpt>
      <trkpt lat="42.347055000" lon="-2.645930000">
        <ele>980.90</ele>
        <time>2016-10-29T07:41:50Z</time>
      </trkpt>
      <trkpt lat="42.347045000" lon="-2.645922000">
        <ele>981.10</ele>
        <time>2016-10-29T07:41:51Z</time>
      </trkpt>
      <trkpt lat="42.347036000" lon="-2.645907000">
        <ele>981.20</ele>
        <time>2016-10-29T07:41:52Z</time>
      </trkpt>
      <trkpt lat="42.347025000" lon="-2.645896000">
        <ele>981.30</ele>
        <time>2016-10-29T07:41:53Z</time>
      </trkpt>
      <trkpt lat="42.347015000" lon="-2.645884000">
        <ele>981.30</ele>
        <time>2016-10-29T07:41:54Z</time>
      </trkpt>
      <trkpt lat="42.347006000" lon="-2.645873000">
        <ele>981.70</ele>
        <time>2016-10-29T07:41:55Z</time>
      </trkpt>
      <trkpt lat="42.346996000" lon="-2.645864000">
        <ele>981.90</ele>
        <time>2016-10-29T07:41:56Z</time>
      </trkpt>
      <trkpt lat="42.346985000" lon="-2.645853000">
        <ele>982.10</ele>
        <time>2016-10-29T07:41:57Z</time>
      </trkpt>
      <trkpt lat="42.346975000" lon="-2.645841000">
        <ele>982.20</ele>
        <time>2016-10-29T07:41:58Z</time>
      </trkpt>
      <trkpt lat="42.346965000" lon="-2.645830000">
        <ele>982.30</ele>
        <time>2016-10-29T07:41:59Z</time>
      </trkpt>
      <trkpt lat="42.346956000" lon="-2.645817000">
        <ele>982.40</ele>
        <time>2016-10-29T07:42:00Z</time>
      </trkpt>
      <trkpt lat="42.346947000" lon="-2.645805000">
        <ele>982.60</ele>
        <time>2016-10-29T07:42:01Z</time>
      </trkpt>
      <trkpt lat="42.346936000" lon="-2.645794000">
        <ele>982.70</ele>
        <time>2016-10-29T07:42:02Z</time>
      </trkpt>
      <trkpt lat="42.346926000" lon="-2.645786000">
        <ele>982.80</ele>
        <time>2016-10-29T07:42:03Z</time>
      </trkpt>
      <trkpt lat="42.346916000" lon="-2.645778000">
        <ele>982.90</ele>
        <time>2016-10-29T07:42:04Z</time>
      </trkpt>
      <trkpt lat="42.346906000" lon="-2.645768000">
        <ele>983.00</ele>
        <time>2016-10-29T07:42:05Z</time>
      </trkpt>
      <trkpt lat="42.346898000" lon="-2.645759000">
        <ele>983.00</ele>
        <time>2016-10-29T07:42:06Z</time>
      </trkpt>
      <trkpt lat="42.346885000" lon="-2.645754000">
        <ele>983.30</ele>
        <time>2016-10-29T07:42:07Z</time>
      </trkpt>
      <trkpt lat="42.346876000" lon="-2.645748000">
        <ele>983.50</ele>
        <time>2016-10-29T07:42:08Z</time>
      </trkpt>
      <trkpt lat="42.346865000" lon="-2.645742000">
        <ele>983.80</ele>
        <time>2016-10-29T07:42:09Z</time>
      </trkpt>
      <trkpt lat="42.346854000" lon="-2.645730000">
        <ele>984.00</ele>
        <time>2016-10-29T07:42:10Z</time>
      </trkpt>
      <trkpt lat="42.346842000" lon="-2.645724000">
        <ele>984.20</ele>
        <time>2016-10-29T07:42:11Z</time>
      </trkpt>
      <trkpt lat="42.346831000" lon="-2.645715000">
        <ele>984.30</ele>
        <time>2016-10-29T07:42:12Z</time>
      </trkpt>
      <trkpt lat="42.346819000" lon="-2.645705000">
        <ele>984.40</ele>
        <time>2016-10-29T07:42:13Z</time>
      </trkpt>
      <trkpt lat="42.346810000" lon="-2.645695000">
        <ele>984.50</ele>
        <time>2016-10-29T07:42:14Z</time>
      </trkpt>
      <trkpt lat="42.346800000" lon="-2.645690000">
        <ele>984.60</ele>
        <time>2016-10-29T07:42:15Z</time>
      </trkpt>
      <trkpt lat="42.346788000" lon="-2.645684000">
        <ele>984.70</ele>
        <time>2016-10-29T07:42:16Z</time>
      </trkpt>
      <trkpt lat="42.346777000" lon="-2.645676000">
        <ele>984.80</ele>
        <time>2016-10-29T07:42:17Z</time>
      </trkpt>
      <trkpt lat="42.346766000" lon="-2.645667000">
        <ele>984.90</ele>
        <time>2016-10-29T07:42:18Z</time>
      </trkpt>
      <trkpt lat="42.346753000" lon="-2.645657000">
        <ele>985.20</ele>
        <time>2016-10-29T07:42:19Z</time>
      </trkpt>
      <trkpt lat="42.346742000" lon="-2.645648000">
        <ele>985.40</ele>
        <time>2016-10-29T07:42:20Z</time>
      </trkpt>
      <trkpt lat="42.346731000" lon="-2.645640000">
        <ele>985.70</ele>
        <time>2016-10-29T07:42:21Z</time>
      </trkpt>
      <trkpt lat="42.346720000" lon="-2.645632000">
        <ele>985.80</ele>
        <time>2016-10-29T07:42:22Z</time>
      </trkpt>
      <trkpt lat="42.346708000" lon="-2.645625000">
        <ele>985.90</ele>
        <time>2016-10-29T07:42:23Z</time>
      </trkpt>
      <trkpt lat="42.346698000" lon="-2.645615000">
        <ele>986.00</ele>
        <time>2016-10-29T07:42:24Z</time>
      </trkpt>
      <trkpt lat="42.346686000" lon="-2.645608000">
        <ele>986.10</ele>
        <time>2016-10-29T07:42:25Z</time>
      </trkpt>
      <trkpt lat="42.346676000" lon="-2.645600000">
        <ele>986.20</ele>
        <time>2016-10-29T07:42:26Z</time>
      </trkpt>
      <trkpt lat="42.346663000" lon="-2.645591000">
        <ele>986.10</ele>
        <time>2016-10-29T07:42:27Z</time>
      </trkpt>
      <trkpt lat="42.346647000" lon="-2.645583000">
        <ele>986.00</ele>
        <time>2016-10-29T07:42:28Z</time>
      </trkpt>
      <trkpt lat="42.346633000" lon="-2.645569000">
        <ele>985.90</ele>
        <time>2016-10-29T07:42:29Z</time>
      </trkpt>
      <trkpt lat="42.346612000" lon="-2.645565000">
        <ele>985.80</ele>
        <time>2016-10-29T07:42:30Z</time>
      </trkpt>
      <trkpt lat="42.346589000" lon="-2.645556000">
        <ele>985.80</ele>
        <time>2016-10-29T07:42:31Z</time>
      </trkpt>
      <trkpt lat="42.346568000" lon="-2.645548000">
        <ele>985.80</ele>
        <time>2016-10-29T07:42:32Z</time>
      </trkpt>
      <trkpt lat="42.346547000" lon="-2.645543000">
        <ele>985.80</ele>
        <time>2016-10-29T07:42:33Z</time>
      </trkpt>
      <trkpt lat="42.346527000" lon="-2.645540000">
        <ele>985.80</ele>
        <time>2016-10-29T07:42:34Z</time>
      </trkpt>
      <trkpt lat="42.346513000" lon="-2.645544000">
        <ele>985.80</ele>
        <time>2016-10-29T07:42:35Z</time>
      </trkpt>
      <trkpt lat="42.346484000" lon="-2.645547000">
        <ele>985.90</ele>
        <time>2016-10-29T07:42:37Z</time>
      </trkpt>
      <trkpt lat="42.346479000" lon="-2.645552000">
        <ele>985.90</ele>
        <time>2016-10-29T07:42:38Z</time>
      </trkpt>
      <trkpt lat="42.346464000" lon="-2.645555000">
        <ele>985.90</ele>
        <time>2016-10-29T07:42:39Z</time>
      </trkpt>
      <trkpt lat="42.346452000" lon="-2.645559000">
        <ele>985.90</ele>
        <time>2016-10-29T07:42:40Z</time>
      </trkpt>
      <trkpt lat="42.346439000" lon="-2.645558000">
        <ele>985.90</ele>
        <time>2016-10-29T07:42:41Z</time>
      </trkpt>
      <trkpt lat="42.346424000" lon="-2.645561000">
        <ele>985.90</ele>
        <time>2016-10-29T07:42:42Z</time>
      </trkpt>
      <trkpt lat="42.346415000" lon="-2.645568000">
        <ele>986.00</ele>
        <time>2016-10-29T07:42:43Z</time>
      </trkpt>
      <trkpt lat="42.346405000" lon="-2.645572000">
        <ele>986.00</ele>
        <time>2016-10-29T07:42:44Z</time>
      </trkpt>
      <trkpt lat="42.346389000" lon="-2.645572000">
        <ele>986.10</ele>
        <time>2016-10-29T07:42:45Z</time>
      </trkpt>
      <trkpt lat="42.346373000" lon="-2.645579000">
        <ele>986.20</ele>
        <time>2016-10-29T07:42:46Z</time>
      </trkpt>
      <trkpt lat="42.346359000" lon="-2.645579000">
        <ele>986.30</ele>
        <time>2016-10-29T07:42:47Z</time>
      </trkpt>
      <trkpt lat="42.346347000" lon="-2.645575000">
        <ele>986.50</ele>
        <time>2016-10-29T07:42:48Z</time>
      </trkpt>
      <trkpt lat="42.346332000" lon="-2.645576000">
        <ele>986.60</ele>
        <time>2016-10-29T07:42:49Z</time>
      </trkpt>
      <trkpt lat="42.346317000" lon="-2.645574000">
        <ele>986.70</ele>
        <time>2016-10-29T07:42:50Z</time>
      </trkpt>
      <trkpt lat="42.346296000" lon="-2.645575000">
        <ele>987.00</ele>
        <time>2016-10-29T07:42:51Z</time>
      </trkpt>
      <trkpt lat="42.346279000" lon="-2.645576000">
        <ele>987.20</ele>
        <time>2016-10-29T07:42:52Z</time>
      </trkpt>
      <trkpt lat="42.346266000" lon="-2.645570000">
        <ele>987.40</ele>
        <time>2016-10-29T07:42:53Z</time>
      </trkpt>
      <trkpt lat="42.346249000" lon="-2.645570000">
        <ele>987.50</ele>
        <time>2016-10-29T07:42:54Z</time>
      </trkpt>
      <trkpt lat="42.346235000" lon="-2.645566000">
        <ele>987.70</ele>
        <time>2016-10-29T07:42:55Z</time>
      </trkpt>
      <trkpt lat="42.346223000" lon="-2.645564000">
        <ele>987.80</ele>
        <time>2016-10-29T07:42:56Z</time>
      </trkpt>
      <trkpt lat="42.346213000" lon="-2.645565000">
        <ele>988.00</ele>
        <time>2016-10-29T07:42:57Z</time>
      </trkpt>
      <trkpt lat="42.346203000" lon="-2.645562000">
        <ele>988.20</ele>
        <time>2016-10-29T07:42:58Z</time>
      </trkpt>
      <trkpt lat="42.346194000" lon="-2.645556000">
        <ele>988.40</ele>
        <time>2016-10-29T07:42:59Z</time>
      </trkpt>
      <trkpt lat="42.346182000" lon="-2.645553000">
        <ele>988.50</ele>
        <time>2016-10-29T07:43:00Z</time>
      </trkpt>
      <trkpt lat="42.346169000" lon="-2.645548000">
        <ele>988.60</ele>
        <time>2016-10-29T07:43:01Z</time>
      </trkpt>
      <trkpt lat="42.346153000" lon="-2.645547000">
        <ele>988.70</ele>
        <time>2016-10-29T07:43:02Z</time>
      </trkpt>
      <trkpt lat="42.346141000" lon="-2.645549000">
        <ele>988.70</ele>
        <time>2016-10-29T07:43:03Z</time>
      </trkpt>
      <trkpt lat="42.346127000" lon="-2.645550000">
        <ele>988.80</ele>
        <time>2016-10-29T07:43:04Z</time>
      </trkpt>
      <trkpt lat="42.346116000" lon="-2.645547000">
        <ele>988.90</ele>
        <time>2016-10-29T07:43:05Z</time>
      </trkpt>
      <trkpt lat="42.346105000" lon="-2.645550000">
        <ele>989.00</ele>
        <time>2016-10-29T07:43:06Z</time>
      </trkpt>
      <trkpt lat="42.346089000" lon="-2.645553000">
        <ele>989.40</ele>
        <time>2016-10-29T07:43:07Z</time>
      </trkpt>
      <trkpt lat="42.346078000" lon="-2.645555000">
        <ele>989.70</ele>
        <time>2016-10-29T07:43:08Z</time>
      </trkpt>
      <trkpt lat="42.346067000" lon="-2.645561000">
        <ele>989.90</ele>
        <time>2016-10-29T07:43:09Z</time>
      </trkpt>
      <trkpt lat="42.346056000" lon="-2.645568000">
        <ele>990.00</ele>
        <time>2016-10-29T07:43:10Z</time>
      </trkpt>
      <trkpt lat="42.346047000" lon="-2.645572000">
        <ele>990.30</ele>
        <time>2016-10-29T07:43:11Z</time>
      </trkpt>
      <trkpt lat="42.346040000" lon="-2.645574000">
        <ele>990.50</ele>
        <time>2016-10-29T07:43:12Z</time>
      </trkpt>
      <trkpt lat="42.346031000" lon="-2.645573000">
        <ele>990.70</ele>
        <time>2016-10-29T07:43:13Z</time>
      </trkpt>
      <trkpt lat="42.346018000" lon="-2.645574000">
        <ele>990.90</ele>
        <time>2016-10-29T07:43:14Z</time>
      </trkpt>
      <trkpt lat="42.346009000" lon="-2.645571000">
        <ele>991.20</ele>
        <time>2016-10-29T07:43:15Z</time>
      </trkpt>
      <trkpt lat="42.345993000" lon="-2.645564000">
        <ele>991.40</ele>
        <time>2016-10-29T07:43:16Z</time>
      </trkpt>
      <trkpt lat="42.345981000" lon="-2.645567000">
        <ele>991.60</ele>
        <time>2016-10-29T07:43:17Z</time>
      </trkpt>
      <trkpt lat="42.345971000" lon="-2.645574000">
        <ele>991.70</ele>
        <time>2016-10-29T07:43:18Z</time>
      </trkpt>
      <trkpt lat="42.345959000" lon="-2.645576000">
        <ele>992.00</ele>
        <time>2016-10-29T07:43:19Z</time>
      </trkpt>
      <trkpt lat="42.345946000" lon="-2.645575000">
        <ele>992.20</ele>
        <time>2016-10-29T07:43:20Z</time>
      </trkpt>
      <trkpt lat="42.345929000" lon="-2.645577000">
        <ele>992.30</ele>
        <time>2016-10-29T07:43:21Z</time>
      </trkpt>
      <trkpt lat="42.345915000" lon="-2.645581000">
        <ele>992.40</ele>
        <time>2016-10-29T07:43:22Z</time>
      </trkpt>
      <trkpt lat="42.345899000" lon="-2.645581000">
        <ele>992.50</ele>
        <time>2016-10-29T07:43:23Z</time>
      </trkpt>
      <trkpt lat="42.345884000" lon="-2.645582000">
        <ele>992.60</ele>
        <time>2016-10-29T07:43:24Z</time>
      </trkpt>
      <trkpt lat="42.345871000" lon="-2.645580000">
        <ele>992.70</ele>
        <time>2016-10-29T07:43:25Z</time>
      </trkpt>
      <trkpt lat="42.345855000" lon="-2.645577000">
        <ele>992.70</ele>
        <time>2016-10-29T07:43:26Z</time>
      </trkpt>
      <trkpt lat="42.345839000" lon="-2.645581000">
        <ele>992.90</ele>
        <time>2016-10-29T07:43:27Z</time>
      </trkpt>
      <trkpt lat="42.345828000" lon="-2.645578000">
        <ele>993.00</ele>
        <time>2016-10-29T07:43:28Z</time>
      </trkpt>
      <trkpt lat="42.345816000" lon="-2.645576000">
        <ele>993.20</ele>
        <time>2016-10-29T07:43:29Z</time>
      </trkpt>
      <trkpt lat="42.345799000" lon="-2.645576000">
        <ele>993.30</ele>
        <time>2016-10-29T07:43:30Z</time>
      </trkpt>
      <trkpt lat="42.345780000" lon="-2.645576000">
        <ele>993.50</ele>
        <time>2016-10-29T07:43:31Z</time>
      </trkpt>
      <trkpt lat="42.345763000" lon="-2.645575000">
        <ele>993.50</ele>
        <time>2016-10-29T07:43:32Z</time>
      </trkpt>
      <trkpt lat="42.345746000" lon="-2.645577000">
        <ele>993.60</ele>
        <time>2016-10-29T07:43:33Z</time>
      </trkpt>
      <trkpt lat="42.345733000" lon="-2.645581000">
        <ele>993.70</ele>
        <time>2016-10-29T07:43:34Z</time>
      </trkpt>
      <trkpt lat="42.345721000" lon="-2.645583000">
        <ele>993.80</ele>
        <time>2016-10-29T07:43:35Z</time>
      </trkpt>
      <trkpt lat="42.345709000" lon="-2.645578000">
        <ele>994.00</ele>
        <time>2016-10-29T07:43:36Z</time>
      </trkpt>
      <trkpt lat="42.345699000" lon="-2.645574000">
        <ele>994.10</ele>
        <time>2016-10-29T07:43:37Z</time>
      </trkpt>
      <trkpt lat="42.345675000" lon="-2.645565000">
        <ele>994.10</ele>
        <time>2016-10-29T07:43:39Z</time>
      </trkpt>
      <trkpt lat="42.345663000" lon="-2.645557000">
        <ele>994.10</ele>
        <time>2016-10-29T07:43:40Z</time>
      </trkpt>
      <trkpt lat="42.345656000" lon="-2.645550000">
        <ele>994.10</ele>
        <time>2016-10-29T07:43:41Z</time>
      </trkpt>
      <trkpt lat="42.345646000" lon="-2.645541000">
        <ele>994.10</ele>
        <time>2016-10-29T07:43:42Z</time>
      </trkpt>
      <trkpt lat="42.345635000" lon="-2.645532000">
        <ele>994.30</ele>
        <time>2016-10-29T07:43:43Z</time>
      </trkpt>
      <trkpt lat="42.345621000" lon="-2.645525000">
        <ele>994.40</ele>
        <time>2016-10-29T07:43:44Z</time>
      </trkpt>
      <trkpt lat="42.345610000" lon="-2.645520000">
        <ele>994.50</ele>
        <time>2016-10-29T07:43:45Z</time>
      </trkpt>
      <trkpt lat="42.345603000" lon="-2.645513000">
        <ele>994.60</ele>
        <time>2016-10-29T07:43:46Z</time>
      </trkpt>
      <trkpt lat="42.345593000" lon="-2.645506000">
        <ele>994.90</ele>
        <time>2016-10-29T07:43:47Z</time>
      </trkpt>
      <trkpt lat="42.345583000" lon="-2.645495000">
        <ele>995.10</ele>
        <time>2016-10-29T07:43:48Z</time>
      </trkpt>
      <trkpt lat="42.345571000" lon="-2.645483000">
        <ele>995.40</ele>
        <time>2016-10-29T07:43:49Z</time>
      </trkpt>
      <trkpt lat="42.345555000" lon="-2.645476000">
        <ele>995.50</ele>
        <time>2016-10-29T07:43:50Z</time>
      </trkpt>
      <trkpt lat="42.345544000" lon="-2.645472000">
        <ele>995.90</ele>
        <time>2016-10-29T07:43:51Z</time>
      </trkpt>
      <trkpt lat="42.345534000" lon="-2.645467000">
        <ele>996.10</ele>
        <time>2016-10-29T07:43:52Z</time>
      </trkpt>
      <trkpt lat="42.345523000" lon="-2.645458000">
        <ele>996.30</ele>
        <time>2016-10-29T07:43:53Z</time>
      </trkpt>
      <trkpt lat="42.345516000" lon="-2.645450000">
        <ele>996.50</ele>
        <time>2016-10-29T07:43:54Z</time>
      </trkpt>
      <trkpt lat="42.345504000" lon="-2.645443000">
        <ele>996.60</ele>
        <time>2016-10-29T07:43:55Z</time>
      </trkpt>
      <trkpt lat="42.345494000" lon="-2.645432000">
        <ele>996.60</ele>
        <time>2016-10-29T07:43:56Z</time>
      </trkpt>
      <trkpt lat="42.345482000" lon="-2.645421000">
        <ele>996.80</ele>
        <time>2016-10-29T07:43:57Z</time>
      </trkpt>
      <trkpt lat="42.345468000" lon="-2.645412000">
        <ele>997.00</ele>
        <time>2016-10-29T07:43:58Z</time>
      </trkpt>
      <trkpt lat="42.345454000" lon="-2.645405000">
        <ele>997.20</ele>
        <time>2016-10-29T07:43:59Z</time>
      </trkpt>
      <trkpt lat="42.345443000" lon="-2.645398000">
        <ele>997.40</ele>
        <time>2016-10-29T07:44:00Z</time>
      </trkpt>
      <trkpt lat="42.345436000" lon="-2.645388000">
        <ele>997.50</ele>
        <time>2016-10-29T07:44:01Z</time>
      </trkpt>
      <trkpt lat="42.345425000" lon="-2.645376000">
        <ele>997.70</ele>
        <time>2016-10-29T07:44:02Z</time>
      </trkpt>
      <trkpt lat="42.345416000" lon="-2.645363000">
        <ele>997.70</ele>
        <time>2016-10-29T07:44:03Z</time>
      </trkpt>
      <trkpt lat="42.345406000" lon="-2.645350000">
        <ele>997.80</ele>
        <time>2016-10-29T07:44:04Z</time>
      </trkpt>
      <trkpt lat="42.345398000" lon="-2.645336000">
        <ele>998.00</ele>
        <time>2016-10-29T07:44:05Z</time>
      </trkpt>
      <trkpt lat="42.345388000" lon="-2.645329000">
        <ele>998.10</ele>
        <time>2016-10-29T07:44:06Z</time>
      </trkpt>
      <trkpt lat="42.345377000" lon="-2.645320000">
        <ele>998.40</ele>
        <time>2016-10-29T07:44:07Z</time>
      </trkpt>
      <trkpt lat="42.345369000" lon="-2.645309000">
        <ele>998.70</ele>
        <time>2016-10-29T07:44:08Z</time>
      </trkpt>
      <trkpt lat="42.345358000" lon="-2.645297000">
        <ele>998.90</ele>
        <time>2016-10-29T07:44:09Z</time>
      </trkpt>
      <trkpt lat="42.345350000" lon="-2.645281000">
        <ele>999.10</ele>
        <time>2016-10-29T07:44:10Z</time>
      </trkpt>
      <trkpt lat="42.345341000" lon="-2.645273000">
        <ele>999.20</ele>
        <time>2016-10-29T07:44:11Z</time>
      </trkpt>
      <trkpt lat="42.345332000" lon="-2.645264000">
        <ele>999.20</ele>
        <time>2016-10-29T07:44:12Z</time>
      </trkpt>
      <trkpt lat="42.345320000" lon="-2.645254000">
        <ele>999.50</ele>
        <time>2016-10-29T07:44:13Z</time>
      </trkpt>
      <trkpt lat="42.345309000" lon="-2.645244000">
        <ele>999.70</ele>
        <time>2016-10-29T07:44:14Z</time>
      </trkpt>
      <trkpt lat="42.345296000" lon="-2.645237000">
        <ele>1000.00</ele>
        <time>2016-10-29T07:44:15Z</time>
      </trkpt>
      <trkpt lat="42.345287000" lon="-2.645227000">
        <ele>1000.30</ele>
        <time>2016-10-29T07:44:16Z</time>
      </trkpt>
      <trkpt lat="42.345277000" lon="-2.645221000">
        <ele>1000.50</ele>
        <time>2016-10-29T07:44:17Z</time>
      </trkpt>
      <trkpt lat="42.345266000" lon="-2.645210000">
        <ele>1000.60</ele>
        <time>2016-10-29T07:44:18Z</time>
      </trkpt>
      <trkpt lat="42.345255000" lon="-2.645198000">
        <ele>1000.90</ele>
        <time>2016-10-29T07:44:19Z</time>
      </trkpt>
      <trkpt lat="42.345248000" lon="-2.645187000">
        <ele>1001.00</ele>
        <time>2016-10-29T07:44:20Z</time>
      </trkpt>
      <trkpt lat="42.345242000" lon="-2.645179000">
        <ele>1001.20</ele>
        <time>2016-10-29T07:44:21Z</time>
      </trkpt>
      <trkpt lat="42.345233000" lon="-2.645165000">
        <ele>1001.30</ele>
        <time>2016-10-29T07:44:22Z</time>
      </trkpt>
      <trkpt lat="42.345226000" lon="-2.645155000">
        <ele>1001.30</ele>
        <time>2016-10-29T07:44:23Z</time>
      </trkpt>
      <trkpt lat="42.345215000" lon="-2.645140000">
        <ele>1001.40</ele>
        <time>2016-10-29T07:44:24Z</time>
      </trkpt>
      <trkpt lat="42.345205000" lon="-2.645124000">
        <ele>1001.70</ele>
        <time>2016-10-29T07:44:25Z</time>
      </trkpt>
      <trkpt lat="42.345197000" lon="-2.645113000">
        <ele>1001.90</ele>
        <time>2016-10-29T07:44:26Z</time>
      </trkpt>
      <trkpt lat="42.345190000" lon="-2.645102000">
        <ele>1002.10</ele>
        <time>2016-10-29T07:44:27Z</time>
      </trkpt>
      <trkpt lat="42.345181000" lon="-2.645086000">
        <ele>1002.30</ele>
        <time>2016-10-29T07:44:28Z</time>
      </trkpt>
      <trkpt lat="42.345172000" lon="-2.645075000">
        <ele>1002.70</ele>
        <time>2016-10-29T07:44:29Z</time>
      </trkpt>
      <trkpt lat="42.345165000" lon="-2.645062000">
        <ele>1003.00</ele>
        <time>2016-10-29T07:44:30Z</time>
      </trkpt>
      <trkpt lat="42.345157000" lon="-2.645050000">
        <ele>1003.20</ele>
        <time>2016-10-29T07:44:31Z</time>
      </trkpt>
      <trkpt lat="42.345147000" lon="-2.645034000">
        <ele>1003.30</ele>
        <time>2016-10-29T07:44:32Z</time>
      </trkpt>
      <trkpt lat="42.345133000" lon="-2.645022000">
        <ele>1003.50</ele>
        <time>2016-10-29T07:44:33Z</time>
      </trkpt>
      <trkpt lat="42.345120000" lon="-2.645011000">
        <ele>1003.60</ele>
        <time>2016-10-29T07:44:34Z</time>
      </trkpt>
      <trkpt lat="42.345111000" lon="-2.644997000">
        <ele>1003.70</ele>
        <time>2016-10-29T07:44:35Z</time>
      </trkpt>
      <trkpt lat="42.345102000" lon="-2.644984000">
        <ele>1003.80</ele>
        <time>2016-10-29T07:44:36Z</time>
      </trkpt>
      <trkpt lat="42.345095000" lon="-2.644972000">
        <ele>1003.90</ele>
        <time>2016-10-29T07:44:37Z</time>
      </trkpt>
      <trkpt lat="42.345088000" lon="-2.644955000">
        <ele>1004.00</ele>
        <time>2016-10-29T07:44:38Z</time>
      </trkpt>
      <trkpt lat="42.345080000" lon="-2.644944000">
        <ele>1004.30</ele>
        <time>2016-10-29T07:44:39Z</time>
      </trkpt>
      <trkpt lat="42.345065000" lon="-2.644925000">
        <ele>1004.80</ele>
        <time>2016-10-29T07:44:41Z</time>
      </trkpt>
      <trkpt lat="42.345059000" lon="-2.644912000">
        <ele>1005.10</ele>
        <time>2016-10-29T07:44:42Z</time>
      </trkpt>
      <trkpt lat="42.345055000" lon="-2.644898000">
        <ele>1005.30</ele>
        <time>2016-10-29T07:44:43Z</time>
      </trkpt>
      <trkpt lat="42.345045000" lon="-2.644885000">
        <ele>1005.50</ele>
        <time>2016-10-29T07:44:44Z</time>
      </trkpt>
      <trkpt lat="42.345035000" lon="-2.644873000">
        <ele>1005.60</ele>
        <time>2016-10-29T07:44:45Z</time>
      </trkpt>
      <trkpt lat="42.345026000" lon="-2.644860000">
        <ele>1005.70</ele>
        <time>2016-10-29T07:44:46Z</time>
      </trkpt>
      <trkpt lat="42.345017000" lon="-2.644847000">
        <ele>1005.80</ele>
        <time>2016-10-29T07:44:47Z</time>
      </trkpt>
      <trkpt lat="42.345006000" lon="-2.644832000">
        <ele>1005.90</ele>
        <time>2016-10-29T07:44:48Z</time>
      </trkpt>
      <trkpt lat="42.345001000" lon="-2.644819000">
        <ele>1006.20</ele>
        <time>2016-10-29T07:44:49Z</time>
      </trkpt>
      <trkpt lat="42.344988000" lon="-2.644805000">
        <ele>1006.30</ele>
        <time>2016-10-29T07:44:50Z</time>
      </trkpt>
      <trkpt lat="42.344980000" lon="-2.644794000">
        <ele>1006.40</ele>
        <time>2016-10-29T07:44:51Z</time>
      </trkpt>
      <trkpt lat="42.344970000" lon="-2.644785000">
        <ele>1006.50</ele>
        <time>2016-10-29T07:44:52Z</time>
      </trkpt>
      <trkpt lat="42.344961000" lon="-2.644770000">
        <ele>1006.60</ele>
        <time>2016-10-29T07:44:53Z</time>
      </trkpt>
      <trkpt lat="42.344953000" lon="-2.644760000">
        <ele>1006.60</ele>
        <time>2016-10-29T07:44:54Z</time>
      </trkpt>
      <trkpt lat="42.344946000" lon="-2.644746000">
        <ele>1006.60</ele>
        <time>2016-10-29T07:44:55Z</time>
      </trkpt>
      <trkpt lat="42.344937000" lon="-2.644735000">
        <ele>1006.70</ele>
        <time>2016-10-29T07:44:56Z</time>
      </trkpt>
      <trkpt lat="42.344933000" lon="-2.644715000">
        <ele>1006.90</ele>
        <time>2016-10-29T07:44:57Z</time>
      </trkpt>
      <trkpt lat="42.344924000" lon="-2.644701000">
        <ele>1007.20</ele>
        <time>2016-10-29T07:44:58Z</time>
      </trkpt>
      <trkpt lat="42.344916000" lon="-2.644687000">
        <ele>1007.30</ele>
        <time>2016-10-29T07:44:59Z</time>
      </trkpt>
      <trkpt lat="42.344909000" lon="-2.644681000">
        <ele>1007.40</ele>
        <time>2016-10-29T07:45:00Z</time>
      </trkpt>
      <trkpt lat="42.344898000" lon="-2.644670000">
        <ele>1007.50</ele>
        <time>2016-10-29T07:45:01Z</time>
      </trkpt>
      <trkpt lat="42.344885000" lon="-2.644655000">
        <ele>1007.60</ele>
        <time>2016-10-29T07:45:02Z</time>
      </trkpt>
      <trkpt lat="42.344877000" lon="-2.644641000">
        <ele>1007.70</ele>
        <time>2016-10-29T07:45:03Z</time>
      </trkpt>
      <trkpt lat="42.344867000" lon="-2.644629000">
        <ele>1007.80</ele>
        <time>2016-10-29T07:45:04Z</time>
      </trkpt>
      <trkpt lat="42.344861000" lon="-2.644608000">
        <ele>1008.10</ele>
        <time>2016-10-29T07:45:05Z</time>
      </trkpt>
      <trkpt lat="42.344854000" lon="-2.644595000">
        <ele>1008.30</ele>
        <time>2016-10-29T07:45:06Z</time>
      </trkpt>
      <trkpt lat="42.344842000" lon="-2.644584000">
        <ele>1008.40</ele>
        <time>2016-10-29T07:45:07Z</time>
      </trkpt>
      <trkpt lat="42.344832000" lon="-2.644571000">
        <ele>1008.50</ele>
        <time>2016-10-29T07:45:08Z</time>
      </trkpt>
      <trkpt lat="42.344825000" lon="-2.644553000">
        <ele>1008.80</ele>
        <time>2016-10-29T07:45:09Z</time>
      </trkpt>
      <trkpt lat="42.344819000" lon="-2.644537000">
        <ele>1009.00</ele>
        <time>2016-10-29T07:45:10Z</time>
      </trkpt>
      <trkpt lat="42.344811000" lon="-2.644525000">
        <ele>1009.30</ele>
        <time>2016-10-29T07:45:11Z</time>
      </trkpt>
      <trkpt lat="42.344805000" lon="-2.644517000">
        <ele>1009.50</ele>
        <time>2016-10-29T07:45:12Z</time>
      </trkpt>
      <trkpt lat="42.344794000" lon="-2.644505000">
        <ele>1009.60</ele>
        <time>2016-10-29T07:45:13Z</time>
      </trkpt>
      <trkpt lat="42.344785000" lon="-2.644497000">
        <ele>1009.80</ele>
        <time>2016-10-29T07:45:14Z</time>
      </trkpt>
      <trkpt lat="42.344778000" lon="-2.644485000">
        <ele>1009.80</ele>
        <time>2016-10-29T07:45:15Z</time>
      </trkpt>
      <trkpt lat="42.344769000" lon="-2.644481000">
        <ele>1009.90</ele>
        <time>2016-10-29T07:45:16Z</time>
      </trkpt>
      <trkpt lat="42.344758000" lon="-2.644473000">
        <ele>1010.00</ele>
        <time>2016-10-29T07:45:17Z</time>
      </trkpt>
      <trkpt lat="42.344749000" lon="-2.644458000">
        <ele>1010.00</ele>
        <time>2016-10-29T07:45:18Z</time>
      </trkpt>
      <trkpt lat="42.344739000" lon="-2.644445000">
        <ele>1010.10</ele>
        <time>2016-10-29T07:45:19Z</time>
      </trkpt>
      <trkpt lat="42.344731000" lon="-2.644431000">
        <ele>1010.10</ele>
        <time>2016-10-29T07:45:20Z</time>
      </trkpt>
      <trkpt lat="42.344719000" lon="-2.644420000">
        <ele>1010.20</ele>
        <time>2016-10-29T07:45:21Z</time>
      </trkpt>
      <trkpt lat="42.344707000" lon="-2.644405000">
        <ele>1010.30</ele>
        <time>2016-10-29T07:45:22Z</time>
      </trkpt>
      <trkpt lat="42.344697000" lon="-2.644394000">
        <ele>1010.30</ele>
        <time>2016-10-29T07:45:23Z</time>
      </trkpt>
      <trkpt lat="42.344688000" lon="-2.644381000">
        <ele>1010.40</ele>
        <time>2016-10-29T07:45:24Z</time>
      </trkpt>
      <trkpt lat="42.344681000" lon="-2.644367000">
        <ele>1010.60</ele>
        <time>2016-10-29T07:45:25Z</time>
      </trkpt>
      <trkpt lat="42.344669000" lon="-2.644359000">
        <ele>1010.70</ele>
        <time>2016-10-29T07:45:26Z</time>
      </trkpt>
      <trkpt lat="42.344657000" lon="-2.644349000">
        <ele>1010.90</ele>
        <time>2016-10-29T07:45:27Z</time>
      </trkpt>
      <trkpt lat="42.344645000" lon="-2.644339000">
        <ele>1011.10</ele>
        <time>2016-10-29T07:45:28Z</time>
      </trkpt>
      <trkpt lat="42.344635000" lon="-2.644330000">
        <ele>1011.40</ele>
        <time>2016-10-29T07:45:29Z</time>
      </trkpt>
      <trkpt lat="42.344622000" lon="-2.644327000">
        <ele>1011.60</ele>
        <time>2016-10-29T07:45:30Z</time>
      </trkpt>
      <trkpt lat="42.344610000" lon="-2.644315000">
        <ele>1011.90</ele>
        <time>2016-10-29T07:45:31Z</time>
      </trkpt>
      <trkpt lat="42.344600000" lon="-2.644302000">
        <ele>1012.00</ele>
        <time>2016-10-29T07:45:32Z</time>
      </trkpt>
      <trkpt lat="42.344592000" lon="-2.644295000">
        <ele>1012.20</ele>
        <time>2016-10-29T07:45:33Z</time>
      </trkpt>
      <trkpt lat="42.344585000" lon="-2.644278000">
        <ele>1012.40</ele>
        <time>2016-10-29T07:45:34Z</time>
      </trkpt>
      <trkpt lat="42.344570000" lon="-2.644271000">
        <ele>1012.60</ele>
        <time>2016-10-29T07:45:35Z</time>
      </trkpt>
      <trkpt lat="42.344559000" lon="-2.644262000">
        <ele>1012.70</ele>
        <time>2016-10-29T07:45:36Z</time>
      </trkpt>
      <trkpt lat="42.344550000" lon="-2.644252000">
        <ele>1013.00</ele>
        <time>2016-10-29T07:45:37Z</time>
      </trkpt>
      <trkpt lat="42.344537000" lon="-2.644245000">
        <ele>1013.30</ele>
        <time>2016-10-29T07:45:38Z</time>
      </trkpt>
      <trkpt lat="42.344526000" lon="-2.644236000">
        <ele>1013.50</ele>
        <time>2016-10-29T07:45:39Z</time>
      </trkpt>
      <trkpt lat="42.344515000" lon="-2.644232000">
        <ele>1013.70</ele>
        <time>2016-10-29T07:45:40Z</time>
      </trkpt>
      <trkpt lat="42.344504000" lon="-2.644226000">
        <ele>1013.80</ele>
        <time>2016-10-29T07:45:41Z</time>
      </trkpt>
      <trkpt lat="42.344482000" lon="-2.644212000">
        <ele>1014.20</ele>
        <time>2016-10-29T07:45:43Z</time>
      </trkpt>
      <trkpt lat="42.344472000" lon="-2.644211000">
        <ele>1014.40</ele>
        <time>2016-10-29T07:45:44Z</time>
      </trkpt>
      <trkpt lat="42.344460000" lon="-2.644210000">
        <ele>1014.60</ele>
        <time>2016-10-29T07:45:45Z</time>
      </trkpt>
      <trkpt lat="42.344448000" lon="-2.644200000">
        <ele>1014.70</ele>
        <time>2016-10-29T07:45:46Z</time>
      </trkpt>
      <trkpt lat="42.344439000" lon="-2.644186000">
        <ele>1014.80</ele>
        <time>2016-10-29T07:45:47Z</time>
      </trkpt>
      <trkpt lat="42.344431000" lon="-2.644174000">
        <ele>1015.00</ele>
        <time>2016-10-29T07:45:48Z</time>
      </trkpt>
      <trkpt lat="42.344421000" lon="-2.644161000">
        <ele>1015.10</ele>
        <time>2016-10-29T07:45:49Z</time>
      </trkpt>
      <trkpt lat="42.344413000" lon="-2.644149000">
        <ele>1015.30</ele>
        <time>2016-10-29T07:45:50Z</time>
      </trkpt>
      <trkpt lat="42.344405000" lon="-2.644136000">
        <ele>1015.50</ele>
        <time>2016-10-29T07:45:51Z</time>
      </trkpt>
      <trkpt lat="42.344399000" lon="-2.644125000">
        <ele>1015.60</ele>
        <time>2016-10-29T07:45:52Z</time>
      </trkpt>
      <trkpt lat="42.344391000" lon="-2.644116000">
        <ele>1015.70</ele>
        <time>2016-10-29T07:45:53Z</time>
      </trkpt>
      <trkpt lat="42.344380000" lon="-2.644109000">
        <ele>1015.90</ele>
        <time>2016-10-29T07:45:54Z</time>
      </trkpt>
      <trkpt lat="42.344371000" lon="-2.644101000">
        <ele>1016.00</ele>
        <time>2016-10-29T07:45:55Z</time>
      </trkpt>
      <trkpt lat="42.344360000" lon="-2.644092000">
        <ele>1016.10</ele>
        <time>2016-10-29T07:45:56Z</time>
      </trkpt>
      <trkpt lat="42.344349000" lon="-2.644088000">
        <ele>1016.20</ele>
        <time>2016-10-29T07:45:57Z</time>
      </trkpt>
      <trkpt lat="42.344338000" lon="-2.644071000">
        <ele>1016.30</ele>
        <time>2016-10-29T07:45:58Z</time>
      </trkpt>
      <trkpt lat="42.344332000" lon="-2.644063000">
        <ele>1016.40</ele>
        <time>2016-10-29T07:45:59Z</time>
      </trkpt>
      <trkpt lat="42.344321000" lon="-2.644056000">
        <ele>1016.50</ele>
        <time>2016-10-29T07:46:00Z</time>
      </trkpt>
      <trkpt lat="42.344309000" lon="-2.644045000">
        <ele>1016.60</ele>
        <time>2016-10-29T07:46:01Z</time>
      </trkpt>
      <trkpt lat="42.344299000" lon="-2.644035000">
        <ele>1016.70</ele>
        <time>2016-10-29T07:46:02Z</time>
      </trkpt>
      <trkpt lat="42.344290000" lon="-2.644023000">
        <ele>1016.80</ele>
        <time>2016-10-29T07:46:03Z</time>
      </trkpt>
      <trkpt lat="42.344281000" lon="-2.644008000">
        <ele>1017.00</ele>
        <time>2016-10-29T07:46:04Z</time>
      </trkpt>
      <trkpt lat="42.344274000" lon="-2.643995000">
        <ele>1017.20</ele>
        <time>2016-10-29T07:46:05Z</time>
      </trkpt>
      <trkpt lat="42.344265000" lon="-2.643979000">
        <ele>1017.40</ele>
        <time>2016-10-29T07:46:06Z</time>
      </trkpt>
      <trkpt lat="42.344256000" lon="-2.643967000">
        <ele>1017.50</ele>
        <time>2016-10-29T07:46:07Z</time>
      </trkpt>
      <trkpt lat="42.344246000" lon="-2.643954000">
        <ele>1017.60</ele>
        <time>2016-10-29T07:46:08Z</time>
      </trkpt>
      <trkpt lat="42.344236000" lon="-2.643946000">
        <ele>1017.70</ele>
        <time>2016-10-29T07:46:09Z</time>
      </trkpt>
      <trkpt lat="42.344228000" lon="-2.643936000">
        <ele>1017.90</ele>
        <time>2016-10-29T07:46:10Z</time>
      </trkpt>
      <trkpt lat="42.344218000" lon="-2.643931000">
        <ele>1018.00</ele>
        <time>2016-10-29T07:46:11Z</time>
      </trkpt>
      <trkpt lat="42.344204000" lon="-2.643918000">
        <ele>1018.30</ele>
        <time>2016-10-29T07:46:12Z</time>
      </trkpt>
      <trkpt lat="42.344192000" lon="-2.643909000">
        <ele>1018.60</ele>
        <time>2016-10-29T07:46:13Z</time>
      </trkpt>
      <trkpt lat="42.344177000" lon="-2.643897000">
        <ele>1018.80</ele>
        <time>2016-10-29T07:46:14Z</time>
      </trkpt>
      <trkpt lat="42.344168000" lon="-2.643887000">
        <ele>1019.00</ele>
        <time>2016-10-29T07:46:15Z</time>
      </trkpt>
      <trkpt lat="42.344159000" lon="-2.643888000">
        <ele>1019.30</ele>
        <time>2016-10-29T07:46:16Z</time>
      </trkpt>
      <trkpt lat="42.344151000" lon="-2.643882000">
        <ele>1019.60</ele>
        <time>2016-10-29T07:46:17Z</time>
      </trkpt>
      <trkpt lat="42.344144000" lon="-2.643874000">
        <ele>1019.80</ele>
        <time>2016-10-29T07:46:18Z</time>
      </trkpt>
      <trkpt lat="42.344135000" lon="-2.643869000">
        <ele>1019.90</ele>
        <time>2016-10-29T07:46:19Z</time>
      </trkpt>
      <trkpt lat="42.344125000" lon="-2.643854000">
        <ele>1020.00</ele>
        <time>2016-10-29T07:46:20Z</time>
      </trkpt>
      <trkpt lat="42.344116000" lon="-2.643840000">
        <ele>1020.10</ele>
        <time>2016-10-29T07:46:21Z</time>
      </trkpt>
      <trkpt lat="42.344106000" lon="-2.643834000">
        <ele>1020.20</ele>
        <time>2016-10-29T07:46:22Z</time>
      </trkpt>
      <trkpt lat="42.344096000" lon="-2.643829000">
        <ele>1020.30</ele>
        <time>2016-10-29T07:46:23Z</time>
      </trkpt>
      <trkpt lat="42.344087000" lon="-2.643815000">
        <ele>1020.60</ele>
        <time>2016-10-29T07:46:24Z</time>
      </trkpt>
      <trkpt lat="42.344078000" lon="-2.643810000">
        <ele>1020.80</ele>
        <time>2016-10-29T07:46:25Z</time>
      </trkpt>
      <trkpt lat="42.344068000" lon="-2.643808000">
        <ele>1021.10</ele>
        <time>2016-10-29T07:46:26Z</time>
      </trkpt>
      <trkpt lat="42.344058000" lon="-2.643798000">
        <ele>1021.20</ele>
        <time>2016-10-29T07:46:27Z</time>
      </trkpt>
      <trkpt lat="42.344049000" lon="-2.643785000">
        <ele>1021.40</ele>
        <time>2016-10-29T07:46:28Z</time>
      </trkpt>
      <trkpt lat="42.344043000" lon="-2.643775000">
        <ele>1021.60</ele>
        <time>2016-10-29T07:46:29Z</time>
      </trkpt>
      <trkpt lat="42.344032000" lon="-2.643765000">
        <ele>1021.70</ele>
        <time>2016-10-29T07:46:30Z</time>
      </trkpt>
      <trkpt lat="42.344023000" lon="-2.643757000">
        <ele>1021.70</ele>
        <time>2016-10-29T07:46:31Z</time>
      </trkpt>
      <trkpt lat="42.344010000" lon="-2.643750000">
        <ele>1021.90</ele>
        <time>2016-10-29T07:46:32Z</time>
      </trkpt>
      <trkpt lat="42.344002000" lon="-2.643736000">
        <ele>1022.00</ele>
        <time>2016-10-29T07:46:33Z</time>
      </trkpt>
      <trkpt lat="42.343992000" lon="-2.643729000">
        <ele>1022.30</ele>
        <time>2016-10-29T07:46:34Z</time>
      </trkpt>
      <trkpt lat="42.343983000" lon="-2.643718000">
        <ele>1022.60</ele>
        <time>2016-10-29T07:46:35Z</time>
      </trkpt>
      <trkpt lat="42.343974000" lon="-2.643710000">
        <ele>1022.80</ele>
        <time>2016-10-29T07:46:36Z</time>
      </trkpt>
      <trkpt lat="42.343966000" lon="-2.643692000">
        <ele>1023.00</ele>
        <time>2016-10-29T07:46:37Z</time>
      </trkpt>
      <trkpt lat="42.343956000" lon="-2.643680000">
        <ele>1023.10</ele>
        <time>2016-10-29T07:46:38Z</time>
      </trkpt>
      <trkpt lat="42.343949000" lon="-2.643673000">
        <ele>1023.20</ele>
        <time>2016-10-29T07:46:39Z</time>
      </trkpt>
      <trkpt lat="42.343935000" lon="-2.643664000">
        <ele>1023.40</ele>
        <time>2016-10-29T07:46:40Z</time>
      </trkpt>
      <trkpt lat="42.343926000" lon="-2.643653000">
        <ele>1023.60</ele>
        <time>2016-10-29T07:46:41Z</time>
      </trkpt>
      <trkpt lat="42.343920000" lon="-2.643648000">
        <ele>1023.70</ele>
        <time>2016-10-29T07:46:42Z</time>
      </trkpt>
      <trkpt lat="42.343912000" lon="-2.643640000">
        <ele>1023.80</ele>
        <time>2016-10-29T07:46:43Z</time>
      </trkpt>
      <trkpt lat="42.343899000" lon="-2.643624000">
        <ele>1024.30</ele>
        <time>2016-10-29T07:46:45Z</time>
      </trkpt>
      <trkpt lat="42.343890000" lon="-2.643610000">
        <ele>1024.50</ele>
        <time>2016-10-29T07:46:46Z</time>
      </trkpt>
      <trkpt lat="42.343881000" lon="-2.643599000">
        <ele>1024.60</ele>
        <time>2016-10-29T07:46:47Z</time>
      </trkpt>
      <trkpt lat="42.343873000" lon="-2.643586000">
        <ele>1024.70</ele>
        <time>2016-10-29T07:46:48Z</time>
      </trkpt>
      <trkpt lat="42.343864000" lon="-2.643576000">
        <ele>1024.80</ele>
        <time>2016-10-29T07:46:49Z</time>
      </trkpt>
      <trkpt lat="42.343855000" lon="-2.643569000">
        <ele>1025.10</ele>
        <time>2016-10-29T07:46:50Z</time>
      </trkpt>
      <trkpt lat="42.343845000" lon="-2.643565000">
        <ele>1025.40</ele>
        <time>2016-10-29T07:46:51Z</time>
      </trkpt>
      <trkpt lat="42.343840000" lon="-2.643554000">
        <ele>1025.60</ele>
        <time>2016-10-29T07:46:52Z</time>
      </trkpt>
      <trkpt lat="42.343833000" lon="-2.643542000">
        <ele>1025.70</ele>
        <time>2016-10-29T07:46:53Z</time>
      </trkpt>
      <trkpt lat="42.343824000" lon="-2.643532000">
        <ele>1025.80</ele>
        <time>2016-10-29T07:46:54Z</time>
      </trkpt>
      <trkpt lat="42.343813000" lon="-2.643523000">
        <ele>1025.90</ele>
        <time>2016-10-29T07:46:55Z</time>
      </trkpt>
      <trkpt lat="42.343802000" lon="-2.643517000">
        <ele>1026.00</ele>
        <time>2016-10-29T07:46:56Z</time>
      </trkpt>
      <trkpt lat="42.343793000" lon="-2.643509000">
        <ele>1026.00</ele>
        <time>2016-10-29T07:46:57Z</time>
      </trkpt>
      <trkpt lat="42.343789000" lon="-2.643498000">
        <ele>1026.10</ele>
        <time>2016-10-29T07:46:58Z</time>
      </trkpt>
      <trkpt lat="42.343783000" lon="-2.643487000">
        <ele>1026.20</ele>
        <time>2016-10-29T07:46:59Z</time>
      </trkpt>
      <trkpt lat="42.343778000" lon="-2.643476000">
        <ele>1026.30</ele>
        <time>2016-10-29T07:47:00Z</time>
      </trkpt>
      <trkpt lat="42.343771000" lon="-2.643462000">
        <ele>1026.40</ele>
        <time>2016-10-29T07:47:01Z</time>
      </trkpt>
      <trkpt lat="42.343766000" lon="-2.643451000">
        <ele>1026.60</ele>
        <time>2016-10-29T07:47:02Z</time>
      </trkpt>
      <trkpt lat="42.343757000" lon="-2.643441000">
        <ele>1026.70</ele>
        <time>2016-10-29T07:47:03Z</time>
      </trkpt>
      <trkpt lat="42.343750000" lon="-2.643430000">
        <ele>1026.90</ele>
        <time>2016-10-29T07:47:04Z</time>
      </trkpt>
      <trkpt lat="42.343740000" lon="-2.643423000">
        <ele>1027.10</ele>
        <time>2016-10-29T07:47:05Z</time>
      </trkpt>
      <trkpt lat="42.343730000" lon="-2.643412000">
        <ele>1027.20</ele>
        <time>2016-10-29T07:47:06Z</time>
      </trkpt>
      <trkpt lat="42.343719000" lon="-2.643400000">
        <ele>1027.30</ele>
        <time>2016-10-29T07:47:07Z</time>
      </trkpt>
      <trkpt lat="42.343710000" lon="-2.643390000">
        <ele>1027.40</ele>
        <time>2016-10-29T07:47:08Z</time>
      </trkpt>
      <trkpt lat="42.343700000" lon="-2.643376000">
        <ele>1027.40</ele>
        <time>2016-10-29T07:47:09Z</time>
      </trkpt>
      <trkpt lat="42.343685000" lon="-2.643362000">
        <ele>1027.50</ele>
        <time>2016-10-29T07:47:10Z</time>
      </trkpt>
      <trkpt lat="42.343670000" lon="-2.643352000">
        <ele>1027.50</ele>
        <time>2016-10-29T07:47:11Z</time>
      </trkpt>
      <trkpt lat="42.343658000" lon="-2.643340000">
        <ele>1027.70</ele>
        <time>2016-10-29T07:47:12Z</time>
      </trkpt>
      <trkpt lat="42.343646000" lon="-2.643325000">
        <ele>1027.90</ele>
        <time>2016-10-29T07:47:13Z</time>
      </trkpt>
      <trkpt lat="42.343633000" lon="-2.643320000">
        <ele>1028.10</ele>
        <time>2016-10-29T07:47:14Z</time>
      </trkpt>
      <trkpt lat="42.343622000" lon="-2.643316000">
        <ele>1028.30</ele>
        <time>2016-10-29T07:47:15Z</time>
      </trkpt>
      <trkpt lat="42.343612000" lon="-2.643314000">
        <ele>1028.50</ele>
        <time>2016-10-29T07:47:16Z</time>
      </trkpt>
      <trkpt lat="42.343601000" lon="-2.643307000">
        <ele>1028.70</ele>
        <time>2016-10-29T07:47:17Z</time>
      </trkpt>
      <trkpt lat="42.343591000" lon="-2.643297000">
        <ele>1029.00</ele>
        <time>2016-10-29T07:47:18Z</time>
      </trkpt>
      <trkpt lat="42.343581000" lon="-2.643292000">
        <ele>1029.30</ele>
        <time>2016-10-29T07:47:19Z</time>
      </trkpt>
      <trkpt lat="42.343572000" lon="-2.643284000">
        <ele>1029.50</ele>
        <time>2016-10-29T07:47:20Z</time>
      </trkpt>
      <trkpt lat="42.343566000" lon="-2.643276000">
        <ele>1029.70</ele>
        <time>2016-10-29T07:47:21Z</time>
      </trkpt>
      <trkpt lat="42.343559000" lon="-2.643269000">
        <ele>1029.90</ele>
        <time>2016-10-29T07:47:22Z</time>
      </trkpt>
      <trkpt lat="42.343556000" lon="-2.643256000">
        <ele>1030.10</ele>
        <time>2016-10-29T07:47:23Z</time>
      </trkpt>
      <trkpt lat="42.343548000" lon="-2.643243000">
        <ele>1030.20</ele>
        <time>2016-10-29T07:47:24Z</time>
      </trkpt>
      <trkpt lat="42.343542000" lon="-2.643231000">
        <ele>1030.30</ele>
        <time>2016-10-29T07:47:25Z</time>
      </trkpt>
      <trkpt lat="42.343533000" lon="-2.643222000">
        <ele>1030.40</ele>
        <time>2016-10-29T07:47:26Z</time>
      </trkpt>
      <trkpt lat="42.343521000" lon="-2.643208000">
        <ele>1030.50</ele>
        <time>2016-10-29T07:47:27Z</time>
      </trkpt>
      <trkpt lat="42.343515000" lon="-2.643198000">
        <ele>1030.80</ele>
        <time>2016-10-29T07:47:28Z</time>
      </trkpt>
      <trkpt lat="42.343505000" lon="-2.643184000">
        <ele>1031.00</ele>
        <time>2016-10-29T07:47:29Z</time>
      </trkpt>
      <trkpt lat="42.343493000" lon="-2.643180000">
        <ele>1031.30</ele>
        <time>2016-10-29T07:47:30Z</time>
      </trkpt>
      <trkpt lat="42.343479000" lon="-2.643178000">
        <ele>1031.50</ele>
        <time>2016-10-29T07:47:31Z</time>
      </trkpt>
      <trkpt lat="42.343469000" lon="-2.643165000">
        <ele>1031.60</ele>
        <time>2016-10-29T07:47:32Z</time>
      </trkpt>
      <trkpt lat="42.343461000" lon="-2.643158000">
        <ele>1031.70</ele>
        <time>2016-10-29T07:47:33Z</time>
      </trkpt>
      <trkpt lat="42.343454000" lon="-2.643143000">
        <ele>1031.80</ele>
        <time>2016-10-29T07:47:34Z</time>
      </trkpt>
      <trkpt lat="42.343443000" lon="-2.643133000">
        <ele>1031.90</ele>
        <time>2016-10-29T07:47:35Z</time>
      </trkpt>
      <trkpt lat="42.343433000" lon="-2.643119000">
        <ele>1032.20</ele>
        <time>2016-10-29T07:47:36Z</time>
      </trkpt>
      <trkpt lat="42.343424000" lon="-2.643106000">
        <ele>1032.50</ele>
        <time>2016-10-29T07:47:37Z</time>
      </trkpt>
      <trkpt lat="42.343419000" lon="-2.643096000">
        <ele>1032.90</ele>
        <time>2016-10-29T07:47:38Z</time>
      </trkpt>
      <trkpt lat="42.343415000" lon="-2.643086000">
        <ele>1033.10</ele>
        <time>2016-10-29T07:47:39Z</time>
      </trkpt>
      <trkpt lat="42.343409000" lon="-2.643077000">
        <ele>1033.30</ele>
        <time>2016-10-29T07:47:40Z</time>
      </trkpt>
      <trkpt lat="42.343401000" lon="-2.643073000">
        <ele>1033.50</ele>
        <time>2016-10-29T07:47:41Z</time>
      </trkpt>
      <trkpt lat="42.343395000" lon="-2.643062000">
        <ele>1033.80</ele>
        <time>2016-10-29T07:47:42Z</time>
      </trkpt>
      <trkpt lat="42.343389000" lon="-2.643050000">
        <ele>1034.00</ele>
        <time>2016-10-29T07:47:43Z</time>
      </trkpt>
      <trkpt lat="42.343381000" lon="-2.643035000">
        <ele>1034.10</ele>
        <time>2016-10-29T07:47:44Z</time>
      </trkpt>
      <trkpt lat="42.343364000" lon="-2.643018000">
        <ele>1034.30</ele>
        <time>2016-10-29T07:47:46Z</time>
      </trkpt>
      <trkpt lat="42.343356000" lon="-2.643010000">
        <ele>1034.40</ele>
        <time>2016-10-29T07:47:47Z</time>
      </trkpt>
      <trkpt lat="42.343349000" lon="-2.643002000">
        <ele>1034.60</ele>
        <time>2016-10-29T07:47:48Z</time>
      </trkpt>
      <trkpt lat="42.343340000" lon="-2.642994000">
        <ele>1034.70</ele>
        <time>2016-10-29T07:47:49Z</time>
      </trkpt>
      <trkpt lat="42.343333000" lon="-2.642984000">
        <ele>1034.90</ele>
        <time>2016-10-29T07:47:50Z</time>
      </trkpt>
      <trkpt lat="42.343321000" lon="-2.642976000">
        <ele>1035.00</ele>
        <time>2016-10-29T07:47:51Z</time>
      </trkpt>
      <trkpt lat="42.343312000" lon="-2.642962000">
        <ele>1035.20</ele>
        <time>2016-10-29T07:47:52Z</time>
      </trkpt>
      <trkpt lat="42.343304000" lon="-2.642950000">
        <ele>1035.30</ele>
        <time>2016-10-29T07:47:53Z</time>
      </trkpt>
      <trkpt lat="42.343298000" lon="-2.642939000">
        <ele>1035.50</ele>
        <time>2016-10-29T07:47:54Z</time>
      </trkpt>
      <trkpt lat="42.343290000" lon="-2.642931000">
        <ele>1035.60</ele>
        <time>2016-10-29T07:47:55Z</time>
      </trkpt>
      <trkpt lat="42.343280000" lon="-2.642920000">
        <ele>1035.70</ele>
        <time>2016-10-29T07:47:56Z</time>
      </trkpt>
      <trkpt lat="42.343270000" lon="-2.642914000">
        <ele>1035.70</ele>
        <time>2016-10-29T07:47:57Z</time>
      </trkpt>
      <trkpt lat="42.343260000" lon="-2.642901000">
        <ele>1036.10</ele>
        <time>2016-10-29T07:47:58Z</time>
      </trkpt>
      <trkpt lat="42.343253000" lon="-2.642892000">
        <ele>1036.30</ele>
        <time>2016-10-29T07:47:59Z</time>
      </trkpt>
      <trkpt lat="42.343247000" lon="-2.642885000">
        <ele>1036.60</ele>
        <time>2016-10-29T07:48:00Z</time>
      </trkpt>
      <trkpt lat="42.343238000" lon="-2.642875000">
        <ele>1036.80</ele>
        <time>2016-10-29T07:48:01Z</time>
      </trkpt>
      <trkpt lat="42.343230000" lon="-2.642865000">
        <ele>1037.00</ele>
        <time>2016-10-29T07:48:02Z</time>
      </trkpt>
      <trkpt lat="42.343223000" lon="-2.642858000">
        <ele>1037.20</ele>
        <time>2016-10-29T07:48:03Z</time>
      </trkpt>
      <trkpt lat="42.343214000" lon="-2.642845000">
        <ele>1037.30</ele>
        <time>2016-10-29T07:48:04Z</time>
      </trkpt>
      <trkpt lat="42.343210000" lon="-2.642831000">
        <ele>1037.50</ele>
        <time>2016-10-29T07:48:05Z</time>
      </trkpt>
      <trkpt lat="42.343201000" lon="-2.642818000">
        <ele>1037.80</ele>
        <time>2016-10-29T07:48:06Z</time>
      </trkpt>
      <trkpt lat="42.343191000" lon="-2.642808000">
        <ele>1038.00</ele>
        <time>2016-10-29T07:48:07Z</time>
      </trkpt>
      <trkpt lat="42.343179000" lon="-2.642800000">
        <ele>1038.20</ele>
        <time>2016-10-29T07:48:08Z</time>
      </trkpt>
      <trkpt lat="42.343170000" lon="-2.642792000">
        <ele>1038.30</ele>
        <time>2016-10-29T07:48:09Z</time>
      </trkpt>
      <trkpt lat="42.343161000" lon="-2.642780000">
        <ele>1038.40</ele>
        <time>2016-10-29T07:48:10Z</time>
      </trkpt>
      <trkpt lat="42.343152000" lon="-2.642768000">
        <ele>1038.50</ele>
        <time>2016-10-29T07:48:11Z</time>
      </trkpt>
      <trkpt lat="42.343140000" lon="-2.642755000">
        <ele>1038.40</ele>
        <time>2016-10-29T07:48:12Z</time>
      </trkpt>
      <trkpt lat="42.343132000" lon="-2.642744000">
        <ele>1038.40</ele>
        <time>2016-10-29T07:48:13Z</time>
      </trkpt>
      <trkpt lat="42.343125000" lon="-2.642737000">
        <ele>1038.60</ele>
        <time>2016-10-29T07:48:14Z</time>
      </trkpt>
      <trkpt lat="42.343119000" lon="-2.642726000">
        <ele>1038.80</ele>
        <time>2016-10-29T07:48:15Z</time>
      </trkpt>
      <trkpt lat="42.343111000" lon="-2.642709000">
        <ele>1038.90</ele>
        <time>2016-10-29T07:48:16Z</time>
      </trkpt>
      <trkpt lat="42.343104000" lon="-2.642695000">
        <ele>1039.00</ele>
        <time>2016-10-29T07:48:17Z</time>
      </trkpt>
      <trkpt lat="42.343095000" lon="-2.642688000">
        <ele>1039.20</ele>
        <time>2016-10-29T07:48:18Z</time>
      </trkpt>
      <trkpt lat="42.343084000" lon="-2.642681000">
        <ele>1039.40</ele>
        <time>2016-10-29T07:48:19Z</time>
      </trkpt>
      <trkpt lat="42.343073000" lon="-2.642682000">
        <ele>1039.70</ele>
        <time>2016-10-29T07:48:20Z</time>
      </trkpt>
      <trkpt lat="42.343067000" lon="-2.642671000">
        <ele>1039.90</ele>
        <time>2016-10-29T07:48:21Z</time>
      </trkpt>
      <trkpt lat="42.343055000" lon="-2.642659000">
        <ele>1040.10</ele>
        <time>2016-10-29T07:48:22Z</time>
      </trkpt>
      <trkpt lat="42.343046000" lon="-2.642647000">
        <ele>1040.20</ele>
        <time>2016-10-29T07:48:23Z</time>
      </trkpt>
      <trkpt lat="42.343038000" lon="-2.642638000">
        <ele>1040.30</ele>
        <time>2016-10-29T07:48:24Z</time>
      </trkpt>
      <trkpt lat="42.343030000" lon="-2.642629000">
        <ele>1040.40</ele>
        <time>2016-10-29T07:48:25Z</time>
      </trkpt>
      <trkpt lat="42.343019000" lon="-2.642620000">
        <ele>1040.50</ele>
        <time>2016-10-29T07:48:26Z</time>
      </trkpt>
      <trkpt lat="42.343012000" lon="-2.642611000">
        <ele>1040.60</ele>
        <time>2016-10-29T07:48:27Z</time>
      </trkpt>
      <trkpt lat="42.343003000" lon="-2.642601000">
        <ele>1040.70</ele>
        <time>2016-10-29T07:48:28Z</time>
      </trkpt>
      <trkpt lat="42.342996000" lon="-2.642593000">
        <ele>1040.80</ele>
        <time>2016-10-29T07:48:29Z</time>
      </trkpt>
      <trkpt lat="42.342990000" lon="-2.642588000">
        <ele>1040.80</ele>
        <time>2016-10-29T07:48:30Z</time>
      </trkpt>
      <trkpt lat="42.342985000" lon="-2.642581000">
        <ele>1040.80</ele>
        <time>2016-10-29T07:48:31Z</time>
      </trkpt>
      <trkpt lat="42.342979000" lon="-2.642574000">
        <ele>1040.90</ele>
        <time>2016-10-29T07:48:32Z</time>
      </trkpt>
      <trkpt lat="42.342974000" lon="-2.642563000">
        <ele>1041.00</ele>
        <time>2016-10-29T07:48:33Z</time>
      </trkpt>
      <trkpt lat="42.342967000" lon="-2.642553000">
        <ele>1041.20</ele>
        <time>2016-10-29T07:48:34Z</time>
      </trkpt>
      <trkpt lat="42.342959000" lon="-2.642543000">
        <ele>1041.40</ele>
        <time>2016-10-29T07:48:35Z</time>
      </trkpt>
      <trkpt lat="42.342947000" lon="-2.642534000">
        <ele>1041.70</ele>
        <time>2016-10-29T07:48:36Z</time>
      </trkpt>
      <trkpt lat="42.342939000" lon="-2.642518000">
        <ele>1042.00</ele>
        <time>2016-10-29T07:48:37Z</time>
      </trkpt>
      <trkpt lat="42.342933000" lon="-2.642501000">
        <ele>1042.20</ele>
        <time>2016-10-29T07:48:38Z</time>
      </trkpt>
      <trkpt lat="42.342925000" lon="-2.642486000">
        <ele>1042.30</ele>
        <time>2016-10-29T07:48:39Z</time>
      </trkpt>
      <trkpt lat="42.342917000" lon="-2.642475000">
        <ele>1042.50</ele>
        <time>2016-10-29T07:48:40Z</time>
      </trkpt>
      <trkpt lat="42.342908000" lon="-2.642469000">
        <ele>1042.70</ele>
        <time>2016-10-29T07:48:41Z</time>
      </trkpt>
      <trkpt lat="42.342897000" lon="-2.642462000">
        <ele>1042.80</ele>
        <time>2016-10-29T07:48:42Z</time>
      </trkpt>
      <trkpt lat="42.342887000" lon="-2.642451000">
        <ele>1043.00</ele>
        <time>2016-10-29T07:48:43Z</time>
      </trkpt>
      <trkpt lat="42.342878000" lon="-2.642444000">
        <ele>1043.10</ele>
        <time>2016-10-29T07:48:44Z</time>
      </trkpt>
      <trkpt lat="42.342866000" lon="-2.642438000">
        <ele>1043.10</ele>
        <time>2016-10-29T07:48:45Z</time>
      </trkpt>
      <trkpt lat="42.342860000" lon="-2.642424000">
        <ele>1043.30</ele>
        <time>2016-10-29T07:48:46Z</time>
      </trkpt>
      <trkpt lat="42.342845000" lon="-2.642404000">
        <ele>1043.50</ele>
        <time>2016-10-29T07:48:48Z</time>
      </trkpt>
      <trkpt lat="42.342838000" lon="-2.642396000">
        <ele>1043.60</ele>
        <time>2016-10-29T07:48:49Z</time>
      </trkpt>
      <trkpt lat="42.342830000" lon="-2.642386000">
        <ele>1043.70</ele>
        <time>2016-10-29T07:48:50Z</time>
      </trkpt>
      <trkpt lat="42.342821000" lon="-2.642377000">
        <ele>1043.70</ele>
        <time>2016-10-29T07:48:51Z</time>
      </trkpt>
      <trkpt lat="42.342808000" lon="-2.642366000">
        <ele>1043.80</ele>
        <time>2016-10-29T07:48:52Z</time>
      </trkpt>
      <trkpt lat="42.342801000" lon="-2.642363000">
        <ele>1043.90</ele>
        <time>2016-10-29T07:48:53Z</time>
      </trkpt>
      <trkpt lat="42.342794000" lon="-2.642352000">
        <ele>1044.00</ele>
        <time>2016-10-29T07:48:54Z</time>
      </trkpt>
      <trkpt lat="42.342787000" lon="-2.642340000">
        <ele>1044.10</ele>
        <time>2016-10-29T07:48:55Z</time>
      </trkpt>
      <trkpt lat="42.342775000" lon="-2.642323000">
        <ele>1044.20</ele>
        <time>2016-10-29T07:48:56Z</time>
      </trkpt>
      <trkpt lat="42.342765000" lon="-2.642309000">
        <ele>1044.20</ele>
        <time>2016-10-29T07:48:57Z</time>
      </trkpt>
      <trkpt lat="42.342758000" lon="-2.642303000">
        <ele>1044.30</ele>
        <time>2016-10-29T07:48:58Z</time>
      </trkpt>
      <trkpt lat="42.342751000" lon="-2.642291000">
        <ele>1044.40</ele>
        <time>2016-10-29T07:48:59Z</time>
      </trkpt>
      <trkpt lat="42.342743000" lon="-2.642280000">
        <ele>1044.60</ele>
        <time>2016-10-29T07:49:00Z</time>
      </trkpt>
      <trkpt lat="42.342736000" lon="-2.642267000">
        <ele>1044.70</ele>
        <time>2016-10-29T07:49:01Z</time>
      </trkpt>
      <trkpt lat="42.342731000" lon="-2.642255000">
        <ele>1044.90</ele>
        <time>2016-10-29T07:49:02Z</time>
      </trkpt>
      <trkpt lat="42.342726000" lon="-2.642251000">
        <ele>1045.00</ele>
        <time>2016-10-29T07:49:03Z</time>
      </trkpt>
      <trkpt lat="42.342720000" lon="-2.642239000">
        <ele>1045.10</ele>
        <time>2016-10-29T07:49:04Z</time>
      </trkpt>
      <trkpt lat="42.342709000" lon="-2.642227000">
        <ele>1045.20</ele>
        <time>2016-10-29T07:49:05Z</time>
      </trkpt>
      <trkpt lat="42.342701000" lon="-2.642216000">
        <ele>1045.30</ele>
        <time>2016-10-29T07:49:06Z</time>
      </trkpt>
      <trkpt lat="42.342694000" lon="-2.642209000">
        <ele>1045.40</ele>
        <time>2016-10-29T07:49:07Z</time>
      </trkpt>
      <trkpt lat="42.342687000" lon="-2.642198000">
        <ele>1045.40</ele>
        <time>2016-10-29T07:49:08Z</time>
      </trkpt>
      <trkpt lat="42.342678000" lon="-2.642190000">
        <ele>1045.40</ele>
        <time>2016-10-29T07:49:09Z</time>
      </trkpt>
      <trkpt lat="42.342668000" lon="-2.642181000">
        <ele>1045.60</ele>
        <time>2016-10-29T07:49:10Z</time>
      </trkpt>
      <trkpt lat="42.342661000" lon="-2.642167000">
        <ele>1045.80</ele>
        <time>2016-10-29T07:49:11Z</time>
      </trkpt>
      <trkpt lat="42.342653000" lon="-2.642158000">
        <ele>1045.90</ele>
        <time>2016-10-29T07:49:12Z</time>
      </trkpt>
      <trkpt lat="42.342645000" lon="-2.642149000">
        <ele>1046.00</ele>
        <time>2016-10-29T07:49:13Z</time>
      </trkpt>
      <trkpt lat="42.342633000" lon="-2.642142000">
        <ele>1046.10</ele>
        <time>2016-10-29T07:49:14Z</time>
      </trkpt>
      <trkpt lat="42.342627000" lon="-2.642132000">
        <ele>1046.10</ele>
        <time>2016-10-29T07:49:15Z</time>
      </trkpt>
      <trkpt lat="42.342618000" lon="-2.642121000">
        <ele>1046.50</ele>
        <time>2016-10-29T07:49:16Z</time>
      </trkpt>
      <trkpt lat="42.342612000" lon="-2.642108000">
        <ele>1046.70</ele>
        <time>2016-10-29T07:49:17Z</time>
      </trkpt>
      <trkpt lat="42.342604000" lon="-2.642097000">
        <ele>1046.90</ele>
        <time>2016-10-29T07:49:18Z</time>
      </trkpt>
      <trkpt lat="42.342595000" lon="-2.642086000">
        <ele>1047.10</ele>
        <time>2016-10-29T07:49:19Z</time>
      </trkpt>
      <trkpt lat="42.342586000" lon="-2.642075000">
        <ele>1047.20</ele>
        <time>2016-10-29T07:49:20Z</time>
      </trkpt>
      <trkpt lat="42.342580000" lon="-2.642066000">
        <ele>1047.30</ele>
        <time>2016-10-29T07:49:21Z</time>
      </trkpt>
      <trkpt lat="42.342573000" lon="-2.642054000">
        <ele>1047.30</ele>
        <time>2016-10-29T07:49:22Z</time>
      </trkpt>
      <trkpt lat="42.342567000" lon="-2.642041000">
        <ele>1047.40</ele>
        <time>2016-10-29T07:49:23Z</time>
      </trkpt>
      <trkpt lat="42.342564000" lon="-2.642027000">
        <ele>1047.50</ele>
        <time>2016-10-29T07:49:24Z</time>
      </trkpt>
      <trkpt lat="42.342563000" lon="-2.642012000">
        <ele>1047.60</ele>
        <time>2016-10-29T07:49:25Z</time>
      </trkpt>
      <trkpt lat="42.342557000" lon="-2.641997000">
        <ele>1047.80</ele>
        <time>2016-10-29T07:49:26Z</time>
      </trkpt>
      <trkpt lat="42.342553000" lon="-2.641981000">
        <ele>1047.90</ele>
        <time>2016-10-29T07:49:27Z</time>
      </trkpt>
      <trkpt lat="42.342551000" lon="-2.641965000">
        <ele>1048.20</ele>
        <time>2016-10-29T07:49:28Z</time>
      </trkpt>
      <trkpt lat="42.342550000" lon="-2.641951000">
        <ele>1048.30</ele>
        <time>2016-10-29T07:49:29Z</time>
      </trkpt>
      <trkpt lat="42.342547000" lon="-2.641934000">
        <ele>1048.50</ele>
        <time>2016-10-29T07:49:30Z</time>
      </trkpt>
      <trkpt lat="42.342543000" lon="-2.641919000">
        <ele>1048.70</ele>
        <time>2016-10-29T07:49:31Z</time>
      </trkpt>
      <trkpt lat="42.342543000" lon="-2.641904000">
        <ele>1048.90</ele>
        <time>2016-10-29T07:49:32Z</time>
      </trkpt>
      <trkpt lat="42.342542000" lon="-2.641888000">
        <ele>1049.00</ele>
        <time>2016-10-29T07:49:33Z</time>
      </trkpt>
      <trkpt lat="42.342542000" lon="-2.641875000">
        <ele>1049.20</ele>
        <time>2016-10-29T07:49:34Z</time>
      </trkpt>
      <trkpt lat="42.342540000" lon="-2.641862000">
        <ele>1049.30</ele>
        <time>2016-10-29T07:49:35Z</time>
      </trkpt>
      <trkpt lat="42.342536000" lon="-2.641847000">
        <ele>1049.50</ele>
        <time>2016-10-29T07:49:36Z</time>
      </trkpt>
      <trkpt lat="42.342530000" lon="-2.641832000">
        <ele>1049.60</ele>
        <time>2016-10-29T07:49:37Z</time>
      </trkpt>
      <trkpt lat="42.342529000" lon="-2.641818000">
        <ele>1049.70</ele>
        <time>2016-10-29T07:49:38Z</time>
      </trkpt>
      <trkpt lat="42.342532000" lon="-2.641800000">
        <ele>1049.80</ele>
        <time>2016-10-29T07:49:39Z</time>
      </trkpt>
      <trkpt lat="42.342537000" lon="-2.641785000">
        <ele>1050.20</ele>
        <time>2016-10-29T07:49:40Z</time>
      </trkpt>
      <trkpt lat="42.342543000" lon="-2.641769000">
        <ele>1050.50</ele>
        <time>2016-10-29T07:49:41Z</time>
      </trkpt>
      <trkpt lat="42.342544000" lon="-2.641752000">
        <ele>1050.70</ele>
        <time>2016-10-29T07:49:42Z</time>
      </trkpt>
      <trkpt lat="42.342550000" lon="-2.641736000">
        <ele>1050.80</ele>
        <time>2016-10-29T07:49:43Z</time>
      </trkpt>
      <trkpt lat="42.342550000" lon="-2.641725000">
        <ele>1050.90</ele>
        <time>2016-10-29T07:49:44Z</time>
      </trkpt>
      <trkpt lat="42.342554000" lon="-2.641715000">
        <ele>1051.00</ele>
        <time>2016-10-29T07:49:45Z</time>
      </trkpt>
      <trkpt lat="42.342559000" lon="-2.641693000">
        <ele>1051.10</ele>
        <time>2016-10-29T07:49:46Z</time>
      </trkpt>
      <trkpt lat="42.342563000" lon="-2.641675000">
        <ele>1051.10</ele>
        <time>2016-10-29T07:49:47Z</time>
      </trkpt>
      <trkpt lat="42.342566000" lon="-2.641654000">
        <ele>1051.20</ele>
        <time>2016-10-29T07:49:48Z</time>
      </trkpt>
      <trkpt lat="42.342576000" lon="-2.641624000">
        <ele>1051.40</ele>
        <time>2016-10-29T07:49:50Z</time>
      </trkpt>
      <trkpt lat="42.342584000" lon="-2.641606000">
        <ele>1051.50</ele>
        <time>2016-10-29T07:49:51Z</time>
      </trkpt>
      <trkpt lat="42.342590000" lon="-2.641587000">
        <ele>1051.80</ele>
        <time>2016-10-29T07:49:52Z</time>
      </trkpt>
      <trkpt lat="42.342596000" lon="-2.641571000">
        <ele>1052.00</ele>
        <time>2016-10-29T07:49:53Z</time>
      </trkpt>
      <trkpt lat="42.342607000" lon="-2.641559000">
        <ele>1052.10</ele>
        <time>2016-10-29T07:49:54Z</time>
      </trkpt>
      <trkpt lat="42.342611000" lon="-2.641538000">
        <ele>1052.30</ele>
        <time>2016-10-29T07:49:55Z</time>
      </trkpt>
      <trkpt lat="42.342620000" lon="-2.641527000">
        <ele>1052.40</ele>
        <time>2016-10-29T07:49:56Z</time>
      </trkpt>
      <trkpt lat="42.342628000" lon="-2.641514000">
        <ele>1052.50</ele>
        <time>2016-10-29T07:49:57Z</time>
      </trkpt>
      <trkpt lat="42.342637000" lon="-2.641498000">
        <ele>1052.80</ele>
        <time>2016-10-29T07:49:58Z</time>
      </trkpt>
      <trkpt lat="42.342647000" lon="-2.641485000">
        <ele>1052.90</ele>
        <time>2016-10-29T07:49:59Z</time>
      </trkpt>
      <trkpt lat="42.342658000" lon="-2.641471000">
        <ele>1053.00</ele>
        <time>2016-10-29T07:50:00Z</time>
      </trkpt>
      <trkpt lat="42.342666000" lon="-2.641452000">
        <ele>1053.10</ele>
        <time>2016-10-29T07:50:01Z</time>
      </trkpt>
      <trkpt lat="42.342673000" lon="-2.641433000">
        <ele>1053.40</ele>
        <time>2016-10-29T07:50:02Z</time>
      </trkpt>
      <trkpt lat="42.342677000" lon="-2.641414000">
        <ele>1053.60</ele>
        <time>2016-10-29T07:50:03Z</time>
      </trkpt>
      <trkpt lat="42.342686000" lon="-2.641394000">
        <ele>1053.80</ele>
        <time>2016-10-29T07:50:04Z</time>
      </trkpt>
      <trkpt lat="42.342695000" lon="-2.641377000">
        <ele>1054.00</ele>
        <time>2016-10-29T07:50:05Z</time>
      </trkpt>
      <trkpt lat="42.342703000" lon="-2.641357000">
        <ele>1054.10</ele>
        <time>2016-10-29T07:50:06Z</time>
      </trkpt>
      <trkpt lat="42.342710000" lon="-2.641338000">
        <ele>1054.20</ele>
        <time>2016-10-29T07:50:07Z</time>
      </trkpt>
      <trkpt lat="42.342716000" lon="-2.641323000">
        <ele>1054.20</ele>
        <time>2016-10-29T07:50:08Z</time>
      </trkpt>
      <trkpt lat="42.342726000" lon="-2.641308000">
        <ele>1054.30</ele>
        <time>2016-10-29T07:50:09Z</time>
      </trkpt>
      <trkpt lat="42.342733000" lon="-2.641288000">
        <ele>1054.30</ele>
        <time>2016-10-29T07:50:10Z</time>
      </trkpt>
      <trkpt lat="42.342742000" lon="-2.641273000">
        <ele>1054.30</ele>
        <time>2016-10-29T07:50:11Z</time>
      </trkpt>
      <trkpt lat="42.342754000" lon="-2.641257000">
        <ele>1054.40</ele>
        <time>2016-10-29T07:50:12Z</time>
      </trkpt>
      <trkpt lat="42.342763000" lon="-2.641239000">
        <ele>1054.50</ele>
        <time>2016-10-29T07:50:13Z</time>
      </trkpt>
      <trkpt lat="42.342769000" lon="-2.641222000">
        <ele>1054.50</ele>
        <time>2016-10-29T07:50:14Z</time>
      </trkpt>
      <trkpt lat="42.342779000" lon="-2.641207000">
        <ele>1054.60</ele>
        <time>2016-10-29T07:50:15Z</time>
      </trkpt>
      <trkpt lat="42.342787000" lon="-2.641191000">
        <ele>1054.60</ele>
        <time>2016-10-29T07:50:16Z</time>
      </trkpt>
      <trkpt lat="42.342795000" lon="-2.641174000">
        <ele>1054.60</ele>
        <time>2016-10-29T07:50:17Z</time>
      </trkpt>
      <trkpt lat="42.342805000" lon="-2.641158000">
        <ele>1054.60</ele>
        <time>2016-10-29T07:50:18Z</time>
      </trkpt>
      <trkpt lat="42.342811000" lon="-2.641142000">
        <ele>1054.70</ele>
        <time>2016-10-29T07:50:19Z</time>
      </trkpt>
      <trkpt lat="42.342818000" lon="-2.641126000">
        <ele>1054.70</ele>
        <time>2016-10-29T07:50:20Z</time>
      </trkpt>
      <trkpt lat="42.342827000" lon="-2.641112000">
        <ele>1054.70</ele>
        <time>2016-10-29T07:50:21Z</time>
      </trkpt>
      <trkpt lat="42.342834000" lon="-2.641098000">
        <ele>1054.90</ele>
        <time>2016-10-29T07:50:22Z</time>
      </trkpt>
      <trkpt lat="42.342841000" lon="-2.641081000">
        <ele>1055.10</ele>
        <time>2016-10-29T07:50:23Z</time>
      </trkpt>
      <trkpt lat="42.342846000" lon="-2.641064000">
        <ele>1055.40</ele>
        <time>2016-10-29T07:50:24Z</time>
      </trkpt>
      <trkpt lat="42.342850000" lon="-2.641048000">
        <ele>1055.60</ele>
        <time>2016-10-29T07:50:25Z</time>
      </trkpt>
      <trkpt lat="42.342856000" lon="-2.641028000">
        <ele>1055.70</ele>
        <time>2016-10-29T07:50:26Z</time>
      </trkpt>
      <trkpt lat="42.342862000" lon="-2.641014000">
        <ele>1055.80</ele>
        <time>2016-10-29T07:50:27Z</time>
      </trkpt>
      <trkpt lat="42.342871000" lon="-2.640999000">
        <ele>1056.00</ele>
        <time>2016-10-29T07:50:28Z</time>
      </trkpt>
      <trkpt lat="42.342880000" lon="-2.640982000">
        <ele>1056.20</ele>
        <time>2016-10-29T07:50:29Z</time>
      </trkpt>
      <trkpt lat="42.342887000" lon="-2.640965000">
        <ele>1056.40</ele>
        <time>2016-10-29T07:50:30Z</time>
      </trkpt>
      <trkpt lat="42.342894000" lon="-2.640949000">
        <ele>1056.50</ele>
        <time>2016-10-29T07:50:31Z</time>
      </trkpt>
      <trkpt lat="42.342897000" lon="-2.640930000">
        <ele>1056.60</ele>
        <time>2016-10-29T07:50:32Z</time>
      </trkpt>
      <trkpt lat="42.342909000" lon="-2.640912000">
        <ele>1056.70</ele>
        <time>2016-10-29T07:50:33Z</time>
      </trkpt>
      <trkpt lat="42.342917000" lon="-2.640894000">
        <ele>1056.90</ele>
        <time>2016-10-29T07:50:34Z</time>
      </trkpt>
      <trkpt lat="42.342925000" lon="-2.640874000">
        <ele>1057.10</ele>
        <time>2016-10-29T07:50:35Z</time>
      </trkpt>
      <trkpt lat="42.342936000" lon="-2.640855000">
        <ele>1057.20</ele>
        <time>2016-10-29T07:50:36Z</time>
      </trkpt>
      <trkpt lat="42.342942000" lon="-2.640837000">
        <ele>1057.30</ele>
        <time>2016-10-29T07:50:37Z</time>
      </trkpt>
      <trkpt lat="42.342950000" lon="-2.640820000">
        <ele>1057.30</ele>
        <time>2016-10-29T07:50:38Z</time>
      </trkpt>
      <trkpt lat="42.342954000" lon="-2.640802000">
        <ele>1057.40</ele>
        <time>2016-10-29T07:50:39Z</time>
      </trkpt>
      <trkpt lat="42.342957000" lon="-2.640784000">
        <ele>1057.50</ele>
        <time>2016-10-29T07:50:40Z</time>
      </trkpt>
      <trkpt lat="42.342962000" lon="-2.640761000">
        <ele>1057.50</ele>
        <time>2016-10-29T07:50:41Z</time>
      </trkpt>
      <trkpt lat="42.342973000" lon="-2.640745000">
        <ele>1057.80</ele>
        <time>2016-10-29T07:50:42Z</time>
      </trkpt>
      <trkpt lat="42.342984000" lon="-2.640730000">
        <ele>1058.00</ele>
        <time>2016-10-29T07:50:43Z</time>
      </trkpt>
      <trkpt lat="42.342995000" lon="-2.640715000">
        <ele>1058.20</ele>
        <time>2016-10-29T07:50:44Z</time>
      </trkpt>
      <trkpt lat="42.343001000" lon="-2.640699000">
        <ele>1058.30</ele>
        <time>2016-10-29T07:50:45Z</time>
      </trkpt>
      <trkpt lat="42.343010000" lon="-2.640681000">
        <ele>1058.30</ele>
        <time>2016-10-29T07:50:46Z</time>
      </trkpt>
      <trkpt lat="42.343016000" lon="-2.640665000">
        <ele>1058.40</ele>
        <time>2016-10-29T07:50:47Z</time>
      </trkpt>
      <trkpt lat="42.343020000" lon="-2.640656000">
        <ele>1058.40</ele>
        <time>2016-10-29T07:50:48Z</time>
      </trkpt>
      <trkpt lat="42.343023000" lon="-2.640641000">
        <ele>1058.40</ele>
        <time>2016-10-29T07:50:49Z</time>
      </trkpt>
      <trkpt lat="42.343029000" lon="-2.640624000">
        <ele>1058.40</ele>
        <time>2016-10-29T07:50:50Z</time>
      </trkpt>
      <trkpt lat="42.343042000" lon="-2.640586000">
        <ele>1058.80</ele>
        <time>2016-10-29T07:50:52Z</time>
      </trkpt>
      <trkpt lat="42.343045000" lon="-2.640570000">
        <ele>1059.10</ele>
        <time>2016-10-29T07:50:53Z</time>
      </trkpt>
      <trkpt lat="42.343052000" lon="-2.640555000">
        <ele>1059.30</ele>
        <time>2016-10-29T07:50:54Z</time>
      </trkpt>
      <trkpt lat="42.343064000" lon="-2.640540000">
        <ele>1059.40</ele>
        <time>2016-10-29T07:50:55Z</time>
      </trkpt>
      <trkpt lat="42.343072000" lon="-2.640525000">
        <ele>1059.50</ele>
        <time>2016-10-29T07:50:56Z</time>
      </trkpt>
      <trkpt lat="42.343081000" lon="-2.640504000">
        <ele>1059.60</ele>
        <time>2016-10-29T07:50:57Z</time>
      </trkpt>
      <trkpt lat="42.343092000" lon="-2.640488000">
        <ele>1059.70</ele>
        <time>2016-10-29T07:50:58Z</time>
      </trkpt>
      <trkpt lat="42.343095000" lon="-2.640467000">
        <ele>1059.70</ele>
        <time>2016-10-29T07:50:59Z</time>
      </trkpt>
      <trkpt lat="42.343097000" lon="-2.640447000">
        <ele>1059.80</ele>
        <time>2016-10-29T07:51:00Z</time>
      </trkpt>
      <trkpt lat="42.343098000" lon="-2.640428000">
        <ele>1060.10</ele>
        <time>2016-10-29T07:51:01Z</time>
      </trkpt>
      <trkpt lat="42.343100000" lon="-2.640413000">
        <ele>1060.30</ele>
        <time>2016-10-29T07:51:02Z</time>
      </trkpt>
      <trkpt lat="42.343099000" lon="-2.640394000">
        <ele>1060.50</ele>
        <time>2016-10-29T07:51:03Z</time>
      </trkpt>
      <trkpt lat="42.343098000" lon="-2.640380000">
        <ele>1060.70</ele>
        <time>2016-10-29T07:51:04Z</time>
      </trkpt>
      <trkpt lat="42.343094000" lon="-2.640363000">
        <ele>1060.80</ele>
        <time>2016-10-29T07:51:05Z</time>
      </trkpt>
      <trkpt lat="42.343089000" lon="-2.640344000">
        <ele>1060.90</ele>
        <time>2016-10-29T07:51:06Z</time>
      </trkpt>
      <trkpt lat="42.343083000" lon="-2.640328000">
        <ele>1060.90</ele>
        <time>2016-10-29T07:51:07Z</time>
      </trkpt>
      <trkpt lat="42.343070000" lon="-2.640308000">
        <ele>1061.00</ele>
        <time>2016-10-29T07:51:08Z</time>
      </trkpt>
      <trkpt lat="42.343057000" lon="-2.640293000">
        <ele>1061.10</ele>
        <time>2016-10-29T07:51:09Z</time>
      </trkpt>
      <trkpt lat="42.343047000" lon="-2.640286000">
        <ele>1061.20</ele>
        <time>2016-10-29T07:51:10Z</time>
      </trkpt>
      <trkpt lat="42.343032000" lon="-2.640280000">
        <ele>1061.50</ele>
        <time>2016-10-29T07:51:11Z</time>
      </trkpt>
      <trkpt lat="42.343018000" lon="-2.640271000">
        <ele>1061.70</ele>
        <time>2016-10-29T07:51:12Z</time>
      </trkpt>
      <trkpt lat="42.343005000" lon="-2.640266000">
        <ele>1061.80</ele>
        <time>2016-10-29T07:51:13Z</time>
      </trkpt>
      <trkpt lat="42.342992000" lon="-2.640260000">
        <ele>1061.90</ele>
        <time>2016-10-29T07:51:14Z</time>
      </trkpt>
      <trkpt lat="42.342980000" lon="-2.640258000">
        <ele>1062.00</ele>
        <time>2016-10-29T07:51:15Z</time>
      </trkpt>
      <trkpt lat="42.342964000" lon="-2.640259000">
        <ele>1062.00</ele>
        <time>2016-10-29T07:51:16Z</time>
      </trkpt>
      <trkpt lat="42.342949000" lon="-2.640257000">
        <ele>1062.20</ele>
        <time>2016-10-29T07:51:17Z</time>
      </trkpt>
      <trkpt lat="42.342934000" lon="-2.640258000">
        <ele>1062.40</ele>
        <time>2016-10-29T07:51:18Z</time>
      </trkpt>
      <trkpt lat="42.342919000" lon="-2.640253000">
        <ele>1062.50</ele>
        <time>2016-10-29T07:51:19Z</time>
      </trkpt>
      <trkpt lat="42.342903000" lon="-2.640257000">
        <ele>1062.60</ele>
        <time>2016-10-29T07:51:20Z</time>
      </trkpt>
      <trkpt lat="42.342889000" lon="-2.640258000">
        <ele>1062.70</ele>
        <time>2016-10-29T07:51:21Z</time>
      </trkpt>
      <trkpt lat="42.342877000" lon="-2.640263000">
        <ele>1062.90</ele>
        <time>2016-10-29T07:51:22Z</time>
      </trkpt>
      <trkpt lat="42.342868000" lon="-2.640259000">
        <ele>1063.10</ele>
        <time>2016-10-29T07:51:23Z</time>
      </trkpt>
      <trkpt lat="42.342855000" lon="-2.640259000">
        <ele>1063.30</ele>
        <time>2016-10-29T07:51:24Z</time>
      </trkpt>
      <trkpt lat="42.342838000" lon="-2.640264000">
        <ele>1063.40</ele>
        <time>2016-10-29T07:51:25Z</time>
      </trkpt>
      <trkpt lat="42.342822000" lon="-2.640269000">
        <ele>1063.60</ele>
        <time>2016-10-29T07:51:26Z</time>
      </trkpt>
      <trkpt lat="42.342805000" lon="-2.640271000">
        <ele>1063.70</ele>
        <time>2016-10-29T07:51:27Z</time>
      </trkpt>
      <trkpt lat="42.342792000" lon="-2.640271000">
        <ele>1063.90</ele>
        <time>2016-10-29T07:51:28Z</time>
      </trkpt>
      <trkpt lat="42.342777000" lon="-2.640267000">
        <ele>1064.00</ele>
        <time>2016-10-29T07:51:29Z</time>
      </trkpt>
      <trkpt lat="42.342763000" lon="-2.640265000">
        <ele>1064.10</ele>
        <time>2016-10-29T07:51:30Z</time>
      </trkpt>
      <trkpt lat="42.342747000" lon="-2.640267000">
        <ele>1064.10</ele>
        <time>2016-10-29T07:51:31Z</time>
      </trkpt>
      <trkpt lat="42.342735000" lon="-2.640265000">
        <ele>1064.20</ele>
        <time>2016-10-29T07:51:32Z</time>
      </trkpt>
      <trkpt lat="42.342719000" lon="-2.640265000">
        <ele>1064.20</ele>
        <time>2016-10-29T07:51:33Z</time>
      </trkpt>
      <trkpt lat="42.342706000" lon="-2.640261000">
        <ele>1064.40</ele>
        <time>2016-10-29T07:51:34Z</time>
      </trkpt>
      <trkpt lat="42.342693000" lon="-2.640255000">
        <ele>1064.50</ele>
        <time>2016-10-29T07:51:35Z</time>
      </trkpt>
      <trkpt lat="42.342678000" lon="-2.640255000">
        <ele>1064.40</ele>
        <time>2016-10-29T07:51:36Z</time>
      </trkpt>
      <trkpt lat="42.342666000" lon="-2.640248000">
        <ele>1064.40</ele>
        <time>2016-10-29T07:51:37Z</time>
      </trkpt>
      <trkpt lat="42.342652000" lon="-2.640248000">
        <ele>1064.50</ele>
        <time>2016-10-29T07:51:38Z</time>
      </trkpt>
      <trkpt lat="42.342638000" lon="-2.640249000">
        <ele>1064.60</ele>
        <time>2016-10-29T07:51:39Z</time>
      </trkpt>
      <trkpt lat="42.342626000" lon="-2.640249000">
        <ele>1064.70</ele>
        <time>2016-10-29T07:51:40Z</time>
      </trkpt>
      <trkpt lat="42.342612000" lon="-2.640249000">
        <ele>1064.80</ele>
        <time>2016-10-29T07:51:41Z</time>
      </trkpt>
      <trkpt lat="42.342600000" lon="-2.640248000">
        <ele>1064.90</ele>
        <time>2016-10-29T07:51:42Z</time>
      </trkpt>
      <trkpt lat="42.342587000" lon="-2.640249000">
        <ele>1064.90</ele>
        <time>2016-10-29T07:51:43Z</time>
      </trkpt>
      <trkpt lat="42.342575000" lon="-2.640247000">
        <ele>1064.90</ele>
        <time>2016-10-29T07:51:44Z</time>
      </trkpt>
      <trkpt lat="42.342559000" lon="-2.640251000">
        <ele>1065.00</ele>
        <time>2016-10-29T07:51:45Z</time>
      </trkpt>
      <trkpt lat="42.342542000" lon="-2.640255000">
        <ele>1065.20</ele>
        <time>2016-10-29T07:51:46Z</time>
      </trkpt>
      <trkpt lat="42.342528000" lon="-2.640251000">
        <ele>1065.40</ele>
        <time>2016-10-29T07:51:47Z</time>
      </trkpt>
      <trkpt lat="42.342514000" lon="-2.640242000">
        <ele>1065.60</ele>
        <time>2016-10-29T07:51:48Z</time>
      </trkpt>
      <trkpt lat="42.342500000" lon="-2.640236000">
        <ele>1065.80</ele>
        <time>2016-10-29T07:51:49Z</time>
      </trkpt>
      <trkpt lat="42.342490000" lon="-2.640237000">
        <ele>1066.00</ele>
        <time>2016-10-29T07:51:50Z</time>
      </trkpt>
      <trkpt lat="42.342478000" lon="-2.640231000">
        <ele>1066.10</ele>
        <time>2016-10-29T07:51:51Z</time>
      </trkpt>
      <trkpt lat="42.342465000" lon="-2.640228000">
        <ele>1066.10</ele>
        <time>2016-10-29T07:51:52Z</time>
      </trkpt>
      <trkpt lat="42.342436000" lon="-2.640227000">
        <ele>1066.10</ele>
        <time>2016-10-29T07:51:54Z</time>
      </trkpt>
      <trkpt lat="42.342420000" lon="-2.640226000">
        <ele>1066.10</ele>
        <time>2016-10-29T07:51:55Z</time>
      </trkpt>
      <trkpt lat="42.342408000" lon="-2.640223000">
        <ele>1066.30</ele>
        <time>2016-10-29T07:51:56Z</time>
      </trkpt>
      <trkpt lat="42.342392000" lon="-2.640217000">
        <ele>1066.40</ele>
        <time>2016-10-29T07:51:57Z</time>
      </trkpt>
      <trkpt lat="42.342378000" lon="-2.640217000">
        <ele>1066.50</ele>
        <time>2016-10-29T07:51:58Z</time>
      </trkpt>
      <trkpt lat="42.342363000" lon="-2.640220000">
        <ele>1066.60</ele>
        <time>2016-10-29T07:51:59Z</time>
      </trkpt>
      <trkpt lat="42.342344000" lon="-2.640213000">
        <ele>1066.70</ele>
        <time>2016-10-29T07:52:00Z</time>
      </trkpt>
      <trkpt lat="42.342328000" lon="-2.640213000">
        <ele>1066.80</ele>
        <time>2016-10-29T07:52:01Z</time>
      </trkpt>
      <trkpt lat="42.342316000" lon="-2.640219000">
        <ele>1067.00</ele>
        <time>2016-10-29T07:52:02Z</time>
      </trkpt>
      <trkpt lat="42.342300000" lon="-2.640216000">
        <ele>1067.10</ele>
        <time>2016-10-29T07:52:03Z</time>
      </trkpt>
      <trkpt lat="42.342288000" lon="-2.640213000">
        <ele>1067.30</ele>
        <time>2016-10-29T07:52:04Z</time>
      </trkpt>
      <trkpt lat="42.342276000" lon="-2.640207000">
        <ele>1067.40</ele>
        <time>2016-10-29T07:52:05Z</time>
      </trkpt>
      <trkpt lat="42.342263000" lon="-2.640205000">
        <ele>1067.50</ele>
        <time>2016-10-29T07:52:06Z</time>
      </trkpt>
      <trkpt lat="42.342251000" lon="-2.640205000">
        <ele>1067.60</ele>
        <time>2016-10-29T07:52:07Z</time>
      </trkpt>
      <trkpt lat="42.342237000" lon="-2.640200000">
        <ele>1067.70</ele>
        <time>2016-10-29T07:52:08Z</time>
      </trkpt>
      <trkpt lat="42.342225000" lon="-2.640195000">
        <ele>1067.80</ele>
        <time>2016-10-29T07:52:09Z</time>
      </trkpt>
      <trkpt lat="42.342215000" lon="-2.640196000">
        <ele>1068.10</ele>
        <time>2016-10-29T07:52:10Z</time>
      </trkpt>
      <trkpt lat="42.342201000" lon="-2.640191000">
        <ele>1068.30</ele>
        <time>2016-10-29T07:52:11Z</time>
      </trkpt>
      <trkpt lat="42.342188000" lon="-2.640183000">
        <ele>1068.50</ele>
        <time>2016-10-29T07:52:12Z</time>
      </trkpt>
      <trkpt lat="42.342175000" lon="-2.640184000">
        <ele>1068.60</ele>
        <time>2016-10-29T07:52:13Z</time>
      </trkpt>
      <trkpt lat="42.342162000" lon="-2.640182000">
        <ele>1068.70</ele>
        <time>2016-10-29T07:52:14Z</time>
      </trkpt>
      <trkpt lat="42.342147000" lon="-2.640186000">
        <ele>1068.80</ele>
        <time>2016-10-29T07:52:15Z</time>
      </trkpt>
      <trkpt lat="42.342134000" lon="-2.640195000">
        <ele>1069.00</ele>
        <time>2016-10-29T07:52:16Z</time>
      </trkpt>
      <trkpt lat="42.342119000" lon="-2.640197000">
        <ele>1069.00</ele>
        <time>2016-10-29T07:52:17Z</time>
      </trkpt>
      <trkpt lat="42.342106000" lon="-2.640199000">
        <ele>1069.10</ele>
        <time>2016-10-29T07:52:18Z</time>
      </trkpt>
      <trkpt lat="42.342088000" lon="-2.640195000">
        <ele>1069.20</ele>
        <time>2016-10-29T07:52:19Z</time>
      </trkpt>
      <trkpt lat="42.342072000" lon="-2.640192000">
        <ele>1069.20</ele>
        <time>2016-10-29T07:52:20Z</time>
      </trkpt>
      <trkpt lat="42.342060000" lon="-2.640189000">
        <ele>1069.20</ele>
        <time>2016-10-29T07:52:21Z</time>
      </trkpt>
      <trkpt lat="42.342047000" lon="-2.640188000">
        <ele>1069.30</ele>
        <time>2016-10-29T07:52:22Z</time>
      </trkpt>
      <trkpt lat="42.342034000" lon="-2.640182000">
        <ele>1069.40</ele>
        <time>2016-10-29T07:52:23Z</time>
      </trkpt>
      <trkpt lat="42.342017000" lon="-2.640176000">
        <ele>1069.70</ele>
        <time>2016-10-29T07:52:24Z</time>
      </trkpt>
      <trkpt lat="42.342002000" lon="-2.640175000">
        <ele>1069.90</ele>
        <time>2016-10-29T07:52:25Z</time>
      </trkpt>
      <trkpt lat="42.341988000" lon="-2.640171000">
        <ele>1070.10</ele>
        <time>2016-10-29T07:52:26Z</time>
      </trkpt>
      <trkpt lat="42.341973000" lon="-2.640166000">
        <ele>1070.20</ele>
        <time>2016-10-29T07:52:27Z</time>
      </trkpt>
      <trkpt lat="42.341960000" lon="-2.640167000">
        <ele>1070.40</ele>
        <time>2016-10-29T07:52:28Z</time>
      </trkpt>
      <trkpt lat="42.341947000" lon="-2.640170000">
        <ele>1070.50</ele>
        <time>2016-10-29T07:52:29Z</time>
      </trkpt>
      <trkpt lat="42.341932000" lon="-2.640171000">
        <ele>1070.70</ele>
        <time>2016-10-29T07:52:30Z</time>
      </trkpt>
      <trkpt lat="42.341919000" lon="-2.640168000">
        <ele>1070.80</ele>
        <time>2016-10-29T07:52:31Z</time>
      </trkpt>
      <trkpt lat="42.341905000" lon="-2.640164000">
        <ele>1071.00</ele>
        <time>2016-10-29T07:52:32Z</time>
      </trkpt>
      <trkpt lat="42.341889000" lon="-2.640161000">
        <ele>1071.00</ele>
        <time>2016-10-29T07:52:33Z</time>
      </trkpt>
      <trkpt lat="42.341876000" lon="-2.640157000">
        <ele>1071.10</ele>
        <time>2016-10-29T07:52:34Z</time>
      </trkpt>
      <trkpt lat="42.341862000" lon="-2.640154000">
        <ele>1071.20</ele>
        <time>2016-10-29T07:52:35Z</time>
      </trkpt>
      <trkpt lat="42.341849000" lon="-2.640152000">
        <ele>1071.20</ele>
        <time>2016-10-29T07:52:36Z</time>
      </trkpt>
      <trkpt lat="42.341835000" lon="-2.640152000">
        <ele>1071.30</ele>
        <time>2016-10-29T07:52:37Z</time>
      </trkpt>
      <trkpt lat="42.341822000" lon="-2.640149000">
        <ele>1071.30</ele>
        <time>2016-10-29T07:52:38Z</time>
      </trkpt>
      <trkpt lat="42.341807000" lon="-2.640150000">
        <ele>1071.30</ele>
        <time>2016-10-29T07:52:39Z</time>
      </trkpt>
      <trkpt lat="42.341793000" lon="-2.640148000">
        <ele>1071.50</ele>
        <time>2016-10-29T07:52:40Z</time>
      </trkpt>
      <trkpt lat="42.341777000" lon="-2.640146000">
        <ele>1071.60</ele>
        <time>2016-10-29T07:52:41Z</time>
      </trkpt>
      <trkpt lat="42.341763000" lon="-2.640143000">
        <ele>1071.70</ele>
        <time>2016-10-29T07:52:42Z</time>
      </trkpt>
      <trkpt lat="42.341747000" lon="-2.640145000">
        <ele>1071.80</ele>
        <time>2016-10-29T07:52:43Z</time>
      </trkpt>
      <trkpt lat="42.341730000" lon="-2.640144000">
        <ele>1071.90</ele>
        <time>2016-10-29T07:52:44Z</time>
      </trkpt>
      <trkpt lat="42.341713000" lon="-2.640140000">
        <ele>1072.00</ele>
        <time>2016-10-29T07:52:45Z</time>
      </trkpt>
      <trkpt lat="42.341700000" lon="-2.640136000">
        <ele>1072.10</ele>
        <time>2016-10-29T07:52:46Z</time>
      </trkpt>
      <trkpt lat="42.341686000" lon="-2.640137000">
        <ele>1072.10</ele>
        <time>2016-10-29T07:52:47Z</time>
      </trkpt>
      <trkpt lat="42.341674000" lon="-2.640128000">
        <ele>1072.20</ele>
        <time>2016-10-29T07:52:48Z</time>
      </trkpt>
      <trkpt lat="42.341660000" lon="-2.640121000">
        <ele>1072.20</ele>
        <time>2016-10-29T07:52:49Z</time>
      </trkpt>
      <trkpt lat="42.341649000" lon="-2.640117000">
        <ele>1072.40</ele>
        <time>2016-10-29T07:52:50Z</time>
      </trkpt>
      <trkpt lat="42.341639000" lon="-2.640108000">
        <ele>1072.50</ele>
        <time>2016-10-29T07:52:51Z</time>
      </trkpt>
      <trkpt lat="42.341626000" lon="-2.640091000">
        <ele>1072.70</ele>
        <time>2016-10-29T07:52:52Z</time>
      </trkpt>
      <trkpt lat="42.341616000" lon="-2.640075000">
        <ele>1072.90</ele>
        <time>2016-10-29T07:52:53Z</time>
      </trkpt>
      <trkpt lat="42.341604000" lon="-2.640057000">
        <ele>1073.30</ele>
        <time>2016-10-29T07:52:54Z</time>
      </trkpt>
      <trkpt lat="42.341589000" lon="-2.640024000">
        <ele>1073.80</ele>
        <time>2016-10-29T07:52:56Z</time>
      </trkpt>
      <trkpt lat="42.341584000" lon="-2.640007000">
        <ele>1074.00</ele>
        <time>2016-10-29T07:52:57Z</time>
      </trkpt>
      <trkpt lat="42.341581000" lon="-2.639989000">
        <ele>1074.30</ele>
        <time>2016-10-29T07:52:58Z</time>
      </trkpt>
      <trkpt lat="42.341573000" lon="-2.639970000">
        <ele>1074.40</ele>
        <time>2016-10-29T07:52:59Z</time>
      </trkpt>
      <trkpt lat="42.341568000" lon="-2.639954000">
        <ele>1074.60</ele>
        <time>2016-10-29T07:53:00Z</time>
      </trkpt>
      <trkpt lat="42.341566000" lon="-2.639933000">
        <ele>1074.70</ele>
        <time>2016-10-29T07:53:01Z</time>
      </trkpt>
      <trkpt lat="42.341562000" lon="-2.639915000">
        <ele>1074.80</ele>
        <time>2016-10-29T07:53:02Z</time>
      </trkpt>
      <trkpt lat="42.341562000" lon="-2.639898000">
        <ele>1075.00</ele>
        <time>2016-10-29T07:53:03Z</time>
      </trkpt>
      <trkpt lat="42.341559000" lon="-2.639885000">
        <ele>1075.20</ele>
        <time>2016-10-29T07:53:04Z</time>
      </trkpt>
      <trkpt lat="42.341555000" lon="-2.639872000">
        <ele>1075.40</ele>
        <time>2016-10-29T07:53:05Z</time>
      </trkpt>
      <trkpt lat="42.341553000" lon="-2.639858000">
        <ele>1075.70</ele>
        <time>2016-10-29T07:53:06Z</time>
      </trkpt>
      <trkpt lat="42.341553000" lon="-2.639842000">
        <ele>1076.00</ele>
        <time>2016-10-29T07:53:07Z</time>
      </trkpt>
      <trkpt lat="42.341550000" lon="-2.639822000">
        <ele>1076.20</ele>
        <time>2016-10-29T07:53:08Z</time>
      </trkpt>
      <trkpt lat="42.341550000" lon="-2.639803000">
        <ele>1076.30</ele>
        <time>2016-10-29T07:53:09Z</time>
      </trkpt>
      <trkpt lat="42.341546000" lon="-2.639788000">
        <ele>1076.50</ele>
        <time>2016-10-29T07:53:10Z</time>
      </trkpt>
      <trkpt lat="42.341538000" lon="-2.639771000">
        <ele>1076.60</ele>
        <time>2016-10-29T07:53:11Z</time>
      </trkpt>
      <trkpt lat="42.341536000" lon="-2.639752000">
        <ele>1076.70</ele>
        <time>2016-10-29T07:53:12Z</time>
      </trkpt>
      <trkpt lat="42.341538000" lon="-2.639730000">
        <ele>1076.80</ele>
        <time>2016-10-29T07:53:13Z</time>
      </trkpt>
      <trkpt lat="42.341538000" lon="-2.639713000">
        <ele>1077.00</ele>
        <time>2016-10-29T07:53:14Z</time>
      </trkpt>
      <trkpt lat="42.341540000" lon="-2.639691000">
        <ele>1077.20</ele>
        <time>2016-10-29T07:53:15Z</time>
      </trkpt>
      <trkpt lat="42.341540000" lon="-2.639671000">
        <ele>1077.30</ele>
        <time>2016-10-29T07:53:16Z</time>
      </trkpt>
      <trkpt lat="42.341536000" lon="-2.639649000">
        <ele>1077.40</ele>
        <time>2016-10-29T07:53:17Z</time>
      </trkpt>
      <trkpt lat="42.341533000" lon="-2.639631000">
        <ele>1077.50</ele>
        <time>2016-10-29T07:53:18Z</time>
      </trkpt>
      <trkpt lat="42.341531000" lon="-2.639616000">
        <ele>1077.60</ele>
        <time>2016-10-29T07:53:19Z</time>
      </trkpt>
      <trkpt lat="42.341529000" lon="-2.639598000">
        <ele>1077.80</ele>
        <time>2016-10-29T07:53:20Z</time>
      </trkpt>
      <trkpt lat="42.341528000" lon="-2.639580000">
        <ele>1078.00</ele>
        <time>2016-10-29T07:53:21Z</time>
      </trkpt>
      <trkpt lat="42.341527000" lon="-2.639563000">
        <ele>1078.10</ele>
        <time>2016-10-29T07:53:22Z</time>
      </trkpt>
      <trkpt lat="42.341525000" lon="-2.639548000">
        <ele>1078.20</ele>
        <time>2016-10-29T07:53:23Z</time>
      </trkpt>
      <trkpt lat="42.341527000" lon="-2.639531000">
        <ele>1078.60</ele>
        <time>2016-10-29T07:53:24Z</time>
      </trkpt>
      <trkpt lat="42.341527000" lon="-2.639512000">
        <ele>1078.80</ele>
        <time>2016-10-29T07:53:25Z</time>
      </trkpt>
      <trkpt lat="42.341526000" lon="-2.639490000">
        <ele>1079.10</ele>
        <time>2016-10-29T07:53:26Z</time>
      </trkpt>
      <trkpt lat="42.341528000" lon="-2.639474000">
        <ele>1079.30</ele>
        <time>2016-10-29T07:53:27Z</time>
      </trkpt>
      <trkpt lat="42.341524000" lon="-2.639454000">
        <ele>1079.40</ele>
        <time>2016-10-29T07:53:28Z</time>
      </trkpt>
      <trkpt lat="42.341523000" lon="-2.639434000">
        <ele>1079.50</ele>
        <time>2016-10-29T07:53:29Z</time>
      </trkpt>
      <trkpt lat="42.341517000" lon="-2.639419000">
        <ele>1079.70</ele>
        <time>2016-10-29T07:53:30Z</time>
      </trkpt>
      <trkpt lat="42.341517000" lon="-2.639401000">
        <ele>1079.80</ele>
        <time>2016-10-29T07:53:31Z</time>
      </trkpt>
      <trkpt lat="42.341519000" lon="-2.639383000">
        <ele>1079.90</ele>
        <time>2016-10-29T07:53:32Z</time>
      </trkpt>
      <trkpt lat="42.341519000" lon="-2.639363000">
        <ele>1080.00</ele>
        <time>2016-10-29T07:53:33Z</time>
      </trkpt>
      <trkpt lat="42.341519000" lon="-2.639346000">
        <ele>1080.10</ele>
        <time>2016-10-29T07:53:34Z</time>
      </trkpt>
      <trkpt lat="42.341521000" lon="-2.639328000">
        <ele>1080.20</ele>
        <time>2016-10-29T07:53:35Z</time>
      </trkpt>
      <trkpt lat="42.341522000" lon="-2.639311000">
        <ele>1080.40</ele>
        <time>2016-10-29T07:53:36Z</time>
      </trkpt>
      <trkpt lat="42.341524000" lon="-2.639292000">
        <ele>1080.60</ele>
        <time>2016-10-29T07:53:37Z</time>
      </trkpt>
      <trkpt lat="42.341524000" lon="-2.639274000">
        <ele>1080.80</ele>
        <time>2016-10-29T07:53:38Z</time>
      </trkpt>
      <trkpt lat="42.341526000" lon="-2.639256000">
        <ele>1080.90</ele>
        <time>2016-10-29T07:53:39Z</time>
      </trkpt>
      <trkpt lat="42.341526000" lon="-2.639240000">
        <ele>1081.30</ele>
        <time>2016-10-29T07:53:40Z</time>
      </trkpt>
      <trkpt lat="42.341529000" lon="-2.639225000">
        <ele>1081.50</ele>
        <time>2016-10-29T07:53:41Z</time>
      </trkpt>
      <trkpt lat="42.341532000" lon="-2.639205000">
        <ele>1081.70</ele>
        <time>2016-10-29T07:53:42Z</time>
      </trkpt>
      <trkpt lat="42.341530000" lon="-2.639187000">
        <ele>1081.90</ele>
        <time>2016-10-29T07:53:43Z</time>
      </trkpt>
      <trkpt lat="42.341528000" lon="-2.639171000">
        <ele>1082.00</ele>
        <time>2016-10-29T07:53:44Z</time>
      </trkpt>
      <trkpt lat="42.341528000" lon="-2.639156000">
        <ele>1082.10</ele>
        <time>2016-10-29T07:53:45Z</time>
      </trkpt>
      <trkpt lat="42.341528000" lon="-2.639138000">
        <ele>1082.20</ele>
        <time>2016-10-29T07:53:46Z</time>
      </trkpt>
      <trkpt lat="42.341528000" lon="-2.639123000">
        <ele>1082.30</ele>
        <time>2016-10-29T07:53:47Z</time>
      </trkpt>
      <trkpt lat="42.341527000" lon="-2.639107000">
        <ele>1082.40</ele>
        <time>2016-10-29T07:53:48Z</time>
      </trkpt>
      <trkpt lat="42.341528000" lon="-2.639088000">
        <ele>1082.40</ele>
        <time>2016-10-29T07:53:49Z</time>
      </trkpt>
      <trkpt lat="42.341531000" lon="-2.639074000">
        <ele>1082.60</ele>
        <time>2016-10-29T07:53:50Z</time>
      </trkpt>
      <trkpt lat="42.341533000" lon="-2.639053000">
        <ele>1082.70</ele>
        <time>2016-10-29T07:53:51Z</time>
      </trkpt>
      <trkpt lat="42.341534000" lon="-2.639036000">
        <ele>1083.10</ele>
        <time>2016-10-29T07:53:52Z</time>
      </trkpt>
      <trkpt lat="42.341540000" lon="-2.639018000">
        <ele>1083.40</ele>
        <time>2016-10-29T07:53:53Z</time>
      </trkpt>
      <trkpt lat="42.341543000" lon="-2.639003000">
        <ele>1083.60</ele>
        <time>2016-10-29T07:53:54Z</time>
      </trkpt>
      <trkpt lat="42.341546000" lon="-2.638991000">
        <ele>1083.80</ele>
        <time>2016-10-29T07:53:55Z</time>
      </trkpt>
      <trkpt lat="42.341550000" lon="-2.638980000">
        <ele>1084.00</ele>
        <time>2016-10-29T07:53:56Z</time>
      </trkpt>
      <trkpt lat="42.341551000" lon="-2.638947000">
        <ele>1084.30</ele>
        <time>2016-10-29T07:53:58Z</time>
      </trkpt>
      <trkpt lat="42.341552000" lon="-2.638932000">
        <ele>1084.40</ele>
        <time>2016-10-29T07:53:59Z</time>
      </trkpt>
      <trkpt lat="42.341554000" lon="-2.638915000">
        <ele>1084.70</ele>
        <time>2016-10-29T07:54:00Z</time>
      </trkpt>
      <trkpt lat="42.341558000" lon="-2.638894000">
        <ele>1084.90</ele>
        <time>2016-10-29T07:54:01Z</time>
      </trkpt>
      <trkpt lat="42.341557000" lon="-2.638880000">
        <ele>1085.10</ele>
        <time>2016-10-29T07:54:02Z</time>
      </trkpt>
      <trkpt lat="42.341558000" lon="-2.638863000">
        <ele>1085.30</ele>
        <time>2016-10-29T07:54:03Z</time>
      </trkpt>
      <trkpt lat="42.341557000" lon="-2.638845000">
        <ele>1085.40</ele>
        <time>2016-10-29T07:54:04Z</time>
      </trkpt>
      <trkpt lat="42.341560000" lon="-2.638828000">
        <ele>1085.50</ele>
        <time>2016-10-29T07:54:05Z</time>
      </trkpt>
      <trkpt lat="42.341561000" lon="-2.638811000">
        <ele>1085.80</ele>
        <time>2016-10-29T07:54:06Z</time>
      </trkpt>
      <trkpt lat="42.341558000" lon="-2.638795000">
        <ele>1086.10</ele>
        <time>2016-10-29T07:54:07Z</time>
      </trkpt>
      <trkpt lat="42.341558000" lon="-2.638777000">
        <ele>1086.40</ele>
        <time>2016-10-29T07:54:08Z</time>
      </trkpt>
      <trkpt lat="42.341558000" lon="-2.638764000">
        <ele>1086.60</ele>
        <time>2016-10-29T07:54:09Z</time>
      </trkpt>
      <trkpt lat="42.341558000" lon="-2.638749000">
        <ele>1086.80</ele>
        <time>2016-10-29T07:54:10Z</time>
      </trkpt>
      <trkpt lat="42.341559000" lon="-2.638732000">
        <ele>1086.90</ele>
        <time>2016-10-29T07:54:11Z</time>
      </trkpt>
      <trkpt lat="42.341557000" lon="-2.638719000">
        <ele>1087.10</ele>
        <time>2016-10-29T07:54:12Z</time>
      </trkpt>
      <trkpt lat="42.341556000" lon="-2.638703000">
        <ele>1087.20</ele>
        <time>2016-10-29T07:54:13Z</time>
      </trkpt>
      <trkpt lat="42.341559000" lon="-2.638688000">
        <ele>1087.40</ele>
        <time>2016-10-29T07:54:14Z</time>
      </trkpt>
      <trkpt lat="42.341557000" lon="-2.638673000">
        <ele>1087.60</ele>
        <time>2016-10-29T07:54:15Z</time>
      </trkpt>
      <trkpt lat="42.341558000" lon="-2.638658000">
        <ele>1087.60</ele>
        <time>2016-10-29T07:54:16Z</time>
      </trkpt>
      <trkpt lat="42.341555000" lon="-2.638646000">
        <ele>1087.60</ele>
        <time>2016-10-29T07:54:17Z</time>
      </trkpt>
      <trkpt lat="42.341553000" lon="-2.638629000">
        <ele>1087.80</ele>
        <time>2016-10-29T07:54:18Z</time>
      </trkpt>
      <trkpt lat="42.341551000" lon="-2.638617000">
        <ele>1088.00</ele>
        <time>2016-10-29T07:54:19Z</time>
      </trkpt>
      <trkpt lat="42.341552000" lon="-2.638599000">
        <ele>1088.20</ele>
        <time>2016-10-29T07:54:20Z</time>
      </trkpt>
      <trkpt lat="42.341550000" lon="-2.638581000">
        <ele>1088.40</ele>
        <time>2016-10-29T07:54:21Z</time>
      </trkpt>
      <trkpt lat="42.341547000" lon="-2.638561000">
        <ele>1088.50</ele>
        <time>2016-10-29T07:54:22Z</time>
      </trkpt>
      <trkpt lat="42.341545000" lon="-2.638545000">
        <ele>1088.60</ele>
        <time>2016-10-29T07:54:23Z</time>
      </trkpt>
      <trkpt lat="42.341545000" lon="-2.638527000">
        <ele>1088.90</ele>
        <time>2016-10-29T07:54:24Z</time>
      </trkpt>
      <trkpt lat="42.341544000" lon="-2.638514000">
        <ele>1089.10</ele>
        <time>2016-10-29T07:54:25Z</time>
      </trkpt>
      <trkpt lat="42.341547000" lon="-2.638501000">
        <ele>1089.50</ele>
        <time>2016-10-29T07:54:26Z</time>
      </trkpt>
      <trkpt lat="42.341542000" lon="-2.638490000">
        <ele>1089.80</ele>
        <time>2016-10-29T07:54:27Z</time>
      </trkpt>
      <trkpt lat="42.341539000" lon="-2.638475000">
        <ele>1090.00</ele>
        <time>2016-10-29T07:54:28Z</time>
      </trkpt>
      <trkpt lat="42.341535000" lon="-2.638462000">
        <ele>1090.10</ele>
        <time>2016-10-29T07:54:29Z</time>
      </trkpt>
      <trkpt lat="42.341531000" lon="-2.638447000">
        <ele>1090.30</ele>
        <time>2016-10-29T07:54:30Z</time>
      </trkpt>
      <trkpt lat="42.341530000" lon="-2.638433000">
        <ele>1090.30</ele>
        <time>2016-10-29T07:54:31Z</time>
      </trkpt>
      <trkpt lat="42.341531000" lon="-2.638416000">
        <ele>1090.30</ele>
        <time>2016-10-29T07:54:32Z</time>
      </trkpt>
      <trkpt lat="42.341529000" lon="-2.638399000">
        <ele>1090.20</ele>
        <time>2016-10-29T07:54:33Z</time>
      </trkpt>
      <trkpt lat="42.341530000" lon="-2.638381000">
        <ele>1090.20</ele>
        <time>2016-10-29T07:54:34Z</time>
      </trkpt>
      <trkpt lat="42.341527000" lon="-2.638369000">
        <ele>1090.10</ele>
        <time>2016-10-29T07:54:35Z</time>
      </trkpt>
      <trkpt lat="42.341530000" lon="-2.638352000">
        <ele>1090.30</ele>
        <time>2016-10-29T07:54:36Z</time>
      </trkpt>
      <trkpt lat="42.341532000" lon="-2.638336000">
        <ele>1090.50</ele>
        <time>2016-10-29T07:54:37Z</time>
      </trkpt>
      <trkpt lat="42.341533000" lon="-2.638321000">
        <ele>1090.60</ele>
        <time>2016-10-29T07:54:38Z</time>
      </trkpt>
      <trkpt lat="42.341532000" lon="-2.638307000">
        <ele>1090.80</ele>
        <time>2016-10-29T07:54:39Z</time>
      </trkpt>
      <trkpt lat="42.341532000" lon="-2.638292000">
        <ele>1090.90</ele>
        <time>2016-10-29T07:54:40Z</time>
      </trkpt>
      <trkpt lat="42.341533000" lon="-2.638278000">
        <ele>1090.90</ele>
        <time>2016-10-29T07:54:41Z</time>
      </trkpt>
      <trkpt lat="42.341536000" lon="-2.638262000">
        <ele>1091.00</ele>
        <time>2016-10-29T07:54:42Z</time>
      </trkpt>
      <trkpt lat="42.341539000" lon="-2.638243000">
        <ele>1091.00</ele>
        <time>2016-10-29T07:54:43Z</time>
      </trkpt>
      <trkpt lat="42.341543000" lon="-2.638228000">
        <ele>1091.30</ele>
        <time>2016-10-29T07:54:44Z</time>
      </trkpt>
      <trkpt lat="42.341539000" lon="-2.638213000">
        <ele>1091.40</ele>
        <time>2016-10-29T07:54:45Z</time>
      </trkpt>
      <trkpt lat="42.341538000" lon="-2.638196000">
        <ele>1091.60</ele>
        <time>2016-10-29T07:54:46Z</time>
      </trkpt>
      <trkpt lat="42.341537000" lon="-2.638182000">
        <ele>1091.80</ele>
        <time>2016-10-29T07:54:47Z</time>
      </trkpt>
      <trkpt lat="42.341535000" lon="-2.638171000">
        <ele>1092.00</ele>
        <time>2016-10-29T07:54:48Z</time>
      </trkpt>
      <trkpt lat="42.341536000" lon="-2.638154000">
        <ele>1092.10</ele>
        <time>2016-10-29T07:54:49Z</time>
      </trkpt>
      <trkpt lat="42.341537000" lon="-2.638140000">
        <ele>1092.30</ele>
        <time>2016-10-29T07:54:50Z</time>
      </trkpt>
      <trkpt lat="42.341534000" lon="-2.638128000">
        <ele>1092.40</ele>
        <time>2016-10-29T07:54:51Z</time>
      </trkpt>
      <trkpt lat="42.341536000" lon="-2.638112000">
        <ele>1092.50</ele>
        <time>2016-10-29T07:54:52Z</time>
      </trkpt>
      <trkpt lat="42.341535000" lon="-2.638095000">
        <ele>1092.60</ele>
        <time>2016-10-29T07:54:53Z</time>
      </trkpt>
      <trkpt lat="42.341538000" lon="-2.638079000">
        <ele>1092.80</ele>
        <time>2016-10-29T07:54:54Z</time>
      </trkpt>
      <trkpt lat="42.341540000" lon="-2.638064000">
        <ele>1092.90</ele>
        <time>2016-10-29T07:54:55Z</time>
      </trkpt>
      <trkpt lat="42.341541000" lon="-2.638050000">
        <ele>1093.10</ele>
        <time>2016-10-29T07:54:56Z</time>
      </trkpt>
      <trkpt lat="42.341543000" lon="-2.638035000">
        <ele>1093.30</ele>
        <time>2016-10-29T07:54:57Z</time>
      </trkpt>
      <trkpt lat="42.341547000" lon="-2.638021000">
        <ele>1093.50</ele>
        <time>2016-10-29T07:54:58Z</time>
      </trkpt>
      <trkpt lat="42.341551000" lon="-2.637988000">
        <ele>1093.80</ele>
        <time>2016-10-29T07:55:00Z</time>
      </trkpt>
      <trkpt lat="42.341552000" lon="-2.637975000">
        <ele>1093.90</ele>
        <time>2016-10-29T07:55:01Z</time>
      </trkpt>
      <trkpt lat="42.341553000" lon="-2.637962000">
        <ele>1094.00</ele>
        <time>2016-10-29T07:55:02Z</time>
      </trkpt>
      <trkpt lat="42.341559000" lon="-2.637948000">
        <ele>1094.20</ele>
        <time>2016-10-29T07:55:03Z</time>
      </trkpt>
      <trkpt lat="42.341567000" lon="-2.637936000">
        <ele>1094.20</ele>
        <time>2016-10-29T07:55:04Z</time>
      </trkpt>
      <trkpt lat="42.341571000" lon="-2.637922000">
        <ele>1094.30</ele>
        <time>2016-10-29T07:55:05Z</time>
      </trkpt>
      <trkpt lat="42.341575000" lon="-2.637905000">
        <ele>1094.40</ele>
        <time>2016-10-29T07:55:06Z</time>
      </trkpt>
      <trkpt lat="42.341579000" lon="-2.637896000">
        <ele>1094.40</ele>
        <time>2016-10-29T07:55:07Z</time>
      </trkpt>
      <trkpt lat="42.341582000" lon="-2.637887000">
        <ele>1094.40</ele>
        <time>2016-10-29T07:55:08Z</time>
      </trkpt>
      <trkpt lat="42.341581000" lon="-2.637877000">
        <ele>1094.40</ele>
        <time>2016-10-29T07:55:09Z</time>
      </trkpt>
      <trkpt lat="42.341584000" lon="-2.637863000">
        <ele>1094.50</ele>
        <time>2016-10-29T07:55:10Z</time>
      </trkpt>
      <trkpt lat="42.341582000" lon="-2.637853000">
        <ele>1094.50</ele>
        <time>2016-10-29T07:55:11Z</time>
      </trkpt>
      <trkpt lat="42.341585000" lon="-2.637841000">
        <ele>1094.80</ele>
        <time>2016-10-29T07:55:12Z</time>
      </trkpt>
      <trkpt lat="42.341590000" lon="-2.637827000">
        <ele>1095.00</ele>
        <time>2016-10-29T07:55:13Z</time>
      </trkpt>
      <trkpt lat="42.341590000" lon="-2.637817000">
        <ele>1095.20</ele>
        <time>2016-10-29T07:55:14Z</time>
      </trkpt>
      <trkpt lat="42.341592000" lon="-2.637803000">
        <ele>1095.40</ele>
        <time>2016-10-29T07:55:15Z</time>
      </trkpt>
      <trkpt lat="42.341596000" lon="-2.637791000">
        <ele>1095.50</ele>
        <time>2016-10-29T07:55:16Z</time>
      </trkpt>
      <trkpt lat="42.341599000" lon="-2.637778000">
        <ele>1095.60</ele>
        <time>2016-10-29T07:55:17Z</time>
      </trkpt>
      <trkpt lat="42.341599000" lon="-2.637762000">
        <ele>1095.70</ele>
        <time>2016-10-29T07:55:18Z</time>
      </trkpt>
      <trkpt lat="42.341599000" lon="-2.637745000">
        <ele>1095.70</ele>
        <time>2016-10-29T07:55:19Z</time>
      </trkpt>
      <trkpt lat="42.341605000" lon="-2.637726000">
        <ele>1095.70</ele>
        <time>2016-10-29T07:55:20Z</time>
      </trkpt>
      <trkpt lat="42.341607000" lon="-2.637708000">
        <ele>1095.70</ele>
        <time>2016-10-29T07:55:21Z</time>
      </trkpt>
      <trkpt lat="42.341604000" lon="-2.637686000">
        <ele>1095.80</ele>
        <time>2016-10-29T07:55:22Z</time>
      </trkpt>
      <trkpt lat="42.341606000" lon="-2.637673000">
        <ele>1095.80</ele>
        <time>2016-10-29T07:55:23Z</time>
      </trkpt>
      <trkpt lat="42.341611000" lon="-2.637657000">
        <ele>1095.90</ele>
        <time>2016-10-29T07:55:24Z</time>
      </trkpt>
      <trkpt lat="42.341617000" lon="-2.637639000">
        <ele>1096.10</ele>
        <time>2016-10-29T07:55:25Z</time>
      </trkpt>
      <trkpt lat="42.341625000" lon="-2.637623000">
        <ele>1096.20</ele>
        <time>2016-10-29T07:55:26Z</time>
      </trkpt>
      <trkpt lat="42.341628000" lon="-2.637603000">
        <ele>1096.20</ele>
        <time>2016-10-29T07:55:27Z</time>
      </trkpt>
      <trkpt lat="42.341630000" lon="-2.637580000">
        <ele>1096.10</ele>
        <time>2016-10-29T07:55:28Z</time>
      </trkpt>
      <trkpt lat="42.341633000" lon="-2.637556000">
        <ele>1096.00</ele>
        <time>2016-10-29T07:55:29Z</time>
      </trkpt>
      <trkpt lat="42.341639000" lon="-2.637532000">
        <ele>1095.80</ele>
        <time>2016-10-29T07:55:30Z</time>
      </trkpt>
      <trkpt lat="42.341646000" lon="-2.637504000">
        <ele>1095.60</ele>
        <time>2016-10-29T07:55:31Z</time>
      </trkpt>
      <trkpt lat="42.341651000" lon="-2.637476000">
        <ele>1095.50</ele>
        <time>2016-10-29T07:55:32Z</time>
      </trkpt>
      <trkpt lat="42.341657000" lon="-2.637462000">
        <ele>1095.40</ele>
        <time>2016-10-29T07:55:33Z</time>
      </trkpt>
      <trkpt lat="42.341665000" lon="-2.637442000">
        <ele>1095.50</ele>
        <time>2016-10-29T07:55:34Z</time>
      </trkpt>
      <trkpt lat="42.341673000" lon="-2.637427000">
        <ele>1095.50</ele>
        <time>2016-10-29T07:55:35Z</time>
      </trkpt>
      <trkpt lat="42.341681000" lon="-2.637412000">
        <ele>1095.60</ele>
        <time>2016-10-29T07:55:36Z</time>
      </trkpt>
      <trkpt lat="42.341690000" lon="-2.637389000">
        <ele>1095.60</ele>
        <time>2016-10-29T07:55:37Z</time>
      </trkpt>
      <trkpt lat="42.341697000" lon="-2.637371000">
        <ele>1095.60</ele>
        <time>2016-10-29T07:55:38Z</time>
      </trkpt>
      <trkpt lat="42.341698000" lon="-2.637359000">
        <ele>1095.60</ele>
        <time>2016-10-29T07:55:39Z</time>
      </trkpt>
      <trkpt lat="42.341701000" lon="-2.637346000">
        <ele>1095.70</ele>
        <time>2016-10-29T07:55:40Z</time>
      </trkpt>
      <trkpt lat="42.341707000" lon="-2.637336000">
        <ele>1095.70</ele>
        <time>2016-10-29T07:55:41Z</time>
      </trkpt>
      <trkpt lat="42.341713000" lon="-2.637325000">
        <ele>1096.00</ele>
        <time>2016-10-29T07:55:42Z</time>
      </trkpt>
      <trkpt lat="42.341717000" lon="-2.637316000">
        <ele>1096.30</ele>
        <time>2016-10-29T07:55:43Z</time>
      </trkpt>
      <trkpt lat="42.341722000" lon="-2.637303000">
        <ele>1096.50</ele>
        <time>2016-10-29T07:55:44Z</time>
      </trkpt>
      <trkpt lat="42.341730000" lon="-2.637296000">
        <ele>1096.70</ele>
        <time>2016-10-29T07:55:45Z</time>
      </trkpt>
      <trkpt lat="42.341733000" lon="-2.637280000">
        <ele>1096.80</ele>
        <time>2016-10-29T07:55:46Z</time>
      </trkpt>
      <trkpt lat="42.341738000" lon="-2.637267000">
        <ele>1096.90</ele>
        <time>2016-10-29T07:55:47Z</time>
      </trkpt>
      <trkpt lat="42.341743000" lon="-2.637260000">
        <ele>1097.00</ele>
        <time>2016-10-29T07:55:48Z</time>
      </trkpt>
      <trkpt lat="42.341749000" lon="-2.637250000">
        <ele>1097.00</ele>
        <time>2016-10-29T07:55:49Z</time>
      </trkpt>
      <trkpt lat="42.341752000" lon="-2.637242000">
        <ele>1097.20</ele>
        <time>2016-10-29T07:55:50Z</time>
      </trkpt>
      <trkpt lat="42.341755000" lon="-2.637228000">
        <ele>1097.30</ele>
        <time>2016-10-29T07:55:51Z</time>
      </trkpt>
      <trkpt lat="42.341758000" lon="-2.637217000">
        <ele>1097.50</ele>
        <time>2016-10-29T07:55:52Z</time>
      </trkpt>
      <trkpt lat="42.341761000" lon="-2.637207000">
        <ele>1097.70</ele>
        <time>2016-10-29T07:55:53Z</time>
      </trkpt>
      <trkpt lat="42.341767000" lon="-2.637194000">
        <ele>1097.80</ele>
        <time>2016-10-29T07:55:54Z</time>
      </trkpt>
      <trkpt lat="42.341769000" lon="-2.637177000">
        <ele>1098.00</ele>
        <time>2016-10-29T07:55:55Z</time>
      </trkpt>
      <trkpt lat="42.341776000" lon="-2.637161000">
        <ele>1098.10</ele>
        <time>2016-10-29T07:55:56Z</time>
      </trkpt>
      <trkpt lat="42.341786000" lon="-2.637150000">
        <ele>1098.20</ele>
        <time>2016-10-29T07:55:57Z</time>
      </trkpt>
      <trkpt lat="42.341790000" lon="-2.637130000">
        <ele>1098.20</ele>
        <time>2016-10-29T07:55:58Z</time>
      </trkpt>
      <trkpt lat="42.341795000" lon="-2.637106000">
        <ele>1098.30</ele>
        <time>2016-10-29T07:55:59Z</time>
      </trkpt>
      <trkpt lat="42.341805000" lon="-2.637090000">
        <ele>1098.30</ele>
        <time>2016-10-29T07:56:00Z</time>
      </trkpt>
      <trkpt lat="42.341827000" lon="-2.637064000">
        <ele>1098.40</ele>
        <time>2016-10-29T07:56:02Z</time>
      </trkpt>
      <trkpt lat="42.341838000" lon="-2.637054000">
        <ele>1098.40</ele>
        <time>2016-10-29T07:56:03Z</time>
      </trkpt>
      <trkpt lat="42.341848000" lon="-2.637047000">
        <ele>1098.30</ele>
        <time>2016-10-29T07:56:04Z</time>
      </trkpt>
      <trkpt lat="42.341857000" lon="-2.637032000">
        <ele>1098.30</ele>
        <time>2016-10-29T07:56:05Z</time>
      </trkpt>
      <trkpt lat="42.341865000" lon="-2.637015000">
        <ele>1098.30</ele>
        <time>2016-10-29T07:56:06Z</time>
      </trkpt>
      <trkpt lat="42.341875000" lon="-2.637000000">
        <ele>1098.30</ele>
        <time>2016-10-29T07:56:07Z</time>
      </trkpt>
      <trkpt lat="42.341880000" lon="-2.636996000">
        <ele>1098.20</ele>
        <time>2016-10-29T07:56:08Z</time>
      </trkpt>
      <trkpt lat="42.341884000" lon="-2.636993000">
        <ele>1098.10</ele>
        <time>2016-10-29T07:56:09Z</time>
      </trkpt>
      <trkpt lat="42.341888000" lon="-2.636988000">
        <ele>1098.10</ele>
        <time>2016-10-29T07:56:10Z</time>
      </trkpt>
      <trkpt lat="42.341892000" lon="-2.636984000">
        <ele>1098.10</ele>
        <time>2016-10-29T07:56:11Z</time>
      </trkpt>
      <trkpt lat="42.341891000" lon="-2.636979000">
        <ele>1098.00</ele>
        <time>2016-10-29T07:56:12Z</time>
      </trkpt>
      <trkpt lat="42.341894000" lon="-2.636978000">
        <ele>1098.00</ele>
        <time>2016-10-29T07:56:13Z</time>
      </trkpt>
      <trkpt lat="42.341897000" lon="-2.636981000">
        <ele>1097.90</ele>
        <time>2016-10-29T07:56:14Z</time>
      </trkpt>
      <trkpt lat="42.341897000" lon="-2.636990000">
        <ele>1097.90</ele>
        <time>2016-10-29T07:56:15Z</time>
      </trkpt>
      <trkpt lat="42.341901000" lon="-2.636996000">
        <ele>1097.80</ele>
        <time>2016-10-29T07:56:16Z</time>
      </trkpt>
      <trkpt lat="42.341903000" lon="-2.637001000">
        <ele>1097.80</ele>
        <time>2016-10-29T07:56:17Z</time>
      </trkpt>
      <trkpt lat="42.341907000" lon="-2.637005000">
        <ele>1097.80</ele>
        <time>2016-10-29T07:56:18Z</time>
      </trkpt>
      <trkpt lat="42.341907000" lon="-2.637005000">
        <ele>1097.80</ele>
        <time>2016-10-29T07:56:19Z</time>
      </trkpt>
      <trkpt lat="42.341907000" lon="-2.637008000">
        <ele>1097.80</ele>
        <time>2016-10-29T07:56:20Z</time>
      </trkpt>
      <trkpt lat="42.341903000" lon="-2.637009000">
        <ele>1097.90</ele>
        <time>2016-10-29T07:56:21Z</time>
      </trkpt>
      <trkpt lat="42.341901000" lon="-2.637013000">
        <ele>1097.90</ele>
        <time>2016-10-29T07:56:22Z</time>
      </trkpt>
      <trkpt lat="42.341898000" lon="-2.637010000">
        <ele>1097.90</ele>
        <time>2016-10-29T07:56:23Z</time>
      </trkpt>
      <trkpt lat="42.341892000" lon="-2.637010000">
        <ele>1097.90</ele>
        <time>2016-10-29T07:56:24Z</time>
      </trkpt>
      <trkpt lat="42.341885000" lon="-2.637011000">
        <ele>1097.80</ele>
        <time>2016-10-29T07:56:25Z</time>
      </trkpt>
      <trkpt lat="42.341878000" lon="-2.637011000">
        <ele>1097.80</ele>
        <time>2016-10-29T07:56:26Z</time>
      </trkpt>
      <trkpt lat="42.341873000" lon="-2.637013000">
        <ele>1097.80</ele>
        <time>2016-10-29T07:56:27Z</time>
      </trkpt>
      <trkpt lat="42.341867000" lon="-2.637010000">
        <ele>1097.70</ele>
        <time>2016-10-29T07:56:28Z</time>
      </trkpt>
      <trkpt lat="42.341864000" lon="-2.637004000">
        <ele>1097.70</ele>
        <time>2016-10-29T07:56:29Z</time>
      </trkpt>
      <trkpt lat="42.341868000" lon="-2.636993000">
        <ele>1097.70</ele>
        <time>2016-10-29T07:56:30Z</time>
      </trkpt>
      <trkpt lat="42.341873000" lon="-2.636987000">
        <ele>1097.80</ele>
        <time>2016-10-29T07:56:31Z</time>
      </trkpt>
      <trkpt lat="42.341874000" lon="-2.636984000">
        <ele>1097.80</ele>
        <time>2016-10-29T07:56:32Z</time>
      </trkpt>
      <trkpt lat="42.341874000" lon="-2.636984000">
        <ele>1097.80</ele>
        <time>2016-10-29T07:56:33Z</time>
      </trkpt>
      <trkpt lat="42.341875000" lon="-2.636983000">
        <ele>1098.00</ele>
        <time>2016-10-29T07:56:34Z</time>
      </trkpt>
      <trkpt lat="42.341876000" lon="-2.636982000">
        <ele>1098.10</ele>
        <time>2016-10-29T07:56:35Z</time>
      </trkpt>
      <trkpt lat="42.341876000" lon="-2.636980000">
        <ele>1098.10</ele>
        <time>2016-10-29T07:56:36Z</time>
      </trkpt>
      <trkpt lat="42.341877000" lon="-2.636976000">
        <ele>1098.20</ele>
        <time>2016-10-29T07:56:37Z</time>
      </trkpt>
      <trkpt lat="42.341878000" lon="-2.636970000">
        <ele>1098.20</ele>
        <time>2016-10-29T07:56:38Z</time>
      </trkpt>
      <trkpt lat="42.341878000" lon="-2.636967000">
        <ele>1098.30</ele>
        <time>2016-10-29T07:56:39Z</time>
      </trkpt>
      <trkpt lat="42.341879000" lon="-2.636964000">
        <ele>1098.10</ele>
        <time>2016-10-29T07:56:40Z</time>
      </trkpt>
      <trkpt lat="42.341878000" lon="-2.636962000">
        <ele>1097.90</ele>
        <time>2016-10-29T07:56:41Z</time>
      </trkpt>
      <trkpt lat="42.341877000" lon="-2.636962000">
        <ele>1097.80</ele>
        <time>2016-10-29T07:56:42Z</time>
      </trkpt>
      <trkpt lat="42.341877000" lon="-2.636960000">
        <ele>1097.60</ele>
        <time>2016-10-29T07:56:43Z</time>
      </trkpt>
      <trkpt lat="42.341875000" lon="-2.636964000">
        <ele>1097.50</ele>
        <time>2016-10-29T07:56:44Z</time>
      </trkpt>
      <trkpt lat="42.341875000" lon="-2.636965000">
        <ele>1097.50</ele>
        <time>2016-10-29T07:56:45Z</time>
      </trkpt>
      <trkpt lat="42.341875000" lon="-2.636967000">
        <ele>1097.40</ele>
        <time>2016-10-29T07:56:46Z</time>
      </trkpt>
      <trkpt lat="42.341871000" lon="-2.636971000">
        <ele>1097.40</ele>
        <time>2016-10-29T07:56:47Z</time>
      </trkpt>
      <trkpt lat="42.341868000" lon="-2.636975000">
        <ele>1097.50</ele>
        <time>2016-10-29T07:56:48Z</time>
      </trkpt>
      <trkpt lat="42.341865000" lon="-2.636982000">
        <ele>1097.60</ele>
        <time>2016-10-29T07:56:49Z</time>
      </trkpt>
      <trkpt lat="42.341864000" lon="-2.636984000">
        <ele>1097.60</ele>
        <time>2016-10-29T07:56:50Z</time>
      </trkpt>
      <trkpt lat="42.341865000" lon="-2.636989000">
        <ele>1097.70</ele>
        <time>2016-10-29T07:56:51Z</time>
      </trkpt>
      <trkpt lat="42.341866000" lon="-2.636992000">
        <ele>1097.70</ele>
        <time>2016-10-29T07:56:52Z</time>
      </trkpt>
      <trkpt lat="42.341866000" lon="-2.636991000">
        <ele>1097.80</ele>
        <time>2016-10-29T07:56:53Z</time>
      </trkpt>
      <trkpt lat="42.341868000" lon="-2.636986000">
        <ele>1097.80</ele>
        <time>2016-10-29T07:56:54Z</time>
      </trkpt>
      <trkpt lat="42.341869000" lon="-2.636983000">
        <ele>1097.80</ele>
        <time>2016-10-29T07:56:55Z</time>
      </trkpt>
      <trkpt lat="42.341872000" lon="-2.636978000">
        <ele>1097.70</ele>
        <time>2016-10-29T07:56:56Z</time>
      </trkpt>
      <trkpt lat="42.341876000" lon="-2.636975000">
        <ele>1097.70</ele>
        <time>2016-10-29T07:56:57Z</time>
      </trkpt>
      <trkpt lat="42.341878000" lon="-2.636974000">
        <ele>1097.70</ele>
        <time>2016-10-29T07:56:58Z</time>
      </trkpt>
      <trkpt lat="42.341881000" lon="-2.636971000">
        <ele>1097.70</ele>
        <time>2016-10-29T07:56:59Z</time>
      </trkpt>
      <trkpt lat="42.341885000" lon="-2.636968000">
        <ele>1097.80</ele>
        <time>2016-10-29T07:57:00Z</time>
      </trkpt>
      <trkpt lat="42.341888000" lon="-2.636965000">
        <ele>1097.90</ele>
        <time>2016-10-29T07:57:01Z</time>
      </trkpt>
      <trkpt lat="42.341888000" lon="-2.636962000">
        <ele>1098.00</ele>
        <time>2016-10-29T07:57:02Z</time>
      </trkpt>
      <trkpt lat="42.341887000" lon="-2.636957000">
        <ele>1098.10</ele>
        <time>2016-10-29T07:57:04Z</time>
      </trkpt>
      <trkpt lat="42.341886000" lon="-2.636954000">
        <ele>1098.10</ele>
        <time>2016-10-29T07:57:05Z</time>
      </trkpt>
      <trkpt lat="42.341882000" lon="-2.636952000">
        <ele>1098.10</ele>
        <time>2016-10-29T07:57:06Z</time>
      </trkpt>
      <trkpt lat="42.341876000" lon="-2.636951000">
        <ele>1098.10</ele>
        <time>2016-10-29T07:57:07Z</time>
      </trkpt>
      <trkpt lat="42.341871000" lon="-2.636950000">
        <ele>1098.10</ele>
        <time>2016-10-29T07:57:08Z</time>
      </trkpt>
      <trkpt lat="42.341871000" lon="-2.636947000">
        <ele>1098.10</ele>
        <time>2016-10-29T07:57:09Z</time>
      </trkpt>
      <trkpt lat="42.341872000" lon="-2.636948000">
        <ele>1098.10</ele>
        <time>2016-10-29T07:57:10Z</time>
      </trkpt>
      <trkpt lat="42.341871000" lon="-2.636947000">
        <ele>1098.10</ele>
        <time>2016-10-29T07:57:11Z</time>
      </trkpt>
      <trkpt lat="42.341874000" lon="-2.636946000">
        <ele>1098.10</ele>
        <time>2016-10-29T07:57:12Z</time>
      </trkpt>
      <trkpt lat="42.341874000" lon="-2.636943000">
        <ele>1098.00</ele>
        <time>2016-10-29T07:57:13Z</time>
      </trkpt>
      <trkpt lat="42.341874000" lon="-2.636939000">
        <ele>1097.90</ele>
        <time>2016-10-29T07:57:14Z</time>
      </trkpt>
      <trkpt lat="42.341879000" lon="-2.636938000">
        <ele>1097.90</ele>
        <time>2016-10-29T07:57:15Z</time>
      </trkpt>
      <trkpt lat="42.341881000" lon="-2.636936000">
        <ele>1097.90</ele>
        <time>2016-10-29T07:57:16Z</time>
      </trkpt>
      <trkpt lat="42.341882000" lon="-2.636933000">
        <ele>1097.90</ele>
        <time>2016-10-29T07:57:17Z</time>
      </trkpt>
      <trkpt lat="42.341883000" lon="-2.636931000">
        <ele>1097.80</ele>
        <time>2016-10-29T07:57:18Z</time>
      </trkpt>
      <trkpt lat="42.341883000" lon="-2.636929000">
        <ele>1097.70</ele>
        <time>2016-10-29T07:57:19Z</time>
      </trkpt>
      <trkpt lat="42.341882000" lon="-2.636927000">
        <ele>1097.70</ele>
        <time>2016-10-29T07:57:20Z</time>
      </trkpt>
      <trkpt lat="42.341880000" lon="-2.636926000">
        <ele>1097.60</ele>
        <time>2016-10-29T07:57:21Z</time>
      </trkpt>
      <trkpt lat="42.341877000" lon="-2.636920000">
        <ele>1097.60</ele>
        <time>2016-10-29T07:57:22Z</time>
      </trkpt>
      <trkpt lat="42.341874000" lon="-2.636915000">
        <ele>1097.60</ele>
        <time>2016-10-29T07:57:23Z</time>
      </trkpt>
      <trkpt lat="42.341869000" lon="-2.636913000">
        <ele>1097.80</ele>
        <time>2016-10-29T07:57:24Z</time>
      </trkpt>
      <trkpt lat="42.341864000" lon="-2.636911000">
        <ele>1098.00</ele>
        <time>2016-10-29T07:57:25Z</time>
      </trkpt>
      <trkpt lat="42.341859000" lon="-2.636909000">
        <ele>1098.10</ele>
        <time>2016-10-29T07:57:26Z</time>
      </trkpt>
      <trkpt lat="42.341855000" lon="-2.636909000">
        <ele>1098.20</ele>
        <time>2016-10-29T07:57:27Z</time>
      </trkpt>
      <trkpt lat="42.341851000" lon="-2.636902000">
        <ele>1098.10</ele>
        <time>2016-10-29T07:57:28Z</time>
      </trkpt>
      <trkpt lat="42.341849000" lon="-2.636897000">
        <ele>1098.00</ele>
        <time>2016-10-29T07:57:29Z</time>
      </trkpt>
      <trkpt lat="42.341846000" lon="-2.636894000">
        <ele>1097.90</ele>
        <time>2016-10-29T07:57:30Z</time>
      </trkpt>
      <trkpt lat="42.341842000" lon="-2.636893000">
        <ele>1097.90</ele>
        <time>2016-10-29T07:57:31Z</time>
      </trkpt>
      <trkpt lat="42.341840000" lon="-2.636895000">
        <ele>1097.80</ele>
        <time>2016-10-29T07:57:32Z</time>
      </trkpt>
      <trkpt lat="42.341838000" lon="-2.636899000">
        <ele>1097.80</ele>
        <time>2016-10-29T07:57:33Z</time>
      </trkpt>
      <trkpt lat="42.341837000" lon="-2.636905000">
        <ele>1097.80</ele>
        <time>2016-10-29T07:57:34Z</time>
      </trkpt>
      <trkpt lat="42.341836000" lon="-2.636909000">
        <ele>1097.80</ele>
        <time>2016-10-29T07:57:35Z</time>
      </trkpt>
      <trkpt lat="42.341837000" lon="-2.636916000">
        <ele>1097.70</ele>
        <time>2016-10-29T07:57:36Z</time>
      </trkpt>
      <trkpt lat="42.341837000" lon="-2.636921000">
        <ele>1097.70</ele>
        <time>2016-10-29T07:57:37Z</time>
      </trkpt>
      <trkpt lat="42.341838000" lon="-2.636926000">
        <ele>1097.70</ele>
        <time>2016-10-29T07:57:38Z</time>
      </trkpt>
      <trkpt lat="42.341838000" lon="-2.636932000">
        <ele>1097.70</ele>
        <time>2016-10-29T07:57:39Z</time>
      </trkpt>
      <trkpt lat="42.341837000" lon="-2.636938000">
        <ele>1097.70</ele>
        <time>2016-10-29T07:57:40Z</time>
      </trkpt>
      <trkpt lat="42.341833000" lon="-2.636939000">
        <ele>1097.70</ele>
        <time>2016-10-29T07:57:41Z</time>
      </trkpt>
      <trkpt lat="42.341830000" lon="-2.636945000">
        <ele>1097.60</ele>
        <time>2016-10-29T07:57:42Z</time>
      </trkpt>
      <trkpt lat="42.341828000" lon="-2.636951000">
        <ele>1097.60</ele>
        <time>2016-10-29T07:57:43Z</time>
      </trkpt>
      <trkpt lat="42.341824000" lon="-2.636957000">
        <ele>1097.50</ele>
        <time>2016-10-29T07:57:44Z</time>
      </trkpt>
      <trkpt lat="42.341821000" lon="-2.636962000">
        <ele>1097.50</ele>
        <time>2016-10-29T07:57:45Z</time>
      </trkpt>
      <trkpt lat="42.341819000" lon="-2.636966000">
        <ele>1097.40</ele>
        <time>2016-10-29T07:57:46Z</time>
      </trkpt>
      <trkpt lat="42.341819000" lon="-2.636969000">
        <ele>1097.40</ele>
        <time>2016-10-29T07:57:47Z</time>
      </trkpt>
      <trkpt lat="42.341819000" lon="-2.636973000">
        <ele>1097.40</ele>
        <time>2016-10-29T07:57:48Z</time>
      </trkpt>
      <trkpt lat="42.341820000" lon="-2.636975000">
        <ele>1097.40</ele>
        <time>2016-10-29T07:57:49Z</time>
      </trkpt>
      <trkpt lat="42.341821000" lon="-2.636979000">
        <ele>1097.50</ele>
        <time>2016-10-29T07:57:50Z</time>
      </trkpt>
      <trkpt lat="42.341823000" lon="-2.636982000">
        <ele>1097.60</ele>
        <time>2016-10-29T07:57:51Z</time>
      </trkpt>
      <trkpt lat="42.341825000" lon="-2.636985000">
        <ele>1097.70</ele>
        <time>2016-10-29T07:57:52Z</time>
      </trkpt>
      <trkpt lat="42.341825000" lon="-2.636987000">
        <ele>1097.70</ele>
        <time>2016-10-29T07:57:53Z</time>
      </trkpt>
      <trkpt lat="42.341827000" lon="-2.636988000">
        <ele>1097.70</ele>
        <time>2016-10-29T07:57:54Z</time>
      </trkpt>
      <trkpt lat="42.341827000" lon="-2.636990000">
        <ele>1097.60</ele>
        <time>2016-10-29T07:57:55Z</time>
      </trkpt>
      <trkpt lat="42.341826000" lon="-2.636993000">
        <ele>1097.60</ele>
        <time>2016-10-29T07:57:56Z</time>
      </trkpt>
      <trkpt lat="42.341825000" lon="-2.636993000">
        <ele>1097.60</ele>
        <time>2016-10-29T07:57:57Z</time>
      </trkpt>
      <trkpt lat="42.341825000" lon="-2.636997000">
        <ele>1097.60</ele>
        <time>2016-10-29T07:57:58Z</time>
      </trkpt>
      <trkpt lat="42.341824000" lon="-2.637001000">
        <ele>1097.60</ele>
        <time>2016-10-29T07:57:59Z</time>
      </trkpt>
      <trkpt lat="42.341822000" lon="-2.637007000">
        <ele>1097.40</ele>
        <time>2016-10-29T07:58:00Z</time>
      </trkpt>
      <trkpt lat="42.341821000" lon="-2.637014000">
        <ele>1097.30</ele>
        <time>2016-10-29T07:58:01Z</time>
      </trkpt>
      <trkpt lat="42.341818000" lon="-2.637022000">
        <ele>1097.10</ele>
        <time>2016-10-29T07:58:02Z</time>
      </trkpt>
      <trkpt lat="42.341817000" lon="-2.637032000">
        <ele>1096.90</ele>
        <time>2016-10-29T07:58:03Z</time>
      </trkpt>
      <trkpt lat="42.341818000" lon="-2.637038000">
        <ele>1096.90</ele>
        <time>2016-10-29T07:58:04Z</time>
      </trkpt>
      <trkpt lat="42.341818000" lon="-2.637042000">
        <ele>1097.00</ele>
        <time>2016-10-29T07:58:06Z</time>
      </trkpt>
      <trkpt lat="42.341814000" lon="-2.637042000">
        <ele>1097.10</ele>
        <time>2016-10-29T07:58:07Z</time>
      </trkpt>
      <trkpt lat="42.341810000" lon="-2.637043000">
        <ele>1097.10</ele>
        <time>2016-10-29T07:58:08Z</time>
      </trkpt>
      <trkpt lat="42.341802000" lon="-2.637050000">
        <ele>1097.20</ele>
        <time>2016-10-29T07:58:09Z</time>
      </trkpt>
      <trkpt lat="42.341796000" lon="-2.637059000">
        <ele>1097.20</ele>
        <time>2016-10-29T07:58:10Z</time>
      </trkpt>
      <trkpt lat="42.341792000" lon="-2.637064000">
        <ele>1097.20</ele>
        <time>2016-10-29T07:58:11Z</time>
      </trkpt>
      <trkpt lat="42.341786000" lon="-2.637074000">
        <ele>1097.20</ele>
        <time>2016-10-29T07:58:12Z</time>
      </trkpt>
      <trkpt lat="42.341783000" lon="-2.637082000">
        <ele>1097.20</ele>
        <time>2016-10-29T07:58:13Z</time>
      </trkpt>
      <trkpt lat="42.341782000" lon="-2.637088000">
        <ele>1097.20</ele>
        <time>2016-10-29T07:58:14Z</time>
      </trkpt>
      <trkpt lat="42.341777000" lon="-2.637102000">
        <ele>1097.20</ele>
        <time>2016-10-29T07:58:15Z</time>
      </trkpt>
      <trkpt lat="42.341773000" lon="-2.637113000">
        <ele>1097.20</ele>
        <time>2016-10-29T07:58:16Z</time>
      </trkpt>
      <trkpt lat="42.341769000" lon="-2.637124000">
        <ele>1097.20</ele>
        <time>2016-10-29T07:58:17Z</time>
      </trkpt>
      <trkpt lat="42.341766000" lon="-2.637130000">
        <ele>1097.20</ele>
        <time>2016-10-29T07:58:18Z</time>
      </trkpt>
      <trkpt lat="42.341763000" lon="-2.637138000">
        <ele>1097.20</ele>
        <time>2016-10-29T07:58:19Z</time>
      </trkpt>
      <trkpt lat="42.341760000" lon="-2.637143000">
        <ele>1097.20</ele>
        <time>2016-10-29T07:58:20Z</time>
      </trkpt>
      <trkpt lat="42.341757000" lon="-2.637145000">
        <ele>1097.20</ele>
        <time>2016-10-29T07:58:21Z</time>
      </trkpt>
      <trkpt lat="42.341754000" lon="-2.637144000">
        <ele>1097.10</ele>
        <time>2016-10-29T07:58:22Z</time>
      </trkpt>
      <trkpt lat="42.341753000" lon="-2.637143000">
        <ele>1097.00</ele>
        <time>2016-10-29T07:58:23Z</time>
      </trkpt>
      <trkpt lat="42.341751000" lon="-2.637139000">
        <ele>1097.00</ele>
        <time>2016-10-29T07:58:24Z</time>
      </trkpt>
      <trkpt lat="42.341751000" lon="-2.637136000">
        <ele>1096.90</ele>
        <time>2016-10-29T07:58:25Z</time>
      </trkpt>
      <trkpt lat="42.341754000" lon="-2.637131000">
        <ele>1096.90</ele>
        <time>2016-10-29T07:58:26Z</time>
      </trkpt>
      <trkpt lat="42.341757000" lon="-2.637126000">
        <ele>1096.90</ele>
        <time>2016-10-29T07:58:27Z</time>
      </trkpt>
      <trkpt lat="42.341758000" lon="-2.637119000">
        <ele>1096.90</ele>
        <time>2016-10-29T07:58:28Z</time>
      </trkpt>
      <trkpt lat="42.341760000" lon="-2.637109000">
        <ele>1096.80</ele>
        <time>2016-10-29T07:58:29Z</time>
      </trkpt>
      <trkpt lat="42.341764000" lon="-2.637096000">
        <ele>1096.90</ele>
        <time>2016-10-29T07:58:30Z</time>
      </trkpt>
      <trkpt lat="42.341769000" lon="-2.637085000">
        <ele>1096.90</ele>
        <time>2016-10-29T07:58:31Z</time>
      </trkpt>
      <trkpt lat="42.341773000" lon="-2.637076000">
        <ele>1097.00</ele>
        <time>2016-10-29T07:58:32Z</time>
      </trkpt>
      <trkpt lat="42.341777000" lon="-2.637072000">
        <ele>1097.00</ele>
        <time>2016-10-29T07:58:33Z</time>
      </trkpt>
      <trkpt lat="42.341778000" lon="-2.637066000">
        <ele>1097.00</ele>
        <time>2016-10-29T07:58:34Z</time>
      </trkpt>
      <trkpt lat="42.341778000" lon="-2.637063000">
        <ele>1097.00</ele>
        <time>2016-10-29T07:58:35Z</time>
      </trkpt>
      <trkpt lat="42.341780000" lon="-2.637062000">
        <ele>1097.20</ele>
        <time>2016-10-29T07:58:36Z</time>
      </trkpt>
      <trkpt lat="42.341782000" lon="-2.637059000">
        <ele>1097.30</ele>
        <time>2016-10-29T07:58:37Z</time>
      </trkpt>
      <trkpt lat="42.341782000" lon="-2.637056000">
        <ele>1097.40</ele>
        <time>2016-10-29T07:58:38Z</time>
      </trkpt>
      <trkpt lat="42.341785000" lon="-2.637049000">
        <ele>1097.40</ele>
        <time>2016-10-29T07:58:39Z</time>
      </trkpt>
      <trkpt lat="42.341787000" lon="-2.637046000">
        <ele>1097.50</ele>
        <time>2016-10-29T07:58:40Z</time>
      </trkpt>
      <trkpt lat="42.341787000" lon="-2.637039000">
        <ele>1097.50</ele>
        <time>2016-10-29T07:58:41Z</time>
      </trkpt>
      <trkpt lat="42.341788000" lon="-2.637040000">
        <ele>1097.60</ele>
        <time>2016-10-29T07:58:42Z</time>
      </trkpt>
      <trkpt lat="42.341790000" lon="-2.637039000">
        <ele>1097.60</ele>
        <time>2016-10-29T07:58:43Z</time>
      </trkpt>
      <trkpt lat="42.341796000" lon="-2.637039000">
        <ele>1097.70</ele>
        <time>2016-10-29T07:58:44Z</time>
      </trkpt>
      <trkpt lat="42.341805000" lon="-2.637042000">
        <ele>1097.80</ele>
        <time>2016-10-29T07:58:45Z</time>
      </trkpt>
      <trkpt lat="42.341816000" lon="-2.637040000">
        <ele>1097.80</ele>
        <time>2016-10-29T07:58:46Z</time>
      </trkpt>
      <trkpt lat="42.341824000" lon="-2.637034000">
        <ele>1097.90</ele>
        <time>2016-10-29T07:58:47Z</time>
      </trkpt>
      <trkpt lat="42.341828000" lon="-2.637023000">
        <ele>1097.70</ele>
        <time>2016-10-29T07:58:48Z</time>
      </trkpt>
      <trkpt lat="42.341830000" lon="-2.637019000">
        <ele>1097.60</ele>
        <time>2016-10-29T07:58:49Z</time>
      </trkpt>
      <trkpt lat="42.341833000" lon="-2.637020000">
        <ele>1097.30</ele>
        <time>2016-10-29T07:58:50Z</time>
      </trkpt>
      <trkpt lat="42.341838000" lon="-2.637020000">
        <ele>1097.10</ele>
        <time>2016-10-29T07:58:51Z</time>
      </trkpt>
      <trkpt lat="42.341843000" lon="-2.637015000">
        <ele>1097.00</ele>
        <time>2016-10-29T07:58:52Z</time>
      </trkpt>
      <trkpt lat="42.341848000" lon="-2.637010000">
        <ele>1096.80</ele>
        <time>2016-10-29T07:58:53Z</time>
      </trkpt>
      <trkpt lat="42.341851000" lon="-2.637011000">
        <ele>1097.00</ele>
        <time>2016-10-29T07:58:54Z</time>
      </trkpt>
      <trkpt lat="42.341850000" lon="-2.637012000">
        <ele>1097.10</ele>
        <time>2016-10-29T07:58:55Z</time>
      </trkpt>
      <trkpt lat="42.341852000" lon="-2.637011000">
        <ele>1097.10</ele>
        <time>2016-10-29T07:58:56Z</time>
      </trkpt>
      <trkpt lat="42.341854000" lon="-2.637012000">
        <ele>1097.20</ele>
        <time>2016-10-29T07:58:57Z</time>
      </trkpt>
      <trkpt lat="42.341858000" lon="-2.637015000">
        <ele>1097.40</ele>
        <time>2016-10-29T07:58:58Z</time>
      </trkpt>
      <trkpt lat="42.341863000" lon="-2.637016000">
        <ele>1097.50</ele>
        <time>2016-10-29T07:58:59Z</time>
      </trkpt>
      <trkpt lat="42.341869000" lon="-2.637013000">
        <ele>1097.60</ele>
        <time>2016-10-29T07:59:00Z</time>
      </trkpt>
      <trkpt lat="42.341872000" lon="-2.637012000">
        <ele>1097.70</ele>
        <time>2016-10-29T07:59:01Z</time>
      </trkpt>
      <trkpt lat="42.341875000" lon="-2.637011000">
        <ele>1097.70</ele>
        <time>2016-10-29T07:59:02Z</time>
      </trkpt>
      <trkpt lat="42.341875000" lon="-2.637023000">
        <ele>1097.70</ele>
        <time>2016-10-29T07:59:03Z</time>
      </trkpt>
      <trkpt lat="42.341874000" lon="-2.637031000">
        <ele>1097.60</ele>
        <time>2016-10-29T07:59:04Z</time>
      </trkpt>
      <trkpt lat="42.341871000" lon="-2.637031000">
        <ele>1097.50</ele>
        <time>2016-10-29T07:59:05Z</time>
      </trkpt>
      <trkpt lat="42.341866000" lon="-2.637034000">
        <ele>1097.40</ele>
        <time>2016-10-29T07:59:06Z</time>
      </trkpt>
      <trkpt lat="42.341859000" lon="-2.637023000">
        <ele>1097.30</ele>
        <time>2016-10-29T07:59:08Z</time>
      </trkpt>
      <trkpt lat="42.341854000" lon="-2.637016000">
        <ele>1097.30</ele>
        <time>2016-10-29T07:59:09Z</time>
      </trkpt>
      <trkpt lat="42.341850000" lon="-2.637014000">
        <ele>1097.30</ele>
        <time>2016-10-29T07:59:10Z</time>
      </trkpt>
      <trkpt lat="42.341844000" lon="-2.637011000">
        <ele>1097.40</ele>
        <time>2016-10-29T07:59:11Z</time>
      </trkpt>
      <trkpt lat="42.341838000" lon="-2.637007000">
        <ele>1097.50</ele>
        <time>2016-10-29T07:59:12Z</time>
      </trkpt>
      <trkpt lat="42.341832000" lon="-2.637003000">
        <ele>1097.50</ele>
        <time>2016-10-29T07:59:13Z</time>
      </trkpt>
      <trkpt lat="42.341827000" lon="-2.637001000">
        <ele>1097.50</ele>
        <time>2016-10-29T07:59:14Z</time>
      </trkpt>
      <trkpt lat="42.341826000" lon="-2.636999000">
        <ele>1097.50</ele>
        <time>2016-10-29T07:59:15Z</time>
      </trkpt>
      <trkpt lat="42.341821000" lon="-2.636996000">
        <ele>1097.60</ele>
        <time>2016-10-29T07:59:16Z</time>
      </trkpt>
      <trkpt lat="42.341816000" lon="-2.636996000">
        <ele>1097.60</ele>
        <time>2016-10-29T07:59:17Z</time>
      </trkpt>
      <trkpt lat="42.341816000" lon="-2.636997000">
        <ele>1097.60</ele>
        <time>2016-10-29T07:59:18Z</time>
      </trkpt>
      <trkpt lat="42.341813000" lon="-2.636991000">
        <ele>1097.60</ele>
        <time>2016-10-29T07:59:19Z</time>
      </trkpt>
      <trkpt lat="42.341811000" lon="-2.636986000">
        <ele>1097.60</ele>
        <time>2016-10-29T07:59:20Z</time>
      </trkpt>
      <trkpt lat="42.341809000" lon="-2.636979000">
        <ele>1097.70</ele>
        <time>2016-10-29T07:59:21Z</time>
      </trkpt>
      <trkpt lat="42.341807000" lon="-2.636974000">
        <ele>1097.70</ele>
        <time>2016-10-29T07:59:22Z</time>
      </trkpt>
      <trkpt lat="42.341805000" lon="-2.636966000">
        <ele>1097.60</ele>
        <time>2016-10-29T07:59:23Z</time>
      </trkpt>
      <trkpt lat="42.341806000" lon="-2.636963000">
        <ele>1097.60</ele>
        <time>2016-10-29T07:59:24Z</time>
      </trkpt>
      <trkpt lat="42.341807000" lon="-2.636962000">
        <ele>1097.60</ele>
        <time>2016-10-29T07:59:25Z</time>
      </trkpt>
      <trkpt lat="42.341811000" lon="-2.636954000">
        <ele>1097.40</ele>
        <time>2016-10-29T07:59:26Z</time>
      </trkpt>
      <trkpt lat="42.341814000" lon="-2.636947000">
        <ele>1097.40</ele>
        <time>2016-10-29T07:59:27Z</time>
      </trkpt>
      <trkpt lat="42.341816000" lon="-2.636940000">
        <ele>1097.30</ele>
        <time>2016-10-29T07:59:28Z</time>
      </trkpt>
      <trkpt lat="42.341819000" lon="-2.636935000">
        <ele>1097.20</ele>
        <time>2016-10-29T07:59:29Z</time>
      </trkpt>
      <trkpt lat="42.341824000" lon="-2.636931000">
        <ele>1097.10</ele>
        <time>2016-10-29T07:59:30Z</time>
      </trkpt>
      <trkpt lat="42.341826000" lon="-2.636923000">
        <ele>1097.10</ele>
        <time>2016-10-29T07:59:31Z</time>
      </trkpt>
      <trkpt lat="42.341833000" lon="-2.636917000">
        <ele>1097.10</ele>
        <time>2016-10-29T07:59:32Z</time>
      </trkpt>
      <trkpt lat="42.341837000" lon="-2.636917000">
        <ele>1097.20</ele>
        <time>2016-10-29T07:59:33Z</time>
      </trkpt>
      <trkpt lat="42.341840000" lon="-2.636913000">
        <ele>1097.20</ele>
        <time>2016-10-29T07:59:34Z</time>
      </trkpt>
      <trkpt lat="42.341843000" lon="-2.636908000">
        <ele>1097.20</ele>
        <time>2016-10-29T07:59:35Z</time>
      </trkpt>
      <trkpt lat="42.341843000" lon="-2.636907000">
        <ele>1097.20</ele>
        <time>2016-10-29T07:59:36Z</time>
      </trkpt>
      <trkpt lat="42.341844000" lon="-2.636903000">
        <ele>1097.20</ele>
        <time>2016-10-29T07:59:37Z</time>
      </trkpt>
      <trkpt lat="42.341848000" lon="-2.636900000">
        <ele>1097.20</ele>
        <time>2016-10-29T07:59:38Z</time>
      </trkpt>
      <trkpt lat="42.341852000" lon="-2.636899000">
        <ele>1097.20</ele>
        <time>2016-10-29T07:59:39Z</time>
      </trkpt>
      <trkpt lat="42.341856000" lon="-2.636900000">
        <ele>1097.30</ele>
        <time>2016-10-29T07:59:40Z</time>
      </trkpt>
      <trkpt lat="42.341858000" lon="-2.636905000">
        <ele>1097.40</ele>
        <time>2016-10-29T07:59:41Z</time>
      </trkpt>
      <trkpt lat="42.341865000" lon="-2.636909000">
        <ele>1097.50</ele>
        <time>2016-10-29T07:59:42Z</time>
      </trkpt>
      <trkpt lat="42.341867000" lon="-2.636913000">
        <ele>1097.60</ele>
        <time>2016-10-29T07:59:43Z</time>
      </trkpt>
      <trkpt lat="42.341869000" lon="-2.636916000">
        <ele>1097.70</ele>
        <time>2016-10-29T07:59:44Z</time>
      </trkpt>
      <trkpt lat="42.341871000" lon="-2.636918000">
        <ele>1097.80</ele>
        <time>2016-10-29T07:59:45Z</time>
      </trkpt>
      <trkpt lat="42.341870000" lon="-2.636922000">
        <ele>1097.80</ele>
        <time>2016-10-29T07:59:46Z</time>
      </trkpt>
      <trkpt lat="42.341869000" lon="-2.636927000">
        <ele>1097.90</ele>
        <time>2016-10-29T07:59:47Z</time>
      </trkpt>
      <trkpt lat="42.341869000" lon="-2.636933000">
        <ele>1097.80</ele>
        <time>2016-10-29T07:59:48Z</time>
      </trkpt>
      <trkpt lat="42.341867000" lon="-2.636937000">
        <ele>1097.70</ele>
        <time>2016-10-29T07:59:49Z</time>
      </trkpt>
      <trkpt lat="42.341864000" lon="-2.636940000">
        <ele>1097.70</ele>
        <time>2016-10-29T07:59:50Z</time>
      </trkpt>
      <trkpt lat="42.341863000" lon="-2.636939000">
        <ele>1097.60</ele>
        <time>2016-10-29T07:59:51Z</time>
      </trkpt>
      <trkpt lat="42.341862000" lon="-2.636939000">
        <ele>1097.50</ele>
        <time>2016-10-29T07:59:52Z</time>
      </trkpt>
      <trkpt lat="42.341861000" lon="-2.636944000">
        <ele>1097.40</ele>
        <time>2016-10-29T07:59:53Z</time>
      </trkpt>
      <trkpt lat="42.341864000" lon="-2.636960000">
        <ele>1097.30</ele>
        <time>2016-10-29T07:59:54Z</time>
      </trkpt>
      <trkpt lat="42.341869000" lon="-2.636980000">
        <ele>1097.20</ele>
        <time>2016-10-29T07:59:55Z</time>
      </trkpt>
      <trkpt lat="42.341870000" lon="-2.636987000">
        <ele>1097.40</ele>
        <time>2016-10-29T07:59:56Z</time>
      </trkpt>
      <trkpt lat="42.341872000" lon="-2.636994000">
        <ele>1097.50</ele>
        <time>2016-10-29T07:59:57Z</time>
      </trkpt>
      <trkpt lat="42.341877000" lon="-2.637003000">
        <ele>1097.70</ele>
        <time>2016-10-29T07:59:58Z</time>
      </trkpt>
      <trkpt lat="42.341880000" lon="-2.637012000">
        <ele>1097.70</ele>
        <time>2016-10-29T07:59:59Z</time>
      </trkpt>
      <trkpt lat="42.341877000" lon="-2.637007000">
        <ele>1097.70</ele>
        <time>2016-10-29T08:00:00Z</time>
      </trkpt>
      <trkpt lat="42.341879000" lon="-2.637008000">
        <ele>1097.70</ele>
        <time>2016-10-29T08:00:01Z</time>
      </trkpt>
      <trkpt lat="42.341877000" lon="-2.637010000">
        <ele>1097.70</ele>
        <time>2016-10-29T08:00:02Z</time>
      </trkpt>
      <trkpt lat="42.341875000" lon="-2.637011000">
        <ele>1097.60</ele>
        <time>2016-10-29T08:00:03Z</time>
      </trkpt>
      <trkpt lat="42.341872000" lon="-2.637009000">
        <ele>1097.70</ele>
        <time>2016-10-29T08:00:04Z</time>
      </trkpt>
      <trkpt lat="42.341873000" lon="-2.637004000">
        <ele>1097.80</ele>
        <time>2016-10-29T08:00:05Z</time>
      </trkpt>
      <trkpt lat="42.341875000" lon="-2.637004000">
        <ele>1097.80</ele>
        <time>2016-10-29T08:00:06Z</time>
      </trkpt>
      <trkpt lat="42.341880000" lon="-2.637010000">
        <ele>1097.80</ele>
        <time>2016-10-29T08:00:07Z</time>
      </trkpt>
      <trkpt lat="42.341886000" lon="-2.637014000">
        <ele>1097.90</ele>
        <time>2016-10-29T08:00:08Z</time>
      </trkpt>
      <trkpt lat="42.341897000" lon="-2.637016000">
        <ele>1098.00</ele>
        <time>2016-10-29T08:00:10Z</time>
      </trkpt>
      <trkpt lat="42.341899000" lon="-2.637021000">
        <ele>1098.10</ele>
        <time>2016-10-29T08:00:11Z</time>
      </trkpt>
      <trkpt lat="42.341901000" lon="-2.637025000">
        <ele>1098.20</ele>
        <time>2016-10-29T08:00:12Z</time>
      </trkpt>
      <trkpt lat="42.341902000" lon="-2.637029000">
        <ele>1098.20</ele>
        <time>2016-10-29T08:00:13Z</time>
      </trkpt>
      <trkpt lat="42.341905000" lon="-2.637030000">
        <ele>1098.10</ele>
        <time>2016-10-29T08:00:14Z</time>
      </trkpt>
      <trkpt lat="42.341906000" lon="-2.637028000">
        <ele>1097.90</ele>
        <time>2016-10-29T08:00:15Z</time>
      </trkpt>
      <trkpt lat="42.341907000" lon="-2.637028000">
        <ele>1097.90</ele>
        <time>2016-10-29T08:00:16Z</time>
      </trkpt>
      <trkpt lat="42.341907000" lon="-2.637025000">
        <ele>1097.80</ele>
        <time>2016-10-29T08:00:17Z</time>
      </trkpt>
      <trkpt lat="42.341909000" lon="-2.637022000">
        <ele>1097.80</ele>
        <time>2016-10-29T08:00:18Z</time>
      </trkpt>
      <trkpt lat="42.341911000" lon="-2.637020000">
        <ele>1097.70</ele>
        <time>2016-10-29T08:00:19Z</time>
      </trkpt>
      <trkpt lat="42.341913000" lon="-2.637015000">
        <ele>1097.80</ele>
        <time>2016-10-29T08:00:20Z</time>
      </trkpt>
      <trkpt lat="42.341914000" lon="-2.637011000">
        <ele>1097.80</ele>
        <time>2016-10-29T08:00:21Z</time>
      </trkpt>
      <trkpt lat="42.341915000" lon="-2.637006000">
        <ele>1097.70</ele>
        <time>2016-10-29T08:00:22Z</time>
      </trkpt>
      <trkpt lat="42.341914000" lon="-2.637008000">
        <ele>1097.60</ele>
        <time>2016-10-29T08:00:23Z</time>
      </trkpt>
      <trkpt lat="42.341914000" lon="-2.637003000">
        <ele>1097.60</ele>
        <time>2016-10-29T08:00:24Z</time>
      </trkpt>
      <trkpt lat="42.341913000" lon="-2.636999000">
        <ele>1097.60</ele>
        <time>2016-10-29T08:00:25Z</time>
      </trkpt>
      <trkpt lat="42.341910000" lon="-2.636997000">
        <ele>1097.50</ele>
        <time>2016-10-29T08:00:26Z</time>
      </trkpt>
      <trkpt lat="42.341909000" lon="-2.636996000">
        <ele>1097.50</ele>
        <time>2016-10-29T08:00:27Z</time>
      </trkpt>
      <trkpt lat="42.341908000" lon="-2.636993000">
        <ele>1097.60</ele>
        <time>2016-10-29T08:00:28Z</time>
      </trkpt>
      <trkpt lat="42.341907000" lon="-2.636992000">
        <ele>1097.70</ele>
        <time>2016-10-29T08:00:29Z</time>
      </trkpt>
      <trkpt lat="42.341907000" lon="-2.636987000">
        <ele>1097.80</ele>
        <time>2016-10-29T08:00:30Z</time>
      </trkpt>
      <trkpt lat="42.341908000" lon="-2.636984000">
        <ele>1097.90</ele>
        <time>2016-10-29T08:00:31Z</time>
      </trkpt>
      <trkpt lat="42.341908000" lon="-2.636980000">
        <ele>1097.80</ele>
        <time>2016-10-29T08:00:32Z</time>
      </trkpt>
      <trkpt lat="42.341905000" lon="-2.636977000">
        <ele>1097.80</ele>
        <time>2016-10-29T08:00:33Z</time>
      </trkpt>
      <trkpt lat="42.341897000" lon="-2.636961000">
        <ele>1097.80</ele>
        <time>2016-10-29T08:00:34Z</time>
      </trkpt>
      <trkpt lat="42.341892000" lon="-2.636947000">
        <ele>1097.80</ele>
        <time>2016-10-29T08:00:35Z</time>
      </trkpt>
      <trkpt lat="42.341887000" lon="-2.636938000">
        <ele>1097.80</ele>
        <time>2016-10-29T08:00:36Z</time>
      </trkpt>
      <trkpt lat="42.341884000" lon="-2.636931000">
        <ele>1097.80</ele>
        <time>2016-10-29T08:00:37Z</time>
      </trkpt>
      <trkpt lat="42.341880000" lon="-2.636929000">
        <ele>1097.70</ele>
        <time>2016-10-29T08:00:38Z</time>
      </trkpt>
      <trkpt lat="42.341878000" lon="-2.636925000">
        <ele>1097.60</ele>
        <time>2016-10-29T08:00:39Z</time>
      </trkpt>
      <trkpt lat="42.341881000" lon="-2.636917000">
        <ele>1097.50</ele>
        <time>2016-10-29T08:00:40Z</time>
      </trkpt>
      <trkpt lat="42.341882000" lon="-2.636912000">
        <ele>1097.40</ele>
        <time>2016-10-29T08:00:41Z</time>
      </trkpt>
      <trkpt lat="42.341884000" lon="-2.636908000">
        <ele>1097.50</ele>
        <time>2016-10-29T08:00:42Z</time>
      </trkpt>
      <trkpt lat="42.341884000" lon="-2.636903000">
        <ele>1097.60</ele>
        <time>2016-10-29T08:00:43Z</time>
      </trkpt>
      <trkpt lat="42.341882000" lon="-2.636904000">
        <ele>1097.70</ele>
        <time>2016-10-29T08:00:44Z</time>
      </trkpt>
      <trkpt lat="42.341887000" lon="-2.636898000">
        <ele>1097.70</ele>
        <time>2016-10-29T08:00:45Z</time>
      </trkpt>
      <trkpt lat="42.341889000" lon="-2.636897000">
        <ele>1097.80</ele>
        <time>2016-10-29T08:00:46Z</time>
      </trkpt>
      <trkpt lat="42.341890000" lon="-2.636892000">
        <ele>1097.80</ele>
        <time>2016-10-29T08:00:47Z</time>
      </trkpt>
      <trkpt lat="42.341892000" lon="-2.636890000">
        <ele>1097.70</ele>
        <time>2016-10-29T08:00:48Z</time>
      </trkpt>
      <trkpt lat="42.341892000" lon="-2.636894000">
        <ele>1097.60</ele>
        <time>2016-10-29T08:00:49Z</time>
      </trkpt>
      <trkpt lat="42.341893000" lon="-2.636895000">
        <ele>1097.60</ele>
        <time>2016-10-29T08:00:50Z</time>
      </trkpt>
      <trkpt lat="42.341889000" lon="-2.636897000">
        <ele>1097.50</ele>
        <time>2016-10-29T08:00:51Z</time>
      </trkpt>
      <trkpt lat="42.341887000" lon="-2.636897000">
        <ele>1097.50</ele>
        <time>2016-10-29T08:00:52Z</time>
      </trkpt>
      <trkpt lat="42.341880000" lon="-2.636900000">
        <ele>1097.50</ele>
        <time>2016-10-29T08:00:53Z</time>
      </trkpt>
      <trkpt lat="42.341874000" lon="-2.636899000">
        <ele>1097.50</ele>
        <time>2016-10-29T08:00:54Z</time>
      </trkpt>
      <trkpt lat="42.341867000" lon="-2.636897000">
        <ele>1097.50</ele>
        <time>2016-10-29T08:00:55Z</time>
      </trkpt>
      <trkpt lat="42.341859000" lon="-2.636895000">
        <ele>1097.60</ele>
        <time>2016-10-29T08:00:56Z</time>
      </trkpt>
      <trkpt lat="42.341852000" lon="-2.636891000">
        <ele>1097.60</ele>
        <time>2016-10-29T08:00:57Z</time>
      </trkpt>
      <trkpt lat="42.341847000" lon="-2.636885000">
        <ele>1097.70</ele>
        <time>2016-10-29T08:00:58Z</time>
      </trkpt>
      <trkpt lat="42.341842000" lon="-2.636881000">
        <ele>1097.80</ele>
        <time>2016-10-29T08:00:59Z</time>
      </trkpt>
      <trkpt lat="42.341836000" lon="-2.636876000">
        <ele>1097.90</ele>
        <time>2016-10-29T08:01:00Z</time>
      </trkpt>
      <trkpt lat="42.341834000" lon="-2.636874000">
        <ele>1097.90</ele>
        <time>2016-10-29T08:01:01Z</time>
      </trkpt>
      <trkpt lat="42.341832000" lon="-2.636873000">
        <ele>1097.80</ele>
        <time>2016-10-29T08:01:02Z</time>
      </trkpt>
      <trkpt lat="42.341831000" lon="-2.636869000">
        <ele>1097.70</ele>
        <time>2016-10-29T08:01:03Z</time>
      </trkpt>
      <trkpt lat="42.341828000" lon="-2.636856000">
        <ele>1097.60</ele>
        <time>2016-10-29T08:01:04Z</time>
      </trkpt>
      <trkpt lat="42.341829000" lon="-2.636855000">
        <ele>1097.50</ele>
        <time>2016-10-29T08:01:05Z</time>
      </trkpt>
      <trkpt lat="42.341826000" lon="-2.636841000">
        <ele>1097.50</ele>
        <time>2016-10-29T08:01:06Z</time>
      </trkpt>
      <trkpt lat="42.341823000" lon="-2.636833000">
        <ele>1097.40</ele>
        <time>2016-10-29T08:01:07Z</time>
      </trkpt>
      <trkpt lat="42.341821000" lon="-2.636835000">
        <ele>1097.60</ele>
        <time>2016-10-29T08:01:08Z</time>
      </trkpt>
      <trkpt lat="42.341823000" lon="-2.636844000">
        <ele>1097.80</ele>
        <time>2016-10-29T08:01:09Z</time>
      </trkpt>
      <trkpt lat="42.341824000" lon="-2.636846000">
        <ele>1097.90</ele>
        <time>2016-10-29T08:01:10Z</time>
      </trkpt>
      <trkpt lat="42.341821000" lon="-2.636849000">
        <ele>1098.10</ele>
        <time>2016-10-29T08:01:12Z</time>
      </trkpt>
      <trkpt lat="42.341823000" lon="-2.636853000">
        <ele>1098.20</ele>
        <time>2016-10-29T08:01:13Z</time>
      </trkpt>
      <trkpt lat="42.341830000" lon="-2.636860000">
        <ele>1098.00</ele>
        <time>2016-10-29T08:01:14Z</time>
      </trkpt>
      <trkpt lat="42.341836000" lon="-2.636868000">
        <ele>1097.90</ele>
        <time>2016-10-29T08:01:15Z</time>
      </trkpt>
      <trkpt lat="42.341839000" lon="-2.636875000">
        <ele>1097.90</ele>
        <time>2016-10-29T08:01:16Z</time>
      </trkpt>
      <trkpt lat="42.341840000" lon="-2.636883000">
        <ele>1097.90</ele>
        <time>2016-10-29T08:01:17Z</time>
      </trkpt>
      <trkpt lat="42.341839000" lon="-2.636892000">
        <ele>1098.00</ele>
        <time>2016-10-29T08:01:18Z</time>
      </trkpt>
      <trkpt lat="42.341837000" lon="-2.636898000">
        <ele>1098.00</ele>
        <time>2016-10-29T08:01:19Z</time>
      </trkpt>
      <trkpt lat="42.341835000" lon="-2.636900000">
        <ele>1098.10</ele>
        <time>2016-10-29T08:01:20Z</time>
      </trkpt>
      <trkpt lat="42.341833000" lon="-2.636903000">
        <ele>1098.20</ele>
        <time>2016-10-29T08:01:21Z</time>
      </trkpt>
      <trkpt lat="42.341831000" lon="-2.636906000">
        <ele>1098.20</ele>
        <time>2016-10-29T08:01:22Z</time>
      </trkpt>
      <trkpt lat="42.341829000" lon="-2.636912000">
        <ele>1098.30</ele>
        <time>2016-10-29T08:01:23Z</time>
      </trkpt>
      <trkpt lat="42.341828000" lon="-2.636916000">
        <ele>1098.30</ele>
        <time>2016-10-29T08:01:24Z</time>
      </trkpt>
      <trkpt lat="42.341822000" lon="-2.636921000">
        <ele>1098.30</ele>
        <time>2016-10-29T08:01:25Z</time>
      </trkpt>
      <trkpt lat="42.341820000" lon="-2.636927000">
        <ele>1098.30</ele>
        <time>2016-10-29T08:01:26Z</time>
      </trkpt>
      <trkpt lat="42.341820000" lon="-2.636929000">
        <ele>1098.40</ele>
        <time>2016-10-29T08:01:27Z</time>
      </trkpt>
      <trkpt lat="42.341821000" lon="-2.636929000">
        <ele>1098.40</ele>
        <time>2016-10-29T08:01:28Z</time>
      </trkpt>
      <trkpt lat="42.341821000" lon="-2.636930000">
        <ele>1098.40</ele>
        <time>2016-10-29T08:01:29Z</time>
      </trkpt>
      <trkpt lat="42.341821000" lon="-2.636924000">
        <ele>1098.60</ele>
        <time>2016-10-29T08:01:30Z</time>
      </trkpt>
      <trkpt lat="42.341823000" lon="-2.636919000">
        <ele>1098.70</ele>
        <time>2016-10-29T08:01:31Z</time>
      </trkpt>
      <trkpt lat="42.341826000" lon="-2.636915000">
        <ele>1098.80</ele>
        <time>2016-10-29T08:01:32Z</time>
      </trkpt>
      <trkpt lat="42.341828000" lon="-2.636909000">
        <ele>1098.80</ele>
        <time>2016-10-29T08:01:33Z</time>
      </trkpt>
      <trkpt lat="42.341829000" lon="-2.636901000">
        <ele>1098.90</ele>
        <time>2016-10-29T08:01:34Z</time>
      </trkpt>
      <trkpt lat="42.341830000" lon="-2.636897000">
        <ele>1099.00</ele>
        <time>2016-10-29T08:01:35Z</time>
      </trkpt>
      <trkpt lat="42.341828000" lon="-2.636893000">
        <ele>1099.00</ele>
        <time>2016-10-29T08:01:36Z</time>
      </trkpt>
      <trkpt lat="42.341828000" lon="-2.636891000">
        <ele>1099.00</ele>
        <time>2016-10-29T08:01:37Z</time>
      </trkpt>
      <trkpt lat="42.341830000" lon="-2.636890000">
        <ele>1099.00</ele>
        <time>2016-10-29T08:01:38Z</time>
      </trkpt>
      <trkpt lat="42.341830000" lon="-2.636886000">
        <ele>1099.10</ele>
        <time>2016-10-29T08:01:39Z</time>
      </trkpt>
      <trkpt lat="42.341828000" lon="-2.636884000">
        <ele>1099.20</ele>
        <time>2016-10-29T08:01:40Z</time>
      </trkpt>
      <trkpt lat="42.341828000" lon="-2.636884000">
        <ele>1099.20</ele>
        <time>2016-10-29T08:01:41Z</time>
      </trkpt>
      <trkpt lat="42.341833000" lon="-2.636881000">
        <ele>1099.10</ele>
        <time>2016-10-29T08:01:42Z</time>
      </trkpt>
      <trkpt lat="42.341838000" lon="-2.636875000">
        <ele>1099.10</ele>
        <time>2016-10-29T08:01:43Z</time>
      </trkpt>
      <trkpt lat="42.341843000" lon="-2.636871000">
        <ele>1099.10</ele>
        <time>2016-10-29T08:01:44Z</time>
      </trkpt>
      <trkpt lat="42.341850000" lon="-2.636869000">
        <ele>1099.00</ele>
        <time>2016-10-29T08:01:45Z</time>
      </trkpt>
      <trkpt lat="42.341856000" lon="-2.636869000">
        <ele>1099.00</ele>
        <time>2016-10-29T08:01:46Z</time>
      </trkpt>
      <trkpt lat="42.341859000" lon="-2.636871000">
        <ele>1099.00</ele>
        <time>2016-10-29T08:01:47Z</time>
      </trkpt>
      <trkpt lat="42.341867000" lon="-2.636872000">
        <ele>1099.00</ele>
        <time>2016-10-29T08:01:48Z</time>
      </trkpt>
      <trkpt lat="42.341873000" lon="-2.636877000">
        <ele>1099.00</ele>
        <time>2016-10-29T08:01:49Z</time>
      </trkpt>
      <trkpt lat="42.341879000" lon="-2.636881000">
        <ele>1099.00</ele>
        <time>2016-10-29T08:01:50Z</time>
      </trkpt>
      <trkpt lat="42.341885000" lon="-2.636886000">
        <ele>1099.00</ele>
        <time>2016-10-29T08:01:51Z</time>
      </trkpt>
      <trkpt lat="42.341890000" lon="-2.636888000">
        <ele>1098.80</ele>
        <time>2016-10-29T08:01:52Z</time>
      </trkpt>
      <trkpt lat="42.341897000" lon="-2.636888000">
        <ele>1098.70</ele>
        <time>2016-10-29T08:01:53Z</time>
      </trkpt>
      <trkpt lat="42.341902000" lon="-2.636887000">
        <ele>1098.60</ele>
        <time>2016-10-29T08:01:54Z</time>
      </trkpt>
      <trkpt lat="42.341906000" lon="-2.636889000">
        <ele>1098.60</ele>
        <time>2016-10-29T08:01:55Z</time>
      </trkpt>
      <trkpt lat="42.341912000" lon="-2.636888000">
        <ele>1098.60</ele>
        <time>2016-10-29T08:01:56Z</time>
      </trkpt>
      <trkpt lat="42.341915000" lon="-2.636889000">
        <ele>1098.60</ele>
        <time>2016-10-29T08:01:57Z</time>
      </trkpt>
      <trkpt lat="42.341917000" lon="-2.636892000">
        <ele>1098.60</ele>
        <time>2016-10-29T08:01:58Z</time>
      </trkpt>
      <trkpt lat="42.341916000" lon="-2.636894000">
        <ele>1098.60</ele>
        <time>2016-10-29T08:01:59Z</time>
      </trkpt>
      <trkpt lat="42.341918000" lon="-2.636899000">
        <ele>1098.70</ele>
        <time>2016-10-29T08:02:00Z</time>
      </trkpt>
      <trkpt lat="42.341917000" lon="-2.636902000">
        <ele>1098.80</ele>
        <time>2016-10-29T08:02:01Z</time>
      </trkpt>
      <trkpt lat="42.341916000" lon="-2.636904000">
        <ele>1098.80</ele>
        <time>2016-10-29T08:02:02Z</time>
      </trkpt>
      <trkpt lat="42.341912000" lon="-2.636904000">
        <ele>1098.90</ele>
        <time>2016-10-29T08:02:03Z</time>
      </trkpt>
      <trkpt lat="42.341913000" lon="-2.636911000">
        <ele>1098.90</ele>
        <time>2016-10-29T08:02:04Z</time>
      </trkpt>
      <trkpt lat="42.341911000" lon="-2.636908000">
        <ele>1098.90</ele>
        <time>2016-10-29T08:02:05Z</time>
      </trkpt>
      <trkpt lat="42.341908000" lon="-2.636903000">
        <ele>1098.90</ele>
        <time>2016-10-29T08:02:06Z</time>
      </trkpt>
      <trkpt lat="42.341905000" lon="-2.636904000">
        <ele>1098.90</ele>
        <time>2016-10-29T08:02:07Z</time>
      </trkpt>
      <trkpt lat="42.341902000" lon="-2.636907000">
        <ele>1098.90</ele>
        <time>2016-10-29T08:02:08Z</time>
      </trkpt>
      <trkpt lat="42.341895000" lon="-2.636908000">
        <ele>1098.80</ele>
        <time>2016-10-29T08:02:09Z</time>
      </trkpt>
      <trkpt lat="42.341889000" lon="-2.636903000">
        <ele>1098.80</ele>
        <time>2016-10-29T08:02:10Z</time>
      </trkpt>
      <trkpt lat="42.341872000" lon="-2.636894000">
        <ele>1098.80</ele>
        <time>2016-10-29T08:02:11Z</time>
      </trkpt>
      <trkpt lat="42.341868000" lon="-2.636894000">
        <ele>1098.80</ele>
        <time>2016-10-29T08:02:12Z</time>
      </trkpt>
      <trkpt lat="42.341862000" lon="-2.636894000">
        <ele>1098.80</ele>
        <time>2016-10-29T08:02:14Z</time>
      </trkpt>
      <trkpt lat="42.341862000" lon="-2.636896000">
        <ele>1098.90</ele>
        <time>2016-10-29T08:02:15Z</time>
      </trkpt>
      <trkpt lat="42.341861000" lon="-2.636894000">
        <ele>1098.90</ele>
        <time>2016-10-29T08:02:16Z</time>
      </trkpt>
      <trkpt lat="42.341860000" lon="-2.636891000">
        <ele>1099.00</ele>
        <time>2016-10-29T08:02:17Z</time>
      </trkpt>
      <trkpt lat="42.341862000" lon="-2.636890000">
        <ele>1099.00</ele>
        <time>2016-10-29T08:02:18Z</time>
      </trkpt>
      <trkpt lat="42.341862000" lon="-2.636896000">
        <ele>1099.00</ele>
        <time>2016-10-29T08:02:19Z</time>
      </trkpt>
      <trkpt lat="42.341864000" lon="-2.636899000">
        <ele>1099.10</ele>
        <time>2016-10-29T08:02:20Z</time>
      </trkpt>
      <trkpt lat="42.341865000" lon="-2.636903000">
        <ele>1099.10</ele>
        <time>2016-10-29T08:02:21Z</time>
      </trkpt>
      <trkpt lat="42.341864000" lon="-2.636905000">
        <ele>1099.10</ele>
        <time>2016-10-29T08:02:22Z</time>
      </trkpt>
      <trkpt lat="42.341861000" lon="-2.636906000">
        <ele>1099.20</ele>
        <time>2016-10-29T08:02:23Z</time>
      </trkpt>
      <trkpt lat="42.341860000" lon="-2.636908000">
        <ele>1099.20</ele>
        <time>2016-10-29T08:02:24Z</time>
      </trkpt>
      <trkpt lat="42.341859000" lon="-2.636910000">
        <ele>1099.20</ele>
        <time>2016-10-29T08:02:25Z</time>
      </trkpt>
      <trkpt lat="42.341859000" lon="-2.636915000">
        <ele>1099.20</ele>
        <time>2016-10-29T08:02:26Z</time>
      </trkpt>
      <trkpt lat="42.341856000" lon="-2.636923000">
        <ele>1099.30</ele>
        <time>2016-10-29T08:02:27Z</time>
      </trkpt>
      <trkpt lat="42.341861000" lon="-2.636933000">
        <ele>1099.10</ele>
        <time>2016-10-29T08:02:28Z</time>
      </trkpt>
      <trkpt lat="42.341866000" lon="-2.636944000">
        <ele>1099.00</ele>
        <time>2016-10-29T08:02:29Z</time>
      </trkpt>
      <trkpt lat="42.341869000" lon="-2.636953000">
        <ele>1099.00</ele>
        <time>2016-10-29T08:02:30Z</time>
      </trkpt>
      <trkpt lat="42.341873000" lon="-2.636961000">
        <ele>1099.10</ele>
        <time>2016-10-29T08:02:31Z</time>
      </trkpt>
      <trkpt lat="42.341878000" lon="-2.636970000">
        <ele>1099.10</ele>
        <time>2016-10-29T08:02:32Z</time>
      </trkpt>
      <trkpt lat="42.341879000" lon="-2.636976000">
        <ele>1099.10</ele>
        <time>2016-10-29T08:02:33Z</time>
      </trkpt>
      <trkpt lat="42.341879000" lon="-2.636980000">
        <ele>1099.10</ele>
        <time>2016-10-29T08:02:34Z</time>
      </trkpt>
      <trkpt lat="42.341878000" lon="-2.636985000">
        <ele>1099.20</ele>
        <time>2016-10-29T08:02:35Z</time>
      </trkpt>
      <trkpt lat="42.341881000" lon="-2.636989000">
        <ele>1099.20</ele>
        <time>2016-10-29T08:02:36Z</time>
      </trkpt>
      <trkpt lat="42.341882000" lon="-2.636988000">
        <ele>1099.20</ele>
        <time>2016-10-29T08:02:37Z</time>
      </trkpt>
      <trkpt lat="42.341884000" lon="-2.636989000">
        <ele>1099.20</ele>
        <time>2016-10-29T08:02:38Z</time>
      </trkpt>
      <trkpt lat="42.341885000" lon="-2.636996000">
        <ele>1099.10</ele>
        <time>2016-10-29T08:02:39Z</time>
      </trkpt>
      <trkpt lat="42.341885000" lon="-2.637003000">
        <ele>1099.10</ele>
        <time>2016-10-29T08:02:40Z</time>
      </trkpt>
      <trkpt lat="42.341883000" lon="-2.637009000">
        <ele>1099.10</ele>
        <time>2016-10-29T08:02:41Z</time>
      </trkpt>
      <trkpt lat="42.341885000" lon="-2.637014000">
        <ele>1099.10</ele>
        <time>2016-10-29T08:02:42Z</time>
      </trkpt>
      <trkpt lat="42.341886000" lon="-2.637020000">
        <ele>1099.10</ele>
        <time>2016-10-29T08:02:43Z</time>
      </trkpt>
      <trkpt lat="42.341887000" lon="-2.637026000">
        <ele>1099.20</ele>
        <time>2016-10-29T08:02:44Z</time>
      </trkpt>
      <trkpt lat="42.341886000" lon="-2.637033000">
        <ele>1099.30</ele>
        <time>2016-10-29T08:02:45Z</time>
      </trkpt>
      <trkpt lat="42.341886000" lon="-2.637040000">
        <ele>1099.50</ele>
        <time>2016-10-29T08:02:46Z</time>
      </trkpt>
      <trkpt lat="42.341888000" lon="-2.637044000">
        <ele>1099.60</ele>
        <time>2016-10-29T08:02:47Z</time>
      </trkpt>
      <trkpt lat="42.341892000" lon="-2.637046000">
        <ele>1099.70</ele>
        <time>2016-10-29T08:02:48Z</time>
      </trkpt>
      <trkpt lat="42.341898000" lon="-2.637044000">
        <ele>1099.80</ele>
        <time>2016-10-29T08:02:49Z</time>
      </trkpt>
      <trkpt lat="42.341903000" lon="-2.637046000">
        <ele>1099.70</ele>
        <time>2016-10-29T08:02:50Z</time>
      </trkpt>
      <trkpt lat="42.341906000" lon="-2.637042000">
        <ele>1099.70</ele>
        <time>2016-10-29T08:02:51Z</time>
      </trkpt>
      <trkpt lat="42.341906000" lon="-2.637038000">
        <ele>1099.70</ele>
        <time>2016-10-29T08:02:52Z</time>
      </trkpt>
      <trkpt lat="42.341905000" lon="-2.637037000">
        <ele>1099.60</ele>
        <time>2016-10-29T08:02:53Z</time>
      </trkpt>
      <trkpt lat="42.341904000" lon="-2.637034000">
        <ele>1099.60</ele>
        <time>2016-10-29T08:02:54Z</time>
      </trkpt>
      <trkpt lat="42.341899000" lon="-2.637031000">
        <ele>1099.60</ele>
        <time>2016-10-29T08:02:55Z</time>
      </trkpt>
      <trkpt lat="42.341896000" lon="-2.637026000">
        <ele>1099.60</ele>
        <time>2016-10-29T08:02:56Z</time>
      </trkpt>
      <trkpt lat="42.341893000" lon="-2.637020000">
        <ele>1099.60</ele>
        <time>2016-10-29T08:02:57Z</time>
      </trkpt>
      <trkpt lat="42.341892000" lon="-2.637012000">
        <ele>1099.50</ele>
        <time>2016-10-29T08:02:58Z</time>
      </trkpt>
      <trkpt lat="42.341891000" lon="-2.637006000">
        <ele>1099.50</ele>
        <time>2016-10-29T08:02:59Z</time>
      </trkpt>
      <trkpt lat="42.341892000" lon="-2.636998000">
        <ele>1099.50</ele>
        <time>2016-10-29T08:03:00Z</time>
      </trkpt>
      <trkpt lat="42.341892000" lon="-2.636992000">
        <ele>1099.50</ele>
        <time>2016-10-29T08:03:01Z</time>
      </trkpt>
      <trkpt lat="42.341894000" lon="-2.636984000">
        <ele>1099.40</ele>
        <time>2016-10-29T08:03:02Z</time>
      </trkpt>
      <trkpt lat="42.341896000" lon="-2.636976000">
        <ele>1099.40</ele>
        <time>2016-10-29T08:03:03Z</time>
      </trkpt>
      <trkpt lat="42.341897000" lon="-2.636971000">
        <ele>1099.40</ele>
        <time>2016-10-29T08:03:04Z</time>
      </trkpt>
      <trkpt lat="42.341898000" lon="-2.636971000">
        <ele>1099.40</ele>
        <time>2016-10-29T08:03:05Z</time>
      </trkpt>
      <trkpt lat="42.341899000" lon="-2.636971000">
        <ele>1099.40</ele>
        <time>2016-10-29T08:03:06Z</time>
      </trkpt>
      <trkpt lat="42.341903000" lon="-2.636967000">
        <ele>1099.50</ele>
        <time>2016-10-29T08:03:07Z</time>
      </trkpt>
      <trkpt lat="42.341909000" lon="-2.636963000">
        <ele>1099.50</ele>
        <time>2016-10-29T08:03:08Z</time>
      </trkpt>
      <trkpt lat="42.341916000" lon="-2.636965000">
        <ele>1099.50</ele>
        <time>2016-10-29T08:03:09Z</time>
      </trkpt>
      <trkpt lat="42.341918000" lon="-2.636968000">
        <ele>1099.50</ele>
        <time>2016-10-29T08:03:10Z</time>
      </trkpt>
      <trkpt lat="42.341920000" lon="-2.636977000">
        <ele>1099.50</ele>
        <time>2016-10-29T08:03:11Z</time>
      </trkpt>
      <trkpt lat="42.341918000" lon="-2.636982000">
        <ele>1099.50</ele>
        <time>2016-10-29T08:03:12Z</time>
      </trkpt>
      <trkpt lat="42.341918000" lon="-2.636992000">
        <ele>1099.50</ele>
        <time>2016-10-29T08:03:13Z</time>
      </trkpt>
      <trkpt lat="42.341923000" lon="-2.636994000">
        <ele>1099.50</ele>
        <time>2016-10-29T08:03:14Z</time>
      </trkpt>
      <trkpt lat="42.341931000" lon="-2.637006000">
        <ele>1099.60</ele>
        <time>2016-10-29T08:03:16Z</time>
      </trkpt>
      <trkpt lat="42.341934000" lon="-2.637013000">
        <ele>1099.60</ele>
        <time>2016-10-29T08:03:17Z</time>
      </trkpt>
      <trkpt lat="42.341936000" lon="-2.637015000">
        <ele>1099.60</ele>
        <time>2016-10-29T08:03:18Z</time>
      </trkpt>
      <trkpt lat="42.341940000" lon="-2.637016000">
        <ele>1099.70</ele>
        <time>2016-10-29T08:03:19Z</time>
      </trkpt>
      <trkpt lat="42.341943000" lon="-2.637016000">
        <ele>1099.70</ele>
        <time>2016-10-29T08:03:20Z</time>
      </trkpt>
      <trkpt lat="42.341940000" lon="-2.637017000">
        <ele>1099.70</ele>
        <time>2016-10-29T08:03:21Z</time>
      </trkpt>
      <trkpt lat="42.341942000" lon="-2.637013000">
        <ele>1099.80</ele>
        <time>2016-10-29T08:03:22Z</time>
      </trkpt>
      <trkpt lat="42.341947000" lon="-2.637009000">
        <ele>1099.80</ele>
        <time>2016-10-29T08:03:23Z</time>
      </trkpt>
      <trkpt lat="42.341955000" lon="-2.637003000">
        <ele>1099.80</ele>
        <time>2016-10-29T08:03:24Z</time>
      </trkpt>
      <trkpt lat="42.341962000" lon="-2.637000000">
        <ele>1099.80</ele>
        <time>2016-10-29T08:03:25Z</time>
      </trkpt>
      <trkpt lat="42.341969000" lon="-2.636999000">
        <ele>1099.90</ele>
        <time>2016-10-29T08:03:26Z</time>
      </trkpt>
      <trkpt lat="42.341978000" lon="-2.636999000">
        <ele>1099.90</ele>
        <time>2016-10-29T08:03:27Z</time>
      </trkpt>
      <trkpt lat="42.341986000" lon="-2.636998000">
        <ele>1099.90</ele>
        <time>2016-10-29T08:03:28Z</time>
      </trkpt>
      <trkpt lat="42.341992000" lon="-2.636998000">
        <ele>1099.90</ele>
        <time>2016-10-29T08:03:29Z</time>
      </trkpt>
      <trkpt lat="42.341995000" lon="-2.636996000">
        <ele>1099.90</ele>
        <time>2016-10-29T08:03:30Z</time>
      </trkpt>
      <trkpt lat="42.341998000" lon="-2.636993000">
        <ele>1099.90</ele>
        <time>2016-10-29T08:03:31Z</time>
      </trkpt>
      <trkpt lat="42.342002000" lon="-2.636990000">
        <ele>1099.90</ele>
        <time>2016-10-29T08:03:32Z</time>
      </trkpt>
      <trkpt lat="42.342004000" lon="-2.636988000">
        <ele>1100.00</ele>
        <time>2016-10-29T08:03:33Z</time>
      </trkpt>
      <trkpt lat="42.342007000" lon="-2.636988000">
        <ele>1099.90</ele>
        <time>2016-10-29T08:03:34Z</time>
      </trkpt>
      <trkpt lat="42.342009000" lon="-2.636985000">
        <ele>1099.90</ele>
        <time>2016-10-29T08:03:35Z</time>
      </trkpt>
      <trkpt lat="42.342008000" lon="-2.636982000">
        <ele>1100.00</ele>
        <time>2016-10-29T08:03:36Z</time>
      </trkpt>
      <trkpt lat="42.342007000" lon="-2.636981000">
        <ele>1100.10</ele>
        <time>2016-10-29T08:03:37Z</time>
      </trkpt>
      <trkpt lat="42.342005000" lon="-2.636979000">
        <ele>1100.20</ele>
        <time>2016-10-29T08:03:38Z</time>
      </trkpt>
      <trkpt lat="42.342006000" lon="-2.636980000">
        <ele>1100.20</ele>
        <time>2016-10-29T08:03:39Z</time>
      </trkpt>
      <trkpt lat="42.342003000" lon="-2.636981000">
        <ele>1100.30</ele>
        <time>2016-10-29T08:03:40Z</time>
      </trkpt>
      <trkpt lat="42.342001000" lon="-2.636982000">
        <ele>1100.30</ele>
        <time>2016-10-29T08:03:41Z</time>
      </trkpt>
      <trkpt lat="42.341998000" lon="-2.636982000">
        <ele>1100.30</ele>
        <time>2016-10-29T08:03:42Z</time>
      </trkpt>
      <trkpt lat="42.341996000" lon="-2.636982000">
        <ele>1100.30</ele>
        <time>2016-10-29T08:03:43Z</time>
      </trkpt>
      <trkpt lat="42.341994000" lon="-2.636983000">
        <ele>1100.30</ele>
        <time>2016-10-29T08:03:44Z</time>
      </trkpt>
      <trkpt lat="42.341990000" lon="-2.636979000">
        <ele>1100.30</ele>
        <time>2016-10-29T08:03:45Z</time>
      </trkpt>
      <trkpt lat="42.341987000" lon="-2.636980000">
        <ele>1100.30</ele>
        <time>2016-10-29T08:03:46Z</time>
      </trkpt>
      <trkpt lat="42.341982000" lon="-2.636975000">
        <ele>1100.20</ele>
        <time>2016-10-29T08:03:47Z</time>
      </trkpt>
      <trkpt lat="42.341979000" lon="-2.636971000">
        <ele>1100.30</ele>
        <time>2016-10-29T08:03:48Z</time>
      </trkpt>
      <trkpt lat="42.341975000" lon="-2.636969000">
        <ele>1100.30</ele>
        <time>2016-10-29T08:03:49Z</time>
      </trkpt>
      <trkpt lat="42.341972000" lon="-2.636969000">
        <ele>1100.20</ele>
        <time>2016-10-29T08:03:50Z</time>
      </trkpt>
      <trkpt lat="42.341970000" lon="-2.636971000">
        <ele>1100.20</ele>
        <time>2016-10-29T08:03:51Z</time>
      </trkpt>
      <trkpt lat="42.341967000" lon="-2.636971000">
        <ele>1100.20</ele>
        <time>2016-10-29T08:03:52Z</time>
      </trkpt>
      <trkpt lat="42.341965000" lon="-2.636970000">
        <ele>1100.30</ele>
        <time>2016-10-29T08:03:53Z</time>
      </trkpt>
      <trkpt lat="42.341962000" lon="-2.636972000">
        <ele>1100.20</ele>
        <time>2016-10-29T08:03:54Z</time>
      </trkpt>
      <trkpt lat="42.341961000" lon="-2.636980000">
        <ele>1100.20</ele>
        <time>2016-10-29T08:03:55Z</time>
      </trkpt>
      <trkpt lat="42.341961000" lon="-2.636986000">
        <ele>1100.20</ele>
        <time>2016-10-29T08:03:56Z</time>
      </trkpt>
      <trkpt lat="42.341963000" lon="-2.636993000">
        <ele>1100.30</ele>
        <time>2016-10-29T08:03:57Z</time>
      </trkpt>
      <trkpt lat="42.341961000" lon="-2.636994000">
        <ele>1100.20</ele>
        <time>2016-10-29T08:03:58Z</time>
      </trkpt>
      <trkpt lat="42.341960000" lon="-2.636995000">
        <ele>1100.20</ele>
        <time>2016-10-29T08:03:59Z</time>
      </trkpt>
      <trkpt lat="42.341963000" lon="-2.636994000">
        <ele>1100.30</ele>
        <time>2016-10-29T08:04:00Z</time>
      </trkpt>
      <trkpt lat="42.341966000" lon="-2.636993000">
        <ele>1100.30</ele>
        <time>2016-10-29T08:04:01Z</time>
      </trkpt>
      <trkpt lat="42.341967000" lon="-2.636993000">
        <ele>1100.20</ele>
        <time>2016-10-29T08:04:02Z</time>
      </trkpt>
      <trkpt lat="42.341968000" lon="-2.636993000">
        <ele>1100.10</ele>
        <time>2016-10-29T08:04:03Z</time>
      </trkpt>
      <trkpt lat="42.341966000" lon="-2.636988000">
        <ele>1100.10</ele>
        <time>2016-10-29T08:04:04Z</time>
      </trkpt>
      <trkpt lat="42.341965000" lon="-2.636983000">
        <ele>1100.10</ele>
        <time>2016-10-29T08:04:05Z</time>
      </trkpt>
      <trkpt lat="42.341965000" lon="-2.636977000">
        <ele>1100.00</ele>
        <time>2016-10-29T08:04:06Z</time>
      </trkpt>
      <trkpt lat="42.341964000" lon="-2.636967000">
        <ele>1100.00</ele>
        <time>2016-10-29T08:04:07Z</time>
      </trkpt>
      <trkpt lat="42.341962000" lon="-2.636959000">
        <ele>1100.00</ele>
        <time>2016-10-29T08:04:08Z</time>
      </trkpt>
      <trkpt lat="42.341960000" lon="-2.636956000">
        <ele>1100.00</ele>
        <time>2016-10-29T08:04:09Z</time>
      </trkpt>
      <trkpt lat="42.341961000" lon="-2.636954000">
        <ele>1100.10</ele>
        <time>2016-10-29T08:04:10Z</time>
      </trkpt>
      <trkpt lat="42.341959000" lon="-2.636952000">
        <ele>1100.10</ele>
        <time>2016-10-29T08:04:11Z</time>
      </trkpt>
      <trkpt lat="42.341953000" lon="-2.636950000">
        <ele>1100.10</ele>
        <time>2016-10-29T08:04:12Z</time>
      </trkpt>
      <trkpt lat="42.341946000" lon="-2.636950000">
        <ele>1100.10</ele>
        <time>2016-10-29T08:04:13Z</time>
      </trkpt>
      <trkpt lat="42.341941000" lon="-2.636947000">
        <ele>1100.10</ele>
        <time>2016-10-29T08:04:14Z</time>
      </trkpt>
      <trkpt lat="42.341935000" lon="-2.636948000">
        <ele>1100.10</ele>
        <time>2016-10-29T08:04:15Z</time>
      </trkpt>
      <trkpt lat="42.341930000" lon="-2.636954000">
        <ele>1100.10</ele>
        <time>2016-10-29T08:04:16Z</time>
      </trkpt>
      <trkpt lat="42.341919000" lon="-2.636960000">
        <ele>1100.10</ele>
        <time>2016-10-29T08:04:18Z</time>
      </trkpt>
      <trkpt lat="42.341912000" lon="-2.636963000">
        <ele>1100.10</ele>
        <time>2016-10-29T08:04:19Z</time>
      </trkpt>
      <trkpt lat="42.341907000" lon="-2.636964000">
        <ele>1100.20</ele>
        <time>2016-10-29T08:04:20Z</time>
      </trkpt>
      <trkpt lat="42.341903000" lon="-2.636967000">
        <ele>1100.30</ele>
        <time>2016-10-29T08:04:21Z</time>
      </trkpt>
      <trkpt lat="42.341900000" lon="-2.636971000">
        <ele>1100.30</ele>
        <time>2016-10-29T08:04:22Z</time>
      </trkpt>
      <trkpt lat="42.341898000" lon="-2.636974000">
        <ele>1100.30</ele>
        <time>2016-10-29T08:04:23Z</time>
      </trkpt>
      <trkpt lat="42.341897000" lon="-2.636976000">
        <ele>1100.40</ele>
        <time>2016-10-29T08:04:24Z</time>
      </trkpt>
      <trkpt lat="42.341896000" lon="-2.636977000">
        <ele>1100.40</ele>
        <time>2016-10-29T08:04:25Z</time>
      </trkpt>
      <trkpt lat="42.341895000" lon="-2.636975000">
        <ele>1100.40</ele>
        <time>2016-10-29T08:04:26Z</time>
      </trkpt>
      <trkpt lat="42.341890000" lon="-2.636965000">
        <ele>1100.50</ele>
        <time>2016-10-29T08:04:27Z</time>
      </trkpt>
      <trkpt lat="42.341885000" lon="-2.636959000">
        <ele>1100.60</ele>
        <time>2016-10-29T08:04:28Z</time>
      </trkpt>
      <trkpt lat="42.341881000" lon="-2.636952000">
        <ele>1100.70</ele>
        <time>2016-10-29T08:04:29Z</time>
      </trkpt>
      <trkpt lat="42.341881000" lon="-2.636949000">
        <ele>1100.60</ele>
        <time>2016-10-29T08:04:30Z</time>
      </trkpt>
      <trkpt lat="42.341876000" lon="-2.636945000">
        <ele>1100.50</ele>
        <time>2016-10-29T08:04:31Z</time>
      </trkpt>
      <trkpt lat="42.341871000" lon="-2.636945000">
        <ele>1100.50</ele>
        <time>2016-10-29T08:04:32Z</time>
      </trkpt>
      <trkpt lat="42.341870000" lon="-2.636946000">
        <ele>1100.60</ele>
        <time>2016-10-29T08:04:33Z</time>
      </trkpt>
      <trkpt lat="42.341872000" lon="-2.636947000">
        <ele>1100.50</ele>
        <time>2016-10-29T08:04:34Z</time>
      </trkpt>
      <trkpt lat="42.341875000" lon="-2.636949000">
        <ele>1100.50</ele>
        <time>2016-10-29T08:04:35Z</time>
      </trkpt>
      <trkpt lat="42.341882000" lon="-2.636949000">
        <ele>1100.50</ele>
        <time>2016-10-29T08:04:36Z</time>
      </trkpt>
      <trkpt lat="42.341890000" lon="-2.636955000">
        <ele>1100.50</ele>
        <time>2016-10-29T08:04:37Z</time>
      </trkpt>
      <trkpt lat="42.341895000" lon="-2.636955000">
        <ele>1100.60</ele>
        <time>2016-10-29T08:04:38Z</time>
      </trkpt>
      <trkpt lat="42.341900000" lon="-2.636950000">
        <ele>1100.60</ele>
        <time>2016-10-29T08:04:39Z</time>
      </trkpt>
      <trkpt lat="42.341899000" lon="-2.636951000">
        <ele>1100.70</ele>
        <time>2016-10-29T08:04:40Z</time>
      </trkpt>
      <trkpt lat="42.341901000" lon="-2.636952000">
        <ele>1100.80</ele>
        <time>2016-10-29T08:04:41Z</time>
      </trkpt>
      <trkpt lat="42.341903000" lon="-2.636951000">
        <ele>1100.80</ele>
        <time>2016-10-29T08:04:42Z</time>
      </trkpt>
      <trkpt lat="42.341908000" lon="-2.636951000">
        <ele>1100.90</ele>
        <time>2016-10-29T08:04:43Z</time>
      </trkpt>
      <trkpt lat="42.341910000" lon="-2.636949000">
        <ele>1100.90</ele>
        <time>2016-10-29T08:04:44Z</time>
      </trkpt>
      <trkpt lat="42.341912000" lon="-2.636946000">
        <ele>1100.90</ele>
        <time>2016-10-29T08:04:45Z</time>
      </trkpt>
      <trkpt lat="42.341912000" lon="-2.636944000">
        <ele>1101.00</ele>
        <time>2016-10-29T08:04:46Z</time>
      </trkpt>
      <trkpt lat="42.341911000" lon="-2.636946000">
        <ele>1101.00</ele>
        <time>2016-10-29T08:04:47Z</time>
      </trkpt>
      <trkpt lat="42.341910000" lon="-2.636947000">
        <ele>1101.00</ele>
        <time>2016-10-29T08:04:48Z</time>
      </trkpt>
      <trkpt lat="42.341912000" lon="-2.636947000">
        <ele>1101.00</ele>
        <time>2016-10-29T08:04:49Z</time>
      </trkpt>
      <trkpt lat="42.341915000" lon="-2.636947000">
        <ele>1101.10</ele>
        <time>2016-10-29T08:04:50Z</time>
      </trkpt>
      <trkpt lat="42.341914000" lon="-2.636946000">
        <ele>1101.20</ele>
        <time>2016-10-29T08:04:51Z</time>
      </trkpt>
      <trkpt lat="42.341915000" lon="-2.636944000">
        <ele>1101.30</ele>
        <time>2016-10-29T08:04:52Z</time>
      </trkpt>
      <trkpt lat="42.341915000" lon="-2.636945000">
        <ele>1101.40</ele>
        <time>2016-10-29T08:04:53Z</time>
      </trkpt>
      <trkpt lat="42.341916000" lon="-2.636945000">
        <ele>1101.50</ele>
        <time>2016-10-29T08:04:54Z</time>
      </trkpt>
      <trkpt lat="42.341917000" lon="-2.636946000">
        <ele>1101.50</ele>
        <time>2016-10-29T08:04:55Z</time>
      </trkpt>
      <trkpt lat="42.341918000" lon="-2.636950000">
        <ele>1101.40</ele>
        <time>2016-10-29T08:04:56Z</time>
      </trkpt>
      <trkpt lat="42.341920000" lon="-2.636953000">
        <ele>1101.40</ele>
        <time>2016-10-29T08:04:57Z</time>
      </trkpt>
      <trkpt lat="42.341922000" lon="-2.636958000">
        <ele>1101.30</ele>
        <time>2016-10-29T08:04:58Z</time>
      </trkpt>
      <trkpt lat="42.341926000" lon="-2.636963000">
        <ele>1101.30</ele>
        <time>2016-10-29T08:04:59Z</time>
      </trkpt>
      <trkpt lat="42.341926000" lon="-2.636961000">
        <ele>1101.30</ele>
        <time>2016-10-29T08:05:00Z</time>
      </trkpt>
      <trkpt lat="42.341926000" lon="-2.636961000">
        <ele>1101.30</ele>
        <time>2016-10-29T08:05:01Z</time>
      </trkpt>
      <trkpt lat="42.341927000" lon="-2.636962000">
        <ele>1101.30</ele>
        <time>2016-10-29T08:05:02Z</time>
      </trkpt>
      <trkpt lat="42.341927000" lon="-2.636963000">
        <ele>1101.40</ele>
        <time>2016-10-29T08:05:03Z</time>
      </trkpt>
      <trkpt lat="42.341927000" lon="-2.636958000">
        <ele>1101.40</ele>
        <time>2016-10-29T08:05:04Z</time>
      </trkpt>
      <trkpt lat="42.341928000" lon="-2.636950000">
        <ele>1101.50</ele>
        <time>2016-10-29T08:05:05Z</time>
      </trkpt>
      <trkpt lat="42.341929000" lon="-2.636945000">
        <ele>1101.50</ele>
        <time>2016-10-29T08:05:06Z</time>
      </trkpt>
      <trkpt lat="42.341928000" lon="-2.636944000">
        <ele>1101.50</ele>
        <time>2016-10-29T08:05:07Z</time>
      </trkpt>
      <trkpt lat="42.341928000" lon="-2.636946000">
        <ele>1101.50</ele>
        <time>2016-10-29T08:05:08Z</time>
      </trkpt>
      <trkpt lat="42.341926000" lon="-2.636949000">
        <ele>1101.60</ele>
        <time>2016-10-29T08:05:09Z</time>
      </trkpt>
      <trkpt lat="42.341925000" lon="-2.636950000">
        <ele>1101.40</ele>
        <time>2016-10-29T08:05:10Z</time>
      </trkpt>
      <trkpt lat="42.341927000" lon="-2.636953000">
        <ele>1101.30</ele>
        <time>2016-10-29T08:05:11Z</time>
      </trkpt>
      <trkpt lat="42.341929000" lon="-2.636961000">
        <ele>1101.30</ele>
        <time>2016-10-29T08:05:12Z</time>
      </trkpt>
      <trkpt lat="42.341931000" lon="-2.636970000">
        <ele>1101.20</ele>
        <time>2016-10-29T08:05:13Z</time>
      </trkpt>
      <trkpt lat="42.341931000" lon="-2.636975000">
        <ele>1101.20</ele>
        <time>2016-10-29T08:05:14Z</time>
      </trkpt>
      <trkpt lat="42.341929000" lon="-2.636979000">
        <ele>1101.20</ele>
        <time>2016-10-29T08:05:15Z</time>
      </trkpt>
      <trkpt lat="42.341929000" lon="-2.636985000">
        <ele>1101.50</ele>
        <time>2016-10-29T08:05:16Z</time>
      </trkpt>
      <trkpt lat="42.341931000" lon="-2.636985000">
        <ele>1101.70</ele>
        <time>2016-10-29T08:05:17Z</time>
      </trkpt>
      <trkpt lat="42.341934000" lon="-2.636988000">
        <ele>1101.80</ele>
        <time>2016-10-29T08:05:18Z</time>
      </trkpt>
      <trkpt lat="42.341932000" lon="-2.636996000">
        <ele>1101.80</ele>
        <time>2016-10-29T08:05:20Z</time>
      </trkpt>
      <trkpt lat="42.341932000" lon="-2.637001000">
        <ele>1101.70</ele>
        <time>2016-10-29T08:05:21Z</time>
      </trkpt>
      <trkpt lat="42.341931000" lon="-2.637004000">
        <ele>1101.70</ele>
        <time>2016-10-29T08:05:22Z</time>
      </trkpt>
      <trkpt lat="42.341932000" lon="-2.637006000">
        <ele>1101.60</ele>
        <time>2016-10-29T08:05:23Z</time>
      </trkpt>
      <trkpt lat="42.341932000" lon="-2.637008000">
        <ele>1101.60</ele>
        <time>2016-10-29T08:05:24Z</time>
      </trkpt>
      <trkpt lat="42.341931000" lon="-2.637007000">
        <ele>1101.60</ele>
        <time>2016-10-29T08:05:25Z</time>
      </trkpt>
      <trkpt lat="42.341933000" lon="-2.637007000">
        <ele>1101.60</ele>
        <time>2016-10-29T08:05:26Z</time>
      </trkpt>
      <trkpt lat="42.341932000" lon="-2.637005000">
        <ele>1101.60</ele>
        <time>2016-10-29T08:05:27Z</time>
      </trkpt>
      <trkpt lat="42.341933000" lon="-2.637007000">
        <ele>1101.50</ele>
        <time>2016-10-29T08:05:28Z</time>
      </trkpt>
      <trkpt lat="42.341932000" lon="-2.637007000">
        <ele>1101.50</ele>
        <time>2016-10-29T08:05:29Z</time>
      </trkpt>
      <trkpt lat="42.341933000" lon="-2.637008000">
        <ele>1101.40</ele>
        <time>2016-10-29T08:05:30Z</time>
      </trkpt>
      <trkpt lat="42.341937000" lon="-2.637015000">
        <ele>1101.30</ele>
        <time>2016-10-29T08:05:31Z</time>
      </trkpt>
      <trkpt lat="42.341940000" lon="-2.637017000">
        <ele>1101.30</ele>
        <time>2016-10-29T08:05:32Z</time>
      </trkpt>
      <trkpt lat="42.341943000" lon="-2.637019000">
        <ele>1101.30</ele>
        <time>2016-10-29T08:05:33Z</time>
      </trkpt>
      <trkpt lat="42.341947000" lon="-2.637022000">
        <ele>1101.30</ele>
        <time>2016-10-29T08:05:34Z</time>
      </trkpt>
      <trkpt lat="42.341947000" lon="-2.637024000">
        <ele>1101.40</ele>
        <time>2016-10-29T08:05:35Z</time>
      </trkpt>
      <trkpt lat="42.341951000" lon="-2.637023000">
        <ele>1101.40</ele>
        <time>2016-10-29T08:05:36Z</time>
      </trkpt>
      <trkpt lat="42.341954000" lon="-2.637024000">
        <ele>1101.40</ele>
        <time>2016-10-29T08:05:37Z</time>
      </trkpt>
      <trkpt lat="42.341955000" lon="-2.637024000">
        <ele>1101.40</ele>
        <time>2016-10-29T08:05:38Z</time>
      </trkpt>
      <trkpt lat="42.341956000" lon="-2.637024000">
        <ele>1101.40</ele>
        <time>2016-10-29T08:05:39Z</time>
      </trkpt>
      <trkpt lat="42.341955000" lon="-2.637025000">
        <ele>1101.40</ele>
        <time>2016-10-29T08:05:40Z</time>
      </trkpt>
      <trkpt lat="42.341955000" lon="-2.637029000">
        <ele>1101.40</ele>
        <time>2016-10-29T08:05:41Z</time>
      </trkpt>
      <trkpt lat="42.341949000" lon="-2.637031000">
        <ele>1101.60</ele>
        <time>2016-10-29T08:05:42Z</time>
      </trkpt>
      <trkpt lat="42.341944000" lon="-2.637032000">
        <ele>1101.70</ele>
        <time>2016-10-29T08:05:43Z</time>
      </trkpt>
      <trkpt lat="42.341939000" lon="-2.637034000">
        <ele>1101.80</ele>
        <time>2016-10-29T08:05:44Z</time>
      </trkpt>
      <trkpt lat="42.341933000" lon="-2.637036000">
        <ele>1101.90</ele>
        <time>2016-10-29T08:05:45Z</time>
      </trkpt>
      <trkpt lat="42.341927000" lon="-2.637033000">
        <ele>1101.90</ele>
        <time>2016-10-29T08:05:46Z</time>
      </trkpt>
      <trkpt lat="42.341921000" lon="-2.637035000">
        <ele>1102.00</ele>
        <time>2016-10-29T08:05:47Z</time>
      </trkpt>
      <trkpt lat="42.341918000" lon="-2.637035000">
        <ele>1102.00</ele>
        <time>2016-10-29T08:05:48Z</time>
      </trkpt>
      <trkpt lat="42.341915000" lon="-2.637036000">
        <ele>1102.00</ele>
        <time>2016-10-29T08:05:49Z</time>
      </trkpt>
      <trkpt lat="42.341911000" lon="-2.637039000">
        <ele>1101.90</ele>
        <time>2016-10-29T08:05:50Z</time>
      </trkpt>
      <trkpt lat="42.341909000" lon="-2.637044000">
        <ele>1101.90</ele>
        <time>2016-10-29T08:05:51Z</time>
      </trkpt>
      <trkpt lat="42.341913000" lon="-2.637046000">
        <ele>1101.80</ele>
        <time>2016-10-29T08:05:52Z</time>
      </trkpt>
      <trkpt lat="42.341919000" lon="-2.637046000">
        <ele>1101.80</ele>
        <time>2016-10-29T08:05:53Z</time>
      </trkpt>
      <trkpt lat="42.341926000" lon="-2.637045000">
        <ele>1101.90</ele>
        <time>2016-10-29T08:05:54Z</time>
      </trkpt>
      <trkpt lat="42.341930000" lon="-2.637044000">
        <ele>1102.00</ele>
        <time>2016-10-29T08:05:55Z</time>
      </trkpt>
      <trkpt lat="42.341929000" lon="-2.637045000">
        <ele>1102.00</ele>
        <time>2016-10-29T08:05:56Z</time>
      </trkpt>
      <trkpt lat="42.341931000" lon="-2.637046000">
        <ele>1102.10</ele>
        <time>2016-10-29T08:05:57Z</time>
      </trkpt>
      <trkpt lat="42.341936000" lon="-2.637042000">
        <ele>1102.10</ele>
        <time>2016-10-29T08:05:58Z</time>
      </trkpt>
      <trkpt lat="42.341942000" lon="-2.637035000">
        <ele>1102.20</ele>
        <time>2016-10-29T08:05:59Z</time>
      </trkpt>
      <trkpt lat="42.341942000" lon="-2.637037000">
        <ele>1102.30</ele>
        <time>2016-10-29T08:06:00Z</time>
      </trkpt>
      <trkpt lat="42.341943000" lon="-2.637039000">
        <ele>1102.50</ele>
        <time>2016-10-29T08:06:01Z</time>
      </trkpt>
      <trkpt lat="42.341941000" lon="-2.637041000">
        <ele>1102.60</ele>
        <time>2016-10-29T08:06:02Z</time>
      </trkpt>
      <trkpt lat="42.341940000" lon="-2.637044000">
        <ele>1102.60</ele>
        <time>2016-10-29T08:06:03Z</time>
      </trkpt>
      <trkpt lat="42.341939000" lon="-2.637044000">
        <ele>1102.60</ele>
        <time>2016-10-29T08:06:04Z</time>
      </trkpt>
      <trkpt lat="42.341936000" lon="-2.637042000">
        <ele>1102.60</ele>
        <time>2016-10-29T08:06:05Z</time>
      </trkpt>
      <trkpt lat="42.341935000" lon="-2.637041000">
        <ele>1102.50</ele>
        <time>2016-10-29T08:06:06Z</time>
      </trkpt>
      <trkpt lat="42.341933000" lon="-2.637041000">
        <ele>1102.40</ele>
        <time>2016-10-29T08:06:07Z</time>
      </trkpt>
      <trkpt lat="42.341929000" lon="-2.637037000">
        <ele>1102.30</ele>
        <time>2016-10-29T08:06:08Z</time>
      </trkpt>
      <trkpt lat="42.341926000" lon="-2.637042000">
        <ele>1102.20</ele>
        <time>2016-10-29T08:06:09Z</time>
      </trkpt>
      <trkpt lat="42.341927000" lon="-2.637044000">
        <ele>1102.10</ele>
        <time>2016-10-29T08:06:10Z</time>
      </trkpt>
      <trkpt lat="42.341925000" lon="-2.637043000">
        <ele>1102.00</ele>
        <time>2016-10-29T08:06:11Z</time>
      </trkpt>
      <trkpt lat="42.341921000" lon="-2.637037000">
        <ele>1102.00</ele>
        <time>2016-10-29T08:06:12Z</time>
      </trkpt>
      <trkpt lat="42.341917000" lon="-2.637032000">
        <ele>1102.00</ele>
        <time>2016-10-29T08:06:13Z</time>
      </trkpt>
      <trkpt lat="42.341912000" lon="-2.637025000">
        <ele>1101.90</ele>
        <time>2016-10-29T08:06:14Z</time>
      </trkpt>
      <trkpt lat="42.341914000" lon="-2.637014000">
        <ele>1101.80</ele>
        <time>2016-10-29T08:06:15Z</time>
      </trkpt>
      <trkpt lat="42.341916000" lon="-2.637003000">
        <ele>1101.90</ele>
        <time>2016-10-29T08:06:16Z</time>
      </trkpt>
      <trkpt lat="42.341917000" lon="-2.636994000">
        <ele>1102.00</ele>
        <time>2016-10-29T08:06:17Z</time>
      </trkpt>
      <trkpt lat="42.341912000" lon="-2.636984000">
        <ele>1102.10</ele>
        <time>2016-10-29T08:06:18Z</time>
      </trkpt>
      <trkpt lat="42.341910000" lon="-2.636976000">
        <ele>1102.10</ele>
        <time>2016-10-29T08:06:19Z</time>
      </trkpt>
      <trkpt lat="42.341908000" lon="-2.636970000">
        <ele>1102.10</ele>
        <time>2016-10-29T08:06:20Z</time>
      </trkpt>
      <trkpt lat="42.341906000" lon="-2.636960000">
        <ele>1102.30</ele>
        <time>2016-10-29T08:06:22Z</time>
      </trkpt>
      <trkpt lat="42.341905000" lon="-2.636955000">
        <ele>1102.40</ele>
        <time>2016-10-29T08:06:23Z</time>
      </trkpt>
      <trkpt lat="42.341904000" lon="-2.636952000">
        <ele>1102.30</ele>
        <time>2016-10-29T08:06:24Z</time>
      </trkpt>
      <trkpt lat="42.341905000" lon="-2.636949000">
        <ele>1102.30</ele>
        <time>2016-10-29T08:06:25Z</time>
      </trkpt>
      <trkpt lat="42.341906000" lon="-2.636948000">
        <ele>1102.20</ele>
        <time>2016-10-29T08:06:26Z</time>
      </trkpt>
      <trkpt lat="42.341899000" lon="-2.636945000">
        <ele>1102.20</ele>
        <time>2016-10-29T08:06:27Z</time>
      </trkpt>
      <trkpt lat="42.341893000" lon="-2.636944000">
        <ele>1102.20</ele>
        <time>2016-10-29T08:06:28Z</time>
      </trkpt>
      <trkpt lat="42.341895000" lon="-2.636949000">
        <ele>1102.10</ele>
        <time>2016-10-29T08:06:29Z</time>
      </trkpt>
      <trkpt lat="42.341896000" lon="-2.636955000">
        <ele>1102.10</ele>
        <time>2016-10-29T08:06:30Z</time>
      </trkpt>
      <trkpt lat="42.341890000" lon="-2.636958000">
        <ele>1102.10</ele>
        <time>2016-10-29T08:06:31Z</time>
      </trkpt>
      <trkpt lat="42.341889000" lon="-2.636966000">
        <ele>1102.30</ele>
        <time>2016-10-29T08:06:32Z</time>
      </trkpt>
      <trkpt lat="42.341885000" lon="-2.636969000">
        <ele>1102.40</ele>
        <time>2016-10-29T08:06:33Z</time>
      </trkpt>
      <trkpt lat="42.341883000" lon="-2.636971000">
        <ele>1102.50</ele>
        <time>2016-10-29T08:06:34Z</time>
      </trkpt>
      <trkpt lat="42.341882000" lon="-2.636973000">
        <ele>1102.50</ele>
        <time>2016-10-29T08:06:35Z</time>
      </trkpt>
      <trkpt lat="42.341882000" lon="-2.636975000">
        <ele>1102.60</ele>
        <time>2016-10-29T08:06:36Z</time>
      </trkpt>
      <trkpt lat="42.341887000" lon="-2.636979000">
        <ele>1102.60</ele>
        <time>2016-10-29T08:06:37Z</time>
      </trkpt>
      <trkpt lat="42.341891000" lon="-2.636983000">
        <ele>1102.60</ele>
        <time>2016-10-29T08:06:38Z</time>
      </trkpt>
      <trkpt lat="42.341897000" lon="-2.636985000">
        <ele>1102.60</ele>
        <time>2016-10-29T08:06:39Z</time>
      </trkpt>
      <trkpt lat="42.341904000" lon="-2.636992000">
        <ele>1102.60</ele>
        <time>2016-10-29T08:06:40Z</time>
      </trkpt>
      <trkpt lat="42.341909000" lon="-2.637000000">
        <ele>1102.60</ele>
        <time>2016-10-29T08:06:41Z</time>
      </trkpt>
      <trkpt lat="42.341914000" lon="-2.637007000">
        <ele>1102.60</ele>
        <time>2016-10-29T08:06:42Z</time>
      </trkpt>
      <trkpt lat="42.341917000" lon="-2.637011000">
        <ele>1102.60</ele>
        <time>2016-10-29T08:06:43Z</time>
      </trkpt>
      <trkpt lat="42.341921000" lon="-2.637015000">
        <ele>1102.60</ele>
        <time>2016-10-29T08:06:44Z</time>
      </trkpt>
      <trkpt lat="42.341926000" lon="-2.637021000">
        <ele>1102.60</ele>
        <time>2016-10-29T08:06:45Z</time>
      </trkpt>
      <trkpt lat="42.341931000" lon="-2.637028000">
        <ele>1102.60</ele>
        <time>2016-10-29T08:06:46Z</time>
      </trkpt>
      <trkpt lat="42.341936000" lon="-2.637037000">
        <ele>1102.60</ele>
        <time>2016-10-29T08:06:47Z</time>
      </trkpt>
      <trkpt lat="42.341943000" lon="-2.637045000">
        <ele>1102.60</ele>
        <time>2016-10-29T08:06:48Z</time>
      </trkpt>
      <trkpt lat="42.341949000" lon="-2.637055000">
        <ele>1102.60</ele>
        <time>2016-10-29T08:06:49Z</time>
      </trkpt>
      <trkpt lat="42.341955000" lon="-2.637063000">
        <ele>1102.60</ele>
        <time>2016-10-29T08:06:50Z</time>
      </trkpt>
      <trkpt lat="42.341955000" lon="-2.637070000">
        <ele>1102.60</ele>
        <time>2016-10-29T08:06:51Z</time>
      </trkpt>
      <trkpt lat="42.341954000" lon="-2.637076000">
        <ele>1102.60</ele>
        <time>2016-10-29T08:06:52Z</time>
      </trkpt>
      <trkpt lat="42.341951000" lon="-2.637080000">
        <ele>1102.70</ele>
        <time>2016-10-29T08:06:53Z</time>
      </trkpt>
      <trkpt lat="42.341947000" lon="-2.637081000">
        <ele>1102.60</ele>
        <time>2016-10-29T08:06:54Z</time>
      </trkpt>
      <trkpt lat="42.341943000" lon="-2.637081000">
        <ele>1102.60</ele>
        <time>2016-10-29T08:06:55Z</time>
      </trkpt>
      <trkpt lat="42.341939000" lon="-2.637080000">
        <ele>1102.60</ele>
        <time>2016-10-29T08:06:56Z</time>
      </trkpt>
      <trkpt lat="42.341934000" lon="-2.637080000">
        <ele>1102.70</ele>
        <time>2016-10-29T08:06:57Z</time>
      </trkpt>
      <trkpt lat="42.341930000" lon="-2.637080000">
        <ele>1102.70</ele>
        <time>2016-10-29T08:06:58Z</time>
      </trkpt>
      <trkpt lat="42.341926000" lon="-2.637080000">
        <ele>1102.80</ele>
        <time>2016-10-29T08:06:59Z</time>
      </trkpt>
      <trkpt lat="42.341921000" lon="-2.637079000">
        <ele>1102.80</ele>
        <time>2016-10-29T08:07:00Z</time>
      </trkpt>
      <trkpt lat="42.341918000" lon="-2.637078000">
        <ele>1102.80</ele>
        <time>2016-10-29T08:07:01Z</time>
      </trkpt>
      <trkpt lat="42.341917000" lon="-2.637076000">
        <ele>1102.90</ele>
        <time>2016-10-29T08:07:02Z</time>
      </trkpt>
      <trkpt lat="42.341914000" lon="-2.637072000">
        <ele>1103.00</ele>
        <time>2016-10-29T08:07:03Z</time>
      </trkpt>
      <trkpt lat="42.341913000" lon="-2.637066000">
        <ele>1103.00</ele>
        <time>2016-10-29T08:07:04Z</time>
      </trkpt>
      <trkpt lat="42.341913000" lon="-2.637068000">
        <ele>1103.10</ele>
        <time>2016-10-29T08:07:05Z</time>
      </trkpt>
      <trkpt lat="42.341914000" lon="-2.637067000">
        <ele>1103.10</ele>
        <time>2016-10-29T08:07:06Z</time>
      </trkpt>
      <trkpt lat="42.341916000" lon="-2.637067000">
        <ele>1103.20</ele>
        <time>2016-10-29T08:07:07Z</time>
      </trkpt>
      <trkpt lat="42.341916000" lon="-2.637069000">
        <ele>1103.20</ele>
        <time>2016-10-29T08:07:08Z</time>
      </trkpt>
      <trkpt lat="42.341914000" lon="-2.637072000">
        <ele>1103.30</ele>
        <time>2016-10-29T08:07:09Z</time>
      </trkpt>
      <trkpt lat="42.341911000" lon="-2.637073000">
        <ele>1103.30</ele>
        <time>2016-10-29T08:07:10Z</time>
      </trkpt>
      <trkpt lat="42.341910000" lon="-2.637075000">
        <ele>1103.30</ele>
        <time>2016-10-29T08:07:11Z</time>
      </trkpt>
      <trkpt lat="42.341909000" lon="-2.637076000">
        <ele>1103.30</ele>
        <time>2016-10-29T08:07:12Z</time>
      </trkpt>
      <trkpt lat="42.341907000" lon="-2.637077000">
        <ele>1103.40</ele>
        <time>2016-10-29T08:07:13Z</time>
      </trkpt>
      <trkpt lat="42.341905000" lon="-2.637076000">
        <ele>1103.30</ele>
        <time>2016-10-29T08:07:14Z</time>
      </trkpt>
      <trkpt lat="42.341902000" lon="-2.637071000">
        <ele>1103.30</ele>
        <time>2016-10-29T08:07:15Z</time>
      </trkpt>
      <trkpt lat="42.341899000" lon="-2.637065000">
        <ele>1103.30</ele>
        <time>2016-10-29T08:07:16Z</time>
      </trkpt>
      <trkpt lat="42.341897000" lon="-2.637059000">
        <ele>1103.30</ele>
        <time>2016-10-29T08:07:17Z</time>
      </trkpt>
      <trkpt lat="42.341890000" lon="-2.637051000">
        <ele>1103.30</ele>
        <time>2016-10-29T08:07:18Z</time>
      </trkpt>
      <trkpt lat="42.341884000" lon="-2.637046000">
        <ele>1103.30</ele>
        <time>2016-10-29T08:07:19Z</time>
      </trkpt>
      <trkpt lat="42.341879000" lon="-2.637047000">
        <ele>1103.30</ele>
        <time>2016-10-29T08:07:20Z</time>
      </trkpt>
      <trkpt lat="42.341876000" lon="-2.637046000">
        <ele>1103.30</ele>
        <time>2016-10-29T08:07:21Z</time>
      </trkpt>
      <trkpt lat="42.341870000" lon="-2.637046000">
        <ele>1103.30</ele>
        <time>2016-10-29T08:07:22Z</time>
      </trkpt>
      <trkpt lat="42.341863000" lon="-2.637046000">
        <ele>1103.30</ele>
        <time>2016-10-29T08:07:24Z</time>
      </trkpt>
      <trkpt lat="42.341861000" lon="-2.637046000">
        <ele>1103.40</ele>
        <time>2016-10-29T08:07:25Z</time>
      </trkpt>
      <trkpt lat="42.341859000" lon="-2.637046000">
        <ele>1103.40</ele>
        <time>2016-10-29T08:07:26Z</time>
      </trkpt>
      <trkpt lat="42.341857000" lon="-2.637043000">
        <ele>1103.50</ele>
        <time>2016-10-29T08:07:27Z</time>
      </trkpt>
      <trkpt lat="42.341855000" lon="-2.637044000">
        <ele>1103.40</ele>
        <time>2016-10-29T08:07:28Z</time>
      </trkpt>
      <trkpt lat="42.341850000" lon="-2.637048000">
        <ele>1103.30</ele>
        <time>2016-10-29T08:07:29Z</time>
      </trkpt>
      <trkpt lat="42.341848000" lon="-2.637046000">
        <ele>1103.20</ele>
        <time>2016-10-29T08:07:30Z</time>
      </trkpt>
      <trkpt lat="42.341848000" lon="-2.637046000">
        <ele>1103.10</ele>
        <time>2016-10-29T08:07:31Z</time>
      </trkpt>
      <trkpt lat="42.341851000" lon="-2.637040000">
        <ele>1103.00</ele>
        <time>2016-10-29T08:07:32Z</time>
      </trkpt>
      <trkpt lat="42.341856000" lon="-2.637039000">
        <ele>1103.00</ele>
        <time>2016-10-29T08:07:33Z</time>
      </trkpt>
      <trkpt lat="42.341859000" lon="-2.637037000">
        <ele>1103.00</ele>
        <time>2016-10-29T08:07:34Z</time>
      </trkpt>
      <trkpt lat="42.341864000" lon="-2.637035000">
        <ele>1102.90</ele>
        <time>2016-10-29T08:07:35Z</time>
      </trkpt>
      <trkpt lat="42.341864000" lon="-2.637032000">
        <ele>1102.90</ele>
        <time>2016-10-29T08:07:36Z</time>
      </trkpt>
      <trkpt lat="42.341865000" lon="-2.637026000">
        <ele>1102.90</ele>
        <time>2016-10-29T08:07:37Z</time>
      </trkpt>
      <trkpt lat="42.341867000" lon="-2.637023000">
        <ele>1103.00</ele>
        <time>2016-10-29T08:07:38Z</time>
      </trkpt>
      <trkpt lat="42.341869000" lon="-2.637021000">
        <ele>1103.00</ele>
        <time>2016-10-29T08:07:39Z</time>
      </trkpt>
      <trkpt lat="42.341871000" lon="-2.637020000">
        <ele>1103.10</ele>
        <time>2016-10-29T08:07:40Z</time>
      </trkpt>
      <trkpt lat="42.341875000" lon="-2.637025000">
        <ele>1103.10</ele>
        <time>2016-10-29T08:07:41Z</time>
      </trkpt>
      <trkpt lat="42.341877000" lon="-2.637030000">
        <ele>1103.20</ele>
        <time>2016-10-29T08:07:42Z</time>
      </trkpt>
      <trkpt lat="42.341878000" lon="-2.637034000">
        <ele>1103.20</ele>
        <time>2016-10-29T08:07:43Z</time>
      </trkpt>
      <trkpt lat="42.341882000" lon="-2.637032000">
        <ele>1103.30</ele>
        <time>2016-10-29T08:07:44Z</time>
      </trkpt>
      <trkpt lat="42.341885000" lon="-2.637029000">
        <ele>1103.30</ele>
        <time>2016-10-29T08:07:45Z</time>
      </trkpt>
      <trkpt lat="42.341889000" lon="-2.637028000">
        <ele>1103.50</ele>
        <time>2016-10-29T08:07:46Z</time>
      </trkpt>
      <trkpt lat="42.341894000" lon="-2.637029000">
        <ele>1103.60</ele>
        <time>2016-10-29T08:07:47Z</time>
      </trkpt>
      <trkpt lat="42.341898000" lon="-2.637028000">
        <ele>1103.60</ele>
        <time>2016-10-29T08:07:48Z</time>
      </trkpt>
      <trkpt lat="42.341902000" lon="-2.637028000">
        <ele>1103.70</ele>
        <time>2016-10-29T08:07:49Z</time>
      </trkpt>
      <trkpt lat="42.341903000" lon="-2.637033000">
        <ele>1103.60</ele>
        <time>2016-10-29T08:07:50Z</time>
      </trkpt>
      <trkpt lat="42.341904000" lon="-2.637036000">
        <ele>1103.60</ele>
        <time>2016-10-29T08:07:51Z</time>
      </trkpt>
      <trkpt lat="42.341905000" lon="-2.637037000">
        <ele>1103.50</ele>
        <time>2016-10-29T08:07:52Z</time>
      </trkpt>
      <trkpt lat="42.341905000" lon="-2.637041000">
        <ele>1103.50</ele>
        <time>2016-10-29T08:07:53Z</time>
      </trkpt>
      <trkpt lat="42.341905000" lon="-2.637043000">
        <ele>1103.50</ele>
        <time>2016-10-29T08:07:54Z</time>
      </trkpt>
      <trkpt lat="42.341903000" lon="-2.637046000">
        <ele>1103.50</ele>
        <time>2016-10-29T08:07:55Z</time>
      </trkpt>
      <trkpt lat="42.341902000" lon="-2.637046000">
        <ele>1103.50</ele>
        <time>2016-10-29T08:07:56Z</time>
      </trkpt>
      <trkpt lat="42.341900000" lon="-2.637043000">
        <ele>1103.60</ele>
        <time>2016-10-29T08:07:57Z</time>
      </trkpt>
      <trkpt lat="42.341899000" lon="-2.637038000">
        <ele>1103.60</ele>
        <time>2016-10-29T08:07:58Z</time>
      </trkpt>
      <trkpt lat="42.341897000" lon="-2.637038000">
        <ele>1103.60</ele>
        <time>2016-10-29T08:07:59Z</time>
      </trkpt>
      <trkpt lat="42.341894000" lon="-2.637038000">
        <ele>1103.70</ele>
        <time>2016-10-29T08:08:00Z</time>
      </trkpt>
      <trkpt lat="42.341890000" lon="-2.637037000">
        <ele>1103.70</ele>
        <time>2016-10-29T08:08:01Z</time>
      </trkpt>
      <trkpt lat="42.341887000" lon="-2.637036000">
        <ele>1103.80</ele>
        <time>2016-10-29T08:08:02Z</time>
      </trkpt>
      <trkpt lat="42.341885000" lon="-2.637036000">
        <ele>1103.80</ele>
        <time>2016-10-29T08:08:03Z</time>
      </trkpt>
      <trkpt lat="42.341883000" lon="-2.637033000">
        <ele>1103.90</ele>
        <time>2016-10-29T08:08:04Z</time>
      </trkpt>
      <trkpt lat="42.341880000" lon="-2.637030000">
        <ele>1103.90</ele>
        <time>2016-10-29T08:08:05Z</time>
      </trkpt>
      <trkpt lat="42.341876000" lon="-2.637029000">
        <ele>1104.00</ele>
        <time>2016-10-29T08:08:06Z</time>
      </trkpt>
      <trkpt lat="42.341872000" lon="-2.637028000">
        <ele>1104.00</ele>
        <time>2016-10-29T08:08:07Z</time>
      </trkpt>
      <trkpt lat="42.341868000" lon="-2.637028000">
        <ele>1104.00</ele>
        <time>2016-10-29T08:08:08Z</time>
      </trkpt>
      <trkpt lat="42.341865000" lon="-2.637024000">
        <ele>1104.00</ele>
        <time>2016-10-29T08:08:09Z</time>
      </trkpt>
      <trkpt lat="42.341862000" lon="-2.637020000">
        <ele>1104.00</ele>
        <time>2016-10-29T08:08:10Z</time>
      </trkpt>
      <trkpt lat="42.341859000" lon="-2.637014000">
        <ele>1104.00</ele>
        <time>2016-10-29T08:08:11Z</time>
      </trkpt>
      <trkpt lat="42.341859000" lon="-2.637005000">
        <ele>1104.10</ele>
        <time>2016-10-29T08:08:12Z</time>
      </trkpt>
      <trkpt lat="42.341857000" lon="-2.636999000">
        <ele>1104.10</ele>
        <time>2016-10-29T08:08:13Z</time>
      </trkpt>
      <trkpt lat="42.341854000" lon="-2.636994000">
        <ele>1104.10</ele>
        <time>2016-10-29T08:08:14Z</time>
      </trkpt>
      <trkpt lat="42.341850000" lon="-2.636989000">
        <ele>1104.20</ele>
        <time>2016-10-29T08:08:15Z</time>
      </trkpt>
      <trkpt lat="42.341846000" lon="-2.636985000">
        <ele>1104.20</ele>
        <time>2016-10-29T08:08:16Z</time>
      </trkpt>
      <trkpt lat="42.341842000" lon="-2.636982000">
        <ele>1104.20</ele>
        <time>2016-10-29T08:08:17Z</time>
      </trkpt>
      <trkpt lat="42.341840000" lon="-2.636979000">
        <ele>1104.20</ele>
        <time>2016-10-29T08:08:18Z</time>
      </trkpt>
      <trkpt lat="42.341839000" lon="-2.636976000">
        <ele>1104.20</ele>
        <time>2016-10-29T08:08:19Z</time>
      </trkpt>
      <trkpt lat="42.341838000" lon="-2.636975000">
        <ele>1104.20</ele>
        <time>2016-10-29T08:08:20Z</time>
      </trkpt>
      <trkpt lat="42.341838000" lon="-2.636973000">
        <ele>1104.30</ele>
        <time>2016-10-29T08:08:21Z</time>
      </trkpt>
      <trkpt lat="42.341839000" lon="-2.636973000">
        <ele>1104.20</ele>
        <time>2016-10-29T08:08:22Z</time>
      </trkpt>
      <trkpt lat="42.341840000" lon="-2.636973000">
        <ele>1104.10</ele>
        <time>2016-10-29T08:08:23Z</time>
      </trkpt>
      <trkpt lat="42.341842000" lon="-2.636972000">
        <ele>1104.00</ele>
        <time>2016-10-29T08:08:24Z</time>
      </trkpt>
      <trkpt lat="42.341849000" lon="-2.636973000">
        <ele>1103.90</ele>
        <time>2016-10-29T08:08:26Z</time>
      </trkpt>
      <trkpt lat="42.341853000" lon="-2.636972000">
        <ele>1103.90</ele>
        <time>2016-10-29T08:08:27Z</time>
      </trkpt>
      <trkpt lat="42.341858000" lon="-2.636970000">
        <ele>1103.80</ele>
        <time>2016-10-29T08:08:28Z</time>
      </trkpt>
      <trkpt lat="42.341861000" lon="-2.636967000">
        <ele>1103.80</ele>
        <time>2016-10-29T08:08:29Z</time>
      </trkpt>
      <trkpt lat="42.341864000" lon="-2.636966000">
        <ele>1103.90</ele>
        <time>2016-10-29T08:08:30Z</time>
      </trkpt>
      <trkpt lat="42.341868000" lon="-2.636964000">
        <ele>1104.00</ele>
        <time>2016-10-29T08:08:31Z</time>
      </trkpt>
      <trkpt lat="42.341866000" lon="-2.636962000">
        <ele>1104.10</ele>
        <time>2016-10-29T08:08:32Z</time>
      </trkpt>
      <trkpt lat="42.341867000" lon="-2.636959000">
        <ele>1104.20</ele>
        <time>2016-10-29T08:08:33Z</time>
      </trkpt>
      <trkpt lat="42.341867000" lon="-2.636957000">
        <ele>1104.20</ele>
        <time>2016-10-29T08:08:34Z</time>
      </trkpt>
      <trkpt lat="42.341872000" lon="-2.636958000">
        <ele>1104.20</ele>
        <time>2016-10-29T08:08:35Z</time>
      </trkpt>
      <trkpt lat="42.341877000" lon="-2.636960000">
        <ele>1104.20</ele>
        <time>2016-10-29T08:08:36Z</time>
      </trkpt>
      <trkpt lat="42.341885000" lon="-2.636959000">
        <ele>1104.20</ele>
        <time>2016-10-29T08:08:37Z</time>
      </trkpt>
      <trkpt lat="42.341888000" lon="-2.636958000">
        <ele>1104.20</ele>
        <time>2016-10-29T08:08:38Z</time>
      </trkpt>
      <trkpt lat="42.341892000" lon="-2.636953000">
        <ele>1104.20</ele>
        <time>2016-10-29T08:08:39Z</time>
      </trkpt>
      <trkpt lat="42.341896000" lon="-2.636948000">
        <ele>1104.20</ele>
        <time>2016-10-29T08:08:40Z</time>
      </trkpt>
      <trkpt lat="42.341895000" lon="-2.636941000">
        <ele>1104.20</ele>
        <time>2016-10-29T08:08:41Z</time>
      </trkpt>
      <trkpt lat="42.341901000" lon="-2.636938000">
        <ele>1104.20</ele>
        <time>2016-10-29T08:08:42Z</time>
      </trkpt>
      <trkpt lat="42.341908000" lon="-2.636932000">
        <ele>1104.20</ele>
        <time>2016-10-29T08:08:43Z</time>
      </trkpt>
      <trkpt lat="42.341914000" lon="-2.636928000">
        <ele>1104.20</ele>
        <time>2016-10-29T08:08:44Z</time>
      </trkpt>
      <trkpt lat="42.341920000" lon="-2.636923000">
        <ele>1104.20</ele>
        <time>2016-10-29T08:08:45Z</time>
      </trkpt>
      <trkpt lat="42.341926000" lon="-2.636923000">
        <ele>1104.30</ele>
        <time>2016-10-29T08:08:46Z</time>
      </trkpt>
      <trkpt lat="42.341931000" lon="-2.636923000">
        <ele>1104.40</ele>
        <time>2016-10-29T08:08:47Z</time>
      </trkpt>
      <trkpt lat="42.341937000" lon="-2.636924000">
        <ele>1104.40</ele>
        <time>2016-10-29T08:08:48Z</time>
      </trkpt>
      <trkpt lat="42.341941000" lon="-2.636924000">
        <ele>1104.50</ele>
        <time>2016-10-29T08:08:49Z</time>
      </trkpt>
      <trkpt lat="42.341945000" lon="-2.636928000">
        <ele>1104.50</ele>
        <time>2016-10-29T08:08:50Z</time>
      </trkpt>
      <trkpt lat="42.341949000" lon="-2.636934000">
        <ele>1104.50</ele>
        <time>2016-10-29T08:08:51Z</time>
      </trkpt>
      <trkpt lat="42.341951000" lon="-2.636936000">
        <ele>1104.50</ele>
        <time>2016-10-29T08:08:52Z</time>
      </trkpt>
      <trkpt lat="42.341952000" lon="-2.636932000">
        <ele>1104.40</ele>
        <time>2016-10-29T08:08:53Z</time>
      </trkpt>
      <trkpt lat="42.341953000" lon="-2.636926000">
        <ele>1104.60</ele>
        <time>2016-10-29T08:08:54Z</time>
      </trkpt>
      <trkpt lat="42.341954000" lon="-2.636921000">
        <ele>1104.70</ele>
        <time>2016-10-29T08:08:55Z</time>
      </trkpt>
      <trkpt lat="42.341954000" lon="-2.636921000">
        <ele>1104.50</ele>
        <time>2016-10-29T08:08:56Z</time>
      </trkpt>
      <trkpt lat="42.341954000" lon="-2.636921000">
        <ele>1104.40</ele>
        <time>2016-10-29T08:08:57Z</time>
      </trkpt>
      <trkpt lat="42.341952000" lon="-2.636924000">
        <ele>1104.40</ele>
        <time>2016-10-29T08:08:58Z</time>
      </trkpt>
      <trkpt lat="42.341951000" lon="-2.636925000">
        <ele>1104.40</ele>
        <time>2016-10-29T08:08:59Z</time>
      </trkpt>
      <trkpt lat="42.341949000" lon="-2.636928000">
        <ele>1104.40</ele>
        <time>2016-10-29T08:09:00Z</time>
      </trkpt>
      <trkpt lat="42.341946000" lon="-2.636932000">
        <ele>1104.30</ele>
        <time>2016-10-29T08:09:01Z</time>
      </trkpt>
      <trkpt lat="42.341945000" lon="-2.636937000">
        <ele>1104.30</ele>
        <time>2016-10-29T08:09:02Z</time>
      </trkpt>
      <trkpt lat="42.341941000" lon="-2.636943000">
        <ele>1104.30</ele>
        <time>2016-10-29T08:09:03Z</time>
      </trkpt>
      <trkpt lat="42.341940000" lon="-2.636944000">
        <ele>1104.30</ele>
        <time>2016-10-29T08:09:04Z</time>
      </trkpt>
      <trkpt lat="42.341941000" lon="-2.636944000">
        <ele>1104.30</ele>
        <time>2016-10-29T08:09:05Z</time>
      </trkpt>
      <trkpt lat="42.341941000" lon="-2.636942000">
        <ele>1104.40</ele>
        <time>2016-10-29T08:09:06Z</time>
      </trkpt>
      <trkpt lat="42.341941000" lon="-2.636943000">
        <ele>1104.50</ele>
        <time>2016-10-29T08:09:07Z</time>
      </trkpt>
      <trkpt lat="42.341939000" lon="-2.636942000">
        <ele>1104.60</ele>
        <time>2016-10-29T08:09:08Z</time>
      </trkpt>
      <trkpt lat="42.341936000" lon="-2.636943000">
        <ele>1104.60</ele>
        <time>2016-10-29T08:09:09Z</time>
      </trkpt>
      <trkpt lat="42.341934000" lon="-2.636941000">
        <ele>1104.70</ele>
        <time>2016-10-29T08:09:10Z</time>
      </trkpt>
      <trkpt lat="42.341932000" lon="-2.636940000">
        <ele>1104.70</ele>
        <time>2016-10-29T08:09:11Z</time>
      </trkpt>
      <trkpt lat="42.341929000" lon="-2.636939000">
        <ele>1104.80</ele>
        <time>2016-10-29T08:09:12Z</time>
      </trkpt>
      <trkpt lat="42.341927000" lon="-2.636939000">
        <ele>1104.90</ele>
        <time>2016-10-29T08:09:13Z</time>
      </trkpt>
      <trkpt lat="42.341927000" lon="-2.636939000">
        <ele>1105.00</ele>
        <time>2016-10-29T08:09:14Z</time>
      </trkpt>
      <trkpt lat="42.341927000" lon="-2.636934000">
        <ele>1105.00</ele>
        <time>2016-10-29T08:09:15Z</time>
      </trkpt>
      <trkpt lat="42.341925000" lon="-2.636931000">
        <ele>1104.90</ele>
        <time>2016-10-29T08:09:16Z</time>
      </trkpt>
      <trkpt lat="42.341922000" lon="-2.636929000">
        <ele>1104.90</ele>
        <time>2016-10-29T08:09:17Z</time>
      </trkpt>
      <trkpt lat="42.341922000" lon="-2.636927000">
        <ele>1104.80</ele>
        <time>2016-10-29T08:09:18Z</time>
      </trkpt>
      <trkpt lat="42.341924000" lon="-2.636932000">
        <ele>1104.80</ele>
        <time>2016-10-29T08:09:19Z</time>
      </trkpt>
      <trkpt lat="42.341926000" lon="-2.636935000">
        <ele>1104.80</ele>
        <time>2016-10-29T08:09:20Z</time>
      </trkpt>
      <trkpt lat="42.341928000" lon="-2.636933000">
        <ele>1104.80</ele>
        <time>2016-10-29T08:09:21Z</time>
      </trkpt>
      <trkpt lat="42.341930000" lon="-2.636934000">
        <ele>1104.80</ele>
        <time>2016-10-29T08:09:22Z</time>
      </trkpt>
      <trkpt lat="42.341932000" lon="-2.636937000">
        <ele>1104.90</ele>
        <time>2016-10-29T08:09:23Z</time>
      </trkpt>
      <trkpt lat="42.341936000" lon="-2.636941000">
        <ele>1104.80</ele>
        <time>2016-10-29T08:09:24Z</time>
      </trkpt>
      <trkpt lat="42.341942000" lon="-2.636946000">
        <ele>1104.80</ele>
        <time>2016-10-29T08:09:25Z</time>
      </trkpt>
      <trkpt lat="42.341948000" lon="-2.636949000">
        <ele>1104.90</ele>
        <time>2016-10-29T08:09:26Z</time>
      </trkpt>
      <trkpt lat="42.341955000" lon="-2.636955000">
        <ele>1104.90</ele>
        <time>2016-10-29T08:09:28Z</time>
      </trkpt>
      <trkpt lat="42.341957000" lon="-2.636957000">
        <ele>1104.90</ele>
        <time>2016-10-29T08:09:29Z</time>
      </trkpt>
      <trkpt lat="42.341958000" lon="-2.636956000">
        <ele>1104.90</ele>
        <time>2016-10-29T08:09:30Z</time>
      </trkpt>
      <trkpt lat="42.341957000" lon="-2.636957000">
        <ele>1105.00</ele>
        <time>2016-10-29T08:09:31Z</time>
      </trkpt>
      <trkpt lat="42.341955000" lon="-2.636961000">
        <ele>1105.00</ele>
        <time>2016-10-29T08:09:32Z</time>
      </trkpt>
      <trkpt lat="42.341951000" lon="-2.636961000">
        <ele>1105.10</ele>
        <time>2016-10-29T08:09:33Z</time>
      </trkpt>
      <trkpt lat="42.341947000" lon="-2.636961000">
        <ele>1105.10</ele>
        <time>2016-10-29T08:09:34Z</time>
      </trkpt>
      <trkpt lat="42.341946000" lon="-2.636961000">
        <ele>1105.10</ele>
        <time>2016-10-29T08:09:35Z</time>
      </trkpt>
      <trkpt lat="42.341949000" lon="-2.636957000">
        <ele>1105.10</ele>
        <time>2016-10-29T08:09:36Z</time>
      </trkpt>
      <trkpt lat="42.341953000" lon="-2.636952000">
        <ele>1105.20</ele>
        <time>2016-10-29T08:09:37Z</time>
      </trkpt>
      <trkpt lat="42.341960000" lon="-2.636949000">
        <ele>1105.10</ele>
        <time>2016-10-29T08:09:38Z</time>
      </trkpt>
      <trkpt lat="42.341966000" lon="-2.636949000">
        <ele>1105.10</ele>
        <time>2016-10-29T08:09:39Z</time>
      </trkpt>
      <trkpt lat="42.341975000" lon="-2.636951000">
        <ele>1105.00</ele>
        <time>2016-10-29T08:09:40Z</time>
      </trkpt>
      <trkpt lat="42.341984000" lon="-2.636952000">
        <ele>1105.00</ele>
        <time>2016-10-29T08:09:41Z</time>
      </trkpt>
      <trkpt lat="42.341991000" lon="-2.636954000">
        <ele>1105.00</ele>
        <time>2016-10-29T08:09:42Z</time>
      </trkpt>
      <trkpt lat="42.341997000" lon="-2.636954000">
        <ele>1105.00</ele>
        <time>2016-10-29T08:09:43Z</time>
      </trkpt>
      <trkpt lat="42.342003000" lon="-2.636953000">
        <ele>1105.10</ele>
        <time>2016-10-29T08:09:44Z</time>
      </trkpt>
      <trkpt lat="42.342008000" lon="-2.636951000">
        <ele>1105.10</ele>
        <time>2016-10-29T08:09:45Z</time>
      </trkpt>
      <trkpt lat="42.342012000" lon="-2.636949000">
        <ele>1105.20</ele>
        <time>2016-10-29T08:09:46Z</time>
      </trkpt>
      <trkpt lat="42.342022000" lon="-2.636947000">
        <ele>1105.20</ele>
        <time>2016-10-29T08:09:47Z</time>
      </trkpt>
      <trkpt lat="42.342032000" lon="-2.636943000">
        <ele>1105.20</ele>
        <time>2016-10-29T08:09:48Z</time>
      </trkpt>
      <trkpt lat="42.342039000" lon="-2.636937000">
        <ele>1105.20</ele>
        <time>2016-10-29T08:09:49Z</time>
      </trkpt>
      <trkpt lat="42.342045000" lon="-2.636934000">
        <ele>1105.20</ele>
        <time>2016-10-29T08:09:50Z</time>
      </trkpt>
      <trkpt lat="42.342045000" lon="-2.636932000">
        <ele>1105.20</ele>
        <time>2016-10-29T08:09:51Z</time>
      </trkpt>
      <trkpt lat="42.342045000" lon="-2.636934000">
        <ele>1105.30</ele>
        <time>2016-10-29T08:09:52Z</time>
      </trkpt>
      <trkpt lat="42.342046000" lon="-2.636936000">
        <ele>1105.30</ele>
        <time>2016-10-29T08:09:53Z</time>
      </trkpt>
      <trkpt lat="42.342046000" lon="-2.636938000">
        <ele>1105.50</ele>
        <time>2016-10-29T08:09:54Z</time>
      </trkpt>
      <trkpt lat="42.342046000" lon="-2.636939000">
        <ele>1105.60</ele>
        <time>2016-10-29T08:09:55Z</time>
      </trkpt>
      <trkpt lat="42.342048000" lon="-2.636940000">
        <ele>1105.70</ele>
        <time>2016-10-29T08:09:56Z</time>
      </trkpt>
      <trkpt lat="42.342050000" lon="-2.636939000">
        <ele>1105.70</ele>
        <time>2016-10-29T08:09:57Z</time>
      </trkpt>
      <trkpt lat="42.342052000" lon="-2.636936000">
        <ele>1105.70</ele>
        <time>2016-10-29T08:09:58Z</time>
      </trkpt>
      <trkpt lat="42.342054000" lon="-2.636931000">
        <ele>1105.70</ele>
        <time>2016-10-29T08:09:59Z</time>
      </trkpt>
      <trkpt lat="42.342056000" lon="-2.636925000">
        <ele>1105.70</ele>
        <time>2016-10-29T08:10:00Z</time>
      </trkpt>
      <trkpt lat="42.342054000" lon="-2.636922000">
        <ele>1105.70</ele>
        <time>2016-10-29T08:10:01Z</time>
      </trkpt>
      <trkpt lat="42.342055000" lon="-2.636917000">
        <ele>1105.70</ele>
        <time>2016-10-29T08:10:02Z</time>
      </trkpt>
      <trkpt lat="42.342054000" lon="-2.636912000">
        <ele>1105.70</ele>
        <time>2016-10-29T08:10:03Z</time>
      </trkpt>
      <trkpt lat="42.342056000" lon="-2.636907000">
        <ele>1105.90</ele>
        <time>2016-10-29T08:10:04Z</time>
      </trkpt>
      <trkpt lat="42.342056000" lon="-2.636904000">
        <ele>1106.00</ele>
        <time>2016-10-29T08:10:05Z</time>
      </trkpt>
      <trkpt lat="42.342055000" lon="-2.636902000">
        <ele>1106.10</ele>
        <time>2016-10-29T08:10:06Z</time>
      </trkpt>
      <trkpt lat="42.342053000" lon="-2.636907000">
        <ele>1106.10</ele>
        <time>2016-10-29T08:10:07Z</time>
      </trkpt>
      <trkpt lat="42.342051000" lon="-2.636911000">
        <ele>1106.20</ele>
        <time>2016-10-29T08:10:08Z</time>
      </trkpt>
      <trkpt lat="42.342048000" lon="-2.636910000">
        <ele>1106.20</ele>
        <time>2016-10-29T08:10:09Z</time>
      </trkpt>
      <trkpt lat="42.342045000" lon="-2.636909000">
        <ele>1106.30</ele>
        <time>2016-10-29T08:10:10Z</time>
      </trkpt>
      <trkpt lat="42.342043000" lon="-2.636910000">
        <ele>1106.30</ele>
        <time>2016-10-29T08:10:11Z</time>
      </trkpt>
      <trkpt lat="42.342042000" lon="-2.636909000">
        <ele>1106.20</ele>
        <time>2016-10-29T08:10:12Z</time>
      </trkpt>
      <trkpt lat="42.342043000" lon="-2.636906000">
        <ele>1106.20</ele>
        <time>2016-10-29T08:10:13Z</time>
      </trkpt>
      <trkpt lat="42.342044000" lon="-2.636904000">
        <ele>1106.20</ele>
        <time>2016-10-29T08:10:14Z</time>
      </trkpt>
      <trkpt lat="42.342048000" lon="-2.636901000">
        <ele>1106.20</ele>
        <time>2016-10-29T08:10:15Z</time>
      </trkpt>
      <trkpt lat="42.342052000" lon="-2.636901000">
        <ele>1106.20</ele>
        <time>2016-10-29T08:10:16Z</time>
      </trkpt>
      <trkpt lat="42.342056000" lon="-2.636900000">
        <ele>1106.20</ele>
        <time>2016-10-29T08:10:17Z</time>
      </trkpt>
      <trkpt lat="42.342063000" lon="-2.636901000">
        <ele>1106.00</ele>
        <time>2016-10-29T08:10:18Z</time>
      </trkpt>
      <trkpt lat="42.342066000" lon="-2.636906000">
        <ele>1105.80</ele>
        <time>2016-10-29T08:10:19Z</time>
      </trkpt>
      <trkpt lat="42.342066000" lon="-2.636913000">
        <ele>1105.70</ele>
        <time>2016-10-29T08:10:20Z</time>
      </trkpt>
      <trkpt lat="42.342064000" lon="-2.636923000">
        <ele>1105.70</ele>
        <time>2016-10-29T08:10:21Z</time>
      </trkpt>
      <trkpt lat="42.342061000" lon="-2.636931000">
        <ele>1105.60</ele>
        <time>2016-10-29T08:10:22Z</time>
      </trkpt>
      <trkpt lat="42.342064000" lon="-2.636937000">
        <ele>1105.60</ele>
        <time>2016-10-29T08:10:23Z</time>
      </trkpt>
      <trkpt lat="42.342066000" lon="-2.636943000">
        <ele>1105.60</ele>
        <time>2016-10-29T08:10:24Z</time>
      </trkpt>
      <trkpt lat="42.342067000" lon="-2.636947000">
        <ele>1105.60</ele>
        <time>2016-10-29T08:10:25Z</time>
      </trkpt>
      <trkpt lat="42.342066000" lon="-2.636950000">
        <ele>1105.70</ele>
        <time>2016-10-29T08:10:26Z</time>
      </trkpt>
      <trkpt lat="42.342063000" lon="-2.636951000">
        <ele>1105.80</ele>
        <time>2016-10-29T08:10:27Z</time>
      </trkpt>
      <trkpt lat="42.342060000" lon="-2.636949000">
        <ele>1105.90</ele>
        <time>2016-10-29T08:10:28Z</time>
      </trkpt>
      <trkpt lat="42.342055000" lon="-2.636945000">
        <ele>1106.00</ele>
        <time>2016-10-29T08:10:30Z</time>
      </trkpt>
      <trkpt lat="42.342050000" lon="-2.636938000">
        <ele>1106.00</ele>
        <time>2016-10-29T08:10:31Z</time>
      </trkpt>
      <trkpt lat="42.342045000" lon="-2.636934000">
        <ele>1106.10</ele>
        <time>2016-10-29T08:10:32Z</time>
      </trkpt>
      <trkpt lat="42.342040000" lon="-2.636929000">
        <ele>1106.20</ele>
        <time>2016-10-29T08:10:33Z</time>
      </trkpt>
      <trkpt lat="42.342040000" lon="-2.636924000">
        <ele>1106.20</ele>
        <time>2016-10-29T08:10:34Z</time>
      </trkpt>
      <trkpt lat="42.342041000" lon="-2.636920000">
        <ele>1106.30</ele>
        <time>2016-10-29T08:10:35Z</time>
      </trkpt>
      <trkpt lat="42.342039000" lon="-2.636915000">
        <ele>1106.30</ele>
        <time>2016-10-29T08:10:36Z</time>
      </trkpt>
      <trkpt lat="42.342036000" lon="-2.636913000">
        <ele>1106.30</ele>
        <time>2016-10-29T08:10:37Z</time>
      </trkpt>
      <trkpt lat="42.342031000" lon="-2.636913000">
        <ele>1106.40</ele>
        <time>2016-10-29T08:10:38Z</time>
      </trkpt>
      <trkpt lat="42.342026000" lon="-2.636910000">
        <ele>1106.40</ele>
        <time>2016-10-29T08:10:39Z</time>
      </trkpt>
      <trkpt lat="42.342018000" lon="-2.636906000">
        <ele>1106.10</ele>
        <time>2016-10-29T08:10:40Z</time>
      </trkpt>
      <trkpt lat="42.342013000" lon="-2.636905000">
        <ele>1106.00</ele>
        <time>2016-10-29T08:10:41Z</time>
      </trkpt>
      <trkpt lat="42.342008000" lon="-2.636903000">
        <ele>1105.80</ele>
        <time>2016-10-29T08:10:42Z</time>
      </trkpt>
      <trkpt lat="42.342004000" lon="-2.636899000">
        <ele>1105.70</ele>
        <time>2016-10-29T08:10:43Z</time>
      </trkpt>
      <trkpt lat="42.342000000" lon="-2.636893000">
        <ele>1105.80</ele>
        <time>2016-10-29T08:10:44Z</time>
      </trkpt>
      <trkpt lat="42.341995000" lon="-2.636886000">
        <ele>1105.80</ele>
        <time>2016-10-29T08:10:45Z</time>
      </trkpt>
      <trkpt lat="42.341988000" lon="-2.636880000">
        <ele>1106.00</ele>
        <time>2016-10-29T08:10:46Z</time>
      </trkpt>
      <trkpt lat="42.341980000" lon="-2.636875000">
        <ele>1106.00</ele>
        <time>2016-10-29T08:10:47Z</time>
      </trkpt>
      <trkpt lat="42.341970000" lon="-2.636870000">
        <ele>1106.10</ele>
        <time>2016-10-29T08:10:48Z</time>
      </trkpt>
      <trkpt lat="42.341960000" lon="-2.636864000">
        <ele>1106.20</ele>
        <time>2016-10-29T08:10:49Z</time>
      </trkpt>
      <trkpt lat="42.341950000" lon="-2.636859000">
        <ele>1106.20</ele>
        <time>2016-10-29T08:10:50Z</time>
      </trkpt>
      <trkpt lat="42.341947000" lon="-2.636865000">
        <ele>1106.20</ele>
        <time>2016-10-29T08:10:51Z</time>
      </trkpt>
      <trkpt lat="42.341942000" lon="-2.636869000">
        <ele>1106.30</ele>
        <time>2016-10-29T08:10:52Z</time>
      </trkpt>
      <trkpt lat="42.341935000" lon="-2.636870000">
        <ele>1106.20</ele>
        <time>2016-10-29T08:10:53Z</time>
      </trkpt>
      <trkpt lat="42.341931000" lon="-2.636873000">
        <ele>1106.20</ele>
        <time>2016-10-29T08:10:54Z</time>
      </trkpt>
      <trkpt lat="42.341928000" lon="-2.636876000">
        <ele>1106.10</ele>
        <time>2016-10-29T08:10:55Z</time>
      </trkpt>
      <trkpt lat="42.341924000" lon="-2.636879000">
        <ele>1106.10</ele>
        <time>2016-10-29T08:10:56Z</time>
      </trkpt>
      <trkpt lat="42.341924000" lon="-2.636883000">
        <ele>1106.20</ele>
        <time>2016-10-29T08:10:57Z</time>
      </trkpt>
      <trkpt lat="42.341925000" lon="-2.636887000">
        <ele>1106.20</ele>
        <time>2016-10-29T08:10:58Z</time>
      </trkpt>
      <trkpt lat="42.341925000" lon="-2.636889000">
        <ele>1106.30</ele>
        <time>2016-10-29T08:10:59Z</time>
      </trkpt>
      <trkpt lat="42.341923000" lon="-2.636891000">
        <ele>1106.30</ele>
        <time>2016-10-29T08:11:00Z</time>
      </trkpt>
      <trkpt lat="42.341922000" lon="-2.636893000">
        <ele>1106.30</ele>
        <time>2016-10-29T08:11:01Z</time>
      </trkpt>
      <trkpt lat="42.341921000" lon="-2.636894000">
        <ele>1106.40</ele>
        <time>2016-10-29T08:11:02Z</time>
      </trkpt>
      <trkpt lat="42.341921000" lon="-2.636895000">
        <ele>1106.50</ele>
        <time>2016-10-29T08:11:03Z</time>
      </trkpt>
      <trkpt lat="42.341921000" lon="-2.636891000">
        <ele>1106.50</ele>
        <time>2016-10-29T08:11:04Z</time>
      </trkpt>
      <trkpt lat="42.341923000" lon="-2.636888000">
        <ele>1106.50</ele>
        <time>2016-10-29T08:11:05Z</time>
      </trkpt>
      <trkpt lat="42.341926000" lon="-2.636886000">
        <ele>1106.40</ele>
        <time>2016-10-29T08:11:06Z</time>
      </trkpt>
      <trkpt lat="42.341929000" lon="-2.636882000">
        <ele>1106.40</ele>
        <time>2016-10-29T08:11:07Z</time>
      </trkpt>
      <trkpt lat="42.341932000" lon="-2.636879000">
        <ele>1106.40</ele>
        <time>2016-10-29T08:11:08Z</time>
      </trkpt>
      <trkpt lat="42.341935000" lon="-2.636875000">
        <ele>1106.40</ele>
        <time>2016-10-29T08:11:09Z</time>
      </trkpt>
      <trkpt lat="42.341940000" lon="-2.636872000">
        <ele>1106.40</ele>
        <time>2016-10-29T08:11:10Z</time>
      </trkpt>
      <trkpt lat="42.341945000" lon="-2.636868000">
        <ele>1106.40</ele>
        <time>2016-10-29T08:11:11Z</time>
      </trkpt>
      <trkpt lat="42.341948000" lon="-2.636865000">
        <ele>1106.50</ele>
        <time>2016-10-29T08:11:12Z</time>
      </trkpt>
      <trkpt lat="42.341948000" lon="-2.636863000">
        <ele>1106.60</ele>
        <time>2016-10-29T08:11:13Z</time>
      </trkpt>
      <trkpt lat="42.341947000" lon="-2.636864000">
        <ele>1106.70</ele>
        <time>2016-10-29T08:11:14Z</time>
      </trkpt>
      <trkpt lat="42.341946000" lon="-2.636868000">
        <ele>1106.70</ele>
        <time>2016-10-29T08:11:15Z</time>
      </trkpt>
      <trkpt lat="42.341944000" lon="-2.636872000">
        <ele>1106.70</ele>
        <time>2016-10-29T08:11:16Z</time>
      </trkpt>
      <trkpt lat="42.341943000" lon="-2.636877000">
        <ele>1106.50</ele>
        <time>2016-10-29T08:11:17Z</time>
      </trkpt>
      <trkpt lat="42.341940000" lon="-2.636882000">
        <ele>1106.40</ele>
        <time>2016-10-29T08:11:18Z</time>
      </trkpt>
      <trkpt lat="42.341935000" lon="-2.636886000">
        <ele>1106.40</ele>
        <time>2016-10-29T08:11:19Z</time>
      </trkpt>
      <trkpt lat="42.341932000" lon="-2.636891000">
        <ele>1106.30</ele>
        <time>2016-10-29T08:11:20Z</time>
      </trkpt>
      <trkpt lat="42.341929000" lon="-2.636896000">
        <ele>1106.40</ele>
        <time>2016-10-29T08:11:21Z</time>
      </trkpt>
      <trkpt lat="42.341927000" lon="-2.636900000">
        <ele>1106.50</ele>
        <time>2016-10-29T08:11:22Z</time>
      </trkpt>
      <trkpt lat="42.341928000" lon="-2.636907000">
        <ele>1106.60</ele>
        <time>2016-10-29T08:11:23Z</time>
      </trkpt>
      <trkpt lat="42.341928000" lon="-2.636913000">
        <ele>1106.70</ele>
        <time>2016-10-29T08:11:24Z</time>
      </trkpt>
      <trkpt lat="42.341927000" lon="-2.636917000">
        <ele>1106.80</ele>
        <time>2016-10-29T08:11:25Z</time>
      </trkpt>
      <trkpt lat="42.341924000" lon="-2.636918000">
        <ele>1106.80</ele>
        <time>2016-10-29T08:11:26Z</time>
      </trkpt>
      <trkpt lat="42.341922000" lon="-2.636922000">
        <ele>1106.90</ele>
        <time>2016-10-29T08:11:27Z</time>
      </trkpt>
      <trkpt lat="42.341919000" lon="-2.636929000">
        <ele>1106.90</ele>
        <time>2016-10-29T08:11:28Z</time>
      </trkpt>
      <trkpt lat="42.341918000" lon="-2.636938000">
        <ele>1106.90</ele>
        <time>2016-10-29T08:11:29Z</time>
      </trkpt>
      <trkpt lat="42.341914000" lon="-2.636950000">
        <ele>1106.80</ele>
        <time>2016-10-29T08:11:30Z</time>
      </trkpt>
      <trkpt lat="42.341912000" lon="-2.636971000">
        <ele>1106.90</ele>
        <time>2016-10-29T08:11:32Z</time>
      </trkpt>
      <trkpt lat="42.341912000" lon="-2.636979000">
        <ele>1106.90</ele>
        <time>2016-10-29T08:11:33Z</time>
      </trkpt>
      <trkpt lat="42.341913000" lon="-2.636985000">
        <ele>1106.90</ele>
        <time>2016-10-29T08:11:34Z</time>
      </trkpt>
      <trkpt lat="42.341917000" lon="-2.636990000">
        <ele>1106.90</ele>
        <time>2016-10-29T08:11:35Z</time>
      </trkpt>
      <trkpt lat="42.341918000" lon="-2.636990000">
        <ele>1106.90</ele>
        <time>2016-10-29T08:11:36Z</time>
      </trkpt>
      <trkpt lat="42.341920000" lon="-2.636987000">
        <ele>1106.90</ele>
        <time>2016-10-29T08:11:37Z</time>
      </trkpt>
      <trkpt lat="42.341921000" lon="-2.636983000">
        <ele>1106.90</ele>
        <time>2016-10-29T08:11:38Z</time>
      </trkpt>
      <trkpt lat="42.341923000" lon="-2.636978000">
        <ele>1107.00</ele>
        <time>2016-10-29T08:11:39Z</time>
      </trkpt>
      <trkpt lat="42.341925000" lon="-2.636973000">
        <ele>1107.20</ele>
        <time>2016-10-29T08:11:40Z</time>
      </trkpt>
      <trkpt lat="42.341926000" lon="-2.636969000">
        <ele>1107.30</ele>
        <time>2016-10-29T08:11:41Z</time>
      </trkpt>
      <trkpt lat="42.341926000" lon="-2.636964000">
        <ele>1107.30</ele>
        <time>2016-10-29T08:11:42Z</time>
      </trkpt>
      <trkpt lat="42.341925000" lon="-2.636961000">
        <ele>1107.20</ele>
        <time>2016-10-29T08:11:43Z</time>
      </trkpt>
      <trkpt lat="42.341925000" lon="-2.636957000">
        <ele>1107.10</ele>
        <time>2016-10-29T08:11:44Z</time>
      </trkpt>
      <trkpt lat="42.341923000" lon="-2.636951000">
        <ele>1106.90</ele>
        <time>2016-10-29T08:11:45Z</time>
      </trkpt>
      <trkpt lat="42.341918000" lon="-2.636941000">
        <ele>1106.80</ele>
        <time>2016-10-29T08:11:46Z</time>
      </trkpt>
      <trkpt lat="42.341914000" lon="-2.636932000">
        <ele>1106.80</ele>
        <time>2016-10-29T08:11:47Z</time>
      </trkpt>
      <trkpt lat="42.341911000" lon="-2.636931000">
        <ele>1106.80</ele>
        <time>2016-10-29T08:11:48Z</time>
      </trkpt>
      <trkpt lat="42.341911000" lon="-2.636934000">
        <ele>1106.90</ele>
        <time>2016-10-29T08:11:49Z</time>
      </trkpt>
      <trkpt lat="42.341913000" lon="-2.636939000">
        <ele>1106.90</ele>
        <time>2016-10-29T08:11:50Z</time>
      </trkpt>
      <trkpt lat="42.341913000" lon="-2.636940000">
        <ele>1107.00</ele>
        <time>2016-10-29T08:11:51Z</time>
      </trkpt>
      <trkpt lat="42.341916000" lon="-2.636941000">
        <ele>1107.00</ele>
        <time>2016-10-29T08:11:52Z</time>
      </trkpt>
      <trkpt lat="42.341917000" lon="-2.636943000">
        <ele>1107.10</ele>
        <time>2016-10-29T08:11:53Z</time>
      </trkpt>
      <trkpt lat="42.341919000" lon="-2.636944000">
        <ele>1107.10</ele>
        <time>2016-10-29T08:11:54Z</time>
      </trkpt>
      <trkpt lat="42.341919000" lon="-2.636945000">
        <ele>1107.20</ele>
        <time>2016-10-29T08:11:55Z</time>
      </trkpt>
      <trkpt lat="42.341918000" lon="-2.636943000">
        <ele>1107.20</ele>
        <time>2016-10-29T08:11:56Z</time>
      </trkpt>
      <trkpt lat="42.341916000" lon="-2.636939000">
        <ele>1107.30</ele>
        <time>2016-10-29T08:11:57Z</time>
      </trkpt>
      <trkpt lat="42.341915000" lon="-2.636940000">
        <ele>1107.30</ele>
        <time>2016-10-29T08:11:58Z</time>
      </trkpt>
      <trkpt lat="42.341916000" lon="-2.636940000">
        <ele>1107.40</ele>
        <time>2016-10-29T08:11:59Z</time>
      </trkpt>
      <trkpt lat="42.341914000" lon="-2.636934000">
        <ele>1107.40</ele>
        <time>2016-10-29T08:12:00Z</time>
      </trkpt>
      <trkpt lat="42.341912000" lon="-2.636927000">
        <ele>1107.40</ele>
        <time>2016-10-29T08:12:01Z</time>
      </trkpt>
      <trkpt lat="42.341911000" lon="-2.636922000">
        <ele>1107.40</ele>
        <time>2016-10-29T08:12:02Z</time>
      </trkpt>
      <trkpt lat="42.341910000" lon="-2.636925000">
        <ele>1107.30</ele>
        <time>2016-10-29T08:12:03Z</time>
      </trkpt>
      <trkpt lat="42.341907000" lon="-2.636929000">
        <ele>1107.20</ele>
        <time>2016-10-29T08:12:04Z</time>
      </trkpt>
      <trkpt lat="42.341903000" lon="-2.636935000">
        <ele>1107.20</ele>
        <time>2016-10-29T08:12:05Z</time>
      </trkpt>
      <trkpt lat="42.341900000" lon="-2.636940000">
        <ele>1107.10</ele>
        <time>2016-10-29T08:12:06Z</time>
      </trkpt>
      <trkpt lat="42.341894000" lon="-2.636947000">
        <ele>1107.10</ele>
        <time>2016-10-29T08:12:07Z</time>
      </trkpt>
      <trkpt lat="42.341891000" lon="-2.636953000">
        <ele>1107.10</ele>
        <time>2016-10-29T08:12:08Z</time>
      </trkpt>
      <trkpt lat="42.341888000" lon="-2.636957000">
        <ele>1107.20</ele>
        <time>2016-10-29T08:12:09Z</time>
      </trkpt>
      <trkpt lat="42.341884000" lon="-2.636962000">
        <ele>1107.20</ele>
        <time>2016-10-29T08:12:10Z</time>
      </trkpt>
      <trkpt lat="42.341879000" lon="-2.636967000">
        <ele>1107.30</ele>
        <time>2016-10-29T08:12:11Z</time>
      </trkpt>
      <trkpt lat="42.341875000" lon="-2.636970000">
        <ele>1107.30</ele>
        <time>2016-10-29T08:12:12Z</time>
      </trkpt>
      <trkpt lat="42.341876000" lon="-2.636978000">
        <ele>1107.40</ele>
        <time>2016-10-29T08:12:13Z</time>
      </trkpt>
      <trkpt lat="42.341876000" lon="-2.636986000">
        <ele>1107.50</ele>
        <time>2016-10-29T08:12:14Z</time>
      </trkpt>
      <trkpt lat="42.341878000" lon="-2.636993000">
        <ele>1107.50</ele>
        <time>2016-10-29T08:12:15Z</time>
      </trkpt>
      <trkpt lat="42.341879000" lon="-2.636999000">
        <ele>1107.50</ele>
        <time>2016-10-29T08:12:16Z</time>
      </trkpt>
      <trkpt lat="42.341884000" lon="-2.637001000">
        <ele>1107.50</ele>
        <time>2016-10-29T08:12:17Z</time>
      </trkpt>
      <trkpt lat="42.341886000" lon="-2.637001000">
        <ele>1107.50</ele>
        <time>2016-10-29T08:12:18Z</time>
      </trkpt>
      <trkpt lat="42.341889000" lon="-2.636999000">
        <ele>1107.40</ele>
        <time>2016-10-29T08:12:19Z</time>
      </trkpt>
      <trkpt lat="42.341890000" lon="-2.636999000">
        <ele>1107.40</ele>
        <time>2016-10-29T08:12:20Z</time>
      </trkpt>
      <trkpt lat="42.341891000" lon="-2.636997000">
        <ele>1107.40</ele>
        <time>2016-10-29T08:12:21Z</time>
      </trkpt>
      <trkpt lat="42.341888000" lon="-2.636985000">
        <ele>1107.40</ele>
        <time>2016-10-29T08:12:22Z</time>
      </trkpt>
      <trkpt lat="42.341893000" lon="-2.636976000">
        <ele>1107.50</ele>
        <time>2016-10-29T08:12:23Z</time>
      </trkpt>
      <trkpt lat="42.341895000" lon="-2.636970000">
        <ele>1107.50</ele>
        <time>2016-10-29T08:12:24Z</time>
      </trkpt>
      <trkpt lat="42.341894000" lon="-2.636965000">
        <ele>1107.50</ele>
        <time>2016-10-29T08:12:25Z</time>
      </trkpt>
      <trkpt lat="42.341894000" lon="-2.636957000">
        <ele>1107.50</ele>
        <time>2016-10-29T08:12:26Z</time>
      </trkpt>
      <trkpt lat="42.341900000" lon="-2.636953000">
        <ele>1107.60</ele>
        <time>2016-10-29T08:12:27Z</time>
      </trkpt>
      <trkpt lat="42.341907000" lon="-2.636958000">
        <ele>1107.60</ele>
        <time>2016-10-29T08:12:28Z</time>
      </trkpt>
      <trkpt lat="42.341907000" lon="-2.636962000">
        <ele>1107.50</ele>
        <time>2016-10-29T08:12:29Z</time>
      </trkpt>
      <trkpt lat="42.341911000" lon="-2.636969000">
        <ele>1107.50</ele>
        <time>2016-10-29T08:12:30Z</time>
      </trkpt>
      <trkpt lat="42.341912000" lon="-2.636970000">
        <ele>1107.50</ele>
        <time>2016-10-29T08:12:31Z</time>
      </trkpt>
      <trkpt lat="42.341910000" lon="-2.636967000">
        <ele>1107.50</ele>
        <time>2016-10-29T08:12:33Z</time>
      </trkpt>
      <trkpt lat="42.341913000" lon="-2.636963000">
        <ele>1107.60</ele>
        <time>2016-10-29T08:12:34Z</time>
      </trkpt>
      <trkpt lat="42.341910000" lon="-2.636949000">
        <ele>1107.70</ele>
        <time>2016-10-29T08:12:35Z</time>
      </trkpt>
      <trkpt lat="42.341910000" lon="-2.636942000">
        <ele>1107.90</ele>
        <time>2016-10-29T08:12:36Z</time>
      </trkpt>
      <trkpt lat="42.341909000" lon="-2.636938000">
        <ele>1108.20</ele>
        <time>2016-10-29T08:12:37Z</time>
      </trkpt>
      <trkpt lat="42.341907000" lon="-2.636933000">
        <ele>1108.40</ele>
        <time>2016-10-29T08:12:38Z</time>
      </trkpt>
      <trkpt lat="42.341910000" lon="-2.636930000">
        <ele>1108.50</ele>
        <time>2016-10-29T08:12:39Z</time>
      </trkpt>
      <trkpt lat="42.341910000" lon="-2.636925000">
        <ele>1108.70</ele>
        <time>2016-10-29T08:12:40Z</time>
      </trkpt>
      <trkpt lat="42.341907000" lon="-2.636918000">
        <ele>1108.60</ele>
        <time>2016-10-29T08:12:41Z</time>
      </trkpt>
      <trkpt lat="42.341908000" lon="-2.636918000">
        <ele>1108.50</ele>
        <time>2016-10-29T08:12:42Z</time>
      </trkpt>
      <trkpt lat="42.341910000" lon="-2.636920000">
        <ele>1108.40</ele>
        <time>2016-10-29T08:12:43Z</time>
      </trkpt>
      <trkpt lat="42.341908000" lon="-2.636920000">
        <ele>1108.40</ele>
        <time>2016-10-29T08:12:44Z</time>
      </trkpt>
      <trkpt lat="42.341908000" lon="-2.636920000">
        <ele>1108.40</ele>
        <time>2016-10-29T08:12:45Z</time>
      </trkpt>
      <trkpt lat="42.341909000" lon="-2.636917000">
        <ele>1108.40</ele>
        <time>2016-10-29T08:12:46Z</time>
      </trkpt>
      <trkpt lat="42.341910000" lon="-2.636909000">
        <ele>1108.40</ele>
        <time>2016-10-29T08:12:47Z</time>
      </trkpt>
      <trkpt lat="42.341909000" lon="-2.636904000">
        <ele>1108.40</ele>
        <time>2016-10-29T08:12:48Z</time>
      </trkpt>
      <trkpt lat="42.341911000" lon="-2.636904000">
        <ele>1108.40</ele>
        <time>2016-10-29T08:12:49Z</time>
      </trkpt>
      <trkpt lat="42.341908000" lon="-2.636900000">
        <ele>1108.40</ele>
        <time>2016-10-29T08:12:50Z</time>
      </trkpt>
      <trkpt lat="42.341908000" lon="-2.636898000">
        <ele>1108.60</ele>
        <time>2016-10-29T08:12:51Z</time>
      </trkpt>
      <trkpt lat="42.341911000" lon="-2.636898000">
        <ele>1108.70</ele>
        <time>2016-10-29T08:12:52Z</time>
      </trkpt>
      <trkpt lat="42.341919000" lon="-2.636899000">
        <ele>1108.80</ele>
        <time>2016-10-29T08:12:53Z</time>
      </trkpt>
      <trkpt lat="42.341927000" lon="-2.636904000">
        <ele>1108.80</ele>
        <time>2016-10-29T08:12:54Z</time>
      </trkpt>
      <trkpt lat="42.341938000" lon="-2.636912000">
        <ele>1108.90</ele>
        <time>2016-10-29T08:12:55Z</time>
      </trkpt>
      <trkpt lat="42.341952000" lon="-2.636920000">
        <ele>1108.90</ele>
        <time>2016-10-29T08:12:56Z</time>
      </trkpt>
      <trkpt lat="42.341964000" lon="-2.636920000">
        <ele>1108.80</ele>
        <time>2016-10-29T08:12:57Z</time>
      </trkpt>
      <trkpt lat="42.341970000" lon="-2.636925000">
        <ele>1108.80</ele>
        <time>2016-10-29T08:12:58Z</time>
      </trkpt>
      <trkpt lat="42.341980000" lon="-2.636924000">
        <ele>1108.60</ele>
        <time>2016-10-29T08:12:59Z</time>
      </trkpt>
      <trkpt lat="42.341988000" lon="-2.636925000">
        <ele>1108.50</ele>
        <time>2016-10-29T08:13:00Z</time>
      </trkpt>
      <trkpt lat="42.341996000" lon="-2.636927000">
        <ele>1108.30</ele>
        <time>2016-10-29T08:13:01Z</time>
      </trkpt>
      <trkpt lat="42.342003000" lon="-2.636925000">
        <ele>1108.20</ele>
        <time>2016-10-29T08:13:02Z</time>
      </trkpt>
      <trkpt lat="42.342021000" lon="-2.636914000">
        <ele>1108.10</ele>
        <time>2016-10-29T08:13:03Z</time>
      </trkpt>
      <trkpt lat="42.342042000" lon="-2.636906000">
        <ele>1108.00</ele>
        <time>2016-10-29T08:13:04Z</time>
      </trkpt>
      <trkpt lat="42.342066000" lon="-2.636902000">
        <ele>1108.00</ele>
        <time>2016-10-29T08:13:05Z</time>
      </trkpt>
      <trkpt lat="42.342087000" lon="-2.636896000">
        <ele>1107.90</ele>
        <time>2016-10-29T08:13:06Z</time>
      </trkpt>
      <trkpt lat="42.342110000" lon="-2.636897000">
        <ele>1108.20</ele>
        <time>2016-10-29T08:13:07Z</time>
      </trkpt>
      <trkpt lat="42.342132000" lon="-2.636905000">
        <ele>1108.40</ele>
        <time>2016-10-29T08:13:08Z</time>
      </trkpt>
      <trkpt lat="42.342151000" lon="-2.636913000">
        <ele>1108.50</ele>
        <time>2016-10-29T08:13:09Z</time>
      </trkpt>
      <trkpt lat="42.342167000" lon="-2.636917000">
        <ele>1108.60</ele>
        <time>2016-10-29T08:13:10Z</time>
      </trkpt>
      <trkpt lat="42.342188000" lon="-2.636918000">
        <ele>1108.60</ele>
        <time>2016-10-29T08:13:11Z</time>
      </trkpt>
      <trkpt lat="42.342204000" lon="-2.636927000">
        <ele>1108.60</ele>
        <time>2016-10-29T08:13:12Z</time>
      </trkpt>
      <trkpt lat="42.342222000" lon="-2.636934000">
        <ele>1108.50</ele>
        <time>2016-10-29T08:13:13Z</time>
      </trkpt>
      <trkpt lat="42.342243000" lon="-2.636942000">
        <ele>1108.40</ele>
        <time>2016-10-29T08:13:14Z</time>
      </trkpt>
      <trkpt lat="42.342268000" lon="-2.636946000">
        <ele>1108.40</ele>
        <time>2016-10-29T08:13:15Z</time>
      </trkpt>
      <trkpt lat="42.342294000" lon="-2.636953000">
        <ele>1108.40</ele>
        <time>2016-10-29T08:13:16Z</time>
      </trkpt>
      <trkpt lat="42.342328000" lon="-2.636961000">
        <ele>1108.30</ele>
        <time>2016-10-29T08:13:17Z</time>
      </trkpt>
      <trkpt lat="42.342364000" lon="-2.636975000">
        <ele>1108.30</ele>
        <time>2016-10-29T08:13:18Z</time>
      </trkpt>
      <trkpt lat="42.342403000" lon="-2.636990000">
        <ele>1108.20</ele>
        <time>2016-10-29T08:13:19Z</time>
      </trkpt>
      <trkpt lat="42.342446000" lon="-2.637002000">
        <ele>1108.10</ele>
        <time>2016-10-29T08:13:20Z</time>
      </trkpt>
      <trkpt lat="42.342495000" lon="-2.637015000">
        <ele>1108.00</ele>
        <time>2016-10-29T08:13:21Z</time>
      </trkpt>
      <trkpt lat="42.342542000" lon="-2.637021000">
        <ele>1107.90</ele>
        <time>2016-10-29T08:13:22Z</time>
      </trkpt>
      <trkpt lat="42.342584000" lon="-2.637033000">
        <ele>1107.90</ele>
        <time>2016-10-29T08:13:23Z</time>
      </trkpt>
      <trkpt lat="42.342620000" lon="-2.637044000">
        <ele>1107.90</ele>
        <time>2016-10-29T08:13:24Z</time>
      </trkpt>
      <trkpt lat="42.342658000" lon="-2.637059000">
        <ele>1107.30</ele>
        <time>2016-10-29T08:13:25Z</time>
      </trkpt>
      <trkpt lat="42.342700000" lon="-2.637071000">
        <ele>1106.90</ele>
        <time>2016-10-29T08:13:26Z</time>
      </trkpt>
      <trkpt lat="42.342751000" lon="-2.637085000">
        <ele>1106.40</ele>
        <time>2016-10-29T08:13:27Z</time>
      </trkpt>
      <trkpt lat="42.342806000" lon="-2.637097000">
        <ele>1106.10</ele>
        <time>2016-10-29T08:13:28Z</time>
      </trkpt>
      <trkpt lat="42.342863000" lon="-2.637111000">
        <ele>1105.40</ele>
        <time>2016-10-29T08:13:29Z</time>
      </trkpt>
      <trkpt lat="42.342922000" lon="-2.637128000">
        <ele>1104.80</ele>
        <time>2016-10-29T08:13:30Z</time>
      </trkpt>
      <trkpt lat="42.342981000" lon="-2.637142000">
        <ele>1104.40</ele>
        <time>2016-10-29T08:13:31Z</time>
      </trkpt>
      <trkpt lat="42.343044000" lon="-2.637170000">
        <ele>1104.10</ele>
        <time>2016-10-29T08:13:32Z</time>
      </trkpt>
      <trkpt lat="42.343110000" lon="-2.637202000">
        <ele>1103.60</ele>
        <time>2016-10-29T08:13:33Z</time>
      </trkpt>
      <trkpt lat="42.343252000" lon="-2.637266000">
        <ele>1102.60</ele>
        <time>2016-10-29T08:13:35Z</time>
      </trkpt>
      <trkpt lat="42.343329000" lon="-2.637292000">
        <ele>1102.10</ele>
        <time>2016-10-29T08:13:36Z</time>
      </trkpt>
      <trkpt lat="42.343404000" lon="-2.637312000">
        <ele>1101.20</ele>
        <time>2016-10-29T08:13:37Z</time>
      </trkpt>
      <trkpt lat="42.343484000" lon="-2.637324000">
        <ele>1100.60</ele>
        <time>2016-10-29T08:13:38Z</time>
      </trkpt>
      <trkpt lat="42.343573000" lon="-2.637329000">
        <ele>1099.90</ele>
        <time>2016-10-29T08:13:39Z</time>
      </trkpt>
      <trkpt lat="42.343664000" lon="-2.637327000">
        <ele>1099.40</ele>
        <time>2016-10-29T08:13:40Z</time>
      </trkpt>
      <trkpt lat="42.343754000" lon="-2.637316000">
        <ele>1098.40</ele>
        <time>2016-10-29T08:13:41Z</time>
      </trkpt>
      <trkpt lat="42.343849000" lon="-2.637304000">
        <ele>1097.70</ele>
        <time>2016-10-29T08:13:42Z</time>
      </trkpt>
      <trkpt lat="42.343945000" lon="-2.637289000">
        <ele>1096.70</ele>
        <time>2016-10-29T08:13:43Z</time>
      </trkpt>
      <trkpt lat="42.344044000" lon="-2.637279000">
        <ele>1096.00</ele>
        <time>2016-10-29T08:13:44Z</time>
      </trkpt>
      <trkpt lat="42.344145000" lon="-2.637265000">
        <ele>1095.20</ele>
        <time>2016-10-29T08:13:45Z</time>
      </trkpt>
      <trkpt lat="42.344249000" lon="-2.637251000">
        <ele>1094.60</ele>
        <time>2016-10-29T08:13:46Z</time>
      </trkpt>
      <trkpt lat="42.344356000" lon="-2.637233000">
        <ele>1093.80</ele>
        <time>2016-10-29T08:13:47Z</time>
      </trkpt>
      <trkpt lat="42.344461000" lon="-2.637209000">
        <ele>1093.20</ele>
        <time>2016-10-29T08:13:48Z</time>
      </trkpt>
      <trkpt lat="42.344549000" lon="-2.637172000">
        <ele>1092.20</ele>
        <time>2016-10-29T08:13:49Z</time>
      </trkpt>
      <trkpt lat="42.344613000" lon="-2.637117000">
        <ele>1091.50</ele>
        <time>2016-10-29T08:13:50Z</time>
      </trkpt>
      <trkpt lat="42.344665000" lon="-2.637047000">
        <ele>1090.90</ele>
        <time>2016-10-29T08:13:51Z</time>
      </trkpt>
      <trkpt lat="42.344708000" lon="-2.636971000">
        <ele>1090.50</ele>
        <time>2016-10-29T08:13:52Z</time>
      </trkpt>
      <trkpt lat="42.344746000" lon="-2.636896000">
        <ele>1090.00</ele>
        <time>2016-10-29T08:13:53Z</time>
      </trkpt>
      <trkpt lat="42.344787000" lon="-2.636824000">
        <ele>1089.60</ele>
        <time>2016-10-29T08:13:54Z</time>
      </trkpt>
      <trkpt lat="42.344829000" lon="-2.636752000">
        <ele>1089.20</ele>
        <time>2016-10-29T08:13:55Z</time>
      </trkpt>
      <trkpt lat="42.344871000" lon="-2.636679000">
        <ele>1088.80</ele>
        <time>2016-10-29T08:13:56Z</time>
      </trkpt>
      <trkpt lat="42.344917000" lon="-2.636608000">
        <ele>1088.50</ele>
        <time>2016-10-29T08:13:57Z</time>
      </trkpt>
      <trkpt lat="42.344967000" lon="-2.636543000">
        <ele>1088.20</ele>
        <time>2016-10-29T08:13:58Z</time>
      </trkpt>
      <trkpt lat="42.345021000" lon="-2.636481000">
        <ele>1088.10</ele>
        <time>2016-10-29T08:13:59Z</time>
      </trkpt>
      <trkpt lat="42.345067000" lon="-2.636419000">
        <ele>1087.90</ele>
        <time>2016-10-29T08:14:00Z</time>
      </trkpt>
      <trkpt lat="42.345106000" lon="-2.636360000">
        <ele>1087.80</ele>
        <time>2016-10-29T08:14:01Z</time>
      </trkpt>
      <trkpt lat="42.345141000" lon="-2.636299000">
        <ele>1087.90</ele>
        <time>2016-10-29T08:14:02Z</time>
      </trkpt>
      <trkpt lat="42.345174000" lon="-2.636245000">
        <ele>1087.90</ele>
        <time>2016-10-29T08:14:03Z</time>
      </trkpt>
      <trkpt lat="42.345202000" lon="-2.636192000">
        <ele>1088.10</ele>
        <time>2016-10-29T08:14:04Z</time>
      </trkpt>
      <trkpt lat="42.345223000" lon="-2.636140000">
        <ele>1088.30</ele>
        <time>2016-10-29T08:14:05Z</time>
      </trkpt>
      <trkpt lat="42.345247000" lon="-2.636084000">
        <ele>1088.40</ele>
        <time>2016-10-29T08:14:06Z</time>
      </trkpt>
      <trkpt lat="42.345269000" lon="-2.636029000">
        <ele>1088.50</ele>
        <time>2016-10-29T08:14:07Z</time>
      </trkpt>
      <trkpt lat="42.345288000" lon="-2.635970000">
        <ele>1088.60</ele>
        <time>2016-10-29T08:14:08Z</time>
      </trkpt>
      <trkpt lat="42.345307000" lon="-2.635905000">
        <ele>1088.60</ele>
        <time>2016-10-29T08:14:09Z</time>
      </trkpt>
      <trkpt lat="42.345324000" lon="-2.635835000">
        <ele>1088.60</ele>
        <time>2016-10-29T08:14:10Z</time>
      </trkpt>
      <trkpt lat="42.345336000" lon="-2.635757000">
        <ele>1088.60</ele>
        <time>2016-10-29T08:14:11Z</time>
      </trkpt>
      <trkpt lat="42.345356000" lon="-2.635671000">
        <ele>1088.30</ele>
        <time>2016-10-29T08:14:12Z</time>
      </trkpt>
      <trkpt lat="42.345372000" lon="-2.635591000">
        <ele>1088.10</ele>
        <time>2016-10-29T08:14:13Z</time>
      </trkpt>
      <trkpt lat="42.345384000" lon="-2.635517000">
        <ele>1088.30</ele>
        <time>2016-10-29T08:14:14Z</time>
      </trkpt>
      <trkpt lat="42.345402000" lon="-2.635446000">
        <ele>1088.40</ele>
        <time>2016-10-29T08:14:15Z</time>
      </trkpt>
      <trkpt lat="42.345422000" lon="-2.635377000">
        <ele>1088.10</ele>
        <time>2016-10-29T08:14:16Z</time>
      </trkpt>
      <trkpt lat="42.345444000" lon="-2.635309000">
        <ele>1087.90</ele>
        <time>2016-10-29T08:14:17Z</time>
      </trkpt>
      <trkpt lat="42.345465000" lon="-2.635246000">
        <ele>1087.50</ele>
        <time>2016-10-29T08:14:18Z</time>
      </trkpt>
      <trkpt lat="42.345488000" lon="-2.635175000">
        <ele>1087.30</ele>
        <time>2016-10-29T08:14:19Z</time>
      </trkpt>
      <trkpt lat="42.345510000" lon="-2.635109000">
        <ele>1087.10</ele>
        <time>2016-10-29T08:14:20Z</time>
      </trkpt>
      <trkpt lat="42.345530000" lon="-2.635038000">
        <ele>1087.00</ele>
        <time>2016-10-29T08:14:21Z</time>
      </trkpt>
      <trkpt lat="42.345555000" lon="-2.634966000">
        <ele>1086.90</ele>
        <time>2016-10-29T08:14:22Z</time>
      </trkpt>
      <trkpt lat="42.345577000" lon="-2.634890000">
        <ele>1086.80</ele>
        <time>2016-10-29T08:14:23Z</time>
      </trkpt>
      <trkpt lat="42.345597000" lon="-2.634810000">
        <ele>1086.70</ele>
        <time>2016-10-29T08:14:24Z</time>
      </trkpt>
      <trkpt lat="42.345619000" lon="-2.634725000">
        <ele>1086.60</ele>
        <time>2016-10-29T08:14:25Z</time>
      </trkpt>
      <trkpt lat="42.345645000" lon="-2.634645000">
        <ele>1086.30</ele>
        <time>2016-10-29T08:14:26Z</time>
      </trkpt>
      <trkpt lat="42.345671000" lon="-2.634565000">
        <ele>1086.10</ele>
        <time>2016-10-29T08:14:27Z</time>
      </trkpt>
      <trkpt lat="42.345700000" lon="-2.634491000">
        <ele>1085.90</ele>
        <time>2016-10-29T08:14:28Z</time>
      </trkpt>
      <trkpt lat="42.345730000" lon="-2.634414000">
        <ele>1085.70</ele>
        <time>2016-10-29T08:14:29Z</time>
      </trkpt>
      <trkpt lat="42.345764000" lon="-2.634341000">
        <ele>1085.50</ele>
        <time>2016-10-29T08:14:30Z</time>
      </trkpt>
      <trkpt lat="42.345794000" lon="-2.634264000">
        <ele>1085.40</ele>
        <time>2016-10-29T08:14:31Z</time>
      </trkpt>
      <trkpt lat="42.345830000" lon="-2.634181000">
        <ele>1085.20</ele>
        <time>2016-10-29T08:14:32Z</time>
      </trkpt>
      <trkpt lat="42.345866000" lon="-2.634093000">
        <ele>1085.00</ele>
        <time>2016-10-29T08:14:33Z</time>
      </trkpt>
      <trkpt lat="42.345903000" lon="-2.634004000">
        <ele>1084.70</ele>
        <time>2016-10-29T08:14:34Z</time>
      </trkpt>
      <trkpt lat="42.345975000" lon="-2.633815000">
        <ele>1084.30</ele>
        <time>2016-10-29T08:14:36Z</time>
      </trkpt>
      <trkpt lat="42.346007000" lon="-2.633721000">
        <ele>1084.10</ele>
        <time>2016-10-29T08:14:37Z</time>
      </trkpt>
      <trkpt lat="42.346042000" lon="-2.633628000">
        <ele>1083.90</ele>
        <time>2016-10-29T08:14:38Z</time>
      </trkpt>
      <trkpt lat="42.346078000" lon="-2.633540000">
        <ele>1083.70</ele>
        <time>2016-10-29T08:14:39Z</time>
      </trkpt>
      <trkpt lat="42.346114000" lon="-2.633451000">
        <ele>1083.50</ele>
        <time>2016-10-29T08:14:40Z</time>
      </trkpt>
      <trkpt lat="42.346151000" lon="-2.633361000">
        <ele>1083.30</ele>
        <time>2016-10-29T08:14:41Z</time>
      </trkpt>
      <trkpt lat="42.346186000" lon="-2.633273000">
        <ele>1082.70</ele>
        <time>2016-10-29T08:14:42Z</time>
      </trkpt>
      <trkpt lat="42.346222000" lon="-2.633185000">
        <ele>1082.30</ele>
        <time>2016-10-29T08:14:43Z</time>
      </trkpt>
      <trkpt lat="42.346254000" lon="-2.633094000">
        <ele>1082.00</ele>
        <time>2016-10-29T08:14:44Z</time>
      </trkpt>
      <trkpt lat="42.346287000" lon="-2.633002000">
        <ele>1081.70</ele>
        <time>2016-10-29T08:14:45Z</time>
      </trkpt>
      <trkpt lat="42.346323000" lon="-2.632909000">
        <ele>1081.40</ele>
        <time>2016-10-29T08:14:46Z</time>
      </trkpt>
      <trkpt lat="42.346364000" lon="-2.632823000">
        <ele>1081.20</ele>
        <time>2016-10-29T08:14:47Z</time>
      </trkpt>
      <trkpt lat="42.346403000" lon="-2.632750000">
        <ele>1081.00</ele>
        <time>2016-10-29T08:14:48Z</time>
      </trkpt>
      <trkpt lat="42.346442000" lon="-2.632687000">
        <ele>1080.80</ele>
        <time>2016-10-29T08:14:49Z</time>
      </trkpt>
      <trkpt lat="42.346477000" lon="-2.632627000">
        <ele>1080.70</ele>
        <time>2016-10-29T08:14:50Z</time>
      </trkpt>
      <trkpt lat="42.346512000" lon="-2.632569000">
        <ele>1080.60</ele>
        <time>2016-10-29T08:14:51Z</time>
      </trkpt>
      <trkpt lat="42.346541000" lon="-2.632510000">
        <ele>1080.40</ele>
        <time>2016-10-29T08:14:52Z</time>
      </trkpt>
      <trkpt lat="42.346574000" lon="-2.632451000">
        <ele>1080.80</ele>
        <time>2016-10-29T08:14:53Z</time>
      </trkpt>
      <trkpt lat="42.346607000" lon="-2.632395000">
        <ele>1081.00</ele>
        <time>2016-10-29T08:14:54Z</time>
      </trkpt>
      <trkpt lat="42.346638000" lon="-2.632333000">
        <ele>1081.20</ele>
        <time>2016-10-29T08:14:55Z</time>
      </trkpt>
      <trkpt lat="42.346673000" lon="-2.632269000">
        <ele>1081.30</ele>
        <time>2016-10-29T08:14:56Z</time>
      </trkpt>
      <trkpt lat="42.346706000" lon="-2.632203000">
        <ele>1081.40</ele>
        <time>2016-10-29T08:14:57Z</time>
      </trkpt>
      <trkpt lat="42.346743000" lon="-2.632134000">
        <ele>1081.50</ele>
        <time>2016-10-29T08:14:58Z</time>
      </trkpt>
      <trkpt lat="42.346780000" lon="-2.632065000">
        <ele>1081.30</ele>
        <time>2016-10-29T08:14:59Z</time>
      </trkpt>
      <trkpt lat="42.346820000" lon="-2.631990000">
        <ele>1081.10</ele>
        <time>2016-10-29T08:15:00Z</time>
      </trkpt>
      <trkpt lat="42.346860000" lon="-2.631914000">
        <ele>1081.00</ele>
        <time>2016-10-29T08:15:01Z</time>
      </trkpt>
      <trkpt lat="42.346902000" lon="-2.631838000">
        <ele>1081.00</ele>
        <time>2016-10-29T08:15:02Z</time>
      </trkpt>
      <trkpt lat="42.346948000" lon="-2.631763000">
        <ele>1080.90</ele>
        <time>2016-10-29T08:15:03Z</time>
      </trkpt>
      <trkpt lat="42.346993000" lon="-2.631683000">
        <ele>1080.80</ele>
        <time>2016-10-29T08:15:04Z</time>
      </trkpt>
      <trkpt lat="42.347038000" lon="-2.631604000">
        <ele>1080.70</ele>
        <time>2016-10-29T08:15:05Z</time>
      </trkpt>
      <trkpt lat="42.347086000" lon="-2.631524000">
        <ele>1080.70</ele>
        <time>2016-10-29T08:15:06Z</time>
      </trkpt>
      <trkpt lat="42.347136000" lon="-2.631444000">
        <ele>1080.70</ele>
        <time>2016-10-29T08:15:07Z</time>
      </trkpt>
      <trkpt lat="42.347184000" lon="-2.631360000">
        <ele>1080.70</ele>
        <time>2016-10-29T08:15:08Z</time>
      </trkpt>
      <trkpt lat="42.347235000" lon="-2.631284000">
        <ele>1080.70</ele>
        <time>2016-10-29T08:15:09Z</time>
      </trkpt>
      <trkpt lat="42.347291000" lon="-2.631208000">
        <ele>1080.80</ele>
        <time>2016-10-29T08:15:10Z</time>
      </trkpt>
      <trkpt lat="42.347348000" lon="-2.631138000">
        <ele>1080.70</ele>
        <time>2016-10-29T08:15:11Z</time>
      </trkpt>
      <trkpt lat="42.347390000" lon="-2.631090000">
        <ele>1080.60</ele>
        <time>2016-10-29T08:15:12Z</time>
      </trkpt>
      <trkpt lat="42.347425000" lon="-2.631045000">
        <ele>1079.90</ele>
        <time>2016-10-29T08:15:13Z</time>
      </trkpt>
      <trkpt lat="42.347464000" lon="-2.631006000">
        <ele>1079.40</ele>
        <time>2016-10-29T08:15:14Z</time>
      </trkpt>
      <trkpt lat="42.347499000" lon="-2.630976000">
        <ele>1079.00</ele>
        <time>2016-10-29T08:15:15Z</time>
      </trkpt>
      <trkpt lat="42.347541000" lon="-2.630956000">
        <ele>1078.70</ele>
        <time>2016-10-29T08:15:16Z</time>
      </trkpt>
      <trkpt lat="42.347589000" lon="-2.630936000">
        <ele>1078.70</ele>
        <time>2016-10-29T08:15:17Z</time>
      </trkpt>
      <trkpt lat="42.347642000" lon="-2.630918000">
        <ele>1078.80</ele>
        <time>2016-10-29T08:15:18Z</time>
      </trkpt>
      <trkpt lat="42.347700000" lon="-2.630905000">
        <ele>1078.80</ele>
        <time>2016-10-29T08:15:19Z</time>
      </trkpt>
      <trkpt lat="42.347761000" lon="-2.630890000">
        <ele>1078.90</ele>
        <time>2016-10-29T08:15:20Z</time>
      </trkpt>
      <trkpt lat="42.347817000" lon="-2.630875000">
        <ele>1078.70</ele>
        <time>2016-10-29T08:15:21Z</time>
      </trkpt>
      <trkpt lat="42.347860000" lon="-2.630839000">
        <ele>1078.60</ele>
        <time>2016-10-29T08:15:22Z</time>
      </trkpt>
      <trkpt lat="42.347892000" lon="-2.630791000">
        <ele>1078.40</ele>
        <time>2016-10-29T08:15:23Z</time>
      </trkpt>
      <trkpt lat="42.347906000" lon="-2.630735000">
        <ele>1078.20</ele>
        <time>2016-10-29T08:15:24Z</time>
      </trkpt>
      <trkpt lat="42.347905000" lon="-2.630671000">
        <ele>1077.80</ele>
        <time>2016-10-29T08:15:25Z</time>
      </trkpt>
      <trkpt lat="42.347895000" lon="-2.630601000">
        <ele>1077.50</ele>
        <time>2016-10-29T08:15:26Z</time>
      </trkpt>
      <trkpt lat="42.347886000" lon="-2.630525000">
        <ele>1077.00</ele>
        <time>2016-10-29T08:15:27Z</time>
      </trkpt>
      <trkpt lat="42.347872000" lon="-2.630443000">
        <ele>1076.70</ele>
        <time>2016-10-29T08:15:28Z</time>
      </trkpt>
      <trkpt lat="42.347858000" lon="-2.630355000">
        <ele>1076.40</ele>
        <time>2016-10-29T08:15:29Z</time>
      </trkpt>
      <trkpt lat="42.347842000" lon="-2.630269000">
        <ele>1076.30</ele>
        <time>2016-10-29T08:15:30Z</time>
      </trkpt>
      <trkpt lat="42.347828000" lon="-2.630181000">
        <ele>1076.10</ele>
        <time>2016-10-29T08:15:31Z</time>
      </trkpt>
      <trkpt lat="42.347808000" lon="-2.630089000">
        <ele>1075.90</ele>
        <time>2016-10-29T08:15:32Z</time>
      </trkpt>
      <trkpt lat="42.347780000" lon="-2.630002000">
        <ele>1075.50</ele>
        <time>2016-10-29T08:15:33Z</time>
      </trkpt>
      <trkpt lat="42.347749000" lon="-2.629922000">
        <ele>1075.20</ele>
        <time>2016-10-29T08:15:34Z</time>
      </trkpt>
      <trkpt lat="42.347721000" lon="-2.629847000">
        <ele>1074.90</ele>
        <time>2016-10-29T08:15:35Z</time>
      </trkpt>
      <trkpt lat="42.347693000" lon="-2.629777000">
        <ele>1074.60</ele>
        <time>2016-10-29T08:15:36Z</time>
      </trkpt>
      <trkpt lat="42.347641000" lon="-2.629647000">
        <ele>1074.20</ele>
        <time>2016-10-29T08:15:38Z</time>
      </trkpt>
      <trkpt lat="42.347618000" lon="-2.629589000">
        <ele>1074.10</ele>
        <time>2016-10-29T08:15:39Z</time>
      </trkpt>
      <trkpt lat="42.347598000" lon="-2.629531000">
        <ele>1074.00</ele>
        <time>2016-10-29T08:15:40Z</time>
      </trkpt>
      <trkpt lat="42.347575000" lon="-2.629485000">
        <ele>1073.90</ele>
        <time>2016-10-29T08:15:41Z</time>
      </trkpt>
      <trkpt lat="42.347561000" lon="-2.629442000">
        <ele>1073.80</ele>
        <time>2016-10-29T08:15:42Z</time>
      </trkpt>
      <trkpt lat="42.347549000" lon="-2.629402000">
        <ele>1073.80</ele>
        <time>2016-10-29T08:15:43Z</time>
      </trkpt>
      <trkpt lat="42.347530000" lon="-2.629368000">
        <ele>1073.80</ele>
        <time>2016-10-29T08:15:44Z</time>
      </trkpt>
      <trkpt lat="42.347519000" lon="-2.629331000">
        <ele>1074.10</ele>
        <time>2016-10-29T08:15:45Z</time>
      </trkpt>
      <trkpt lat="42.347506000" lon="-2.629288000">
        <ele>1074.30</ele>
        <time>2016-10-29T08:15:46Z</time>
      </trkpt>
      <trkpt lat="42.347492000" lon="-2.629240000">
        <ele>1074.50</ele>
        <time>2016-10-29T08:15:47Z</time>
      </trkpt>
      <trkpt lat="42.347483000" lon="-2.629190000">
        <ele>1074.70</ele>
        <time>2016-10-29T08:15:48Z</time>
      </trkpt>
      <trkpt lat="42.347473000" lon="-2.629141000">
        <ele>1074.80</ele>
        <time>2016-10-29T08:15:49Z</time>
      </trkpt>
      <trkpt lat="42.347460000" lon="-2.629096000">
        <ele>1074.90</ele>
        <time>2016-10-29T08:15:50Z</time>
      </trkpt>
      <trkpt lat="42.347449000" lon="-2.629045000">
        <ele>1075.10</ele>
        <time>2016-10-29T08:15:51Z</time>
      </trkpt>
      <trkpt lat="42.347443000" lon="-2.629003000">
        <ele>1075.20</ele>
        <time>2016-10-29T08:15:52Z</time>
      </trkpt>
      <trkpt lat="42.347437000" lon="-2.628951000">
        <ele>1075.30</ele>
        <time>2016-10-29T08:15:53Z</time>
      </trkpt>
      <trkpt lat="42.347425000" lon="-2.628899000">
        <ele>1075.40</ele>
        <time>2016-10-29T08:15:54Z</time>
      </trkpt>
      <trkpt lat="42.347409000" lon="-2.628853000">
        <ele>1075.40</ele>
        <time>2016-10-29T08:15:55Z</time>
      </trkpt>
      <trkpt lat="42.347398000" lon="-2.628813000">
        <ele>1075.50</ele>
        <time>2016-10-29T08:15:56Z</time>
      </trkpt>
      <trkpt lat="42.347388000" lon="-2.628771000">
        <ele>1075.50</ele>
        <time>2016-10-29T08:15:57Z</time>
      </trkpt>
      <trkpt lat="42.347379000" lon="-2.628729000">
        <ele>1075.50</ele>
        <time>2016-10-29T08:15:58Z</time>
      </trkpt>
      <trkpt lat="42.347363000" lon="-2.628684000">
        <ele>1075.60</ele>
        <time>2016-10-29T08:15:59Z</time>
      </trkpt>
      <trkpt lat="42.347353000" lon="-2.628637000">
        <ele>1075.60</ele>
        <time>2016-10-29T08:16:00Z</time>
      </trkpt>
      <trkpt lat="42.347339000" lon="-2.628600000">
        <ele>1075.60</ele>
        <time>2016-10-29T08:16:01Z</time>
      </trkpt>
      <trkpt lat="42.347322000" lon="-2.628556000">
        <ele>1075.60</ele>
        <time>2016-10-29T08:16:02Z</time>
      </trkpt>
      <trkpt lat="42.347314000" lon="-2.628519000">
        <ele>1075.80</ele>
        <time>2016-10-29T08:16:03Z</time>
      </trkpt>
      <trkpt lat="42.347300000" lon="-2.628470000">
        <ele>1075.90</ele>
        <time>2016-10-29T08:16:04Z</time>
      </trkpt>
      <trkpt lat="42.347289000" lon="-2.628422000">
        <ele>1076.10</ele>
        <time>2016-10-29T08:16:05Z</time>
      </trkpt>
      <trkpt lat="42.347276000" lon="-2.628375000">
        <ele>1076.30</ele>
        <time>2016-10-29T08:16:06Z</time>
      </trkpt>
      <trkpt lat="42.347264000" lon="-2.628325000">
        <ele>1076.30</ele>
        <time>2016-10-29T08:16:07Z</time>
      </trkpt>
      <trkpt lat="42.347247000" lon="-2.628286000">
        <ele>1076.30</ele>
        <time>2016-10-29T08:16:08Z</time>
      </trkpt>
      <trkpt lat="42.347235000" lon="-2.628243000">
        <ele>1076.40</ele>
        <time>2016-10-29T08:16:09Z</time>
      </trkpt>
      <trkpt lat="42.347225000" lon="-2.628204000">
        <ele>1076.50</ele>
        <time>2016-10-29T08:16:10Z</time>
      </trkpt>
      <trkpt lat="42.347213000" lon="-2.628166000">
        <ele>1076.80</ele>
        <time>2016-10-29T08:16:11Z</time>
      </trkpt>
      <trkpt lat="42.347196000" lon="-2.628131000">
        <ele>1076.90</ele>
        <time>2016-10-29T08:16:12Z</time>
      </trkpt>
      <trkpt lat="42.347181000" lon="-2.628095000">
        <ele>1077.10</ele>
        <time>2016-10-29T08:16:13Z</time>
      </trkpt>
      <trkpt lat="42.347166000" lon="-2.628056000">
        <ele>1077.20</ele>
        <time>2016-10-29T08:16:14Z</time>
      </trkpt>
      <trkpt lat="42.347149000" lon="-2.628020000">
        <ele>1077.40</ele>
        <time>2016-10-29T08:16:15Z</time>
      </trkpt>
      <trkpt lat="42.347127000" lon="-2.627983000">
        <ele>1077.60</ele>
        <time>2016-10-29T08:16:16Z</time>
      </trkpt>
      <trkpt lat="42.347107000" lon="-2.627949000">
        <ele>1077.80</ele>
        <time>2016-10-29T08:16:17Z</time>
      </trkpt>
      <trkpt lat="42.347079000" lon="-2.627918000">
        <ele>1077.90</ele>
        <time>2016-10-29T08:16:18Z</time>
      </trkpt>
      <trkpt lat="42.347055000" lon="-2.627876000">
        <ele>1078.10</ele>
        <time>2016-10-29T08:16:19Z</time>
      </trkpt>
      <trkpt lat="42.347033000" lon="-2.627836000">
        <ele>1078.20</ele>
        <time>2016-10-29T08:16:20Z</time>
      </trkpt>
      <trkpt lat="42.347008000" lon="-2.627799000">
        <ele>1078.20</ele>
        <time>2016-10-29T08:16:21Z</time>
      </trkpt>
      <trkpt lat="42.346989000" lon="-2.627768000">
        <ele>1078.30</ele>
        <time>2016-10-29T08:16:22Z</time>
      </trkpt>
      <trkpt lat="42.346968000" lon="-2.627716000">
        <ele>1078.60</ele>
        <time>2016-10-29T08:16:23Z</time>
      </trkpt>
      <trkpt lat="42.346951000" lon="-2.627671000">
        <ele>1078.80</ele>
        <time>2016-10-29T08:16:24Z</time>
      </trkpt>
      <trkpt lat="42.346929000" lon="-2.627617000">
        <ele>1079.00</ele>
        <time>2016-10-29T08:16:25Z</time>
      </trkpt>
      <trkpt lat="42.346909000" lon="-2.627578000">
        <ele>1079.10</ele>
        <time>2016-10-29T08:16:26Z</time>
      </trkpt>
      <trkpt lat="42.346886000" lon="-2.627535000">
        <ele>1079.00</ele>
        <time>2016-10-29T08:16:27Z</time>
      </trkpt>
      <trkpt lat="42.346861000" lon="-2.627491000">
        <ele>1079.00</ele>
        <time>2016-10-29T08:16:28Z</time>
      </trkpt>
      <trkpt lat="42.346837000" lon="-2.627450000">
        <ele>1078.90</ele>
        <time>2016-10-29T08:16:29Z</time>
      </trkpt>
      <trkpt lat="42.346818000" lon="-2.627407000">
        <ele>1078.90</ele>
        <time>2016-10-29T08:16:30Z</time>
      </trkpt>
      <trkpt lat="42.346807000" lon="-2.627367000">
        <ele>1078.80</ele>
        <time>2016-10-29T08:16:31Z</time>
      </trkpt>
      <trkpt lat="42.346789000" lon="-2.627321000">
        <ele>1078.80</ele>
        <time>2016-10-29T08:16:32Z</time>
      </trkpt>
      <trkpt lat="42.346773000" lon="-2.627278000">
        <ele>1078.70</ele>
        <time>2016-10-29T08:16:33Z</time>
      </trkpt>
      <trkpt lat="42.346756000" lon="-2.627234000">
        <ele>1078.70</ele>
        <time>2016-10-29T08:16:34Z</time>
      </trkpt>
      <trkpt lat="42.346740000" lon="-2.627186000">
        <ele>1078.60</ele>
        <time>2016-10-29T08:16:35Z</time>
      </trkpt>
      <trkpt lat="42.346720000" lon="-2.627136000">
        <ele>1078.60</ele>
        <time>2016-10-29T08:16:36Z</time>
      </trkpt>
      <trkpt lat="42.346703000" lon="-2.627089000">
        <ele>1078.60</ele>
        <time>2016-10-29T08:16:37Z</time>
      </trkpt>
      <trkpt lat="42.346666000" lon="-2.627010000">
        <ele>1078.70</ele>
        <time>2016-10-29T08:16:39Z</time>
      </trkpt>
      <trkpt lat="42.346638000" lon="-2.626958000">
        <ele>1078.70</ele>
        <time>2016-10-29T08:16:40Z</time>
      </trkpt>
      <trkpt lat="42.346619000" lon="-2.626918000">
        <ele>1078.60</ele>
        <time>2016-10-29T08:16:41Z</time>
      </trkpt>
      <trkpt lat="42.346604000" lon="-2.626878000">
        <ele>1078.40</ele>
        <time>2016-10-29T08:16:42Z</time>
      </trkpt>
      <trkpt lat="42.346594000" lon="-2.626838000">
        <ele>1078.30</ele>
        <time>2016-10-29T08:16:43Z</time>
      </trkpt>
      <trkpt lat="42.346578000" lon="-2.626785000">
        <ele>1078.30</ele>
        <time>2016-10-29T08:16:44Z</time>
      </trkpt>
      <trkpt lat="42.346562000" lon="-2.626738000">
        <ele>1078.20</ele>
        <time>2016-10-29T08:16:45Z</time>
      </trkpt>
      <trkpt lat="42.346539000" lon="-2.626688000">
        <ele>1078.20</ele>
        <time>2016-10-29T08:16:46Z</time>
      </trkpt>
      <trkpt lat="42.346515000" lon="-2.626638000">
        <ele>1078.30</ele>
        <time>2016-10-29T08:16:47Z</time>
      </trkpt>
      <trkpt lat="42.346497000" lon="-2.626608000">
        <ele>1078.40</ele>
        <time>2016-10-29T08:16:48Z</time>
      </trkpt>
      <trkpt lat="42.346470000" lon="-2.626577000">
        <ele>1078.50</ele>
        <time>2016-10-29T08:16:49Z</time>
      </trkpt>
      <trkpt lat="42.346454000" lon="-2.626543000">
        <ele>1078.50</ele>
        <time>2016-10-29T08:16:50Z</time>
      </trkpt>
      <trkpt lat="42.346435000" lon="-2.626503000">
        <ele>1078.60</ele>
        <time>2016-10-29T08:16:51Z</time>
      </trkpt>
      <trkpt lat="42.346424000" lon="-2.626464000">
        <ele>1078.70</ele>
        <time>2016-10-29T08:16:52Z</time>
      </trkpt>
      <trkpt lat="42.346411000" lon="-2.626424000">
        <ele>1078.70</ele>
        <time>2016-10-29T08:16:53Z</time>
      </trkpt>
      <trkpt lat="42.346395000" lon="-2.626379000">
        <ele>1078.70</ele>
        <time>2016-10-29T08:16:54Z</time>
      </trkpt>
      <trkpt lat="42.346389000" lon="-2.626326000">
        <ele>1078.70</ele>
        <time>2016-10-29T08:16:55Z</time>
      </trkpt>
      <trkpt lat="42.346383000" lon="-2.626265000">
        <ele>1078.70</ele>
        <time>2016-10-29T08:16:56Z</time>
      </trkpt>
      <trkpt lat="42.346380000" lon="-2.626203000">
        <ele>1078.70</ele>
        <time>2016-10-29T08:16:57Z</time>
      </trkpt>
      <trkpt lat="42.346380000" lon="-2.626148000">
        <ele>1078.70</ele>
        <time>2016-10-29T08:16:58Z</time>
      </trkpt>
      <trkpt lat="42.346384000" lon="-2.626093000">
        <ele>1078.90</ele>
        <time>2016-10-29T08:16:59Z</time>
      </trkpt>
      <trkpt lat="42.346384000" lon="-2.626047000">
        <ele>1079.00</ele>
        <time>2016-10-29T08:17:00Z</time>
      </trkpt>
      <trkpt lat="42.346386000" lon="-2.625999000">
        <ele>1079.10</ele>
        <time>2016-10-29T08:17:01Z</time>
      </trkpt>
      <trkpt lat="42.346390000" lon="-2.625948000">
        <ele>1079.20</ele>
        <time>2016-10-29T08:17:02Z</time>
      </trkpt>
      <trkpt lat="42.346401000" lon="-2.625891000">
        <ele>1079.00</ele>
        <time>2016-10-29T08:17:03Z</time>
      </trkpt>
      <trkpt lat="42.346411000" lon="-2.625831000">
        <ele>1078.90</ele>
        <time>2016-10-29T08:17:04Z</time>
      </trkpt>
      <trkpt lat="42.346421000" lon="-2.625776000">
        <ele>1078.70</ele>
        <time>2016-10-29T08:17:05Z</time>
      </trkpt>
      <trkpt lat="42.346435000" lon="-2.625737000">
        <ele>1078.50</ele>
        <time>2016-10-29T08:17:06Z</time>
      </trkpt>
      <trkpt lat="42.346458000" lon="-2.625697000">
        <ele>1078.30</ele>
        <time>2016-10-29T08:17:07Z</time>
      </trkpt>
      <trkpt lat="42.346476000" lon="-2.625661000">
        <ele>1078.20</ele>
        <time>2016-10-29T08:17:08Z</time>
      </trkpt>
      <trkpt lat="42.346493000" lon="-2.625629000">
        <ele>1078.20</ele>
        <time>2016-10-29T08:17:09Z</time>
      </trkpt>
      <trkpt lat="42.346509000" lon="-2.625591000">
        <ele>1078.20</ele>
        <time>2016-10-29T08:17:10Z</time>
      </trkpt>
      <trkpt lat="42.346533000" lon="-2.625550000">
        <ele>1078.30</ele>
        <time>2016-10-29T08:17:11Z</time>
      </trkpt>
      <trkpt lat="42.346563000" lon="-2.625504000">
        <ele>1078.40</ele>
        <time>2016-10-29T08:17:12Z</time>
      </trkpt>
      <trkpt lat="42.346583000" lon="-2.625452000">
        <ele>1078.50</ele>
        <time>2016-10-29T08:17:13Z</time>
      </trkpt>
      <trkpt lat="42.346604000" lon="-2.625404000">
        <ele>1078.70</ele>
        <time>2016-10-29T08:17:14Z</time>
      </trkpt>
      <trkpt lat="42.346619000" lon="-2.625361000">
        <ele>1078.70</ele>
        <time>2016-10-29T08:17:15Z</time>
      </trkpt>
      <trkpt lat="42.346638000" lon="-2.625313000">
        <ele>1078.80</ele>
        <time>2016-10-29T08:17:16Z</time>
      </trkpt>
      <trkpt lat="42.346651000" lon="-2.625266000">
        <ele>1078.90</ele>
        <time>2016-10-29T08:17:17Z</time>
      </trkpt>
      <trkpt lat="42.346662000" lon="-2.625219000">
        <ele>1079.00</ele>
        <time>2016-10-29T08:17:18Z</time>
      </trkpt>
      <trkpt lat="42.346673000" lon="-2.625180000">
        <ele>1079.10</ele>
        <time>2016-10-29T08:17:19Z</time>
      </trkpt>
      <trkpt lat="42.346684000" lon="-2.625142000">
        <ele>1079.20</ele>
        <time>2016-10-29T08:17:20Z</time>
      </trkpt>
      <trkpt lat="42.346696000" lon="-2.625104000">
        <ele>1079.30</ele>
        <time>2016-10-29T08:17:21Z</time>
      </trkpt>
      <trkpt lat="42.346705000" lon="-2.625069000">
        <ele>1079.40</ele>
        <time>2016-10-29T08:17:22Z</time>
      </trkpt>
      <trkpt lat="42.346713000" lon="-2.625032000">
        <ele>1079.60</ele>
        <time>2016-10-29T08:17:23Z</time>
      </trkpt>
      <trkpt lat="42.346722000" lon="-2.624995000">
        <ele>1079.70</ele>
        <time>2016-10-29T08:17:24Z</time>
      </trkpt>
      <trkpt lat="42.346732000" lon="-2.624956000">
        <ele>1079.90</ele>
        <time>2016-10-29T08:17:25Z</time>
      </trkpt>
      <trkpt lat="42.346739000" lon="-2.624917000">
        <ele>1080.10</ele>
        <time>2016-10-29T08:17:26Z</time>
      </trkpt>
      <trkpt lat="42.346748000" lon="-2.624876000">
        <ele>1080.40</ele>
        <time>2016-10-29T08:17:27Z</time>
      </trkpt>
      <trkpt lat="42.346755000" lon="-2.624837000">
        <ele>1080.60</ele>
        <time>2016-10-29T08:17:28Z</time>
      </trkpt>
      <trkpt lat="42.346765000" lon="-2.624798000">
        <ele>1080.70</ele>
        <time>2016-10-29T08:17:29Z</time>
      </trkpt>
      <trkpt lat="42.346774000" lon="-2.624761000">
        <ele>1080.80</ele>
        <time>2016-10-29T08:17:30Z</time>
      </trkpt>
      <trkpt lat="42.346784000" lon="-2.624724000">
        <ele>1081.10</ele>
        <time>2016-10-29T08:17:31Z</time>
      </trkpt>
      <trkpt lat="42.346794000" lon="-2.624691000">
        <ele>1081.30</ele>
        <time>2016-10-29T08:17:32Z</time>
      </trkpt>
      <trkpt lat="42.346803000" lon="-2.624657000">
        <ele>1081.40</ele>
        <time>2016-10-29T08:17:33Z</time>
      </trkpt>
      <trkpt lat="42.346812000" lon="-2.624620000">
        <ele>1081.60</ele>
        <time>2016-10-29T08:17:34Z</time>
      </trkpt>
      <trkpt lat="42.346826000" lon="-2.624589000">
        <ele>1081.80</ele>
        <time>2016-10-29T08:17:35Z</time>
      </trkpt>
      <trkpt lat="42.346838000" lon="-2.624553000">
        <ele>1081.90</ele>
        <time>2016-10-29T08:17:36Z</time>
      </trkpt>
      <trkpt lat="42.346856000" lon="-2.624522000">
        <ele>1082.00</ele>
        <time>2016-10-29T08:17:37Z</time>
      </trkpt>
      <trkpt lat="42.346876000" lon="-2.624491000">
        <ele>1082.10</ele>
        <time>2016-10-29T08:17:38Z</time>
      </trkpt>
      <trkpt lat="42.346899000" lon="-2.624464000">
        <ele>1082.30</ele>
        <time>2016-10-29T08:17:39Z</time>
      </trkpt>
      <trkpt lat="42.346943000" lon="-2.624413000">
        <ele>1082.60</ele>
        <time>2016-10-29T08:17:41Z</time>
      </trkpt>
      <trkpt lat="42.346966000" lon="-2.624389000">
        <ele>1082.80</ele>
        <time>2016-10-29T08:17:42Z</time>
      </trkpt>
      <trkpt lat="42.346991000" lon="-2.624371000">
        <ele>1083.00</ele>
        <time>2016-10-29T08:17:43Z</time>
      </trkpt>
      <trkpt lat="42.347014000" lon="-2.624354000">
        <ele>1083.20</ele>
        <time>2016-10-29T08:17:44Z</time>
      </trkpt>
      <trkpt lat="42.347035000" lon="-2.624337000">
        <ele>1083.40</ele>
        <time>2016-10-29T08:17:45Z</time>
      </trkpt>
      <trkpt lat="42.347052000" lon="-2.624321000">
        <ele>1083.50</ele>
        <time>2016-10-29T08:17:46Z</time>
      </trkpt>
      <trkpt lat="42.347072000" lon="-2.624308000">
        <ele>1083.70</ele>
        <time>2016-10-29T08:17:47Z</time>
      </trkpt>
      <trkpt lat="42.347089000" lon="-2.624299000">
        <ele>1083.90</ele>
        <time>2016-10-29T08:17:48Z</time>
      </trkpt>
      <trkpt lat="42.347107000" lon="-2.624288000">
        <ele>1084.00</ele>
        <time>2016-10-29T08:17:49Z</time>
      </trkpt>
      <trkpt lat="42.347126000" lon="-2.624275000">
        <ele>1084.10</ele>
        <time>2016-10-29T08:17:50Z</time>
      </trkpt>
      <trkpt lat="42.347142000" lon="-2.624254000">
        <ele>1084.50</ele>
        <time>2016-10-29T08:17:51Z</time>
      </trkpt>
      <trkpt lat="42.347167000" lon="-2.624233000">
        <ele>1084.70</ele>
        <time>2016-10-29T08:17:52Z</time>
      </trkpt>
      <trkpt lat="42.347190000" lon="-2.624216000">
        <ele>1085.00</ele>
        <time>2016-10-29T08:17:53Z</time>
      </trkpt>
      <trkpt lat="42.347213000" lon="-2.624193000">
        <ele>1085.20</ele>
        <time>2016-10-29T08:17:54Z</time>
      </trkpt>
      <trkpt lat="42.347235000" lon="-2.624171000">
        <ele>1085.40</ele>
        <time>2016-10-29T08:17:55Z</time>
      </trkpt>
      <trkpt lat="42.347256000" lon="-2.624150000">
        <ele>1085.60</ele>
        <time>2016-10-29T08:17:56Z</time>
      </trkpt>
      <trkpt lat="42.347279000" lon="-2.624132000">
        <ele>1085.80</ele>
        <time>2016-10-29T08:17:57Z</time>
      </trkpt>
      <trkpt lat="42.347297000" lon="-2.624109000">
        <ele>1086.00</ele>
        <time>2016-10-29T08:17:58Z</time>
      </trkpt>
      <trkpt lat="42.347322000" lon="-2.624088000">
        <ele>1086.20</ele>
        <time>2016-10-29T08:17:59Z</time>
      </trkpt>
      <trkpt lat="42.347350000" lon="-2.624067000">
        <ele>1086.30</ele>
        <time>2016-10-29T08:18:00Z</time>
      </trkpt>
      <trkpt lat="42.347382000" lon="-2.624049000">
        <ele>1086.50</ele>
        <time>2016-10-29T08:18:01Z</time>
      </trkpt>
      <trkpt lat="42.347409000" lon="-2.624030000">
        <ele>1086.60</ele>
        <time>2016-10-29T08:18:02Z</time>
      </trkpt>
      <trkpt lat="42.347439000" lon="-2.624009000">
        <ele>1086.80</ele>
        <time>2016-10-29T08:18:03Z</time>
      </trkpt>
      <trkpt lat="42.347464000" lon="-2.623986000">
        <ele>1086.90</ele>
        <time>2016-10-29T08:18:04Z</time>
      </trkpt>
      <trkpt lat="42.347491000" lon="-2.623964000">
        <ele>1087.00</ele>
        <time>2016-10-29T08:18:05Z</time>
      </trkpt>
      <trkpt lat="42.347518000" lon="-2.623941000">
        <ele>1087.10</ele>
        <time>2016-10-29T08:18:06Z</time>
      </trkpt>
      <trkpt lat="42.347544000" lon="-2.623917000">
        <ele>1087.40</ele>
        <time>2016-10-29T08:18:07Z</time>
      </trkpt>
      <trkpt lat="42.347568000" lon="-2.623900000">
        <ele>1087.60</ele>
        <time>2016-10-29T08:18:08Z</time>
      </trkpt>
      <trkpt lat="42.347602000" lon="-2.623881000">
        <ele>1087.80</ele>
        <time>2016-10-29T08:18:09Z</time>
      </trkpt>
      <trkpt lat="42.347636000" lon="-2.623867000">
        <ele>1087.90</ele>
        <time>2016-10-29T08:18:10Z</time>
      </trkpt>
      <trkpt lat="42.347667000" lon="-2.623848000">
        <ele>1088.10</ele>
        <time>2016-10-29T08:18:11Z</time>
      </trkpt>
      <trkpt lat="42.347693000" lon="-2.623832000">
        <ele>1088.20</ele>
        <time>2016-10-29T08:18:12Z</time>
      </trkpt>
      <trkpt lat="42.347716000" lon="-2.623814000">
        <ele>1088.40</ele>
        <time>2016-10-29T08:18:13Z</time>
      </trkpt>
      <trkpt lat="42.347739000" lon="-2.623800000">
        <ele>1088.50</ele>
        <time>2016-10-29T08:18:14Z</time>
      </trkpt>
      <trkpt lat="42.347766000" lon="-2.623785000">
        <ele>1088.70</ele>
        <time>2016-10-29T08:18:15Z</time>
      </trkpt>
      <trkpt lat="42.347787000" lon="-2.623774000">
        <ele>1088.90</ele>
        <time>2016-10-29T08:18:16Z</time>
      </trkpt>
      <trkpt lat="42.347809000" lon="-2.623757000">
        <ele>1089.30</ele>
        <time>2016-10-29T08:18:17Z</time>
      </trkpt>
      <trkpt lat="42.347828000" lon="-2.623739000">
        <ele>1089.60</ele>
        <time>2016-10-29T08:18:18Z</time>
      </trkpt>
      <trkpt lat="42.347848000" lon="-2.623720000">
        <ele>1090.00</ele>
        <time>2016-10-29T08:18:19Z</time>
      </trkpt>
      <trkpt lat="42.347865000" lon="-2.623698000">
        <ele>1090.30</ele>
        <time>2016-10-29T08:18:20Z</time>
      </trkpt>
      <trkpt lat="42.347885000" lon="-2.623682000">
        <ele>1090.60</ele>
        <time>2016-10-29T08:18:21Z</time>
      </trkpt>
      <trkpt lat="42.347905000" lon="-2.623661000">
        <ele>1090.80</ele>
        <time>2016-10-29T08:18:22Z</time>
      </trkpt>
      <trkpt lat="42.347926000" lon="-2.623640000">
        <ele>1091.00</ele>
        <time>2016-10-29T08:18:23Z</time>
      </trkpt>
      <trkpt lat="42.347948000" lon="-2.623622000">
        <ele>1091.20</ele>
        <time>2016-10-29T08:18:24Z</time>
      </trkpt>
      <trkpt lat="42.347974000" lon="-2.623603000">
        <ele>1091.30</ele>
        <time>2016-10-29T08:18:25Z</time>
      </trkpt>
      <trkpt lat="42.347996000" lon="-2.623580000">
        <ele>1091.40</ele>
        <time>2016-10-29T08:18:26Z</time>
      </trkpt>
      <trkpt lat="42.348018000" lon="-2.623559000">
        <ele>1091.60</ele>
        <time>2016-10-29T08:18:27Z</time>
      </trkpt>
      <trkpt lat="42.348043000" lon="-2.623537000">
        <ele>1091.80</ele>
        <time>2016-10-29T08:18:28Z</time>
      </trkpt>
      <trkpt lat="42.348063000" lon="-2.623514000">
        <ele>1092.10</ele>
        <time>2016-10-29T08:18:29Z</time>
      </trkpt>
      <trkpt lat="42.348084000" lon="-2.623491000">
        <ele>1092.40</ele>
        <time>2016-10-29T08:18:30Z</time>
      </trkpt>
      <trkpt lat="42.348106000" lon="-2.623469000">
        <ele>1092.50</ele>
        <time>2016-10-29T08:18:31Z</time>
      </trkpt>
      <trkpt lat="42.348130000" lon="-2.623452000">
        <ele>1092.70</ele>
        <time>2016-10-29T08:18:32Z</time>
      </trkpt>
      <trkpt lat="42.348160000" lon="-2.623435000">
        <ele>1092.60</ele>
        <time>2016-10-29T08:18:33Z</time>
      </trkpt>
      <trkpt lat="42.348188000" lon="-2.623421000">
        <ele>1092.60</ele>
        <time>2016-10-29T08:18:34Z</time>
      </trkpt>
      <trkpt lat="42.348217000" lon="-2.623411000">
        <ele>1092.60</ele>
        <time>2016-10-29T08:18:35Z</time>
      </trkpt>
      <trkpt lat="42.348246000" lon="-2.623401000">
        <ele>1092.60</ele>
        <time>2016-10-29T08:18:36Z</time>
      </trkpt>
      <trkpt lat="42.348276000" lon="-2.623395000">
        <ele>1092.60</ele>
        <time>2016-10-29T08:18:37Z</time>
      </trkpt>
      <trkpt lat="42.348304000" lon="-2.623391000">
        <ele>1092.60</ele>
        <time>2016-10-29T08:18:38Z</time>
      </trkpt>
      <trkpt lat="42.348336000" lon="-2.623388000">
        <ele>1092.80</ele>
        <time>2016-10-29T08:18:39Z</time>
      </trkpt>
      <trkpt lat="42.348366000" lon="-2.623385000">
        <ele>1092.90</ele>
        <time>2016-10-29T08:18:40Z</time>
      </trkpt>
      <trkpt lat="42.348398000" lon="-2.623382000">
        <ele>1093.30</ele>
        <time>2016-10-29T08:18:41Z</time>
      </trkpt>
      <trkpt lat="42.348459000" lon="-2.623380000">
        <ele>1093.70</ele>
        <time>2016-10-29T08:18:43Z</time>
      </trkpt>
      <trkpt lat="42.348484000" lon="-2.623382000">
        <ele>1093.80</ele>
        <time>2016-10-29T08:18:44Z</time>
      </trkpt>
      <trkpt lat="42.348509000" lon="-2.623380000">
        <ele>1094.00</ele>
        <time>2016-10-29T08:18:45Z</time>
      </trkpt>
      <trkpt lat="42.348534000" lon="-2.623381000">
        <ele>1094.10</ele>
        <time>2016-10-29T08:18:46Z</time>
      </trkpt>
      <trkpt lat="42.348560000" lon="-2.623385000">
        <ele>1094.20</ele>
        <time>2016-10-29T08:18:47Z</time>
      </trkpt>
      <trkpt lat="42.348587000" lon="-2.623386000">
        <ele>1094.30</ele>
        <time>2016-10-29T08:18:48Z</time>
      </trkpt>
      <trkpt lat="42.348615000" lon="-2.623387000">
        <ele>1094.40</ele>
        <time>2016-10-29T08:18:49Z</time>
      </trkpt>
      <trkpt lat="42.348642000" lon="-2.623385000">
        <ele>1094.40</ele>
        <time>2016-10-29T08:18:50Z</time>
      </trkpt>
      <trkpt lat="42.348669000" lon="-2.623386000">
        <ele>1094.60</ele>
        <time>2016-10-29T08:18:51Z</time>
      </trkpt>
      <trkpt lat="42.348694000" lon="-2.623387000">
        <ele>1094.80</ele>
        <time>2016-10-29T08:18:52Z</time>
      </trkpt>
      <trkpt lat="42.348723000" lon="-2.623388000">
        <ele>1095.00</ele>
        <time>2016-10-29T08:18:53Z</time>
      </trkpt>
      <trkpt lat="42.348753000" lon="-2.623387000">
        <ele>1095.20</ele>
        <time>2016-10-29T08:18:54Z</time>
      </trkpt>
      <trkpt lat="42.348782000" lon="-2.623379000">
        <ele>1095.30</ele>
        <time>2016-10-29T08:18:55Z</time>
      </trkpt>
      <trkpt lat="42.348811000" lon="-2.623375000">
        <ele>1095.40</ele>
        <time>2016-10-29T08:18:56Z</time>
      </trkpt>
      <trkpt lat="42.348841000" lon="-2.623373000">
        <ele>1095.80</ele>
        <time>2016-10-29T08:18:57Z</time>
      </trkpt>
      <trkpt lat="42.348870000" lon="-2.623367000">
        <ele>1096.00</ele>
        <time>2016-10-29T08:18:58Z</time>
      </trkpt>
      <trkpt lat="42.348897000" lon="-2.623366000">
        <ele>1096.20</ele>
        <time>2016-10-29T08:18:59Z</time>
      </trkpt>
      <trkpt lat="42.348923000" lon="-2.623362000">
        <ele>1096.30</ele>
        <time>2016-10-29T08:19:00Z</time>
      </trkpt>
      <trkpt lat="42.348952000" lon="-2.623361000">
        <ele>1096.50</ele>
        <time>2016-10-29T08:19:01Z</time>
      </trkpt>
      <trkpt lat="42.348981000" lon="-2.623361000">
        <ele>1096.60</ele>
        <time>2016-10-29T08:19:02Z</time>
      </trkpt>
      <trkpt lat="42.349008000" lon="-2.623363000">
        <ele>1096.70</ele>
        <time>2016-10-29T08:19:03Z</time>
      </trkpt>
      <trkpt lat="42.349033000" lon="-2.623367000">
        <ele>1096.70</ele>
        <time>2016-10-29T08:19:04Z</time>
      </trkpt>
      <trkpt lat="42.349054000" lon="-2.623371000">
        <ele>1097.00</ele>
        <time>2016-10-29T08:19:05Z</time>
      </trkpt>
      <trkpt lat="42.349073000" lon="-2.623376000">
        <ele>1097.20</ele>
        <time>2016-10-29T08:19:06Z</time>
      </trkpt>
      <trkpt lat="42.349094000" lon="-2.623379000">
        <ele>1097.40</ele>
        <time>2016-10-29T08:19:07Z</time>
      </trkpt>
      <trkpt lat="42.349116000" lon="-2.623384000">
        <ele>1097.60</ele>
        <time>2016-10-29T08:19:08Z</time>
      </trkpt>
      <trkpt lat="42.349135000" lon="-2.623390000">
        <ele>1097.80</ele>
        <time>2016-10-29T08:19:09Z</time>
      </trkpt>
      <trkpt lat="42.349152000" lon="-2.623391000">
        <ele>1097.90</ele>
        <time>2016-10-29T08:19:10Z</time>
      </trkpt>
      <trkpt lat="42.349167000" lon="-2.623394000">
        <ele>1098.30</ele>
        <time>2016-10-29T08:19:11Z</time>
      </trkpt>
      <trkpt lat="42.349184000" lon="-2.623397000">
        <ele>1098.50</ele>
        <time>2016-10-29T08:19:12Z</time>
      </trkpt>
      <trkpt lat="42.349203000" lon="-2.623409000">
        <ele>1098.70</ele>
        <time>2016-10-29T08:19:13Z</time>
      </trkpt>
      <trkpt lat="42.349223000" lon="-2.623417000">
        <ele>1098.80</ele>
        <time>2016-10-29T08:19:14Z</time>
      </trkpt>
      <trkpt lat="42.349245000" lon="-2.623425000">
        <ele>1099.00</ele>
        <time>2016-10-29T08:19:15Z</time>
      </trkpt>
      <trkpt lat="42.349267000" lon="-2.623439000">
        <ele>1099.20</ele>
        <time>2016-10-29T08:19:16Z</time>
      </trkpt>
      <trkpt lat="42.349285000" lon="-2.623449000">
        <ele>1099.50</ele>
        <time>2016-10-29T08:19:17Z</time>
      </trkpt>
      <trkpt lat="42.349303000" lon="-2.623459000">
        <ele>1099.70</ele>
        <time>2016-10-29T08:19:18Z</time>
      </trkpt>
      <trkpt lat="42.349321000" lon="-2.623465000">
        <ele>1100.00</ele>
        <time>2016-10-29T08:19:19Z</time>
      </trkpt>
      <trkpt lat="42.349339000" lon="-2.623469000">
        <ele>1100.10</ele>
        <time>2016-10-29T08:19:20Z</time>
      </trkpt>
      <trkpt lat="42.349355000" lon="-2.623479000">
        <ele>1100.40</ele>
        <time>2016-10-29T08:19:21Z</time>
      </trkpt>
      <trkpt lat="42.349373000" lon="-2.623484000">
        <ele>1100.50</ele>
        <time>2016-10-29T08:19:22Z</time>
      </trkpt>
      <trkpt lat="42.349397000" lon="-2.623495000">
        <ele>1100.90</ele>
        <time>2016-10-29T08:19:23Z</time>
      </trkpt>
      <trkpt lat="42.349420000" lon="-2.623505000">
        <ele>1101.20</ele>
        <time>2016-10-29T08:19:24Z</time>
      </trkpt>
      <trkpt lat="42.349446000" lon="-2.623523000">
        <ele>1101.50</ele>
        <time>2016-10-29T08:19:25Z</time>
      </trkpt>
      <trkpt lat="42.349469000" lon="-2.623537000">
        <ele>1101.80</ele>
        <time>2016-10-29T08:19:26Z</time>
      </trkpt>
      <trkpt lat="42.349489000" lon="-2.623551000">
        <ele>1102.00</ele>
        <time>2016-10-29T08:19:27Z</time>
      </trkpt>
      <trkpt lat="42.349509000" lon="-2.623555000">
        <ele>1102.20</ele>
        <time>2016-10-29T08:19:28Z</time>
      </trkpt>
      <trkpt lat="42.349526000" lon="-2.623561000">
        <ele>1102.40</ele>
        <time>2016-10-29T08:19:29Z</time>
      </trkpt>
      <trkpt lat="42.349544000" lon="-2.623575000">
        <ele>1102.60</ele>
        <time>2016-10-29T08:19:30Z</time>
      </trkpt>
      <trkpt lat="42.349560000" lon="-2.623581000">
        <ele>1102.70</ele>
        <time>2016-10-29T08:19:31Z</time>
      </trkpt>
      <trkpt lat="42.349580000" lon="-2.623592000">
        <ele>1102.80</ele>
        <time>2016-10-29T08:19:32Z</time>
      </trkpt>
      <trkpt lat="42.349597000" lon="-2.623608000">
        <ele>1102.90</ele>
        <time>2016-10-29T08:19:33Z</time>
      </trkpt>
      <trkpt lat="42.349617000" lon="-2.623618000">
        <ele>1103.00</ele>
        <time>2016-10-29T08:19:34Z</time>
      </trkpt>
      <trkpt lat="42.349636000" lon="-2.623636000">
        <ele>1103.20</ele>
        <time>2016-10-29T08:19:35Z</time>
      </trkpt>
      <trkpt lat="42.349657000" lon="-2.623645000">
        <ele>1103.40</ele>
        <time>2016-10-29T08:19:36Z</time>
      </trkpt>
      <trkpt lat="42.349675000" lon="-2.623660000">
        <ele>1103.80</ele>
        <time>2016-10-29T08:19:37Z</time>
      </trkpt>
      <trkpt lat="42.349693000" lon="-2.623675000">
        <ele>1104.10</ele>
        <time>2016-10-29T08:19:38Z</time>
      </trkpt>
      <trkpt lat="42.349713000" lon="-2.623693000">
        <ele>1104.20</ele>
        <time>2016-10-29T08:19:39Z</time>
      </trkpt>
      <trkpt lat="42.349732000" lon="-2.623710000">
        <ele>1104.40</ele>
        <time>2016-10-29T08:19:40Z</time>
      </trkpt>
      <trkpt lat="42.349753000" lon="-2.623722000">
        <ele>1104.50</ele>
        <time>2016-10-29T08:19:41Z</time>
      </trkpt>
      <trkpt lat="42.349773000" lon="-2.623736000">
        <ele>1104.60</ele>
        <time>2016-10-29T08:19:42Z</time>
      </trkpt>
      <trkpt lat="42.349796000" lon="-2.623751000">
        <ele>1104.70</ele>
        <time>2016-10-29T08:19:43Z</time>
      </trkpt>
      <trkpt lat="42.349837000" lon="-2.623778000">
        <ele>1104.90</ele>
        <time>2016-10-29T08:19:45Z</time>
      </trkpt>
      <trkpt lat="42.349856000" lon="-2.623791000">
        <ele>1105.00</ele>
        <time>2016-10-29T08:19:46Z</time>
      </trkpt>
      <trkpt lat="42.349876000" lon="-2.623810000">
        <ele>1105.30</ele>
        <time>2016-10-29T08:19:47Z</time>
      </trkpt>
      <trkpt lat="42.349896000" lon="-2.623823000">
        <ele>1105.50</ele>
        <time>2016-10-29T08:19:48Z</time>
      </trkpt>
      <trkpt lat="42.349915000" lon="-2.623836000">
        <ele>1105.80</ele>
        <time>2016-10-29T08:19:49Z</time>
      </trkpt>
      <trkpt lat="42.349934000" lon="-2.623847000">
        <ele>1105.90</ele>
        <time>2016-10-29T08:19:50Z</time>
      </trkpt>
      <trkpt lat="42.349957000" lon="-2.623854000">
        <ele>1106.20</ele>
        <time>2016-10-29T08:19:51Z</time>
      </trkpt>
      <trkpt lat="42.349977000" lon="-2.623861000">
        <ele>1106.30</ele>
        <time>2016-10-29T08:19:52Z</time>
      </trkpt>
      <trkpt lat="42.349996000" lon="-2.623866000">
        <ele>1106.40</ele>
        <time>2016-10-29T08:19:53Z</time>
      </trkpt>
      <trkpt lat="42.350018000" lon="-2.623874000">
        <ele>1106.50</ele>
        <time>2016-10-29T08:19:54Z</time>
      </trkpt>
      <trkpt lat="42.350036000" lon="-2.623883000">
        <ele>1106.70</ele>
        <time>2016-10-29T08:19:55Z</time>
      </trkpt>
      <trkpt lat="42.350053000" lon="-2.623893000">
        <ele>1106.80</ele>
        <time>2016-10-29T08:19:56Z</time>
      </trkpt>
      <trkpt lat="42.350068000" lon="-2.623907000">
        <ele>1106.90</ele>
        <time>2016-10-29T08:19:57Z</time>
      </trkpt>
      <trkpt lat="42.350085000" lon="-2.623920000">
        <ele>1106.90</ele>
        <time>2016-10-29T08:19:58Z</time>
      </trkpt>
      <trkpt lat="42.350104000" lon="-2.623931000">
        <ele>1107.10</ele>
        <time>2016-10-29T08:19:59Z</time>
      </trkpt>
      <trkpt lat="42.350124000" lon="-2.623950000">
        <ele>1107.10</ele>
        <time>2016-10-29T08:20:00Z</time>
      </trkpt>
      <trkpt lat="42.350144000" lon="-2.623964000">
        <ele>1107.20</ele>
        <time>2016-10-29T08:20:01Z</time>
      </trkpt>
      <trkpt lat="42.350165000" lon="-2.623979000">
        <ele>1107.30</ele>
        <time>2016-10-29T08:20:02Z</time>
      </trkpt>
      <trkpt lat="42.350187000" lon="-2.623991000">
        <ele>1107.40</ele>
        <time>2016-10-29T08:20:03Z</time>
      </trkpt>
      <trkpt lat="42.350208000" lon="-2.624002000">
        <ele>1107.50</ele>
        <time>2016-10-29T08:20:04Z</time>
      </trkpt>
      <trkpt lat="42.350230000" lon="-2.624012000">
        <ele>1107.70</ele>
        <time>2016-10-29T08:20:05Z</time>
      </trkpt>
      <trkpt lat="42.350252000" lon="-2.624024000">
        <ele>1107.90</ele>
        <time>2016-10-29T08:20:06Z</time>
      </trkpt>
      <trkpt lat="42.350270000" lon="-2.624037000">
        <ele>1108.10</ele>
        <time>2016-10-29T08:20:07Z</time>
      </trkpt>
      <trkpt lat="42.350291000" lon="-2.624049000">
        <ele>1108.30</ele>
        <time>2016-10-29T08:20:08Z</time>
      </trkpt>
      <trkpt lat="42.350313000" lon="-2.624060000">
        <ele>1108.50</ele>
        <time>2016-10-29T08:20:09Z</time>
      </trkpt>
      <trkpt lat="42.350332000" lon="-2.624071000">
        <ele>1108.60</ele>
        <time>2016-10-29T08:20:10Z</time>
      </trkpt>
      <trkpt lat="42.350353000" lon="-2.624083000">
        <ele>1108.70</ele>
        <time>2016-10-29T08:20:11Z</time>
      </trkpt>
      <trkpt lat="42.350374000" lon="-2.624097000">
        <ele>1108.90</ele>
        <time>2016-10-29T08:20:12Z</time>
      </trkpt>
      <trkpt lat="42.350393000" lon="-2.624108000">
        <ele>1109.10</ele>
        <time>2016-10-29T08:20:13Z</time>
      </trkpt>
      <trkpt lat="42.350415000" lon="-2.624118000">
        <ele>1109.20</ele>
        <time>2016-10-29T08:20:14Z</time>
      </trkpt>
      <trkpt lat="42.350435000" lon="-2.624131000">
        <ele>1109.60</ele>
        <time>2016-10-29T08:20:15Z</time>
      </trkpt>
      <trkpt lat="42.350458000" lon="-2.624141000">
        <ele>1109.80</ele>
        <time>2016-10-29T08:20:16Z</time>
      </trkpt>
      <trkpt lat="42.350480000" lon="-2.624152000">
        <ele>1110.20</ele>
        <time>2016-10-29T08:20:17Z</time>
      </trkpt>
      <trkpt lat="42.350504000" lon="-2.624162000">
        <ele>1110.50</ele>
        <time>2016-10-29T08:20:18Z</time>
      </trkpt>
      <trkpt lat="42.350527000" lon="-2.624168000">
        <ele>1110.70</ele>
        <time>2016-10-29T08:20:19Z</time>
      </trkpt>
      <trkpt lat="42.350548000" lon="-2.624179000">
        <ele>1111.00</ele>
        <time>2016-10-29T08:20:20Z</time>
      </trkpt>
      <trkpt lat="42.350571000" lon="-2.624187000">
        <ele>1111.10</ele>
        <time>2016-10-29T08:20:21Z</time>
      </trkpt>
      <trkpt lat="42.350595000" lon="-2.624192000">
        <ele>1111.30</ele>
        <time>2016-10-29T08:20:22Z</time>
      </trkpt>
      <trkpt lat="42.350619000" lon="-2.624201000">
        <ele>1111.40</ele>
        <time>2016-10-29T08:20:23Z</time>
      </trkpt>
      <trkpt lat="42.350641000" lon="-2.624207000">
        <ele>1111.50</ele>
        <time>2016-10-29T08:20:24Z</time>
      </trkpt>
      <trkpt lat="42.350662000" lon="-2.624219000">
        <ele>1111.70</ele>
        <time>2016-10-29T08:20:25Z</time>
      </trkpt>
      <trkpt lat="42.350682000" lon="-2.624228000">
        <ele>1111.90</ele>
        <time>2016-10-29T08:20:26Z</time>
      </trkpt>
      <trkpt lat="42.350702000" lon="-2.624232000">
        <ele>1112.10</ele>
        <time>2016-10-29T08:20:27Z</time>
      </trkpt>
      <trkpt lat="42.350727000" lon="-2.624230000">
        <ele>1112.20</ele>
        <time>2016-10-29T08:20:28Z</time>
      </trkpt>
      <trkpt lat="42.350751000" lon="-2.624227000">
        <ele>1112.30</ele>
        <time>2016-10-29T08:20:29Z</time>
      </trkpt>
      <trkpt lat="42.350778000" lon="-2.624222000">
        <ele>1112.50</ele>
        <time>2016-10-29T08:20:30Z</time>
      </trkpt>
      <trkpt lat="42.350800000" lon="-2.624216000">
        <ele>1112.60</ele>
        <time>2016-10-29T08:20:31Z</time>
      </trkpt>
      <trkpt lat="42.350824000" lon="-2.624212000">
        <ele>1112.80</ele>
        <time>2016-10-29T08:20:32Z</time>
      </trkpt>
      <trkpt lat="42.350849000" lon="-2.624208000">
        <ele>1113.00</ele>
        <time>2016-10-29T08:20:33Z</time>
      </trkpt>
      <trkpt lat="42.350870000" lon="-2.624203000">
        <ele>1113.10</ele>
        <time>2016-10-29T08:20:34Z</time>
      </trkpt>
      <trkpt lat="42.350894000" lon="-2.624199000">
        <ele>1113.20</ele>
        <time>2016-10-29T08:20:35Z</time>
      </trkpt>
      <trkpt lat="42.350922000" lon="-2.624197000">
        <ele>1113.30</ele>
        <time>2016-10-29T08:20:36Z</time>
      </trkpt>
      <trkpt lat="42.350947000" lon="-2.624199000">
        <ele>1113.40</ele>
        <time>2016-10-29T08:20:37Z</time>
      </trkpt>
      <trkpt lat="42.350971000" lon="-2.624196000">
        <ele>1113.60</ele>
        <time>2016-10-29T08:20:38Z</time>
      </trkpt>
      <trkpt lat="42.350998000" lon="-2.624203000">
        <ele>1113.70</ele>
        <time>2016-10-29T08:20:39Z</time>
      </trkpt>
      <trkpt lat="42.351023000" lon="-2.624207000">
        <ele>1113.80</ele>
        <time>2016-10-29T08:20:40Z</time>
      </trkpt>
      <trkpt lat="42.351050000" lon="-2.624206000">
        <ele>1113.90</ele>
        <time>2016-10-29T08:20:41Z</time>
      </trkpt>
      <trkpt lat="42.351078000" lon="-2.624206000">
        <ele>1114.10</ele>
        <time>2016-10-29T08:20:42Z</time>
      </trkpt>
      <trkpt lat="42.351104000" lon="-2.624205000">
        <ele>1114.30</ele>
        <time>2016-10-29T08:20:43Z</time>
      </trkpt>
      <trkpt lat="42.351129000" lon="-2.624204000">
        <ele>1114.50</ele>
        <time>2016-10-29T08:20:44Z</time>
      </trkpt>
      <trkpt lat="42.351181000" lon="-2.624200000">
        <ele>1115.00</ele>
        <time>2016-10-29T08:20:46Z</time>
      </trkpt>
      <trkpt lat="42.351206000" lon="-2.624199000">
        <ele>1115.20</ele>
        <time>2016-10-29T08:20:47Z</time>
      </trkpt>
      <trkpt lat="42.351232000" lon="-2.624202000">
        <ele>1115.30</ele>
        <time>2016-10-29T08:20:48Z</time>
      </trkpt>
      <trkpt lat="42.351258000" lon="-2.624203000">
        <ele>1115.40</ele>
        <time>2016-10-29T08:20:49Z</time>
      </trkpt>
      <trkpt lat="42.351282000" lon="-2.624200000">
        <ele>1115.50</ele>
        <time>2016-10-29T08:20:50Z</time>
      </trkpt>
      <trkpt lat="42.351308000" lon="-2.624198000">
        <ele>1115.60</ele>
        <time>2016-10-29T08:20:51Z</time>
      </trkpt>
      <trkpt lat="42.351333000" lon="-2.624199000">
        <ele>1115.70</ele>
        <time>2016-10-29T08:20:52Z</time>
      </trkpt>
      <trkpt lat="42.351360000" lon="-2.624197000">
        <ele>1115.80</ele>
        <time>2016-10-29T08:20:53Z</time>
      </trkpt>
      <trkpt lat="42.351389000" lon="-2.624195000">
        <ele>1116.10</ele>
        <time>2016-10-29T08:20:54Z</time>
      </trkpt>
      <trkpt lat="42.351419000" lon="-2.624191000">
        <ele>1116.20</ele>
        <time>2016-10-29T08:20:55Z</time>
      </trkpt>
      <trkpt lat="42.351450000" lon="-2.624191000">
        <ele>1116.30</ele>
        <time>2016-10-29T08:20:56Z</time>
      </trkpt>
      <trkpt lat="42.351480000" lon="-2.624190000">
        <ele>1116.40</ele>
        <time>2016-10-29T08:20:57Z</time>
      </trkpt>
      <trkpt lat="42.351508000" lon="-2.624188000">
        <ele>1116.40</ele>
        <time>2016-10-29T08:20:58Z</time>
      </trkpt>
      <trkpt lat="42.351538000" lon="-2.624181000">
        <ele>1116.30</ele>
        <time>2016-10-29T08:20:59Z</time>
      </trkpt>
      <trkpt lat="42.351567000" lon="-2.624179000">
        <ele>1116.30</ele>
        <time>2016-10-29T08:21:00Z</time>
      </trkpt>
      <trkpt lat="42.351595000" lon="-2.624173000">
        <ele>1116.30</ele>
        <time>2016-10-29T08:21:01Z</time>
      </trkpt>
      <trkpt lat="42.351623000" lon="-2.624173000">
        <ele>1116.30</ele>
        <time>2016-10-29T08:21:02Z</time>
      </trkpt>
      <trkpt lat="42.351649000" lon="-2.624170000">
        <ele>1116.30</ele>
        <time>2016-10-29T08:21:03Z</time>
      </trkpt>
      <trkpt lat="42.351674000" lon="-2.624168000">
        <ele>1116.10</ele>
        <time>2016-10-29T08:21:04Z</time>
      </trkpt>
      <trkpt lat="42.351700000" lon="-2.624167000">
        <ele>1116.00</ele>
        <time>2016-10-29T08:21:05Z</time>
      </trkpt>
      <trkpt lat="42.351728000" lon="-2.624166000">
        <ele>1115.90</ele>
        <time>2016-10-29T08:21:06Z</time>
      </trkpt>
      <trkpt lat="42.351756000" lon="-2.624165000">
        <ele>1115.80</ele>
        <time>2016-10-29T08:21:07Z</time>
      </trkpt>
      <trkpt lat="42.351782000" lon="-2.624162000">
        <ele>1115.70</ele>
        <time>2016-10-29T08:21:08Z</time>
      </trkpt>
      <trkpt lat="42.351808000" lon="-2.624162000">
        <ele>1115.60</ele>
        <time>2016-10-29T08:21:09Z</time>
      </trkpt>
      <trkpt lat="42.351830000" lon="-2.624159000">
        <ele>1115.60</ele>
        <time>2016-10-29T08:21:10Z</time>
      </trkpt>
      <trkpt lat="42.351852000" lon="-2.624152000">
        <ele>1115.60</ele>
        <time>2016-10-29T08:21:11Z</time>
      </trkpt>
      <trkpt lat="42.351871000" lon="-2.624149000">
        <ele>1115.50</ele>
        <time>2016-10-29T08:21:12Z</time>
      </trkpt>
      <trkpt lat="42.351887000" lon="-2.624151000">
        <ele>1115.50</ele>
        <time>2016-10-29T08:21:13Z</time>
      </trkpt>
      <trkpt lat="42.351889000" lon="-2.624152000">
        <ele>1115.50</ele>
        <time>2016-10-29T08:21:14Z</time>
      </trkpt>
      <trkpt lat="42.351892000" lon="-2.624156000">
        <ele>1115.50</ele>
        <time>2016-10-29T08:21:15Z</time>
      </trkpt>
      <trkpt lat="42.351895000" lon="-2.624155000">
        <ele>1115.50</ele>
        <time>2016-10-29T08:21:16Z</time>
      </trkpt>
      <trkpt lat="42.351899000" lon="-2.624157000">
        <ele>1115.40</ele>
        <time>2016-10-29T08:21:17Z</time>
      </trkpt>
      <trkpt lat="42.351899000" lon="-2.624159000">
        <ele>1115.40</ele>
        <time>2016-10-29T08:21:18Z</time>
      </trkpt>
      <trkpt lat="42.351901000" lon="-2.624159000">
        <ele>1115.40</ele>
        <time>2016-10-29T08:21:19Z</time>
      </trkpt>
      <trkpt lat="42.351904000" lon="-2.624154000">
        <ele>1115.50</ele>
        <time>2016-10-29T08:21:20Z</time>
      </trkpt>
      <trkpt lat="42.351908000" lon="-2.624147000">
        <ele>1115.60</ele>
        <time>2016-10-29T08:21:21Z</time>
      </trkpt>
      <trkpt lat="42.351908000" lon="-2.624148000">
        <ele>1115.60</ele>
        <time>2016-10-29T08:21:22Z</time>
      </trkpt>
      <trkpt lat="42.351909000" lon="-2.624150000">
        <ele>1115.70</ele>
        <time>2016-10-29T08:21:23Z</time>
      </trkpt>
      <trkpt lat="42.351909000" lon="-2.624154000">
        <ele>1115.70</ele>
        <time>2016-10-29T08:21:24Z</time>
      </trkpt>
      <trkpt lat="42.351908000" lon="-2.624153000">
        <ele>1115.80</ele>
        <time>2016-10-29T08:21:25Z</time>
      </trkpt>
      <trkpt lat="42.351906000" lon="-2.624152000">
        <ele>1115.80</ele>
        <time>2016-10-29T08:21:26Z</time>
      </trkpt>
      <trkpt lat="42.351904000" lon="-2.624152000">
        <ele>1115.90</ele>
        <time>2016-10-29T08:21:27Z</time>
      </trkpt>
      <trkpt lat="42.351902000" lon="-2.624149000">
        <ele>1115.90</ele>
        <time>2016-10-29T08:21:28Z</time>
      </trkpt>
      <trkpt lat="42.351901000" lon="-2.624147000">
        <ele>1116.00</ele>
        <time>2016-10-29T08:21:29Z</time>
      </trkpt>
      <trkpt lat="42.351898000" lon="-2.624143000">
        <ele>1116.00</ele>
        <time>2016-10-29T08:21:30Z</time>
      </trkpt>
      <trkpt lat="42.351896000" lon="-2.624141000">
        <ele>1116.10</ele>
        <time>2016-10-29T08:21:31Z</time>
      </trkpt>
      <trkpt lat="42.351897000" lon="-2.624142000">
        <ele>1116.00</ele>
        <time>2016-10-29T08:21:32Z</time>
      </trkpt>
      <trkpt lat="42.351897000" lon="-2.624139000">
        <ele>1115.90</ele>
        <time>2016-10-29T08:21:33Z</time>
      </trkpt>
      <trkpt lat="42.351895000" lon="-2.624141000">
        <ele>1115.90</ele>
        <time>2016-10-29T08:21:34Z</time>
      </trkpt>
      <trkpt lat="42.351890000" lon="-2.624142000">
        <ele>1115.90</ele>
        <time>2016-10-29T08:21:35Z</time>
      </trkpt>
      <trkpt lat="42.351888000" lon="-2.624142000">
        <ele>1116.00</ele>
        <time>2016-10-29T08:21:36Z</time>
      </trkpt>
      <trkpt lat="42.351888000" lon="-2.624142000">
        <ele>1116.10</ele>
        <time>2016-10-29T08:21:37Z</time>
      </trkpt>
      <trkpt lat="42.351888000" lon="-2.624141000">
        <ele>1116.30</ele>
        <time>2016-10-29T08:21:38Z</time>
      </trkpt>
      <trkpt lat="42.351887000" lon="-2.624144000">
        <ele>1116.50</ele>
        <time>2016-10-29T08:21:39Z</time>
      </trkpt>
      <trkpt lat="42.351889000" lon="-2.624149000">
        <ele>1116.60</ele>
        <time>2016-10-29T08:21:40Z</time>
      </trkpt>
      <trkpt lat="42.351890000" lon="-2.624147000">
        <ele>1116.70</ele>
        <time>2016-10-29T08:21:41Z</time>
      </trkpt>
      <trkpt lat="42.351891000" lon="-2.624143000">
        <ele>1116.80</ele>
        <time>2016-10-29T08:21:42Z</time>
      </trkpt>
      <trkpt lat="42.351894000" lon="-2.624143000">
        <ele>1116.90</ele>
        <time>2016-10-29T08:21:43Z</time>
      </trkpt>
      <trkpt lat="42.351897000" lon="-2.624144000">
        <ele>1116.70</ele>
        <time>2016-10-29T08:21:44Z</time>
      </trkpt>
      <trkpt lat="42.351898000" lon="-2.624141000">
        <ele>1116.60</ele>
        <time>2016-10-29T08:21:45Z</time>
      </trkpt>
      <trkpt lat="42.351900000" lon="-2.624139000">
        <ele>1116.50</ele>
        <time>2016-10-29T08:21:46Z</time>
      </trkpt>
      <trkpt lat="42.351906000" lon="-2.624132000">
        <ele>1116.40</ele>
        <time>2016-10-29T08:21:48Z</time>
      </trkpt>
      <trkpt lat="42.351907000" lon="-2.624132000">
        <ele>1116.40</ele>
        <time>2016-10-29T08:21:49Z</time>
      </trkpt>
      <trkpt lat="42.351909000" lon="-2.624133000">
        <ele>1116.40</ele>
        <time>2016-10-29T08:21:50Z</time>
      </trkpt>
      <trkpt lat="42.351910000" lon="-2.624132000">
        <ele>1116.50</ele>
        <time>2016-10-29T08:21:51Z</time>
      </trkpt>
      <trkpt lat="42.351911000" lon="-2.624133000">
        <ele>1116.50</ele>
        <time>2016-10-29T08:21:52Z</time>
      </trkpt>
      <trkpt lat="42.351911000" lon="-2.624132000">
        <ele>1116.50</ele>
        <time>2016-10-29T08:21:53Z</time>
      </trkpt>
      <trkpt lat="42.351912000" lon="-2.624133000">
        <ele>1116.60</ele>
        <time>2016-10-29T08:21:54Z</time>
      </trkpt>
      <trkpt lat="42.351914000" lon="-2.624137000">
        <ele>1116.60</ele>
        <time>2016-10-29T08:21:55Z</time>
      </trkpt>
      <trkpt lat="42.351915000" lon="-2.624141000">
        <ele>1116.60</ele>
        <time>2016-10-29T08:21:56Z</time>
      </trkpt>
      <trkpt lat="42.351916000" lon="-2.624143000">
        <ele>1116.70</ele>
        <time>2016-10-29T08:21:57Z</time>
      </trkpt>
      <trkpt lat="42.351916000" lon="-2.624144000">
        <ele>1116.70</ele>
        <time>2016-10-29T08:21:58Z</time>
      </trkpt>
      <trkpt lat="42.351919000" lon="-2.624144000">
        <ele>1116.70</ele>
        <time>2016-10-29T08:21:59Z</time>
      </trkpt>
      <trkpt lat="42.351922000" lon="-2.624144000">
        <ele>1116.70</ele>
        <time>2016-10-29T08:22:00Z</time>
      </trkpt>
      <trkpt lat="42.351923000" lon="-2.624144000">
        <ele>1116.70</ele>
        <time>2016-10-29T08:22:01Z</time>
      </trkpt>
      <trkpt lat="42.351923000" lon="-2.624147000">
        <ele>1116.70</ele>
        <time>2016-10-29T08:22:02Z</time>
      </trkpt>
      <trkpt lat="42.351923000" lon="-2.624147000">
        <ele>1116.70</ele>
        <time>2016-10-29T08:22:03Z</time>
      </trkpt>
      <trkpt lat="42.351923000" lon="-2.624145000">
        <ele>1116.70</ele>
        <time>2016-10-29T08:22:04Z</time>
      </trkpt>
      <trkpt lat="42.351925000" lon="-2.624140000">
        <ele>1116.70</ele>
        <time>2016-10-29T08:22:05Z</time>
      </trkpt>
      <trkpt lat="42.351925000" lon="-2.624140000">
        <ele>1116.70</ele>
        <time>2016-10-29T08:22:06Z</time>
      </trkpt>
      <trkpt lat="42.351922000" lon="-2.624144000">
        <ele>1116.70</ele>
        <time>2016-10-29T08:22:07Z</time>
      </trkpt>
      <trkpt lat="42.351919000" lon="-2.624148000">
        <ele>1116.70</ele>
        <time>2016-10-29T08:22:08Z</time>
      </trkpt>
      <trkpt lat="42.351916000" lon="-2.624151000">
        <ele>1116.70</ele>
        <time>2016-10-29T08:22:09Z</time>
      </trkpt>
      <trkpt lat="42.351913000" lon="-2.624152000">
        <ele>1116.70</ele>
        <time>2016-10-29T08:22:10Z</time>
      </trkpt>
      <trkpt lat="42.351912000" lon="-2.624154000">
        <ele>1116.70</ele>
        <time>2016-10-29T08:22:11Z</time>
      </trkpt>
      <trkpt lat="42.351911000" lon="-2.624156000">
        <ele>1116.70</ele>
        <time>2016-10-29T08:22:12Z</time>
      </trkpt>
      <trkpt lat="42.351907000" lon="-2.624156000">
        <ele>1116.80</ele>
        <time>2016-10-29T08:22:13Z</time>
      </trkpt>
      <trkpt lat="42.351904000" lon="-2.624153000">
        <ele>1116.80</ele>
        <time>2016-10-29T08:22:14Z</time>
      </trkpt>
      <trkpt lat="42.351904000" lon="-2.624151000">
        <ele>1116.80</ele>
        <time>2016-10-29T08:22:15Z</time>
      </trkpt>
      <trkpt lat="42.351903000" lon="-2.624149000">
        <ele>1116.90</ele>
        <time>2016-10-29T08:22:16Z</time>
      </trkpt>
      <trkpt lat="42.351901000" lon="-2.624150000">
        <ele>1116.90</ele>
        <time>2016-10-29T08:22:17Z</time>
      </trkpt>
      <trkpt lat="42.351899000" lon="-2.624151000">
        <ele>1116.90</ele>
        <time>2016-10-29T08:22:18Z</time>
      </trkpt>
      <trkpt lat="42.351897000" lon="-2.624153000">
        <ele>1116.90</ele>
        <time>2016-10-29T08:22:19Z</time>
      </trkpt>
      <trkpt lat="42.351898000" lon="-2.624160000">
        <ele>1116.90</ele>
        <time>2016-10-29T08:22:20Z</time>
      </trkpt>
      <trkpt lat="42.351899000" lon="-2.624161000">
        <ele>1117.00</ele>
        <time>2016-10-29T08:22:21Z</time>
      </trkpt>
      <trkpt lat="42.351899000" lon="-2.624165000">
        <ele>1116.80</ele>
        <time>2016-10-29T08:22:22Z</time>
      </trkpt>
      <trkpt lat="42.351900000" lon="-2.624165000">
        <ele>1116.80</ele>
        <time>2016-10-29T08:22:23Z</time>
      </trkpt>
      <trkpt lat="42.351900000" lon="-2.624159000">
        <ele>1116.70</ele>
        <time>2016-10-29T08:22:24Z</time>
      </trkpt>
      <trkpt lat="42.351907000" lon="-2.624152000">
        <ele>1116.60</ele>
        <time>2016-10-29T08:22:25Z</time>
      </trkpt>
      <trkpt lat="42.351912000" lon="-2.624144000">
        <ele>1116.80</ele>
        <time>2016-10-29T08:22:26Z</time>
      </trkpt>
      <trkpt lat="42.351917000" lon="-2.624131000">
        <ele>1117.00</ele>
        <time>2016-10-29T08:22:27Z</time>
      </trkpt>
      <trkpt lat="42.351925000" lon="-2.624124000">
        <ele>1117.10</ele>
        <time>2016-10-29T08:22:28Z</time>
      </trkpt>
      <trkpt lat="42.351933000" lon="-2.624121000">
        <ele>1117.10</ele>
        <time>2016-10-29T08:22:29Z</time>
      </trkpt>
      <trkpt lat="42.351943000" lon="-2.624117000">
        <ele>1117.00</ele>
        <time>2016-10-29T08:22:30Z</time>
      </trkpt>
      <trkpt lat="42.351957000" lon="-2.624111000">
        <ele>1117.00</ele>
        <time>2016-10-29T08:22:31Z</time>
      </trkpt>
      <trkpt lat="42.351970000" lon="-2.624105000">
        <ele>1116.80</ele>
        <time>2016-10-29T08:22:32Z</time>
      </trkpt>
      <trkpt lat="42.351983000" lon="-2.624104000">
        <ele>1116.70</ele>
        <time>2016-10-29T08:22:33Z</time>
      </trkpt>
      <trkpt lat="42.351997000" lon="-2.624103000">
        <ele>1116.80</ele>
        <time>2016-10-29T08:22:34Z</time>
      </trkpt>
      <trkpt lat="42.352011000" lon="-2.624099000">
        <ele>1116.80</ele>
        <time>2016-10-29T08:22:35Z</time>
      </trkpt>
      <trkpt lat="42.352028000" lon="-2.624099000">
        <ele>1116.70</ele>
        <time>2016-10-29T08:22:36Z</time>
      </trkpt>
      <trkpt lat="42.352046000" lon="-2.624102000">
        <ele>1116.60</ele>
        <time>2016-10-29T08:22:37Z</time>
      </trkpt>
      <trkpt lat="42.352071000" lon="-2.624102000">
        <ele>1116.60</ele>
        <time>2016-10-29T08:22:38Z</time>
      </trkpt>
      <trkpt lat="42.352101000" lon="-2.624088000">
        <ele>1116.50</ele>
        <time>2016-10-29T08:22:39Z</time>
      </trkpt>
      <trkpt lat="42.352119000" lon="-2.624055000">
        <ele>1116.50</ele>
        <time>2016-10-29T08:22:40Z</time>
      </trkpt>
      <trkpt lat="42.352130000" lon="-2.624029000">
        <ele>1116.40</ele>
        <time>2016-10-29T08:22:41Z</time>
      </trkpt>
      <trkpt lat="42.352138000" lon="-2.624006000">
        <ele>1116.40</ele>
        <time>2016-10-29T08:22:42Z</time>
      </trkpt>
      <trkpt lat="42.352144000" lon="-2.623985000">
        <ele>1116.40</ele>
        <time>2016-10-29T08:22:43Z</time>
      </trkpt>
      <trkpt lat="42.352155000" lon="-2.623975000">
        <ele>1116.40</ele>
        <time>2016-10-29T08:22:44Z</time>
      </trkpt>
      <trkpt lat="42.352170000" lon="-2.623968000">
        <ele>1116.40</ele>
        <time>2016-10-29T08:22:45Z</time>
      </trkpt>
      <trkpt lat="42.352183000" lon="-2.623957000">
        <ele>1116.50</ele>
        <time>2016-10-29T08:22:46Z</time>
      </trkpt>
      <trkpt lat="42.352194000" lon="-2.623937000">
        <ele>1116.60</ele>
        <time>2016-10-29T08:22:47Z</time>
      </trkpt>
      <trkpt lat="42.352205000" lon="-2.623914000">
        <ele>1116.70</ele>
        <time>2016-10-29T08:22:48Z</time>
      </trkpt>
      <trkpt lat="42.352225000" lon="-2.623879000">
        <ele>1116.80</ele>
        <time>2016-10-29T08:22:50Z</time>
      </trkpt>
      <trkpt lat="42.352231000" lon="-2.623856000">
        <ele>1116.90</ele>
        <time>2016-10-29T08:22:51Z</time>
      </trkpt>
      <trkpt lat="42.352235000" lon="-2.623834000">
        <ele>1116.90</ele>
        <time>2016-10-29T08:22:52Z</time>
      </trkpt>
      <trkpt lat="42.352236000" lon="-2.623809000">
        <ele>1117.00</ele>
        <time>2016-10-29T08:22:53Z</time>
      </trkpt>
      <trkpt lat="42.352235000" lon="-2.623789000">
        <ele>1117.10</ele>
        <time>2016-10-29T08:22:54Z</time>
      </trkpt>
      <trkpt lat="42.352232000" lon="-2.623766000">
        <ele>1117.30</ele>
        <time>2016-10-29T08:22:55Z</time>
      </trkpt>
      <trkpt lat="42.352227000" lon="-2.623738000">
        <ele>1117.50</ele>
        <time>2016-10-29T08:22:56Z</time>
      </trkpt>
      <trkpt lat="42.352224000" lon="-2.623713000">
        <ele>1117.60</ele>
        <time>2016-10-29T08:22:57Z</time>
      </trkpt>
      <trkpt lat="42.352216000" lon="-2.623692000">
        <ele>1117.70</ele>
        <time>2016-10-29T08:22:58Z</time>
      </trkpt>
      <trkpt lat="42.352202000" lon="-2.623671000">
        <ele>1117.80</ele>
        <time>2016-10-29T08:22:59Z</time>
      </trkpt>
      <trkpt lat="42.352190000" lon="-2.623655000">
        <ele>1118.00</ele>
        <time>2016-10-29T08:23:00Z</time>
      </trkpt>
      <trkpt lat="42.352176000" lon="-2.623638000">
        <ele>1118.20</ele>
        <time>2016-10-29T08:23:01Z</time>
      </trkpt>
      <trkpt lat="42.352162000" lon="-2.623624000">
        <ele>1118.40</ele>
        <time>2016-10-29T08:23:02Z</time>
      </trkpt>
      <trkpt lat="42.352145000" lon="-2.623611000">
        <ele>1118.60</ele>
        <time>2016-10-29T08:23:03Z</time>
      </trkpt>
      <trkpt lat="42.352128000" lon="-2.623601000">
        <ele>1118.70</ele>
        <time>2016-10-29T08:23:04Z</time>
      </trkpt>
      <trkpt lat="42.352106000" lon="-2.623601000">
        <ele>1118.90</ele>
        <time>2016-10-29T08:23:05Z</time>
      </trkpt>
      <trkpt lat="42.352085000" lon="-2.623601000">
        <ele>1119.10</ele>
        <time>2016-10-29T08:23:06Z</time>
      </trkpt>
      <trkpt lat="42.352068000" lon="-2.623602000">
        <ele>1119.20</ele>
        <time>2016-10-29T08:23:07Z</time>
      </trkpt>
      <trkpt lat="42.352049000" lon="-2.623605000">
        <ele>1119.50</ele>
        <time>2016-10-29T08:23:08Z</time>
      </trkpt>
      <trkpt lat="42.352032000" lon="-2.623609000">
        <ele>1119.80</ele>
        <time>2016-10-29T08:23:09Z</time>
      </trkpt>
      <trkpt lat="42.352014000" lon="-2.623618000">
        <ele>1120.00</ele>
        <time>2016-10-29T08:23:10Z</time>
      </trkpt>
      <trkpt lat="42.351997000" lon="-2.623640000">
        <ele>1120.20</ele>
        <time>2016-10-29T08:23:11Z</time>
      </trkpt>
      <trkpt lat="42.351978000" lon="-2.623673000">
        <ele>1120.40</ele>
        <time>2016-10-29T08:23:12Z</time>
      </trkpt>
      <trkpt lat="42.351956000" lon="-2.623694000">
        <ele>1120.50</ele>
        <time>2016-10-29T08:23:13Z</time>
      </trkpt>
      <trkpt lat="42.351939000" lon="-2.623708000">
        <ele>1120.70</ele>
        <time>2016-10-29T08:23:14Z</time>
      </trkpt>
      <trkpt lat="42.351920000" lon="-2.623721000">
        <ele>1120.80</ele>
        <time>2016-10-29T08:23:15Z</time>
      </trkpt>
      <trkpt lat="42.351902000" lon="-2.623729000">
        <ele>1121.10</ele>
        <time>2016-10-29T08:23:16Z</time>
      </trkpt>
      <trkpt lat="42.351882000" lon="-2.623739000">
        <ele>1121.30</ele>
        <time>2016-10-29T08:23:17Z</time>
      </trkpt>
      <trkpt lat="42.351863000" lon="-2.623751000">
        <ele>1121.60</ele>
        <time>2016-10-29T08:23:18Z</time>
      </trkpt>
      <trkpt lat="42.351842000" lon="-2.623759000">
        <ele>1121.80</ele>
        <time>2016-10-29T08:23:19Z</time>
      </trkpt>
      <trkpt lat="42.351823000" lon="-2.623769000">
        <ele>1122.00</ele>
        <time>2016-10-29T08:23:20Z</time>
      </trkpt>
      <trkpt lat="42.351803000" lon="-2.623777000">
        <ele>1122.20</ele>
        <time>2016-10-29T08:23:21Z</time>
      </trkpt>
      <trkpt lat="42.351786000" lon="-2.623784000">
        <ele>1122.40</ele>
        <time>2016-10-29T08:23:22Z</time>
      </trkpt>
      <trkpt lat="42.351769000" lon="-2.623796000">
        <ele>1122.60</ele>
        <time>2016-10-29T08:23:23Z</time>
      </trkpt>
      <trkpt lat="42.351753000" lon="-2.623803000">
        <ele>1122.70</ele>
        <time>2016-10-29T08:23:24Z</time>
      </trkpt>
      <trkpt lat="42.351736000" lon="-2.623805000">
        <ele>1122.80</ele>
        <time>2016-10-29T08:23:25Z</time>
      </trkpt>
      <trkpt lat="42.351718000" lon="-2.623811000">
        <ele>1123.00</ele>
        <time>2016-10-29T08:23:26Z</time>
      </trkpt>
      <trkpt lat="42.351704000" lon="-2.623822000">
        <ele>1123.10</ele>
        <time>2016-10-29T08:23:27Z</time>
      </trkpt>
      <trkpt lat="42.351684000" lon="-2.623829000">
        <ele>1123.50</ele>
        <time>2016-10-29T08:23:28Z</time>
      </trkpt>
      <trkpt lat="42.351666000" lon="-2.623833000">
        <ele>1123.80</ele>
        <time>2016-10-29T08:23:29Z</time>
      </trkpt>
      <trkpt lat="42.351646000" lon="-2.623836000">
        <ele>1124.10</ele>
        <time>2016-10-29T08:23:30Z</time>
      </trkpt>
      <trkpt lat="42.351629000" lon="-2.623844000">
        <ele>1124.30</ele>
        <time>2016-10-29T08:23:31Z</time>
      </trkpt>
      <trkpt lat="42.351610000" lon="-2.623847000">
        <ele>1124.50</ele>
        <time>2016-10-29T08:23:32Z</time>
      </trkpt>
      <trkpt lat="42.351591000" lon="-2.623853000">
        <ele>1124.70</ele>
        <time>2016-10-29T08:23:33Z</time>
      </trkpt>
      <trkpt lat="42.351575000" lon="-2.623857000">
        <ele>1124.80</ele>
        <time>2016-10-29T08:23:34Z</time>
      </trkpt>
      <trkpt lat="42.351555000" lon="-2.623862000">
        <ele>1124.90</ele>
        <time>2016-10-29T08:23:35Z</time>
      </trkpt>
      <trkpt lat="42.351537000" lon="-2.623865000">
        <ele>1125.00</ele>
        <time>2016-10-29T08:23:36Z</time>
      </trkpt>
      <trkpt lat="42.351518000" lon="-2.623864000">
        <ele>1125.00</ele>
        <time>2016-10-29T08:23:37Z</time>
      </trkpt>
      <trkpt lat="42.351498000" lon="-2.623865000">
        <ele>1125.10</ele>
        <time>2016-10-29T08:23:38Z</time>
      </trkpt>
      <trkpt lat="42.351476000" lon="-2.623868000">
        <ele>1125.10</ele>
        <time>2016-10-29T08:23:39Z</time>
      </trkpt>
      <trkpt lat="42.351455000" lon="-2.623870000">
        <ele>1125.30</ele>
        <time>2016-10-29T08:23:40Z</time>
      </trkpt>
      <trkpt lat="42.351435000" lon="-2.623872000">
        <ele>1125.40</ele>
        <time>2016-10-29T08:23:41Z</time>
      </trkpt>
      <trkpt lat="42.351416000" lon="-2.623870000">
        <ele>1125.50</ele>
        <time>2016-10-29T08:23:42Z</time>
      </trkpt>
      <trkpt lat="42.351398000" lon="-2.623869000">
        <ele>1125.50</ele>
        <time>2016-10-29T08:23:43Z</time>
      </trkpt>
      <trkpt lat="42.351378000" lon="-2.623876000">
        <ele>1125.60</ele>
        <time>2016-10-29T08:23:44Z</time>
      </trkpt>
      <trkpt lat="42.351355000" lon="-2.623874000">
        <ele>1125.60</ele>
        <time>2016-10-29T08:23:45Z</time>
      </trkpt>
      <trkpt lat="42.351334000" lon="-2.623872000">
        <ele>1125.70</ele>
        <time>2016-10-29T08:23:46Z</time>
      </trkpt>
      <trkpt lat="42.351312000" lon="-2.623870000">
        <ele>1125.70</ele>
        <time>2016-10-29T08:23:47Z</time>
      </trkpt>
      <trkpt lat="42.351290000" lon="-2.623874000">
        <ele>1125.90</ele>
        <time>2016-10-29T08:23:48Z</time>
      </trkpt>
      <trkpt lat="42.351272000" lon="-2.623879000">
        <ele>1126.00</ele>
        <time>2016-10-29T08:23:49Z</time>
      </trkpt>
      <trkpt lat="42.351253000" lon="-2.623876000">
        <ele>1126.20</ele>
        <time>2016-10-29T08:23:50Z</time>
      </trkpt>
      <trkpt lat="42.351211000" lon="-2.623876000">
        <ele>1126.60</ele>
        <time>2016-10-29T08:23:52Z</time>
      </trkpt>
      <trkpt lat="42.351190000" lon="-2.623879000">
        <ele>1126.70</ele>
        <time>2016-10-29T08:23:53Z</time>
      </trkpt>
      <trkpt lat="42.351172000" lon="-2.623880000">
        <ele>1126.90</ele>
        <time>2016-10-29T08:23:54Z</time>
      </trkpt>
      <trkpt lat="42.351153000" lon="-2.623886000">
        <ele>1127.00</ele>
        <time>2016-10-29T08:23:55Z</time>
      </trkpt>
      <trkpt lat="42.351135000" lon="-2.623892000">
        <ele>1127.30</ele>
        <time>2016-10-29T08:23:56Z</time>
      </trkpt>
      <trkpt lat="42.351116000" lon="-2.623888000">
        <ele>1127.40</ele>
        <time>2016-10-29T08:23:57Z</time>
      </trkpt>
      <trkpt lat="42.351099000" lon="-2.623888000">
        <ele>1127.60</ele>
        <time>2016-10-29T08:23:58Z</time>
      </trkpt>
      <trkpt lat="42.351078000" lon="-2.623891000">
        <ele>1127.70</ele>
        <time>2016-10-29T08:23:59Z</time>
      </trkpt>
      <trkpt lat="42.351061000" lon="-2.623890000">
        <ele>1127.80</ele>
        <time>2016-10-29T08:24:00Z</time>
      </trkpt>
      <trkpt lat="42.351042000" lon="-2.623885000">
        <ele>1127.90</ele>
        <time>2016-10-29T08:24:01Z</time>
      </trkpt>
      <trkpt lat="42.351019000" lon="-2.623883000">
        <ele>1127.80</ele>
        <time>2016-10-29T08:24:02Z</time>
      </trkpt>
      <trkpt lat="42.350997000" lon="-2.623883000">
        <ele>1127.70</ele>
        <time>2016-10-29T08:24:03Z</time>
      </trkpt>
      <trkpt lat="42.350972000" lon="-2.623878000">
        <ele>1128.00</ele>
        <time>2016-10-29T08:24:04Z</time>
      </trkpt>
      <trkpt lat="42.350949000" lon="-2.623875000">
        <ele>1128.10</ele>
        <time>2016-10-29T08:24:05Z</time>
      </trkpt>
      <trkpt lat="42.350926000" lon="-2.623867000">
        <ele>1128.30</ele>
        <time>2016-10-29T08:24:06Z</time>
      </trkpt>
      <trkpt lat="42.350904000" lon="-2.623861000">
        <ele>1128.50</ele>
        <time>2016-10-29T08:24:07Z</time>
      </trkpt>
      <trkpt lat="42.350881000" lon="-2.623853000">
        <ele>1128.70</ele>
        <time>2016-10-29T08:24:08Z</time>
      </trkpt>
      <trkpt lat="42.350857000" lon="-2.623845000">
        <ele>1128.90</ele>
        <time>2016-10-29T08:24:09Z</time>
      </trkpt>
      <trkpt lat="42.350833000" lon="-2.623841000">
        <ele>1129.10</ele>
        <time>2016-10-29T08:24:10Z</time>
      </trkpt>
      <trkpt lat="42.350811000" lon="-2.623832000">
        <ele>1129.20</ele>
        <time>2016-10-29T08:24:11Z</time>
      </trkpt>
      <trkpt lat="42.350787000" lon="-2.623829000">
        <ele>1129.40</ele>
        <time>2016-10-29T08:24:12Z</time>
      </trkpt>
      <trkpt lat="42.350763000" lon="-2.623817000">
        <ele>1129.50</ele>
        <time>2016-10-29T08:24:13Z</time>
      </trkpt>
      <trkpt lat="42.350745000" lon="-2.623808000">
        <ele>1129.50</ele>
        <time>2016-10-29T08:24:14Z</time>
      </trkpt>
      <trkpt lat="42.350724000" lon="-2.623796000">
        <ele>1129.60</ele>
        <time>2016-10-29T08:24:15Z</time>
      </trkpt>
      <trkpt lat="42.350703000" lon="-2.623786000">
        <ele>1129.80</ele>
        <time>2016-10-29T08:24:16Z</time>
      </trkpt>
      <trkpt lat="42.350682000" lon="-2.623775000">
        <ele>1129.90</ele>
        <time>2016-10-29T08:24:17Z</time>
      </trkpt>
      <trkpt lat="42.350666000" lon="-2.623762000">
        <ele>1130.10</ele>
        <time>2016-10-29T08:24:18Z</time>
      </trkpt>
      <trkpt lat="42.350648000" lon="-2.623750000">
        <ele>1130.20</ele>
        <time>2016-10-29T08:24:19Z</time>
      </trkpt>
      <trkpt lat="42.350629000" lon="-2.623734000">
        <ele>1130.30</ele>
        <time>2016-10-29T08:24:20Z</time>
      </trkpt>
      <trkpt lat="42.350610000" lon="-2.623719000">
        <ele>1130.40</ele>
        <time>2016-10-29T08:24:21Z</time>
      </trkpt>
      <trkpt lat="42.350593000" lon="-2.623698000">
        <ele>1130.70</ele>
        <time>2016-10-29T08:24:22Z</time>
      </trkpt>
      <trkpt lat="42.350578000" lon="-2.623678000">
        <ele>1130.80</ele>
        <time>2016-10-29T08:24:23Z</time>
      </trkpt>
      <trkpt lat="42.350563000" lon="-2.623660000">
        <ele>1131.00</ele>
        <time>2016-10-29T08:24:24Z</time>
      </trkpt>
      <trkpt lat="42.350547000" lon="-2.623641000">
        <ele>1131.10</ele>
        <time>2016-10-29T08:24:25Z</time>
      </trkpt>
      <trkpt lat="42.350535000" lon="-2.623619000">
        <ele>1131.30</ele>
        <time>2016-10-29T08:24:26Z</time>
      </trkpt>
      <trkpt lat="42.350522000" lon="-2.623596000">
        <ele>1131.50</ele>
        <time>2016-10-29T08:24:27Z</time>
      </trkpt>
      <trkpt lat="42.350508000" lon="-2.623574000">
        <ele>1131.60</ele>
        <time>2016-10-29T08:24:28Z</time>
      </trkpt>
      <trkpt lat="42.350493000" lon="-2.623550000">
        <ele>1131.70</ele>
        <time>2016-10-29T08:24:29Z</time>
      </trkpt>
      <trkpt lat="42.350478000" lon="-2.623526000">
        <ele>1131.80</ele>
        <time>2016-10-29T08:24:30Z</time>
      </trkpt>
      <trkpt lat="42.350461000" lon="-2.623508000">
        <ele>1131.90</ele>
        <time>2016-10-29T08:24:31Z</time>
      </trkpt>
      <trkpt lat="42.350446000" lon="-2.623487000">
        <ele>1132.00</ele>
        <time>2016-10-29T08:24:32Z</time>
      </trkpt>
      <trkpt lat="42.350434000" lon="-2.623464000">
        <ele>1132.20</ele>
        <time>2016-10-29T08:24:33Z</time>
      </trkpt>
      <trkpt lat="42.350423000" lon="-2.623447000">
        <ele>1132.10</ele>
        <time>2016-10-29T08:24:34Z</time>
      </trkpt>
      <trkpt lat="42.350410000" lon="-2.623427000">
        <ele>1132.10</ele>
        <time>2016-10-29T08:24:35Z</time>
      </trkpt>
      <trkpt lat="42.350393000" lon="-2.623406000">
        <ele>1132.40</ele>
        <time>2016-10-29T08:24:36Z</time>
      </trkpt>
      <trkpt lat="42.350378000" lon="-2.623380000">
        <ele>1132.70</ele>
        <time>2016-10-29T08:24:37Z</time>
      </trkpt>
      <trkpt lat="42.350368000" lon="-2.623356000">
        <ele>1133.00</ele>
        <time>2016-10-29T08:24:38Z</time>
      </trkpt>
      <trkpt lat="42.350355000" lon="-2.623334000">
        <ele>1133.20</ele>
        <time>2016-10-29T08:24:39Z</time>
      </trkpt>
      <trkpt lat="42.350339000" lon="-2.623314000">
        <ele>1133.30</ele>
        <time>2016-10-29T08:24:40Z</time>
      </trkpt>
      <trkpt lat="42.350320000" lon="-2.623292000">
        <ele>1133.50</ele>
        <time>2016-10-29T08:24:41Z</time>
      </trkpt>
      <trkpt lat="42.350304000" lon="-2.623270000">
        <ele>1133.70</ele>
        <time>2016-10-29T08:24:42Z</time>
      </trkpt>
      <trkpt lat="42.350286000" lon="-2.623249000">
        <ele>1133.90</ele>
        <time>2016-10-29T08:24:43Z</time>
      </trkpt>
      <trkpt lat="42.350271000" lon="-2.623223000">
        <ele>1134.00</ele>
        <time>2016-10-29T08:24:44Z</time>
      </trkpt>
      <trkpt lat="42.350253000" lon="-2.623199000">
        <ele>1134.10</ele>
        <time>2016-10-29T08:24:45Z</time>
      </trkpt>
      <trkpt lat="42.350236000" lon="-2.623177000">
        <ele>1134.40</ele>
        <time>2016-10-29T08:24:46Z</time>
      </trkpt>
      <trkpt lat="42.350222000" lon="-2.623154000">
        <ele>1134.50</ele>
        <time>2016-10-29T08:24:47Z</time>
      </trkpt>
      <trkpt lat="42.350209000" lon="-2.623128000">
        <ele>1134.70</ele>
        <time>2016-10-29T08:24:48Z</time>
      </trkpt>
      <trkpt lat="42.350195000" lon="-2.623106000">
        <ele>1134.80</ele>
        <time>2016-10-29T08:24:49Z</time>
      </trkpt>
      <trkpt lat="42.350181000" lon="-2.623082000">
        <ele>1134.90</ele>
        <time>2016-10-29T08:24:50Z</time>
      </trkpt>
      <trkpt lat="42.350168000" lon="-2.623060000">
        <ele>1134.90</ele>
        <time>2016-10-29T08:24:51Z</time>
      </trkpt>
      <trkpt lat="42.350144000" lon="-2.623009000">
        <ele>1135.10</ele>
        <time>2016-10-29T08:24:53Z</time>
      </trkpt>
      <trkpt lat="42.350134000" lon="-2.622982000">
        <ele>1135.10</ele>
        <time>2016-10-29T08:24:54Z</time>
      </trkpt>
      <trkpt lat="42.350119000" lon="-2.622963000">
        <ele>1135.20</ele>
        <time>2016-10-29T08:24:55Z</time>
      </trkpt>
      <trkpt lat="42.350103000" lon="-2.622943000">
        <ele>1135.40</ele>
        <time>2016-10-29T08:24:56Z</time>
      </trkpt>
      <trkpt lat="42.350090000" lon="-2.622920000">
        <ele>1135.50</ele>
        <time>2016-10-29T08:24:57Z</time>
      </trkpt>
      <trkpt lat="42.350076000" lon="-2.622900000">
        <ele>1135.70</ele>
        <time>2016-10-29T08:24:58Z</time>
      </trkpt>
      <trkpt lat="42.350063000" lon="-2.622883000">
        <ele>1135.80</ele>
        <time>2016-10-29T08:24:59Z</time>
      </trkpt>
      <trkpt lat="42.350046000" lon="-2.622862000">
        <ele>1136.20</ele>
        <time>2016-10-29T08:25:00Z</time>
      </trkpt>
      <trkpt lat="42.350031000" lon="-2.622836000">
        <ele>1136.60</ele>
        <time>2016-10-29T08:25:01Z</time>
      </trkpt>
      <trkpt lat="42.350015000" lon="-2.622810000">
        <ele>1136.80</ele>
        <time>2016-10-29T08:25:02Z</time>
      </trkpt>
      <trkpt lat="42.349999000" lon="-2.622788000">
        <ele>1137.00</ele>
        <time>2016-10-29T08:25:03Z</time>
      </trkpt>
      <trkpt lat="42.349986000" lon="-2.622767000">
        <ele>1137.30</ele>
        <time>2016-10-29T08:25:04Z</time>
      </trkpt>
      <trkpt lat="42.349970000" lon="-2.622746000">
        <ele>1137.40</ele>
        <time>2016-10-29T08:25:05Z</time>
      </trkpt>
      <trkpt lat="42.349952000" lon="-2.622723000">
        <ele>1137.60</ele>
        <time>2016-10-29T08:25:06Z</time>
      </trkpt>
      <trkpt lat="42.349936000" lon="-2.622700000">
        <ele>1137.70</ele>
        <time>2016-10-29T08:25:07Z</time>
      </trkpt>
      <trkpt lat="42.349919000" lon="-2.622679000">
        <ele>1137.90</ele>
        <time>2016-10-29T08:25:08Z</time>
      </trkpt>
      <trkpt lat="42.349907000" lon="-2.622658000">
        <ele>1138.00</ele>
        <time>2016-10-29T08:25:09Z</time>
      </trkpt>
      <trkpt lat="42.349895000" lon="-2.622638000">
        <ele>1138.40</ele>
        <time>2016-10-29T08:25:10Z</time>
      </trkpt>
      <trkpt lat="42.349882000" lon="-2.622612000">
        <ele>1138.70</ele>
        <time>2016-10-29T08:25:11Z</time>
      </trkpt>
      <trkpt lat="42.349867000" lon="-2.622591000">
        <ele>1139.00</ele>
        <time>2016-10-29T08:25:12Z</time>
      </trkpt>
      <trkpt lat="42.349853000" lon="-2.622572000">
        <ele>1139.20</ele>
        <time>2016-10-29T08:25:13Z</time>
      </trkpt>
      <trkpt lat="42.349833000" lon="-2.622556000">
        <ele>1139.40</ele>
        <time>2016-10-29T08:25:14Z</time>
      </trkpt>
      <trkpt lat="42.349815000" lon="-2.622534000">
        <ele>1139.60</ele>
        <time>2016-10-29T08:25:15Z</time>
      </trkpt>
      <trkpt lat="42.349798000" lon="-2.622515000">
        <ele>1139.80</ele>
        <time>2016-10-29T08:25:16Z</time>
      </trkpt>
      <trkpt lat="42.349776000" lon="-2.622501000">
        <ele>1139.90</ele>
        <time>2016-10-29T08:25:17Z</time>
      </trkpt>
      <trkpt lat="42.349760000" lon="-2.622483000">
        <ele>1140.00</ele>
        <time>2016-10-29T08:25:18Z</time>
      </trkpt>
      <trkpt lat="42.349744000" lon="-2.622465000">
        <ele>1140.10</ele>
        <time>2016-10-29T08:25:19Z</time>
      </trkpt>
      <trkpt lat="42.349728000" lon="-2.622446000">
        <ele>1140.60</ele>
        <time>2016-10-29T08:25:20Z</time>
      </trkpt>
      <trkpt lat="42.349711000" lon="-2.622425000">
        <ele>1141.00</ele>
        <time>2016-10-29T08:25:21Z</time>
      </trkpt>
      <trkpt lat="42.349691000" lon="-2.622407000">
        <ele>1141.30</ele>
        <time>2016-10-29T08:25:22Z</time>
      </trkpt>
      <trkpt lat="42.349669000" lon="-2.622391000">
        <ele>1141.50</ele>
        <time>2016-10-29T08:25:23Z</time>
      </trkpt>
      <trkpt lat="42.349649000" lon="-2.622371000">
        <ele>1141.60</ele>
        <time>2016-10-29T08:25:24Z</time>
      </trkpt>
      <trkpt lat="42.349628000" lon="-2.622353000">
        <ele>1141.70</ele>
        <time>2016-10-29T08:25:25Z</time>
      </trkpt>
      <trkpt lat="42.349604000" lon="-2.622340000">
        <ele>1141.90</ele>
        <time>2016-10-29T08:25:26Z</time>
      </trkpt>
      <trkpt lat="42.349582000" lon="-2.622327000">
        <ele>1142.00</ele>
        <time>2016-10-29T08:25:27Z</time>
      </trkpt>
      <trkpt lat="42.349564000" lon="-2.622313000">
        <ele>1142.20</ele>
        <time>2016-10-29T08:25:28Z</time>
      </trkpt>
      <trkpt lat="42.349541000" lon="-2.622300000">
        <ele>1142.40</ele>
        <time>2016-10-29T08:25:29Z</time>
      </trkpt>
      <trkpt lat="42.349520000" lon="-2.622287000">
        <ele>1142.50</ele>
        <time>2016-10-29T08:25:30Z</time>
      </trkpt>
      <trkpt lat="42.349499000" lon="-2.622269000">
        <ele>1142.60</ele>
        <time>2016-10-29T08:25:31Z</time>
      </trkpt>
      <trkpt lat="42.349479000" lon="-2.622254000">
        <ele>1142.80</ele>
        <time>2016-10-29T08:25:32Z</time>
      </trkpt>
      <trkpt lat="42.349462000" lon="-2.622241000">
        <ele>1142.90</ele>
        <time>2016-10-29T08:25:33Z</time>
      </trkpt>
      <trkpt lat="42.349441000" lon="-2.622228000">
        <ele>1143.00</ele>
        <time>2016-10-29T08:25:34Z</time>
      </trkpt>
      <trkpt lat="42.349419000" lon="-2.622213000">
        <ele>1143.00</ele>
        <time>2016-10-29T08:25:35Z</time>
      </trkpt>
      <trkpt lat="42.349397000" lon="-2.622199000">
        <ele>1143.10</ele>
        <time>2016-10-29T08:25:36Z</time>
      </trkpt>
      <trkpt lat="42.349375000" lon="-2.622185000">
        <ele>1143.10</ele>
        <time>2016-10-29T08:25:37Z</time>
      </trkpt>
      <trkpt lat="42.349349000" lon="-2.622169000">
        <ele>1143.30</ele>
        <time>2016-10-29T08:25:38Z</time>
      </trkpt>
      <trkpt lat="42.349326000" lon="-2.622156000">
        <ele>1143.50</ele>
        <time>2016-10-29T08:25:39Z</time>
      </trkpt>
      <trkpt lat="42.349300000" lon="-2.622139000">
        <ele>1143.60</ele>
        <time>2016-10-29T08:25:40Z</time>
      </trkpt>
      <trkpt lat="42.349277000" lon="-2.622122000">
        <ele>1143.60</ele>
        <time>2016-10-29T08:25:41Z</time>
      </trkpt>
      <trkpt lat="42.349253000" lon="-2.622108000">
        <ele>1143.60</ele>
        <time>2016-10-29T08:25:42Z</time>
      </trkpt>
      <trkpt lat="42.349230000" lon="-2.622092000">
        <ele>1143.60</ele>
        <time>2016-10-29T08:25:43Z</time>
      </trkpt>
      <trkpt lat="42.349201000" lon="-2.622080000">
        <ele>1143.60</ele>
        <time>2016-10-29T08:25:44Z</time>
      </trkpt>
      <trkpt lat="42.349174000" lon="-2.622067000">
        <ele>1143.60</ele>
        <time>2016-10-29T08:25:45Z</time>
      </trkpt>
      <trkpt lat="42.349144000" lon="-2.622051000">
        <ele>1143.70</ele>
        <time>2016-10-29T08:25:46Z</time>
      </trkpt>
      <trkpt lat="42.349112000" lon="-2.622034000">
        <ele>1143.80</ele>
        <time>2016-10-29T08:25:47Z</time>
      </trkpt>
      <trkpt lat="42.349083000" lon="-2.622019000">
        <ele>1143.80</ele>
        <time>2016-10-29T08:25:48Z</time>
      </trkpt>
      <trkpt lat="42.349053000" lon="-2.622002000">
        <ele>1143.90</ele>
        <time>2016-10-29T08:25:49Z</time>
      </trkpt>
      <trkpt lat="42.349025000" lon="-2.621979000">
        <ele>1143.90</ele>
        <time>2016-10-29T08:25:50Z</time>
      </trkpt>
      <trkpt lat="42.348994000" lon="-2.621960000">
        <ele>1143.90</ele>
        <time>2016-10-29T08:25:51Z</time>
      </trkpt>
      <trkpt lat="42.348965000" lon="-2.621937000">
        <ele>1143.80</ele>
        <time>2016-10-29T08:25:52Z</time>
      </trkpt>
      <trkpt lat="42.348900000" lon="-2.621892000">
        <ele>1143.70</ele>
        <time>2016-10-29T08:25:54Z</time>
      </trkpt>
      <trkpt lat="42.348866000" lon="-2.621863000">
        <ele>1143.60</ele>
        <time>2016-10-29T08:25:55Z</time>
      </trkpt>
      <trkpt lat="42.348823000" lon="-2.621839000">
        <ele>1143.50</ele>
        <time>2016-10-29T08:25:56Z</time>
      </trkpt>
      <trkpt lat="42.348783000" lon="-2.621814000">
        <ele>1143.40</ele>
        <time>2016-10-29T08:25:57Z</time>
      </trkpt>
      <trkpt lat="42.348736000" lon="-2.621784000">
        <ele>1143.40</ele>
        <time>2016-10-29T08:25:58Z</time>
      </trkpt>
      <trkpt lat="42.348686000" lon="-2.621759000">
        <ele>1143.30</ele>
        <time>2016-10-29T08:25:59Z</time>
      </trkpt>
      <trkpt lat="42.348632000" lon="-2.621730000">
        <ele>1143.30</ele>
        <time>2016-10-29T08:26:00Z</time>
      </trkpt>
      <trkpt lat="42.348576000" lon="-2.621704000">
        <ele>1143.30</ele>
        <time>2016-10-29T08:26:01Z</time>
      </trkpt>
      <trkpt lat="42.348518000" lon="-2.621679000">
        <ele>1143.00</ele>
        <time>2016-10-29T08:26:02Z</time>
      </trkpt>
      <trkpt lat="42.348457000" lon="-2.621655000">
        <ele>1142.80</ele>
        <time>2016-10-29T08:26:03Z</time>
      </trkpt>
      <trkpt lat="42.348395000" lon="-2.621627000">
        <ele>1142.50</ele>
        <time>2016-10-29T08:26:04Z</time>
      </trkpt>
      <trkpt lat="42.348333000" lon="-2.621593000">
        <ele>1142.20</ele>
        <time>2016-10-29T08:26:05Z</time>
      </trkpt>
      <trkpt lat="42.348272000" lon="-2.621560000">
        <ele>1142.00</ele>
        <time>2016-10-29T08:26:06Z</time>
      </trkpt>
      <trkpt lat="42.348210000" lon="-2.621525000">
        <ele>1141.80</ele>
        <time>2016-10-29T08:26:07Z</time>
      </trkpt>
      <trkpt lat="42.348152000" lon="-2.621488000">
        <ele>1141.60</ele>
        <time>2016-10-29T08:26:08Z</time>
      </trkpt>
      <trkpt lat="42.348096000" lon="-2.621444000">
        <ele>1141.40</ele>
        <time>2016-10-29T08:26:09Z</time>
      </trkpt>
      <trkpt lat="42.348045000" lon="-2.621397000">
        <ele>1141.30</ele>
        <time>2016-10-29T08:26:10Z</time>
      </trkpt>
      <trkpt lat="42.347995000" lon="-2.621347000">
        <ele>1141.20</ele>
        <time>2016-10-29T08:26:11Z</time>
      </trkpt>
      <trkpt lat="42.347945000" lon="-2.621304000">
        <ele>1141.10</ele>
        <time>2016-10-29T08:26:12Z</time>
      </trkpt>
      <trkpt lat="42.347887000" lon="-2.621281000">
        <ele>1141.10</ele>
        <time>2016-10-29T08:26:13Z</time>
      </trkpt>
      <trkpt lat="42.347828000" lon="-2.621277000">
        <ele>1141.00</ele>
        <time>2016-10-29T08:26:14Z</time>
      </trkpt>
      <trkpt lat="42.347772000" lon="-2.621287000">
        <ele>1140.90</ele>
        <time>2016-10-29T08:26:15Z</time>
      </trkpt>
      <trkpt lat="42.347718000" lon="-2.621306000">
        <ele>1140.70</ele>
        <time>2016-10-29T08:26:16Z</time>
      </trkpt>
      <trkpt lat="42.347666000" lon="-2.621329000">
        <ele>1140.60</ele>
        <time>2016-10-29T08:26:17Z</time>
      </trkpt>
      <trkpt lat="42.347617000" lon="-2.621356000">
        <ele>1140.50</ele>
        <time>2016-10-29T08:26:18Z</time>
      </trkpt>
      <trkpt lat="42.347577000" lon="-2.621389000">
        <ele>1140.50</ele>
        <time>2016-10-29T08:26:19Z</time>
      </trkpt>
      <trkpt lat="42.347529000" lon="-2.621424000">
        <ele>1140.20</ele>
        <time>2016-10-29T08:26:20Z</time>
      </trkpt>
      <trkpt lat="42.347480000" lon="-2.621450000">
        <ele>1140.00</ele>
        <time>2016-10-29T08:26:21Z</time>
      </trkpt>
      <trkpt lat="42.347431000" lon="-2.621479000">
        <ele>1140.10</ele>
        <time>2016-10-29T08:26:22Z</time>
      </trkpt>
      <trkpt lat="42.347385000" lon="-2.621507000">
        <ele>1140.20</ele>
        <time>2016-10-29T08:26:23Z</time>
      </trkpt>
      <trkpt lat="42.347343000" lon="-2.621535000">
        <ele>1140.30</ele>
        <time>2016-10-29T08:26:24Z</time>
      </trkpt>
      <trkpt lat="42.347303000" lon="-2.621558000">
        <ele>1140.30</ele>
        <time>2016-10-29T08:26:25Z</time>
      </trkpt>
      <trkpt lat="42.347262000" lon="-2.621583000">
        <ele>1140.30</ele>
        <time>2016-10-29T08:26:26Z</time>
      </trkpt>
      <trkpt lat="42.347221000" lon="-2.621606000">
        <ele>1140.40</ele>
        <time>2016-10-29T08:26:27Z</time>
      </trkpt>
      <trkpt lat="42.347187000" lon="-2.621626000">
        <ele>1140.40</ele>
        <time>2016-10-29T08:26:28Z</time>
      </trkpt>
      <trkpt lat="42.347154000" lon="-2.621648000">
        <ele>1140.30</ele>
        <time>2016-10-29T08:26:29Z</time>
      </trkpt>
      <trkpt lat="42.347122000" lon="-2.621661000">
        <ele>1140.30</ele>
        <time>2016-10-29T08:26:30Z</time>
      </trkpt>
      <trkpt lat="42.347091000" lon="-2.621674000">
        <ele>1140.30</ele>
        <time>2016-10-29T08:26:31Z</time>
      </trkpt>
      <trkpt lat="42.347064000" lon="-2.621688000">
        <ele>1140.60</ele>
        <time>2016-10-29T08:26:32Z</time>
      </trkpt>
      <trkpt lat="42.347039000" lon="-2.621702000">
        <ele>1140.80</ele>
        <time>2016-10-29T08:26:33Z</time>
      </trkpt>
      <trkpt lat="42.347013000" lon="-2.621716000">
        <ele>1141.00</ele>
        <time>2016-10-29T08:26:34Z</time>
      </trkpt>
      <trkpt lat="42.346988000" lon="-2.621729000">
        <ele>1141.10</ele>
        <time>2016-10-29T08:26:35Z</time>
      </trkpt>
      <trkpt lat="42.346966000" lon="-2.621738000">
        <ele>1141.30</ele>
        <time>2016-10-29T08:26:36Z</time>
      </trkpt>
      <trkpt lat="42.346945000" lon="-2.621747000">
        <ele>1141.50</ele>
        <time>2016-10-29T08:26:37Z</time>
      </trkpt>
      <trkpt lat="42.346922000" lon="-2.621759000">
        <ele>1141.80</ele>
        <time>2016-10-29T08:26:38Z</time>
      </trkpt>
      <trkpt lat="42.346901000" lon="-2.621769000">
        <ele>1142.10</ele>
        <time>2016-10-29T08:26:39Z</time>
      </trkpt>
      <trkpt lat="42.346881000" lon="-2.621782000">
        <ele>1142.30</ele>
        <time>2016-10-29T08:26:40Z</time>
      </trkpt>
      <trkpt lat="42.346860000" lon="-2.621793000">
        <ele>1142.50</ele>
        <time>2016-10-29T08:26:41Z</time>
      </trkpt>
      <trkpt lat="42.346840000" lon="-2.621799000">
        <ele>1142.90</ele>
        <time>2016-10-29T08:26:42Z</time>
      </trkpt>
      <trkpt lat="42.346820000" lon="-2.621806000">
        <ele>1143.20</ele>
        <time>2016-10-29T08:26:43Z</time>
      </trkpt>
      <trkpt lat="42.346799000" lon="-2.621814000">
        <ele>1143.40</ele>
        <time>2016-10-29T08:26:44Z</time>
      </trkpt>
      <trkpt lat="42.346782000" lon="-2.621822000">
        <ele>1143.50</ele>
        <time>2016-10-29T08:26:45Z</time>
      </trkpt>
      <trkpt lat="42.346764000" lon="-2.621830000">
        <ele>1143.70</ele>
        <time>2016-10-29T08:26:46Z</time>
      </trkpt>
      <trkpt lat="42.346750000" lon="-2.621839000">
        <ele>1143.90</ele>
        <time>2016-10-29T08:26:47Z</time>
      </trkpt>
      <trkpt lat="42.346737000" lon="-2.621845000">
        <ele>1144.10</ele>
        <time>2016-10-29T08:26:48Z</time>
      </trkpt>
      <trkpt lat="42.346720000" lon="-2.621851000">
        <ele>1144.30</ele>
        <time>2016-10-29T08:26:49Z</time>
      </trkpt>
      <trkpt lat="42.346700000" lon="-2.621858000">
        <ele>1144.70</ele>
        <time>2016-10-29T08:26:50Z</time>
      </trkpt>
      <trkpt lat="42.346681000" lon="-2.621861000">
        <ele>1145.00</ele>
        <time>2016-10-29T08:26:51Z</time>
      </trkpt>
      <trkpt lat="42.346661000" lon="-2.621869000">
        <ele>1145.50</ele>
        <time>2016-10-29T08:26:52Z</time>
      </trkpt>
      <trkpt lat="42.346644000" lon="-2.621876000">
        <ele>1145.90</ele>
        <time>2016-10-29T08:26:53Z</time>
      </trkpt>
      <trkpt lat="42.346630000" lon="-2.621886000">
        <ele>1146.20</ele>
        <time>2016-10-29T08:26:54Z</time>
      </trkpt>
      <trkpt lat="42.346601000" lon="-2.621899000">
        <ele>1146.60</ele>
        <time>2016-10-29T08:26:56Z</time>
      </trkpt>
      <trkpt lat="42.346585000" lon="-2.621903000">
        <ele>1146.80</ele>
        <time>2016-10-29T08:26:57Z</time>
      </trkpt>
      <trkpt lat="42.346572000" lon="-2.621906000">
        <ele>1147.30</ele>
        <time>2016-10-29T08:26:58Z</time>
      </trkpt>
      <trkpt lat="42.346558000" lon="-2.621903000">
        <ele>1147.70</ele>
        <time>2016-10-29T08:26:59Z</time>
      </trkpt>
      <trkpt lat="42.346545000" lon="-2.621909000">
        <ele>1148.10</ele>
        <time>2016-10-29T08:27:00Z</time>
      </trkpt>
      <trkpt lat="42.346530000" lon="-2.621911000">
        <ele>1148.40</ele>
        <time>2016-10-29T08:27:01Z</time>
      </trkpt>
      <trkpt lat="42.346519000" lon="-2.621916000">
        <ele>1148.80</ele>
        <time>2016-10-29T08:27:02Z</time>
      </trkpt>
      <trkpt lat="42.346503000" lon="-2.621913000">
        <ele>1149.10</ele>
        <time>2016-10-29T08:27:03Z</time>
      </trkpt>
      <trkpt lat="42.346488000" lon="-2.621913000">
        <ele>1149.40</ele>
        <time>2016-10-29T08:27:04Z</time>
      </trkpt>
      <trkpt lat="42.346472000" lon="-2.621918000">
        <ele>1149.70</ele>
        <time>2016-10-29T08:27:05Z</time>
      </trkpt>
      <trkpt lat="42.346455000" lon="-2.621918000">
        <ele>1149.90</ele>
        <time>2016-10-29T08:27:06Z</time>
      </trkpt>
      <trkpt lat="42.346434000" lon="-2.621914000">
        <ele>1150.00</ele>
        <time>2016-10-29T08:27:07Z</time>
      </trkpt>
      <trkpt lat="42.346417000" lon="-2.621913000">
        <ele>1150.40</ele>
        <time>2016-10-29T08:27:08Z</time>
      </trkpt>
      <trkpt lat="42.346401000" lon="-2.621916000">
        <ele>1150.60</ele>
        <time>2016-10-29T08:27:09Z</time>
      </trkpt>
      <trkpt lat="42.346385000" lon="-2.621917000">
        <ele>1150.90</ele>
        <time>2016-10-29T08:27:10Z</time>
      </trkpt>
      <trkpt lat="42.346370000" lon="-2.621921000">
        <ele>1151.00</ele>
        <time>2016-10-29T08:27:11Z</time>
      </trkpt>
      <trkpt lat="42.346358000" lon="-2.621915000">
        <ele>1151.40</ele>
        <time>2016-10-29T08:27:12Z</time>
      </trkpt>
      <trkpt lat="42.346341000" lon="-2.621911000">
        <ele>1151.70</ele>
        <time>2016-10-29T08:27:13Z</time>
      </trkpt>
      <trkpt lat="42.346324000" lon="-2.621906000">
        <ele>1151.90</ele>
        <time>2016-10-29T08:27:14Z</time>
      </trkpt>
      <trkpt lat="42.346307000" lon="-2.621902000">
        <ele>1152.20</ele>
        <time>2016-10-29T08:27:15Z</time>
      </trkpt>
      <trkpt lat="42.346293000" lon="-2.621889000">
        <ele>1152.40</ele>
        <time>2016-10-29T08:27:16Z</time>
      </trkpt>
      <trkpt lat="42.346278000" lon="-2.621882000">
        <ele>1152.60</ele>
        <time>2016-10-29T08:27:17Z</time>
      </trkpt>
      <trkpt lat="42.346267000" lon="-2.621874000">
        <ele>1152.80</ele>
        <time>2016-10-29T08:27:18Z</time>
      </trkpt>
      <trkpt lat="42.346254000" lon="-2.621870000">
        <ele>1153.00</ele>
        <time>2016-10-29T08:27:19Z</time>
      </trkpt>
      <trkpt lat="42.346237000" lon="-2.621866000">
        <ele>1153.30</ele>
        <time>2016-10-29T08:27:20Z</time>
      </trkpt>
      <trkpt lat="42.346224000" lon="-2.621861000">
        <ele>1153.40</ele>
        <time>2016-10-29T08:27:21Z</time>
      </trkpt>
      <trkpt lat="42.346210000" lon="-2.621859000">
        <ele>1153.60</ele>
        <time>2016-10-29T08:27:22Z</time>
      </trkpt>
      <trkpt lat="42.346196000" lon="-2.621858000">
        <ele>1153.80</ele>
        <time>2016-10-29T08:27:23Z</time>
      </trkpt>
      <trkpt lat="42.346180000" lon="-2.621860000">
        <ele>1153.90</ele>
        <time>2016-10-29T08:27:24Z</time>
      </trkpt>
      <trkpt lat="42.346163000" lon="-2.621857000">
        <ele>1154.00</ele>
        <time>2016-10-29T08:27:25Z</time>
      </trkpt>
      <trkpt lat="42.346147000" lon="-2.621856000">
        <ele>1154.40</ele>
        <time>2016-10-29T08:27:26Z</time>
      </trkpt>
      <trkpt lat="42.346131000" lon="-2.621860000">
        <ele>1154.60</ele>
        <time>2016-10-29T08:27:27Z</time>
      </trkpt>
      <trkpt lat="42.346120000" lon="-2.621862000">
        <ele>1154.80</ele>
        <time>2016-10-29T08:27:28Z</time>
      </trkpt>
      <trkpt lat="42.346110000" lon="-2.621864000">
        <ele>1155.00</ele>
        <time>2016-10-29T08:27:29Z</time>
      </trkpt>
      <trkpt lat="42.346103000" lon="-2.621870000">
        <ele>1155.20</ele>
        <time>2016-10-29T08:27:30Z</time>
      </trkpt>
      <trkpt lat="42.346091000" lon="-2.621876000">
        <ele>1155.30</ele>
        <time>2016-10-29T08:27:31Z</time>
      </trkpt>
      <trkpt lat="42.346078000" lon="-2.621874000">
        <ele>1155.50</ele>
        <time>2016-10-29T08:27:32Z</time>
      </trkpt>
      <trkpt lat="42.346069000" lon="-2.621869000">
        <ele>1155.70</ele>
        <time>2016-10-29T08:27:33Z</time>
      </trkpt>
      <trkpt lat="42.346054000" lon="-2.621862000">
        <ele>1155.90</ele>
        <time>2016-10-29T08:27:34Z</time>
      </trkpt>
      <trkpt lat="42.346042000" lon="-2.621860000">
        <ele>1156.10</ele>
        <time>2016-10-29T08:27:35Z</time>
      </trkpt>
      <trkpt lat="42.346030000" lon="-2.621861000">
        <ele>1156.30</ele>
        <time>2016-10-29T08:27:36Z</time>
      </trkpt>
      <trkpt lat="42.346018000" lon="-2.621864000">
        <ele>1156.40</ele>
        <time>2016-10-29T08:27:37Z</time>
      </trkpt>
      <trkpt lat="42.346009000" lon="-2.621868000">
        <ele>1156.50</ele>
        <time>2016-10-29T08:27:38Z</time>
      </trkpt>
      <trkpt lat="42.345998000" lon="-2.621866000">
        <ele>1156.50</ele>
        <time>2016-10-29T08:27:39Z</time>
      </trkpt>
      <trkpt lat="42.345986000" lon="-2.621863000">
        <ele>1156.70</ele>
        <time>2016-10-29T08:27:40Z</time>
      </trkpt>
      <trkpt lat="42.345973000" lon="-2.621861000">
        <ele>1156.80</ele>
        <time>2016-10-29T08:27:41Z</time>
      </trkpt>
      <trkpt lat="42.345960000" lon="-2.621858000">
        <ele>1157.00</ele>
        <time>2016-10-29T08:27:42Z</time>
      </trkpt>
      <trkpt lat="42.345945000" lon="-2.621856000">
        <ele>1157.20</ele>
        <time>2016-10-29T08:27:43Z</time>
      </trkpt>
      <trkpt lat="42.345930000" lon="-2.621857000">
        <ele>1157.30</ele>
        <time>2016-10-29T08:27:44Z</time>
      </trkpt>
      <trkpt lat="42.345919000" lon="-2.621852000">
        <ele>1157.40</ele>
        <time>2016-10-29T08:27:45Z</time>
      </trkpt>
      <trkpt lat="42.345902000" lon="-2.621845000">
        <ele>1157.50</ele>
        <time>2016-10-29T08:27:46Z</time>
      </trkpt>
      <trkpt lat="42.345890000" lon="-2.621842000">
        <ele>1157.60</ele>
        <time>2016-10-29T08:27:47Z</time>
      </trkpt>
      <trkpt lat="42.345877000" lon="-2.621836000">
        <ele>1157.80</ele>
        <time>2016-10-29T08:27:48Z</time>
      </trkpt>
      <trkpt lat="42.345868000" lon="-2.621832000">
        <ele>1158.00</ele>
        <time>2016-10-29T08:27:49Z</time>
      </trkpt>
      <trkpt lat="42.345854000" lon="-2.621828000">
        <ele>1158.20</ele>
        <time>2016-10-29T08:27:50Z</time>
      </trkpt>
      <trkpt lat="42.345840000" lon="-2.621824000">
        <ele>1158.30</ele>
        <time>2016-10-29T08:27:51Z</time>
      </trkpt>
      <trkpt lat="42.345829000" lon="-2.621810000">
        <ele>1158.30</ele>
        <time>2016-10-29T08:27:52Z</time>
      </trkpt>
      <trkpt lat="42.345818000" lon="-2.621802000">
        <ele>1158.40</ele>
        <time>2016-10-29T08:27:53Z</time>
      </trkpt>
      <trkpt lat="42.345806000" lon="-2.621785000">
        <ele>1158.70</ele>
        <time>2016-10-29T08:27:54Z</time>
      </trkpt>
      <trkpt lat="42.345794000" lon="-2.621780000">
        <ele>1158.90</ele>
        <time>2016-10-29T08:27:55Z</time>
      </trkpt>
      <trkpt lat="42.345783000" lon="-2.621777000">
        <ele>1159.00</ele>
        <time>2016-10-29T08:27:56Z</time>
      </trkpt>
      <trkpt lat="42.345758000" lon="-2.621768000">
        <ele>1159.30</ele>
        <time>2016-10-29T08:27:58Z</time>
      </trkpt>
      <trkpt lat="42.345746000" lon="-2.621761000">
        <ele>1159.50</ele>
        <time>2016-10-29T08:27:59Z</time>
      </trkpt>
      <trkpt lat="42.345735000" lon="-2.621756000">
        <ele>1159.50</ele>
        <time>2016-10-29T08:28:00Z</time>
      </trkpt>
      <trkpt lat="42.345722000" lon="-2.621748000">
        <ele>1159.60</ele>
        <time>2016-10-29T08:28:01Z</time>
      </trkpt>
      <trkpt lat="42.345708000" lon="-2.621738000">
        <ele>1159.70</ele>
        <time>2016-10-29T08:28:02Z</time>
      </trkpt>
      <trkpt lat="42.345697000" lon="-2.621734000">
        <ele>1159.80</ele>
        <time>2016-10-29T08:28:03Z</time>
      </trkpt>
      <trkpt lat="42.345687000" lon="-2.621735000">
        <ele>1159.90</ele>
        <time>2016-10-29T08:28:04Z</time>
      </trkpt>
      <trkpt lat="42.345679000" lon="-2.621743000">
        <ele>1160.00</ele>
        <time>2016-10-29T08:28:05Z</time>
      </trkpt>
      <trkpt lat="42.345669000" lon="-2.621742000">
        <ele>1160.50</ele>
        <time>2016-10-29T08:28:06Z</time>
      </trkpt>
      <trkpt lat="42.345660000" lon="-2.621743000">
        <ele>1160.80</ele>
        <time>2016-10-29T08:28:07Z</time>
      </trkpt>
      <trkpt lat="42.345649000" lon="-2.621742000">
        <ele>1161.10</ele>
        <time>2016-10-29T08:28:08Z</time>
      </trkpt>
      <trkpt lat="42.345638000" lon="-2.621733000">
        <ele>1161.40</ele>
        <time>2016-10-29T08:28:09Z</time>
      </trkpt>
      <trkpt lat="42.345623000" lon="-2.621721000">
        <ele>1161.50</ele>
        <time>2016-10-29T08:28:10Z</time>
      </trkpt>
      <trkpt lat="42.345610000" lon="-2.621705000">
        <ele>1161.60</ele>
        <time>2016-10-29T08:28:11Z</time>
      </trkpt>
      <trkpt lat="42.345595000" lon="-2.621692000">
        <ele>1161.80</ele>
        <time>2016-10-29T08:28:12Z</time>
      </trkpt>
      <trkpt lat="42.345584000" lon="-2.621684000">
        <ele>1161.90</ele>
        <time>2016-10-29T08:28:13Z</time>
      </trkpt>
      <trkpt lat="42.345574000" lon="-2.621677000">
        <ele>1162.10</ele>
        <time>2016-10-29T08:28:14Z</time>
      </trkpt>
      <trkpt lat="42.345560000" lon="-2.621665000">
        <ele>1162.20</ele>
        <time>2016-10-29T08:28:15Z</time>
      </trkpt>
      <trkpt lat="42.345545000" lon="-2.621657000">
        <ele>1162.70</ele>
        <time>2016-10-29T08:28:16Z</time>
      </trkpt>
      <trkpt lat="42.345532000" lon="-2.621646000">
        <ele>1163.10</ele>
        <time>2016-10-29T08:28:17Z</time>
      </trkpt>
      <trkpt lat="42.345521000" lon="-2.621635000">
        <ele>1163.50</ele>
        <time>2016-10-29T08:28:18Z</time>
      </trkpt>
      <trkpt lat="42.345512000" lon="-2.621621000">
        <ele>1163.80</ele>
        <time>2016-10-29T08:28:19Z</time>
      </trkpt>
      <trkpt lat="42.345500000" lon="-2.621613000">
        <ele>1164.10</ele>
        <time>2016-10-29T08:28:20Z</time>
      </trkpt>
      <trkpt lat="42.345487000" lon="-2.621603000">
        <ele>1164.20</ele>
        <time>2016-10-29T08:28:21Z</time>
      </trkpt>
      <trkpt lat="42.345477000" lon="-2.621590000">
        <ele>1164.40</ele>
        <time>2016-10-29T08:28:22Z</time>
      </trkpt>
      <trkpt lat="42.345468000" lon="-2.621574000">
        <ele>1164.60</ele>
        <time>2016-10-29T08:28:23Z</time>
      </trkpt>
      <trkpt lat="42.345461000" lon="-2.621557000">
        <ele>1164.80</ele>
        <time>2016-10-29T08:28:24Z</time>
      </trkpt>
      <trkpt lat="42.345451000" lon="-2.621539000">
        <ele>1165.10</ele>
        <time>2016-10-29T08:28:25Z</time>
      </trkpt>
      <trkpt lat="42.345439000" lon="-2.621527000">
        <ele>1165.30</ele>
        <time>2016-10-29T08:28:26Z</time>
      </trkpt>
      <trkpt lat="42.345423000" lon="-2.621516000">
        <ele>1165.50</ele>
        <time>2016-10-29T08:28:27Z</time>
      </trkpt>
      <trkpt lat="42.345416000" lon="-2.621498000">
        <ele>1165.60</ele>
        <time>2016-10-29T08:28:28Z</time>
      </trkpt>
      <trkpt lat="42.345410000" lon="-2.621481000">
        <ele>1165.70</ele>
        <time>2016-10-29T08:28:29Z</time>
      </trkpt>
      <trkpt lat="42.345403000" lon="-2.621463000">
        <ele>1165.80</ele>
        <time>2016-10-29T08:28:30Z</time>
      </trkpt>
      <trkpt lat="42.345398000" lon="-2.621446000">
        <ele>1166.00</ele>
        <time>2016-10-29T08:28:31Z</time>
      </trkpt>
      <trkpt lat="42.345390000" lon="-2.621433000">
        <ele>1166.20</ele>
        <time>2016-10-29T08:28:32Z</time>
      </trkpt>
      <trkpt lat="42.345384000" lon="-2.621417000">
        <ele>1166.40</ele>
        <time>2016-10-29T08:28:33Z</time>
      </trkpt>
      <trkpt lat="42.345377000" lon="-2.621399000">
        <ele>1166.60</ele>
        <time>2016-10-29T08:28:34Z</time>
      </trkpt>
      <trkpt lat="42.345373000" lon="-2.621384000">
        <ele>1166.70</ele>
        <time>2016-10-29T08:28:35Z</time>
      </trkpt>
      <trkpt lat="42.345370000" lon="-2.621366000">
        <ele>1166.90</ele>
        <time>2016-10-29T08:28:36Z</time>
      </trkpt>
      <trkpt lat="42.345370000" lon="-2.621351000">
        <ele>1167.10</ele>
        <time>2016-10-29T08:28:37Z</time>
      </trkpt>
      <trkpt lat="42.345369000" lon="-2.621337000">
        <ele>1167.30</ele>
        <time>2016-10-29T08:28:38Z</time>
      </trkpt>
      <trkpt lat="42.345362000" lon="-2.621320000">
        <ele>1167.50</ele>
        <time>2016-10-29T08:28:39Z</time>
      </trkpt>
      <trkpt lat="42.345358000" lon="-2.621308000">
        <ele>1167.70</ele>
        <time>2016-10-29T08:28:40Z</time>
      </trkpt>
      <trkpt lat="42.345359000" lon="-2.621288000">
        <ele>1167.80</ele>
        <time>2016-10-29T08:28:41Z</time>
      </trkpt>
      <trkpt lat="42.345362000" lon="-2.621267000">
        <ele>1168.00</ele>
        <time>2016-10-29T08:28:42Z</time>
      </trkpt>
      <trkpt lat="42.345367000" lon="-2.621243000">
        <ele>1168.20</ele>
        <time>2016-10-29T08:28:43Z</time>
      </trkpt>
      <trkpt lat="42.345371000" lon="-2.621219000">
        <ele>1168.30</ele>
        <time>2016-10-29T08:28:44Z</time>
      </trkpt>
      <trkpt lat="42.345372000" lon="-2.621197000">
        <ele>1168.40</ele>
        <time>2016-10-29T08:28:45Z</time>
      </trkpt>
      <trkpt lat="42.345376000" lon="-2.621177000">
        <ele>1168.40</ele>
        <time>2016-10-29T08:28:46Z</time>
      </trkpt>
      <trkpt lat="42.345377000" lon="-2.621159000">
        <ele>1168.50</ele>
        <time>2016-10-29T08:28:47Z</time>
      </trkpt>
      <trkpt lat="42.345377000" lon="-2.621143000">
        <ele>1168.50</ele>
        <time>2016-10-29T08:28:48Z</time>
      </trkpt>
      <trkpt lat="42.345382000" lon="-2.621121000">
        <ele>1168.50</ele>
        <time>2016-10-29T08:28:49Z</time>
      </trkpt>
      <trkpt lat="42.345386000" lon="-2.621102000">
        <ele>1168.70</ele>
        <time>2016-10-29T08:28:50Z</time>
      </trkpt>
      <trkpt lat="42.345394000" lon="-2.621088000">
        <ele>1168.90</ele>
        <time>2016-10-29T08:28:51Z</time>
      </trkpt>
      <trkpt lat="42.345396000" lon="-2.621070000">
        <ele>1169.10</ele>
        <time>2016-10-29T08:28:52Z</time>
      </trkpt>
      <trkpt lat="42.345397000" lon="-2.621050000">
        <ele>1169.20</ele>
        <time>2016-10-29T08:28:53Z</time>
      </trkpt>
      <trkpt lat="42.345399000" lon="-2.621028000">
        <ele>1169.40</ele>
        <time>2016-10-29T08:28:54Z</time>
      </trkpt>
      <trkpt lat="42.345400000" lon="-2.621013000">
        <ele>1169.50</ele>
        <time>2016-10-29T08:28:55Z</time>
      </trkpt>
      <trkpt lat="42.345399000" lon="-2.620993000">
        <ele>1169.60</ele>
        <time>2016-10-29T08:28:56Z</time>
      </trkpt>
      <trkpt lat="42.345403000" lon="-2.620976000">
        <ele>1169.70</ele>
        <time>2016-10-29T08:28:57Z</time>
      </trkpt>
      <trkpt lat="42.345404000" lon="-2.620961000">
        <ele>1169.70</ele>
        <time>2016-10-29T08:28:58Z</time>
      </trkpt>
      <trkpt lat="42.345404000" lon="-2.620926000">
        <ele>1169.80</ele>
        <time>2016-10-29T08:29:00Z</time>
      </trkpt>
      <trkpt lat="42.345399000" lon="-2.620909000">
        <ele>1169.90</ele>
        <time>2016-10-29T08:29:01Z</time>
      </trkpt>
      <trkpt lat="42.345399000" lon="-2.620885000">
        <ele>1170.10</ele>
        <time>2016-10-29T08:29:02Z</time>
      </trkpt>
      <trkpt lat="42.345399000" lon="-2.620860000">
        <ele>1170.20</ele>
        <time>2016-10-29T08:29:03Z</time>
      </trkpt>
      <trkpt lat="42.345400000" lon="-2.620835000">
        <ele>1170.20</ele>
        <time>2016-10-29T08:29:04Z</time>
      </trkpt>
      <trkpt lat="42.345395000" lon="-2.620810000">
        <ele>1170.30</ele>
        <time>2016-10-29T08:29:05Z</time>
      </trkpt>
      <trkpt lat="42.345389000" lon="-2.620790000">
        <ele>1170.50</ele>
        <time>2016-10-29T08:29:06Z</time>
      </trkpt>
      <trkpt lat="42.345382000" lon="-2.620769000">
        <ele>1170.60</ele>
        <time>2016-10-29T08:29:07Z</time>
      </trkpt>
      <trkpt lat="42.345378000" lon="-2.620752000">
        <ele>1170.80</ele>
        <time>2016-10-29T08:29:08Z</time>
      </trkpt>
      <trkpt lat="42.345374000" lon="-2.620735000">
        <ele>1170.90</ele>
        <time>2016-10-29T08:29:09Z</time>
      </trkpt>
      <trkpt lat="42.345372000" lon="-2.620719000">
        <ele>1171.10</ele>
        <time>2016-10-29T08:29:10Z</time>
      </trkpt>
      <trkpt lat="42.345372000" lon="-2.620703000">
        <ele>1171.20</ele>
        <time>2016-10-29T08:29:11Z</time>
      </trkpt>
      <trkpt lat="42.345366000" lon="-2.620686000">
        <ele>1171.50</ele>
        <time>2016-10-29T08:29:12Z</time>
      </trkpt>
      <trkpt lat="42.345362000" lon="-2.620665000">
        <ele>1171.70</ele>
        <time>2016-10-29T08:29:13Z</time>
      </trkpt>
      <trkpt lat="42.345356000" lon="-2.620639000">
        <ele>1171.80</ele>
        <time>2016-10-29T08:29:14Z</time>
      </trkpt>
      <trkpt lat="42.345347000" lon="-2.620620000">
        <ele>1171.90</ele>
        <time>2016-10-29T08:29:15Z</time>
      </trkpt>
      <trkpt lat="42.345338000" lon="-2.620604000">
        <ele>1172.20</ele>
        <time>2016-10-29T08:29:16Z</time>
      </trkpt>
      <trkpt lat="42.345329000" lon="-2.620583000">
        <ele>1172.30</ele>
        <time>2016-10-29T08:29:17Z</time>
      </trkpt>
      <trkpt lat="42.345319000" lon="-2.620566000">
        <ele>1172.60</ele>
        <time>2016-10-29T08:29:18Z</time>
      </trkpt>
      <trkpt lat="42.345310000" lon="-2.620551000">
        <ele>1172.70</ele>
        <time>2016-10-29T08:29:19Z</time>
      </trkpt>
      <trkpt lat="42.345305000" lon="-2.620536000">
        <ele>1172.90</ele>
        <time>2016-10-29T08:29:20Z</time>
      </trkpt>
      <trkpt lat="42.345302000" lon="-2.620519000">
        <ele>1173.10</ele>
        <time>2016-10-29T08:29:21Z</time>
      </trkpt>
      <trkpt lat="42.345297000" lon="-2.620502000">
        <ele>1173.30</ele>
        <time>2016-10-29T08:29:22Z</time>
      </trkpt>
      <trkpt lat="42.345291000" lon="-2.620486000">
        <ele>1173.50</ele>
        <time>2016-10-29T08:29:23Z</time>
      </trkpt>
      <trkpt lat="42.345284000" lon="-2.620471000">
        <ele>1173.90</ele>
        <time>2016-10-29T08:29:24Z</time>
      </trkpt>
      <trkpt lat="42.345278000" lon="-2.620453000">
        <ele>1174.20</ele>
        <time>2016-10-29T08:29:25Z</time>
      </trkpt>
      <trkpt lat="42.345268000" lon="-2.620427000">
        <ele>1174.40</ele>
        <time>2016-10-29T08:29:26Z</time>
      </trkpt>
      <trkpt lat="42.345261000" lon="-2.620407000">
        <ele>1174.50</ele>
        <time>2016-10-29T08:29:27Z</time>
      </trkpt>
      <trkpt lat="42.345254000" lon="-2.620387000">
        <ele>1174.70</ele>
        <time>2016-10-29T08:29:28Z</time>
      </trkpt>
      <trkpt lat="42.345246000" lon="-2.620366000">
        <ele>1174.90</ele>
        <time>2016-10-29T08:29:29Z</time>
      </trkpt>
      <trkpt lat="42.345243000" lon="-2.620346000">
        <ele>1175.20</ele>
        <time>2016-10-29T08:29:30Z</time>
      </trkpt>
      <trkpt lat="42.345238000" lon="-2.620328000">
        <ele>1175.40</ele>
        <time>2016-10-29T08:29:31Z</time>
      </trkpt>
      <trkpt lat="42.345233000" lon="-2.620311000">
        <ele>1175.80</ele>
        <time>2016-10-29T08:29:32Z</time>
      </trkpt>
      <trkpt lat="42.345225000" lon="-2.620290000">
        <ele>1176.10</ele>
        <time>2016-10-29T08:29:33Z</time>
      </trkpt>
      <trkpt lat="42.345219000" lon="-2.620269000">
        <ele>1176.30</ele>
        <time>2016-10-29T08:29:34Z</time>
      </trkpt>
      <trkpt lat="42.345216000" lon="-2.620255000">
        <ele>1176.50</ele>
        <time>2016-10-29T08:29:35Z</time>
      </trkpt>
      <trkpt lat="42.345209000" lon="-2.620232000">
        <ele>1176.60</ele>
        <time>2016-10-29T08:29:36Z</time>
      </trkpt>
      <trkpt lat="42.345202000" lon="-2.620215000">
        <ele>1176.70</ele>
        <time>2016-10-29T08:29:37Z</time>
      </trkpt>
      <trkpt lat="42.345198000" lon="-2.620197000">
        <ele>1177.00</ele>
        <time>2016-10-29T08:29:38Z</time>
      </trkpt>
      <trkpt lat="42.345190000" lon="-2.620181000">
        <ele>1177.10</ele>
        <time>2016-10-29T08:29:39Z</time>
      </trkpt>
      <trkpt lat="42.345185000" lon="-2.620161000">
        <ele>1177.40</ele>
        <time>2016-10-29T08:29:40Z</time>
      </trkpt>
      <trkpt lat="42.345182000" lon="-2.620141000">
        <ele>1177.60</ele>
        <time>2016-10-29T08:29:41Z</time>
      </trkpt>
      <trkpt lat="42.345180000" lon="-2.620123000">
        <ele>1177.80</ele>
        <time>2016-10-29T08:29:42Z</time>
      </trkpt>
      <trkpt lat="42.345177000" lon="-2.620105000">
        <ele>1178.00</ele>
        <time>2016-10-29T08:29:43Z</time>
      </trkpt>
      <trkpt lat="42.345170000" lon="-2.620087000">
        <ele>1178.30</ele>
        <time>2016-10-29T08:29:44Z</time>
      </trkpt>
      <trkpt lat="42.345167000" lon="-2.620068000">
        <ele>1178.50</ele>
        <time>2016-10-29T08:29:45Z</time>
      </trkpt>
      <trkpt lat="42.345164000" lon="-2.620049000">
        <ele>1178.70</ele>
        <time>2016-10-29T08:29:46Z</time>
      </trkpt>
      <trkpt lat="42.345160000" lon="-2.620032000">
        <ele>1178.90</ele>
        <time>2016-10-29T08:29:47Z</time>
      </trkpt>
      <trkpt lat="42.345158000" lon="-2.620010000">
        <ele>1179.10</ele>
        <time>2016-10-29T08:29:48Z</time>
      </trkpt>
      <trkpt lat="42.345152000" lon="-2.619983000">
        <ele>1179.20</ele>
        <time>2016-10-29T08:29:49Z</time>
      </trkpt>
      <trkpt lat="42.345151000" lon="-2.619960000">
        <ele>1179.50</ele>
        <time>2016-10-29T08:29:50Z</time>
      </trkpt>
      <trkpt lat="42.345147000" lon="-2.619938000">
        <ele>1179.70</ele>
        <time>2016-10-29T08:29:51Z</time>
      </trkpt>
      <trkpt lat="42.345141000" lon="-2.619919000">
        <ele>1179.80</ele>
        <time>2016-10-29T08:29:52Z</time>
      </trkpt>
      <trkpt lat="42.345137000" lon="-2.619899000">
        <ele>1179.90</ele>
        <time>2016-10-29T08:29:53Z</time>
      </trkpt>
      <trkpt lat="42.345131000" lon="-2.619878000">
        <ele>1180.00</ele>
        <time>2016-10-29T08:29:54Z</time>
      </trkpt>
      <trkpt lat="42.345126000" lon="-2.619858000">
        <ele>1180.10</ele>
        <time>2016-10-29T08:29:55Z</time>
      </trkpt>
      <trkpt lat="42.345123000" lon="-2.619840000">
        <ele>1180.20</ele>
        <time>2016-10-29T08:29:56Z</time>
      </trkpt>
      <trkpt lat="42.345119000" lon="-2.619817000">
        <ele>1180.30</ele>
        <time>2016-10-29T08:29:57Z</time>
      </trkpt>
      <trkpt lat="42.345113000" lon="-2.619798000">
        <ele>1180.50</ele>
        <time>2016-10-29T08:29:58Z</time>
      </trkpt>
      <trkpt lat="42.345112000" lon="-2.619777000">
        <ele>1180.70</ele>
        <time>2016-10-29T08:29:59Z</time>
      </trkpt>
      <trkpt lat="42.345109000" lon="-2.619754000">
        <ele>1180.90</ele>
        <time>2016-10-29T08:30:00Z</time>
      </trkpt>
      <trkpt lat="42.345104000" lon="-2.619716000">
        <ele>1181.20</ele>
        <time>2016-10-29T08:30:02Z</time>
      </trkpt>
      <trkpt lat="42.345101000" lon="-2.619697000">
        <ele>1181.20</ele>
        <time>2016-10-29T08:30:03Z</time>
      </trkpt>
      <trkpt lat="42.345099000" lon="-2.619675000">
        <ele>1181.40</ele>
        <time>2016-10-29T08:30:04Z</time>
      </trkpt>
      <trkpt lat="42.345097000" lon="-2.619654000">
        <ele>1181.50</ele>
        <time>2016-10-29T08:30:05Z</time>
      </trkpt>
      <trkpt lat="42.345094000" lon="-2.619633000">
        <ele>1181.70</ele>
        <time>2016-10-29T08:30:06Z</time>
      </trkpt>
      <trkpt lat="42.345094000" lon="-2.619611000">
        <ele>1181.90</ele>
        <time>2016-10-29T08:30:07Z</time>
      </trkpt>
      <trkpt lat="42.345095000" lon="-2.619594000">
        <ele>1182.00</ele>
        <time>2016-10-29T08:30:08Z</time>
      </trkpt>
      <trkpt lat="42.345093000" lon="-2.619575000">
        <ele>1182.20</ele>
        <time>2016-10-29T08:30:09Z</time>
      </trkpt>
      <trkpt lat="42.345087000" lon="-2.619553000">
        <ele>1182.40</ele>
        <time>2016-10-29T08:30:10Z</time>
      </trkpt>
      <trkpt lat="42.345086000" lon="-2.619535000">
        <ele>1182.60</ele>
        <time>2016-10-29T08:30:11Z</time>
      </trkpt>
      <trkpt lat="42.345080000" lon="-2.619518000">
        <ele>1182.90</ele>
        <time>2016-10-29T08:30:12Z</time>
      </trkpt>
      <trkpt lat="42.345076000" lon="-2.619502000">
        <ele>1183.10</ele>
        <time>2016-10-29T08:30:13Z</time>
      </trkpt>
      <trkpt lat="42.345073000" lon="-2.619483000">
        <ele>1183.20</ele>
        <time>2016-10-29T08:30:14Z</time>
      </trkpt>
      <trkpt lat="42.345069000" lon="-2.619465000">
        <ele>1183.40</ele>
        <time>2016-10-29T08:30:15Z</time>
      </trkpt>
      <trkpt lat="42.345067000" lon="-2.619452000">
        <ele>1183.50</ele>
        <time>2016-10-29T08:30:16Z</time>
      </trkpt>
      <trkpt lat="42.345061000" lon="-2.619434000">
        <ele>1183.70</ele>
        <time>2016-10-29T08:30:17Z</time>
      </trkpt>
      <trkpt lat="42.345059000" lon="-2.619416000">
        <ele>1183.80</ele>
        <time>2016-10-29T08:30:18Z</time>
      </trkpt>
      <trkpt lat="42.345055000" lon="-2.619397000">
        <ele>1183.90</ele>
        <time>2016-10-29T08:30:19Z</time>
      </trkpt>
      <trkpt lat="42.345051000" lon="-2.619375000">
        <ele>1184.00</ele>
        <time>2016-10-29T08:30:20Z</time>
      </trkpt>
      <trkpt lat="42.345047000" lon="-2.619357000">
        <ele>1184.10</ele>
        <time>2016-10-29T08:30:21Z</time>
      </trkpt>
      <trkpt lat="42.345044000" lon="-2.619340000">
        <ele>1184.30</ele>
        <time>2016-10-29T08:30:22Z</time>
      </trkpt>
      <trkpt lat="42.345043000" lon="-2.619318000">
        <ele>1184.50</ele>
        <time>2016-10-29T08:30:23Z</time>
      </trkpt>
      <trkpt lat="42.345036000" lon="-2.619297000">
        <ele>1184.80</ele>
        <time>2016-10-29T08:30:24Z</time>
      </trkpt>
      <trkpt lat="42.345035000" lon="-2.619274000">
        <ele>1185.00</ele>
        <time>2016-10-29T08:30:25Z</time>
      </trkpt>
      <trkpt lat="42.345032000" lon="-2.619254000">
        <ele>1185.20</ele>
        <time>2016-10-29T08:30:26Z</time>
      </trkpt>
      <trkpt lat="42.345033000" lon="-2.619234000">
        <ele>1185.30</ele>
        <time>2016-10-29T08:30:27Z</time>
      </trkpt>
      <trkpt lat="42.345033000" lon="-2.619216000">
        <ele>1185.40</ele>
        <time>2016-10-29T08:30:28Z</time>
      </trkpt>
      <trkpt lat="42.345030000" lon="-2.619195000">
        <ele>1185.50</ele>
        <time>2016-10-29T08:30:29Z</time>
      </trkpt>
      <trkpt lat="42.345026000" lon="-2.619177000">
        <ele>1185.80</ele>
        <time>2016-10-29T08:30:30Z</time>
      </trkpt>
      <trkpt lat="42.345024000" lon="-2.619160000">
        <ele>1186.10</ele>
        <time>2016-10-29T08:30:31Z</time>
      </trkpt>
      <trkpt lat="42.345023000" lon="-2.619139000">
        <ele>1186.30</ele>
        <time>2016-10-29T08:30:32Z</time>
      </trkpt>
      <trkpt lat="42.345021000" lon="-2.619120000">
        <ele>1186.40</ele>
        <time>2016-10-29T08:30:33Z</time>
      </trkpt>
      <trkpt lat="42.345020000" lon="-2.619102000">
        <ele>1186.40</ele>
        <time>2016-10-29T08:30:34Z</time>
      </trkpt>
      <trkpt lat="42.345019000" lon="-2.619085000">
        <ele>1186.50</ele>
        <time>2016-10-29T08:30:35Z</time>
      </trkpt>
      <trkpt lat="42.345016000" lon="-2.619066000">
        <ele>1186.50</ele>
        <time>2016-10-29T08:30:36Z</time>
      </trkpt>
      <trkpt lat="42.345013000" lon="-2.619047000">
        <ele>1186.50</ele>
        <time>2016-10-29T08:30:37Z</time>
      </trkpt>
      <trkpt lat="42.345014000" lon="-2.619024000">
        <ele>1186.90</ele>
        <time>2016-10-29T08:30:38Z</time>
      </trkpt>
      <trkpt lat="42.345014000" lon="-2.619000000">
        <ele>1187.20</ele>
        <time>2016-10-29T08:30:39Z</time>
      </trkpt>
      <trkpt lat="42.345008000" lon="-2.618984000">
        <ele>1187.40</ele>
        <time>2016-10-29T08:30:40Z</time>
      </trkpt>
      <trkpt lat="42.345005000" lon="-2.618967000">
        <ele>1187.60</ele>
        <time>2016-10-29T08:30:41Z</time>
      </trkpt>
      <trkpt lat="42.345001000" lon="-2.618949000">
        <ele>1187.70</ele>
        <time>2016-10-29T08:30:42Z</time>
      </trkpt>
      <trkpt lat="42.344999000" lon="-2.618930000">
        <ele>1187.80</ele>
        <time>2016-10-29T08:30:43Z</time>
      </trkpt>
      <trkpt lat="42.344996000" lon="-2.618911000">
        <ele>1188.00</ele>
        <time>2016-10-29T08:30:44Z</time>
      </trkpt>
      <trkpt lat="42.344992000" lon="-2.618891000">
        <ele>1188.20</ele>
        <time>2016-10-29T08:30:45Z</time>
      </trkpt>
      <trkpt lat="42.344988000" lon="-2.618873000">
        <ele>1188.40</ele>
        <time>2016-10-29T08:30:46Z</time>
      </trkpt>
      <trkpt lat="42.344986000" lon="-2.618851000">
        <ele>1188.50</ele>
        <time>2016-10-29T08:30:47Z</time>
      </trkpt>
      <trkpt lat="42.344985000" lon="-2.618830000">
        <ele>1188.70</ele>
        <time>2016-10-29T08:30:48Z</time>
      </trkpt>
      <trkpt lat="42.344984000" lon="-2.618812000">
        <ele>1188.80</ele>
        <time>2016-10-29T08:30:49Z</time>
      </trkpt>
      <trkpt lat="42.344979000" lon="-2.618797000">
        <ele>1188.90</ele>
        <time>2016-10-29T08:30:50Z</time>
      </trkpt>
      <trkpt lat="42.344974000" lon="-2.618781000">
        <ele>1189.00</ele>
        <time>2016-10-29T08:30:51Z</time>
      </trkpt>
      <trkpt lat="42.344969000" lon="-2.618765000">
        <ele>1189.10</ele>
        <time>2016-10-29T08:30:52Z</time>
      </trkpt>
      <trkpt lat="42.344965000" lon="-2.618744000">
        <ele>1189.20</ele>
        <time>2016-10-29T08:30:53Z</time>
      </trkpt>
      <trkpt lat="42.344962000" lon="-2.618726000">
        <ele>1189.30</ele>
        <time>2016-10-29T08:30:54Z</time>
      </trkpt>
      <trkpt lat="42.344963000" lon="-2.618710000">
        <ele>1189.30</ele>
        <time>2016-10-29T08:30:55Z</time>
      </trkpt>
      <trkpt lat="42.344957000" lon="-2.618695000">
        <ele>1189.60</ele>
        <time>2016-10-29T08:30:56Z</time>
      </trkpt>
      <trkpt lat="42.344954000" lon="-2.618676000">
        <ele>1189.80</ele>
        <time>2016-10-29T08:30:57Z</time>
      </trkpt>
      <trkpt lat="42.344951000" lon="-2.618658000">
        <ele>1190.10</ele>
        <time>2016-10-29T08:30:58Z</time>
      </trkpt>
      <trkpt lat="42.344949000" lon="-2.618634000">
        <ele>1190.30</ele>
        <time>2016-10-29T08:30:59Z</time>
      </trkpt>
      <trkpt lat="42.344948000" lon="-2.618617000">
        <ele>1190.50</ele>
        <time>2016-10-29T08:31:00Z</time>
      </trkpt>
      <trkpt lat="42.344948000" lon="-2.618598000">
        <ele>1190.70</ele>
        <time>2016-10-29T08:31:01Z</time>
      </trkpt>
      <trkpt lat="42.344945000" lon="-2.618584000">
        <ele>1190.80</ele>
        <time>2016-10-29T08:31:02Z</time>
      </trkpt>
      <trkpt lat="42.344943000" lon="-2.618554000">
        <ele>1191.10</ele>
        <time>2016-10-29T08:31:04Z</time>
      </trkpt>
      <trkpt lat="42.344939000" lon="-2.618536000">
        <ele>1191.30</ele>
        <time>2016-10-29T08:31:05Z</time>
      </trkpt>
      <trkpt lat="42.344935000" lon="-2.618519000">
        <ele>1191.40</ele>
        <time>2016-10-29T08:31:06Z</time>
      </trkpt>
      <trkpt lat="42.344932000" lon="-2.618503000">
        <ele>1191.50</ele>
        <time>2016-10-29T08:31:07Z</time>
      </trkpt>
      <trkpt lat="42.344926000" lon="-2.618486000">
        <ele>1191.60</ele>
        <time>2016-10-29T08:31:08Z</time>
      </trkpt>
      <trkpt lat="42.344920000" lon="-2.618471000">
        <ele>1191.60</ele>
        <time>2016-10-29T08:31:09Z</time>
      </trkpt>
      <trkpt lat="42.344916000" lon="-2.618451000">
        <ele>1191.70</ele>
        <time>2016-10-29T08:31:10Z</time>
      </trkpt>
      <trkpt lat="42.344911000" lon="-2.618434000">
        <ele>1191.70</ele>
        <time>2016-10-29T08:31:11Z</time>
      </trkpt>
      <trkpt lat="42.344906000" lon="-2.618415000">
        <ele>1192.00</ele>
        <time>2016-10-29T08:31:12Z</time>
      </trkpt>
      <trkpt lat="42.344899000" lon="-2.618397000">
        <ele>1192.20</ele>
        <time>2016-10-29T08:31:13Z</time>
      </trkpt>
      <trkpt lat="42.344894000" lon="-2.618377000">
        <ele>1192.40</ele>
        <time>2016-10-29T08:31:14Z</time>
      </trkpt>
      <trkpt lat="42.344884000" lon="-2.618362000">
        <ele>1192.50</ele>
        <time>2016-10-29T08:31:15Z</time>
      </trkpt>
      <trkpt lat="42.344874000" lon="-2.618348000">
        <ele>1192.70</ele>
        <time>2016-10-29T08:31:16Z</time>
      </trkpt>
      <trkpt lat="42.344870000" lon="-2.618328000">
        <ele>1192.90</ele>
        <time>2016-10-29T08:31:17Z</time>
      </trkpt>
      <trkpt lat="42.344864000" lon="-2.618311000">
        <ele>1193.10</ele>
        <time>2016-10-29T08:31:18Z</time>
      </trkpt>
      <trkpt lat="42.344863000" lon="-2.618292000">
        <ele>1193.30</ele>
        <time>2016-10-29T08:31:19Z</time>
      </trkpt>
      <trkpt lat="42.344862000" lon="-2.618274000">
        <ele>1193.40</ele>
        <time>2016-10-29T08:31:20Z</time>
      </trkpt>
      <trkpt lat="42.344858000" lon="-2.618260000">
        <ele>1193.60</ele>
        <time>2016-10-29T08:31:21Z</time>
      </trkpt>
      <trkpt lat="42.344852000" lon="-2.618242000">
        <ele>1193.70</ele>
        <time>2016-10-29T08:31:22Z</time>
      </trkpt>
      <trkpt lat="42.344842000" lon="-2.618225000">
        <ele>1193.90</ele>
        <time>2016-10-29T08:31:23Z</time>
      </trkpt>
      <trkpt lat="42.344832000" lon="-2.618211000">
        <ele>1194.00</ele>
        <time>2016-10-29T08:31:24Z</time>
      </trkpt>
      <trkpt lat="42.344827000" lon="-2.618192000">
        <ele>1194.20</ele>
        <time>2016-10-29T08:31:25Z</time>
      </trkpt>
      <trkpt lat="42.344823000" lon="-2.618171000">
        <ele>1194.40</ele>
        <time>2016-10-29T08:31:26Z</time>
      </trkpt>
      <trkpt lat="42.344821000" lon="-2.618154000">
        <ele>1194.60</ele>
        <time>2016-10-29T08:31:27Z</time>
      </trkpt>
      <trkpt lat="42.344822000" lon="-2.618134000">
        <ele>1194.90</ele>
        <time>2016-10-29T08:31:28Z</time>
      </trkpt>
      <trkpt lat="42.344817000" lon="-2.618116000">
        <ele>1195.00</ele>
        <time>2016-10-29T08:31:29Z</time>
      </trkpt>
      <trkpt lat="42.344814000" lon="-2.618097000">
        <ele>1195.10</ele>
        <time>2016-10-29T08:31:30Z</time>
      </trkpt>
      <trkpt lat="42.344810000" lon="-2.618079000">
        <ele>1195.20</ele>
        <time>2016-10-29T08:31:31Z</time>
      </trkpt>
      <trkpt lat="42.344804000" lon="-2.618063000">
        <ele>1195.30</ele>
        <time>2016-10-29T08:31:32Z</time>
      </trkpt>
      <trkpt lat="42.344802000" lon="-2.618044000">
        <ele>1195.30</ele>
        <time>2016-10-29T08:31:33Z</time>
      </trkpt>
      <trkpt lat="42.344795000" lon="-2.618027000">
        <ele>1195.70</ele>
        <time>2016-10-29T08:31:34Z</time>
      </trkpt>
      <trkpt lat="42.344791000" lon="-2.618011000">
        <ele>1195.90</ele>
        <time>2016-10-29T08:31:35Z</time>
      </trkpt>
      <trkpt lat="42.344788000" lon="-2.617991000">
        <ele>1196.20</ele>
        <time>2016-10-29T08:31:36Z</time>
      </trkpt>
      <trkpt lat="42.344780000" lon="-2.617977000">
        <ele>1196.40</ele>
        <time>2016-10-29T08:31:37Z</time>
      </trkpt>
      <trkpt lat="42.344774000" lon="-2.617963000">
        <ele>1196.60</ele>
        <time>2016-10-29T08:31:38Z</time>
      </trkpt>
      <trkpt lat="42.344768000" lon="-2.617942000">
        <ele>1196.70</ele>
        <time>2016-10-29T08:31:39Z</time>
      </trkpt>
      <trkpt lat="42.344760000" lon="-2.617925000">
        <ele>1196.80</ele>
        <time>2016-10-29T08:31:40Z</time>
      </trkpt>
      <trkpt lat="42.344751000" lon="-2.617911000">
        <ele>1196.80</ele>
        <time>2016-10-29T08:31:41Z</time>
      </trkpt>
      <trkpt lat="42.344743000" lon="-2.617895000">
        <ele>1197.00</ele>
        <time>2016-10-29T08:31:42Z</time>
      </trkpt>
      <trkpt lat="42.344735000" lon="-2.617883000">
        <ele>1197.10</ele>
        <time>2016-10-29T08:31:43Z</time>
      </trkpt>
      <trkpt lat="42.344730000" lon="-2.617865000">
        <ele>1197.20</ele>
        <time>2016-10-29T08:31:44Z</time>
      </trkpt>
      <trkpt lat="42.344723000" lon="-2.617845000">
        <ele>1197.30</ele>
        <time>2016-10-29T08:31:45Z</time>
      </trkpt>
      <trkpt lat="42.344715000" lon="-2.617830000">
        <ele>1197.20</ele>
        <time>2016-10-29T08:31:46Z</time>
      </trkpt>
      <trkpt lat="42.344709000" lon="-2.617814000">
        <ele>1197.20</ele>
        <time>2016-10-29T08:31:47Z</time>
      </trkpt>
      <trkpt lat="42.344704000" lon="-2.617800000">
        <ele>1197.20</ele>
        <time>2016-10-29T08:31:48Z</time>
      </trkpt>
      <trkpt lat="42.344697000" lon="-2.617783000">
        <ele>1197.20</ele>
        <time>2016-10-29T08:31:49Z</time>
      </trkpt>
      <trkpt lat="42.344693000" lon="-2.617769000">
        <ele>1197.20</ele>
        <time>2016-10-29T08:31:50Z</time>
      </trkpt>
      <trkpt lat="42.344685000" lon="-2.617753000">
        <ele>1197.20</ele>
        <time>2016-10-29T08:31:51Z</time>
      </trkpt>
      <trkpt lat="42.344678000" lon="-2.617733000">
        <ele>1197.50</ele>
        <time>2016-10-29T08:31:52Z</time>
      </trkpt>
      <trkpt lat="42.344671000" lon="-2.617713000">
        <ele>1197.60</ele>
        <time>2016-10-29T08:31:53Z</time>
      </trkpt>
      <trkpt lat="42.344667000" lon="-2.617701000">
        <ele>1197.80</ele>
        <time>2016-10-29T08:31:54Z</time>
      </trkpt>
      <trkpt lat="42.344663000" lon="-2.617686000">
        <ele>1197.90</ele>
        <time>2016-10-29T08:31:55Z</time>
      </trkpt>
      <trkpt lat="42.344654000" lon="-2.617670000">
        <ele>1198.10</ele>
        <time>2016-10-29T08:31:56Z</time>
      </trkpt>
      <trkpt lat="42.344650000" lon="-2.617653000">
        <ele>1198.30</ele>
        <time>2016-10-29T08:31:57Z</time>
      </trkpt>
      <trkpt lat="42.344642000" lon="-2.617635000">
        <ele>1198.40</ele>
        <time>2016-10-29T08:31:58Z</time>
      </trkpt>
      <trkpt lat="42.344636000" lon="-2.617618000">
        <ele>1198.50</ele>
        <time>2016-10-29T08:31:59Z</time>
      </trkpt>
      <trkpt lat="42.344629000" lon="-2.617601000">
        <ele>1198.70</ele>
        <time>2016-10-29T08:32:00Z</time>
      </trkpt>
      <trkpt lat="42.344618000" lon="-2.617584000">
        <ele>1198.80</ele>
        <time>2016-10-29T08:32:01Z</time>
      </trkpt>
      <trkpt lat="42.344607000" lon="-2.617571000">
        <ele>1199.10</ele>
        <time>2016-10-29T08:32:02Z</time>
      </trkpt>
      <trkpt lat="42.344597000" lon="-2.617558000">
        <ele>1199.30</ele>
        <time>2016-10-29T08:32:03Z</time>
      </trkpt>
      <trkpt lat="42.344590000" lon="-2.617539000">
        <ele>1199.40</ele>
        <time>2016-10-29T08:32:04Z</time>
      </trkpt>
      <trkpt lat="42.344571000" lon="-2.617502000">
        <ele>1199.90</ele>
        <time>2016-10-29T08:32:06Z</time>
      </trkpt>
      <trkpt lat="42.344560000" lon="-2.617486000">
        <ele>1200.20</ele>
        <time>2016-10-29T08:32:07Z</time>
      </trkpt>
      <trkpt lat="42.344550000" lon="-2.617472000">
        <ele>1200.30</ele>
        <time>2016-10-29T08:32:08Z</time>
      </trkpt>
      <trkpt lat="42.344541000" lon="-2.617459000">
        <ele>1200.40</ele>
        <time>2016-10-29T08:32:09Z</time>
      </trkpt>
      <trkpt lat="42.344532000" lon="-2.617447000">
        <ele>1200.50</ele>
        <time>2016-10-29T08:32:10Z</time>
      </trkpt>
      <trkpt lat="42.344525000" lon="-2.617432000">
        <ele>1200.50</ele>
        <time>2016-10-29T08:32:11Z</time>
      </trkpt>
      <trkpt lat="42.344519000" lon="-2.617420000">
        <ele>1200.60</ele>
        <time>2016-10-29T08:32:12Z</time>
      </trkpt>
      <trkpt lat="42.344510000" lon="-2.617406000">
        <ele>1200.60</ele>
        <time>2016-10-29T08:32:13Z</time>
      </trkpt>
      <trkpt lat="42.344503000" lon="-2.617389000">
        <ele>1200.70</ele>
        <time>2016-10-29T08:32:14Z</time>
      </trkpt>
      <trkpt lat="42.344496000" lon="-2.617374000">
        <ele>1200.70</ele>
        <time>2016-10-29T08:32:15Z</time>
      </trkpt>
      <trkpt lat="42.344486000" lon="-2.617360000">
        <ele>1200.90</ele>
        <time>2016-10-29T08:32:16Z</time>
      </trkpt>
      <trkpt lat="42.344475000" lon="-2.617343000">
        <ele>1201.10</ele>
        <time>2016-10-29T08:32:17Z</time>
      </trkpt>
      <trkpt lat="42.344467000" lon="-2.617335000">
        <ele>1201.20</ele>
        <time>2016-10-29T08:32:18Z</time>
      </trkpt>
      <trkpt lat="42.344459000" lon="-2.617325000">
        <ele>1201.30</ele>
        <time>2016-10-29T08:32:19Z</time>
      </trkpt>
      <trkpt lat="42.344448000" lon="-2.617309000">
        <ele>1201.40</ele>
        <time>2016-10-29T08:32:20Z</time>
      </trkpt>
      <trkpt lat="42.344435000" lon="-2.617299000">
        <ele>1201.50</ele>
        <time>2016-10-29T08:32:21Z</time>
      </trkpt>
      <trkpt lat="42.344421000" lon="-2.617289000">
        <ele>1201.60</ele>
        <time>2016-10-29T08:32:22Z</time>
      </trkpt>
      <trkpt lat="42.344409000" lon="-2.617276000">
        <ele>1201.70</ele>
        <time>2016-10-29T08:32:23Z</time>
      </trkpt>
      <trkpt lat="42.344401000" lon="-2.617260000">
        <ele>1201.70</ele>
        <time>2016-10-29T08:32:24Z</time>
      </trkpt>
      <trkpt lat="42.344391000" lon="-2.617245000">
        <ele>1201.80</ele>
        <time>2016-10-29T08:32:25Z</time>
      </trkpt>
      <trkpt lat="42.344382000" lon="-2.617228000">
        <ele>1201.90</ele>
        <time>2016-10-29T08:32:26Z</time>
      </trkpt>
      <trkpt lat="42.344373000" lon="-2.617214000">
        <ele>1202.10</ele>
        <time>2016-10-29T08:32:27Z</time>
      </trkpt>
      <trkpt lat="42.344362000" lon="-2.617201000">
        <ele>1202.20</ele>
        <time>2016-10-29T08:32:28Z</time>
      </trkpt>
      <trkpt lat="42.344351000" lon="-2.617186000">
        <ele>1202.30</ele>
        <time>2016-10-29T08:32:29Z</time>
      </trkpt>
      <trkpt lat="42.344342000" lon="-2.617169000">
        <ele>1202.40</ele>
        <time>2016-10-29T08:32:30Z</time>
      </trkpt>
      <trkpt lat="42.344335000" lon="-2.617157000">
        <ele>1202.50</ele>
        <time>2016-10-29T08:32:31Z</time>
      </trkpt>
      <trkpt lat="42.344326000" lon="-2.617143000">
        <ele>1202.90</ele>
        <time>2016-10-29T08:32:32Z</time>
      </trkpt>
      <trkpt lat="42.344314000" lon="-2.617131000">
        <ele>1203.20</ele>
        <time>2016-10-29T08:32:33Z</time>
      </trkpt>
      <trkpt lat="42.344304000" lon="-2.617121000">
        <ele>1203.50</ele>
        <time>2016-10-29T08:32:34Z</time>
      </trkpt>
      <trkpt lat="42.344290000" lon="-2.617116000">
        <ele>1203.70</ele>
        <time>2016-10-29T08:32:35Z</time>
      </trkpt>
      <trkpt lat="42.344279000" lon="-2.617104000">
        <ele>1203.80</ele>
        <time>2016-10-29T08:32:36Z</time>
      </trkpt>
      <trkpt lat="42.344269000" lon="-2.617087000">
        <ele>1203.90</ele>
        <time>2016-10-29T08:32:37Z</time>
      </trkpt>
      <trkpt lat="42.344255000" lon="-2.617072000">
        <ele>1204.00</ele>
        <time>2016-10-29T08:32:38Z</time>
      </trkpt>
      <trkpt lat="42.344240000" lon="-2.617058000">
        <ele>1204.00</ele>
        <time>2016-10-29T08:32:39Z</time>
      </trkpt>
      <trkpt lat="42.344227000" lon="-2.617044000">
        <ele>1204.00</ele>
        <time>2016-10-29T08:32:40Z</time>
      </trkpt>
      <trkpt lat="42.344213000" lon="-2.617027000">
        <ele>1204.10</ele>
        <time>2016-10-29T08:32:41Z</time>
      </trkpt>
      <trkpt lat="42.344200000" lon="-2.617012000">
        <ele>1204.10</ele>
        <time>2016-10-29T08:32:42Z</time>
      </trkpt>
      <trkpt lat="42.344187000" lon="-2.616998000">
        <ele>1204.10</ele>
        <time>2016-10-29T08:32:43Z</time>
      </trkpt>
      <trkpt lat="42.344174000" lon="-2.616982000">
        <ele>1204.20</ele>
        <time>2016-10-29T08:32:44Z</time>
      </trkpt>
      <trkpt lat="42.344159000" lon="-2.616965000">
        <ele>1204.30</ele>
        <time>2016-10-29T08:32:45Z</time>
      </trkpt>
      <trkpt lat="42.344142000" lon="-2.616948000">
        <ele>1204.40</ele>
        <time>2016-10-29T08:32:46Z</time>
      </trkpt>
      <trkpt lat="42.344128000" lon="-2.616930000">
        <ele>1204.50</ele>
        <time>2016-10-29T08:32:47Z</time>
      </trkpt>
      <trkpt lat="42.344112000" lon="-2.616912000">
        <ele>1204.50</ele>
        <time>2016-10-29T08:32:48Z</time>
      </trkpt>
      <trkpt lat="42.344096000" lon="-2.616896000">
        <ele>1204.60</ele>
        <time>2016-10-29T08:32:49Z</time>
      </trkpt>
      <trkpt lat="42.344082000" lon="-2.616877000">
        <ele>1204.60</ele>
        <time>2016-10-29T08:32:50Z</time>
      </trkpt>
      <trkpt lat="42.344067000" lon="-2.616863000">
        <ele>1204.60</ele>
        <time>2016-10-29T08:32:51Z</time>
      </trkpt>
      <trkpt lat="42.344053000" lon="-2.616847000">
        <ele>1204.60</ele>
        <time>2016-10-29T08:32:52Z</time>
      </trkpt>
      <trkpt lat="42.344037000" lon="-2.616831000">
        <ele>1204.50</ele>
        <time>2016-10-29T08:32:53Z</time>
      </trkpt>
      <trkpt lat="42.344023000" lon="-2.616821000">
        <ele>1204.50</ele>
        <time>2016-10-29T08:32:54Z</time>
      </trkpt>
      <trkpt lat="42.344005000" lon="-2.616811000">
        <ele>1204.50</ele>
        <time>2016-10-29T08:32:55Z</time>
      </trkpt>
      <trkpt lat="42.343990000" lon="-2.616792000">
        <ele>1204.60</ele>
        <time>2016-10-29T08:32:56Z</time>
      </trkpt>
      <trkpt lat="42.343974000" lon="-2.616777000">
        <ele>1204.70</ele>
        <time>2016-10-29T08:32:57Z</time>
      </trkpt>
      <trkpt lat="42.343960000" lon="-2.616760000">
        <ele>1204.90</ele>
        <time>2016-10-29T08:32:58Z</time>
      </trkpt>
      <trkpt lat="42.343945000" lon="-2.616736000">
        <ele>1205.00</ele>
        <time>2016-10-29T08:32:59Z</time>
      </trkpt>
      <trkpt lat="42.343929000" lon="-2.616711000">
        <ele>1205.20</ele>
        <time>2016-10-29T08:33:00Z</time>
      </trkpt>
      <trkpt lat="42.343918000" lon="-2.616683000">
        <ele>1205.30</ele>
        <time>2016-10-29T08:33:01Z</time>
      </trkpt>
      <trkpt lat="42.343910000" lon="-2.616653000">
        <ele>1205.50</ele>
        <time>2016-10-29T08:33:02Z</time>
      </trkpt>
      <trkpt lat="42.343913000" lon="-2.616623000">
        <ele>1205.60</ele>
        <time>2016-10-29T08:33:03Z</time>
      </trkpt>
      <trkpt lat="42.343930000" lon="-2.616592000">
        <ele>1205.70</ele>
        <time>2016-10-29T08:33:04Z</time>
      </trkpt>
      <trkpt lat="42.343951000" lon="-2.616567000">
        <ele>1205.70</ele>
        <time>2016-10-29T08:33:05Z</time>
      </trkpt>
      <trkpt lat="42.343996000" lon="-2.616534000">
        <ele>1205.70</ele>
        <time>2016-10-29T08:33:07Z</time>
      </trkpt>
      <trkpt lat="42.344022000" lon="-2.616524000">
        <ele>1205.70</ele>
        <time>2016-10-29T08:33:08Z</time>
      </trkpt>
      <trkpt lat="42.344048000" lon="-2.616510000">
        <ele>1205.70</ele>
        <time>2016-10-29T08:33:09Z</time>
      </trkpt>
      <trkpt lat="42.344076000" lon="-2.616501000">
        <ele>1205.60</ele>
        <time>2016-10-29T08:33:10Z</time>
      </trkpt>
      <trkpt lat="42.344108000" lon="-2.616496000">
        <ele>1205.60</ele>
        <time>2016-10-29T08:33:11Z</time>
      </trkpt>
      <trkpt lat="42.344141000" lon="-2.616478000">
        <ele>1205.50</ele>
        <time>2016-10-29T08:33:12Z</time>
      </trkpt>
      <trkpt lat="42.344170000" lon="-2.616460000">
        <ele>1205.50</ele>
        <time>2016-10-29T08:33:13Z</time>
      </trkpt>
      <trkpt lat="42.344201000" lon="-2.616438000">
        <ele>1205.30</ele>
        <time>2016-10-29T08:33:14Z</time>
      </trkpt>
      <trkpt lat="42.344230000" lon="-2.616422000">
        <ele>1205.10</ele>
        <time>2016-10-29T08:33:15Z</time>
      </trkpt>
      <trkpt lat="42.344260000" lon="-2.616405000">
        <ele>1205.00</ele>
        <time>2016-10-29T08:33:16Z</time>
      </trkpt>
      <trkpt lat="42.344288000" lon="-2.616392000">
        <ele>1204.90</ele>
        <time>2016-10-29T08:33:17Z</time>
      </trkpt>
      <trkpt lat="42.344317000" lon="-2.616374000">
        <ele>1205.10</ele>
        <time>2016-10-29T08:33:18Z</time>
      </trkpt>
      <trkpt lat="42.344349000" lon="-2.616361000">
        <ele>1205.30</ele>
        <time>2016-10-29T08:33:19Z</time>
      </trkpt>
      <trkpt lat="42.344378000" lon="-2.616344000">
        <ele>1205.50</ele>
        <time>2016-10-29T08:33:20Z</time>
      </trkpt>
      <trkpt lat="42.344407000" lon="-2.616327000">
        <ele>1205.60</ele>
        <time>2016-10-29T08:33:21Z</time>
      </trkpt>
      <trkpt lat="42.344438000" lon="-2.616312000">
        <ele>1205.90</ele>
        <time>2016-10-29T08:33:22Z</time>
      </trkpt>
      <trkpt lat="42.344466000" lon="-2.616296000">
        <ele>1206.10</ele>
        <time>2016-10-29T08:33:23Z</time>
      </trkpt>
      <trkpt lat="42.344494000" lon="-2.616281000">
        <ele>1206.40</ele>
        <time>2016-10-29T08:33:24Z</time>
      </trkpt>
      <trkpt lat="42.344524000" lon="-2.616264000">
        <ele>1206.60</ele>
        <time>2016-10-29T08:33:25Z</time>
      </trkpt>
      <trkpt lat="42.344553000" lon="-2.616252000">
        <ele>1206.90</ele>
        <time>2016-10-29T08:33:26Z</time>
      </trkpt>
      <trkpt lat="42.344584000" lon="-2.616236000">
        <ele>1207.10</ele>
        <time>2016-10-29T08:33:27Z</time>
      </trkpt>
      <trkpt lat="42.344612000" lon="-2.616223000">
        <ele>1207.20</ele>
        <time>2016-10-29T08:33:28Z</time>
      </trkpt>
      <trkpt lat="42.344643000" lon="-2.616205000">
        <ele>1207.40</ele>
        <time>2016-10-29T08:33:29Z</time>
      </trkpt>
      <trkpt lat="42.344674000" lon="-2.616187000">
        <ele>1207.60</ele>
        <time>2016-10-29T08:33:30Z</time>
      </trkpt>
      <trkpt lat="42.344702000" lon="-2.616172000">
        <ele>1207.70</ele>
        <time>2016-10-29T08:33:31Z</time>
      </trkpt>
      <trkpt lat="42.344735000" lon="-2.616160000">
        <ele>1207.80</ele>
        <time>2016-10-29T08:33:32Z</time>
      </trkpt>
      <trkpt lat="42.344767000" lon="-2.616146000">
        <ele>1207.90</ele>
        <time>2016-10-29T08:33:33Z</time>
      </trkpt>
      <trkpt lat="42.344801000" lon="-2.616129000">
        <ele>1208.00</ele>
        <time>2016-10-29T08:33:34Z</time>
      </trkpt>
      <trkpt lat="42.344835000" lon="-2.616113000">
        <ele>1208.00</ele>
        <time>2016-10-29T08:33:35Z</time>
      </trkpt>
      <trkpt lat="42.344864000" lon="-2.616096000">
        <ele>1208.20</ele>
        <time>2016-10-29T08:33:36Z</time>
      </trkpt>
      <trkpt lat="42.344893000" lon="-2.616076000">
        <ele>1208.20</ele>
        <time>2016-10-29T08:33:37Z</time>
      </trkpt>
      <trkpt lat="42.344922000" lon="-2.616060000">
        <ele>1208.20</ele>
        <time>2016-10-29T08:33:38Z</time>
      </trkpt>
      <trkpt lat="42.344949000" lon="-2.616048000">
        <ele>1208.20</ele>
        <time>2016-10-29T08:33:39Z</time>
      </trkpt>
      <trkpt lat="42.344972000" lon="-2.616040000">
        <ele>1208.20</ele>
        <time>2016-10-29T08:33:40Z</time>
      </trkpt>
      <trkpt lat="42.344988000" lon="-2.616027000">
        <ele>1208.20</ele>
        <time>2016-10-29T08:33:41Z</time>
      </trkpt>
      <trkpt lat="42.344996000" lon="-2.616015000">
        <ele>1208.20</ele>
        <time>2016-10-29T08:33:42Z</time>
      </trkpt>
      <trkpt lat="42.345002000" lon="-2.616009000">
        <ele>1208.10</ele>
        <time>2016-10-29T08:33:43Z</time>
      </trkpt>
      <trkpt lat="42.345016000" lon="-2.616002000">
        <ele>1208.10</ele>
        <time>2016-10-29T08:33:44Z</time>
      </trkpt>
      <trkpt lat="42.345038000" lon="-2.615987000">
        <ele>1208.00</ele>
        <time>2016-10-29T08:33:45Z</time>
      </trkpt>
      <trkpt lat="42.345063000" lon="-2.615971000">
        <ele>1208.00</ele>
        <time>2016-10-29T08:33:46Z</time>
      </trkpt>
      <trkpt lat="42.345090000" lon="-2.615953000">
        <ele>1208.00</ele>
        <time>2016-10-29T08:33:47Z</time>
      </trkpt>
      <trkpt lat="42.345118000" lon="-2.615934000">
        <ele>1208.20</ele>
        <time>2016-10-29T08:33:48Z</time>
      </trkpt>
      <trkpt lat="42.345145000" lon="-2.615910000">
        <ele>1208.40</ele>
        <time>2016-10-29T08:33:49Z</time>
      </trkpt>
      <trkpt lat="42.345173000" lon="-2.615884000">
        <ele>1208.50</ele>
        <time>2016-10-29T08:33:50Z</time>
      </trkpt>
      <trkpt lat="42.345200000" lon="-2.615854000">
        <ele>1208.70</ele>
        <time>2016-10-29T08:33:51Z</time>
      </trkpt>
      <trkpt lat="42.345226000" lon="-2.615822000">
        <ele>1208.80</ele>
        <time>2016-10-29T08:33:52Z</time>
      </trkpt>
      <trkpt lat="42.345251000" lon="-2.615788000">
        <ele>1208.90</ele>
        <time>2016-10-29T08:33:53Z</time>
      </trkpt>
      <trkpt lat="42.345277000" lon="-2.615752000">
        <ele>1209.00</ele>
        <time>2016-10-29T08:33:54Z</time>
      </trkpt>
      <trkpt lat="42.345304000" lon="-2.615713000">
        <ele>1209.10</ele>
        <time>2016-10-29T08:33:55Z</time>
      </trkpt>
      <trkpt lat="42.345333000" lon="-2.615671000">
        <ele>1209.00</ele>
        <time>2016-10-29T08:33:56Z</time>
      </trkpt>
      <trkpt lat="42.345364000" lon="-2.615630000">
        <ele>1209.00</ele>
        <time>2016-10-29T08:33:57Z</time>
      </trkpt>
      <trkpt lat="42.345394000" lon="-2.615585000">
        <ele>1208.90</ele>
        <time>2016-10-29T08:33:58Z</time>
      </trkpt>
      <trkpt lat="42.345421000" lon="-2.615541000">
        <ele>1208.80</ele>
        <time>2016-10-29T08:33:59Z</time>
      </trkpt>
      <trkpt lat="42.345448000" lon="-2.615497000">
        <ele>1208.70</ele>
        <time>2016-10-29T08:34:00Z</time>
      </trkpt>
      <trkpt lat="42.345475000" lon="-2.615451000">
        <ele>1208.60</ele>
        <time>2016-10-29T08:34:01Z</time>
      </trkpt>
      <trkpt lat="42.345501000" lon="-2.615406000">
        <ele>1208.60</ele>
        <time>2016-10-29T08:34:02Z</time>
      </trkpt>
      <trkpt lat="42.345529000" lon="-2.615361000">
        <ele>1208.50</ele>
        <time>2016-10-29T08:34:03Z</time>
      </trkpt>
      <trkpt lat="42.345553000" lon="-2.615311000">
        <ele>1208.50</ele>
        <time>2016-10-29T08:34:04Z</time>
      </trkpt>
      <trkpt lat="42.345579000" lon="-2.615262000">
        <ele>1208.50</ele>
        <time>2016-10-29T08:34:05Z</time>
      </trkpt>
      <trkpt lat="42.345604000" lon="-2.615216000">
        <ele>1208.50</ele>
        <time>2016-10-29T08:34:06Z</time>
      </trkpt>
      <trkpt lat="42.345655000" lon="-2.615126000">
        <ele>1208.70</ele>
        <time>2016-10-29T08:34:08Z</time>
      </trkpt>
      <trkpt lat="42.345680000" lon="-2.615081000">
        <ele>1208.70</ele>
        <time>2016-10-29T08:34:09Z</time>
      </trkpt>
      <trkpt lat="42.345702000" lon="-2.615037000">
        <ele>1208.80</ele>
        <time>2016-10-29T08:34:10Z</time>
      </trkpt>
      <trkpt lat="42.345727000" lon="-2.614993000">
        <ele>1208.90</ele>
        <time>2016-10-29T08:34:11Z</time>
      </trkpt>
      <trkpt lat="42.345749000" lon="-2.614943000">
        <ele>1209.00</ele>
        <time>2016-10-29T08:34:12Z</time>
      </trkpt>
      <trkpt lat="42.345769000" lon="-2.614891000">
        <ele>1209.10</ele>
        <time>2016-10-29T08:34:13Z</time>
      </trkpt>
      <trkpt lat="42.345785000" lon="-2.614838000">
        <ele>1209.10</ele>
        <time>2016-10-29T08:34:14Z</time>
      </trkpt>
      <trkpt lat="42.345801000" lon="-2.614785000">
        <ele>1209.20</ele>
        <time>2016-10-29T08:34:15Z</time>
      </trkpt>
      <trkpt lat="42.345810000" lon="-2.614728000">
        <ele>1209.40</ele>
        <time>2016-10-29T08:34:16Z</time>
      </trkpt>
      <trkpt lat="42.345810000" lon="-2.614673000">
        <ele>1209.50</ele>
        <time>2016-10-29T08:34:17Z</time>
      </trkpt>
      <trkpt lat="42.345807000" lon="-2.614618000">
        <ele>1209.60</ele>
        <time>2016-10-29T08:34:18Z</time>
      </trkpt>
      <trkpt lat="42.345799000" lon="-2.614562000">
        <ele>1209.70</ele>
        <time>2016-10-29T08:34:19Z</time>
      </trkpt>
      <trkpt lat="42.345790000" lon="-2.614506000">
        <ele>1209.70</ele>
        <time>2016-10-29T08:34:20Z</time>
      </trkpt>
      <trkpt lat="42.345776000" lon="-2.614454000">
        <ele>1209.70</ele>
        <time>2016-10-29T08:34:21Z</time>
      </trkpt>
      <trkpt lat="42.345762000" lon="-2.614405000">
        <ele>1209.60</ele>
        <time>2016-10-29T08:34:22Z</time>
      </trkpt>
      <trkpt lat="42.345749000" lon="-2.614359000">
        <ele>1209.60</ele>
        <time>2016-10-29T08:34:23Z</time>
      </trkpt>
      <trkpt lat="42.345734000" lon="-2.614316000">
        <ele>1209.50</ele>
        <time>2016-10-29T08:34:24Z</time>
      </trkpt>
      <trkpt lat="42.345721000" lon="-2.614271000">
        <ele>1209.50</ele>
        <time>2016-10-29T08:34:25Z</time>
      </trkpt>
      <trkpt lat="42.345710000" lon="-2.614223000">
        <ele>1209.50</ele>
        <time>2016-10-29T08:34:26Z</time>
      </trkpt>
      <trkpt lat="42.345694000" lon="-2.614178000">
        <ele>1209.50</ele>
        <time>2016-10-29T08:34:27Z</time>
      </trkpt>
      <trkpt lat="42.345680000" lon="-2.614134000">
        <ele>1209.40</ele>
        <time>2016-10-29T08:34:28Z</time>
      </trkpt>
      <trkpt lat="42.345668000" lon="-2.614090000">
        <ele>1209.40</ele>
        <time>2016-10-29T08:34:29Z</time>
      </trkpt>
      <trkpt lat="42.345658000" lon="-2.614046000">
        <ele>1209.40</ele>
        <time>2016-10-29T08:34:30Z</time>
      </trkpt>
      <trkpt lat="42.345649000" lon="-2.614003000">
        <ele>1209.30</ele>
        <time>2016-10-29T08:34:31Z</time>
      </trkpt>
      <trkpt lat="42.345638000" lon="-2.613965000">
        <ele>1209.30</ele>
        <time>2016-10-29T08:34:32Z</time>
      </trkpt>
      <trkpt lat="42.345631000" lon="-2.613924000">
        <ele>1209.20</ele>
        <time>2016-10-29T08:34:33Z</time>
      </trkpt>
      <trkpt lat="42.345619000" lon="-2.613888000">
        <ele>1209.50</ele>
        <time>2016-10-29T08:34:34Z</time>
      </trkpt>
      <trkpt lat="42.345611000" lon="-2.613854000">
        <ele>1209.70</ele>
        <time>2016-10-29T08:34:35Z</time>
      </trkpt>
      <trkpt lat="42.345607000" lon="-2.613815000">
        <ele>1209.80</ele>
        <time>2016-10-29T08:34:36Z</time>
      </trkpt>
      <trkpt lat="42.345604000" lon="-2.613789000">
        <ele>1209.90</ele>
        <time>2016-10-29T08:34:37Z</time>
      </trkpt>
      <trkpt lat="42.345604000" lon="-2.613765000">
        <ele>1210.00</ele>
        <time>2016-10-29T08:34:38Z</time>
      </trkpt>
      <trkpt lat="42.345603000" lon="-2.613745000">
        <ele>1210.10</ele>
        <time>2016-10-29T08:34:39Z</time>
      </trkpt>
      <trkpt lat="42.345600000" lon="-2.613724000">
        <ele>1210.00</ele>
        <time>2016-10-29T08:34:40Z</time>
      </trkpt>
      <trkpt lat="42.345600000" lon="-2.613704000">
        <ele>1209.90</ele>
        <time>2016-10-29T08:34:41Z</time>
      </trkpt>
      <trkpt lat="42.345600000" lon="-2.613688000">
        <ele>1209.80</ele>
        <time>2016-10-29T08:34:42Z</time>
      </trkpt>
      <trkpt lat="42.345596000" lon="-2.613669000">
        <ele>1209.80</ele>
        <time>2016-10-29T08:34:43Z</time>
      </trkpt>
      <trkpt lat="42.345599000" lon="-2.613660000">
        <ele>1209.80</ele>
        <time>2016-10-29T08:34:44Z</time>
      </trkpt>
      <trkpt lat="42.345594000" lon="-2.613654000">
        <ele>1209.70</ele>
        <time>2016-10-29T08:34:45Z</time>
      </trkpt>
      <trkpt lat="42.345592000" lon="-2.613642000">
        <ele>1209.70</ele>
        <time>2016-10-29T08:34:46Z</time>
      </trkpt>
      <trkpt lat="42.345589000" lon="-2.613644000">
        <ele>1209.70</ele>
        <time>2016-10-29T08:34:47Z</time>
      </trkpt>
      <trkpt lat="42.345588000" lon="-2.613642000">
        <ele>1209.70</ele>
        <time>2016-10-29T08:34:48Z</time>
      </trkpt>
      <trkpt lat="42.345587000" lon="-2.613643000">
        <ele>1209.70</ele>
        <time>2016-10-29T08:34:49Z</time>
      </trkpt>
      <trkpt lat="42.345584000" lon="-2.613643000">
        <ele>1209.60</ele>
        <time>2016-10-29T08:34:50Z</time>
      </trkpt>
      <trkpt lat="42.345583000" lon="-2.613648000">
        <ele>1209.60</ele>
        <time>2016-10-29T08:34:51Z</time>
      </trkpt>
      <trkpt lat="42.345583000" lon="-2.613652000">
        <ele>1209.70</ele>
        <time>2016-10-29T08:34:52Z</time>
      </trkpt>
      <trkpt lat="42.345581000" lon="-2.613655000">
        <ele>1209.70</ele>
        <time>2016-10-29T08:34:53Z</time>
      </trkpt>
      <trkpt lat="42.345577000" lon="-2.613658000">
        <ele>1209.80</ele>
        <time>2016-10-29T08:34:54Z</time>
      </trkpt>
      <trkpt lat="42.345574000" lon="-2.613661000">
        <ele>1209.80</ele>
        <time>2016-10-29T08:34:55Z</time>
      </trkpt>
      <trkpt lat="42.345570000" lon="-2.613664000">
        <ele>1209.90</ele>
        <time>2016-10-29T08:34:56Z</time>
      </trkpt>
      <trkpt lat="42.345569000" lon="-2.613663000">
        <ele>1209.90</ele>
        <time>2016-10-29T08:34:57Z</time>
      </trkpt>
      <trkpt lat="42.345572000" lon="-2.613659000">
        <ele>1210.00</ele>
        <time>2016-10-29T08:34:58Z</time>
      </trkpt>
      <trkpt lat="42.345569000" lon="-2.613640000">
        <ele>1210.00</ele>
        <time>2016-10-29T08:34:59Z</time>
      </trkpt>
      <trkpt lat="42.345572000" lon="-2.613610000">
        <ele>1210.10</ele>
        <time>2016-10-29T08:35:00Z</time>
      </trkpt>
      <trkpt lat="42.345578000" lon="-2.613572000">
        <ele>1210.10</ele>
        <time>2016-10-29T08:35:01Z</time>
      </trkpt>
      <trkpt lat="42.345589000" lon="-2.613522000">
        <ele>1209.90</ele>
        <time>2016-10-29T08:35:02Z</time>
      </trkpt>
      <trkpt lat="42.345605000" lon="-2.613458000">
        <ele>1209.70</ele>
        <time>2016-10-29T08:35:03Z</time>
      </trkpt>
      <trkpt lat="42.345619000" lon="-2.613379000">
        <ele>1209.60</ele>
        <time>2016-10-29T08:35:04Z</time>
      </trkpt>
      <trkpt lat="42.345625000" lon="-2.613291000">
        <ele>1209.40</ele>
        <time>2016-10-29T08:35:05Z</time>
      </trkpt>
      <trkpt lat="42.345641000" lon="-2.613192000">
        <ele>1209.20</ele>
        <time>2016-10-29T08:35:06Z</time>
      </trkpt>
      <trkpt lat="42.345685000" lon="-2.613098000">
        <ele>1209.00</ele>
        <time>2016-10-29T08:35:07Z</time>
      </trkpt>
      <trkpt lat="42.345752000" lon="-2.613012000">
        <ele>1208.40</ele>
        <time>2016-10-29T08:35:08Z</time>
      </trkpt>
      <trkpt lat="42.345903000" lon="-2.612839000">
        <ele>1206.50</ele>
        <time>2016-10-29T08:35:10Z</time>
      </trkpt>
      <trkpt lat="42.345985000" lon="-2.612748000">
        <ele>1205.40</ele>
        <time>2016-10-29T08:35:11Z</time>
      </trkpt>
      <trkpt lat="42.346070000" lon="-2.612655000">
        <ele>1204.50</ele>
        <time>2016-10-29T08:35:12Z</time>
      </trkpt>
      <trkpt lat="42.346153000" lon="-2.612562000">
        <ele>1203.90</ele>
        <time>2016-10-29T08:35:13Z</time>
      </trkpt>
      <trkpt lat="42.346227000" lon="-2.612465000">
        <ele>1203.00</ele>
        <time>2016-10-29T08:35:14Z</time>
      </trkpt>
      <trkpt lat="42.346290000" lon="-2.612357000">
        <ele>1202.30</ele>
        <time>2016-10-29T08:35:15Z</time>
      </trkpt>
      <trkpt lat="42.346338000" lon="-2.612240000">
        <ele>1201.10</ele>
        <time>2016-10-29T08:35:16Z</time>
      </trkpt>
      <trkpt lat="42.346374000" lon="-2.612114000">
        <ele>1200.20</ele>
        <time>2016-10-29T08:35:17Z</time>
      </trkpt>
      <trkpt lat="42.346403000" lon="-2.611988000">
        <ele>1198.60</ele>
        <time>2016-10-29T08:35:18Z</time>
      </trkpt>
      <trkpt lat="42.346422000" lon="-2.611856000">
        <ele>1197.40</ele>
        <time>2016-10-29T08:35:19Z</time>
      </trkpt>
      <trkpt lat="42.346447000" lon="-2.611724000">
        <ele>1196.00</ele>
        <time>2016-10-29T08:35:20Z</time>
      </trkpt>
      <trkpt lat="42.346480000" lon="-2.611597000">
        <ele>1195.00</ele>
        <time>2016-10-29T08:35:21Z</time>
      </trkpt>
      <trkpt lat="42.346521000" lon="-2.611475000">
        <ele>1193.60</ele>
        <time>2016-10-29T08:35:22Z</time>
      </trkpt>
      <trkpt lat="42.346573000" lon="-2.611348000">
        <ele>1192.50</ele>
        <time>2016-10-29T08:35:23Z</time>
      </trkpt>
      <trkpt lat="42.346634000" lon="-2.611226000">
        <ele>1190.90</ele>
        <time>2016-10-29T08:35:24Z</time>
      </trkpt>
      <trkpt lat="42.346695000" lon="-2.611109000">
        <ele>1189.60</ele>
        <time>2016-10-29T08:35:25Z</time>
      </trkpt>
      <trkpt lat="42.346750000" lon="-2.610996000">
        <ele>1188.10</ele>
        <time>2016-10-29T08:35:26Z</time>
      </trkpt>
      <trkpt lat="42.346791000" lon="-2.610881000">
        <ele>1186.90</ele>
        <time>2016-10-29T08:35:27Z</time>
      </trkpt>
      <trkpt lat="42.346817000" lon="-2.610765000">
        <ele>1185.40</ele>
        <time>2016-10-29T08:35:28Z</time>
      </trkpt>
      <trkpt lat="42.346836000" lon="-2.610642000">
        <ele>1184.30</ele>
        <time>2016-10-29T08:35:29Z</time>
      </trkpt>
      <trkpt lat="42.346849000" lon="-2.610512000">
        <ele>1182.70</ele>
        <time>2016-10-29T08:35:30Z</time>
      </trkpt>
      <trkpt lat="42.346872000" lon="-2.610390000">
        <ele>1181.50</ele>
        <time>2016-10-29T08:35:31Z</time>
      </trkpt>
      <trkpt lat="42.346922000" lon="-2.610286000">
        <ele>1180.40</ele>
        <time>2016-10-29T08:35:32Z</time>
      </trkpt>
      <trkpt lat="42.346987000" lon="-2.610183000">
        <ele>1179.50</ele>
        <time>2016-10-29T08:35:33Z</time>
      </trkpt>
      <trkpt lat="42.347057000" lon="-2.610076000">
        <ele>1178.20</ele>
        <time>2016-10-29T08:35:34Z</time>
      </trkpt>
      <trkpt lat="42.347132000" lon="-2.609969000">
        <ele>1177.20</ele>
        <time>2016-10-29T08:35:35Z</time>
      </trkpt>
      <trkpt lat="42.347215000" lon="-2.609863000">
        <ele>1175.90</ele>
        <time>2016-10-29T08:35:36Z</time>
      </trkpt>
      <trkpt lat="42.347293000" lon="-2.609763000">
        <ele>1174.80</ele>
        <time>2016-10-29T08:35:37Z</time>
      </trkpt>
      <trkpt lat="42.347363000" lon="-2.609667000">
        <ele>1173.20</ele>
        <time>2016-10-29T08:35:38Z</time>
      </trkpt>
      <trkpt lat="42.347423000" lon="-2.609571000">
        <ele>1172.10</ele>
        <time>2016-10-29T08:35:39Z</time>
      </trkpt>
      <trkpt lat="42.347480000" lon="-2.609476000">
        <ele>1170.40</ele>
        <time>2016-10-29T08:35:40Z</time>
      </trkpt>
      <trkpt lat="42.347530000" lon="-2.609379000">
        <ele>1169.20</ele>
        <time>2016-10-29T08:35:41Z</time>
      </trkpt>
      <trkpt lat="42.347579000" lon="-2.609281000">
        <ele>1168.00</ele>
        <time>2016-10-29T08:35:42Z</time>
      </trkpt>
      <trkpt lat="42.347619000" lon="-2.609173000">
        <ele>1167.10</ele>
        <time>2016-10-29T08:35:43Z</time>
      </trkpt>
      <trkpt lat="42.347656000" lon="-2.609066000">
        <ele>1165.50</ele>
        <time>2016-10-29T08:35:44Z</time>
      </trkpt>
      <trkpt lat="42.347689000" lon="-2.608962000">
        <ele>1164.20</ele>
        <time>2016-10-29T08:35:45Z</time>
      </trkpt>
      <trkpt lat="42.347719000" lon="-2.608862000">
        <ele>1163.10</ele>
        <time>2016-10-29T08:35:46Z</time>
      </trkpt>
      <trkpt lat="42.347747000" lon="-2.608765000">
        <ele>1162.20</ele>
        <time>2016-10-29T08:35:47Z</time>
      </trkpt>
      <trkpt lat="42.347773000" lon="-2.608685000">
        <ele>1160.80</ele>
        <time>2016-10-29T08:35:48Z</time>
      </trkpt>
      <trkpt lat="42.347797000" lon="-2.608615000">
        <ele>1159.80</ele>
        <time>2016-10-29T08:35:49Z</time>
      </trkpt>
      <trkpt lat="42.347819000" lon="-2.608558000">
        <ele>1158.60</ele>
        <time>2016-10-29T08:35:50Z</time>
      </trkpt>
      <trkpt lat="42.347836000" lon="-2.608513000">
        <ele>1157.70</ele>
        <time>2016-10-29T08:35:51Z</time>
      </trkpt>
      <trkpt lat="42.347851000" lon="-2.608478000">
        <ele>1156.40</ele>
        <time>2016-10-29T08:35:52Z</time>
      </trkpt>
      <trkpt lat="42.347865000" lon="-2.608452000">
        <ele>1155.40</ele>
        <time>2016-10-29T08:35:53Z</time>
      </trkpt>
      <trkpt lat="42.347875000" lon="-2.608429000">
        <ele>1154.60</ele>
        <time>2016-10-29T08:35:54Z</time>
      </trkpt>
      <trkpt lat="42.347888000" lon="-2.608409000">
        <ele>1154.00</ele>
        <time>2016-10-29T08:35:55Z</time>
      </trkpt>
      <trkpt lat="42.347894000" lon="-2.608409000">
        <ele>1153.30</ele>
        <time>2016-10-29T08:35:56Z</time>
      </trkpt>
      <trkpt lat="42.347893000" lon="-2.608406000">
        <ele>1152.90</ele>
        <time>2016-10-29T08:35:57Z</time>
      </trkpt>
      <trkpt lat="42.347896000" lon="-2.608402000">
        <ele>1152.50</ele>
        <time>2016-10-29T08:35:58Z</time>
      </trkpt>
      <trkpt lat="42.347898000" lon="-2.608400000">
        <ele>1152.20</ele>
        <time>2016-10-29T08:35:59Z</time>
      </trkpt>
      <trkpt lat="42.347900000" lon="-2.608396000">
        <ele>1152.00</ele>
        <time>2016-10-29T08:36:00Z</time>
      </trkpt>
      <trkpt lat="42.347900000" lon="-2.608391000">
        <ele>1151.90</ele>
        <time>2016-10-29T08:36:01Z</time>
      </trkpt>
      <trkpt lat="42.347900000" lon="-2.608385000">
        <ele>1151.70</ele>
        <time>2016-10-29T08:36:02Z</time>
      </trkpt>
      <trkpt lat="42.347904000" lon="-2.608375000">
        <ele>1151.60</ele>
        <time>2016-10-29T08:36:03Z</time>
      </trkpt>
      <trkpt lat="42.347914000" lon="-2.608378000">
        <ele>1151.50</ele>
        <time>2016-10-29T08:36:04Z</time>
      </trkpt>
      <trkpt lat="42.347917000" lon="-2.608377000">
        <ele>1151.40</ele>
        <time>2016-10-29T08:36:05Z</time>
      </trkpt>
      <trkpt lat="42.347918000" lon="-2.608375000">
        <ele>1151.30</ele>
        <time>2016-10-29T08:36:06Z</time>
      </trkpt>
      <trkpt lat="42.347919000" lon="-2.608378000">
        <ele>1151.10</ele>
        <time>2016-10-29T08:36:07Z</time>
      </trkpt>
      <trkpt lat="42.347922000" lon="-2.608378000">
        <ele>1151.10</ele>
        <time>2016-10-29T08:36:08Z</time>
      </trkpt>
      <trkpt lat="42.347921000" lon="-2.608377000">
        <ele>1151.00</ele>
        <time>2016-10-29T08:36:09Z</time>
      </trkpt>
      <trkpt lat="42.347919000" lon="-2.608378000">
        <ele>1150.90</ele>
        <time>2016-10-29T08:36:10Z</time>
      </trkpt>
      <trkpt lat="42.347916000" lon="-2.608383000">
        <ele>1150.90</ele>
        <time>2016-10-29T08:36:12Z</time>
      </trkpt>
      <trkpt lat="42.347915000" lon="-2.608385000">
        <ele>1150.80</ele>
        <time>2016-10-29T08:36:13Z</time>
      </trkpt>
      <trkpt lat="42.347914000" lon="-2.608387000">
        <ele>1150.80</ele>
        <time>2016-10-29T08:36:14Z</time>
      </trkpt>
      <trkpt lat="42.347913000" lon="-2.608389000">
        <ele>1150.80</ele>
        <time>2016-10-29T08:36:15Z</time>
      </trkpt>
      <trkpt lat="42.347913000" lon="-2.608391000">
        <ele>1150.80</ele>
        <time>2016-10-29T08:36:16Z</time>
      </trkpt>
      <trkpt lat="42.347913000" lon="-2.608393000">
        <ele>1150.80</ele>
        <time>2016-10-29T08:36:17Z</time>
      </trkpt>
      <trkpt lat="42.347915000" lon="-2.608392000">
        <ele>1150.80</ele>
        <time>2016-10-29T08:36:18Z</time>
      </trkpt>
      <trkpt lat="42.347915000" lon="-2.608390000">
        <ele>1150.80</ele>
        <time>2016-10-29T08:36:19Z</time>
      </trkpt>
      <trkpt lat="42.347916000" lon="-2.608389000">
        <ele>1150.70</ele>
        <time>2016-10-29T08:36:20Z</time>
      </trkpt>
      <trkpt lat="42.347918000" lon="-2.608388000">
        <ele>1150.70</ele>
        <time>2016-10-29T08:36:21Z</time>
      </trkpt>
      <trkpt lat="42.347919000" lon="-2.608387000">
        <ele>1150.80</ele>
        <time>2016-10-29T08:36:22Z</time>
      </trkpt>
      <trkpt lat="42.347921000" lon="-2.608387000">
        <ele>1150.80</ele>
        <time>2016-10-29T08:36:23Z</time>
      </trkpt>
      <trkpt lat="42.347923000" lon="-2.608387000">
        <ele>1150.90</ele>
        <time>2016-10-29T08:36:24Z</time>
      </trkpt>
      <trkpt lat="42.347924000" lon="-2.608386000">
        <ele>1151.00</ele>
        <time>2016-10-29T08:36:25Z</time>
      </trkpt>
      <trkpt lat="42.347925000" lon="-2.608385000">
        <ele>1151.10</ele>
        <time>2016-10-29T08:36:26Z</time>
      </trkpt>
      <trkpt lat="42.347925000" lon="-2.608385000">
        <ele>1151.10</ele>
        <time>2016-10-29T08:36:27Z</time>
      </trkpt>
      <trkpt lat="42.347926000" lon="-2.608384000">
        <ele>1151.10</ele>
        <time>2016-10-29T08:36:28Z</time>
      </trkpt>
      <trkpt lat="42.347927000" lon="-2.608383000">
        <ele>1151.20</ele>
        <time>2016-10-29T08:36:29Z</time>
      </trkpt>
      <trkpt lat="42.347927000" lon="-2.608383000">
        <ele>1151.20</ele>
        <time>2016-10-29T08:36:30Z</time>
      </trkpt>
      <trkpt lat="42.347928000" lon="-2.608383000">
        <ele>1151.20</ele>
        <time>2016-10-29T08:36:31Z</time>
      </trkpt>
      <trkpt lat="42.347929000" lon="-2.608382000">
        <ele>1151.20</ele>
        <time>2016-10-29T08:36:32Z</time>
      </trkpt>
      <trkpt lat="42.347928000" lon="-2.608381000">
        <ele>1151.30</ele>
        <time>2016-10-29T08:36:33Z</time>
      </trkpt>
      <trkpt lat="42.347928000" lon="-2.608381000">
        <ele>1151.30</ele>
        <time>2016-10-29T08:36:34Z</time>
      </trkpt>
      <trkpt lat="42.347926000" lon="-2.608381000">
        <ele>1151.30</ele>
        <time>2016-10-29T08:36:35Z</time>
      </trkpt>
      <trkpt lat="42.347926000" lon="-2.608382000">
        <ele>1151.40</ele>
        <time>2016-10-29T08:36:36Z</time>
      </trkpt>
      <trkpt lat="42.347925000" lon="-2.608383000">
        <ele>1151.40</ele>
        <time>2016-10-29T08:36:37Z</time>
      </trkpt>
      <trkpt lat="42.347924000" lon="-2.608383000">
        <ele>1151.40</ele>
        <time>2016-10-29T08:36:38Z</time>
      </trkpt>
      <trkpt lat="42.347922000" lon="-2.608383000">
        <ele>1151.40</ele>
        <time>2016-10-29T08:36:39Z</time>
      </trkpt>
      <trkpt lat="42.347921000" lon="-2.608384000">
        <ele>1151.20</ele>
        <time>2016-10-29T08:36:40Z</time>
      </trkpt>
      <trkpt lat="42.347920000" lon="-2.608384000">
        <ele>1151.10</ele>
        <time>2016-10-29T08:36:41Z</time>
      </trkpt>
      <trkpt lat="42.347918000" lon="-2.608385000">
        <ele>1151.00</ele>
        <time>2016-10-29T08:36:42Z</time>
      </trkpt>
      <trkpt lat="42.347917000" lon="-2.608385000">
        <ele>1151.00</ele>
        <time>2016-10-29T08:36:43Z</time>
      </trkpt>
      <trkpt lat="42.347916000" lon="-2.608386000">
        <ele>1151.00</ele>
        <time>2016-10-29T08:36:44Z</time>
      </trkpt>
      <trkpt lat="42.347915000" lon="-2.608387000">
        <ele>1151.00</ele>
        <time>2016-10-29T08:36:45Z</time>
      </trkpt>
      <trkpt lat="42.347915000" lon="-2.608388000">
        <ele>1151.00</ele>
        <time>2016-10-29T08:36:46Z</time>
      </trkpt>
      <trkpt lat="42.347914000" lon="-2.608388000">
        <ele>1151.00</ele>
        <time>2016-10-29T08:36:47Z</time>
      </trkpt>
      <trkpt lat="42.347913000" lon="-2.608388000">
        <ele>1150.90</ele>
        <time>2016-10-29T08:36:48Z</time>
      </trkpt>
      <trkpt lat="42.347912000" lon="-2.608388000">
        <ele>1150.90</ele>
        <time>2016-10-29T08:36:49Z</time>
      </trkpt>
      <trkpt lat="42.347911000" lon="-2.608388000">
        <ele>1150.80</ele>
        <time>2016-10-29T08:36:50Z</time>
      </trkpt>
      <trkpt lat="42.347911000" lon="-2.608388000">
        <ele>1150.80</ele>
        <time>2016-10-29T08:36:51Z</time>
      </trkpt>
      <trkpt lat="42.347910000" lon="-2.608388000">
        <ele>1150.70</ele>
        <time>2016-10-29T08:36:52Z</time>
      </trkpt>
      <trkpt lat="42.347910000" lon="-2.608387000">
        <ele>1150.70</ele>
        <time>2016-10-29T08:36:53Z</time>
      </trkpt>
      <trkpt lat="42.347910000" lon="-2.608387000">
        <ele>1150.80</ele>
        <time>2016-10-29T08:36:54Z</time>
      </trkpt>
      <trkpt lat="42.347909000" lon="-2.608387000">
        <ele>1150.90</ele>
        <time>2016-10-29T08:36:55Z</time>
      </trkpt>
      <trkpt lat="42.347909000" lon="-2.608386000">
        <ele>1151.00</ele>
        <time>2016-10-29T08:36:56Z</time>
      </trkpt>
      <trkpt lat="42.347909000" lon="-2.608385000">
        <ele>1151.10</ele>
        <time>2016-10-29T08:36:57Z</time>
      </trkpt>
      <trkpt lat="42.347909000" lon="-2.608385000">
        <ele>1150.90</ele>
        <time>2016-10-29T08:36:58Z</time>
      </trkpt>
      <trkpt lat="42.347910000" lon="-2.608384000">
        <ele>1150.90</ele>
        <time>2016-10-29T08:36:59Z</time>
      </trkpt>
      <trkpt lat="42.347910000" lon="-2.608382000">
        <ele>1150.80</ele>
        <time>2016-10-29T08:37:00Z</time>
      </trkpt>
      <trkpt lat="42.347911000" lon="-2.608380000">
        <ele>1150.70</ele>
        <time>2016-10-29T08:37:01Z</time>
      </trkpt>
      <trkpt lat="42.347911000" lon="-2.608379000">
        <ele>1150.80</ele>
        <time>2016-10-29T08:37:02Z</time>
      </trkpt>
      <trkpt lat="42.347912000" lon="-2.608378000">
        <ele>1150.80</ele>
        <time>2016-10-29T08:37:03Z</time>
      </trkpt>
      <trkpt lat="42.347913000" lon="-2.608377000">
        <ele>1150.90</ele>
        <time>2016-10-29T08:37:04Z</time>
      </trkpt>
      <trkpt lat="42.347914000" lon="-2.608375000">
        <ele>1150.90</ele>
        <time>2016-10-29T08:37:05Z</time>
      </trkpt>
      <trkpt lat="42.347915000" lon="-2.608374000">
        <ele>1151.00</ele>
        <time>2016-10-29T08:37:06Z</time>
      </trkpt>
      <trkpt lat="42.347916000" lon="-2.608373000">
        <ele>1151.00</ele>
        <time>2016-10-29T08:37:07Z</time>
      </trkpt>
      <trkpt lat="42.347917000" lon="-2.608371000">
        <ele>1151.00</ele>
        <time>2016-10-29T08:37:08Z</time>
      </trkpt>
      <trkpt lat="42.347917000" lon="-2.608370000">
        <ele>1151.00</ele>
        <time>2016-10-29T08:37:09Z</time>
      </trkpt>
      <trkpt lat="42.347918000" lon="-2.608369000">
        <ele>1151.00</ele>
        <time>2016-10-29T08:37:10Z</time>
      </trkpt>
      <trkpt lat="42.347918000" lon="-2.608369000">
        <ele>1150.90</ele>
        <time>2016-10-29T08:37:11Z</time>
      </trkpt>
      <trkpt lat="42.347919000" lon="-2.608368000">
        <ele>1150.90</ele>
        <time>2016-10-29T08:37:12Z</time>
      </trkpt>
      <trkpt lat="42.347920000" lon="-2.608366000">
        <ele>1150.80</ele>
        <time>2016-10-29T08:37:14Z</time>
      </trkpt>
      <trkpt lat="42.347920000" lon="-2.608365000">
        <ele>1150.80</ele>
        <time>2016-10-29T08:37:15Z</time>
      </trkpt>
      <trkpt lat="42.347920000" lon="-2.608364000">
        <ele>1150.90</ele>
        <time>2016-10-29T08:37:16Z</time>
      </trkpt>
      <trkpt lat="42.347921000" lon="-2.608363000">
        <ele>1150.90</ele>
        <time>2016-10-29T08:37:17Z</time>
      </trkpt>
      <trkpt lat="42.347921000" lon="-2.608363000">
        <ele>1151.00</ele>
        <time>2016-10-29T08:37:18Z</time>
      </trkpt>
      <trkpt lat="42.347921000" lon="-2.608363000">
        <ele>1151.00</ele>
        <time>2016-10-29T08:37:19Z</time>
      </trkpt>
      <trkpt lat="42.347921000" lon="-2.608362000">
        <ele>1151.00</ele>
        <time>2016-10-29T08:37:20Z</time>
      </trkpt>
      <trkpt lat="42.347921000" lon="-2.608362000">
        <ele>1151.10</ele>
        <time>2016-10-29T08:37:21Z</time>
      </trkpt>
      <trkpt lat="42.347921000" lon="-2.608363000">
        <ele>1151.10</ele>
        <time>2016-10-29T08:37:22Z</time>
      </trkpt>
      <trkpt lat="42.347921000" lon="-2.608363000">
        <ele>1151.00</ele>
        <time>2016-10-29T08:37:23Z</time>
      </trkpt>
      <trkpt lat="42.347920000" lon="-2.608364000">
        <ele>1151.00</ele>
        <time>2016-10-29T08:37:24Z</time>
      </trkpt>
      <trkpt lat="42.347919000" lon="-2.608365000">
        <ele>1151.00</ele>
        <time>2016-10-29T08:37:25Z</time>
      </trkpt>
      <trkpt lat="42.347919000" lon="-2.608366000">
        <ele>1151.00</ele>
        <time>2016-10-29T08:37:26Z</time>
      </trkpt>
      <trkpt lat="42.347919000" lon="-2.608367000">
        <ele>1151.00</ele>
        <time>2016-10-29T08:37:27Z</time>
      </trkpt>
      <trkpt lat="42.347919000" lon="-2.608368000">
        <ele>1151.00</ele>
        <time>2016-10-29T08:37:28Z</time>
      </trkpt>
      <trkpt lat="42.347919000" lon="-2.608369000">
        <ele>1151.00</ele>
        <time>2016-10-29T08:37:29Z</time>
      </trkpt>
      <trkpt lat="42.347919000" lon="-2.608371000">
        <ele>1151.00</ele>
        <time>2016-10-29T08:37:30Z</time>
      </trkpt>
      <trkpt lat="42.347918000" lon="-2.608372000">
        <ele>1151.10</ele>
        <time>2016-10-29T08:37:31Z</time>
      </trkpt>
      <trkpt lat="42.347918000" lon="-2.608373000">
        <ele>1151.10</ele>
        <time>2016-10-29T08:37:32Z</time>
      </trkpt>
      <trkpt lat="42.347917000" lon="-2.608373000">
        <ele>1151.00</ele>
        <time>2016-10-29T08:37:33Z</time>
      </trkpt>
      <trkpt lat="42.347917000" lon="-2.608372000">
        <ele>1151.00</ele>
        <time>2016-10-29T08:37:34Z</time>
      </trkpt>
      <trkpt lat="42.347916000" lon="-2.608372000">
        <ele>1151.00</ele>
        <time>2016-10-29T08:37:35Z</time>
      </trkpt>
      <trkpt lat="42.347915000" lon="-2.608372000">
        <ele>1150.70</ele>
        <time>2016-10-29T08:37:36Z</time>
      </trkpt>
      <trkpt lat="42.347914000" lon="-2.608372000">
        <ele>1150.60</ele>
        <time>2016-10-29T08:37:37Z</time>
      </trkpt>
      <trkpt lat="42.347913000" lon="-2.608372000">
        <ele>1150.40</ele>
        <time>2016-10-29T08:37:38Z</time>
      </trkpt>
      <trkpt lat="42.347912000" lon="-2.608371000">
        <ele>1150.30</ele>
        <time>2016-10-29T08:37:39Z</time>
      </trkpt>
      <trkpt lat="42.347911000" lon="-2.608370000">
        <ele>1150.30</ele>
        <time>2016-10-29T08:37:40Z</time>
      </trkpt>
      <trkpt lat="42.347910000" lon="-2.608369000">
        <ele>1150.20</ele>
        <time>2016-10-29T08:37:41Z</time>
      </trkpt>
      <trkpt lat="42.347908000" lon="-2.608369000">
        <ele>1150.20</ele>
        <time>2016-10-29T08:37:42Z</time>
      </trkpt>
      <trkpt lat="42.347907000" lon="-2.608368000">
        <ele>1150.20</ele>
        <time>2016-10-29T08:37:43Z</time>
      </trkpt>
      <trkpt lat="42.347906000" lon="-2.608368000">
        <ele>1150.40</ele>
        <time>2016-10-29T08:37:44Z</time>
      </trkpt>
      <trkpt lat="42.347905000" lon="-2.608367000">
        <ele>1150.50</ele>
        <time>2016-10-29T08:37:45Z</time>
      </trkpt>
      <trkpt lat="42.347905000" lon="-2.608367000">
        <ele>1150.50</ele>
        <time>2016-10-29T08:37:46Z</time>
      </trkpt>
      <trkpt lat="42.347904000" lon="-2.608366000">
        <ele>1150.60</ele>
        <time>2016-10-29T08:37:47Z</time>
      </trkpt>
      <trkpt lat="42.347904000" lon="-2.608366000">
        <ele>1150.60</ele>
        <time>2016-10-29T08:37:48Z</time>
      </trkpt>
      <trkpt lat="42.347903000" lon="-2.608365000">
        <ele>1150.70</ele>
        <time>2016-10-29T08:37:49Z</time>
      </trkpt>
      <trkpt lat="42.347903000" lon="-2.608365000">
        <ele>1150.80</ele>
        <time>2016-10-29T08:37:50Z</time>
      </trkpt>
      <trkpt lat="42.347903000" lon="-2.608364000">
        <ele>1150.80</ele>
        <time>2016-10-29T08:37:51Z</time>
      </trkpt>
      <trkpt lat="42.347904000" lon="-2.608364000">
        <ele>1150.90</ele>
        <time>2016-10-29T08:37:52Z</time>
      </trkpt>
      <trkpt lat="42.347905000" lon="-2.608363000">
        <ele>1151.00</ele>
        <time>2016-10-29T08:37:53Z</time>
      </trkpt>
      <trkpt lat="42.347905000" lon="-2.608363000">
        <ele>1151.10</ele>
        <time>2016-10-29T08:37:54Z</time>
      </trkpt>
      <trkpt lat="42.347905000" lon="-2.608364000">
        <ele>1151.10</ele>
        <time>2016-10-29T08:37:55Z</time>
      </trkpt>
      <trkpt lat="42.347906000" lon="-2.608364000">
        <ele>1151.10</ele>
        <time>2016-10-29T08:37:56Z</time>
      </trkpt>
      <trkpt lat="42.347906000" lon="-2.608364000">
        <ele>1151.20</ele>
        <time>2016-10-29T08:37:57Z</time>
      </trkpt>
      <trkpt lat="42.347907000" lon="-2.608364000">
        <ele>1151.10</ele>
        <time>2016-10-29T08:37:58Z</time>
      </trkpt>
      <trkpt lat="42.347907000" lon="-2.608364000">
        <ele>1151.10</ele>
        <time>2016-10-29T08:37:59Z</time>
      </trkpt>
      <trkpt lat="42.347907000" lon="-2.608365000">
        <ele>1151.00</ele>
        <time>2016-10-29T08:38:00Z</time>
      </trkpt>
      <trkpt lat="42.347908000" lon="-2.608366000">
        <ele>1151.00</ele>
        <time>2016-10-29T08:38:01Z</time>
      </trkpt>
      <trkpt lat="42.347909000" lon="-2.608367000">
        <ele>1151.00</ele>
        <time>2016-10-29T08:38:02Z</time>
      </trkpt>
      <trkpt lat="42.347910000" lon="-2.608368000">
        <ele>1151.00</ele>
        <time>2016-10-29T08:38:03Z</time>
      </trkpt>
      <trkpt lat="42.347911000" lon="-2.608368000">
        <ele>1151.00</ele>
        <time>2016-10-29T08:38:04Z</time>
      </trkpt>
      <trkpt lat="42.347912000" lon="-2.608369000">
        <ele>1151.10</ele>
        <time>2016-10-29T08:38:05Z</time>
      </trkpt>
      <trkpt lat="42.347912000" lon="-2.608370000">
        <ele>1151.10</ele>
        <time>2016-10-29T08:38:06Z</time>
      </trkpt>
      <trkpt lat="42.347913000" lon="-2.608371000">
        <ele>1151.10</ele>
        <time>2016-10-29T08:38:07Z</time>
      </trkpt>
      <trkpt lat="42.347913000" lon="-2.608371000">
        <ele>1151.10</ele>
        <time>2016-10-29T08:38:08Z</time>
      </trkpt>
      <trkpt lat="42.347913000" lon="-2.608372000">
        <ele>1151.10</ele>
        <time>2016-10-29T08:38:09Z</time>
      </trkpt>
      <trkpt lat="42.347913000" lon="-2.608373000">
        <ele>1151.10</ele>
        <time>2016-10-29T08:38:10Z</time>
      </trkpt>
      <trkpt lat="42.347912000" lon="-2.608373000">
        <ele>1151.00</ele>
        <time>2016-10-29T08:38:11Z</time>
      </trkpt>
      <trkpt lat="42.347912000" lon="-2.608374000">
        <ele>1151.00</ele>
        <time>2016-10-29T08:38:12Z</time>
      </trkpt>
      <trkpt lat="42.347912000" lon="-2.608374000">
        <ele>1151.10</ele>
        <time>2016-10-29T08:38:13Z</time>
      </trkpt>
      <trkpt lat="42.347911000" lon="-2.608375000">
        <ele>1151.00</ele>
        <time>2016-10-29T08:38:14Z</time>
      </trkpt>
      <trkpt lat="42.347910000" lon="-2.608376000">
        <ele>1151.00</ele>
        <time>2016-10-29T08:38:16Z</time>
      </trkpt>
      <trkpt lat="42.347910000" lon="-2.608376000">
        <ele>1151.00</ele>
        <time>2016-10-29T08:38:17Z</time>
      </trkpt>
      <trkpt lat="42.347910000" lon="-2.608377000">
        <ele>1151.00</ele>
        <time>2016-10-29T08:38:18Z</time>
      </trkpt>
      <trkpt lat="42.347910000" lon="-2.608377000">
        <ele>1151.00</ele>
        <time>2016-10-29T08:38:19Z</time>
      </trkpt>
      <trkpt lat="42.347910000" lon="-2.608377000">
        <ele>1151.00</ele>
        <time>2016-10-29T08:38:20Z</time>
      </trkpt>
      <trkpt lat="42.347910000" lon="-2.608377000">
        <ele>1151.00</ele>
        <time>2016-10-29T08:38:21Z</time>
      </trkpt>
      <trkpt lat="42.347910000" lon="-2.608378000">
        <ele>1151.00</ele>
        <time>2016-10-29T08:38:22Z</time>
      </trkpt>
      <trkpt lat="42.347911000" lon="-2.608377000">
        <ele>1151.00</ele>
        <time>2016-10-29T08:38:23Z</time>
      </trkpt>
      <trkpt lat="42.347911000" lon="-2.608377000">
        <ele>1151.00</ele>
        <time>2016-10-29T08:38:24Z</time>
      </trkpt>
      <trkpt lat="42.347911000" lon="-2.608376000">
        <ele>1151.00</ele>
        <time>2016-10-29T08:38:25Z</time>
      </trkpt>
      <trkpt lat="42.347911000" lon="-2.608376000">
        <ele>1151.00</ele>
        <time>2016-10-29T08:38:26Z</time>
      </trkpt>
      <trkpt lat="42.347910000" lon="-2.608376000">
        <ele>1151.00</ele>
        <time>2016-10-29T08:38:27Z</time>
      </trkpt>
      <trkpt lat="42.347910000" lon="-2.608376000">
        <ele>1151.00</ele>
        <time>2016-10-29T08:38:28Z</time>
      </trkpt>
      <trkpt lat="42.347909000" lon="-2.608375000">
        <ele>1151.00</ele>
        <time>2016-10-29T08:38:29Z</time>
      </trkpt>
      <trkpt lat="42.347909000" lon="-2.608374000">
        <ele>1150.90</ele>
        <time>2016-10-29T08:38:30Z</time>
      </trkpt>
      <trkpt lat="42.347909000" lon="-2.608373000">
        <ele>1150.80</ele>
        <time>2016-10-29T08:38:31Z</time>
      </trkpt>
      <trkpt lat="42.347910000" lon="-2.608373000">
        <ele>1150.80</ele>
        <time>2016-10-29T08:38:32Z</time>
      </trkpt>
      <trkpt lat="42.347910000" lon="-2.608373000">
        <ele>1150.80</ele>
        <time>2016-10-29T08:38:33Z</time>
      </trkpt>
      <trkpt lat="42.347911000" lon="-2.608372000">
        <ele>1150.90</ele>
        <time>2016-10-29T08:38:34Z</time>
      </trkpt>
      <trkpt lat="42.347911000" lon="-2.608372000">
        <ele>1151.00</ele>
        <time>2016-10-29T08:38:35Z</time>
      </trkpt>
      <trkpt lat="42.347911000" lon="-2.608371000">
        <ele>1151.00</ele>
        <time>2016-10-29T08:38:36Z</time>
      </trkpt>
      <trkpt lat="42.347910000" lon="-2.608370000">
        <ele>1151.10</ele>
        <time>2016-10-29T08:38:37Z</time>
      </trkpt>
      <trkpt lat="42.347910000" lon="-2.608370000">
        <ele>1151.10</ele>
        <time>2016-10-29T08:38:38Z</time>
      </trkpt>
      <trkpt lat="42.347911000" lon="-2.608370000">
        <ele>1151.20</ele>
        <time>2016-10-29T08:38:39Z</time>
      </trkpt>
      <trkpt lat="42.347911000" lon="-2.608369000">
        <ele>1151.20</ele>
        <time>2016-10-29T08:38:40Z</time>
      </trkpt>
      <trkpt lat="42.347912000" lon="-2.608369000">
        <ele>1151.20</ele>
        <time>2016-10-29T08:38:41Z</time>
      </trkpt>
      <trkpt lat="42.347912000" lon="-2.608368000">
        <ele>1151.20</ele>
        <time>2016-10-29T08:38:42Z</time>
      </trkpt>
      <trkpt lat="42.347912000" lon="-2.608368000">
        <ele>1151.20</ele>
        <time>2016-10-29T08:38:43Z</time>
      </trkpt>
      <trkpt lat="42.347913000" lon="-2.608367000">
        <ele>1151.20</ele>
        <time>2016-10-29T08:38:44Z</time>
      </trkpt>
      <trkpt lat="42.347913000" lon="-2.608367000">
        <ele>1151.20</ele>
        <time>2016-10-29T08:38:45Z</time>
      </trkpt>
      <trkpt lat="42.347913000" lon="-2.608366000">
        <ele>1151.30</ele>
        <time>2016-10-29T08:38:46Z</time>
      </trkpt>
      <trkpt lat="42.347913000" lon="-2.608366000">
        <ele>1151.30</ele>
        <time>2016-10-29T08:38:47Z</time>
      </trkpt>
      <trkpt lat="42.347912000" lon="-2.608365000">
        <ele>1151.30</ele>
        <time>2016-10-29T08:38:48Z</time>
      </trkpt>
      <trkpt lat="42.347911000" lon="-2.608366000">
        <ele>1151.30</ele>
        <time>2016-10-29T08:38:49Z</time>
      </trkpt>
      <trkpt lat="42.347911000" lon="-2.608366000">
        <ele>1151.30</ele>
        <time>2016-10-29T08:38:50Z</time>
      </trkpt>
      <trkpt lat="42.347911000" lon="-2.608366000">
        <ele>1151.30</ele>
        <time>2016-10-29T08:38:51Z</time>
      </trkpt>
      <trkpt lat="42.347910000" lon="-2.608366000">
        <ele>1151.20</ele>
        <time>2016-10-29T08:38:52Z</time>
      </trkpt>
      <trkpt lat="42.347910000" lon="-2.608366000">
        <ele>1151.10</ele>
        <time>2016-10-29T08:38:53Z</time>
      </trkpt>
      <trkpt lat="42.347910000" lon="-2.608366000">
        <ele>1151.00</ele>
        <time>2016-10-29T08:38:54Z</time>
      </trkpt>
      <trkpt lat="42.347909000" lon="-2.608366000">
        <ele>1151.00</ele>
        <time>2016-10-29T08:38:55Z</time>
      </trkpt>
      <trkpt lat="42.347909000" lon="-2.608367000">
        <ele>1151.00</ele>
        <time>2016-10-29T08:38:56Z</time>
      </trkpt>
      <trkpt lat="42.347907000" lon="-2.608367000">
        <ele>1150.90</ele>
        <time>2016-10-29T08:38:57Z</time>
      </trkpt>
      <trkpt lat="42.347906000" lon="-2.608367000">
        <ele>1150.90</ele>
        <time>2016-10-29T08:38:58Z</time>
      </trkpt>
      <trkpt lat="42.347905000" lon="-2.608367000">
        <ele>1150.90</ele>
        <time>2016-10-29T08:38:59Z</time>
      </trkpt>
      <trkpt lat="42.347905000" lon="-2.608367000">
        <ele>1150.90</ele>
        <time>2016-10-29T08:39:00Z</time>
      </trkpt>
      <trkpt lat="42.347904000" lon="-2.608367000">
        <ele>1150.90</ele>
        <time>2016-10-29T08:39:01Z</time>
      </trkpt>
      <trkpt lat="42.347904000" lon="-2.608367000">
        <ele>1150.80</ele>
        <time>2016-10-29T08:39:02Z</time>
      </trkpt>
      <trkpt lat="42.347903000" lon="-2.608367000">
        <ele>1150.80</ele>
        <time>2016-10-29T08:39:03Z</time>
      </trkpt>
      <trkpt lat="42.347903000" lon="-2.608366000">
        <ele>1150.80</ele>
        <time>2016-10-29T08:39:04Z</time>
      </trkpt>
      <trkpt lat="42.347902000" lon="-2.608366000">
        <ele>1150.80</ele>
        <time>2016-10-29T08:39:05Z</time>
      </trkpt>
      <trkpt lat="42.347902000" lon="-2.608365000">
        <ele>1150.80</ele>
        <time>2016-10-29T08:39:06Z</time>
      </trkpt>
      <trkpt lat="42.347901000" lon="-2.608364000">
        <ele>1150.90</ele>
        <time>2016-10-29T08:39:07Z</time>
      </trkpt>
      <trkpt lat="42.347900000" lon="-2.608363000">
        <ele>1150.80</ele>
        <time>2016-10-29T08:39:08Z</time>
      </trkpt>
      <trkpt lat="42.347899000" lon="-2.608361000">
        <ele>1150.70</ele>
        <time>2016-10-29T08:39:09Z</time>
      </trkpt>
      <trkpt lat="42.347898000" lon="-2.608359000">
        <ele>1150.60</ele>
        <time>2016-10-29T08:39:10Z</time>
      </trkpt>
      <trkpt lat="42.347897000" lon="-2.608357000">
        <ele>1150.60</ele>
        <time>2016-10-29T08:39:11Z</time>
      </trkpt>
      <trkpt lat="42.347897000" lon="-2.608356000">
        <ele>1150.50</ele>
        <time>2016-10-29T08:39:12Z</time>
      </trkpt>
      <trkpt lat="42.347896000" lon="-2.608355000">
        <ele>1150.50</ele>
        <time>2016-10-29T08:39:13Z</time>
      </trkpt>
      <trkpt lat="42.347896000" lon="-2.608354000">
        <ele>1150.60</ele>
        <time>2016-10-29T08:39:14Z</time>
      </trkpt>
      <trkpt lat="42.347896000" lon="-2.608353000">
        <ele>1150.70</ele>
        <time>2016-10-29T08:39:15Z</time>
      </trkpt>
      <trkpt lat="42.347895000" lon="-2.608352000">
        <ele>1150.80</ele>
        <time>2016-10-29T08:39:17Z</time>
      </trkpt>
      <trkpt lat="42.347895000" lon="-2.608351000">
        <ele>1150.90</ele>
        <time>2016-10-29T08:39:18Z</time>
      </trkpt>
      <trkpt lat="42.347894000" lon="-2.608351000">
        <ele>1151.00</ele>
        <time>2016-10-29T08:39:19Z</time>
      </trkpt>
      <trkpt lat="42.347894000" lon="-2.608351000">
        <ele>1151.00</ele>
        <time>2016-10-29T08:39:20Z</time>
      </trkpt>
      <trkpt lat="42.347893000" lon="-2.608352000">
        <ele>1151.00</ele>
        <time>2016-10-29T08:39:21Z</time>
      </trkpt>
      <trkpt lat="42.347893000" lon="-2.608353000">
        <ele>1150.90</ele>
        <time>2016-10-29T08:39:22Z</time>
      </trkpt>
      <trkpt lat="42.347893000" lon="-2.608354000">
        <ele>1150.80</ele>
        <time>2016-10-29T08:39:23Z</time>
      </trkpt>
      <trkpt lat="42.347893000" lon="-2.608355000">
        <ele>1150.70</ele>
        <time>2016-10-29T08:39:24Z</time>
      </trkpt>
      <trkpt lat="42.347893000" lon="-2.608356000">
        <ele>1150.60</ele>
        <time>2016-10-29T08:39:25Z</time>
      </trkpt>
      <trkpt lat="42.347894000" lon="-2.608356000">
        <ele>1150.50</ele>
        <time>2016-10-29T08:39:26Z</time>
      </trkpt>
      <trkpt lat="42.347894000" lon="-2.608356000">
        <ele>1150.50</ele>
        <time>2016-10-29T08:39:27Z</time>
      </trkpt>
      <trkpt lat="42.347894000" lon="-2.608356000">
        <ele>1150.40</ele>
        <time>2016-10-29T08:39:28Z</time>
      </trkpt>
      <trkpt lat="42.347894000" lon="-2.608357000">
        <ele>1150.30</ele>
        <time>2016-10-29T08:39:29Z</time>
      </trkpt>
      <trkpt lat="42.347894000" lon="-2.608357000">
        <ele>1150.30</ele>
        <time>2016-10-29T08:39:30Z</time>
      </trkpt>
      <trkpt lat="42.347894000" lon="-2.608358000">
        <ele>1150.30</ele>
        <time>2016-10-29T08:39:31Z</time>
      </trkpt>
      <trkpt lat="42.347894000" lon="-2.608357000">
        <ele>1150.40</ele>
        <time>2016-10-29T08:39:32Z</time>
      </trkpt>
      <trkpt lat="42.347894000" lon="-2.608357000">
        <ele>1150.40</ele>
        <time>2016-10-29T08:39:33Z</time>
      </trkpt>
      <trkpt lat="42.347895000" lon="-2.608357000">
        <ele>1150.50</ele>
        <time>2016-10-29T08:39:34Z</time>
      </trkpt>
      <trkpt lat="42.347895000" lon="-2.608357000">
        <ele>1150.50</ele>
        <time>2016-10-29T08:39:35Z</time>
      </trkpt>
      <trkpt lat="42.347896000" lon="-2.608357000">
        <ele>1150.50</ele>
        <time>2016-10-29T08:39:36Z</time>
      </trkpt>
      <trkpt lat="42.347897000" lon="-2.608357000">
        <ele>1150.50</ele>
        <time>2016-10-29T08:39:37Z</time>
      </trkpt>
      <trkpt lat="42.347898000" lon="-2.608357000">
        <ele>1150.60</ele>
        <time>2016-10-29T08:39:38Z</time>
      </trkpt>
      <trkpt lat="42.347898000" lon="-2.608357000">
        <ele>1150.60</ele>
        <time>2016-10-29T08:39:39Z</time>
      </trkpt>
      <trkpt lat="42.347899000" lon="-2.608357000">
        <ele>1150.60</ele>
        <time>2016-10-29T08:39:40Z</time>
      </trkpt>
      <trkpt lat="42.347900000" lon="-2.608357000">
        <ele>1150.60</ele>
        <time>2016-10-29T08:39:41Z</time>
      </trkpt>
      <trkpt lat="42.347901000" lon="-2.608358000">
        <ele>1150.70</ele>
        <time>2016-10-29T08:39:42Z</time>
      </trkpt>
      <trkpt lat="42.347902000" lon="-2.608357000">
        <ele>1150.80</ele>
        <time>2016-10-29T08:39:43Z</time>
      </trkpt>
      <trkpt lat="42.347902000" lon="-2.608357000">
        <ele>1150.90</ele>
        <time>2016-10-29T08:39:44Z</time>
      </trkpt>
      <trkpt lat="42.347903000" lon="-2.608357000">
        <ele>1150.90</ele>
        <time>2016-10-29T08:39:45Z</time>
      </trkpt>
      <trkpt lat="42.347903000" lon="-2.608358000">
        <ele>1150.90</ele>
        <time>2016-10-29T08:39:46Z</time>
      </trkpt>
      <trkpt lat="42.347904000" lon="-2.608358000">
        <ele>1151.00</ele>
        <time>2016-10-29T08:39:47Z</time>
      </trkpt>
      <trkpt lat="42.347904000" lon="-2.608358000">
        <ele>1151.00</ele>
        <time>2016-10-29T08:39:48Z</time>
      </trkpt>
      <trkpt lat="42.347905000" lon="-2.608359000">
        <ele>1151.00</ele>
        <time>2016-10-29T08:39:49Z</time>
      </trkpt>
      <trkpt lat="42.347905000" lon="-2.608359000">
        <ele>1150.90</ele>
        <time>2016-10-29T08:39:50Z</time>
      </trkpt>
      <trkpt lat="42.347906000" lon="-2.608360000">
        <ele>1150.90</ele>
        <time>2016-10-29T08:39:51Z</time>
      </trkpt>
      <trkpt lat="42.347906000" lon="-2.608361000">
        <ele>1150.90</ele>
        <time>2016-10-29T08:39:52Z</time>
      </trkpt>
      <trkpt lat="42.347907000" lon="-2.608361000">
        <ele>1150.90</ele>
        <time>2016-10-29T08:39:53Z</time>
      </trkpt>
      <trkpt lat="42.347908000" lon="-2.608362000">
        <ele>1150.90</ele>
        <time>2016-10-29T08:39:54Z</time>
      </trkpt>
      <trkpt lat="42.347908000" lon="-2.608362000">
        <ele>1150.80</ele>
        <time>2016-10-29T08:39:55Z</time>
      </trkpt>
      <trkpt lat="42.347909000" lon="-2.608362000">
        <ele>1150.90</ele>
        <time>2016-10-29T08:39:56Z</time>
      </trkpt>
      <trkpt lat="42.347910000" lon="-2.608362000">
        <ele>1150.90</ele>
        <time>2016-10-29T08:39:57Z</time>
      </trkpt>
      <trkpt lat="42.347910000" lon="-2.608362000">
        <ele>1150.90</ele>
        <time>2016-10-29T08:39:58Z</time>
      </trkpt>
      <trkpt lat="42.347910000" lon="-2.608361000">
        <ele>1150.90</ele>
        <time>2016-10-29T08:39:59Z</time>
      </trkpt>
      <trkpt lat="42.347910000" lon="-2.608361000">
        <ele>1151.00</ele>
        <time>2016-10-29T08:40:00Z</time>
      </trkpt>
      <trkpt lat="42.347910000" lon="-2.608360000">
        <ele>1151.10</ele>
        <time>2016-10-29T08:40:01Z</time>
      </trkpt>
      <trkpt lat="42.347909000" lon="-2.608361000">
        <ele>1151.10</ele>
        <time>2016-10-29T08:40:02Z</time>
      </trkpt>
      <trkpt lat="42.347909000" lon="-2.608360000">
        <ele>1151.10</ele>
        <time>2016-10-29T08:40:03Z</time>
      </trkpt>
      <trkpt lat="42.347908000" lon="-2.608359000">
        <ele>1151.20</ele>
        <time>2016-10-29T08:40:04Z</time>
      </trkpt>
      <trkpt lat="42.347907000" lon="-2.608359000">
        <ele>1151.20</ele>
        <time>2016-10-29T08:40:05Z</time>
      </trkpt>
      <trkpt lat="42.347906000" lon="-2.608360000">
        <ele>1151.20</ele>
        <time>2016-10-29T08:40:06Z</time>
      </trkpt>
      <trkpt lat="42.347910000" lon="-2.608362000">
        <ele>1151.30</ele>
        <time>2016-10-29T08:40:07Z</time>
      </trkpt>
      <trkpt lat="42.347914000" lon="-2.608365000">
        <ele>1151.40</ele>
        <time>2016-10-29T08:40:08Z</time>
      </trkpt>
      <trkpt lat="42.347906000" lon="-2.608371000">
        <ele>1151.50</ele>
        <time>2016-10-29T08:40:09Z</time>
      </trkpt>
      <trkpt lat="42.347899000" lon="-2.608368000">
        <ele>1151.40</ele>
        <time>2016-10-29T08:40:10Z</time>
      </trkpt>
      <trkpt lat="42.347892000" lon="-2.608371000">
        <ele>1151.40</ele>
        <time>2016-10-29T08:40:11Z</time>
      </trkpt>
      <trkpt lat="42.347890000" lon="-2.608361000">
        <ele>1151.40</ele>
        <time>2016-10-29T08:40:12Z</time>
      </trkpt>
      <trkpt lat="42.347890000" lon="-2.608345000">
        <ele>1151.40</ele>
        <time>2016-10-29T08:40:13Z</time>
      </trkpt>
      <trkpt lat="42.347898000" lon="-2.608330000">
        <ele>1151.20</ele>
        <time>2016-10-29T08:40:14Z</time>
      </trkpt>
      <trkpt lat="42.347905000" lon="-2.608327000">
        <ele>1151.10</ele>
        <time>2016-10-29T08:40:15Z</time>
      </trkpt>
      <trkpt lat="42.347909000" lon="-2.608328000">
        <ele>1150.90</ele>
        <time>2016-10-29T08:40:16Z</time>
      </trkpt>
      <trkpt lat="42.347914000" lon="-2.608324000">
        <ele>1150.70</ele>
        <time>2016-10-29T08:40:18Z</time>
      </trkpt>
      <trkpt lat="42.347915000" lon="-2.608323000">
        <ele>1150.60</ele>
        <time>2016-10-29T08:40:19Z</time>
      </trkpt>
      <trkpt lat="42.347915000" lon="-2.608320000">
        <ele>1150.60</ele>
        <time>2016-10-29T08:40:20Z</time>
      </trkpt>
      <trkpt lat="42.347916000" lon="-2.608317000">
        <ele>1150.60</ele>
        <time>2016-10-29T08:40:21Z</time>
      </trkpt>
      <trkpt lat="42.347919000" lon="-2.608303000">
        <ele>1150.70</ele>
        <time>2016-10-29T08:40:22Z</time>
      </trkpt>
      <trkpt lat="42.347923000" lon="-2.608288000">
        <ele>1150.70</ele>
        <time>2016-10-29T08:40:23Z</time>
      </trkpt>
      <trkpt lat="42.347921000" lon="-2.608273000">
        <ele>1150.50</ele>
        <time>2016-10-29T08:40:24Z</time>
      </trkpt>
      <trkpt lat="42.347922000" lon="-2.608258000">
        <ele>1150.40</ele>
        <time>2016-10-29T08:40:25Z</time>
      </trkpt>
      <trkpt lat="42.347922000" lon="-2.608249000">
        <ele>1150.40</ele>
        <time>2016-10-29T08:40:26Z</time>
      </trkpt>
      <trkpt lat="42.347918000" lon="-2.608241000">
        <ele>1150.30</ele>
        <time>2016-10-29T08:40:27Z</time>
      </trkpt>
      <trkpt lat="42.347914000" lon="-2.608226000">
        <ele>1150.30</ele>
        <time>2016-10-29T08:40:28Z</time>
      </trkpt>
      <trkpt lat="42.347906000" lon="-2.608216000">
        <ele>1150.20</ele>
        <time>2016-10-29T08:40:29Z</time>
      </trkpt>
      <trkpt lat="42.347900000" lon="-2.608207000">
        <ele>1150.20</ele>
        <time>2016-10-29T08:40:30Z</time>
      </trkpt>
      <trkpt lat="42.347890000" lon="-2.608197000">
        <ele>1150.20</ele>
        <time>2016-10-29T08:40:31Z</time>
      </trkpt>
      <trkpt lat="42.347879000" lon="-2.608190000">
        <ele>1150.10</ele>
        <time>2016-10-29T08:40:32Z</time>
      </trkpt>
      <trkpt lat="42.347875000" lon="-2.608182000">
        <ele>1150.00</ele>
        <time>2016-10-29T08:40:33Z</time>
      </trkpt>
      <trkpt lat="42.347869000" lon="-2.608174000">
        <ele>1150.00</ele>
        <time>2016-10-29T08:40:34Z</time>
      </trkpt>
      <trkpt lat="42.347863000" lon="-2.608174000">
        <ele>1149.90</ele>
        <time>2016-10-29T08:40:35Z</time>
      </trkpt>
      <trkpt lat="42.347860000" lon="-2.608166000">
        <ele>1149.80</ele>
        <time>2016-10-29T08:40:36Z</time>
      </trkpt>
      <trkpt lat="42.347850000" lon="-2.608162000">
        <ele>1149.80</ele>
        <time>2016-10-29T08:40:37Z</time>
      </trkpt>
      <trkpt lat="42.347843000" lon="-2.608158000">
        <ele>1149.80</ele>
        <time>2016-10-29T08:40:38Z</time>
      </trkpt>
      <trkpt lat="42.347830000" lon="-2.608153000">
        <ele>1149.90</ele>
        <time>2016-10-29T08:40:39Z</time>
      </trkpt>
      <trkpt lat="42.347818000" lon="-2.608144000">
        <ele>1149.90</ele>
        <time>2016-10-29T08:40:40Z</time>
      </trkpt>
      <trkpt lat="42.347805000" lon="-2.608137000">
        <ele>1149.90</ele>
        <time>2016-10-29T08:40:41Z</time>
      </trkpt>
      <trkpt lat="42.347789000" lon="-2.608131000">
        <ele>1149.90</ele>
        <time>2016-10-29T08:40:42Z</time>
      </trkpt>
      <trkpt lat="42.347773000" lon="-2.608124000">
        <ele>1149.90</ele>
        <time>2016-10-29T08:40:43Z</time>
      </trkpt>
      <trkpt lat="42.347754000" lon="-2.608119000">
        <ele>1150.00</ele>
        <time>2016-10-29T08:40:44Z</time>
      </trkpt>
      <trkpt lat="42.347730000" lon="-2.608115000">
        <ele>1150.10</ele>
        <time>2016-10-29T08:40:45Z</time>
      </trkpt>
      <trkpt lat="42.347702000" lon="-2.608112000">
        <ele>1150.20</ele>
        <time>2016-10-29T08:40:46Z</time>
      </trkpt>
      <trkpt lat="42.347671000" lon="-2.608107000">
        <ele>1150.30</ele>
        <time>2016-10-29T08:40:47Z</time>
      </trkpt>
      <trkpt lat="42.347639000" lon="-2.608105000">
        <ele>1150.20</ele>
        <time>2016-10-29T08:40:48Z</time>
      </trkpt>
      <trkpt lat="42.347602000" lon="-2.608109000">
        <ele>1150.20</ele>
        <time>2016-10-29T08:40:49Z</time>
      </trkpt>
      <trkpt lat="42.347563000" lon="-2.608113000">
        <ele>1150.40</ele>
        <time>2016-10-29T08:40:50Z</time>
      </trkpt>
      <trkpt lat="42.347526000" lon="-2.608116000">
        <ele>1150.50</ele>
        <time>2016-10-29T08:40:51Z</time>
      </trkpt>
      <trkpt lat="42.347491000" lon="-2.608121000">
        <ele>1150.40</ele>
        <time>2016-10-29T08:40:52Z</time>
      </trkpt>
      <trkpt lat="42.347455000" lon="-2.608126000">
        <ele>1150.40</ele>
        <time>2016-10-29T08:40:53Z</time>
      </trkpt>
      <trkpt lat="42.347419000" lon="-2.608129000">
        <ele>1150.40</ele>
        <time>2016-10-29T08:40:54Z</time>
      </trkpt>
      <trkpt lat="42.347381000" lon="-2.608132000">
        <ele>1150.50</ele>
        <time>2016-10-29T08:40:55Z</time>
      </trkpt>
      <trkpt lat="42.347346000" lon="-2.608137000">
        <ele>1150.60</ele>
        <time>2016-10-29T08:40:56Z</time>
      </trkpt>
      <trkpt lat="42.347312000" lon="-2.608138000">
        <ele>1150.60</ele>
        <time>2016-10-29T08:40:57Z</time>
      </trkpt>
      <trkpt lat="42.347280000" lon="-2.608141000">
        <ele>1150.60</ele>
        <time>2016-10-29T08:40:58Z</time>
      </trkpt>
      <trkpt lat="42.347244000" lon="-2.608138000">
        <ele>1150.60</ele>
        <time>2016-10-29T08:40:59Z</time>
      </trkpt>
      <trkpt lat="42.347208000" lon="-2.608134000">
        <ele>1150.70</ele>
        <time>2016-10-29T08:41:00Z</time>
      </trkpt>
      <trkpt lat="42.347173000" lon="-2.608135000">
        <ele>1150.80</ele>
        <time>2016-10-29T08:41:01Z</time>
      </trkpt>
      <trkpt lat="42.347135000" lon="-2.608138000">
        <ele>1151.00</ele>
        <time>2016-10-29T08:41:02Z</time>
      </trkpt>
      <trkpt lat="42.347097000" lon="-2.608132000">
        <ele>1151.20</ele>
        <time>2016-10-29T08:41:03Z</time>
      </trkpt>
      <trkpt lat="42.347059000" lon="-2.608133000">
        <ele>1151.40</ele>
        <time>2016-10-29T08:41:04Z</time>
      </trkpt>
      <trkpt lat="42.347020000" lon="-2.608135000">
        <ele>1151.50</ele>
        <time>2016-10-29T08:41:05Z</time>
      </trkpt>
      <trkpt lat="42.346982000" lon="-2.608137000">
        <ele>1151.50</ele>
        <time>2016-10-29T08:41:06Z</time>
      </trkpt>
      <trkpt lat="42.346943000" lon="-2.608136000">
        <ele>1151.50</ele>
        <time>2016-10-29T08:41:07Z</time>
      </trkpt>
      <trkpt lat="42.346906000" lon="-2.608135000">
        <ele>1151.30</ele>
        <time>2016-10-29T08:41:08Z</time>
      </trkpt>
      <trkpt lat="42.346863000" lon="-2.608138000">
        <ele>1151.10</ele>
        <time>2016-10-29T08:41:09Z</time>
      </trkpt>
      <trkpt lat="42.346820000" lon="-2.608138000">
        <ele>1151.00</ele>
        <time>2016-10-29T08:41:10Z</time>
      </trkpt>
      <trkpt lat="42.346777000" lon="-2.608141000">
        <ele>1150.90</ele>
        <time>2016-10-29T08:41:11Z</time>
      </trkpt>
      <trkpt lat="42.346735000" lon="-2.608146000">
        <ele>1151.10</ele>
        <time>2016-10-29T08:41:12Z</time>
      </trkpt>
      <trkpt lat="42.346693000" lon="-2.608157000">
        <ele>1151.30</ele>
        <time>2016-10-29T08:41:13Z</time>
      </trkpt>
      <trkpt lat="42.346652000" lon="-2.608162000">
        <ele>1151.40</ele>
        <time>2016-10-29T08:41:14Z</time>
      </trkpt>
      <trkpt lat="42.346610000" lon="-2.608162000">
        <ele>1151.50</ele>
        <time>2016-10-29T08:41:15Z</time>
      </trkpt>
      <trkpt lat="42.346566000" lon="-2.608157000">
        <ele>1151.40</ele>
        <time>2016-10-29T08:41:16Z</time>
      </trkpt>
      <trkpt lat="42.346517000" lon="-2.608154000">
        <ele>1151.40</ele>
        <time>2016-10-29T08:41:17Z</time>
      </trkpt>
      <trkpt lat="42.346413000" lon="-2.608144000">
        <ele>1151.30</ele>
        <time>2016-10-29T08:41:19Z</time>
      </trkpt>
      <trkpt lat="42.346358000" lon="-2.608145000">
        <ele>1151.30</ele>
        <time>2016-10-29T08:41:20Z</time>
      </trkpt>
      <trkpt lat="42.346305000" lon="-2.608143000">
        <ele>1151.30</ele>
        <time>2016-10-29T08:41:21Z</time>
      </trkpt>
      <trkpt lat="42.346253000" lon="-2.608140000">
        <ele>1151.10</ele>
        <time>2016-10-29T08:41:22Z</time>
      </trkpt>
      <trkpt lat="42.346202000" lon="-2.608140000">
        <ele>1151.00</ele>
        <time>2016-10-29T08:41:23Z</time>
      </trkpt>
      <trkpt lat="42.346148000" lon="-2.608145000">
        <ele>1150.80</ele>
        <time>2016-10-29T08:41:24Z</time>
      </trkpt>
      <trkpt lat="42.346095000" lon="-2.608150000">
        <ele>1150.60</ele>
        <time>2016-10-29T08:41:25Z</time>
      </trkpt>
      <trkpt lat="42.346042000" lon="-2.608152000">
        <ele>1150.50</ele>
        <time>2016-10-29T08:41:26Z</time>
      </trkpt>
      <trkpt lat="42.345991000" lon="-2.608152000">
        <ele>1150.40</ele>
        <time>2016-10-29T08:41:27Z</time>
      </trkpt>
      <trkpt lat="42.345941000" lon="-2.608147000">
        <ele>1150.30</ele>
        <time>2016-10-29T08:41:28Z</time>
      </trkpt>
      <trkpt lat="42.345891000" lon="-2.608141000">
        <ele>1150.30</ele>
        <time>2016-10-29T08:41:29Z</time>
      </trkpt>
      <trkpt lat="42.345838000" lon="-2.608136000">
        <ele>1149.90</ele>
        <time>2016-10-29T08:41:30Z</time>
      </trkpt>
      <trkpt lat="42.345789000" lon="-2.608135000">
        <ele>1149.60</ele>
        <time>2016-10-29T08:41:31Z</time>
      </trkpt>
      <trkpt lat="42.345735000" lon="-2.608126000">
        <ele>1149.40</ele>
        <time>2016-10-29T08:41:32Z</time>
      </trkpt>
      <trkpt lat="42.345680000" lon="-2.608117000">
        <ele>1149.30</ele>
        <time>2016-10-29T08:41:33Z</time>
      </trkpt>
      <trkpt lat="42.345624000" lon="-2.608105000">
        <ele>1149.10</ele>
        <time>2016-10-29T08:41:34Z</time>
      </trkpt>
      <trkpt lat="42.345567000" lon="-2.608090000">
        <ele>1148.90</ele>
        <time>2016-10-29T08:41:35Z</time>
      </trkpt>
      <trkpt lat="42.345509000" lon="-2.608073000">
        <ele>1148.70</ele>
        <time>2016-10-29T08:41:36Z</time>
      </trkpt>
      <trkpt lat="42.345452000" lon="-2.608062000">
        <ele>1148.60</ele>
        <time>2016-10-29T08:41:37Z</time>
      </trkpt>
      <trkpt lat="42.345397000" lon="-2.608052000">
        <ele>1148.20</ele>
        <time>2016-10-29T08:41:38Z</time>
      </trkpt>
      <trkpt lat="42.345345000" lon="-2.608038000">
        <ele>1148.00</ele>
        <time>2016-10-29T08:41:39Z</time>
      </trkpt>
      <trkpt lat="42.345296000" lon="-2.608025000">
        <ele>1147.50</ele>
        <time>2016-10-29T08:41:40Z</time>
      </trkpt>
      <trkpt lat="42.345255000" lon="-2.608012000">
        <ele>1147.20</ele>
        <time>2016-10-29T08:41:41Z</time>
      </trkpt>
      <trkpt lat="42.345219000" lon="-2.607995000">
        <ele>1147.00</ele>
        <time>2016-10-29T08:41:42Z</time>
      </trkpt>
      <trkpt lat="42.345184000" lon="-2.607972000">
        <ele>1146.80</ele>
        <time>2016-10-29T08:41:43Z</time>
      </trkpt>
      <trkpt lat="42.345147000" lon="-2.607945000">
        <ele>1146.60</ele>
        <time>2016-10-29T08:41:44Z</time>
      </trkpt>
      <trkpt lat="42.345113000" lon="-2.607910000">
        <ele>1146.50</ele>
        <time>2016-10-29T08:41:45Z</time>
      </trkpt>
      <trkpt lat="42.345080000" lon="-2.607875000">
        <ele>1146.00</ele>
        <time>2016-10-29T08:41:46Z</time>
      </trkpt>
      <trkpt lat="42.345049000" lon="-2.607836000">
        <ele>1145.70</ele>
        <time>2016-10-29T08:41:47Z</time>
      </trkpt>
      <trkpt lat="42.345025000" lon="-2.607797000">
        <ele>1145.40</ele>
        <time>2016-10-29T08:41:48Z</time>
      </trkpt>
      <trkpt lat="42.345006000" lon="-2.607765000">
        <ele>1145.20</ele>
        <time>2016-10-29T08:41:49Z</time>
      </trkpt>
      <trkpt lat="42.344995000" lon="-2.607736000">
        <ele>1144.90</ele>
        <time>2016-10-29T08:41:50Z</time>
      </trkpt>
      <trkpt lat="42.344989000" lon="-2.607711000">
        <ele>1144.80</ele>
        <time>2016-10-29T08:41:51Z</time>
      </trkpt>
      <trkpt lat="42.344991000" lon="-2.607706000">
        <ele>1144.60</ele>
        <time>2016-10-29T08:41:52Z</time>
      </trkpt>
      <trkpt lat="42.344990000" lon="-2.607704000">
        <ele>1144.50</ele>
        <time>2016-10-29T08:41:53Z</time>
      </trkpt>
      <trkpt lat="42.344986000" lon="-2.607701000">
        <ele>1144.40</ele>
        <time>2016-10-29T08:41:54Z</time>
      </trkpt>
      <trkpt lat="42.344984000" lon="-2.607700000">
        <ele>1144.30</ele>
        <time>2016-10-29T08:41:55Z</time>
      </trkpt>
      <trkpt lat="42.344984000" lon="-2.607700000">
        <ele>1144.20</ele>
        <time>2016-10-29T08:41:56Z</time>
      </trkpt>
      <trkpt lat="42.344984000" lon="-2.607699000">
        <ele>1144.10</ele>
        <time>2016-10-29T08:41:57Z</time>
      </trkpt>
      <trkpt lat="42.344984000" lon="-2.607705000">
        <ele>1144.10</ele>
        <time>2016-10-29T08:41:58Z</time>
      </trkpt>
      <trkpt lat="42.344985000" lon="-2.607714000">
        <ele>1144.00</ele>
        <time>2016-10-29T08:41:59Z</time>
      </trkpt>
      <trkpt lat="42.344983000" lon="-2.607719000">
        <ele>1144.00</ele>
        <time>2016-10-29T08:42:00Z</time>
      </trkpt>
      <trkpt lat="42.344983000" lon="-2.607723000">
        <ele>1144.00</ele>
        <time>2016-10-29T08:42:01Z</time>
      </trkpt>
      <trkpt lat="42.344983000" lon="-2.607728000">
        <ele>1143.90</ele>
        <time>2016-10-29T08:42:02Z</time>
      </trkpt>
      <trkpt lat="42.344983000" lon="-2.607731000">
        <ele>1143.80</ele>
        <time>2016-10-29T08:42:03Z</time>
      </trkpt>
      <trkpt lat="42.344983000" lon="-2.607735000">
        <ele>1143.90</ele>
        <time>2016-10-29T08:42:04Z</time>
      </trkpt>
      <trkpt lat="42.344983000" lon="-2.607737000">
        <ele>1144.00</ele>
        <time>2016-10-29T08:42:05Z</time>
      </trkpt>
      <trkpt lat="42.344984000" lon="-2.607737000">
        <ele>1144.10</ele>
        <time>2016-10-29T08:42:06Z</time>
      </trkpt>
      <trkpt lat="42.344984000" lon="-2.607736000">
        <ele>1144.10</ele>
        <time>2016-10-29T08:42:07Z</time>
      </trkpt>
      <trkpt lat="42.344983000" lon="-2.607735000">
        <ele>1144.10</ele>
        <time>2016-10-29T08:42:08Z</time>
      </trkpt>
      <trkpt lat="42.344985000" lon="-2.607734000">
        <ele>1144.10</ele>
        <time>2016-10-29T08:42:09Z</time>
      </trkpt>
      <trkpt lat="42.344986000" lon="-2.607732000">
        <ele>1144.20</ele>
        <time>2016-10-29T08:42:10Z</time>
      </trkpt>
      <trkpt lat="42.344986000" lon="-2.607731000">
        <ele>1144.20</ele>
        <time>2016-10-29T08:42:11Z</time>
      </trkpt>
      <trkpt lat="42.344986000" lon="-2.607729000">
        <ele>1144.00</ele>
        <time>2016-10-29T08:42:12Z</time>
      </trkpt>
      <trkpt lat="42.344986000" lon="-2.607726000">
        <ele>1143.80</ele>
        <time>2016-10-29T08:42:13Z</time>
      </trkpt>
      <trkpt lat="42.344986000" lon="-2.607724000">
        <ele>1143.70</ele>
        <time>2016-10-29T08:42:14Z</time>
      </trkpt>
      <trkpt lat="42.344986000" lon="-2.607722000">
        <ele>1143.60</ele>
        <time>2016-10-29T08:42:15Z</time>
      </trkpt>
      <trkpt lat="42.344986000" lon="-2.607720000">
        <ele>1143.60</ele>
        <time>2016-10-29T08:42:16Z</time>
      </trkpt>
      <trkpt lat="42.344986000" lon="-2.607716000">
        <ele>1143.50</ele>
        <time>2016-10-29T08:42:17Z</time>
      </trkpt>
      <trkpt lat="42.344985000" lon="-2.607715000">
        <ele>1143.60</ele>
        <time>2016-10-29T08:42:18Z</time>
      </trkpt>
      <trkpt lat="42.344983000" lon="-2.607711000">
        <ele>1143.80</ele>
        <time>2016-10-29T08:42:20Z</time>
      </trkpt>
      <trkpt lat="42.344983000" lon="-2.607710000">
        <ele>1143.80</ele>
        <time>2016-10-29T08:42:21Z</time>
      </trkpt>
      <trkpt lat="42.344983000" lon="-2.607709000">
        <ele>1143.80</ele>
        <time>2016-10-29T08:42:22Z</time>
      </trkpt>
      <trkpt lat="42.344982000" lon="-2.607709000">
        <ele>1143.70</ele>
        <time>2016-10-29T08:42:23Z</time>
      </trkpt>
      <trkpt lat="42.344981000" lon="-2.607709000">
        <ele>1143.60</ele>
        <time>2016-10-29T08:42:24Z</time>
      </trkpt>
      <trkpt lat="42.344979000" lon="-2.607708000">
        <ele>1143.60</ele>
        <time>2016-10-29T08:42:25Z</time>
      </trkpt>
      <trkpt lat="42.344979000" lon="-2.607708000">
        <ele>1143.50</ele>
        <time>2016-10-29T08:42:26Z</time>
      </trkpt>
      <trkpt lat="42.344978000" lon="-2.607708000">
        <ele>1143.50</ele>
        <time>2016-10-29T08:42:27Z</time>
      </trkpt>
      <trkpt lat="42.344977000" lon="-2.607708000">
        <ele>1143.50</ele>
        <time>2016-10-29T08:42:28Z</time>
      </trkpt>
      <trkpt lat="42.344976000" lon="-2.607708000">
        <ele>1143.50</ele>
        <time>2016-10-29T08:42:29Z</time>
      </trkpt>
      <trkpt lat="42.344976000" lon="-2.607707000">
        <ele>1143.50</ele>
        <time>2016-10-29T08:42:30Z</time>
      </trkpt>
      <trkpt lat="42.344975000" lon="-2.607706000">
        <ele>1143.50</ele>
        <time>2016-10-29T08:42:31Z</time>
      </trkpt>
      <trkpt lat="42.344975000" lon="-2.607705000">
        <ele>1143.50</ele>
        <time>2016-10-29T08:42:32Z</time>
      </trkpt>
      <trkpt lat="42.344975000" lon="-2.607705000">
        <ele>1143.50</ele>
        <time>2016-10-29T08:42:33Z</time>
      </trkpt>
      <trkpt lat="42.344975000" lon="-2.607704000">
        <ele>1143.50</ele>
        <time>2016-10-29T08:42:34Z</time>
      </trkpt>
      <trkpt lat="42.344974000" lon="-2.607703000">
        <ele>1143.50</ele>
        <time>2016-10-29T08:42:35Z</time>
      </trkpt>
      <trkpt lat="42.344974000" lon="-2.607702000">
        <ele>1143.50</ele>
        <time>2016-10-29T08:42:36Z</time>
      </trkpt>
      <trkpt lat="42.344973000" lon="-2.607701000">
        <ele>1143.50</ele>
        <time>2016-10-29T08:42:37Z</time>
      </trkpt>
      <trkpt lat="42.344973000" lon="-2.607700000">
        <ele>1143.40</ele>
        <time>2016-10-29T08:42:38Z</time>
      </trkpt>
      <trkpt lat="42.344972000" lon="-2.607699000">
        <ele>1143.40</ele>
        <time>2016-10-29T08:42:39Z</time>
      </trkpt>
      <trkpt lat="42.344972000" lon="-2.607699000">
        <ele>1143.40</ele>
        <time>2016-10-29T08:42:40Z</time>
      </trkpt>
      <trkpt lat="42.344971000" lon="-2.607698000">
        <ele>1143.30</ele>
        <time>2016-10-29T08:42:41Z</time>
      </trkpt>
      <trkpt lat="42.344972000" lon="-2.607697000">
        <ele>1143.30</ele>
        <time>2016-10-29T08:42:42Z</time>
      </trkpt>
      <trkpt lat="42.344972000" lon="-2.607696000">
        <ele>1143.30</ele>
        <time>2016-10-29T08:42:43Z</time>
      </trkpt>
      <trkpt lat="42.344972000" lon="-2.607696000">
        <ele>1143.30</ele>
        <time>2016-10-29T08:42:44Z</time>
      </trkpt>
      <trkpt lat="42.344973000" lon="-2.607696000">
        <ele>1143.30</ele>
        <time>2016-10-29T08:42:45Z</time>
      </trkpt>
      <trkpt lat="42.344973000" lon="-2.607695000">
        <ele>1143.40</ele>
        <time>2016-10-29T08:42:46Z</time>
      </trkpt>
      <trkpt lat="42.344973000" lon="-2.607694000">
        <ele>1143.50</ele>
        <time>2016-10-29T08:42:47Z</time>
      </trkpt>
      <trkpt lat="42.344973000" lon="-2.607694000">
        <ele>1143.60</ele>
        <time>2016-10-29T08:42:48Z</time>
      </trkpt>
      <trkpt lat="42.344973000" lon="-2.607693000">
        <ele>1143.70</ele>
        <time>2016-10-29T08:42:49Z</time>
      </trkpt>
      <trkpt lat="42.344973000" lon="-2.607693000">
        <ele>1143.70</ele>
        <time>2016-10-29T08:42:50Z</time>
      </trkpt>
      <trkpt lat="42.344973000" lon="-2.607693000">
        <ele>1143.80</ele>
        <time>2016-10-29T08:42:51Z</time>
      </trkpt>
      <trkpt lat="42.344972000" lon="-2.607693000">
        <ele>1143.80</ele>
        <time>2016-10-29T08:42:52Z</time>
      </trkpt>
      <trkpt lat="42.344972000" lon="-2.607693000">
        <ele>1143.80</ele>
        <time>2016-10-29T08:42:53Z</time>
      </trkpt>
      <trkpt lat="42.344977000" lon="-2.607691000">
        <ele>1143.70</ele>
        <time>2016-10-29T08:42:54Z</time>
      </trkpt>
      <trkpt lat="42.344984000" lon="-2.607688000">
        <ele>1143.60</ele>
        <time>2016-10-29T08:42:55Z</time>
      </trkpt>
      <trkpt lat="42.344991000" lon="-2.607683000">
        <ele>1143.60</ele>
        <time>2016-10-29T08:42:56Z</time>
      </trkpt>
      <trkpt lat="42.345008000" lon="-2.607673000">
        <ele>1143.70</ele>
        <time>2016-10-29T08:42:57Z</time>
      </trkpt>
      <trkpt lat="42.345023000" lon="-2.607653000">
        <ele>1143.70</ele>
        <time>2016-10-29T08:42:58Z</time>
      </trkpt>
      <trkpt lat="42.345044000" lon="-2.607640000">
        <ele>1143.70</ele>
        <time>2016-10-29T08:42:59Z</time>
      </trkpt>
      <trkpt lat="42.345062000" lon="-2.607630000">
        <ele>1143.70</ele>
        <time>2016-10-29T08:43:00Z</time>
      </trkpt>
      <trkpt lat="42.345080000" lon="-2.607622000">
        <ele>1143.70</ele>
        <time>2016-10-29T08:43:01Z</time>
      </trkpt>
      <trkpt lat="42.345100000" lon="-2.607621000">
        <ele>1143.70</ele>
        <time>2016-10-29T08:43:02Z</time>
      </trkpt>
      <trkpt lat="42.345132000" lon="-2.607621000">
        <ele>1143.70</ele>
        <time>2016-10-29T08:43:03Z</time>
      </trkpt>
      <trkpt lat="42.345161000" lon="-2.607637000">
        <ele>1143.60</ele>
        <time>2016-10-29T08:43:04Z</time>
      </trkpt>
      <trkpt lat="42.345186000" lon="-2.607662000">
        <ele>1143.40</ele>
        <time>2016-10-29T08:43:05Z</time>
      </trkpt>
      <trkpt lat="42.345213000" lon="-2.607692000">
        <ele>1143.00</ele>
        <time>2016-10-29T08:43:06Z</time>
      </trkpt>
      <trkpt lat="42.345240000" lon="-2.607718000">
        <ele>1142.80</ele>
        <time>2016-10-29T08:43:07Z</time>
      </trkpt>
      <trkpt lat="42.345264000" lon="-2.607744000">
        <ele>1142.50</ele>
        <time>2016-10-29T08:43:08Z</time>
      </trkpt>
      <trkpt lat="42.345279000" lon="-2.607760000">
        <ele>1142.30</ele>
        <time>2016-10-29T08:43:09Z</time>
      </trkpt>
      <trkpt lat="42.345303000" lon="-2.607765000">
        <ele>1142.10</ele>
        <time>2016-10-29T08:43:10Z</time>
      </trkpt>
      <trkpt lat="42.345332000" lon="-2.607767000">
        <ele>1141.90</ele>
        <time>2016-10-29T08:43:11Z</time>
      </trkpt>
      <trkpt lat="42.345366000" lon="-2.607771000">
        <ele>1141.80</ele>
        <time>2016-10-29T08:43:12Z</time>
      </trkpt>
      <trkpt lat="42.345395000" lon="-2.607777000">
        <ele>1141.70</ele>
        <time>2016-10-29T08:43:13Z</time>
      </trkpt>
      <trkpt lat="42.345425000" lon="-2.607779000">
        <ele>1141.60</ele>
        <time>2016-10-29T08:43:14Z</time>
      </trkpt>
      <trkpt lat="42.345460000" lon="-2.607770000">
        <ele>1141.50</ele>
        <time>2016-10-29T08:43:15Z</time>
      </trkpt>
      <trkpt lat="42.345501000" lon="-2.607764000">
        <ele>1141.10</ele>
        <time>2016-10-29T08:43:16Z</time>
      </trkpt>
      <trkpt lat="42.345543000" lon="-2.607760000">
        <ele>1140.70</ele>
        <time>2016-10-29T08:43:17Z</time>
      </trkpt>
      <trkpt lat="42.345577000" lon="-2.607759000">
        <ele>1140.30</ele>
        <time>2016-10-29T08:43:18Z</time>
      </trkpt>
      <trkpt lat="42.345611000" lon="-2.607752000">
        <ele>1139.90</ele>
        <time>2016-10-29T08:43:19Z</time>
      </trkpt>
      <trkpt lat="42.345677000" lon="-2.607728000">
        <ele>1138.90</ele>
        <time>2016-10-29T08:43:21Z</time>
      </trkpt>
      <trkpt lat="42.345698000" lon="-2.607720000">
        <ele>1138.60</ele>
        <time>2016-10-29T08:43:22Z</time>
      </trkpt>
      <trkpt lat="42.345716000" lon="-2.607713000">
        <ele>1138.30</ele>
        <time>2016-10-29T08:43:23Z</time>
      </trkpt>
      <trkpt lat="42.345733000" lon="-2.607710000">
        <ele>1137.70</ele>
        <time>2016-10-29T08:43:24Z</time>
      </trkpt>
      <trkpt lat="42.345746000" lon="-2.607711000">
        <ele>1137.20</ele>
        <time>2016-10-29T08:43:25Z</time>
      </trkpt>
      <trkpt lat="42.345758000" lon="-2.607705000">
        <ele>1136.80</ele>
        <time>2016-10-29T08:43:26Z</time>
      </trkpt>
      <trkpt lat="42.345774000" lon="-2.607698000">
        <ele>1136.50</ele>
        <time>2016-10-29T08:43:27Z</time>
      </trkpt>
      <trkpt lat="42.345787000" lon="-2.607693000">
        <ele>1136.40</ele>
        <time>2016-10-29T08:43:28Z</time>
      </trkpt>
      <trkpt lat="42.345795000" lon="-2.607689000">
        <ele>1136.20</ele>
        <time>2016-10-29T08:43:29Z</time>
      </trkpt>
      <trkpt lat="42.345806000" lon="-2.607682000">
        <ele>1136.10</ele>
        <time>2016-10-29T08:43:30Z</time>
      </trkpt>
      <trkpt lat="42.345809000" lon="-2.607681000">
        <ele>1136.00</ele>
        <time>2016-10-29T08:43:31Z</time>
      </trkpt>
      <trkpt lat="42.345808000" lon="-2.607676000">
        <ele>1135.90</ele>
        <time>2016-10-29T08:43:32Z</time>
      </trkpt>
      <trkpt lat="42.345809000" lon="-2.607675000">
        <ele>1135.80</ele>
        <time>2016-10-29T08:43:33Z</time>
      </trkpt>
      <trkpt lat="42.345810000" lon="-2.607673000">
        <ele>1135.70</ele>
        <time>2016-10-29T08:43:34Z</time>
      </trkpt>
      <trkpt lat="42.345818000" lon="-2.607670000">
        <ele>1135.60</ele>
        <time>2016-10-29T08:43:35Z</time>
      </trkpt>
      <trkpt lat="42.345833000" lon="-2.607667000">
        <ele>1135.50</ele>
        <time>2016-10-29T08:43:36Z</time>
      </trkpt>
      <trkpt lat="42.345846000" lon="-2.607658000">
        <ele>1135.50</ele>
        <time>2016-10-29T08:43:37Z</time>
      </trkpt>
      <trkpt lat="42.345855000" lon="-2.607654000">
        <ele>1135.30</ele>
        <time>2016-10-29T08:43:38Z</time>
      </trkpt>
      <trkpt lat="42.345860000" lon="-2.607652000">
        <ele>1135.10</ele>
        <time>2016-10-29T08:43:39Z</time>
      </trkpt>
      <trkpt lat="42.345869000" lon="-2.607643000">
        <ele>1134.80</ele>
        <time>2016-10-29T08:43:40Z</time>
      </trkpt>
      <trkpt lat="42.345876000" lon="-2.607633000">
        <ele>1134.60</ele>
        <time>2016-10-29T08:43:41Z</time>
      </trkpt>
      <trkpt lat="42.345887000" lon="-2.607620000">
        <ele>1134.40</ele>
        <time>2016-10-29T08:43:42Z</time>
      </trkpt>
      <trkpt lat="42.345893000" lon="-2.607616000">
        <ele>1134.20</ele>
        <time>2016-10-29T08:43:43Z</time>
      </trkpt>
      <trkpt lat="42.345901000" lon="-2.607613000">
        <ele>1133.90</ele>
        <time>2016-10-29T08:43:44Z</time>
      </trkpt>
      <trkpt lat="42.345907000" lon="-2.607617000">
        <ele>1133.60</ele>
        <time>2016-10-29T08:43:45Z</time>
      </trkpt>
      <trkpt lat="42.345912000" lon="-2.607621000">
        <ele>1133.40</ele>
        <time>2016-10-29T08:43:46Z</time>
      </trkpt>
      <trkpt lat="42.345917000" lon="-2.607624000">
        <ele>1133.20</ele>
        <time>2016-10-29T08:43:47Z</time>
      </trkpt>
      <trkpt lat="42.345925000" lon="-2.607621000">
        <ele>1133.10</ele>
        <time>2016-10-29T08:43:48Z</time>
      </trkpt>
      <trkpt lat="42.345935000" lon="-2.607617000">
        <ele>1133.00</ele>
        <time>2016-10-29T08:43:49Z</time>
      </trkpt>
      <trkpt lat="42.345946000" lon="-2.607616000">
        <ele>1133.00</ele>
        <time>2016-10-29T08:43:50Z</time>
      </trkpt>
      <trkpt lat="42.345964000" lon="-2.607607000">
        <ele>1132.90</ele>
        <time>2016-10-29T08:43:51Z</time>
      </trkpt>
      <trkpt lat="42.345984000" lon="-2.607596000">
        <ele>1132.90</ele>
        <time>2016-10-29T08:43:52Z</time>
      </trkpt>
      <trkpt lat="42.346010000" lon="-2.607580000">
        <ele>1132.90</ele>
        <time>2016-10-29T08:43:53Z</time>
      </trkpt>
      <trkpt lat="42.346044000" lon="-2.607561000">
        <ele>1132.70</ele>
        <time>2016-10-29T08:43:54Z</time>
      </trkpt>
      <trkpt lat="42.346081000" lon="-2.607536000">
        <ele>1132.50</ele>
        <time>2016-10-29T08:43:55Z</time>
      </trkpt>
      <trkpt lat="42.346124000" lon="-2.607499000">
        <ele>1132.10</ele>
        <time>2016-10-29T08:43:56Z</time>
      </trkpt>
      <trkpt lat="42.346173000" lon="-2.607465000">
        <ele>1131.80</ele>
        <time>2016-10-29T08:43:57Z</time>
      </trkpt>
      <trkpt lat="42.346225000" lon="-2.607427000">
        <ele>1131.50</ele>
        <time>2016-10-29T08:43:58Z</time>
      </trkpt>
      <trkpt lat="42.346278000" lon="-2.607391000">
        <ele>1131.30</ele>
        <time>2016-10-29T08:43:59Z</time>
      </trkpt>
      <trkpt lat="42.346337000" lon="-2.607358000">
        <ele>1130.60</ele>
        <time>2016-10-29T08:44:00Z</time>
      </trkpt>
      <trkpt lat="42.346394000" lon="-2.607328000">
        <ele>1130.10</ele>
        <time>2016-10-29T08:44:01Z</time>
      </trkpt>
      <trkpt lat="42.346452000" lon="-2.607299000">
        <ele>1129.60</ele>
        <time>2016-10-29T08:44:02Z</time>
      </trkpt>
      <trkpt lat="42.346510000" lon="-2.607276000">
        <ele>1129.30</ele>
        <time>2016-10-29T08:44:03Z</time>
      </trkpt>
      <trkpt lat="42.346566000" lon="-2.607261000">
        <ele>1128.30</ele>
        <time>2016-10-29T08:44:04Z</time>
      </trkpt>
      <trkpt lat="42.346622000" lon="-2.607242000">
        <ele>1127.50</ele>
        <time>2016-10-29T08:44:05Z</time>
      </trkpt>
      <trkpt lat="42.346672000" lon="-2.607220000">
        <ele>1126.40</ele>
        <time>2016-10-29T08:44:06Z</time>
      </trkpt>
      <trkpt lat="42.346721000" lon="-2.607194000">
        <ele>1125.50</ele>
        <time>2016-10-29T08:44:07Z</time>
      </trkpt>
      <trkpt lat="42.346770000" lon="-2.607162000">
        <ele>1124.40</ele>
        <time>2016-10-29T08:44:08Z</time>
      </trkpt>
      <trkpt lat="42.346820000" lon="-2.607124000">
        <ele>1123.60</ele>
        <time>2016-10-29T08:44:09Z</time>
      </trkpt>
      <trkpt lat="42.346868000" lon="-2.607090000">
        <ele>1122.80</ele>
        <time>2016-10-29T08:44:10Z</time>
      </trkpt>
      <trkpt lat="42.346916000" lon="-2.607058000">
        <ele>1122.10</ele>
        <time>2016-10-29T08:44:11Z</time>
      </trkpt>
      <trkpt lat="42.346970000" lon="-2.607031000">
        <ele>1121.20</ele>
        <time>2016-10-29T08:44:12Z</time>
      </trkpt>
      <trkpt lat="42.347024000" lon="-2.607015000">
        <ele>1120.60</ele>
        <time>2016-10-29T08:44:13Z</time>
      </trkpt>
      <trkpt lat="42.347071000" lon="-2.606985000">
        <ele>1119.70</ele>
        <time>2016-10-29T08:44:14Z</time>
      </trkpt>
      <trkpt lat="42.347119000" lon="-2.606960000">
        <ele>1119.10</ele>
        <time>2016-10-29T08:44:15Z</time>
      </trkpt>
      <trkpt lat="42.347171000" lon="-2.606934000">
        <ele>1118.30</ele>
        <time>2016-10-29T08:44:16Z</time>
      </trkpt>
      <trkpt lat="42.347225000" lon="-2.606913000">
        <ele>1117.70</ele>
        <time>2016-10-29T08:44:17Z</time>
      </trkpt>
      <trkpt lat="42.347280000" lon="-2.606890000">
        <ele>1116.80</ele>
        <time>2016-10-29T08:44:18Z</time>
      </trkpt>
      <trkpt lat="42.347333000" lon="-2.606868000">
        <ele>1116.20</ele>
        <time>2016-10-29T08:44:19Z</time>
      </trkpt>
      <trkpt lat="42.347377000" lon="-2.606836000">
        <ele>1115.60</ele>
        <time>2016-10-29T08:44:20Z</time>
      </trkpt>
      <trkpt lat="42.347454000" lon="-2.606782000">
        <ele>1114.30</ele>
        <time>2016-10-29T08:44:22Z</time>
      </trkpt>
      <trkpt lat="42.347497000" lon="-2.606751000">
        <ele>1113.60</ele>
        <time>2016-10-29T08:44:23Z</time>
      </trkpt>
      <trkpt lat="42.347549000" lon="-2.606724000">
        <ele>1112.70</ele>
        <time>2016-10-29T08:44:24Z</time>
      </trkpt>
      <trkpt lat="42.347605000" lon="-2.606694000">
        <ele>1112.00</ele>
        <time>2016-10-29T08:44:25Z</time>
      </trkpt>
      <trkpt lat="42.347652000" lon="-2.606665000">
        <ele>1111.20</ele>
        <time>2016-10-29T08:44:26Z</time>
      </trkpt>
      <trkpt lat="42.347695000" lon="-2.606640000">
        <ele>1110.70</ele>
        <time>2016-10-29T08:44:27Z</time>
      </trkpt>
      <trkpt lat="42.347730000" lon="-2.606615000">
        <ele>1110.10</ele>
        <time>2016-10-29T08:44:28Z</time>
      </trkpt>
      <trkpt lat="42.347766000" lon="-2.606588000">
        <ele>1109.60</ele>
        <time>2016-10-29T08:44:29Z</time>
      </trkpt>
      <trkpt lat="42.347803000" lon="-2.606565000">
        <ele>1108.80</ele>
        <time>2016-10-29T08:44:30Z</time>
      </trkpt>
      <trkpt lat="42.347848000" lon="-2.606540000">
        <ele>1108.10</ele>
        <time>2016-10-29T08:44:31Z</time>
      </trkpt>
      <trkpt lat="42.347900000" lon="-2.606522000">
        <ele>1107.40</ele>
        <time>2016-10-29T08:44:32Z</time>
      </trkpt>
      <trkpt lat="42.347952000" lon="-2.606507000">
        <ele>1106.90</ele>
        <time>2016-10-29T08:44:33Z</time>
      </trkpt>
      <trkpt lat="42.348002000" lon="-2.606487000">
        <ele>1106.40</ele>
        <time>2016-10-29T08:44:34Z</time>
      </trkpt>
      <trkpt lat="42.348044000" lon="-2.606473000">
        <ele>1106.10</ele>
        <time>2016-10-29T08:44:35Z</time>
      </trkpt>
      <trkpt lat="42.348083000" lon="-2.606463000">
        <ele>1105.40</ele>
        <time>2016-10-29T08:44:36Z</time>
      </trkpt>
      <trkpt lat="42.348119000" lon="-2.606456000">
        <ele>1105.00</ele>
        <time>2016-10-29T08:44:37Z</time>
      </trkpt>
      <trkpt lat="42.348167000" lon="-2.606433000">
        <ele>1104.30</ele>
        <time>2016-10-29T08:44:38Z</time>
      </trkpt>
      <trkpt lat="42.348218000" lon="-2.606408000">
        <ele>1103.80</ele>
        <time>2016-10-29T08:44:39Z</time>
      </trkpt>
      <trkpt lat="42.348265000" lon="-2.606376000">
        <ele>1103.10</ele>
        <time>2016-10-29T08:44:40Z</time>
      </trkpt>
      <trkpt lat="42.348310000" lon="-2.606345000">
        <ele>1102.60</ele>
        <time>2016-10-29T08:44:41Z</time>
      </trkpt>
      <trkpt lat="42.348354000" lon="-2.606315000">
        <ele>1101.70</ele>
        <time>2016-10-29T08:44:42Z</time>
      </trkpt>
      <trkpt lat="42.348403000" lon="-2.606288000">
        <ele>1101.00</ele>
        <time>2016-10-29T08:44:43Z</time>
      </trkpt>
      <trkpt lat="42.348451000" lon="-2.606270000">
        <ele>1100.00</ele>
        <time>2016-10-29T08:44:44Z</time>
      </trkpt>
      <trkpt lat="42.348498000" lon="-2.606254000">
        <ele>1099.30</ele>
        <time>2016-10-29T08:44:45Z</time>
      </trkpt>
      <trkpt lat="42.348542000" lon="-2.606246000">
        <ele>1098.70</ele>
        <time>2016-10-29T08:44:46Z</time>
      </trkpt>
      <trkpt lat="42.348580000" lon="-2.606239000">
        <ele>1098.30</ele>
        <time>2016-10-29T08:44:47Z</time>
      </trkpt>
      <trkpt lat="42.348611000" lon="-2.606242000">
        <ele>1097.50</ele>
        <time>2016-10-29T08:44:48Z</time>
      </trkpt>
      <trkpt lat="42.348637000" lon="-2.606246000">
        <ele>1097.00</ele>
        <time>2016-10-29T08:44:49Z</time>
      </trkpt>
      <trkpt lat="42.348659000" lon="-2.606255000">
        <ele>1096.50</ele>
        <time>2016-10-29T08:44:50Z</time>
      </trkpt>
      <trkpt lat="42.348681000" lon="-2.606255000">
        <ele>1096.20</ele>
        <time>2016-10-29T08:44:51Z</time>
      </trkpt>
      <trkpt lat="42.348707000" lon="-2.606255000">
        <ele>1095.90</ele>
        <time>2016-10-29T08:44:52Z</time>
      </trkpt>
      <trkpt lat="42.348734000" lon="-2.606257000">
        <ele>1095.70</ele>
        <time>2016-10-29T08:44:53Z</time>
      </trkpt>
      <trkpt lat="42.348766000" lon="-2.606259000">
        <ele>1095.50</ele>
        <time>2016-10-29T08:44:54Z</time>
      </trkpt>
      <trkpt lat="42.348795000" lon="-2.606251000">
        <ele>1095.30</ele>
        <time>2016-10-29T08:44:55Z</time>
      </trkpt>
      <trkpt lat="42.348827000" lon="-2.606239000">
        <ele>1095.30</ele>
        <time>2016-10-29T08:44:56Z</time>
      </trkpt>
      <trkpt lat="42.348863000" lon="-2.606224000">
        <ele>1095.20</ele>
        <time>2016-10-29T08:44:57Z</time>
      </trkpt>
      <trkpt lat="42.348900000" lon="-2.606208000">
        <ele>1095.20</ele>
        <time>2016-10-29T08:44:58Z</time>
      </trkpt>
      <trkpt lat="42.348938000" lon="-2.606181000">
        <ele>1095.20</ele>
        <time>2016-10-29T08:44:59Z</time>
      </trkpt>
      <trkpt lat="42.348979000" lon="-2.606139000">
        <ele>1095.10</ele>
        <time>2016-10-29T08:45:00Z</time>
      </trkpt>
      <trkpt lat="42.349021000" lon="-2.606092000">
        <ele>1095.00</ele>
        <time>2016-10-29T08:45:01Z</time>
      </trkpt>
      <trkpt lat="42.349064000" lon="-2.606041000">
        <ele>1094.90</ele>
        <time>2016-10-29T08:45:02Z</time>
      </trkpt>
      <trkpt lat="42.349109000" lon="-2.605983000">
        <ele>1094.80</ele>
        <time>2016-10-29T08:45:03Z</time>
      </trkpt>
      <trkpt lat="42.349153000" lon="-2.605924000">
        <ele>1094.30</ele>
        <time>2016-10-29T08:45:04Z</time>
      </trkpt>
      <trkpt lat="42.349196000" lon="-2.605862000">
        <ele>1093.80</ele>
        <time>2016-10-29T08:45:05Z</time>
      </trkpt>
      <trkpt lat="42.349240000" lon="-2.605800000">
        <ele>1093.10</ele>
        <time>2016-10-29T08:45:06Z</time>
      </trkpt>
      <trkpt lat="42.349282000" lon="-2.605752000">
        <ele>1092.60</ele>
        <time>2016-10-29T08:45:07Z</time>
      </trkpt>
      <trkpt lat="42.349315000" lon="-2.605708000">
        <ele>1092.00</ele>
        <time>2016-10-29T08:45:08Z</time>
      </trkpt>
      <trkpt lat="42.349339000" lon="-2.605673000">
        <ele>1091.50</ele>
        <time>2016-10-29T08:45:09Z</time>
      </trkpt>
      <trkpt lat="42.349363000" lon="-2.605638000">
        <ele>1090.50</ele>
        <time>2016-10-29T08:45:10Z</time>
      </trkpt>
      <trkpt lat="42.349389000" lon="-2.605593000">
        <ele>1089.70</ele>
        <time>2016-10-29T08:45:11Z</time>
      </trkpt>
      <trkpt lat="42.349417000" lon="-2.605550000">
        <ele>1088.90</ele>
        <time>2016-10-29T08:45:12Z</time>
      </trkpt>
      <trkpt lat="42.349438000" lon="-2.605523000">
        <ele>1088.40</ele>
        <time>2016-10-29T08:45:13Z</time>
      </trkpt>
      <trkpt lat="42.349452000" lon="-2.605503000">
        <ele>1087.80</ele>
        <time>2016-10-29T08:45:14Z</time>
      </trkpt>
      <trkpt lat="42.349464000" lon="-2.605478000">
        <ele>1087.30</ele>
        <time>2016-10-29T08:45:15Z</time>
      </trkpt>
      <trkpt lat="42.349479000" lon="-2.605454000">
        <ele>1086.50</ele>
        <time>2016-10-29T08:45:16Z</time>
      </trkpt>
      <trkpt lat="42.349489000" lon="-2.605434000">
        <ele>1085.90</ele>
        <time>2016-10-29T08:45:17Z</time>
      </trkpt>
      <trkpt lat="42.349502000" lon="-2.605413000">
        <ele>1085.50</ele>
        <time>2016-10-29T08:45:18Z</time>
      </trkpt>
      <trkpt lat="42.349519000" lon="-2.605398000">
        <ele>1085.10</ele>
        <time>2016-10-29T08:45:19Z</time>
      </trkpt>
      <trkpt lat="42.349530000" lon="-2.605378000">
        <ele>1084.60</ele>
        <time>2016-10-29T08:45:20Z</time>
      </trkpt>
      <trkpt lat="42.349539000" lon="-2.605362000">
        <ele>1084.30</ele>
        <time>2016-10-29T08:45:21Z</time>
      </trkpt>
      <trkpt lat="42.349562000" lon="-2.605330000">
        <ele>1083.90</ele>
        <time>2016-10-29T08:45:23Z</time>
      </trkpt>
      <trkpt lat="42.349570000" lon="-2.605311000">
        <ele>1083.40</ele>
        <time>2016-10-29T08:45:24Z</time>
      </trkpt>
      <trkpt lat="42.349585000" lon="-2.605303000">
        <ele>1083.00</ele>
        <time>2016-10-29T08:45:25Z</time>
      </trkpt>
      <trkpt lat="42.349598000" lon="-2.605296000">
        <ele>1082.70</ele>
        <time>2016-10-29T08:45:26Z</time>
      </trkpt>
      <trkpt lat="42.349615000" lon="-2.605283000">
        <ele>1082.40</ele>
        <time>2016-10-29T08:45:27Z</time>
      </trkpt>
      <trkpt lat="42.349625000" lon="-2.605269000">
        <ele>1082.20</ele>
        <time>2016-10-29T08:45:28Z</time>
      </trkpt>
      <trkpt lat="42.349639000" lon="-2.605251000">
        <ele>1082.00</ele>
        <time>2016-10-29T08:45:29Z</time>
      </trkpt>
      <trkpt lat="42.349655000" lon="-2.605225000">
        <ele>1081.50</ele>
        <time>2016-10-29T08:45:30Z</time>
      </trkpt>
      <trkpt lat="42.349671000" lon="-2.605195000">
        <ele>1081.10</ele>
        <time>2016-10-29T08:45:31Z</time>
      </trkpt>
      <trkpt lat="42.349688000" lon="-2.605170000">
        <ele>1080.90</ele>
        <time>2016-10-29T08:45:32Z</time>
      </trkpt>
      <trkpt lat="42.349706000" lon="-2.605145000">
        <ele>1080.70</ele>
        <time>2016-10-29T08:45:33Z</time>
      </trkpt>
      <trkpt lat="42.349718000" lon="-2.605118000">
        <ele>1080.10</ele>
        <time>2016-10-29T08:45:34Z</time>
      </trkpt>
      <trkpt lat="42.349726000" lon="-2.605098000">
        <ele>1079.70</ele>
        <time>2016-10-29T08:45:35Z</time>
      </trkpt>
      <trkpt lat="42.349737000" lon="-2.605073000">
        <ele>1079.40</ele>
        <time>2016-10-29T08:45:36Z</time>
      </trkpt>
      <trkpt lat="42.349744000" lon="-2.605049000">
        <ele>1079.20</ele>
        <time>2016-10-29T08:45:37Z</time>
      </trkpt>
      <trkpt lat="42.349758000" lon="-2.605023000">
        <ele>1078.80</ele>
        <time>2016-10-29T08:45:38Z</time>
      </trkpt>
      <trkpt lat="42.349766000" lon="-2.605000000">
        <ele>1078.50</ele>
        <time>2016-10-29T08:45:39Z</time>
      </trkpt>
      <trkpt lat="42.349774000" lon="-2.604974000">
        <ele>1077.90</ele>
        <time>2016-10-29T08:45:40Z</time>
      </trkpt>
      <trkpt lat="42.349775000" lon="-2.604948000">
        <ele>1077.50</ele>
        <time>2016-10-29T08:45:41Z</time>
      </trkpt>
      <trkpt lat="42.349763000" lon="-2.604912000">
        <ele>1077.10</ele>
        <time>2016-10-29T08:45:42Z</time>
      </trkpt>
      <trkpt lat="42.349754000" lon="-2.604873000">
        <ele>1076.70</ele>
        <time>2016-10-29T08:45:43Z</time>
      </trkpt>
      <trkpt lat="42.349750000" lon="-2.604840000">
        <ele>1076.50</ele>
        <time>2016-10-29T08:45:44Z</time>
      </trkpt>
      <trkpt lat="42.349749000" lon="-2.604808000">
        <ele>1076.30</ele>
        <time>2016-10-29T08:45:45Z</time>
      </trkpt>
      <trkpt lat="42.349748000" lon="-2.604782000">
        <ele>1075.90</ele>
        <time>2016-10-29T08:45:46Z</time>
      </trkpt>
      <trkpt lat="42.349748000" lon="-2.604757000">
        <ele>1075.60</ele>
        <time>2016-10-29T08:45:47Z</time>
      </trkpt>
      <trkpt lat="42.349748000" lon="-2.604729000">
        <ele>1075.30</ele>
        <time>2016-10-29T08:45:48Z</time>
      </trkpt>
      <trkpt lat="42.349753000" lon="-2.604700000">
        <ele>1075.00</ele>
        <time>2016-10-29T08:45:49Z</time>
      </trkpt>
      <trkpt lat="42.349755000" lon="-2.604671000">
        <ele>1074.70</ele>
        <time>2016-10-29T08:45:50Z</time>
      </trkpt>
      <trkpt lat="42.349761000" lon="-2.604640000">
        <ele>1074.40</ele>
        <time>2016-10-29T08:45:51Z</time>
      </trkpt>
      <trkpt lat="42.349762000" lon="-2.604606000">
        <ele>1074.20</ele>
        <time>2016-10-29T08:45:52Z</time>
      </trkpt>
      <trkpt lat="42.349756000" lon="-2.604573000">
        <ele>1074.00</ele>
        <time>2016-10-29T08:45:53Z</time>
      </trkpt>
      <trkpt lat="42.349757000" lon="-2.604540000">
        <ele>1073.70</ele>
        <time>2016-10-29T08:45:54Z</time>
      </trkpt>
      <trkpt lat="42.349758000" lon="-2.604502000">
        <ele>1073.50</ele>
        <time>2016-10-29T08:45:55Z</time>
      </trkpt>
      <trkpt lat="42.349763000" lon="-2.604469000">
        <ele>1073.10</ele>
        <time>2016-10-29T08:45:56Z</time>
      </trkpt>
      <trkpt lat="42.349776000" lon="-2.604437000">
        <ele>1072.80</ele>
        <time>2016-10-29T08:45:57Z</time>
      </trkpt>
      <trkpt lat="42.349796000" lon="-2.604416000">
        <ele>1072.50</ele>
        <time>2016-10-29T08:45:58Z</time>
      </trkpt>
      <trkpt lat="42.349822000" lon="-2.604409000">
        <ele>1072.30</ele>
        <time>2016-10-29T08:45:59Z</time>
      </trkpt>
      <trkpt lat="42.349855000" lon="-2.604403000">
        <ele>1071.90</ele>
        <time>2016-10-29T08:46:00Z</time>
      </trkpt>
      <trkpt lat="42.349891000" lon="-2.604399000">
        <ele>1071.60</ele>
        <time>2016-10-29T08:46:01Z</time>
      </trkpt>
      <trkpt lat="42.349929000" lon="-2.604406000">
        <ele>1071.20</ele>
        <time>2016-10-29T08:46:02Z</time>
      </trkpt>
      <trkpt lat="42.349959000" lon="-2.604420000">
        <ele>1071.00</ele>
        <time>2016-10-29T08:46:03Z</time>
      </trkpt>
      <trkpt lat="42.349992000" lon="-2.604444000">
        <ele>1070.40</ele>
        <time>2016-10-29T08:46:04Z</time>
      </trkpt>
      <trkpt lat="42.350021000" lon="-2.604471000">
        <ele>1070.00</ele>
        <time>2016-10-29T08:46:05Z</time>
      </trkpt>
      <trkpt lat="42.350054000" lon="-2.604503000">
        <ele>1069.70</ele>
        <time>2016-10-29T08:46:06Z</time>
      </trkpt>
      <trkpt lat="42.350086000" lon="-2.604536000">
        <ele>1069.50</ele>
        <time>2016-10-29T08:46:07Z</time>
      </trkpt>
      <trkpt lat="42.350118000" lon="-2.604575000">
        <ele>1069.30</ele>
        <time>2016-10-29T08:46:08Z</time>
      </trkpt>
      <trkpt lat="42.350154000" lon="-2.604605000">
        <ele>1069.10</ele>
        <time>2016-10-29T08:46:09Z</time>
      </trkpt>
      <trkpt lat="42.350194000" lon="-2.604629000">
        <ele>1069.00</ele>
        <time>2016-10-29T08:46:10Z</time>
      </trkpt>
      <trkpt lat="42.350241000" lon="-2.604656000">
        <ele>1068.90</ele>
        <time>2016-10-29T08:46:11Z</time>
      </trkpt>
      <trkpt lat="42.350281000" lon="-2.604678000">
        <ele>1068.40</ele>
        <time>2016-10-29T08:46:12Z</time>
      </trkpt>
      <trkpt lat="42.350317000" lon="-2.604702000">
        <ele>1068.10</ele>
        <time>2016-10-29T08:46:13Z</time>
      </trkpt>
      <trkpt lat="42.350349000" lon="-2.604724000">
        <ele>1067.80</ele>
        <time>2016-10-29T08:46:14Z</time>
      </trkpt>
      <trkpt lat="42.350385000" lon="-2.604746000">
        <ele>1067.60</ele>
        <time>2016-10-29T08:46:15Z</time>
      </trkpt>
      <trkpt lat="42.350427000" lon="-2.604761000">
        <ele>1067.50</ele>
        <time>2016-10-29T08:46:16Z</time>
      </trkpt>
      <trkpt lat="42.350470000" lon="-2.604767000">
        <ele>1067.50</ele>
        <time>2016-10-29T08:46:17Z</time>
      </trkpt>
      <trkpt lat="42.350506000" lon="-2.604771000">
        <ele>1067.50</ele>
        <time>2016-10-29T08:46:18Z</time>
      </trkpt>
      <trkpt lat="42.350544000" lon="-2.604782000">
        <ele>1067.60</ele>
        <time>2016-10-29T08:46:19Z</time>
      </trkpt>
      <trkpt lat="42.350581000" lon="-2.604797000">
        <ele>1067.50</ele>
        <time>2016-10-29T08:46:20Z</time>
      </trkpt>
      <trkpt lat="42.350619000" lon="-2.604814000">
        <ele>1067.50</ele>
        <time>2016-10-29T08:46:21Z</time>
      </trkpt>
      <trkpt lat="42.350658000" lon="-2.604830000">
        <ele>1067.50</ele>
        <time>2016-10-29T08:46:22Z</time>
      </trkpt>
      <trkpt lat="42.350750000" lon="-2.604857000">
        <ele>1067.30</ele>
        <time>2016-10-29T08:46:24Z</time>
      </trkpt>
      <trkpt lat="42.350794000" lon="-2.604867000">
        <ele>1067.20</ele>
        <time>2016-10-29T08:46:25Z</time>
      </trkpt>
      <trkpt lat="42.350837000" lon="-2.604869000">
        <ele>1067.00</ele>
        <time>2016-10-29T08:46:26Z</time>
      </trkpt>
      <trkpt lat="42.350879000" lon="-2.604858000">
        <ele>1066.80</ele>
        <time>2016-10-29T08:46:27Z</time>
      </trkpt>
      <trkpt lat="42.350916000" lon="-2.604846000">
        <ele>1066.40</ele>
        <time>2016-10-29T08:46:28Z</time>
      </trkpt>
      <trkpt lat="42.350949000" lon="-2.604825000">
        <ele>1066.00</ele>
        <time>2016-10-29T08:46:29Z</time>
      </trkpt>
      <trkpt lat="42.350983000" lon="-2.604796000">
        <ele>1065.80</ele>
        <time>2016-10-29T08:46:30Z</time>
      </trkpt>
      <trkpt lat="42.351009000" lon="-2.604761000">
        <ele>1065.60</ele>
        <time>2016-10-29T08:46:31Z</time>
      </trkpt>
      <trkpt lat="42.351035000" lon="-2.604722000">
        <ele>1065.70</ele>
        <time>2016-10-29T08:46:32Z</time>
      </trkpt>
      <trkpt lat="42.351060000" lon="-2.604691000">
        <ele>1065.80</ele>
        <time>2016-10-29T08:46:33Z</time>
      </trkpt>
      <trkpt lat="42.351084000" lon="-2.604661000">
        <ele>1065.90</ele>
        <time>2016-10-29T08:46:34Z</time>
      </trkpt>
      <trkpt lat="42.351107000" lon="-2.604636000">
        <ele>1065.90</ele>
        <time>2016-10-29T08:46:35Z</time>
      </trkpt>
      <trkpt lat="42.351126000" lon="-2.604611000">
        <ele>1066.10</ele>
        <time>2016-10-29T08:46:36Z</time>
      </trkpt>
      <trkpt lat="42.351149000" lon="-2.604584000">
        <ele>1066.20</ele>
        <time>2016-10-29T08:46:37Z</time>
      </trkpt>
      <trkpt lat="42.351174000" lon="-2.604555000">
        <ele>1066.40</ele>
        <time>2016-10-29T08:46:38Z</time>
      </trkpt>
      <trkpt lat="42.351197000" lon="-2.604521000">
        <ele>1066.50</ele>
        <time>2016-10-29T08:46:39Z</time>
      </trkpt>
      <trkpt lat="42.351218000" lon="-2.604486000">
        <ele>1066.70</ele>
        <time>2016-10-29T08:46:40Z</time>
      </trkpt>
      <trkpt lat="42.351239000" lon="-2.604445000">
        <ele>1066.80</ele>
        <time>2016-10-29T08:46:41Z</time>
      </trkpt>
      <trkpt lat="42.351261000" lon="-2.604401000">
        <ele>1066.90</ele>
        <time>2016-10-29T08:46:42Z</time>
      </trkpt>
      <trkpt lat="42.351282000" lon="-2.604356000">
        <ele>1066.90</ele>
        <time>2016-10-29T08:46:43Z</time>
      </trkpt>
      <trkpt lat="42.351303000" lon="-2.604312000">
        <ele>1067.00</ele>
        <time>2016-10-29T08:46:44Z</time>
      </trkpt>
      <trkpt lat="42.351323000" lon="-2.604270000">
        <ele>1067.00</ele>
        <time>2016-10-29T08:46:45Z</time>
      </trkpt>
      <trkpt lat="42.351339000" lon="-2.604232000">
        <ele>1067.00</ele>
        <time>2016-10-29T08:46:46Z</time>
      </trkpt>
      <trkpt lat="42.351348000" lon="-2.604191000">
        <ele>1067.00</ele>
        <time>2016-10-29T08:46:47Z</time>
      </trkpt>
      <trkpt lat="42.351357000" lon="-2.604142000">
        <ele>1067.00</ele>
        <time>2016-10-29T08:46:48Z</time>
      </trkpt>
      <trkpt lat="42.351375000" lon="-2.604092000">
        <ele>1067.00</ele>
        <time>2016-10-29T08:46:49Z</time>
      </trkpt>
      <trkpt lat="42.351401000" lon="-2.604038000">
        <ele>1067.00</ele>
        <time>2016-10-29T08:46:50Z</time>
      </trkpt>
      <trkpt lat="42.351425000" lon="-2.603987000">
        <ele>1067.00</ele>
        <time>2016-10-29T08:46:51Z</time>
      </trkpt>
      <trkpt lat="42.351446000" lon="-2.603938000">
        <ele>1066.90</ele>
        <time>2016-10-29T08:46:52Z</time>
      </trkpt>
      <trkpt lat="42.351465000" lon="-2.603886000">
        <ele>1066.90</ele>
        <time>2016-10-29T08:46:53Z</time>
      </trkpt>
      <trkpt lat="42.351488000" lon="-2.603830000">
        <ele>1066.70</ele>
        <time>2016-10-29T08:46:54Z</time>
      </trkpt>
      <trkpt lat="42.351512000" lon="-2.603774000">
        <ele>1066.60</ele>
        <time>2016-10-29T08:46:55Z</time>
      </trkpt>
      <trkpt lat="42.351532000" lon="-2.603721000">
        <ele>1066.60</ele>
        <time>2016-10-29T08:46:56Z</time>
      </trkpt>
      <trkpt lat="42.351556000" lon="-2.603677000">
        <ele>1066.60</ele>
        <time>2016-10-29T08:46:57Z</time>
      </trkpt>
      <trkpt lat="42.351589000" lon="-2.603634000">
        <ele>1066.50</ele>
        <time>2016-10-29T08:46:58Z</time>
      </trkpt>
      <trkpt lat="42.351628000" lon="-2.603591000">
        <ele>1066.30</ele>
        <time>2016-10-29T08:46:59Z</time>
      </trkpt>
      <trkpt lat="42.351673000" lon="-2.603544000">
        <ele>1065.60</ele>
        <time>2016-10-29T08:47:00Z</time>
      </trkpt>
      <trkpt lat="42.351717000" lon="-2.603496000">
        <ele>1065.10</ele>
        <time>2016-10-29T08:47:01Z</time>
      </trkpt>
      <trkpt lat="42.351758000" lon="-2.603449000">
        <ele>1064.50</ele>
        <time>2016-10-29T08:47:02Z</time>
      </trkpt>
      <trkpt lat="42.351804000" lon="-2.603399000">
        <ele>1064.00</ele>
        <time>2016-10-29T08:47:03Z</time>
      </trkpt>
      <trkpt lat="42.351846000" lon="-2.603342000">
        <ele>1062.90</ele>
        <time>2016-10-29T08:47:04Z</time>
      </trkpt>
      <trkpt lat="42.351881000" lon="-2.603282000">
        <ele>1062.10</ele>
        <time>2016-10-29T08:47:05Z</time>
      </trkpt>
      <trkpt lat="42.351916000" lon="-2.603215000">
        <ele>1061.10</ele>
        <time>2016-10-29T08:47:06Z</time>
      </trkpt>
      <trkpt lat="42.351952000" lon="-2.603156000">
        <ele>1060.40</ele>
        <time>2016-10-29T08:47:07Z</time>
      </trkpt>
      <trkpt lat="42.351990000" lon="-2.603094000">
        <ele>1059.80</ele>
        <time>2016-10-29T08:47:08Z</time>
      </trkpt>
      <trkpt lat="42.352036000" lon="-2.603030000">
        <ele>1059.40</ele>
        <time>2016-10-29T08:47:09Z</time>
      </trkpt>
      <trkpt lat="42.352079000" lon="-2.602967000">
        <ele>1058.60</ele>
        <time>2016-10-29T08:47:10Z</time>
      </trkpt>
      <trkpt lat="42.352114000" lon="-2.602902000">
        <ele>1058.00</ele>
        <time>2016-10-29T08:47:11Z</time>
      </trkpt>
      <trkpt lat="42.352149000" lon="-2.602840000">
        <ele>1056.80</ele>
        <time>2016-10-29T08:47:12Z</time>
      </trkpt>
      <trkpt lat="42.352182000" lon="-2.602781000">
        <ele>1055.90</ele>
        <time>2016-10-29T08:47:13Z</time>
      </trkpt>
      <trkpt lat="42.352207000" lon="-2.602718000">
        <ele>1055.10</ele>
        <time>2016-10-29T08:47:14Z</time>
      </trkpt>
      <trkpt lat="42.352238000" lon="-2.602658000">
        <ele>1054.50</ele>
        <time>2016-10-29T08:47:15Z</time>
      </trkpt>
      <trkpt lat="42.352270000" lon="-2.602601000">
        <ele>1053.80</ele>
        <time>2016-10-29T08:47:16Z</time>
      </trkpt>
      <trkpt lat="42.352307000" lon="-2.602543000">
        <ele>1053.30</ele>
        <time>2016-10-29T08:47:17Z</time>
      </trkpt>
      <trkpt lat="42.352347000" lon="-2.602495000">
        <ele>1052.40</ele>
        <time>2016-10-29T08:47:18Z</time>
      </trkpt>
      <trkpt lat="42.352391000" lon="-2.602451000">
        <ele>1051.80</ele>
        <time>2016-10-29T08:47:19Z</time>
      </trkpt>
      <trkpt lat="42.352437000" lon="-2.602411000">
        <ele>1050.70</ele>
        <time>2016-10-29T08:47:20Z</time>
      </trkpt>
      <trkpt lat="42.352485000" lon="-2.602386000">
        <ele>1050.00</ele>
        <time>2016-10-29T08:47:21Z</time>
      </trkpt>
      <trkpt lat="42.352535000" lon="-2.602366000">
        <ele>1049.20</ele>
        <time>2016-10-29T08:47:22Z</time>
      </trkpt>
      <trkpt lat="42.352576000" lon="-2.602346000">
        <ele>1048.70</ele>
        <time>2016-10-29T08:47:23Z</time>
      </trkpt>
      <trkpt lat="42.352617000" lon="-2.602325000">
        <ele>1048.00</ele>
        <time>2016-10-29T08:47:24Z</time>
      </trkpt>
      <trkpt lat="42.352708000" lon="-2.602307000">
        <ele>1046.70</ele>
        <time>2016-10-29T08:47:26Z</time>
      </trkpt>
      <trkpt lat="42.352749000" lon="-2.602304000">
        <ele>1046.00</ele>
        <time>2016-10-29T08:47:27Z</time>
      </trkpt>
      <trkpt lat="42.352792000" lon="-2.602296000">
        <ele>1045.20</ele>
        <time>2016-10-29T08:47:28Z</time>
      </trkpt>
      <trkpt lat="42.352838000" lon="-2.602270000">
        <ele>1044.60</ele>
        <time>2016-10-29T08:47:29Z</time>
      </trkpt>
      <trkpt lat="42.352886000" lon="-2.602234000">
        <ele>1044.10</ele>
        <time>2016-10-29T08:47:30Z</time>
      </trkpt>
      <trkpt lat="42.352929000" lon="-2.602189000">
        <ele>1043.70</ele>
        <time>2016-10-29T08:47:31Z</time>
      </trkpt>
      <trkpt lat="42.352975000" lon="-2.602153000">
        <ele>1042.70</ele>
        <time>2016-10-29T08:47:32Z</time>
      </trkpt>
      <trkpt lat="42.353020000" lon="-2.602126000">
        <ele>1042.00</ele>
        <time>2016-10-29T08:47:33Z</time>
      </trkpt>
      <trkpt lat="42.353064000" lon="-2.602107000">
        <ele>1041.30</ele>
        <time>2016-10-29T08:47:34Z</time>
      </trkpt>
      <trkpt lat="42.353110000" lon="-2.602100000">
        <ele>1040.70</ele>
        <time>2016-10-29T08:47:35Z</time>
      </trkpt>
      <trkpt lat="42.353155000" lon="-2.602096000">
        <ele>1039.80</ele>
        <time>2016-10-29T08:47:36Z</time>
      </trkpt>
      <trkpt lat="42.353198000" lon="-2.602097000">
        <ele>1039.10</ele>
        <time>2016-10-29T08:47:37Z</time>
      </trkpt>
      <trkpt lat="42.353238000" lon="-2.602088000">
        <ele>1038.20</ele>
        <time>2016-10-29T08:47:38Z</time>
      </trkpt>
      <trkpt lat="42.353278000" lon="-2.602088000">
        <ele>1037.50</ele>
        <time>2016-10-29T08:47:39Z</time>
      </trkpt>
      <trkpt lat="42.353321000" lon="-2.602090000">
        <ele>1036.70</ele>
        <time>2016-10-29T08:47:40Z</time>
      </trkpt>
      <trkpt lat="42.353363000" lon="-2.602099000">
        <ele>1036.10</ele>
        <time>2016-10-29T08:47:41Z</time>
      </trkpt>
      <trkpt lat="42.353400000" lon="-2.602107000">
        <ele>1035.50</ele>
        <time>2016-10-29T08:47:42Z</time>
      </trkpt>
      <trkpt lat="42.353443000" lon="-2.602116000">
        <ele>1035.00</ele>
        <time>2016-10-29T08:47:43Z</time>
      </trkpt>
      <trkpt lat="42.353485000" lon="-2.602119000">
        <ele>1034.30</ele>
        <time>2016-10-29T08:47:44Z</time>
      </trkpt>
      <trkpt lat="42.353518000" lon="-2.602118000">
        <ele>1033.80</ele>
        <time>2016-10-29T08:47:45Z</time>
      </trkpt>
      <trkpt lat="42.353557000" lon="-2.602106000">
        <ele>1033.50</ele>
        <time>2016-10-29T08:47:46Z</time>
      </trkpt>
      <trkpt lat="42.353598000" lon="-2.602090000">
        <ele>1033.20</ele>
        <time>2016-10-29T08:47:47Z</time>
      </trkpt>
      <trkpt lat="42.353648000" lon="-2.602074000">
        <ele>1032.80</ele>
        <time>2016-10-29T08:47:48Z</time>
      </trkpt>
      <trkpt lat="42.353702000" lon="-2.602056000">
        <ele>1032.60</ele>
        <time>2016-10-29T08:47:49Z</time>
      </trkpt>
      <trkpt lat="42.353753000" lon="-2.602044000">
        <ele>1031.60</ele>
        <time>2016-10-29T08:47:50Z</time>
      </trkpt>
      <trkpt lat="42.353800000" lon="-2.602035000">
        <ele>1030.80</ele>
        <time>2016-10-29T08:47:51Z</time>
      </trkpt>
      <trkpt lat="42.353850000" lon="-2.602020000">
        <ele>1030.20</ele>
        <time>2016-10-29T08:47:52Z</time>
      </trkpt>
      <trkpt lat="42.353897000" lon="-2.602006000">
        <ele>1029.80</ele>
        <time>2016-10-29T08:47:53Z</time>
      </trkpt>
      <trkpt lat="42.353945000" lon="-2.601978000">
        <ele>1029.30</ele>
        <time>2016-10-29T08:47:54Z</time>
      </trkpt>
      <trkpt lat="42.353986000" lon="-2.601946000">
        <ele>1028.90</ele>
        <time>2016-10-29T08:47:55Z</time>
      </trkpt>
      <trkpt lat="42.354023000" lon="-2.601906000">
        <ele>1027.60</ele>
        <time>2016-10-29T08:47:56Z</time>
      </trkpt>
      <trkpt lat="42.354056000" lon="-2.601865000">
        <ele>1026.60</ele>
        <time>2016-10-29T08:47:57Z</time>
      </trkpt>
      <trkpt lat="42.354080000" lon="-2.601825000">
        <ele>1025.60</ele>
        <time>2016-10-29T08:47:58Z</time>
      </trkpt>
      <trkpt lat="42.354099000" lon="-2.601789000">
        <ele>1024.90</ele>
        <time>2016-10-29T08:47:59Z</time>
      </trkpt>
      <trkpt lat="42.354121000" lon="-2.601746000">
        <ele>1024.30</ele>
        <time>2016-10-29T08:48:00Z</time>
      </trkpt>
      <trkpt lat="42.354148000" lon="-2.601700000">
        <ele>1023.90</ele>
        <time>2016-10-29T08:48:01Z</time>
      </trkpt>
      <trkpt lat="42.354167000" lon="-2.601662000">
        <ele>1023.40</ele>
        <time>2016-10-29T08:48:02Z</time>
      </trkpt>
      <trkpt lat="42.354185000" lon="-2.601634000">
        <ele>1023.10</ele>
        <time>2016-10-29T08:48:03Z</time>
      </trkpt>
      <trkpt lat="42.354201000" lon="-2.601602000">
        <ele>1022.70</ele>
        <time>2016-10-29T08:48:04Z</time>
      </trkpt>
      <trkpt lat="42.354220000" lon="-2.601569000">
        <ele>1022.40</ele>
        <time>2016-10-29T08:48:05Z</time>
      </trkpt>
      <trkpt lat="42.354245000" lon="-2.601542000">
        <ele>1022.00</ele>
        <time>2016-10-29T08:48:06Z</time>
      </trkpt>
      <trkpt lat="42.354268000" lon="-2.601517000">
        <ele>1021.60</ele>
        <time>2016-10-29T08:48:07Z</time>
      </trkpt>
      <trkpt lat="42.354299000" lon="-2.601496000">
        <ele>1021.10</ele>
        <time>2016-10-29T08:48:08Z</time>
      </trkpt>
      <trkpt lat="42.354333000" lon="-2.601475000">
        <ele>1020.70</ele>
        <time>2016-10-29T08:48:09Z</time>
      </trkpt>
      <trkpt lat="42.354365000" lon="-2.601459000">
        <ele>1020.40</ele>
        <time>2016-10-29T08:48:10Z</time>
      </trkpt>
      <trkpt lat="42.354394000" lon="-2.601446000">
        <ele>1020.10</ele>
        <time>2016-10-29T08:48:11Z</time>
      </trkpt>
      <trkpt lat="42.354425000" lon="-2.601431000">
        <ele>1019.60</ele>
        <time>2016-10-29T08:48:12Z</time>
      </trkpt>
      <trkpt lat="42.354462000" lon="-2.601414000">
        <ele>1019.10</ele>
        <time>2016-10-29T08:48:13Z</time>
      </trkpt>
      <trkpt lat="42.354503000" lon="-2.601399000">
        <ele>1018.80</ele>
        <time>2016-10-29T08:48:14Z</time>
      </trkpt>
      <trkpt lat="42.354542000" lon="-2.601385000">
        <ele>1018.50</ele>
        <time>2016-10-29T08:48:15Z</time>
      </trkpt>
      <trkpt lat="42.354571000" lon="-2.601375000">
        <ele>1017.90</ele>
        <time>2016-10-29T08:48:16Z</time>
      </trkpt>
      <trkpt lat="42.354601000" lon="-2.601366000">
        <ele>1017.40</ele>
        <time>2016-10-29T08:48:17Z</time>
      </trkpt>
      <trkpt lat="42.354631000" lon="-2.601363000">
        <ele>1016.90</ele>
        <time>2016-10-29T08:48:18Z</time>
      </trkpt>
      <trkpt lat="42.354660000" lon="-2.601359000">
        <ele>1016.60</ele>
        <time>2016-10-29T08:48:19Z</time>
      </trkpt>
      <trkpt lat="42.354686000" lon="-2.601354000">
        <ele>1015.90</ele>
        <time>2016-10-29T08:48:20Z</time>
      </trkpt>
      <trkpt lat="42.354718000" lon="-2.601359000">
        <ele>1015.50</ele>
        <time>2016-10-29T08:48:21Z</time>
      </trkpt>
      <trkpt lat="42.354750000" lon="-2.601373000">
        <ele>1015.10</ele>
        <time>2016-10-29T08:48:22Z</time>
      </trkpt>
      <trkpt lat="42.354782000" lon="-2.601399000">
        <ele>1014.70</ele>
        <time>2016-10-29T08:48:23Z</time>
      </trkpt>
      <trkpt lat="42.354810000" lon="-2.601430000">
        <ele>1014.30</ele>
        <time>2016-10-29T08:48:24Z</time>
      </trkpt>
      <trkpt lat="42.354837000" lon="-2.601461000">
        <ele>1014.00</ele>
        <time>2016-10-29T08:48:25Z</time>
      </trkpt>
      <trkpt lat="42.354863000" lon="-2.601497000">
        <ele>1013.70</ele>
        <time>2016-10-29T08:48:26Z</time>
      </trkpt>
      <trkpt lat="42.354914000" lon="-2.601566000">
        <ele>1013.30</ele>
        <time>2016-10-29T08:48:28Z</time>
      </trkpt>
      <trkpt lat="42.354949000" lon="-2.601594000">
        <ele>1013.20</ele>
        <time>2016-10-29T08:48:29Z</time>
      </trkpt>
      <trkpt lat="42.354993000" lon="-2.601615000">
        <ele>1013.00</ele>
        <time>2016-10-29T08:48:30Z</time>
      </trkpt>
      <trkpt lat="42.355036000" lon="-2.601642000">
        <ele>1012.80</ele>
        <time>2016-10-29T08:48:31Z</time>
      </trkpt>
      <trkpt lat="42.355079000" lon="-2.601665000">
        <ele>1012.40</ele>
        <time>2016-10-29T08:48:32Z</time>
      </trkpt>
      <trkpt lat="42.355124000" lon="-2.601689000">
        <ele>1012.10</ele>
        <time>2016-10-29T08:48:33Z</time>
      </trkpt>
      <trkpt lat="42.355169000" lon="-2.601710000">
        <ele>1011.40</ele>
        <time>2016-10-29T08:48:34Z</time>
      </trkpt>
      <trkpt lat="42.355218000" lon="-2.601707000">
        <ele>1010.90</ele>
        <time>2016-10-29T08:48:35Z</time>
      </trkpt>
      <trkpt lat="42.355264000" lon="-2.601702000">
        <ele>1010.60</ele>
        <time>2016-10-29T08:48:36Z</time>
      </trkpt>
      <trkpt lat="42.355313000" lon="-2.601693000">
        <ele>1010.30</ele>
        <time>2016-10-29T08:48:37Z</time>
      </trkpt>
      <trkpt lat="42.355361000" lon="-2.601687000">
        <ele>1009.90</ele>
        <time>2016-10-29T08:48:38Z</time>
      </trkpt>
      <trkpt lat="42.355398000" lon="-2.601686000">
        <ele>1009.60</ele>
        <time>2016-10-29T08:48:39Z</time>
      </trkpt>
      <trkpt lat="42.355440000" lon="-2.601681000">
        <ele>1009.40</ele>
        <time>2016-10-29T08:48:40Z</time>
      </trkpt>
      <trkpt lat="42.355483000" lon="-2.601682000">
        <ele>1009.20</ele>
        <time>2016-10-29T08:48:41Z</time>
      </trkpt>
      <trkpt lat="42.355519000" lon="-2.601693000">
        <ele>1008.70</ele>
        <time>2016-10-29T08:48:42Z</time>
      </trkpt>
      <trkpt lat="42.355548000" lon="-2.601699000">
        <ele>1008.30</ele>
        <time>2016-10-29T08:48:43Z</time>
      </trkpt>
      <trkpt lat="42.355582000" lon="-2.601706000">
        <ele>1008.00</ele>
        <time>2016-10-29T08:48:44Z</time>
      </trkpt>
      <trkpt lat="42.355616000" lon="-2.601717000">
        <ele>1007.70</ele>
        <time>2016-10-29T08:48:45Z</time>
      </trkpt>
      <trkpt lat="42.355652000" lon="-2.601719000">
        <ele>1007.50</ele>
        <time>2016-10-29T08:48:46Z</time>
      </trkpt>
      <trkpt lat="42.355693000" lon="-2.601712000">
        <ele>1007.40</ele>
        <time>2016-10-29T08:48:47Z</time>
      </trkpt>
      <trkpt lat="42.355732000" lon="-2.601699000">
        <ele>1006.90</ele>
        <time>2016-10-29T08:48:48Z</time>
      </trkpt>
      <trkpt lat="42.355778000" lon="-2.601682000">
        <ele>1006.50</ele>
        <time>2016-10-29T08:48:49Z</time>
      </trkpt>
      <trkpt lat="42.355824000" lon="-2.601663000">
        <ele>1006.10</ele>
        <time>2016-10-29T08:48:50Z</time>
      </trkpt>
      <trkpt lat="42.355874000" lon="-2.601637000">
        <ele>1005.80</ele>
        <time>2016-10-29T08:48:51Z</time>
      </trkpt>
      <trkpt lat="42.355917000" lon="-2.601600000">
        <ele>1005.60</ele>
        <time>2016-10-29T08:48:52Z</time>
      </trkpt>
      <trkpt lat="42.355950000" lon="-2.601560000">
        <ele>1005.50</ele>
        <time>2016-10-29T08:48:53Z</time>
      </trkpt>
      <trkpt lat="42.355983000" lon="-2.601519000">
        <ele>1004.90</ele>
        <time>2016-10-29T08:48:54Z</time>
      </trkpt>
      <trkpt lat="42.356007000" lon="-2.601488000">
        <ele>1004.40</ele>
        <time>2016-10-29T08:48:55Z</time>
      </trkpt>
      <trkpt lat="42.356037000" lon="-2.601458000">
        <ele>1004.00</ele>
        <time>2016-10-29T08:48:56Z</time>
      </trkpt>
      <trkpt lat="42.356071000" lon="-2.601431000">
        <ele>1003.70</ele>
        <time>2016-10-29T08:48:57Z</time>
      </trkpt>
      <trkpt lat="42.356108000" lon="-2.601406000">
        <ele>1003.10</ele>
        <time>2016-10-29T08:48:58Z</time>
      </trkpt>
      <trkpt lat="42.356152000" lon="-2.601380000">
        <ele>1002.70</ele>
        <time>2016-10-29T08:48:59Z</time>
      </trkpt>
      <trkpt lat="42.356196000" lon="-2.601358000">
        <ele>1002.40</ele>
        <time>2016-10-29T08:49:00Z</time>
      </trkpt>
      <trkpt lat="42.356243000" lon="-2.601333000">
        <ele>1002.10</ele>
        <time>2016-10-29T08:49:01Z</time>
      </trkpt>
      <trkpt lat="42.356290000" lon="-2.601311000">
        <ele>1001.70</ele>
        <time>2016-10-29T08:49:02Z</time>
      </trkpt>
      <trkpt lat="42.356337000" lon="-2.601283000">
        <ele>1001.40</ele>
        <time>2016-10-29T08:49:03Z</time>
      </trkpt>
      <trkpt lat="42.356385000" lon="-2.601257000">
        <ele>1001.10</ele>
        <time>2016-10-29T08:49:04Z</time>
      </trkpt>
      <trkpt lat="42.356435000" lon="-2.601241000">
        <ele>1000.80</ele>
        <time>2016-10-29T08:49:05Z</time>
      </trkpt>
      <trkpt lat="42.356483000" lon="-2.601229000">
        <ele>1000.10</ele>
        <time>2016-10-29T08:49:06Z</time>
      </trkpt>
      <trkpt lat="42.356529000" lon="-2.601221000">
        <ele>999.50</ele>
        <time>2016-10-29T08:49:07Z</time>
      </trkpt>
      <trkpt lat="42.356576000" lon="-2.601216000">
        <ele>999.00</ele>
        <time>2016-10-29T08:49:08Z</time>
      </trkpt>
      <trkpt lat="42.356631000" lon="-2.601217000">
        <ele>998.60</ele>
        <time>2016-10-29T08:49:09Z</time>
      </trkpt>
      <trkpt lat="42.356688000" lon="-2.601219000">
        <ele>998.20</ele>
        <time>2016-10-29T08:49:10Z</time>
      </trkpt>
      <trkpt lat="42.356743000" lon="-2.601234000">
        <ele>998.00</ele>
        <time>2016-10-29T08:49:11Z</time>
      </trkpt>
      <trkpt lat="42.356802000" lon="-2.601242000">
        <ele>997.50</ele>
        <time>2016-10-29T08:49:12Z</time>
      </trkpt>
      <trkpt lat="42.356862000" lon="-2.601249000">
        <ele>997.10</ele>
        <time>2016-10-29T08:49:13Z</time>
      </trkpt>
      <trkpt lat="42.356919000" lon="-2.601259000">
        <ele>996.80</ele>
        <time>2016-10-29T08:49:14Z</time>
      </trkpt>
      <trkpt lat="42.356972000" lon="-2.601269000">
        <ele>996.50</ele>
        <time>2016-10-29T08:49:15Z</time>
      </trkpt>
      <trkpt lat="42.357022000" lon="-2.601288000">
        <ele>995.90</ele>
        <time>2016-10-29T08:49:16Z</time>
      </trkpt>
      <trkpt lat="42.357076000" lon="-2.601304000">
        <ele>995.40</ele>
        <time>2016-10-29T08:49:17Z</time>
      </trkpt>
      <trkpt lat="42.357126000" lon="-2.601306000">
        <ele>994.80</ele>
        <time>2016-10-29T08:49:18Z</time>
      </trkpt>
      <trkpt lat="42.357175000" lon="-2.601307000">
        <ele>994.40</ele>
        <time>2016-10-29T08:49:19Z</time>
      </trkpt>
      <trkpt lat="42.357215000" lon="-2.601311000">
        <ele>993.80</ele>
        <time>2016-10-29T08:49:20Z</time>
      </trkpt>
      <trkpt lat="42.357252000" lon="-2.601314000">
        <ele>993.30</ele>
        <time>2016-10-29T08:49:21Z</time>
      </trkpt>
      <trkpt lat="42.357289000" lon="-2.601321000">
        <ele>992.70</ele>
        <time>2016-10-29T08:49:22Z</time>
      </trkpt>
      <trkpt lat="42.357321000" lon="-2.601320000">
        <ele>992.20</ele>
        <time>2016-10-29T08:49:23Z</time>
      </trkpt>
      <trkpt lat="42.357354000" lon="-2.601317000">
        <ele>991.80</ele>
        <time>2016-10-29T08:49:24Z</time>
      </trkpt>
      <trkpt lat="42.357389000" lon="-2.601317000">
        <ele>991.50</ele>
        <time>2016-10-29T08:49:25Z</time>
      </trkpt>
      <trkpt lat="42.357429000" lon="-2.601309000">
        <ele>991.10</ele>
        <time>2016-10-29T08:49:26Z</time>
      </trkpt>
      <trkpt lat="42.357466000" lon="-2.601306000">
        <ele>990.70</ele>
        <time>2016-10-29T08:49:27Z</time>
      </trkpt>
      <trkpt lat="42.357546000" lon="-2.601309000">
        <ele>990.10</ele>
        <time>2016-10-29T08:49:29Z</time>
      </trkpt>
      <trkpt lat="42.357580000" lon="-2.601318000">
        <ele>989.80</ele>
        <time>2016-10-29T08:49:30Z</time>
      </trkpt>
      <trkpt lat="42.357608000" lon="-2.601334000">
        <ele>989.50</ele>
        <time>2016-10-29T08:49:31Z</time>
      </trkpt>
      <trkpt lat="42.357637000" lon="-2.601339000">
        <ele>989.30</ele>
        <time>2016-10-29T08:49:32Z</time>
      </trkpt>
      <trkpt lat="42.357667000" lon="-2.601333000">
        <ele>989.20</ele>
        <time>2016-10-29T08:49:33Z</time>
      </trkpt>
      <trkpt lat="42.357697000" lon="-2.601337000">
        <ele>988.80</ele>
        <time>2016-10-29T08:49:34Z</time>
      </trkpt>
      <trkpt lat="42.357726000" lon="-2.601341000">
        <ele>988.50</ele>
        <time>2016-10-29T08:49:35Z</time>
      </trkpt>
      <trkpt lat="42.357759000" lon="-2.601342000">
        <ele>988.20</ele>
        <time>2016-10-29T08:49:36Z</time>
      </trkpt>
      <trkpt lat="42.357787000" lon="-2.601347000">
        <ele>988.00</ele>
        <time>2016-10-29T08:49:37Z</time>
      </trkpt>
      <trkpt lat="42.357819000" lon="-2.601353000">
        <ele>987.70</ele>
        <time>2016-10-29T08:49:38Z</time>
      </trkpt>
      <trkpt lat="42.357852000" lon="-2.601360000">
        <ele>987.40</ele>
        <time>2016-10-29T08:49:39Z</time>
      </trkpt>
      <trkpt lat="42.357886000" lon="-2.601371000">
        <ele>987.20</ele>
        <time>2016-10-29T08:49:40Z</time>
      </trkpt>
      <trkpt lat="42.357926000" lon="-2.601377000">
        <ele>987.10</ele>
        <time>2016-10-29T08:49:41Z</time>
      </trkpt>
      <trkpt lat="42.357967000" lon="-2.601386000">
        <ele>986.90</ele>
        <time>2016-10-29T08:49:42Z</time>
      </trkpt>
      <trkpt lat="42.358010000" lon="-2.601398000">
        <ele>986.90</ele>
        <time>2016-10-29T08:49:43Z</time>
      </trkpt>
      <trkpt lat="42.358052000" lon="-2.601413000">
        <ele>986.40</ele>
        <time>2016-10-29T08:49:44Z</time>
      </trkpt>
      <trkpt lat="42.358084000" lon="-2.601427000">
        <ele>986.10</ele>
        <time>2016-10-29T08:49:45Z</time>
      </trkpt>
      <trkpt lat="42.358110000" lon="-2.601438000">
        <ele>985.60</ele>
        <time>2016-10-29T08:49:46Z</time>
      </trkpt>
      <trkpt lat="42.358137000" lon="-2.601442000">
        <ele>985.20</ele>
        <time>2016-10-29T08:49:47Z</time>
      </trkpt>
      <trkpt lat="42.358164000" lon="-2.601453000">
        <ele>984.80</ele>
        <time>2016-10-29T08:49:48Z</time>
      </trkpt>
      <trkpt lat="42.358185000" lon="-2.601475000">
        <ele>984.50</ele>
        <time>2016-10-29T08:49:49Z</time>
      </trkpt>
      <trkpt lat="42.358208000" lon="-2.601498000">
        <ele>984.30</ele>
        <time>2016-10-29T08:49:50Z</time>
      </trkpt>
      <trkpt lat="42.358241000" lon="-2.601505000">
        <ele>984.20</ele>
        <time>2016-10-29T08:49:51Z</time>
      </trkpt>
      <trkpt lat="42.358275000" lon="-2.601512000">
        <ele>984.00</ele>
        <time>2016-10-29T08:49:52Z</time>
      </trkpt>
      <trkpt lat="42.358313000" lon="-2.601514000">
        <ele>983.90</ele>
        <time>2016-10-29T08:49:53Z</time>
      </trkpt>
      <trkpt lat="42.358357000" lon="-2.601514000">
        <ele>983.50</ele>
        <time>2016-10-29T08:49:54Z</time>
      </trkpt>
      <trkpt lat="42.358402000" lon="-2.601521000">
        <ele>983.20</ele>
        <time>2016-10-29T08:49:55Z</time>
      </trkpt>
      <trkpt lat="42.358446000" lon="-2.601527000">
        <ele>982.90</ele>
        <time>2016-10-29T08:49:56Z</time>
      </trkpt>
      <trkpt lat="42.358484000" lon="-2.601520000">
        <ele>982.70</ele>
        <time>2016-10-29T08:49:57Z</time>
      </trkpt>
      <trkpt lat="42.358518000" lon="-2.601511000">
        <ele>982.50</ele>
        <time>2016-10-29T08:49:58Z</time>
      </trkpt>
      <trkpt lat="42.358549000" lon="-2.601504000">
        <ele>982.40</ele>
        <time>2016-10-29T08:49:59Z</time>
      </trkpt>
      <trkpt lat="42.358582000" lon="-2.601498000">
        <ele>982.60</ele>
        <time>2016-10-29T08:50:00Z</time>
      </trkpt>
      <trkpt lat="42.358609000" lon="-2.601497000">
        <ele>982.70</ele>
        <time>2016-10-29T08:50:01Z</time>
      </trkpt>
      <trkpt lat="42.358640000" lon="-2.601492000">
        <ele>982.80</ele>
        <time>2016-10-29T08:50:02Z</time>
      </trkpt>
      <trkpt lat="42.358681000" lon="-2.601491000">
        <ele>982.80</ele>
        <time>2016-10-29T08:50:03Z</time>
      </trkpt>
      <trkpt lat="42.358715000" lon="-2.601492000">
        <ele>982.90</ele>
        <time>2016-10-29T08:50:04Z</time>
      </trkpt>
      <trkpt lat="42.358755000" lon="-2.601493000">
        <ele>982.90</ele>
        <time>2016-10-29T08:50:05Z</time>
      </trkpt>
      <trkpt lat="42.358788000" lon="-2.601508000">
        <ele>982.90</ele>
        <time>2016-10-29T08:50:06Z</time>
      </trkpt>
      <trkpt lat="42.358819000" lon="-2.601529000">
        <ele>982.80</ele>
        <time>2016-10-29T08:50:07Z</time>
      </trkpt>
      <trkpt lat="42.358846000" lon="-2.601553000">
        <ele>982.80</ele>
        <time>2016-10-29T08:50:08Z</time>
      </trkpt>
      <trkpt lat="42.358864000" lon="-2.601579000">
        <ele>982.80</ele>
        <time>2016-10-29T08:50:09Z</time>
      </trkpt>
      <trkpt lat="42.358873000" lon="-2.601602000">
        <ele>982.80</ele>
        <time>2016-10-29T08:50:10Z</time>
      </trkpt>
      <trkpt lat="42.358877000" lon="-2.601618000">
        <ele>982.80</ele>
        <time>2016-10-29T08:50:11Z</time>
      </trkpt>
      <trkpt lat="42.358873000" lon="-2.601621000">
        <ele>982.60</ele>
        <time>2016-10-29T08:50:12Z</time>
      </trkpt>
      <trkpt lat="42.358874000" lon="-2.601625000">
        <ele>982.40</ele>
        <time>2016-10-29T08:50:13Z</time>
      </trkpt>
      <trkpt lat="42.358880000" lon="-2.601638000">
        <ele>982.50</ele>
        <time>2016-10-29T08:50:14Z</time>
      </trkpt>
      <trkpt lat="42.358886000" lon="-2.601631000">
        <ele>982.50</ele>
        <time>2016-10-29T08:50:15Z</time>
      </trkpt>
      <trkpt lat="42.358895000" lon="-2.601630000">
        <ele>982.50</ele>
        <time>2016-10-29T08:50:16Z</time>
      </trkpt>
      <trkpt lat="42.358910000" lon="-2.601627000">
        <ele>982.50</ele>
        <time>2016-10-29T08:50:17Z</time>
      </trkpt>
      <trkpt lat="42.358914000" lon="-2.601628000">
        <ele>982.50</ele>
        <time>2016-10-29T08:50:18Z</time>
      </trkpt>
      <trkpt lat="42.358916000" lon="-2.601631000">
        <ele>982.50</ele>
        <time>2016-10-29T08:50:19Z</time>
      </trkpt>
      <trkpt lat="42.358919000" lon="-2.601633000">
        <ele>982.50</ele>
        <time>2016-10-29T08:50:20Z</time>
      </trkpt>
      <trkpt lat="42.358922000" lon="-2.601631000">
        <ele>982.50</ele>
        <time>2016-10-29T08:50:21Z</time>
      </trkpt>
      <trkpt lat="42.358924000" lon="-2.601633000">
        <ele>982.50</ele>
        <time>2016-10-29T08:50:22Z</time>
      </trkpt>
      <trkpt lat="42.358926000" lon="-2.601637000">
        <ele>982.60</ele>
        <time>2016-10-29T08:50:23Z</time>
      </trkpt>
      <trkpt lat="42.358927000" lon="-2.601640000">
        <ele>982.60</ele>
        <time>2016-10-29T08:50:24Z</time>
      </trkpt>
      <trkpt lat="42.358927000" lon="-2.601642000">
        <ele>982.60</ele>
        <time>2016-10-29T08:50:25Z</time>
      </trkpt>
      <trkpt lat="42.358927000" lon="-2.601645000">
        <ele>982.70</ele>
        <time>2016-10-29T08:50:26Z</time>
      </trkpt>
      <trkpt lat="42.358926000" lon="-2.601646000">
        <ele>982.70</ele>
        <time>2016-10-29T08:50:27Z</time>
      </trkpt>
      <trkpt lat="42.358926000" lon="-2.601647000">
        <ele>982.80</ele>
        <time>2016-10-29T08:50:28Z</time>
      </trkpt>
      <trkpt lat="42.358925000" lon="-2.601650000">
        <ele>982.80</ele>
        <time>2016-10-29T08:50:30Z</time>
      </trkpt>
      <trkpt lat="42.358925000" lon="-2.601651000">
        <ele>982.90</ele>
        <time>2016-10-29T08:50:31Z</time>
      </trkpt>
      <trkpt lat="42.358925000" lon="-2.601652000">
        <ele>982.70</ele>
        <time>2016-10-29T08:50:32Z</time>
      </trkpt>
      <trkpt lat="42.358925000" lon="-2.601652000">
        <ele>982.70</ele>
        <time>2016-10-29T08:50:33Z</time>
      </trkpt>
      <trkpt lat="42.358924000" lon="-2.601652000">
        <ele>982.70</ele>
        <time>2016-10-29T08:50:34Z</time>
      </trkpt>
      <trkpt lat="42.358924000" lon="-2.601651000">
        <ele>982.80</ele>
        <time>2016-10-29T08:50:35Z</time>
      </trkpt>
      <trkpt lat="42.358925000" lon="-2.601649000">
        <ele>982.80</ele>
        <time>2016-10-29T08:50:36Z</time>
      </trkpt>
      <trkpt lat="42.358925000" lon="-2.601647000">
        <ele>982.80</ele>
        <time>2016-10-29T08:50:37Z</time>
      </trkpt>
      <trkpt lat="42.358925000" lon="-2.601646000">
        <ele>982.90</ele>
        <time>2016-10-29T08:50:38Z</time>
      </trkpt>
      <trkpt lat="42.358925000" lon="-2.601643000">
        <ele>983.00</ele>
        <time>2016-10-29T08:50:39Z</time>
      </trkpt>
      <trkpt lat="42.358925000" lon="-2.601641000">
        <ele>983.00</ele>
        <time>2016-10-29T08:50:40Z</time>
      </trkpt>
      <trkpt lat="42.358924000" lon="-2.601639000">
        <ele>983.10</ele>
        <time>2016-10-29T08:50:41Z</time>
      </trkpt>
      <trkpt lat="42.358924000" lon="-2.601639000">
        <ele>983.20</ele>
        <time>2016-10-29T08:50:42Z</time>
      </trkpt>
      <trkpt lat="42.358924000" lon="-2.601639000">
        <ele>983.20</ele>
        <time>2016-10-29T08:50:43Z</time>
      </trkpt>
      <trkpt lat="42.358924000" lon="-2.601639000">
        <ele>983.10</ele>
        <time>2016-10-29T08:50:44Z</time>
      </trkpt>
      <trkpt lat="42.358924000" lon="-2.601639000">
        <ele>983.00</ele>
        <time>2016-10-29T08:50:45Z</time>
      </trkpt>
      <trkpt lat="42.358925000" lon="-2.601637000">
        <ele>982.90</ele>
        <time>2016-10-29T08:50:46Z</time>
      </trkpt>
      <trkpt lat="42.358926000" lon="-2.601635000">
        <ele>982.80</ele>
        <time>2016-10-29T08:50:47Z</time>
      </trkpt>
      <trkpt lat="42.358927000" lon="-2.601634000">
        <ele>982.80</ele>
        <time>2016-10-29T08:50:48Z</time>
      </trkpt>
      <trkpt lat="42.358930000" lon="-2.601634000">
        <ele>982.70</ele>
        <time>2016-10-29T08:50:49Z</time>
      </trkpt>
      <trkpt lat="42.358931000" lon="-2.601634000">
        <ele>982.80</ele>
        <time>2016-10-29T08:50:50Z</time>
      </trkpt>
      <trkpt lat="42.358933000" lon="-2.601633000">
        <ele>982.90</ele>
        <time>2016-10-29T08:50:51Z</time>
      </trkpt>
      <trkpt lat="42.358934000" lon="-2.601632000">
        <ele>982.90</ele>
        <time>2016-10-29T08:50:52Z</time>
      </trkpt>
      <trkpt lat="42.358935000" lon="-2.601632000">
        <ele>983.00</ele>
        <time>2016-10-29T08:50:53Z</time>
      </trkpt>
      <trkpt lat="42.358935000" lon="-2.601632000">
        <ele>983.00</ele>
        <time>2016-10-29T08:50:54Z</time>
      </trkpt>
      <trkpt lat="42.358935000" lon="-2.601632000">
        <ele>983.00</ele>
        <time>2016-10-29T08:50:55Z</time>
      </trkpt>
      <trkpt lat="42.358935000" lon="-2.601632000">
        <ele>983.00</ele>
        <time>2016-10-29T08:50:56Z</time>
      </trkpt>
      <trkpt lat="42.358935000" lon="-2.601632000">
        <ele>983.00</ele>
        <time>2016-10-29T08:50:57Z</time>
      </trkpt>
      <trkpt lat="42.358935000" lon="-2.601632000">
        <ele>983.00</ele>
        <time>2016-10-29T08:50:58Z</time>
      </trkpt>
      <trkpt lat="42.358936000" lon="-2.601632000">
        <ele>982.90</ele>
        <time>2016-10-29T08:50:59Z</time>
      </trkpt>
      <trkpt lat="42.358936000" lon="-2.601633000">
        <ele>982.90</ele>
        <time>2016-10-29T08:51:00Z</time>
      </trkpt>
      <trkpt lat="42.358936000" lon="-2.601634000">
        <ele>982.80</ele>
        <time>2016-10-29T08:51:01Z</time>
      </trkpt>
      <trkpt lat="42.358936000" lon="-2.601634000">
        <ele>982.90</ele>
        <time>2016-10-29T08:51:02Z</time>
      </trkpt>
      <trkpt lat="42.358937000" lon="-2.601634000">
        <ele>982.90</ele>
        <time>2016-10-29T08:51:03Z</time>
      </trkpt>
      <trkpt lat="42.358937000" lon="-2.601635000">
        <ele>982.90</ele>
        <time>2016-10-29T08:51:04Z</time>
      </trkpt>
      <trkpt lat="42.358938000" lon="-2.601635000">
        <ele>983.00</ele>
        <time>2016-10-29T08:51:05Z</time>
      </trkpt>
      <trkpt lat="42.358938000" lon="-2.601635000">
        <ele>983.00</ele>
        <time>2016-10-29T08:51:06Z</time>
      </trkpt>
      <trkpt lat="42.358937000" lon="-2.601634000">
        <ele>983.00</ele>
        <time>2016-10-29T08:51:07Z</time>
      </trkpt>
      <trkpt lat="42.358937000" lon="-2.601633000">
        <ele>982.90</ele>
        <time>2016-10-29T08:51:08Z</time>
      </trkpt>
      <trkpt lat="42.358937000" lon="-2.601634000">
        <ele>982.90</ele>
        <time>2016-10-29T08:51:09Z</time>
      </trkpt>
      <trkpt lat="42.358937000" lon="-2.601635000">
        <ele>982.90</ele>
        <time>2016-10-29T08:51:10Z</time>
      </trkpt>
      <trkpt lat="42.358938000" lon="-2.601635000">
        <ele>982.90</ele>
        <time>2016-10-29T08:51:11Z</time>
      </trkpt>
      <trkpt lat="42.358938000" lon="-2.601636000">
        <ele>983.00</ele>
        <time>2016-10-29T08:51:12Z</time>
      </trkpt>
      <trkpt lat="42.358939000" lon="-2.601637000">
        <ele>983.00</ele>
        <time>2016-10-29T08:51:13Z</time>
      </trkpt>
      <trkpt lat="42.358939000" lon="-2.601638000">
        <ele>983.00</ele>
        <time>2016-10-29T08:51:14Z</time>
      </trkpt>
      <trkpt lat="42.358940000" lon="-2.601639000">
        <ele>983.00</ele>
        <time>2016-10-29T08:51:15Z</time>
      </trkpt>
      <trkpt lat="42.358941000" lon="-2.601640000">
        <ele>982.90</ele>
        <time>2016-10-29T08:51:16Z</time>
      </trkpt>
      <trkpt lat="42.358940000" lon="-2.601640000">
        <ele>982.90</ele>
        <time>2016-10-29T08:51:17Z</time>
      </trkpt>
      <trkpt lat="42.358940000" lon="-2.601640000">
        <ele>982.80</ele>
        <time>2016-10-29T08:51:18Z</time>
      </trkpt>
      <trkpt lat="42.358940000" lon="-2.601640000">
        <ele>982.80</ele>
        <time>2016-10-29T08:51:19Z</time>
      </trkpt>
      <trkpt lat="42.358941000" lon="-2.601639000">
        <ele>982.90</ele>
        <time>2016-10-29T08:51:20Z</time>
      </trkpt>
      <trkpt lat="42.358941000" lon="-2.601638000">
        <ele>983.00</ele>
        <time>2016-10-29T08:51:21Z</time>
      </trkpt>
      <trkpt lat="42.358940000" lon="-2.601638000">
        <ele>983.00</ele>
        <time>2016-10-29T08:51:22Z</time>
      </trkpt>
      <trkpt lat="42.358940000" lon="-2.601636000">
        <ele>983.10</ele>
        <time>2016-10-29T08:51:23Z</time>
      </trkpt>
      <trkpt lat="42.358940000" lon="-2.601636000">
        <ele>983.00</ele>
        <time>2016-10-29T08:51:24Z</time>
      </trkpt>
      <trkpt lat="42.358939000" lon="-2.601635000">
        <ele>983.00</ele>
        <time>2016-10-29T08:51:25Z</time>
      </trkpt>
      <trkpt lat="42.358939000" lon="-2.601635000">
        <ele>983.00</ele>
        <time>2016-10-29T08:51:26Z</time>
      </trkpt>
      <trkpt lat="42.358939000" lon="-2.601636000">
        <ele>983.00</ele>
        <time>2016-10-29T08:51:27Z</time>
      </trkpt>
      <trkpt lat="42.358940000" lon="-2.601636000">
        <ele>983.00</ele>
        <time>2016-10-29T08:51:28Z</time>
      </trkpt>
      <trkpt lat="42.358941000" lon="-2.601636000">
        <ele>982.90</ele>
        <time>2016-10-29T08:51:29Z</time>
      </trkpt>
      <trkpt lat="42.358942000" lon="-2.601635000">
        <ele>982.90</ele>
        <time>2016-10-29T08:51:31Z</time>
      </trkpt>
      <trkpt lat="42.358942000" lon="-2.601634000">
        <ele>983.00</ele>
        <time>2016-10-29T08:51:32Z</time>
      </trkpt>
      <trkpt lat="42.358943000" lon="-2.601633000">
        <ele>983.00</ele>
        <time>2016-10-29T08:51:33Z</time>
      </trkpt>
      <trkpt lat="42.358943000" lon="-2.601632000">
        <ele>983.00</ele>
        <time>2016-10-29T08:51:34Z</time>
      </trkpt>
      <trkpt lat="42.358944000" lon="-2.601632000">
        <ele>983.00</ele>
        <time>2016-10-29T08:51:35Z</time>
      </trkpt>
      <trkpt lat="42.358944000" lon="-2.601633000">
        <ele>983.00</ele>
        <time>2016-10-29T08:51:36Z</time>
      </trkpt>
      <trkpt lat="42.358944000" lon="-2.601633000">
        <ele>983.00</ele>
        <time>2016-10-29T08:51:37Z</time>
      </trkpt>
      <trkpt lat="42.358944000" lon="-2.601634000">
        <ele>983.00</ele>
        <time>2016-10-29T08:51:38Z</time>
      </trkpt>
      <trkpt lat="42.358944000" lon="-2.601634000">
        <ele>982.90</ele>
        <time>2016-10-29T08:51:39Z</time>
      </trkpt>
      <trkpt lat="42.358943000" lon="-2.601634000">
        <ele>982.90</ele>
        <time>2016-10-29T08:51:40Z</time>
      </trkpt>
      <trkpt lat="42.358943000" lon="-2.601634000">
        <ele>982.90</ele>
        <time>2016-10-29T08:51:41Z</time>
      </trkpt>
      <trkpt lat="42.358942000" lon="-2.601635000">
        <ele>982.90</ele>
        <time>2016-10-29T08:51:42Z</time>
      </trkpt>
      <trkpt lat="42.358942000" lon="-2.601636000">
        <ele>982.90</ele>
        <time>2016-10-29T08:51:43Z</time>
      </trkpt>
      <trkpt lat="42.358941000" lon="-2.601637000">
        <ele>982.90</ele>
        <time>2016-10-29T08:51:44Z</time>
      </trkpt>
      <trkpt lat="42.358942000" lon="-2.601638000">
        <ele>983.00</ele>
        <time>2016-10-29T08:51:45Z</time>
      </trkpt>
      <trkpt lat="42.358942000" lon="-2.601640000">
        <ele>983.00</ele>
        <time>2016-10-29T08:51:46Z</time>
      </trkpt>
      <trkpt lat="42.358943000" lon="-2.601640000">
        <ele>983.00</ele>
        <time>2016-10-29T08:51:47Z</time>
      </trkpt>
      <trkpt lat="42.358943000" lon="-2.601639000">
        <ele>983.10</ele>
        <time>2016-10-29T08:51:48Z</time>
      </trkpt>
      <trkpt lat="42.358943000" lon="-2.601638000">
        <ele>983.20</ele>
        <time>2016-10-29T08:51:49Z</time>
      </trkpt>
      <trkpt lat="42.358943000" lon="-2.601638000">
        <ele>983.20</ele>
        <time>2016-10-29T08:51:50Z</time>
      </trkpt>
      <trkpt lat="42.358944000" lon="-2.601638000">
        <ele>983.30</ele>
        <time>2016-10-29T08:51:51Z</time>
      </trkpt>
      <trkpt lat="42.358944000" lon="-2.601639000">
        <ele>983.30</ele>
        <time>2016-10-29T08:51:52Z</time>
      </trkpt>
      <trkpt lat="42.358945000" lon="-2.601640000">
        <ele>983.30</ele>
        <time>2016-10-29T08:51:53Z</time>
      </trkpt>
      <trkpt lat="42.358945000" lon="-2.601641000">
        <ele>983.20</ele>
        <time>2016-10-29T08:51:54Z</time>
      </trkpt>
      <trkpt lat="42.358946000" lon="-2.601641000">
        <ele>983.10</ele>
        <time>2016-10-29T08:51:55Z</time>
      </trkpt>
      <trkpt lat="42.358947000" lon="-2.601642000">
        <ele>983.00</ele>
        <time>2016-10-29T08:51:56Z</time>
      </trkpt>
      <trkpt lat="42.358947000" lon="-2.601642000">
        <ele>982.90</ele>
        <time>2016-10-29T08:51:57Z</time>
      </trkpt>
      <trkpt lat="42.358946000" lon="-2.601641000">
        <ele>982.90</ele>
        <time>2016-10-29T08:51:58Z</time>
      </trkpt>
      <trkpt lat="42.358944000" lon="-2.601640000">
        <ele>982.90</ele>
        <time>2016-10-29T08:51:59Z</time>
      </trkpt>
      <trkpt lat="42.358944000" lon="-2.601640000">
        <ele>982.90</ele>
        <time>2016-10-29T08:52:00Z</time>
      </trkpt>
      <trkpt lat="42.358944000" lon="-2.601639000">
        <ele>982.80</ele>
        <time>2016-10-29T08:52:01Z</time>
      </trkpt>
      <trkpt lat="42.358944000" lon="-2.601639000">
        <ele>982.90</ele>
        <time>2016-10-29T08:52:02Z</time>
      </trkpt>
      <trkpt lat="42.358943000" lon="-2.601639000">
        <ele>982.90</ele>
        <time>2016-10-29T08:52:03Z</time>
      </trkpt>
      <trkpt lat="42.358942000" lon="-2.601639000">
        <ele>982.90</ele>
        <time>2016-10-29T08:52:04Z</time>
      </trkpt>
      <trkpt lat="42.358942000" lon="-2.601639000">
        <ele>982.80</ele>
        <time>2016-10-29T08:52:05Z</time>
      </trkpt>
      <trkpt lat="42.358942000" lon="-2.601638000">
        <ele>982.70</ele>
        <time>2016-10-29T08:52:06Z</time>
      </trkpt>
      <trkpt lat="42.358942000" lon="-2.601638000">
        <ele>982.70</ele>
        <time>2016-10-29T08:52:07Z</time>
      </trkpt>
      <trkpt lat="42.358942000" lon="-2.601637000">
        <ele>982.60</ele>
        <time>2016-10-29T08:52:08Z</time>
      </trkpt>
      <trkpt lat="42.358941000" lon="-2.601636000">
        <ele>982.60</ele>
        <time>2016-10-29T08:52:09Z</time>
      </trkpt>
      <trkpt lat="42.358940000" lon="-2.601636000">
        <ele>982.60</ele>
        <time>2016-10-29T08:52:10Z</time>
      </trkpt>
      <trkpt lat="42.358940000" lon="-2.601636000">
        <ele>982.50</ele>
        <time>2016-10-29T08:52:11Z</time>
      </trkpt>
      <trkpt lat="42.358939000" lon="-2.601636000">
        <ele>982.50</ele>
        <time>2016-10-29T08:52:12Z</time>
      </trkpt>
      <trkpt lat="42.358938000" lon="-2.601636000">
        <ele>982.50</ele>
        <time>2016-10-29T08:52:13Z</time>
      </trkpt>
      <trkpt lat="42.358937000" lon="-2.601637000">
        <ele>982.50</ele>
        <time>2016-10-29T08:52:14Z</time>
      </trkpt>
      <trkpt lat="42.358936000" lon="-2.601636000">
        <ele>982.50</ele>
        <time>2016-10-29T08:52:15Z</time>
      </trkpt>
      <trkpt lat="42.358935000" lon="-2.601636000">
        <ele>982.50</ele>
        <time>2016-10-29T08:52:16Z</time>
      </trkpt>
      <trkpt lat="42.358936000" lon="-2.601637000">
        <ele>982.50</ele>
        <time>2016-10-29T08:52:17Z</time>
      </trkpt>
      <trkpt lat="42.358938000" lon="-2.601637000">
        <ele>982.40</ele>
        <time>2016-10-29T08:52:18Z</time>
      </trkpt>
      <trkpt lat="42.358941000" lon="-2.601640000">
        <ele>982.30</ele>
        <time>2016-10-29T08:52:19Z</time>
      </trkpt>
      <trkpt lat="42.358945000" lon="-2.601638000">
        <ele>982.30</ele>
        <time>2016-10-29T08:52:20Z</time>
      </trkpt>
      <trkpt lat="42.358949000" lon="-2.601635000">
        <ele>982.20</ele>
        <time>2016-10-29T08:52:21Z</time>
      </trkpt>
      <trkpt lat="42.358958000" lon="-2.601635000">
        <ele>982.20</ele>
        <time>2016-10-29T08:52:22Z</time>
      </trkpt>
      <trkpt lat="42.358963000" lon="-2.601636000">
        <ele>982.20</ele>
        <time>2016-10-29T08:52:23Z</time>
      </trkpt>
      <trkpt lat="42.358981000" lon="-2.601644000">
        <ele>982.20</ele>
        <time>2016-10-29T08:52:24Z</time>
      </trkpt>
      <trkpt lat="42.358997000" lon="-2.601657000">
        <ele>982.30</ele>
        <time>2016-10-29T08:52:25Z</time>
      </trkpt>
      <trkpt lat="42.359013000" lon="-2.601663000">
        <ele>982.30</ele>
        <time>2016-10-29T08:52:26Z</time>
      </trkpt>
      <trkpt lat="42.359033000" lon="-2.601662000">
        <ele>982.30</ele>
        <time>2016-10-29T08:52:27Z</time>
      </trkpt>
      <trkpt lat="42.359059000" lon="-2.601665000">
        <ele>982.30</ele>
        <time>2016-10-29T08:52:28Z</time>
      </trkpt>
      <trkpt lat="42.359083000" lon="-2.601663000">
        <ele>982.30</ele>
        <time>2016-10-29T08:52:29Z</time>
      </trkpt>
      <trkpt lat="42.359107000" lon="-2.601673000">
        <ele>982.30</ele>
        <time>2016-10-29T08:52:30Z</time>
      </trkpt>
      <trkpt lat="42.359164000" lon="-2.601683000">
        <ele>982.10</ele>
        <time>2016-10-29T08:52:32Z</time>
      </trkpt>
      <trkpt lat="42.359198000" lon="-2.601677000">
        <ele>982.10</ele>
        <time>2016-10-29T08:52:33Z</time>
      </trkpt>
      <trkpt lat="42.359234000" lon="-2.601671000">
        <ele>981.70</ele>
        <time>2016-10-29T08:52:34Z</time>
      </trkpt>
      <trkpt lat="42.359268000" lon="-2.601658000">
        <ele>981.50</ele>
        <time>2016-10-29T08:52:35Z</time>
      </trkpt>
      <trkpt lat="42.359315000" lon="-2.601651000">
        <ele>981.30</ele>
        <time>2016-10-29T08:52:36Z</time>
      </trkpt>
      <trkpt lat="42.359365000" lon="-2.601642000">
        <ele>981.20</ele>
        <time>2016-10-29T08:52:37Z</time>
      </trkpt>
      <trkpt lat="42.359420000" lon="-2.601637000">
        <ele>980.90</ele>
        <time>2016-10-29T08:52:38Z</time>
      </trkpt>
      <trkpt lat="42.359474000" lon="-2.601632000">
        <ele>980.80</ele>
        <time>2016-10-29T08:52:39Z</time>
      </trkpt>
      <trkpt lat="42.359528000" lon="-2.601620000">
        <ele>980.40</ele>
        <time>2016-10-29T08:52:40Z</time>
      </trkpt>
      <trkpt lat="42.359577000" lon="-2.601615000">
        <ele>980.20</ele>
        <time>2016-10-29T08:52:41Z</time>
      </trkpt>
      <trkpt lat="42.359622000" lon="-2.601613000">
        <ele>979.40</ele>
        <time>2016-10-29T08:52:42Z</time>
      </trkpt>
      <trkpt lat="42.359654000" lon="-2.601615000">
        <ele>978.80</ele>
        <time>2016-10-29T08:52:43Z</time>
      </trkpt>
      <trkpt lat="42.359683000" lon="-2.601613000">
        <ele>978.30</ele>
        <time>2016-10-29T08:52:44Z</time>
      </trkpt>
      <trkpt lat="42.359712000" lon="-2.601610000">
        <ele>977.80</ele>
        <time>2016-10-29T08:52:45Z</time>
      </trkpt>
      <trkpt lat="42.359737000" lon="-2.601598000">
        <ele>977.20</ele>
        <time>2016-10-29T08:52:46Z</time>
      </trkpt>
      <trkpt lat="42.359756000" lon="-2.601573000">
        <ele>976.80</ele>
        <time>2016-10-29T08:52:47Z</time>
      </trkpt>
      <trkpt lat="42.359772000" lon="-2.601536000">
        <ele>976.20</ele>
        <time>2016-10-29T08:52:48Z</time>
      </trkpt>
      <trkpt lat="42.359790000" lon="-2.601494000">
        <ele>975.80</ele>
        <time>2016-10-29T08:52:49Z</time>
      </trkpt>
      <trkpt lat="42.359809000" lon="-2.601446000">
        <ele>975.50</ele>
        <time>2016-10-29T08:52:50Z</time>
      </trkpt>
      <trkpt lat="42.359825000" lon="-2.601398000">
        <ele>975.20</ele>
        <time>2016-10-29T08:52:51Z</time>
      </trkpt>
      <trkpt lat="42.359845000" lon="-2.601351000">
        <ele>974.50</ele>
        <time>2016-10-29T08:52:52Z</time>
      </trkpt>
      <trkpt lat="42.359867000" lon="-2.601307000">
        <ele>973.90</ele>
        <time>2016-10-29T08:52:53Z</time>
      </trkpt>
      <trkpt lat="42.359892000" lon="-2.601267000">
        <ele>972.60</ele>
        <time>2016-10-29T08:52:54Z</time>
      </trkpt>
      <trkpt lat="42.359916000" lon="-2.601230000">
        <ele>971.60</ele>
        <time>2016-10-29T08:52:55Z</time>
      </trkpt>
      <trkpt lat="42.359937000" lon="-2.601205000">
        <ele>970.50</ele>
        <time>2016-10-29T08:52:56Z</time>
      </trkpt>
      <trkpt lat="42.359959000" lon="-2.601185000">
        <ele>969.80</ele>
        <time>2016-10-29T08:52:57Z</time>
      </trkpt>
      <trkpt lat="42.359984000" lon="-2.601166000">
        <ele>968.80</ele>
        <time>2016-10-29T08:52:58Z</time>
      </trkpt>
      <trkpt lat="42.360009000" lon="-2.601151000">
        <ele>968.10</ele>
        <time>2016-10-29T08:52:59Z</time>
      </trkpt>
      <trkpt lat="42.360030000" lon="-2.601140000">
        <ele>967.30</ele>
        <time>2016-10-29T08:53:00Z</time>
      </trkpt>
      <trkpt lat="42.360052000" lon="-2.601134000">
        <ele>966.70</ele>
        <time>2016-10-29T08:53:01Z</time>
      </trkpt>
      <trkpt lat="42.360077000" lon="-2.601127000">
        <ele>966.20</ele>
        <time>2016-10-29T08:53:02Z</time>
      </trkpt>
      <trkpt lat="42.360102000" lon="-2.601121000">
        <ele>965.80</ele>
        <time>2016-10-29T08:53:03Z</time>
      </trkpt>
      <trkpt lat="42.360125000" lon="-2.601112000">
        <ele>965.20</ele>
        <time>2016-10-29T08:53:04Z</time>
      </trkpt>
      <trkpt lat="42.360144000" lon="-2.601107000">
        <ele>964.80</ele>
        <time>2016-10-29T08:53:05Z</time>
      </trkpt>
      <trkpt lat="42.360165000" lon="-2.601113000">
        <ele>964.40</ele>
        <time>2016-10-29T08:53:06Z</time>
      </trkpt>
      <trkpt lat="42.360188000" lon="-2.601121000">
        <ele>964.10</ele>
        <time>2016-10-29T08:53:07Z</time>
      </trkpt>
      <trkpt lat="42.360208000" lon="-2.601122000">
        <ele>963.90</ele>
        <time>2016-10-29T08:53:08Z</time>
      </trkpt>
      <trkpt lat="42.360232000" lon="-2.601120000">
        <ele>963.70</ele>
        <time>2016-10-29T08:53:09Z</time>
      </trkpt>
      <trkpt lat="42.360247000" lon="-2.601114000">
        <ele>963.60</ele>
        <time>2016-10-29T08:53:10Z</time>
      </trkpt>
      <trkpt lat="42.360262000" lon="-2.601094000">
        <ele>963.50</ele>
        <time>2016-10-29T08:53:11Z</time>
      </trkpt>
      <trkpt lat="42.360280000" lon="-2.601070000">
        <ele>963.30</ele>
        <time>2016-10-29T08:53:12Z</time>
      </trkpt>
      <trkpt lat="42.360290000" lon="-2.601038000">
        <ele>963.20</ele>
        <time>2016-10-29T08:53:13Z</time>
      </trkpt>
      <trkpt lat="42.360293000" lon="-2.600998000">
        <ele>962.80</ele>
        <time>2016-10-29T08:53:14Z</time>
      </trkpt>
      <trkpt lat="42.360294000" lon="-2.600961000">
        <ele>962.60</ele>
        <time>2016-10-29T08:53:15Z</time>
      </trkpt>
      <trkpt lat="42.360308000" lon="-2.600936000">
        <ele>962.20</ele>
        <time>2016-10-29T08:53:16Z</time>
      </trkpt>
      <trkpt lat="42.360336000" lon="-2.600931000">
        <ele>962.00</ele>
        <time>2016-10-29T08:53:17Z</time>
      </trkpt>
      <trkpt lat="42.360367000" lon="-2.600936000">
        <ele>961.60</ele>
        <time>2016-10-29T08:53:18Z</time>
      </trkpt>
      <trkpt lat="42.360400000" lon="-2.600964000">
        <ele>961.30</ele>
        <time>2016-10-29T08:53:19Z</time>
      </trkpt>
      <trkpt lat="42.360428000" lon="-2.601000000">
        <ele>960.90</ele>
        <time>2016-10-29T08:53:20Z</time>
      </trkpt>
      <trkpt lat="42.360462000" lon="-2.601030000">
        <ele>960.70</ele>
        <time>2016-10-29T08:53:21Z</time>
      </trkpt>
      <trkpt lat="42.360494000" lon="-2.601059000">
        <ele>960.50</ele>
        <time>2016-10-29T08:53:22Z</time>
      </trkpt>
      <trkpt lat="42.360532000" lon="-2.601079000">
        <ele>960.40</ele>
        <time>2016-10-29T08:53:23Z</time>
      </trkpt>
      <trkpt lat="42.360564000" lon="-2.601085000">
        <ele>960.30</ele>
        <time>2016-10-29T08:53:24Z</time>
      </trkpt>
      <trkpt lat="42.360579000" lon="-2.601095000">
        <ele>960.20</ele>
        <time>2016-10-29T08:53:25Z</time>
      </trkpt>
      <trkpt lat="42.360596000" lon="-2.601118000">
        <ele>960.10</ele>
        <time>2016-10-29T08:53:26Z</time>
      </trkpt>
      <trkpt lat="42.360611000" lon="-2.601137000">
        <ele>960.10</ele>
        <time>2016-10-29T08:53:27Z</time>
      </trkpt>
      <trkpt lat="42.360632000" lon="-2.601156000">
        <ele>960.20</ele>
        <time>2016-10-29T08:53:28Z</time>
      </trkpt>
      <trkpt lat="42.360656000" lon="-2.601173000">
        <ele>960.20</ele>
        <time>2016-10-29T08:53:29Z</time>
      </trkpt>
      <trkpt lat="42.360680000" lon="-2.601190000">
        <ele>960.30</ele>
        <time>2016-10-29T08:53:30Z</time>
      </trkpt>
      <trkpt lat="42.360709000" lon="-2.601196000">
        <ele>960.40</ele>
        <time>2016-10-29T08:53:31Z</time>
      </trkpt>
      <trkpt lat="42.360782000" lon="-2.601202000">
        <ele>960.60</ele>
        <time>2016-10-29T08:53:33Z</time>
      </trkpt>
      <trkpt lat="42.360825000" lon="-2.601212000">
        <ele>960.70</ele>
        <time>2016-10-29T08:53:34Z</time>
      </trkpt>
      <trkpt lat="42.360866000" lon="-2.601230000">
        <ele>960.80</ele>
        <time>2016-10-29T08:53:35Z</time>
      </trkpt>
      <trkpt lat="42.360903000" lon="-2.601244000">
        <ele>960.70</ele>
        <time>2016-10-29T08:53:36Z</time>
      </trkpt>
      <trkpt lat="42.360938000" lon="-2.601252000">
        <ele>960.60</ele>
        <time>2016-10-29T08:53:37Z</time>
      </trkpt>
      <trkpt lat="42.360977000" lon="-2.601262000">
        <ele>960.30</ele>
        <time>2016-10-29T08:53:38Z</time>
      </trkpt>
      <trkpt lat="42.361021000" lon="-2.601271000">
        <ele>960.00</ele>
        <time>2016-10-29T08:53:39Z</time>
      </trkpt>
      <trkpt lat="42.361065000" lon="-2.601269000">
        <ele>959.70</ele>
        <time>2016-10-29T08:53:40Z</time>
      </trkpt>
      <trkpt lat="42.361107000" lon="-2.601264000">
        <ele>959.50</ele>
        <time>2016-10-29T08:53:41Z</time>
      </trkpt>
      <trkpt lat="42.361150000" lon="-2.601260000">
        <ele>959.20</ele>
        <time>2016-10-29T08:53:42Z</time>
      </trkpt>
      <trkpt lat="42.361196000" lon="-2.601239000">
        <ele>959.00</ele>
        <time>2016-10-29T08:53:43Z</time>
      </trkpt>
      <trkpt lat="42.361241000" lon="-2.601213000">
        <ele>958.70</ele>
        <time>2016-10-29T08:53:44Z</time>
      </trkpt>
      <trkpt lat="42.361292000" lon="-2.601192000">
        <ele>958.50</ele>
        <time>2016-10-29T08:53:45Z</time>
      </trkpt>
      <trkpt lat="42.361339000" lon="-2.601168000">
        <ele>957.80</ele>
        <time>2016-10-29T08:53:46Z</time>
      </trkpt>
      <trkpt lat="42.361370000" lon="-2.601153000">
        <ele>957.20</ele>
        <time>2016-10-29T08:53:47Z</time>
      </trkpt>
      <trkpt lat="42.361398000" lon="-2.601139000">
        <ele>956.40</ele>
        <time>2016-10-29T08:53:48Z</time>
      </trkpt>
      <trkpt lat="42.361422000" lon="-2.601130000">
        <ele>955.80</ele>
        <time>2016-10-29T08:53:49Z</time>
      </trkpt>
      <trkpt lat="42.361452000" lon="-2.601125000">
        <ele>955.10</ele>
        <time>2016-10-29T08:53:50Z</time>
      </trkpt>
      <trkpt lat="42.361491000" lon="-2.601130000">
        <ele>954.70</ele>
        <time>2016-10-29T08:53:51Z</time>
      </trkpt>
      <trkpt lat="42.361529000" lon="-2.601129000">
        <ele>954.20</ele>
        <time>2016-10-29T08:53:52Z</time>
      </trkpt>
      <trkpt lat="42.361569000" lon="-2.601120000">
        <ele>953.90</ele>
        <time>2016-10-29T08:53:53Z</time>
      </trkpt>
      <trkpt lat="42.361612000" lon="-2.601101000">
        <ele>953.60</ele>
        <time>2016-10-29T08:53:54Z</time>
      </trkpt>
      <trkpt lat="42.361644000" lon="-2.601079000">
        <ele>953.30</ele>
        <time>2016-10-29T08:53:55Z</time>
      </trkpt>
      <trkpt lat="42.361678000" lon="-2.601058000">
        <ele>952.70</ele>
        <time>2016-10-29T08:53:56Z</time>
      </trkpt>
      <trkpt lat="42.361712000" lon="-2.601032000">
        <ele>952.10</ele>
        <time>2016-10-29T08:53:57Z</time>
      </trkpt>
      <trkpt lat="42.361748000" lon="-2.601013000">
        <ele>951.60</ele>
        <time>2016-10-29T08:53:58Z</time>
      </trkpt>
      <trkpt lat="42.361777000" lon="-2.600995000">
        <ele>951.10</ele>
        <time>2016-10-29T08:53:59Z</time>
      </trkpt>
      <trkpt lat="42.361802000" lon="-2.600980000">
        <ele>950.70</ele>
        <time>2016-10-29T08:54:00Z</time>
      </trkpt>
      <trkpt lat="42.361829000" lon="-2.600960000">
        <ele>950.30</ele>
        <time>2016-10-29T08:54:01Z</time>
      </trkpt>
      <trkpt lat="42.361855000" lon="-2.600939000">
        <ele>949.90</ele>
        <time>2016-10-29T08:54:02Z</time>
      </trkpt>
      <trkpt lat="42.361881000" lon="-2.600922000">
        <ele>949.60</ele>
        <time>2016-10-29T08:54:03Z</time>
      </trkpt>
      <trkpt lat="42.361901000" lon="-2.600910000">
        <ele>948.90</ele>
        <time>2016-10-29T08:54:04Z</time>
      </trkpt>
      <trkpt lat="42.361924000" lon="-2.600894000">
        <ele>948.40</ele>
        <time>2016-10-29T08:54:05Z</time>
      </trkpt>
      <trkpt lat="42.361947000" lon="-2.600875000">
        <ele>947.70</ele>
        <time>2016-10-29T08:54:06Z</time>
      </trkpt>
      <trkpt lat="42.361976000" lon="-2.600861000">
        <ele>947.10</ele>
        <time>2016-10-29T08:54:07Z</time>
      </trkpt>
      <trkpt lat="42.362008000" lon="-2.600850000">
        <ele>946.30</ele>
        <time>2016-10-29T08:54:08Z</time>
      </trkpt>
      <trkpt lat="42.362046000" lon="-2.600841000">
        <ele>945.80</ele>
        <time>2016-10-29T08:54:09Z</time>
      </trkpt>
      <trkpt lat="42.362081000" lon="-2.600817000">
        <ele>945.20</ele>
        <time>2016-10-29T08:54:10Z</time>
      </trkpt>
      <trkpt lat="42.362116000" lon="-2.600774000">
        <ele>944.80</ele>
        <time>2016-10-29T08:54:11Z</time>
      </trkpt>
      <trkpt lat="42.362146000" lon="-2.600734000">
        <ele>944.20</ele>
        <time>2016-10-29T08:54:12Z</time>
      </trkpt>
      <trkpt lat="42.362172000" lon="-2.600702000">
        <ele>943.80</ele>
        <time>2016-10-29T08:54:13Z</time>
      </trkpt>
      <trkpt lat="42.362202000" lon="-2.600675000">
        <ele>943.30</ele>
        <time>2016-10-29T08:54:14Z</time>
      </trkpt>
      <trkpt lat="42.362233000" lon="-2.600652000">
        <ele>942.90</ele>
        <time>2016-10-29T08:54:15Z</time>
      </trkpt>
      <trkpt lat="42.362260000" lon="-2.600627000">
        <ele>942.10</ele>
        <time>2016-10-29T08:54:16Z</time>
      </trkpt>
      <trkpt lat="42.362286000" lon="-2.600595000">
        <ele>941.50</ele>
        <time>2016-10-29T08:54:17Z</time>
      </trkpt>
      <trkpt lat="42.362314000" lon="-2.600567000">
        <ele>940.80</ele>
        <time>2016-10-29T08:54:18Z</time>
      </trkpt>
      <trkpt lat="42.362337000" lon="-2.600525000">
        <ele>940.20</ele>
        <time>2016-10-29T08:54:19Z</time>
      </trkpt>
      <trkpt lat="42.362354000" lon="-2.600480000">
        <ele>938.90</ele>
        <time>2016-10-29T08:54:20Z</time>
      </trkpt>
      <trkpt lat="42.362384000" lon="-2.600441000">
        <ele>937.90</ele>
        <time>2016-10-29T08:54:21Z</time>
      </trkpt>
      <trkpt lat="42.362422000" lon="-2.600407000">
        <ele>937.10</ele>
        <time>2016-10-29T08:54:22Z</time>
      </trkpt>
      <trkpt lat="42.362455000" lon="-2.600381000">
        <ele>936.50</ele>
        <time>2016-10-29T08:54:23Z</time>
      </trkpt>
      <trkpt lat="42.362489000" lon="-2.600357000">
        <ele>935.60</ele>
        <time>2016-10-29T08:54:24Z</time>
      </trkpt>
      <trkpt lat="42.362512000" lon="-2.600345000">
        <ele>935.00</ele>
        <time>2016-10-29T08:54:25Z</time>
      </trkpt>
      <trkpt lat="42.362533000" lon="-2.600342000">
        <ele>934.00</ele>
        <time>2016-10-29T08:54:26Z</time>
      </trkpt>
      <trkpt lat="42.362556000" lon="-2.600344000">
        <ele>933.30</ele>
        <time>2016-10-29T08:54:27Z</time>
      </trkpt>
      <trkpt lat="42.362578000" lon="-2.600355000">
        <ele>932.60</ele>
        <time>2016-10-29T08:54:28Z</time>
      </trkpt>
      <trkpt lat="42.362603000" lon="-2.600358000">
        <ele>932.20</ele>
        <time>2016-10-29T08:54:29Z</time>
      </trkpt>
      <trkpt lat="42.362630000" lon="-2.600356000">
        <ele>931.80</ele>
        <time>2016-10-29T08:54:30Z</time>
      </trkpt>
      <trkpt lat="42.362656000" lon="-2.600351000">
        <ele>931.50</ele>
        <time>2016-10-29T08:54:31Z</time>
      </trkpt>
      <trkpt lat="42.362682000" lon="-2.600345000">
        <ele>931.20</ele>
        <time>2016-10-29T08:54:32Z</time>
      </trkpt>
      <trkpt lat="42.362738000" lon="-2.600318000">
        <ele>930.60</ele>
        <time>2016-10-29T08:54:34Z</time>
      </trkpt>
      <trkpt lat="42.362775000" lon="-2.600299000">
        <ele>930.30</ele>
        <time>2016-10-29T08:54:35Z</time>
      </trkpt>
      <trkpt lat="42.362818000" lon="-2.600276000">
        <ele>929.80</ele>
        <time>2016-10-29T08:54:36Z</time>
      </trkpt>
      <trkpt lat="42.362858000" lon="-2.600240000">
        <ele>929.40</ele>
        <time>2016-10-29T08:54:37Z</time>
      </trkpt>
      <trkpt lat="42.362897000" lon="-2.600195000">
        <ele>929.10</ele>
        <time>2016-10-29T08:54:38Z</time>
      </trkpt>
      <trkpt lat="42.362938000" lon="-2.600136000">
        <ele>928.90</ele>
        <time>2016-10-29T08:54:39Z</time>
      </trkpt>
      <trkpt lat="42.362974000" lon="-2.600067000">
        <ele>928.50</ele>
        <time>2016-10-29T08:54:40Z</time>
      </trkpt>
      <trkpt lat="42.362997000" lon="-2.599993000">
        <ele>928.20</ele>
        <time>2016-10-29T08:54:41Z</time>
      </trkpt>
      <trkpt lat="42.363021000" lon="-2.599923000">
        <ele>927.40</ele>
        <time>2016-10-29T08:54:42Z</time>
      </trkpt>
      <trkpt lat="42.363050000" lon="-2.599859000">
        <ele>926.80</ele>
        <time>2016-10-29T08:54:43Z</time>
      </trkpt>
      <trkpt lat="42.363082000" lon="-2.599793000">
        <ele>926.20</ele>
        <time>2016-10-29T08:54:44Z</time>
      </trkpt>
      <trkpt lat="42.363120000" lon="-2.599737000">
        <ele>925.70</ele>
        <time>2016-10-29T08:54:45Z</time>
      </trkpt>
      <trkpt lat="42.363159000" lon="-2.599681000">
        <ele>925.20</ele>
        <time>2016-10-29T08:54:46Z</time>
      </trkpt>
      <trkpt lat="42.363200000" lon="-2.599626000">
        <ele>924.80</ele>
        <time>2016-10-29T08:54:47Z</time>
      </trkpt>
      <trkpt lat="42.363242000" lon="-2.599580000">
        <ele>924.50</ele>
        <time>2016-10-29T08:54:48Z</time>
      </trkpt>
      <trkpt lat="42.363283000" lon="-2.599533000">
        <ele>924.30</ele>
        <time>2016-10-29T08:54:49Z</time>
      </trkpt>
      <trkpt lat="42.363314000" lon="-2.599490000">
        <ele>924.10</ele>
        <time>2016-10-29T08:54:50Z</time>
      </trkpt>
      <trkpt lat="42.363335000" lon="-2.599454000">
        <ele>923.90</ele>
        <time>2016-10-29T08:54:51Z</time>
      </trkpt>
      <trkpt lat="42.363350000" lon="-2.599422000">
        <ele>923.30</ele>
        <time>2016-10-29T08:54:52Z</time>
      </trkpt>
      <trkpt lat="42.363354000" lon="-2.599388000">
        <ele>922.90</ele>
        <time>2016-10-29T08:54:53Z</time>
      </trkpt>
      <trkpt lat="42.363356000" lon="-2.599354000">
        <ele>922.60</ele>
        <time>2016-10-29T08:54:54Z</time>
      </trkpt>
      <trkpt lat="42.363363000" lon="-2.599320000">
        <ele>922.30</ele>
        <time>2016-10-29T08:54:55Z</time>
      </trkpt>
      <trkpt lat="42.363372000" lon="-2.599281000">
        <ele>921.70</ele>
        <time>2016-10-29T08:54:56Z</time>
      </trkpt>
      <trkpt lat="42.363381000" lon="-2.599240000">
        <ele>921.30</ele>
        <time>2016-10-29T08:54:57Z</time>
      </trkpt>
      <trkpt lat="42.363399000" lon="-2.599197000">
        <ele>920.60</ele>
        <time>2016-10-29T08:54:58Z</time>
      </trkpt>
      <trkpt lat="42.363434000" lon="-2.599152000">
        <ele>920.00</ele>
        <time>2016-10-29T08:54:59Z</time>
      </trkpt>
      <trkpt lat="42.363479000" lon="-2.599114000">
        <ele>919.40</ele>
        <time>2016-10-29T08:55:00Z</time>
      </trkpt>
      <trkpt lat="42.363531000" lon="-2.599074000">
        <ele>918.90</ele>
        <time>2016-10-29T08:55:01Z</time>
      </trkpt>
      <trkpt lat="42.363579000" lon="-2.599032000">
        <ele>918.10</ele>
        <time>2016-10-29T08:55:02Z</time>
      </trkpt>
      <trkpt lat="42.363630000" lon="-2.598994000">
        <ele>917.60</ele>
        <time>2016-10-29T08:55:03Z</time>
      </trkpt>
      <trkpt lat="42.363684000" lon="-2.598959000">
        <ele>916.90</ele>
        <time>2016-10-29T08:55:04Z</time>
      </trkpt>
      <trkpt lat="42.363740000" lon="-2.598918000">
        <ele>916.30</ele>
        <time>2016-10-29T08:55:05Z</time>
      </trkpt>
      <trkpt lat="42.363793000" lon="-2.598879000">
        <ele>915.60</ele>
        <time>2016-10-29T08:55:06Z</time>
      </trkpt>
      <trkpt lat="42.363850000" lon="-2.598833000">
        <ele>915.10</ele>
        <time>2016-10-29T08:55:07Z</time>
      </trkpt>
      <trkpt lat="42.363908000" lon="-2.598784000">
        <ele>914.60</ele>
        <time>2016-10-29T08:55:08Z</time>
      </trkpt>
      <trkpt lat="42.363965000" lon="-2.598729000">
        <ele>914.30</ele>
        <time>2016-10-29T08:55:09Z</time>
      </trkpt>
      <trkpt lat="42.364025000" lon="-2.598673000">
        <ele>913.70</ele>
        <time>2016-10-29T08:55:10Z</time>
      </trkpt>
      <trkpt lat="42.364087000" lon="-2.598623000">
        <ele>913.30</ele>
        <time>2016-10-29T08:55:11Z</time>
      </trkpt>
      <trkpt lat="42.364150000" lon="-2.598575000">
        <ele>912.40</ele>
        <time>2016-10-29T08:55:12Z</time>
      </trkpt>
      <trkpt lat="42.364214000" lon="-2.598532000">
        <ele>911.70</ele>
        <time>2016-10-29T08:55:13Z</time>
      </trkpt>
      <trkpt lat="42.364278000" lon="-2.598497000">
        <ele>910.80</ele>
        <time>2016-10-29T08:55:14Z</time>
      </trkpt>
      <trkpt lat="42.364337000" lon="-2.598458000">
        <ele>910.00</ele>
        <time>2016-10-29T08:55:15Z</time>
      </trkpt>
      <trkpt lat="42.364385000" lon="-2.598420000">
        <ele>909.30</ele>
        <time>2016-10-29T08:55:16Z</time>
      </trkpt>
      <trkpt lat="42.364435000" lon="-2.598377000">
        <ele>908.80</ele>
        <time>2016-10-29T08:55:17Z</time>
      </trkpt>
      <trkpt lat="42.364477000" lon="-2.598336000">
        <ele>908.10</ele>
        <time>2016-10-29T08:55:18Z</time>
      </trkpt>
      <trkpt lat="42.364521000" lon="-2.598296000">
        <ele>907.70</ele>
        <time>2016-10-29T08:55:19Z</time>
      </trkpt>
      <trkpt lat="42.364562000" lon="-2.598250000">
        <ele>907.20</ele>
        <time>2016-10-29T08:55:20Z</time>
      </trkpt>
      <trkpt lat="42.364606000" lon="-2.598203000">
        <ele>906.90</ele>
        <time>2016-10-29T08:55:21Z</time>
      </trkpt>
      <trkpt lat="42.364648000" lon="-2.598155000">
        <ele>906.20</ele>
        <time>2016-10-29T08:55:22Z</time>
      </trkpt>
      <trkpt lat="42.364690000" lon="-2.598102000">
        <ele>905.70</ele>
        <time>2016-10-29T08:55:23Z</time>
      </trkpt>
      <trkpt lat="42.364730000" lon="-2.598044000">
        <ele>905.30</ele>
        <time>2016-10-29T08:55:24Z</time>
      </trkpt>
      <trkpt lat="42.364774000" lon="-2.597987000">
        <ele>905.00</ele>
        <time>2016-10-29T08:55:25Z</time>
      </trkpt>
      <trkpt lat="42.364821000" lon="-2.597936000">
        <ele>904.40</ele>
        <time>2016-10-29T08:55:26Z</time>
      </trkpt>
      <trkpt lat="42.364877000" lon="-2.597892000">
        <ele>904.00</ele>
        <time>2016-10-29T08:55:27Z</time>
      </trkpt>
      <trkpt lat="42.364936000" lon="-2.597850000">
        <ele>903.60</ele>
        <time>2016-10-29T08:55:28Z</time>
      </trkpt>
      <trkpt lat="42.364997000" lon="-2.597813000">
        <ele>903.20</ele>
        <time>2016-10-29T08:55:29Z</time>
      </trkpt>
      <trkpt lat="42.365062000" lon="-2.597770000">
        <ele>902.80</ele>
        <time>2016-10-29T08:55:30Z</time>
      </trkpt>
      <trkpt lat="42.365127000" lon="-2.597731000">
        <ele>902.40</ele>
        <time>2016-10-29T08:55:31Z</time>
      </trkpt>
      <trkpt lat="42.365182000" lon="-2.597703000">
        <ele>901.80</ele>
        <time>2016-10-29T08:55:32Z</time>
      </trkpt>
      <trkpt lat="42.365223000" lon="-2.597679000">
        <ele>901.40</ele>
        <time>2016-10-29T08:55:33Z</time>
      </trkpt>
      <trkpt lat="42.365313000" lon="-2.597627000">
        <ele>900.10</ele>
        <time>2016-10-29T08:55:35Z</time>
      </trkpt>
      <trkpt lat="42.365351000" lon="-2.597580000">
        <ele>899.70</ele>
        <time>2016-10-29T08:55:36Z</time>
      </trkpt>
      <trkpt lat="42.365383000" lon="-2.597534000">
        <ele>899.30</ele>
        <time>2016-10-29T08:55:37Z</time>
      </trkpt>
      <trkpt lat="42.365418000" lon="-2.597487000">
        <ele>898.70</ele>
        <time>2016-10-29T08:55:38Z</time>
      </trkpt>
      <trkpt lat="42.365455000" lon="-2.597441000">
        <ele>898.20</ele>
        <time>2016-10-29T08:55:39Z</time>
      </trkpt>
      <trkpt lat="42.365494000" lon="-2.597402000">
        <ele>897.80</ele>
        <time>2016-10-29T08:55:40Z</time>
      </trkpt>
      <trkpt lat="42.365537000" lon="-2.597375000">
        <ele>897.50</ele>
        <time>2016-10-29T08:55:41Z</time>
      </trkpt>
      <trkpt lat="42.365576000" lon="-2.597350000">
        <ele>897.10</ele>
        <time>2016-10-29T08:55:42Z</time>
      </trkpt>
      <trkpt lat="42.365615000" lon="-2.597326000">
        <ele>896.70</ele>
        <time>2016-10-29T08:55:43Z</time>
      </trkpt>
      <trkpt lat="42.365654000" lon="-2.597304000">
        <ele>896.50</ele>
        <time>2016-10-29T08:55:44Z</time>
      </trkpt>
      <trkpt lat="42.365695000" lon="-2.597278000">
        <ele>896.30</ele>
        <time>2016-10-29T08:55:45Z</time>
      </trkpt>
      <trkpt lat="42.365736000" lon="-2.597252000">
        <ele>896.00</ele>
        <time>2016-10-29T08:55:46Z</time>
      </trkpt>
      <trkpt lat="42.365770000" lon="-2.597226000">
        <ele>895.80</ele>
        <time>2016-10-29T08:55:47Z</time>
      </trkpt>
      <trkpt lat="42.365800000" lon="-2.597206000">
        <ele>895.40</ele>
        <time>2016-10-29T08:55:48Z</time>
      </trkpt>
      <trkpt lat="42.365831000" lon="-2.597191000">
        <ele>895.00</ele>
        <time>2016-10-29T08:55:49Z</time>
      </trkpt>
      <trkpt lat="42.365862000" lon="-2.597186000">
        <ele>894.40</ele>
        <time>2016-10-29T08:55:50Z</time>
      </trkpt>
      <trkpt lat="42.365893000" lon="-2.597186000">
        <ele>893.90</ele>
        <time>2016-10-29T08:55:51Z</time>
      </trkpt>
      <trkpt lat="42.365922000" lon="-2.597190000">
        <ele>893.50</ele>
        <time>2016-10-29T08:55:52Z</time>
      </trkpt>
      <trkpt lat="42.365947000" lon="-2.597196000">
        <ele>893.20</ele>
        <time>2016-10-29T08:55:53Z</time>
      </trkpt>
      <trkpt lat="42.365972000" lon="-2.597199000">
        <ele>892.90</ele>
        <time>2016-10-29T08:55:54Z</time>
      </trkpt>
      <trkpt lat="42.366005000" lon="-2.597194000">
        <ele>892.70</ele>
        <time>2016-10-29T08:55:55Z</time>
      </trkpt>
      <trkpt lat="42.366045000" lon="-2.597187000">
        <ele>892.50</ele>
        <time>2016-10-29T08:55:56Z</time>
      </trkpt>
      <trkpt lat="42.366088000" lon="-2.597165000">
        <ele>892.30</ele>
        <time>2016-10-29T08:55:57Z</time>
      </trkpt>
      <trkpt lat="42.366135000" lon="-2.597142000">
        <ele>892.00</ele>
        <time>2016-10-29T08:55:58Z</time>
      </trkpt>
      <trkpt lat="42.366182000" lon="-2.597114000">
        <ele>891.70</ele>
        <time>2016-10-29T08:55:59Z</time>
      </trkpt>
      <trkpt lat="42.366234000" lon="-2.597084000">
        <ele>891.40</ele>
        <time>2016-10-29T08:56:00Z</time>
      </trkpt>
      <trkpt lat="42.366288000" lon="-2.597047000">
        <ele>891.20</ele>
        <time>2016-10-29T08:56:01Z</time>
      </trkpt>
      <trkpt lat="42.366344000" lon="-2.597010000">
        <ele>891.00</ele>
        <time>2016-10-29T08:56:02Z</time>
      </trkpt>
      <trkpt lat="42.366389000" lon="-2.596979000">
        <ele>890.90</ele>
        <time>2016-10-29T08:56:03Z</time>
      </trkpt>
      <trkpt lat="42.366427000" lon="-2.596951000">
        <ele>890.40</ele>
        <time>2016-10-29T08:56:04Z</time>
      </trkpt>
      <trkpt lat="42.366461000" lon="-2.596928000">
        <ele>890.00</ele>
        <time>2016-10-29T08:56:05Z</time>
      </trkpt>
      <trkpt lat="42.366493000" lon="-2.596902000">
        <ele>889.30</ele>
        <time>2016-10-29T08:56:06Z</time>
      </trkpt>
      <trkpt lat="42.366525000" lon="-2.596879000">
        <ele>888.80</ele>
        <time>2016-10-29T08:56:07Z</time>
      </trkpt>
      <trkpt lat="42.366553000" lon="-2.596860000">
        <ele>888.30</ele>
        <time>2016-10-29T08:56:08Z</time>
      </trkpt>
      <trkpt lat="42.366578000" lon="-2.596840000">
        <ele>888.00</ele>
        <time>2016-10-29T08:56:09Z</time>
      </trkpt>
      <trkpt lat="42.366606000" lon="-2.596817000">
        <ele>887.50</ele>
        <time>2016-10-29T08:56:10Z</time>
      </trkpt>
      <trkpt lat="42.366637000" lon="-2.596791000">
        <ele>887.10</ele>
        <time>2016-10-29T08:56:11Z</time>
      </trkpt>
      <trkpt lat="42.366667000" lon="-2.596768000">
        <ele>886.80</ele>
        <time>2016-10-29T08:56:12Z</time>
      </trkpt>
      <trkpt lat="42.366700000" lon="-2.596743000">
        <ele>886.60</ele>
        <time>2016-10-29T08:56:13Z</time>
      </trkpt>
      <trkpt lat="42.366732000" lon="-2.596720000">
        <ele>886.20</ele>
        <time>2016-10-29T08:56:14Z</time>
      </trkpt>
      <trkpt lat="42.366765000" lon="-2.596695000">
        <ele>885.80</ele>
        <time>2016-10-29T08:56:15Z</time>
      </trkpt>
      <trkpt lat="42.366800000" lon="-2.596666000">
        <ele>885.30</ele>
        <time>2016-10-29T08:56:16Z</time>
      </trkpt>
      <trkpt lat="42.366843000" lon="-2.596642000">
        <ele>885.00</ele>
        <time>2016-10-29T08:56:17Z</time>
      </trkpt>
      <trkpt lat="42.366887000" lon="-2.596611000">
        <ele>884.60</ele>
        <time>2016-10-29T08:56:18Z</time>
      </trkpt>
      <trkpt lat="42.366933000" lon="-2.596575000">
        <ele>884.40</ele>
        <time>2016-10-29T08:56:19Z</time>
      </trkpt>
      <trkpt lat="42.366980000" lon="-2.596537000">
        <ele>884.00</ele>
        <time>2016-10-29T08:56:20Z</time>
      </trkpt>
      <trkpt lat="42.367024000" lon="-2.596494000">
        <ele>883.80</ele>
        <time>2016-10-29T08:56:21Z</time>
      </trkpt>
      <trkpt lat="42.367070000" lon="-2.596459000">
        <ele>883.40</ele>
        <time>2016-10-29T08:56:22Z</time>
      </trkpt>
      <trkpt lat="42.367109000" lon="-2.596429000">
        <ele>883.10</ele>
        <time>2016-10-29T08:56:23Z</time>
      </trkpt>
      <trkpt lat="42.367142000" lon="-2.596409000">
        <ele>882.80</ele>
        <time>2016-10-29T08:56:24Z</time>
      </trkpt>
      <trkpt lat="42.367170000" lon="-2.596391000">
        <ele>882.70</ele>
        <time>2016-10-29T08:56:25Z</time>
      </trkpt>
      <trkpt lat="42.367203000" lon="-2.596372000">
        <ele>882.10</ele>
        <time>2016-10-29T08:56:26Z</time>
      </trkpt>
      <trkpt lat="42.367238000" lon="-2.596356000">
        <ele>881.80</ele>
        <time>2016-10-29T08:56:27Z</time>
      </trkpt>
      <trkpt lat="42.367273000" lon="-2.596334000">
        <ele>881.40</ele>
        <time>2016-10-29T08:56:28Z</time>
      </trkpt>
      <trkpt lat="42.367314000" lon="-2.596311000">
        <ele>881.10</ele>
        <time>2016-10-29T08:56:29Z</time>
      </trkpt>
      <trkpt lat="42.367355000" lon="-2.596289000">
        <ele>880.80</ele>
        <time>2016-10-29T08:56:30Z</time>
      </trkpt>
      <trkpt lat="42.367399000" lon="-2.596263000">
        <ele>880.60</ele>
        <time>2016-10-29T08:56:31Z</time>
      </trkpt>
      <trkpt lat="42.367444000" lon="-2.596240000">
        <ele>880.40</ele>
        <time>2016-10-29T08:56:32Z</time>
      </trkpt>
      <trkpt lat="42.367491000" lon="-2.596217000">
        <ele>880.20</ele>
        <time>2016-10-29T08:56:33Z</time>
      </trkpt>
      <trkpt lat="42.367531000" lon="-2.596189000">
        <ele>879.80</ele>
        <time>2016-10-29T08:56:34Z</time>
      </trkpt>
      <trkpt lat="42.367613000" lon="-2.596134000">
        <ele>879.10</ele>
        <time>2016-10-29T08:56:36Z</time>
      </trkpt>
      <trkpt lat="42.367653000" lon="-2.596106000">
        <ele>878.80</ele>
        <time>2016-10-29T08:56:37Z</time>
      </trkpt>
      <trkpt lat="42.367687000" lon="-2.596080000">
        <ele>878.50</ele>
        <time>2016-10-29T08:56:38Z</time>
      </trkpt>
      <trkpt lat="42.367717000" lon="-2.596050000">
        <ele>878.30</ele>
        <time>2016-10-29T08:56:39Z</time>
      </trkpt>
      <trkpt lat="42.367738000" lon="-2.596015000">
        <ele>877.80</ele>
        <time>2016-10-29T08:56:40Z</time>
      </trkpt>
      <trkpt lat="42.367751000" lon="-2.595971000">
        <ele>877.50</ele>
        <time>2016-10-29T08:56:41Z</time>
      </trkpt>
      <trkpt lat="42.367755000" lon="-2.595926000">
        <ele>876.90</ele>
        <time>2016-10-29T08:56:42Z</time>
      </trkpt>
      <trkpt lat="42.367762000" lon="-2.595885000">
        <ele>876.40</ele>
        <time>2016-10-29T08:56:43Z</time>
      </trkpt>
      <trkpt lat="42.367766000" lon="-2.595845000">
        <ele>876.00</ele>
        <time>2016-10-29T08:56:44Z</time>
      </trkpt>
      <trkpt lat="42.367771000" lon="-2.595807000">
        <ele>875.80</ele>
        <time>2016-10-29T08:56:45Z</time>
      </trkpt>
      <trkpt lat="42.367771000" lon="-2.595766000">
        <ele>875.50</ele>
        <time>2016-10-29T08:56:46Z</time>
      </trkpt>
      <trkpt lat="42.367769000" lon="-2.595728000">
        <ele>875.30</ele>
        <time>2016-10-29T08:56:47Z</time>
      </trkpt>
      <trkpt lat="42.367765000" lon="-2.595695000">
        <ele>875.10</ele>
        <time>2016-10-29T08:56:48Z</time>
      </trkpt>
      <trkpt lat="42.367764000" lon="-2.595662000">
        <ele>874.90</ele>
        <time>2016-10-29T08:56:49Z</time>
      </trkpt>
      <trkpt lat="42.367765000" lon="-2.595629000">
        <ele>874.90</ele>
        <time>2016-10-29T08:56:50Z</time>
      </trkpt>
      <trkpt lat="42.367760000" lon="-2.595591000">
        <ele>874.80</ele>
        <time>2016-10-29T08:56:51Z</time>
      </trkpt>
      <trkpt lat="42.367754000" lon="-2.595558000">
        <ele>874.80</ele>
        <time>2016-10-29T08:56:52Z</time>
      </trkpt>
      <trkpt lat="42.367745000" lon="-2.595533000">
        <ele>874.80</ele>
        <time>2016-10-29T08:56:53Z</time>
      </trkpt>
      <trkpt lat="42.367737000" lon="-2.595511000">
        <ele>874.80</ele>
        <time>2016-10-29T08:56:54Z</time>
      </trkpt>
      <trkpt lat="42.367735000" lon="-2.595487000">
        <ele>874.80</ele>
        <time>2016-10-29T08:56:55Z</time>
      </trkpt>
      <trkpt lat="42.367733000" lon="-2.595458000">
        <ele>874.70</ele>
        <time>2016-10-29T08:56:56Z</time>
      </trkpt>
      <trkpt lat="42.367732000" lon="-2.595427000">
        <ele>874.60</ele>
        <time>2016-10-29T08:56:57Z</time>
      </trkpt>
      <trkpt lat="42.367732000" lon="-2.595401000">
        <ele>874.40</ele>
        <time>2016-10-29T08:56:58Z</time>
      </trkpt>
      <trkpt lat="42.367729000" lon="-2.595373000">
        <ele>874.30</ele>
        <time>2016-10-29T08:56:59Z</time>
      </trkpt>
      <trkpt lat="42.367723000" lon="-2.595345000">
        <ele>874.30</ele>
        <time>2016-10-29T08:57:00Z</time>
      </trkpt>
      <trkpt lat="42.367727000" lon="-2.595314000">
        <ele>874.30</ele>
        <time>2016-10-29T08:57:01Z</time>
      </trkpt>
      <trkpt lat="42.367739000" lon="-2.595287000">
        <ele>874.20</ele>
        <time>2016-10-29T08:57:02Z</time>
      </trkpt>
      <trkpt lat="42.367756000" lon="-2.595259000">
        <ele>874.20</ele>
        <time>2016-10-29T08:57:03Z</time>
      </trkpt>
      <trkpt lat="42.367781000" lon="-2.595236000">
        <ele>874.10</ele>
        <time>2016-10-29T08:57:04Z</time>
      </trkpt>
      <trkpt lat="42.367808000" lon="-2.595212000">
        <ele>874.10</ele>
        <time>2016-10-29T08:57:05Z</time>
      </trkpt>
      <trkpt lat="42.367836000" lon="-2.595184000">
        <ele>873.90</ele>
        <time>2016-10-29T08:57:06Z</time>
      </trkpt>
      <trkpt lat="42.367864000" lon="-2.595152000">
        <ele>873.70</ele>
        <time>2016-10-29T08:57:07Z</time>
      </trkpt>
      <trkpt lat="42.367884000" lon="-2.595114000">
        <ele>873.40</ele>
        <time>2016-10-29T08:57:08Z</time>
      </trkpt>
      <trkpt lat="42.367903000" lon="-2.595072000">
        <ele>873.10</ele>
        <time>2016-10-29T08:57:09Z</time>
      </trkpt>
      <trkpt lat="42.367928000" lon="-2.595035000">
        <ele>872.70</ele>
        <time>2016-10-29T08:57:10Z</time>
      </trkpt>
      <trkpt lat="42.367962000" lon="-2.594996000">
        <ele>872.40</ele>
        <time>2016-10-29T08:57:11Z</time>
      </trkpt>
      <trkpt lat="42.367997000" lon="-2.594955000">
        <ele>872.00</ele>
        <time>2016-10-29T08:57:12Z</time>
      </trkpt>
      <trkpt lat="42.368035000" lon="-2.594910000">
        <ele>871.70</ele>
        <time>2016-10-29T08:57:13Z</time>
      </trkpt>
      <trkpt lat="42.368076000" lon="-2.594860000">
        <ele>871.30</ele>
        <time>2016-10-29T08:57:14Z</time>
      </trkpt>
      <trkpt lat="42.368120000" lon="-2.594809000">
        <ele>870.90</ele>
        <time>2016-10-29T08:57:15Z</time>
      </trkpt>
      <trkpt lat="42.368158000" lon="-2.594758000">
        <ele>870.50</ele>
        <time>2016-10-29T08:57:16Z</time>
      </trkpt>
      <trkpt lat="42.368193000" lon="-2.594699000">
        <ele>870.30</ele>
        <time>2016-10-29T08:57:17Z</time>
      </trkpt>
      <trkpt lat="42.368228000" lon="-2.594637000">
        <ele>869.50</ele>
        <time>2016-10-29T08:57:18Z</time>
      </trkpt>
      <trkpt lat="42.368259000" lon="-2.594576000">
        <ele>868.90</ele>
        <time>2016-10-29T08:57:19Z</time>
      </trkpt>
      <trkpt lat="42.368286000" lon="-2.594511000">
        <ele>868.50</ele>
        <time>2016-10-29T08:57:20Z</time>
      </trkpt>
      <trkpt lat="42.368309000" lon="-2.594451000">
        <ele>868.20</ele>
        <time>2016-10-29T08:57:21Z</time>
      </trkpt>
      <trkpt lat="42.368336000" lon="-2.594394000">
        <ele>867.80</ele>
        <time>2016-10-29T08:57:22Z</time>
      </trkpt>
      <trkpt lat="42.368366000" lon="-2.594336000">
        <ele>867.50</ele>
        <time>2016-10-29T08:57:23Z</time>
      </trkpt>
      <trkpt lat="42.368387000" lon="-2.594277000">
        <ele>867.20</ele>
        <time>2016-10-29T08:57:24Z</time>
      </trkpt>
      <trkpt lat="42.368410000" lon="-2.594211000">
        <ele>866.90</ele>
        <time>2016-10-29T08:57:25Z</time>
      </trkpt>
      <trkpt lat="42.368432000" lon="-2.594140000">
        <ele>866.70</ele>
        <time>2016-10-29T08:57:26Z</time>
      </trkpt>
      <trkpt lat="42.368452000" lon="-2.594057000">
        <ele>866.50</ele>
        <time>2016-10-29T08:57:27Z</time>
      </trkpt>
      <trkpt lat="42.368476000" lon="-2.593973000">
        <ele>866.00</ele>
        <time>2016-10-29T08:57:28Z</time>
      </trkpt>
      <trkpt lat="42.368503000" lon="-2.593887000">
        <ele>865.70</ele>
        <time>2016-10-29T08:57:29Z</time>
      </trkpt>
      <trkpt lat="42.368532000" lon="-2.593798000">
        <ele>864.80</ele>
        <time>2016-10-29T08:57:30Z</time>
      </trkpt>
      <trkpt lat="42.368563000" lon="-2.593721000">
        <ele>864.10</ele>
        <time>2016-10-29T08:57:31Z</time>
      </trkpt>
      <trkpt lat="42.368591000" lon="-2.593650000">
        <ele>863.30</ele>
        <time>2016-10-29T08:57:32Z</time>
      </trkpt>
      <trkpt lat="42.368616000" lon="-2.593583000">
        <ele>862.70</ele>
        <time>2016-10-29T08:57:33Z</time>
      </trkpt>
      <trkpt lat="42.368643000" lon="-2.593524000">
        <ele>862.20</ele>
        <time>2016-10-29T08:57:34Z</time>
      </trkpt>
      <trkpt lat="42.368677000" lon="-2.593469000">
        <ele>861.80</ele>
        <time>2016-10-29T08:57:35Z</time>
      </trkpt>
      <trkpt lat="42.368755000" lon="-2.593387000">
        <ele>860.40</ele>
        <time>2016-10-29T08:57:37Z</time>
      </trkpt>
      <trkpt lat="42.368799000" lon="-2.593343000">
        <ele>859.80</ele>
        <time>2016-10-29T08:57:38Z</time>
      </trkpt>
      <trkpt lat="42.368849000" lon="-2.593294000">
        <ele>859.50</ele>
        <time>2016-10-29T08:57:39Z</time>
      </trkpt>
      <trkpt lat="42.368904000" lon="-2.593239000">
        <ele>859.00</ele>
        <time>2016-10-29T08:57:40Z</time>
      </trkpt>
      <trkpt lat="42.368961000" lon="-2.593180000">
        <ele>858.70</ele>
        <time>2016-10-29T08:57:41Z</time>
      </trkpt>
      <trkpt lat="42.369021000" lon="-2.593121000">
        <ele>858.20</ele>
        <time>2016-10-29T08:57:42Z</time>
      </trkpt>
      <trkpt lat="42.369075000" lon="-2.593066000">
        <ele>857.80</ele>
        <time>2016-10-29T08:57:43Z</time>
      </trkpt>
      <trkpt lat="42.369128000" lon="-2.593014000">
        <ele>857.50</ele>
        <time>2016-10-29T08:57:44Z</time>
      </trkpt>
      <trkpt lat="42.369182000" lon="-2.592961000">
        <ele>857.20</ele>
        <time>2016-10-29T08:57:45Z</time>
      </trkpt>
      <trkpt lat="42.369233000" lon="-2.592903000">
        <ele>856.40</ele>
        <time>2016-10-29T08:57:46Z</time>
      </trkpt>
      <trkpt lat="42.369277000" lon="-2.592843000">
        <ele>855.80</ele>
        <time>2016-10-29T08:57:47Z</time>
      </trkpt>
      <trkpt lat="42.369321000" lon="-2.592777000">
        <ele>855.00</ele>
        <time>2016-10-29T08:57:48Z</time>
      </trkpt>
      <trkpt lat="42.369371000" lon="-2.592721000">
        <ele>854.30</ele>
        <time>2016-10-29T08:57:49Z</time>
      </trkpt>
      <trkpt lat="42.369417000" lon="-2.592667000">
        <ele>853.80</ele>
        <time>2016-10-29T08:57:50Z</time>
      </trkpt>
      <trkpt lat="42.369463000" lon="-2.592609000">
        <ele>853.50</ele>
        <time>2016-10-29T08:57:51Z</time>
      </trkpt>
      <trkpt lat="42.369506000" lon="-2.592549000">
        <ele>853.10</ele>
        <time>2016-10-29T08:57:52Z</time>
      </trkpt>
      <trkpt lat="42.369547000" lon="-2.592499000">
        <ele>852.90</ele>
        <time>2016-10-29T08:57:53Z</time>
      </trkpt>
      <trkpt lat="42.369589000" lon="-2.592452000">
        <ele>852.50</ele>
        <time>2016-10-29T08:57:54Z</time>
      </trkpt>
      <trkpt lat="42.369628000" lon="-2.592400000">
        <ele>852.20</ele>
        <time>2016-10-29T08:57:55Z</time>
      </trkpt>
      <trkpt lat="42.369665000" lon="-2.592348000">
        <ele>851.70</ele>
        <time>2016-10-29T08:57:56Z</time>
      </trkpt>
      <trkpt lat="42.369699000" lon="-2.592293000">
        <ele>851.30</ele>
        <time>2016-10-29T08:57:57Z</time>
      </trkpt>
      <trkpt lat="42.369728000" lon="-2.592235000">
        <ele>850.90</ele>
        <time>2016-10-29T08:57:58Z</time>
      </trkpt>
      <trkpt lat="42.369764000" lon="-2.592174000">
        <ele>850.70</ele>
        <time>2016-10-29T08:57:59Z</time>
      </trkpt>
      <trkpt lat="42.369803000" lon="-2.592114000">
        <ele>850.50</ele>
        <time>2016-10-29T08:58:00Z</time>
      </trkpt>
      <trkpt lat="42.369849000" lon="-2.592056000">
        <ele>850.30</ele>
        <time>2016-10-29T08:58:01Z</time>
      </trkpt>
      <trkpt lat="42.369892000" lon="-2.592003000">
        <ele>849.70</ele>
        <time>2016-10-29T08:58:02Z</time>
      </trkpt>
      <trkpt lat="42.369936000" lon="-2.591959000">
        <ele>849.30</ele>
        <time>2016-10-29T08:58:03Z</time>
      </trkpt>
      <trkpt lat="42.369986000" lon="-2.591919000">
        <ele>848.80</ele>
        <time>2016-10-29T08:58:04Z</time>
      </trkpt>
      <trkpt lat="42.370034000" lon="-2.591886000">
        <ele>848.40</ele>
        <time>2016-10-29T08:58:05Z</time>
      </trkpt>
      <trkpt lat="42.370079000" lon="-2.591853000">
        <ele>847.70</ele>
        <time>2016-10-29T08:58:06Z</time>
      </trkpt>
      <trkpt lat="42.370119000" lon="-2.591820000">
        <ele>847.20</ele>
        <time>2016-10-29T08:58:07Z</time>
      </trkpt>
      <trkpt lat="42.370156000" lon="-2.591783000">
        <ele>846.70</ele>
        <time>2016-10-29T08:58:08Z</time>
      </trkpt>
      <trkpt lat="42.370193000" lon="-2.591744000">
        <ele>846.30</ele>
        <time>2016-10-29T08:58:09Z</time>
      </trkpt>
      <trkpt lat="42.370224000" lon="-2.591711000">
        <ele>845.60</ele>
        <time>2016-10-29T08:58:10Z</time>
      </trkpt>
      <trkpt lat="42.370259000" lon="-2.591694000">
        <ele>845.20</ele>
        <time>2016-10-29T08:58:11Z</time>
      </trkpt>
      <trkpt lat="42.370298000" lon="-2.591687000">
        <ele>844.40</ele>
        <time>2016-10-29T08:58:12Z</time>
      </trkpt>
      <trkpt lat="42.370342000" lon="-2.591687000">
        <ele>843.80</ele>
        <time>2016-10-29T08:58:13Z</time>
      </trkpt>
      <trkpt lat="42.370385000" lon="-2.591698000">
        <ele>843.40</ele>
        <time>2016-10-29T08:58:14Z</time>
      </trkpt>
      <trkpt lat="42.370431000" lon="-2.591709000">
        <ele>843.10</ele>
        <time>2016-10-29T08:58:15Z</time>
      </trkpt>
      <trkpt lat="42.370476000" lon="-2.591702000">
        <ele>842.90</ele>
        <time>2016-10-29T08:58:16Z</time>
      </trkpt>
      <trkpt lat="42.370520000" lon="-2.591687000">
        <ele>842.70</ele>
        <time>2016-10-29T08:58:17Z</time>
      </trkpt>
      <trkpt lat="42.370561000" lon="-2.591664000">
        <ele>842.50</ele>
        <time>2016-10-29T08:58:18Z</time>
      </trkpt>
      <trkpt lat="42.370605000" lon="-2.591635000">
        <ele>842.40</ele>
        <time>2016-10-29T08:58:19Z</time>
      </trkpt>
      <trkpt lat="42.370650000" lon="-2.591595000">
        <ele>842.10</ele>
        <time>2016-10-29T08:58:20Z</time>
      </trkpt>
      <trkpt lat="42.370691000" lon="-2.591542000">
        <ele>841.90</ele>
        <time>2016-10-29T08:58:21Z</time>
      </trkpt>
      <trkpt lat="42.370733000" lon="-2.591489000">
        <ele>841.40</ele>
        <time>2016-10-29T08:58:22Z</time>
      </trkpt>
      <trkpt lat="42.370784000" lon="-2.591439000">
        <ele>841.10</ele>
        <time>2016-10-29T08:58:23Z</time>
      </trkpt>
      <trkpt lat="42.370840000" lon="-2.591395000">
        <ele>840.60</ele>
        <time>2016-10-29T08:58:24Z</time>
      </trkpt>
      <trkpt lat="42.370895000" lon="-2.591353000">
        <ele>840.30</ele>
        <time>2016-10-29T08:58:25Z</time>
      </trkpt>
      <trkpt lat="42.370947000" lon="-2.591307000">
        <ele>839.80</ele>
        <time>2016-10-29T08:58:26Z</time>
      </trkpt>
      <trkpt lat="42.370997000" lon="-2.591266000">
        <ele>839.40</ele>
        <time>2016-10-29T08:58:27Z</time>
      </trkpt>
      <trkpt lat="42.371044000" lon="-2.591219000">
        <ele>838.90</ele>
        <time>2016-10-29T08:58:28Z</time>
      </trkpt>
      <trkpt lat="42.371090000" lon="-2.591171000">
        <ele>838.50</ele>
        <time>2016-10-29T08:58:29Z</time>
      </trkpt>
      <trkpt lat="42.371134000" lon="-2.591116000">
        <ele>838.10</ele>
        <time>2016-10-29T08:58:30Z</time>
      </trkpt>
      <trkpt lat="42.371178000" lon="-2.591061000">
        <ele>837.80</ele>
        <time>2016-10-29T08:58:31Z</time>
      </trkpt>
      <trkpt lat="42.371218000" lon="-2.590996000">
        <ele>837.50</ele>
        <time>2016-10-29T08:58:32Z</time>
      </trkpt>
      <trkpt lat="42.371258000" lon="-2.590930000">
        <ele>837.30</ele>
        <time>2016-10-29T08:58:33Z</time>
      </trkpt>
      <trkpt lat="42.371292000" lon="-2.590857000">
        <ele>836.50</ele>
        <time>2016-10-29T08:58:34Z</time>
      </trkpt>
      <trkpt lat="42.371321000" lon="-2.590778000">
        <ele>836.00</ele>
        <time>2016-10-29T08:58:35Z</time>
      </trkpt>
      <trkpt lat="42.371350000" lon="-2.590696000">
        <ele>835.60</ele>
        <time>2016-10-29T08:58:36Z</time>
      </trkpt>
      <trkpt lat="42.371406000" lon="-2.590533000">
        <ele>835.00</ele>
        <time>2016-10-29T08:58:38Z</time>
      </trkpt>
      <trkpt lat="42.371424000" lon="-2.590453000">
        <ele>834.70</ele>
        <time>2016-10-29T08:58:39Z</time>
      </trkpt>
      <trkpt lat="42.371453000" lon="-2.590372000">
        <ele>833.70</ele>
        <time>2016-10-29T08:58:40Z</time>
      </trkpt>
      <trkpt lat="42.371483000" lon="-2.590295000">
        <ele>832.90</ele>
        <time>2016-10-29T08:58:41Z</time>
      </trkpt>
      <trkpt lat="42.371509000" lon="-2.590215000">
        <ele>832.30</ele>
        <time>2016-10-29T08:58:42Z</time>
      </trkpt>
      <trkpt lat="42.371531000" lon="-2.590134000">
        <ele>831.80</ele>
        <time>2016-10-29T08:58:43Z</time>
      </trkpt>
      <trkpt lat="42.371556000" lon="-2.590053000">
        <ele>831.20</ele>
        <time>2016-10-29T08:58:44Z</time>
      </trkpt>
      <trkpt lat="42.371578000" lon="-2.589971000">
        <ele>830.80</ele>
        <time>2016-10-29T08:58:45Z</time>
      </trkpt>
      <trkpt lat="42.371603000" lon="-2.589884000">
        <ele>830.40</ele>
        <time>2016-10-29T08:58:46Z</time>
      </trkpt>
      <trkpt lat="42.371627000" lon="-2.589798000">
        <ele>830.10</ele>
        <time>2016-10-29T08:58:47Z</time>
      </trkpt>
      <trkpt lat="42.371651000" lon="-2.589712000">
        <ele>829.90</ele>
        <time>2016-10-29T08:58:48Z</time>
      </trkpt>
      <trkpt lat="42.371674000" lon="-2.589634000">
        <ele>829.70</ele>
        <time>2016-10-29T08:58:49Z</time>
      </trkpt>
      <trkpt lat="42.371698000" lon="-2.589561000">
        <ele>829.40</ele>
        <time>2016-10-29T08:58:50Z</time>
      </trkpt>
      <trkpt lat="42.371718000" lon="-2.589483000">
        <ele>829.10</ele>
        <time>2016-10-29T08:58:51Z</time>
      </trkpt>
      <trkpt lat="42.371744000" lon="-2.589410000">
        <ele>828.40</ele>
        <time>2016-10-29T08:58:52Z</time>
      </trkpt>
      <trkpt lat="42.371770000" lon="-2.589353000">
        <ele>827.90</ele>
        <time>2016-10-29T08:58:53Z</time>
      </trkpt>
      <trkpt lat="42.371796000" lon="-2.589303000">
        <ele>827.50</ele>
        <time>2016-10-29T08:58:54Z</time>
      </trkpt>
      <trkpt lat="42.371818000" lon="-2.589258000">
        <ele>827.20</ele>
        <time>2016-10-29T08:58:55Z</time>
      </trkpt>
      <trkpt lat="42.371838000" lon="-2.589218000">
        <ele>826.70</ele>
        <time>2016-10-29T08:58:56Z</time>
      </trkpt>
      <trkpt lat="42.371861000" lon="-2.589180000">
        <ele>826.30</ele>
        <time>2016-10-29T08:58:57Z</time>
      </trkpt>
      <trkpt lat="42.371878000" lon="-2.589142000">
        <ele>825.80</ele>
        <time>2016-10-29T08:58:58Z</time>
      </trkpt>
      <trkpt lat="42.371894000" lon="-2.589103000">
        <ele>825.40</ele>
        <time>2016-10-29T08:58:59Z</time>
      </trkpt>
      <trkpt lat="42.371908000" lon="-2.589069000">
        <ele>824.70</ele>
        <time>2016-10-29T08:59:00Z</time>
      </trkpt>
      <trkpt lat="42.371924000" lon="-2.589042000">
        <ele>824.20</ele>
        <time>2016-10-29T08:59:01Z</time>
      </trkpt>
      <trkpt lat="42.371935000" lon="-2.589017000">
        <ele>823.80</ele>
        <time>2016-10-29T08:59:02Z</time>
      </trkpt>
      <trkpt lat="42.371945000" lon="-2.588996000">
        <ele>823.50</ele>
        <time>2016-10-29T08:59:03Z</time>
      </trkpt>
      <trkpt lat="42.371952000" lon="-2.588984000">
        <ele>823.20</ele>
        <time>2016-10-29T08:59:04Z</time>
      </trkpt>
      <trkpt lat="42.371956000" lon="-2.588972000">
        <ele>822.90</ele>
        <time>2016-10-29T08:59:05Z</time>
      </trkpt>
      <trkpt lat="42.371962000" lon="-2.588968000">
        <ele>822.60</ele>
        <time>2016-10-29T08:59:06Z</time>
      </trkpt>
      <trkpt lat="42.371963000" lon="-2.588964000">
        <ele>822.40</ele>
        <time>2016-10-29T08:59:07Z</time>
      </trkpt>
      <trkpt lat="42.371961000" lon="-2.588963000">
        <ele>822.40</ele>
        <time>2016-10-29T08:59:08Z</time>
      </trkpt>
      <trkpt lat="42.371962000" lon="-2.588962000">
        <ele>822.30</ele>
        <time>2016-10-29T08:59:09Z</time>
      </trkpt>
      <trkpt lat="42.371962000" lon="-2.588961000">
        <ele>822.20</ele>
        <time>2016-10-29T08:59:10Z</time>
      </trkpt>
      <trkpt lat="42.371962000" lon="-2.588960000">
        <ele>822.20</ele>
        <time>2016-10-29T08:59:11Z</time>
      </trkpt>
      <trkpt lat="42.371958000" lon="-2.588954000">
        <ele>822.20</ele>
        <time>2016-10-29T08:59:12Z</time>
      </trkpt>
      <trkpt lat="42.371956000" lon="-2.588953000">
        <ele>822.20</ele>
        <time>2016-10-29T08:59:13Z</time>
      </trkpt>
      <trkpt lat="42.371954000" lon="-2.588955000">
        <ele>822.20</ele>
        <time>2016-10-29T08:59:14Z</time>
      </trkpt>
      <trkpt lat="42.371953000" lon="-2.588955000">
        <ele>822.10</ele>
        <time>2016-10-29T08:59:15Z</time>
      </trkpt>
      <trkpt lat="42.371952000" lon="-2.588957000">
        <ele>822.10</ele>
        <time>2016-10-29T08:59:16Z</time>
      </trkpt>
      <trkpt lat="42.371951000" lon="-2.588958000">
        <ele>822.10</ele>
        <time>2016-10-29T08:59:17Z</time>
      </trkpt>
      <trkpt lat="42.371950000" lon="-2.588959000">
        <ele>822.10</ele>
        <time>2016-10-29T08:59:18Z</time>
      </trkpt>
      <trkpt lat="42.371949000" lon="-2.588958000">
        <ele>822.10</ele>
        <time>2016-10-29T08:59:19Z</time>
      </trkpt>
      <trkpt lat="42.371949000" lon="-2.588956000">
        <ele>822.10</ele>
        <time>2016-10-29T08:59:20Z</time>
      </trkpt>
      <trkpt lat="42.371948000" lon="-2.588955000">
        <ele>822.10</ele>
        <time>2016-10-29T08:59:21Z</time>
      </trkpt>
      <trkpt lat="42.371948000" lon="-2.588954000">
        <ele>822.10</ele>
        <time>2016-10-29T08:59:22Z</time>
      </trkpt>
      <trkpt lat="42.371948000" lon="-2.588953000">
        <ele>822.20</ele>
        <time>2016-10-29T08:59:23Z</time>
      </trkpt>
      <trkpt lat="42.371949000" lon="-2.588953000">
        <ele>822.20</ele>
        <time>2016-10-29T08:59:24Z</time>
      </trkpt>
      <trkpt lat="42.371948000" lon="-2.588951000">
        <ele>822.20</ele>
        <time>2016-10-29T08:59:25Z</time>
      </trkpt>
      <trkpt lat="42.371948000" lon="-2.588950000">
        <ele>822.20</ele>
        <time>2016-10-29T08:59:26Z</time>
      </trkpt>
      <trkpt lat="42.371948000" lon="-2.588949000">
        <ele>822.30</ele>
        <time>2016-10-29T08:59:27Z</time>
      </trkpt>
      <trkpt lat="42.371947000" lon="-2.588950000">
        <ele>822.10</ele>
        <time>2016-10-29T08:59:28Z</time>
      </trkpt>
      <trkpt lat="42.371947000" lon="-2.588951000">
        <ele>822.00</ele>
        <time>2016-10-29T08:59:29Z</time>
      </trkpt>
      <trkpt lat="42.371947000" lon="-2.588953000">
        <ele>822.00</ele>
        <time>2016-10-29T08:59:30Z</time>
      </trkpt>
      <trkpt lat="42.371946000" lon="-2.588953000">
        <ele>821.90</ele>
        <time>2016-10-29T08:59:31Z</time>
      </trkpt>
      <trkpt lat="42.371944000" lon="-2.588953000">
        <ele>821.90</ele>
        <time>2016-10-29T08:59:32Z</time>
      </trkpt>
      <trkpt lat="42.371944000" lon="-2.588953000">
        <ele>821.90</ele>
        <time>2016-10-29T08:59:33Z</time>
      </trkpt>
      <trkpt lat="42.371945000" lon="-2.588953000">
        <ele>821.80</ele>
        <time>2016-10-29T08:59:34Z</time>
      </trkpt>
      <trkpt lat="42.371945000" lon="-2.588951000">
        <ele>821.80</ele>
        <time>2016-10-29T08:59:35Z</time>
      </trkpt>
      <trkpt lat="42.371945000" lon="-2.588950000">
        <ele>821.80</ele>
        <time>2016-10-29T08:59:36Z</time>
      </trkpt>
      <trkpt lat="42.371945000" lon="-2.588951000">
        <ele>821.80</ele>
        <time>2016-10-29T08:59:37Z</time>
      </trkpt>
      <trkpt lat="42.371946000" lon="-2.588952000">
        <ele>821.90</ele>
        <time>2016-10-29T08:59:39Z</time>
      </trkpt>
      <trkpt lat="42.371946000" lon="-2.588952000">
        <ele>821.90</ele>
        <time>2016-10-29T08:59:40Z</time>
      </trkpt>
      <trkpt lat="42.371945000" lon="-2.588952000">
        <ele>821.90</ele>
        <time>2016-10-29T08:59:41Z</time>
      </trkpt>
      <trkpt lat="42.371945000" lon="-2.588952000">
        <ele>821.90</ele>
        <time>2016-10-29T08:59:42Z</time>
      </trkpt>
      <trkpt lat="42.371944000" lon="-2.588952000">
        <ele>821.90</ele>
        <time>2016-10-29T08:59:43Z</time>
      </trkpt>
      <trkpt lat="42.371944000" lon="-2.588951000">
        <ele>821.70</ele>
        <time>2016-10-29T08:59:44Z</time>
      </trkpt>
      <trkpt lat="42.371943000" lon="-2.588950000">
        <ele>821.60</ele>
        <time>2016-10-29T08:59:45Z</time>
      </trkpt>
      <trkpt lat="42.371942000" lon="-2.588949000">
        <ele>821.50</ele>
        <time>2016-10-29T08:59:46Z</time>
      </trkpt>
      <trkpt lat="42.371942000" lon="-2.588948000">
        <ele>821.40</ele>
        <time>2016-10-29T08:59:47Z</time>
      </trkpt>
      <trkpt lat="42.371942000" lon="-2.588947000">
        <ele>821.50</ele>
        <time>2016-10-29T08:59:48Z</time>
      </trkpt>
      <trkpt lat="42.371940000" lon="-2.588947000">
        <ele>821.50</ele>
        <time>2016-10-29T08:59:49Z</time>
      </trkpt>
      <trkpt lat="42.371939000" lon="-2.588949000">
        <ele>821.60</ele>
        <time>2016-10-29T08:59:50Z</time>
      </trkpt>
      <trkpt lat="42.371940000" lon="-2.588948000">
        <ele>821.70</ele>
        <time>2016-10-29T08:59:51Z</time>
      </trkpt>
      <trkpt lat="42.371940000" lon="-2.588949000">
        <ele>821.90</ele>
        <time>2016-10-29T08:59:52Z</time>
      </trkpt>
      <trkpt lat="42.371941000" lon="-2.588952000">
        <ele>822.00</ele>
        <time>2016-10-29T08:59:53Z</time>
      </trkpt>
      <trkpt lat="42.371942000" lon="-2.588953000">
        <ele>822.10</ele>
        <time>2016-10-29T08:59:54Z</time>
      </trkpt>
      <trkpt lat="42.371942000" lon="-2.588952000">
        <ele>822.20</ele>
        <time>2016-10-29T08:59:55Z</time>
      </trkpt>
      <trkpt lat="42.371944000" lon="-2.588951000">
        <ele>822.20</ele>
        <time>2016-10-29T08:59:56Z</time>
      </trkpt>
      <trkpt lat="42.371944000" lon="-2.588950000">
        <ele>822.10</ele>
        <time>2016-10-29T08:59:57Z</time>
      </trkpt>
      <trkpt lat="42.371943000" lon="-2.588949000">
        <ele>821.90</ele>
        <time>2016-10-29T08:59:58Z</time>
      </trkpt>
      <trkpt lat="42.371938000" lon="-2.588950000">
        <ele>821.80</ele>
        <time>2016-10-29T08:59:59Z</time>
      </trkpt>
      <trkpt lat="42.371939000" lon="-2.588949000">
        <ele>821.70</ele>
        <time>2016-10-29T09:00:00Z</time>
      </trkpt>
      <trkpt lat="42.371939000" lon="-2.588948000">
        <ele>821.60</ele>
        <time>2016-10-29T09:00:01Z</time>
      </trkpt>
      <trkpt lat="42.371940000" lon="-2.588949000">
        <ele>821.60</ele>
        <time>2016-10-29T09:00:02Z</time>
      </trkpt>
      <trkpt lat="42.371938000" lon="-2.588952000">
        <ele>821.60</ele>
        <time>2016-10-29T09:00:03Z</time>
      </trkpt>
      <trkpt lat="42.371937000" lon="-2.588951000">
        <ele>821.60</ele>
        <time>2016-10-29T09:00:04Z</time>
      </trkpt>
      <trkpt lat="42.371938000" lon="-2.588948000">
        <ele>821.60</ele>
        <time>2016-10-29T09:00:05Z</time>
      </trkpt>
      <trkpt lat="42.371938000" lon="-2.588947000">
        <ele>821.70</ele>
        <time>2016-10-29T09:00:06Z</time>
      </trkpt>
      <trkpt lat="42.371938000" lon="-2.588946000">
        <ele>821.70</ele>
        <time>2016-10-29T09:00:07Z</time>
      </trkpt>
      <trkpt lat="42.371935000" lon="-2.588944000">
        <ele>821.70</ele>
        <time>2016-10-29T09:00:08Z</time>
      </trkpt>
      <trkpt lat="42.371934000" lon="-2.588943000">
        <ele>821.80</ele>
        <time>2016-10-29T09:00:09Z</time>
      </trkpt>
      <trkpt lat="42.371934000" lon="-2.588942000">
        <ele>821.80</ele>
        <time>2016-10-29T09:00:10Z</time>
      </trkpt>
      <trkpt lat="42.371931000" lon="-2.588941000">
        <ele>821.80</ele>
        <time>2016-10-29T09:00:11Z</time>
      </trkpt>
      <trkpt lat="42.371930000" lon="-2.588942000">
        <ele>821.80</ele>
        <time>2016-10-29T09:00:12Z</time>
      </trkpt>
      <trkpt lat="42.371932000" lon="-2.588946000">
        <ele>821.80</ele>
        <time>2016-10-29T09:00:13Z</time>
      </trkpt>
      <trkpt lat="42.371932000" lon="-2.588947000">
        <ele>821.80</ele>
        <time>2016-10-29T09:00:14Z</time>
      </trkpt>
      <trkpt lat="42.371933000" lon="-2.588945000">
        <ele>821.80</ele>
        <time>2016-10-29T09:00:15Z</time>
      </trkpt>
      <trkpt lat="42.371933000" lon="-2.588946000">
        <ele>821.80</ele>
        <time>2016-10-29T09:00:16Z</time>
      </trkpt>
      <trkpt lat="42.371934000" lon="-2.588947000">
        <ele>821.80</ele>
        <time>2016-10-29T09:00:17Z</time>
      </trkpt>
      <trkpt lat="42.371934000" lon="-2.588946000">
        <ele>821.80</ele>
        <time>2016-10-29T09:00:18Z</time>
      </trkpt>
      <trkpt lat="42.371934000" lon="-2.588946000">
        <ele>821.80</ele>
        <time>2016-10-29T09:00:19Z</time>
      </trkpt>
      <trkpt lat="42.371933000" lon="-2.588947000">
        <ele>821.80</ele>
        <time>2016-10-29T09:00:20Z</time>
      </trkpt>
      <trkpt lat="42.371933000" lon="-2.588949000">
        <ele>821.80</ele>
        <time>2016-10-29T09:00:21Z</time>
      </trkpt>
      <trkpt lat="42.371934000" lon="-2.588950000">
        <ele>821.80</ele>
        <time>2016-10-29T09:00:22Z</time>
      </trkpt>
      <trkpt lat="42.371934000" lon="-2.588950000">
        <ele>821.80</ele>
        <time>2016-10-29T09:00:23Z</time>
      </trkpt>
      <trkpt lat="42.371935000" lon="-2.588951000">
        <ele>821.70</ele>
        <time>2016-10-29T09:00:24Z</time>
      </trkpt>
      <trkpt lat="42.371936000" lon="-2.588951000">
        <ele>821.70</ele>
        <time>2016-10-29T09:00:25Z</time>
      </trkpt>
      <trkpt lat="42.371936000" lon="-2.588950000">
        <ele>822.00</ele>
        <time>2016-10-29T09:00:26Z</time>
      </trkpt>
      <trkpt lat="42.371938000" lon="-2.588951000">
        <ele>822.10</ele>
        <time>2016-10-29T09:00:27Z</time>
      </trkpt>
      <trkpt lat="42.371939000" lon="-2.588951000">
        <ele>822.30</ele>
        <time>2016-10-29T09:00:28Z</time>
      </trkpt>
      <trkpt lat="42.371939000" lon="-2.588951000">
        <ele>822.40</ele>
        <time>2016-10-29T09:00:29Z</time>
      </trkpt>
      <trkpt lat="42.371940000" lon="-2.588951000">
        <ele>822.40</ele>
        <time>2016-10-29T09:00:30Z</time>
      </trkpt>
      <trkpt lat="42.371941000" lon="-2.588951000">
        <ele>822.40</ele>
        <time>2016-10-29T09:00:31Z</time>
      </trkpt>
      <trkpt lat="42.371941000" lon="-2.588951000">
        <ele>822.20</ele>
        <time>2016-10-29T09:00:32Z</time>
      </trkpt>
      <trkpt lat="42.371943000" lon="-2.588951000">
        <ele>822.10</ele>
        <time>2016-10-29T09:00:33Z</time>
      </trkpt>
      <trkpt lat="42.371945000" lon="-2.588951000">
        <ele>822.00</ele>
        <time>2016-10-29T09:00:34Z</time>
      </trkpt>
      <trkpt lat="42.371946000" lon="-2.588951000">
        <ele>822.00</ele>
        <time>2016-10-29T09:00:35Z</time>
      </trkpt>
      <trkpt lat="42.371947000" lon="-2.588951000">
        <ele>822.00</ele>
        <time>2016-10-29T09:00:36Z</time>
      </trkpt>
      <trkpt lat="42.371947000" lon="-2.588951000">
        <ele>822.00</ele>
        <time>2016-10-29T09:00:37Z</time>
      </trkpt>
      <trkpt lat="42.371948000" lon="-2.588951000">
        <ele>822.00</ele>
        <time>2016-10-29T09:00:38Z</time>
      </trkpt>
      <trkpt lat="42.371949000" lon="-2.588951000">
        <ele>822.00</ele>
        <time>2016-10-29T09:00:40Z</time>
      </trkpt>
      <trkpt lat="42.371949000" lon="-2.588950000">
        <ele>822.00</ele>
        <time>2016-10-29T09:00:41Z</time>
      </trkpt>
      <trkpt lat="42.371949000" lon="-2.588951000">
        <ele>821.80</ele>
        <time>2016-10-29T09:00:42Z</time>
      </trkpt>
      <trkpt lat="42.371948000" lon="-2.588951000">
        <ele>821.70</ele>
        <time>2016-10-29T09:00:43Z</time>
      </trkpt>
      <trkpt lat="42.371948000" lon="-2.588951000">
        <ele>821.60</ele>
        <time>2016-10-29T09:00:44Z</time>
      </trkpt>
      <trkpt lat="42.371947000" lon="-2.588952000">
        <ele>821.60</ele>
        <time>2016-10-29T09:00:45Z</time>
      </trkpt>
      <trkpt lat="42.371947000" lon="-2.588953000">
        <ele>821.50</ele>
        <time>2016-10-29T09:00:46Z</time>
      </trkpt>
      <trkpt lat="42.371947000" lon="-2.588954000">
        <ele>821.50</ele>
        <time>2016-10-29T09:00:47Z</time>
      </trkpt>
      <trkpt lat="42.371946000" lon="-2.588956000">
        <ele>821.60</ele>
        <time>2016-10-29T09:00:48Z</time>
      </trkpt>
      <trkpt lat="42.371946000" lon="-2.588957000">
        <ele>821.60</ele>
        <time>2016-10-29T09:00:49Z</time>
      </trkpt>
      <trkpt lat="42.371947000" lon="-2.588957000">
        <ele>821.70</ele>
        <time>2016-10-29T09:00:50Z</time>
      </trkpt>
      <trkpt lat="42.371947000" lon="-2.588957000">
        <ele>821.70</ele>
        <time>2016-10-29T09:00:51Z</time>
      </trkpt>
      <trkpt lat="42.371948000" lon="-2.588957000">
        <ele>821.70</ele>
        <time>2016-10-29T09:00:52Z</time>
      </trkpt>
      <trkpt lat="42.371948000" lon="-2.588958000">
        <ele>821.70</ele>
        <time>2016-10-29T09:00:53Z</time>
      </trkpt>
      <trkpt lat="42.371948000" lon="-2.588958000">
        <ele>821.70</ele>
        <time>2016-10-29T09:00:54Z</time>
      </trkpt>
      <trkpt lat="42.371948000" lon="-2.588957000">
        <ele>821.70</ele>
        <time>2016-10-29T09:00:55Z</time>
      </trkpt>
      <trkpt lat="42.371947000" lon="-2.588955000">
        <ele>821.80</ele>
        <time>2016-10-29T09:00:56Z</time>
      </trkpt>
      <trkpt lat="42.371947000" lon="-2.588954000">
        <ele>821.80</ele>
        <time>2016-10-29T09:00:57Z</time>
      </trkpt>
      <trkpt lat="42.371946000" lon="-2.588954000">
        <ele>821.80</ele>
        <time>2016-10-29T09:00:58Z</time>
      </trkpt>
      <trkpt lat="42.371946000" lon="-2.588954000">
        <ele>821.90</ele>
        <time>2016-10-29T09:00:59Z</time>
      </trkpt>
      <trkpt lat="42.371946000" lon="-2.588954000">
        <ele>821.80</ele>
        <time>2016-10-29T09:01:00Z</time>
      </trkpt>
      <trkpt lat="42.371946000" lon="-2.588954000">
        <ele>821.80</ele>
        <time>2016-10-29T09:01:01Z</time>
      </trkpt>
      <trkpt lat="42.371946000" lon="-2.588954000">
        <ele>821.70</ele>
        <time>2016-10-29T09:01:02Z</time>
      </trkpt>
      <trkpt lat="42.371946000" lon="-2.588955000">
        <ele>821.70</ele>
        <time>2016-10-29T09:01:03Z</time>
      </trkpt>
      <trkpt lat="42.371946000" lon="-2.588955000">
        <ele>821.70</ele>
        <time>2016-10-29T09:01:04Z</time>
      </trkpt>
      <trkpt lat="42.371946000" lon="-2.588955000">
        <ele>821.60</ele>
        <time>2016-10-29T09:01:05Z</time>
      </trkpt>
      <trkpt lat="42.371947000" lon="-2.588956000">
        <ele>821.60</ele>
        <time>2016-10-29T09:01:06Z</time>
      </trkpt>
      <trkpt lat="42.371947000" lon="-2.588956000">
        <ele>821.50</ele>
        <time>2016-10-29T09:01:07Z</time>
      </trkpt>
      <trkpt lat="42.371947000" lon="-2.588955000">
        <ele>821.40</ele>
        <time>2016-10-29T09:01:08Z</time>
      </trkpt>
      <trkpt lat="42.371947000" lon="-2.588955000">
        <ele>821.40</ele>
        <time>2016-10-29T09:01:09Z</time>
      </trkpt>
      <trkpt lat="42.371947000" lon="-2.588954000">
        <ele>821.30</ele>
        <time>2016-10-29T09:01:10Z</time>
      </trkpt>
      <trkpt lat="42.371948000" lon="-2.588954000">
        <ele>821.30</ele>
        <time>2016-10-29T09:01:11Z</time>
      </trkpt>
      <trkpt lat="42.371949000" lon="-2.588956000">
        <ele>821.40</ele>
        <time>2016-10-29T09:01:12Z</time>
      </trkpt>
      <trkpt lat="42.371951000" lon="-2.588955000">
        <ele>821.40</ele>
        <time>2016-10-29T09:01:13Z</time>
      </trkpt>
      <trkpt lat="42.371952000" lon="-2.588953000">
        <ele>821.40</ele>
        <time>2016-10-29T09:01:14Z</time>
      </trkpt>
      <trkpt lat="42.371951000" lon="-2.588949000">
        <ele>821.40</ele>
        <time>2016-10-29T09:01:15Z</time>
      </trkpt>
      <trkpt lat="42.371954000" lon="-2.588946000">
        <ele>821.40</ele>
        <time>2016-10-29T09:01:16Z</time>
      </trkpt>
      <trkpt lat="42.371956000" lon="-2.588947000">
        <ele>821.40</ele>
        <time>2016-10-29T09:01:17Z</time>
      </trkpt>
      <trkpt lat="42.371956000" lon="-2.588948000">
        <ele>821.40</ele>
        <time>2016-10-29T09:01:18Z</time>
      </trkpt>
      <trkpt lat="42.371956000" lon="-2.588947000">
        <ele>821.40</ele>
        <time>2016-10-29T09:01:19Z</time>
      </trkpt>
      <trkpt lat="42.371956000" lon="-2.588946000">
        <ele>821.30</ele>
        <time>2016-10-29T09:01:20Z</time>
      </trkpt>
      <trkpt lat="42.371956000" lon="-2.588946000">
        <ele>821.30</ele>
        <time>2016-10-29T09:01:21Z</time>
      </trkpt>
      <trkpt lat="42.371957000" lon="-2.588946000">
        <ele>821.00</ele>
        <time>2016-10-29T09:01:22Z</time>
      </trkpt>
      <trkpt lat="42.371957000" lon="-2.588946000">
        <ele>820.80</ele>
        <time>2016-10-29T09:01:23Z</time>
      </trkpt>
      <trkpt lat="42.371957000" lon="-2.588946000">
        <ele>820.80</ele>
        <time>2016-10-29T09:01:24Z</time>
      </trkpt>
      <trkpt lat="42.371957000" lon="-2.588946000">
        <ele>820.70</ele>
        <time>2016-10-29T09:01:25Z</time>
      </trkpt>
      <trkpt lat="42.371957000" lon="-2.588946000">
        <ele>820.60</ele>
        <time>2016-10-29T09:01:26Z</time>
      </trkpt>
      <trkpt lat="42.371957000" lon="-2.588946000">
        <ele>820.60</ele>
        <time>2016-10-29T09:01:27Z</time>
      </trkpt>
      <trkpt lat="42.371957000" lon="-2.588947000">
        <ele>820.60</ele>
        <time>2016-10-29T09:01:28Z</time>
      </trkpt>
      <trkpt lat="42.371957000" lon="-2.588946000">
        <ele>820.50</ele>
        <time>2016-10-29T09:01:29Z</time>
      </trkpt>
      <trkpt lat="42.371957000" lon="-2.588946000">
        <ele>820.40</ele>
        <time>2016-10-29T09:01:30Z</time>
      </trkpt>
      <trkpt lat="42.371957000" lon="-2.588947000">
        <ele>820.30</ele>
        <time>2016-10-29T09:01:31Z</time>
      </trkpt>
      <trkpt lat="42.371958000" lon="-2.588947000">
        <ele>820.20</ele>
        <time>2016-10-29T09:01:32Z</time>
      </trkpt>
      <trkpt lat="42.371958000" lon="-2.588948000">
        <ele>820.10</ele>
        <time>2016-10-29T09:01:33Z</time>
      </trkpt>
      <trkpt lat="42.371958000" lon="-2.588948000">
        <ele>820.00</ele>
        <time>2016-10-29T09:01:34Z</time>
      </trkpt>
      <trkpt lat="42.371959000" lon="-2.588949000">
        <ele>820.00</ele>
        <time>2016-10-29T09:01:35Z</time>
      </trkpt>
      <trkpt lat="42.371960000" lon="-2.588950000">
        <ele>820.10</ele>
        <time>2016-10-29T09:01:36Z</time>
      </trkpt>
      <trkpt lat="42.371960000" lon="-2.588951000">
        <ele>820.10</ele>
        <time>2016-10-29T09:01:37Z</time>
      </trkpt>
      <trkpt lat="42.371961000" lon="-2.588952000">
        <ele>820.20</ele>
        <time>2016-10-29T09:01:38Z</time>
      </trkpt>
      <trkpt lat="42.371961000" lon="-2.588953000">
        <ele>820.30</ele>
        <time>2016-10-29T09:01:39Z</time>
      </trkpt>
      <trkpt lat="42.371962000" lon="-2.588954000">
        <ele>820.30</ele>
        <time>2016-10-29T09:01:41Z</time>
      </trkpt>
      <trkpt lat="42.371963000" lon="-2.588955000">
        <ele>820.30</ele>
        <time>2016-10-29T09:01:42Z</time>
      </trkpt>
      <trkpt lat="42.371964000" lon="-2.588956000">
        <ele>820.40</ele>
        <time>2016-10-29T09:01:43Z</time>
      </trkpt>
      <trkpt lat="42.371965000" lon="-2.588957000">
        <ele>820.40</ele>
        <time>2016-10-29T09:01:44Z</time>
      </trkpt>
      <trkpt lat="42.371965000" lon="-2.588958000">
        <ele>820.40</ele>
        <time>2016-10-29T09:01:45Z</time>
      </trkpt>
      <trkpt lat="42.371965000" lon="-2.588959000">
        <ele>820.40</ele>
        <time>2016-10-29T09:01:46Z</time>
      </trkpt>
      <trkpt lat="42.371965000" lon="-2.588959000">
        <ele>820.40</ele>
        <time>2016-10-29T09:01:47Z</time>
      </trkpt>
      <trkpt lat="42.371965000" lon="-2.588961000">
        <ele>820.40</ele>
        <time>2016-10-29T09:01:48Z</time>
      </trkpt>
      <trkpt lat="42.371965000" lon="-2.588963000">
        <ele>820.50</ele>
        <time>2016-10-29T09:01:49Z</time>
      </trkpt>
      <trkpt lat="42.371965000" lon="-2.588964000">
        <ele>820.30</ele>
        <time>2016-10-29T09:01:50Z</time>
      </trkpt>
      <trkpt lat="42.371965000" lon="-2.588965000">
        <ele>820.20</ele>
        <time>2016-10-29T09:01:51Z</time>
      </trkpt>
      <trkpt lat="42.371964000" lon="-2.588965000">
        <ele>820.10</ele>
        <time>2016-10-29T09:01:52Z</time>
      </trkpt>
      <trkpt lat="42.371964000" lon="-2.588966000">
        <ele>820.10</ele>
        <time>2016-10-29T09:01:53Z</time>
      </trkpt>
      <trkpt lat="42.371965000" lon="-2.588966000">
        <ele>820.00</ele>
        <time>2016-10-29T09:01:54Z</time>
      </trkpt>
      <trkpt lat="42.371965000" lon="-2.588966000">
        <ele>820.00</ele>
        <time>2016-10-29T09:01:55Z</time>
      </trkpt>
      <trkpt lat="42.371964000" lon="-2.588966000">
        <ele>819.90</ele>
        <time>2016-10-29T09:01:56Z</time>
      </trkpt>
      <trkpt lat="42.371964000" lon="-2.588966000">
        <ele>819.90</ele>
        <time>2016-10-29T09:01:57Z</time>
      </trkpt>
      <trkpt lat="42.371964000" lon="-2.588966000">
        <ele>820.10</ele>
        <time>2016-10-29T09:01:58Z</time>
      </trkpt>
      <trkpt lat="42.371965000" lon="-2.588967000">
        <ele>820.20</ele>
        <time>2016-10-29T09:01:59Z</time>
      </trkpt>
      <trkpt lat="42.371965000" lon="-2.588967000">
        <ele>820.10</ele>
        <time>2016-10-29T09:02:00Z</time>
      </trkpt>
      <trkpt lat="42.371964000" lon="-2.588968000">
        <ele>820.00</ele>
        <time>2016-10-29T09:02:01Z</time>
      </trkpt>
      <trkpt lat="42.371964000" lon="-2.588968000">
        <ele>820.00</ele>
        <time>2016-10-29T09:02:02Z</time>
      </trkpt>
      <trkpt lat="42.371963000" lon="-2.588968000">
        <ele>820.00</ele>
        <time>2016-10-29T09:02:03Z</time>
      </trkpt>
      <trkpt lat="42.371961000" lon="-2.588968000">
        <ele>820.00</ele>
        <time>2016-10-29T09:02:04Z</time>
      </trkpt>
      <trkpt lat="42.371960000" lon="-2.588968000">
        <ele>819.90</ele>
        <time>2016-10-29T09:02:05Z</time>
      </trkpt>
      <trkpt lat="42.371959000" lon="-2.588969000">
        <ele>819.90</ele>
        <time>2016-10-29T09:02:06Z</time>
      </trkpt>
      <trkpt lat="42.371957000" lon="-2.588970000">
        <ele>819.90</ele>
        <time>2016-10-29T09:02:07Z</time>
      </trkpt>
      <trkpt lat="42.371956000" lon="-2.588972000">
        <ele>820.00</ele>
        <time>2016-10-29T09:02:08Z</time>
      </trkpt>
      <trkpt lat="42.371955000" lon="-2.588973000">
        <ele>820.00</ele>
        <time>2016-10-29T09:02:09Z</time>
      </trkpt>
      <trkpt lat="42.371953000" lon="-2.588974000">
        <ele>820.00</ele>
        <time>2016-10-29T09:02:10Z</time>
      </trkpt>
      <trkpt lat="42.371950000" lon="-2.588975000">
        <ele>820.00</ele>
        <time>2016-10-29T09:02:11Z</time>
      </trkpt>
      <trkpt lat="42.371948000" lon="-2.588975000">
        <ele>820.10</ele>
        <time>2016-10-29T09:02:12Z</time>
      </trkpt>
      <trkpt lat="42.371946000" lon="-2.588976000">
        <ele>820.10</ele>
        <time>2016-10-29T09:02:13Z</time>
      </trkpt>
      <trkpt lat="42.371944000" lon="-2.588977000">
        <ele>820.20</ele>
        <time>2016-10-29T09:02:14Z</time>
      </trkpt>
      <trkpt lat="42.371943000" lon="-2.588978000">
        <ele>820.20</ele>
        <time>2016-10-29T09:02:15Z</time>
      </trkpt>
      <trkpt lat="42.371941000" lon="-2.588978000">
        <ele>820.20</ele>
        <time>2016-10-29T09:02:16Z</time>
      </trkpt>
      <trkpt lat="42.371940000" lon="-2.588977000">
        <ele>820.20</ele>
        <time>2016-10-29T09:02:17Z</time>
      </trkpt>
      <trkpt lat="42.371938000" lon="-2.588977000">
        <ele>820.20</ele>
        <time>2016-10-29T09:02:18Z</time>
      </trkpt>
      <trkpt lat="42.371937000" lon="-2.588976000">
        <ele>820.20</ele>
        <time>2016-10-29T09:02:19Z</time>
      </trkpt>
      <trkpt lat="42.371935000" lon="-2.588975000">
        <ele>820.10</ele>
        <time>2016-10-29T09:02:20Z</time>
      </trkpt>
      <trkpt lat="42.371934000" lon="-2.588975000">
        <ele>820.10</ele>
        <time>2016-10-29T09:02:21Z</time>
      </trkpt>
      <trkpt lat="42.371933000" lon="-2.588973000">
        <ele>820.10</ele>
        <time>2016-10-29T09:02:22Z</time>
      </trkpt>
      <trkpt lat="42.371932000" lon="-2.588972000">
        <ele>820.00</ele>
        <time>2016-10-29T09:02:23Z</time>
      </trkpt>
      <trkpt lat="42.371931000" lon="-2.588972000">
        <ele>820.00</ele>
        <time>2016-10-29T09:02:24Z</time>
      </trkpt>
      <trkpt lat="42.371930000" lon="-2.588970000">
        <ele>820.00</ele>
        <time>2016-10-29T09:02:25Z</time>
      </trkpt>
      <trkpt lat="42.371930000" lon="-2.588969000">
        <ele>819.90</ele>
        <time>2016-10-29T09:02:26Z</time>
      </trkpt>
      <trkpt lat="42.371929000" lon="-2.588967000">
        <ele>819.80</ele>
        <time>2016-10-29T09:02:27Z</time>
      </trkpt>
      <trkpt lat="42.371929000" lon="-2.588966000">
        <ele>819.80</ele>
        <time>2016-10-29T09:02:28Z</time>
      </trkpt>
      <trkpt lat="42.371929000" lon="-2.588965000">
        <ele>819.70</ele>
        <time>2016-10-29T09:02:29Z</time>
      </trkpt>
      <trkpt lat="42.371929000" lon="-2.588964000">
        <ele>819.70</ele>
        <time>2016-10-29T09:02:30Z</time>
      </trkpt>
      <trkpt lat="42.371930000" lon="-2.588964000">
        <ele>819.70</ele>
        <time>2016-10-29T09:02:31Z</time>
      </trkpt>
      <trkpt lat="42.371931000" lon="-2.588963000">
        <ele>819.70</ele>
        <time>2016-10-29T09:02:32Z</time>
      </trkpt>
      <trkpt lat="42.371932000" lon="-2.588963000">
        <ele>819.70</ele>
        <time>2016-10-29T09:02:33Z</time>
      </trkpt>
      <trkpt lat="42.371933000" lon="-2.588962000">
        <ele>819.70</ele>
        <time>2016-10-29T09:02:34Z</time>
      </trkpt>
      <trkpt lat="42.371931000" lon="-2.588960000">
        <ele>819.70</ele>
        <time>2016-10-29T09:02:35Z</time>
      </trkpt>
      <trkpt lat="42.371933000" lon="-2.588954000">
        <ele>819.80</ele>
        <time>2016-10-29T09:02:36Z</time>
      </trkpt>
      <trkpt lat="42.371935000" lon="-2.588954000">
        <ele>819.80</ele>
        <time>2016-10-29T09:02:37Z</time>
      </trkpt>
      <trkpt lat="42.371937000" lon="-2.588953000">
        <ele>819.80</ele>
        <time>2016-10-29T09:02:38Z</time>
      </trkpt>
      <trkpt lat="42.371943000" lon="-2.588957000">
        <ele>819.90</ele>
        <time>2016-10-29T09:02:39Z</time>
      </trkpt>
      <trkpt lat="42.371943000" lon="-2.588958000">
        <ele>819.90</ele>
        <time>2016-10-29T09:02:40Z</time>
      </trkpt>
      <trkpt lat="42.371945000" lon="-2.588960000">
        <ele>819.90</ele>
        <time>2016-10-29T09:02:42Z</time>
      </trkpt>
      <trkpt lat="42.371945000" lon="-2.588961000">
        <ele>819.80</ele>
        <time>2016-10-29T09:02:43Z</time>
      </trkpt>
      <trkpt lat="42.371946000" lon="-2.588962000">
        <ele>819.80</ele>
        <time>2016-10-29T09:02:44Z</time>
      </trkpt>
      <trkpt lat="42.371946000" lon="-2.588962000">
        <ele>819.70</ele>
        <time>2016-10-29T09:02:45Z</time>
      </trkpt>
      <trkpt lat="42.371947000" lon="-2.588963000">
        <ele>819.80</ele>
        <time>2016-10-29T09:02:46Z</time>
      </trkpt>
      <trkpt lat="42.371948000" lon="-2.588963000">
        <ele>819.80</ele>
        <time>2016-10-29T09:02:47Z</time>
      </trkpt>
      <trkpt lat="42.371948000" lon="-2.588964000">
        <ele>819.90</ele>
        <time>2016-10-29T09:02:48Z</time>
      </trkpt>
      <trkpt lat="42.371949000" lon="-2.588964000">
        <ele>819.90</ele>
        <time>2016-10-29T09:02:49Z</time>
      </trkpt>
      <trkpt lat="42.371950000" lon="-2.588964000">
        <ele>819.90</ele>
        <time>2016-10-29T09:02:50Z</time>
      </trkpt>
      <trkpt lat="42.371952000" lon="-2.588965000">
        <ele>819.90</ele>
        <time>2016-10-29T09:02:51Z</time>
      </trkpt>
      <trkpt lat="42.371954000" lon="-2.588965000">
        <ele>819.80</ele>
        <time>2016-10-29T09:02:52Z</time>
      </trkpt>
      <trkpt lat="42.371955000" lon="-2.588966000">
        <ele>819.70</ele>
        <time>2016-10-29T09:02:53Z</time>
      </trkpt>
      <trkpt lat="42.371956000" lon="-2.588967000">
        <ele>819.60</ele>
        <time>2016-10-29T09:02:54Z</time>
      </trkpt>
      <trkpt lat="42.371957000" lon="-2.588967000">
        <ele>819.50</ele>
        <time>2016-10-29T09:02:55Z</time>
      </trkpt>
      <trkpt lat="42.371958000" lon="-2.588967000">
        <ele>819.50</ele>
        <time>2016-10-29T09:02:56Z</time>
      </trkpt>
      <trkpt lat="42.371959000" lon="-2.588968000">
        <ele>819.40</ele>
        <time>2016-10-29T09:02:57Z</time>
      </trkpt>
      <trkpt lat="42.371959000" lon="-2.588968000">
        <ele>819.30</ele>
        <time>2016-10-29T09:02:58Z</time>
      </trkpt>
      <trkpt lat="42.371960000" lon="-2.588969000">
        <ele>819.20</ele>
        <time>2016-10-29T09:02:59Z</time>
      </trkpt>
      <trkpt lat="42.371961000" lon="-2.588969000">
        <ele>819.10</ele>
        <time>2016-10-29T09:03:00Z</time>
      </trkpt>
      <trkpt lat="42.371962000" lon="-2.588969000">
        <ele>819.10</ele>
        <time>2016-10-29T09:03:01Z</time>
      </trkpt>
      <trkpt lat="42.371963000" lon="-2.588970000">
        <ele>819.20</ele>
        <time>2016-10-29T09:03:02Z</time>
      </trkpt>
      <trkpt lat="42.371964000" lon="-2.588969000">
        <ele>819.20</ele>
        <time>2016-10-29T09:03:03Z</time>
      </trkpt>
      <trkpt lat="42.371965000" lon="-2.588969000">
        <ele>819.30</ele>
        <time>2016-10-29T09:03:04Z</time>
      </trkpt>
      <trkpt lat="42.371966000" lon="-2.588969000">
        <ele>819.40</ele>
        <time>2016-10-29T09:03:05Z</time>
      </trkpt>
      <trkpt lat="42.371968000" lon="-2.588969000">
        <ele>819.50</ele>
        <time>2016-10-29T09:03:06Z</time>
      </trkpt>
      <trkpt lat="42.371969000" lon="-2.588968000">
        <ele>819.50</ele>
        <time>2016-10-29T09:03:07Z</time>
      </trkpt>
      <trkpt lat="42.371971000" lon="-2.588967000">
        <ele>819.50</ele>
        <time>2016-10-29T09:03:08Z</time>
      </trkpt>
      <trkpt lat="42.371973000" lon="-2.588967000">
        <ele>819.60</ele>
        <time>2016-10-29T09:03:09Z</time>
      </trkpt>
      <trkpt lat="42.371974000" lon="-2.588966000">
        <ele>819.60</ele>
        <time>2016-10-29T09:03:10Z</time>
      </trkpt>
      <trkpt lat="42.371975000" lon="-2.588965000">
        <ele>819.60</ele>
        <time>2016-10-29T09:03:11Z</time>
      </trkpt>
      <trkpt lat="42.371976000" lon="-2.588964000">
        <ele>819.50</ele>
        <time>2016-10-29T09:03:12Z</time>
      </trkpt>
      <trkpt lat="42.371976000" lon="-2.588964000">
        <ele>819.40</ele>
        <time>2016-10-29T09:03:13Z</time>
      </trkpt>
      <trkpt lat="42.371977000" lon="-2.588964000">
        <ele>819.30</ele>
        <time>2016-10-29T09:03:14Z</time>
      </trkpt>
      <trkpt lat="42.371978000" lon="-2.588963000">
        <ele>819.20</ele>
        <time>2016-10-29T09:03:15Z</time>
      </trkpt>
      <trkpt lat="42.371979000" lon="-2.588962000">
        <ele>819.10</ele>
        <time>2016-10-29T09:03:16Z</time>
      </trkpt>
      <trkpt lat="42.371980000" lon="-2.588960000">
        <ele>819.00</ele>
        <time>2016-10-29T09:03:17Z</time>
      </trkpt>
      <trkpt lat="42.371982000" lon="-2.588959000">
        <ele>819.00</ele>
        <time>2016-10-29T09:03:18Z</time>
      </trkpt>
      <trkpt lat="42.371982000" lon="-2.588958000">
        <ele>819.00</ele>
        <time>2016-10-29T09:03:19Z</time>
      </trkpt>
      <trkpt lat="42.371983000" lon="-2.588958000">
        <ele>819.20</ele>
        <time>2016-10-29T09:03:20Z</time>
      </trkpt>
      <trkpt lat="42.371983000" lon="-2.588957000">
        <ele>819.30</ele>
        <time>2016-10-29T09:03:21Z</time>
      </trkpt>
      <trkpt lat="42.371983000" lon="-2.588957000">
        <ele>819.40</ele>
        <time>2016-10-29T09:03:22Z</time>
      </trkpt>
      <trkpt lat="42.371984000" lon="-2.588956000">
        <ele>819.50</ele>
        <time>2016-10-29T09:03:23Z</time>
      </trkpt>
      <trkpt lat="42.371984000" lon="-2.588956000">
        <ele>819.40</ele>
        <time>2016-10-29T09:03:24Z</time>
      </trkpt>
      <trkpt lat="42.371983000" lon="-2.588957000">
        <ele>819.30</ele>
        <time>2016-10-29T09:03:25Z</time>
      </trkpt>
      <trkpt lat="42.371983000" lon="-2.588958000">
        <ele>819.20</ele>
        <time>2016-10-29T09:03:26Z</time>
      </trkpt>
      <trkpt lat="42.371982000" lon="-2.588958000">
        <ele>819.10</ele>
        <time>2016-10-29T09:03:27Z</time>
      </trkpt>
      <trkpt lat="42.371981000" lon="-2.588959000">
        <ele>819.00</ele>
        <time>2016-10-29T09:03:28Z</time>
      </trkpt>
      <trkpt lat="42.371980000" lon="-2.588960000">
        <ele>818.90</ele>
        <time>2016-10-29T09:03:29Z</time>
      </trkpt>
      <trkpt lat="42.371979000" lon="-2.588961000">
        <ele>818.80</ele>
        <time>2016-10-29T09:03:30Z</time>
      </trkpt>
      <trkpt lat="42.371978000" lon="-2.588962000">
        <ele>818.70</ele>
        <time>2016-10-29T09:03:31Z</time>
      </trkpt>
      <trkpt lat="42.371977000" lon="-2.588964000">
        <ele>818.70</ele>
        <time>2016-10-29T09:03:32Z</time>
      </trkpt>
      <trkpt lat="42.371976000" lon="-2.588965000">
        <ele>818.60</ele>
        <time>2016-10-29T09:03:33Z</time>
      </trkpt>
      <trkpt lat="42.371975000" lon="-2.588968000">
        <ele>818.60</ele>
        <time>2016-10-29T09:03:34Z</time>
      </trkpt>
      <trkpt lat="42.371974000" lon="-2.588970000">
        <ele>818.60</ele>
        <time>2016-10-29T09:03:35Z</time>
      </trkpt>
      <trkpt lat="42.371973000" lon="-2.588972000">
        <ele>818.50</ele>
        <time>2016-10-29T09:03:36Z</time>
      </trkpt>
      <trkpt lat="42.371972000" lon="-2.588974000">
        <ele>818.50</ele>
        <time>2016-10-29T09:03:37Z</time>
      </trkpt>
      <trkpt lat="42.371972000" lon="-2.588975000">
        <ele>818.60</ele>
        <time>2016-10-29T09:03:38Z</time>
      </trkpt>
      <trkpt lat="42.371972000" lon="-2.588976000">
        <ele>818.60</ele>
        <time>2016-10-29T09:03:39Z</time>
      </trkpt>
      <trkpt lat="42.371972000" lon="-2.588977000">
        <ele>818.60</ele>
        <time>2016-10-29T09:03:40Z</time>
      </trkpt>
      <trkpt lat="42.371971000" lon="-2.588977000">
        <ele>818.60</ele>
        <time>2016-10-29T09:03:41Z</time>
      </trkpt>
      <trkpt lat="42.371970000" lon="-2.588980000">
        <ele>818.70</ele>
        <time>2016-10-29T09:03:43Z</time>
      </trkpt>
      <trkpt lat="42.371970000" lon="-2.588980000">
        <ele>818.80</ele>
        <time>2016-10-29T09:03:44Z</time>
      </trkpt>
      <trkpt lat="42.371969000" lon="-2.588981000">
        <ele>818.80</ele>
        <time>2016-10-29T09:03:45Z</time>
      </trkpt>
      <trkpt lat="42.371970000" lon="-2.588983000">
        <ele>818.80</ele>
        <time>2016-10-29T09:03:46Z</time>
      </trkpt>
      <trkpt lat="42.371969000" lon="-2.588984000">
        <ele>818.80</ele>
        <time>2016-10-29T09:03:47Z</time>
      </trkpt>
      <trkpt lat="42.371969000" lon="-2.588985000">
        <ele>818.90</ele>
        <time>2016-10-29T09:03:48Z</time>
      </trkpt>
      <trkpt lat="42.371969000" lon="-2.588986000">
        <ele>818.90</ele>
        <time>2016-10-29T09:03:49Z</time>
      </trkpt>
      <trkpt lat="42.371969000" lon="-2.588987000">
        <ele>819.00</ele>
        <time>2016-10-29T09:03:50Z</time>
      </trkpt>
      <trkpt lat="42.371970000" lon="-2.588987000">
        <ele>819.00</ele>
        <time>2016-10-29T09:03:51Z</time>
      </trkpt>
      <trkpt lat="42.371970000" lon="-2.588985000">
        <ele>819.10</ele>
        <time>2016-10-29T09:03:52Z</time>
      </trkpt>
      <trkpt lat="42.371971000" lon="-2.588984000">
        <ele>819.10</ele>
        <time>2016-10-29T09:03:53Z</time>
      </trkpt>
      <trkpt lat="42.371971000" lon="-2.588982000">
        <ele>819.20</ele>
        <time>2016-10-29T09:03:54Z</time>
      </trkpt>
      <trkpt lat="42.371972000" lon="-2.588981000">
        <ele>819.20</ele>
        <time>2016-10-29T09:03:55Z</time>
      </trkpt>
      <trkpt lat="42.371973000" lon="-2.588981000">
        <ele>819.20</ele>
        <time>2016-10-29T09:03:56Z</time>
      </trkpt>
      <trkpt lat="42.371973000" lon="-2.588981000">
        <ele>819.20</ele>
        <time>2016-10-29T09:03:57Z</time>
      </trkpt>
      <trkpt lat="42.371974000" lon="-2.588980000">
        <ele>819.10</ele>
        <time>2016-10-29T09:03:58Z</time>
      </trkpt>
      <trkpt lat="42.371975000" lon="-2.588979000">
        <ele>819.10</ele>
        <time>2016-10-29T09:03:59Z</time>
      </trkpt>
      <trkpt lat="42.371975000" lon="-2.588979000">
        <ele>819.00</ele>
        <time>2016-10-29T09:04:00Z</time>
      </trkpt>
      <trkpt lat="42.371976000" lon="-2.588978000">
        <ele>818.90</ele>
        <time>2016-10-29T09:04:01Z</time>
      </trkpt>
      <trkpt lat="42.371977000" lon="-2.588978000">
        <ele>818.90</ele>
        <time>2016-10-29T09:04:02Z</time>
      </trkpt>
      <trkpt lat="42.371979000" lon="-2.588979000">
        <ele>818.90</ele>
        <time>2016-10-29T09:04:03Z</time>
      </trkpt>
      <trkpt lat="42.371981000" lon="-2.588979000">
        <ele>818.90</ele>
        <time>2016-10-29T09:04:04Z</time>
      </trkpt>
      <trkpt lat="42.371982000" lon="-2.588979000">
        <ele>818.90</ele>
        <time>2016-10-29T09:04:05Z</time>
      </trkpt>
      <trkpt lat="42.371983000" lon="-2.588979000">
        <ele>818.90</ele>
        <time>2016-10-29T09:04:06Z</time>
      </trkpt>
      <trkpt lat="42.371984000" lon="-2.588979000">
        <ele>818.90</ele>
        <time>2016-10-29T09:04:07Z</time>
      </trkpt>
      <trkpt lat="42.371985000" lon="-2.588979000">
        <ele>818.90</ele>
        <time>2016-10-29T09:04:08Z</time>
      </trkpt>
      <trkpt lat="42.371987000" lon="-2.588979000">
        <ele>818.90</ele>
        <time>2016-10-29T09:04:09Z</time>
      </trkpt>
      <trkpt lat="42.371987000" lon="-2.588980000">
        <ele>818.80</ele>
        <time>2016-10-29T09:04:10Z</time>
      </trkpt>
      <trkpt lat="42.371988000" lon="-2.588980000">
        <ele>818.80</ele>
        <time>2016-10-29T09:04:11Z</time>
      </trkpt>
      <trkpt lat="42.371987000" lon="-2.588981000">
        <ele>818.80</ele>
        <time>2016-10-29T09:04:12Z</time>
      </trkpt>
      <trkpt lat="42.371987000" lon="-2.588981000">
        <ele>818.80</ele>
        <time>2016-10-29T09:04:13Z</time>
      </trkpt>
      <trkpt lat="42.371986000" lon="-2.588982000">
        <ele>818.70</ele>
        <time>2016-10-29T09:04:14Z</time>
      </trkpt>
      <trkpt lat="42.371985000" lon="-2.588983000">
        <ele>818.70</ele>
        <time>2016-10-29T09:04:15Z</time>
      </trkpt>
      <trkpt lat="42.371984000" lon="-2.588983000">
        <ele>818.60</ele>
        <time>2016-10-29T09:04:16Z</time>
      </trkpt>
      <trkpt lat="42.371983000" lon="-2.588983000">
        <ele>818.50</ele>
        <time>2016-10-29T09:04:17Z</time>
      </trkpt>
      <trkpt lat="42.371982000" lon="-2.588983000">
        <ele>818.40</ele>
        <time>2016-10-29T09:04:18Z</time>
      </trkpt>
      <trkpt lat="42.371981000" lon="-2.588983000">
        <ele>818.30</ele>
        <time>2016-10-29T09:04:19Z</time>
      </trkpt>
      <trkpt lat="42.371980000" lon="-2.588983000">
        <ele>818.30</ele>
        <time>2016-10-29T09:04:20Z</time>
      </trkpt>
      <trkpt lat="42.371979000" lon="-2.588983000">
        <ele>818.20</ele>
        <time>2016-10-29T09:04:21Z</time>
      </trkpt>
      <trkpt lat="42.371978000" lon="-2.588982000">
        <ele>818.30</ele>
        <time>2016-10-29T09:04:22Z</time>
      </trkpt>
      <trkpt lat="42.371976000" lon="-2.588982000">
        <ele>818.30</ele>
        <time>2016-10-29T09:04:23Z</time>
      </trkpt>
      <trkpt lat="42.371975000" lon="-2.588982000">
        <ele>818.40</ele>
        <time>2016-10-29T09:04:24Z</time>
      </trkpt>
      <trkpt lat="42.371974000" lon="-2.588982000">
        <ele>818.50</ele>
        <time>2016-10-29T09:04:25Z</time>
      </trkpt>
      <trkpt lat="42.371973000" lon="-2.588983000">
        <ele>818.50</ele>
        <time>2016-10-29T09:04:26Z</time>
      </trkpt>
      <trkpt lat="42.371972000" lon="-2.588984000">
        <ele>818.50</ele>
        <time>2016-10-29T09:04:27Z</time>
      </trkpt>
      <trkpt lat="42.371972000" lon="-2.588985000">
        <ele>818.70</ele>
        <time>2016-10-29T09:04:28Z</time>
      </trkpt>
      <trkpt lat="42.371971000" lon="-2.588986000">
        <ele>818.80</ele>
        <time>2016-10-29T09:04:29Z</time>
      </trkpt>
      <trkpt lat="42.371970000" lon="-2.588987000">
        <ele>818.70</ele>
        <time>2016-10-29T09:04:30Z</time>
      </trkpt>
      <trkpt lat="42.371969000" lon="-2.588988000">
        <ele>818.60</ele>
        <time>2016-10-29T09:04:31Z</time>
      </trkpt>
      <trkpt lat="42.371967000" lon="-2.588988000">
        <ele>818.50</ele>
        <time>2016-10-29T09:04:32Z</time>
      </trkpt>
      <trkpt lat="42.371966000" lon="-2.588988000">
        <ele>818.50</ele>
        <time>2016-10-29T09:04:33Z</time>
      </trkpt>
      <trkpt lat="42.371965000" lon="-2.588988000">
        <ele>818.40</ele>
        <time>2016-10-29T09:04:34Z</time>
      </trkpt>
      <trkpt lat="42.371963000" lon="-2.588988000">
        <ele>818.40</ele>
        <time>2016-10-29T09:04:35Z</time>
      </trkpt>
      <trkpt lat="42.371962000" lon="-2.588987000">
        <ele>818.40</ele>
        <time>2016-10-29T09:04:36Z</time>
      </trkpt>
      <trkpt lat="42.371961000" lon="-2.588987000">
        <ele>818.30</ele>
        <time>2016-10-29T09:04:37Z</time>
      </trkpt>
      <trkpt lat="42.371960000" lon="-2.588986000">
        <ele>818.30</ele>
        <time>2016-10-29T09:04:38Z</time>
      </trkpt>
      <trkpt lat="42.371959000" lon="-2.588986000">
        <ele>818.30</ele>
        <time>2016-10-29T09:04:39Z</time>
      </trkpt>
      <trkpt lat="42.371958000" lon="-2.588985000">
        <ele>818.30</ele>
        <time>2016-10-29T09:04:40Z</time>
      </trkpt>
      <trkpt lat="42.371956000" lon="-2.588985000">
        <ele>818.30</ele>
        <time>2016-10-29T09:04:41Z</time>
      </trkpt>
      <trkpt lat="42.371955000" lon="-2.588984000">
        <ele>818.30</ele>
        <time>2016-10-29T09:04:42Z</time>
      </trkpt>
      <trkpt lat="42.371956000" lon="-2.588985000">
        <ele>818.20</ele>
        <time>2016-10-29T09:04:44Z</time>
      </trkpt>
      <trkpt lat="42.371956000" lon="-2.588985000">
        <ele>818.20</ele>
        <time>2016-10-29T09:04:45Z</time>
      </trkpt>
      <trkpt lat="42.371956000" lon="-2.588984000">
        <ele>818.10</ele>
        <time>2016-10-29T09:04:46Z</time>
      </trkpt>
      <trkpt lat="42.371956000" lon="-2.588984000">
        <ele>818.00</ele>
        <time>2016-10-29T09:04:47Z</time>
      </trkpt>
      <trkpt lat="42.371956000" lon="-2.588984000">
        <ele>817.90</ele>
        <time>2016-10-29T09:04:48Z</time>
      </trkpt>
      <trkpt lat="42.371956000" lon="-2.588982000">
        <ele>817.90</ele>
        <time>2016-10-29T09:04:49Z</time>
      </trkpt>
      <trkpt lat="42.371955000" lon="-2.588981000">
        <ele>817.80</ele>
        <time>2016-10-29T09:04:50Z</time>
      </trkpt>
      <trkpt lat="42.371954000" lon="-2.588979000">
        <ele>817.80</ele>
        <time>2016-10-29T09:04:51Z</time>
      </trkpt>
      <trkpt lat="42.371955000" lon="-2.588977000">
        <ele>817.70</ele>
        <time>2016-10-29T09:04:52Z</time>
      </trkpt>
      <trkpt lat="42.371956000" lon="-2.588976000">
        <ele>817.70</ele>
        <time>2016-10-29T09:04:53Z</time>
      </trkpt>
      <trkpt lat="42.371957000" lon="-2.588975000">
        <ele>817.60</ele>
        <time>2016-10-29T09:04:54Z</time>
      </trkpt>
      <trkpt lat="42.371957000" lon="-2.588974000">
        <ele>817.60</ele>
        <time>2016-10-29T09:04:55Z</time>
      </trkpt>
      <trkpt lat="42.371959000" lon="-2.588973000">
        <ele>817.60</ele>
        <time>2016-10-29T09:04:56Z</time>
      </trkpt>
      <trkpt lat="42.371959000" lon="-2.588971000">
        <ele>817.60</ele>
        <time>2016-10-29T09:04:57Z</time>
      </trkpt>
      <trkpt lat="42.371959000" lon="-2.588969000">
        <ele>817.70</ele>
        <time>2016-10-29T09:04:58Z</time>
      </trkpt>
      <trkpt lat="42.371958000" lon="-2.588967000">
        <ele>817.70</ele>
        <time>2016-10-29T09:04:59Z</time>
      </trkpt>
      <trkpt lat="42.371958000" lon="-2.588965000">
        <ele>817.80</ele>
        <time>2016-10-29T09:05:00Z</time>
      </trkpt>
      <trkpt lat="42.371957000" lon="-2.588964000">
        <ele>817.80</ele>
        <time>2016-10-29T09:05:01Z</time>
      </trkpt>
      <trkpt lat="42.371957000" lon="-2.588963000">
        <ele>817.90</ele>
        <time>2016-10-29T09:05:02Z</time>
      </trkpt>
      <trkpt lat="42.371957000" lon="-2.588962000">
        <ele>817.90</ele>
        <time>2016-10-29T09:05:03Z</time>
      </trkpt>
      <trkpt lat="42.371958000" lon="-2.588962000">
        <ele>818.00</ele>
        <time>2016-10-29T09:05:04Z</time>
      </trkpt>
      <trkpt lat="42.371959000" lon="-2.588962000">
        <ele>818.10</ele>
        <time>2016-10-29T09:05:05Z</time>
      </trkpt>
      <trkpt lat="42.371959000" lon="-2.588962000">
        <ele>818.10</ele>
        <time>2016-10-29T09:05:06Z</time>
      </trkpt>
      <trkpt lat="42.371959000" lon="-2.588962000">
        <ele>818.00</ele>
        <time>2016-10-29T09:05:07Z</time>
      </trkpt>
      <trkpt lat="42.371960000" lon="-2.588961000">
        <ele>818.10</ele>
        <time>2016-10-29T09:05:08Z</time>
      </trkpt>
      <trkpt lat="42.371960000" lon="-2.588961000">
        <ele>818.10</ele>
        <time>2016-10-29T09:05:09Z</time>
      </trkpt>
      <trkpt lat="42.371961000" lon="-2.588960000">
        <ele>818.10</ele>
        <time>2016-10-29T09:05:10Z</time>
      </trkpt>
      <trkpt lat="42.371962000" lon="-2.588959000">
        <ele>818.10</ele>
        <time>2016-10-29T09:05:11Z</time>
      </trkpt>
      <trkpt lat="42.371963000" lon="-2.588958000">
        <ele>818.10</ele>
        <time>2016-10-29T09:05:12Z</time>
      </trkpt>
      <trkpt lat="42.371964000" lon="-2.588956000">
        <ele>818.10</ele>
        <time>2016-10-29T09:05:13Z</time>
      </trkpt>
      <trkpt lat="42.371965000" lon="-2.588955000">
        <ele>817.80</ele>
        <time>2016-10-29T09:05:14Z</time>
      </trkpt>
      <trkpt lat="42.371967000" lon="-2.588954000">
        <ele>817.60</ele>
        <time>2016-10-29T09:05:15Z</time>
      </trkpt>
      <trkpt lat="42.371968000" lon="-2.588953000">
        <ele>817.40</ele>
        <time>2016-10-29T09:05:16Z</time>
      </trkpt>
      <trkpt lat="42.371970000" lon="-2.588952000">
        <ele>817.30</ele>
        <time>2016-10-29T09:05:17Z</time>
      </trkpt>
      <trkpt lat="42.371971000" lon="-2.588951000">
        <ele>817.30</ele>
        <time>2016-10-29T09:05:18Z</time>
      </trkpt>
      <trkpt lat="42.371972000" lon="-2.588950000">
        <ele>817.30</ele>
        <time>2016-10-29T09:05:19Z</time>
      </trkpt>
      <trkpt lat="42.371973000" lon="-2.588950000">
        <ele>817.40</ele>
        <time>2016-10-29T09:05:20Z</time>
      </trkpt>
      <trkpt lat="42.371974000" lon="-2.588949000">
        <ele>817.50</ele>
        <time>2016-10-29T09:05:21Z</time>
      </trkpt>
      <trkpt lat="42.371974000" lon="-2.588949000">
        <ele>817.60</ele>
        <time>2016-10-29T09:05:22Z</time>
      </trkpt>
      <trkpt lat="42.371975000" lon="-2.588948000">
        <ele>817.70</ele>
        <time>2016-10-29T09:05:23Z</time>
      </trkpt>
      <trkpt lat="42.371976000" lon="-2.588948000">
        <ele>817.70</ele>
        <time>2016-10-29T09:05:24Z</time>
      </trkpt>
      <trkpt lat="42.371977000" lon="-2.588947000">
        <ele>817.70</ele>
        <time>2016-10-29T09:05:25Z</time>
      </trkpt>
      <trkpt lat="42.371978000" lon="-2.588947000">
        <ele>817.70</ele>
        <time>2016-10-29T09:05:26Z</time>
      </trkpt>
      <trkpt lat="42.371978000" lon="-2.588946000">
        <ele>817.80</ele>
        <time>2016-10-29T09:05:27Z</time>
      </trkpt>
      <trkpt lat="42.371979000" lon="-2.588945000">
        <ele>817.70</ele>
        <time>2016-10-29T09:05:28Z</time>
      </trkpt>
      <trkpt lat="42.371979000" lon="-2.588944000">
        <ele>817.70</ele>
        <time>2016-10-29T09:05:29Z</time>
      </trkpt>
      <trkpt lat="42.371980000" lon="-2.588943000">
        <ele>817.80</ele>
        <time>2016-10-29T09:05:30Z</time>
      </trkpt>
      <trkpt lat="42.371980000" lon="-2.588942000">
        <ele>817.90</ele>
        <time>2016-10-29T09:05:31Z</time>
      </trkpt>
      <trkpt lat="42.371981000" lon="-2.588941000">
        <ele>817.90</ele>
        <time>2016-10-29T09:05:32Z</time>
      </trkpt>
      <trkpt lat="42.371981000" lon="-2.588940000">
        <ele>818.00</ele>
        <time>2016-10-29T09:05:33Z</time>
      </trkpt>
      <trkpt lat="42.371981000" lon="-2.588940000">
        <ele>818.00</ele>
        <time>2016-10-29T09:05:34Z</time>
      </trkpt>
      <trkpt lat="42.371980000" lon="-2.588938000">
        <ele>818.00</ele>
        <time>2016-10-29T09:05:35Z</time>
      </trkpt>
      <trkpt lat="42.371979000" lon="-2.588937000">
        <ele>818.00</ele>
        <time>2016-10-29T09:05:36Z</time>
      </trkpt>
      <trkpt lat="42.371978000" lon="-2.588937000">
        <ele>818.00</ele>
        <time>2016-10-29T09:05:37Z</time>
      </trkpt>
      <trkpt lat="42.371977000" lon="-2.588936000">
        <ele>817.90</ele>
        <time>2016-10-29T09:05:38Z</time>
      </trkpt>
      <trkpt lat="42.371976000" lon="-2.588934000">
        <ele>817.90</ele>
        <time>2016-10-29T09:05:39Z</time>
      </trkpt>
      <trkpt lat="42.371976000" lon="-2.588934000">
        <ele>817.80</ele>
        <time>2016-10-29T09:05:40Z</time>
      </trkpt>
      <trkpt lat="42.371975000" lon="-2.588933000">
        <ele>817.70</ele>
        <time>2016-10-29T09:05:41Z</time>
      </trkpt>
      <trkpt lat="42.371975000" lon="-2.588933000">
        <ele>817.70</ele>
        <time>2016-10-29T09:05:42Z</time>
      </trkpt>
      <trkpt lat="42.371975000" lon="-2.588932000">
        <ele>817.70</ele>
        <time>2016-10-29T09:05:43Z</time>
      </trkpt>
      <trkpt lat="42.371975000" lon="-2.588930000">
        <ele>817.70</ele>
        <time>2016-10-29T09:05:45Z</time>
      </trkpt>
      <trkpt lat="42.371975000" lon="-2.588929000">
        <ele>817.70</ele>
        <time>2016-10-29T09:05:46Z</time>
      </trkpt>
      <trkpt lat="42.371976000" lon="-2.588928000">
        <ele>817.70</ele>
        <time>2016-10-29T09:05:47Z</time>
      </trkpt>
      <trkpt lat="42.371976000" lon="-2.588928000">
        <ele>817.70</ele>
        <time>2016-10-29T09:05:48Z</time>
      </trkpt>
      <trkpt lat="42.371977000" lon="-2.588927000">
        <ele>817.70</ele>
        <time>2016-10-29T09:05:49Z</time>
      </trkpt>
      <trkpt lat="42.371977000" lon="-2.588927000">
        <ele>817.70</ele>
        <time>2016-10-29T09:05:50Z</time>
      </trkpt>
      <trkpt lat="42.371978000" lon="-2.588926000">
        <ele>817.70</ele>
        <time>2016-10-29T09:05:51Z</time>
      </trkpt>
      <trkpt lat="42.371978000" lon="-2.588926000">
        <ele>817.70</ele>
        <time>2016-10-29T09:05:52Z</time>
      </trkpt>
      <trkpt lat="42.371978000" lon="-2.588926000">
        <ele>817.70</ele>
        <time>2016-10-29T09:05:53Z</time>
      </trkpt>
      <trkpt lat="42.371978000" lon="-2.588926000">
        <ele>817.50</ele>
        <time>2016-10-29T09:05:54Z</time>
      </trkpt>
      <trkpt lat="42.371978000" lon="-2.588926000">
        <ele>817.40</ele>
        <time>2016-10-29T09:05:55Z</time>
      </trkpt>
      <trkpt lat="42.371977000" lon="-2.588925000">
        <ele>817.30</ele>
        <time>2016-10-29T09:05:56Z</time>
      </trkpt>
      <trkpt lat="42.371977000" lon="-2.588926000">
        <ele>817.30</ele>
        <time>2016-10-29T09:05:57Z</time>
      </trkpt>
      <trkpt lat="42.371976000" lon="-2.588926000">
        <ele>817.20</ele>
        <time>2016-10-29T09:05:58Z</time>
      </trkpt>
      <trkpt lat="42.371976000" lon="-2.588926000">
        <ele>817.20</ele>
        <time>2016-10-29T09:05:59Z</time>
      </trkpt>
      <trkpt lat="42.371974000" lon="-2.588926000">
        <ele>817.20</ele>
        <time>2016-10-29T09:06:00Z</time>
      </trkpt>
      <trkpt lat="42.371973000" lon="-2.588927000">
        <ele>817.20</ele>
        <time>2016-10-29T09:06:01Z</time>
      </trkpt>
      <trkpt lat="42.371972000" lon="-2.588927000">
        <ele>817.20</ele>
        <time>2016-10-29T09:06:02Z</time>
      </trkpt>
      <trkpt lat="42.371971000" lon="-2.588927000">
        <ele>817.10</ele>
        <time>2016-10-29T09:06:03Z</time>
      </trkpt>
      <trkpt lat="42.371970000" lon="-2.588929000">
        <ele>817.10</ele>
        <time>2016-10-29T09:06:04Z</time>
      </trkpt>
      <trkpt lat="42.371969000" lon="-2.588930000">
        <ele>817.20</ele>
        <time>2016-10-29T09:06:05Z</time>
      </trkpt>
      <trkpt lat="42.371969000" lon="-2.588930000">
        <ele>817.20</ele>
        <time>2016-10-29T09:06:06Z</time>
      </trkpt>
      <trkpt lat="42.371968000" lon="-2.588931000">
        <ele>817.30</ele>
        <time>2016-10-29T09:06:07Z</time>
      </trkpt>
      <trkpt lat="42.371968000" lon="-2.588932000">
        <ele>817.30</ele>
        <time>2016-10-29T09:06:08Z</time>
      </trkpt>
      <trkpt lat="42.371968000" lon="-2.588932000">
        <ele>817.40</ele>
        <time>2016-10-29T09:06:09Z</time>
      </trkpt>
      <trkpt lat="42.371968000" lon="-2.588932000">
        <ele>817.40</ele>
        <time>2016-10-29T09:06:10Z</time>
      </trkpt>
      <trkpt lat="42.371969000" lon="-2.588931000">
        <ele>817.40</ele>
        <time>2016-10-29T09:06:11Z</time>
      </trkpt>
      <trkpt lat="42.371969000" lon="-2.588930000">
        <ele>817.40</ele>
        <time>2016-10-29T09:06:12Z</time>
      </trkpt>
      <trkpt lat="42.371970000" lon="-2.588929000">
        <ele>817.40</ele>
        <time>2016-10-29T09:06:13Z</time>
      </trkpt>
      <trkpt lat="42.371971000" lon="-2.588928000">
        <ele>817.30</ele>
        <time>2016-10-29T09:06:14Z</time>
      </trkpt>
      <trkpt lat="42.371972000" lon="-2.588927000">
        <ele>817.30</ele>
        <time>2016-10-29T09:06:15Z</time>
      </trkpt>
      <trkpt lat="42.371973000" lon="-2.588927000">
        <ele>817.30</ele>
        <time>2016-10-29T09:06:16Z</time>
      </trkpt>
      <trkpt lat="42.371973000" lon="-2.588927000">
        <ele>817.30</ele>
        <time>2016-10-29T09:06:17Z</time>
      </trkpt>
      <trkpt lat="42.371974000" lon="-2.588926000">
        <ele>817.20</ele>
        <time>2016-10-29T09:06:18Z</time>
      </trkpt>
      <trkpt lat="42.371974000" lon="-2.588926000">
        <ele>817.20</ele>
        <time>2016-10-29T09:06:19Z</time>
      </trkpt>
      <trkpt lat="42.371975000" lon="-2.588925000">
        <ele>817.00</ele>
        <time>2016-10-29T09:06:20Z</time>
      </trkpt>
      <trkpt lat="42.371975000" lon="-2.588925000">
        <ele>816.90</ele>
        <time>2016-10-29T09:06:21Z</time>
      </trkpt>
      <trkpt lat="42.371976000" lon="-2.588924000">
        <ele>816.80</ele>
        <time>2016-10-29T09:06:22Z</time>
      </trkpt>
      <trkpt lat="42.371976000" lon="-2.588923000">
        <ele>816.70</ele>
        <time>2016-10-29T09:06:23Z</time>
      </trkpt>
      <trkpt lat="42.371977000" lon="-2.588923000">
        <ele>816.70</ele>
        <time>2016-10-29T09:06:24Z</time>
      </trkpt>
      <trkpt lat="42.371977000" lon="-2.588923000">
        <ele>816.70</ele>
        <time>2016-10-29T09:06:25Z</time>
      </trkpt>
      <trkpt lat="42.371978000" lon="-2.588923000">
        <ele>816.80</ele>
        <time>2016-10-29T09:06:26Z</time>
      </trkpt>
      <trkpt lat="42.371979000" lon="-2.588923000">
        <ele>816.80</ele>
        <time>2016-10-29T09:06:27Z</time>
      </trkpt>
      <trkpt lat="42.371979000" lon="-2.588922000">
        <ele>816.90</ele>
        <time>2016-10-29T09:06:28Z</time>
      </trkpt>
      <trkpt lat="42.371980000" lon="-2.588922000">
        <ele>817.00</ele>
        <time>2016-10-29T09:06:29Z</time>
      </trkpt>
      <trkpt lat="42.371980000" lon="-2.588922000">
        <ele>817.00</ele>
        <time>2016-10-29T09:06:30Z</time>
      </trkpt>
      <trkpt lat="42.371980000" lon="-2.588921000">
        <ele>817.00</ele>
        <time>2016-10-29T09:06:31Z</time>
      </trkpt>
      <trkpt lat="42.371980000" lon="-2.588921000">
        <ele>817.10</ele>
        <time>2016-10-29T09:06:32Z</time>
      </trkpt>
      <trkpt lat="42.371980000" lon="-2.588922000">
        <ele>817.20</ele>
        <time>2016-10-29T09:06:33Z</time>
      </trkpt>
      <trkpt lat="42.371979000" lon="-2.588922000">
        <ele>817.00</ele>
        <time>2016-10-29T09:06:34Z</time>
      </trkpt>
      <trkpt lat="42.371979000" lon="-2.588922000">
        <ele>816.90</ele>
        <time>2016-10-29T09:06:35Z</time>
      </trkpt>
      <trkpt lat="42.371978000" lon="-2.588923000">
        <ele>816.70</ele>
        <time>2016-10-29T09:06:36Z</time>
      </trkpt>
      <trkpt lat="42.371977000" lon="-2.588924000">
        <ele>816.60</ele>
        <time>2016-10-29T09:06:37Z</time>
      </trkpt>
      <trkpt lat="42.371976000" lon="-2.588925000">
        <ele>816.40</ele>
        <time>2016-10-29T09:06:38Z</time>
      </trkpt>
      <trkpt lat="42.371975000" lon="-2.588926000">
        <ele>816.30</ele>
        <time>2016-10-29T09:06:39Z</time>
      </trkpt>
      <trkpt lat="42.371975000" lon="-2.588928000">
        <ele>816.30</ele>
        <time>2016-10-29T09:06:40Z</time>
      </trkpt>
      <trkpt lat="42.371975000" lon="-2.588929000">
        <ele>816.20</ele>
        <time>2016-10-29T09:06:41Z</time>
      </trkpt>
      <trkpt lat="42.371974000" lon="-2.588931000">
        <ele>816.20</ele>
        <time>2016-10-29T09:06:42Z</time>
      </trkpt>
      <trkpt lat="42.371973000" lon="-2.588933000">
        <ele>816.10</ele>
        <time>2016-10-29T09:06:43Z</time>
      </trkpt>
      <trkpt lat="42.371972000" lon="-2.588936000">
        <ele>816.10</ele>
        <time>2016-10-29T09:06:44Z</time>
      </trkpt>
      <trkpt lat="42.371970000" lon="-2.588939000">
        <ele>816.30</ele>
        <time>2016-10-29T09:06:46Z</time>
      </trkpt>
      <trkpt lat="42.371968000" lon="-2.588941000">
        <ele>816.50</ele>
        <time>2016-10-29T09:06:47Z</time>
      </trkpt>
      <trkpt lat="42.371967000" lon="-2.588943000">
        <ele>816.60</ele>
        <time>2016-10-29T09:06:48Z</time>
      </trkpt>
      <trkpt lat="42.371966000" lon="-2.588945000">
        <ele>816.70</ele>
        <time>2016-10-29T09:06:49Z</time>
      </trkpt>
      <trkpt lat="42.371965000" lon="-2.588946000">
        <ele>816.80</ele>
        <time>2016-10-29T09:06:50Z</time>
      </trkpt>
      <trkpt lat="42.371963000" lon="-2.588947000">
        <ele>816.80</ele>
        <time>2016-10-29T09:06:51Z</time>
      </trkpt>
      <trkpt lat="42.371963000" lon="-2.588949000">
        <ele>816.90</ele>
        <time>2016-10-29T09:06:52Z</time>
      </trkpt>
      <trkpt lat="42.371963000" lon="-2.588950000">
        <ele>816.90</ele>
        <time>2016-10-29T09:06:53Z</time>
      </trkpt>
      <trkpt lat="42.371962000" lon="-2.588951000">
        <ele>816.90</ele>
        <time>2016-10-29T09:06:54Z</time>
      </trkpt>
      <trkpt lat="42.371962000" lon="-2.588952000">
        <ele>816.90</ele>
        <time>2016-10-29T09:06:55Z</time>
      </trkpt>
      <trkpt lat="42.371962000" lon="-2.588953000">
        <ele>816.90</ele>
        <time>2016-10-29T09:06:56Z</time>
      </trkpt>
      <trkpt lat="42.371962000" lon="-2.588954000">
        <ele>816.90</ele>
        <time>2016-10-29T09:06:57Z</time>
      </trkpt>
      <trkpt lat="42.371962000" lon="-2.588955000">
        <ele>816.90</ele>
        <time>2016-10-29T09:06:58Z</time>
      </trkpt>
      <trkpt lat="42.371962000" lon="-2.588956000">
        <ele>816.90</ele>
        <time>2016-10-29T09:06:59Z</time>
      </trkpt>
      <trkpt lat="42.371962000" lon="-2.588956000">
        <ele>816.90</ele>
        <time>2016-10-29T09:07:00Z</time>
      </trkpt>
      <trkpt lat="42.371962000" lon="-2.588955000">
        <ele>816.90</ele>
        <time>2016-10-29T09:07:01Z</time>
      </trkpt>
      <trkpt lat="42.371961000" lon="-2.588955000">
        <ele>816.80</ele>
        <time>2016-10-29T09:07:02Z</time>
      </trkpt>
      <trkpt lat="42.371961000" lon="-2.588955000">
        <ele>816.70</ele>
        <time>2016-10-29T09:07:03Z</time>
      </trkpt>
      <trkpt lat="42.371961000" lon="-2.588955000">
        <ele>816.70</ele>
        <time>2016-10-29T09:07:04Z</time>
      </trkpt>
      <trkpt lat="42.371962000" lon="-2.588955000">
        <ele>816.60</ele>
        <time>2016-10-29T09:07:05Z</time>
      </trkpt>
      <trkpt lat="42.371962000" lon="-2.588954000">
        <ele>816.70</ele>
        <time>2016-10-29T09:07:06Z</time>
      </trkpt>
      <trkpt lat="42.371962000" lon="-2.588954000">
        <ele>816.70</ele>
        <time>2016-10-29T09:07:07Z</time>
      </trkpt>
      <trkpt lat="42.371962000" lon="-2.588954000">
        <ele>816.70</ele>
        <time>2016-10-29T09:07:08Z</time>
      </trkpt>
      <trkpt lat="42.371962000" lon="-2.588954000">
        <ele>816.70</ele>
        <time>2016-10-29T09:07:09Z</time>
      </trkpt>
      <trkpt lat="42.371962000" lon="-2.588954000">
        <ele>816.70</ele>
        <time>2016-10-29T09:07:10Z</time>
      </trkpt>
      <trkpt lat="42.371963000" lon="-2.588955000">
        <ele>816.70</ele>
        <time>2016-10-29T09:07:11Z</time>
      </trkpt>
      <trkpt lat="42.371963000" lon="-2.588955000">
        <ele>816.70</ele>
        <time>2016-10-29T09:07:12Z</time>
      </trkpt>
      <trkpt lat="42.371964000" lon="-2.588955000">
        <ele>816.70</ele>
        <time>2016-10-29T09:07:13Z</time>
      </trkpt>
      <trkpt lat="42.371964000" lon="-2.588955000">
        <ele>816.70</ele>
        <time>2016-10-29T09:07:14Z</time>
      </trkpt>
      <trkpt lat="42.371963000" lon="-2.588955000">
        <ele>816.70</ele>
        <time>2016-10-29T09:07:15Z</time>
      </trkpt>
      <trkpt lat="42.371964000" lon="-2.588955000">
        <ele>816.70</ele>
        <time>2016-10-29T09:07:16Z</time>
      </trkpt>
      <trkpt lat="42.371964000" lon="-2.588955000">
        <ele>816.70</ele>
        <time>2016-10-29T09:07:17Z</time>
      </trkpt>
      <trkpt lat="42.371964000" lon="-2.588954000">
        <ele>816.70</ele>
        <time>2016-10-29T09:07:18Z</time>
      </trkpt>
      <trkpt lat="42.371965000" lon="-2.588954000">
        <ele>816.60</ele>
        <time>2016-10-29T09:07:19Z</time>
      </trkpt>
      <trkpt lat="42.371965000" lon="-2.588954000">
        <ele>816.60</ele>
        <time>2016-10-29T09:07:20Z</time>
      </trkpt>
      <trkpt lat="42.371965000" lon="-2.588954000">
        <ele>816.60</ele>
        <time>2016-10-29T09:07:21Z</time>
      </trkpt>
      <trkpt lat="42.371966000" lon="-2.588954000">
        <ele>816.50</ele>
        <time>2016-10-29T09:07:22Z</time>
      </trkpt>
      <trkpt lat="42.371965000" lon="-2.588954000">
        <ele>816.50</ele>
        <time>2016-10-29T09:07:23Z</time>
      </trkpt>
      <trkpt lat="42.371965000" lon="-2.588954000">
        <ele>816.40</ele>
        <time>2016-10-29T09:07:24Z</time>
      </trkpt>
      <trkpt lat="42.371964000" lon="-2.588954000">
        <ele>816.40</ele>
        <time>2016-10-29T09:07:25Z</time>
      </trkpt>
      <trkpt lat="42.371962000" lon="-2.588954000">
        <ele>816.40</ele>
        <time>2016-10-29T09:07:26Z</time>
      </trkpt>
      <trkpt lat="42.371961000" lon="-2.588954000">
        <ele>816.40</ele>
        <time>2016-10-29T09:07:27Z</time>
      </trkpt>
      <trkpt lat="42.371961000" lon="-2.588954000">
        <ele>816.50</ele>
        <time>2016-10-29T09:07:28Z</time>
      </trkpt>
      <trkpt lat="42.371960000" lon="-2.588954000">
        <ele>816.50</ele>
        <time>2016-10-29T09:07:29Z</time>
      </trkpt>
      <trkpt lat="42.371959000" lon="-2.588954000">
        <ele>816.50</ele>
        <time>2016-10-29T09:07:30Z</time>
      </trkpt>
      <trkpt lat="42.371959000" lon="-2.588953000">
        <ele>816.50</ele>
        <time>2016-10-29T09:07:31Z</time>
      </trkpt>
      <trkpt lat="42.371959000" lon="-2.588953000">
        <ele>816.50</ele>
        <time>2016-10-29T09:07:32Z</time>
      </trkpt>
      <trkpt lat="42.371958000" lon="-2.588952000">
        <ele>816.40</ele>
        <time>2016-10-29T09:07:33Z</time>
      </trkpt>
      <trkpt lat="42.371958000" lon="-2.588951000">
        <ele>816.50</ele>
        <time>2016-10-29T09:07:34Z</time>
      </trkpt>
      <trkpt lat="42.371957000" lon="-2.588951000">
        <ele>816.50</ele>
        <time>2016-10-29T09:07:35Z</time>
      </trkpt>
      <trkpt lat="42.371956000" lon="-2.588951000">
        <ele>816.60</ele>
        <time>2016-10-29T09:07:36Z</time>
      </trkpt>
      <trkpt lat="42.371955000" lon="-2.588952000">
        <ele>816.60</ele>
        <time>2016-10-29T09:07:37Z</time>
      </trkpt>
      <trkpt lat="42.371954000" lon="-2.588953000">
        <ele>816.60</ele>
        <time>2016-10-29T09:07:38Z</time>
      </trkpt>
      <trkpt lat="42.371954000" lon="-2.588953000">
        <ele>816.60</ele>
        <time>2016-10-29T09:07:39Z</time>
      </trkpt>
      <trkpt lat="42.371953000" lon="-2.588954000">
        <ele>816.60</ele>
        <time>2016-10-29T09:07:40Z</time>
      </trkpt>
      <trkpt lat="42.371953000" lon="-2.588954000">
        <ele>816.60</ele>
        <time>2016-10-29T09:07:41Z</time>
      </trkpt>
      <trkpt lat="42.371953000" lon="-2.588954000">
        <ele>816.60</ele>
        <time>2016-10-29T09:07:42Z</time>
      </trkpt>
      <trkpt lat="42.371953000" lon="-2.588955000">
        <ele>816.60</ele>
        <time>2016-10-29T09:07:43Z</time>
      </trkpt>
      <trkpt lat="42.371954000" lon="-2.588955000">
        <ele>816.60</ele>
        <time>2016-10-29T09:07:44Z</time>
      </trkpt>
      <trkpt lat="42.371954000" lon="-2.588956000">
        <ele>816.60</ele>
        <time>2016-10-29T09:07:45Z</time>
      </trkpt>
      <trkpt lat="42.371954000" lon="-2.588957000">
        <ele>816.50</ele>
        <time>2016-10-29T09:07:47Z</time>
      </trkpt>
      <trkpt lat="42.371955000" lon="-2.588958000">
        <ele>816.50</ele>
        <time>2016-10-29T09:07:48Z</time>
      </trkpt>
      <trkpt lat="42.371955000" lon="-2.588959000">
        <ele>816.50</ele>
        <time>2016-10-29T09:07:49Z</time>
      </trkpt>
      <trkpt lat="42.371955000" lon="-2.588960000">
        <ele>816.40</ele>
        <time>2016-10-29T09:07:50Z</time>
      </trkpt>
      <trkpt lat="42.371955000" lon="-2.588960000">
        <ele>816.30</ele>
        <time>2016-10-29T09:07:51Z</time>
      </trkpt>
      <trkpt lat="42.371955000" lon="-2.588960000">
        <ele>816.30</ele>
        <time>2016-10-29T09:07:52Z</time>
      </trkpt>
      <trkpt lat="42.371955000" lon="-2.588960000">
        <ele>816.30</ele>
        <time>2016-10-29T09:07:53Z</time>
      </trkpt>
      <trkpt lat="42.371955000" lon="-2.588960000">
        <ele>816.40</ele>
        <time>2016-10-29T09:07:54Z</time>
      </trkpt>
      <trkpt lat="42.371955000" lon="-2.588960000">
        <ele>816.40</ele>
        <time>2016-10-29T09:07:55Z</time>
      </trkpt>
      <trkpt lat="42.371956000" lon="-2.588961000">
        <ele>816.40</ele>
        <time>2016-10-29T09:07:56Z</time>
      </trkpt>
      <trkpt lat="42.371956000" lon="-2.588961000">
        <ele>816.40</ele>
        <time>2016-10-29T09:07:57Z</time>
      </trkpt>
      <trkpt lat="42.371956000" lon="-2.588962000">
        <ele>816.40</ele>
        <time>2016-10-29T09:07:58Z</time>
      </trkpt>
      <trkpt lat="42.371956000" lon="-2.588962000">
        <ele>816.30</ele>
        <time>2016-10-29T09:07:59Z</time>
      </trkpt>
      <trkpt lat="42.371957000" lon="-2.588961000">
        <ele>816.20</ele>
        <time>2016-10-29T09:08:00Z</time>
      </trkpt>
      <trkpt lat="42.371957000" lon="-2.588961000">
        <ele>816.10</ele>
        <time>2016-10-29T09:08:01Z</time>
      </trkpt>
      <trkpt lat="42.371957000" lon="-2.588962000">
        <ele>816.10</ele>
        <time>2016-10-29T09:08:02Z</time>
      </trkpt>
      <trkpt lat="42.371958000" lon="-2.588962000">
        <ele>816.00</ele>
        <time>2016-10-29T09:08:03Z</time>
      </trkpt>
      <trkpt lat="42.371960000" lon="-2.588962000">
        <ele>816.00</ele>
        <time>2016-10-29T09:08:04Z</time>
      </trkpt>
      <trkpt lat="42.371962000" lon="-2.588962000">
        <ele>815.90</ele>
        <time>2016-10-29T09:08:05Z</time>
      </trkpt>
      <trkpt lat="42.371962000" lon="-2.588962000">
        <ele>816.00</ele>
        <time>2016-10-29T09:08:06Z</time>
      </trkpt>
      <trkpt lat="42.371963000" lon="-2.588962000">
        <ele>816.00</ele>
        <time>2016-10-29T09:08:07Z</time>
      </trkpt>
      <trkpt lat="42.371964000" lon="-2.588962000">
        <ele>816.10</ele>
        <time>2016-10-29T09:08:08Z</time>
      </trkpt>
      <trkpt lat="42.371964000" lon="-2.588962000">
        <ele>816.10</ele>
        <time>2016-10-29T09:08:09Z</time>
      </trkpt>
      <trkpt lat="42.371965000" lon="-2.588961000">
        <ele>816.20</ele>
        <time>2016-10-29T09:08:10Z</time>
      </trkpt>
      <trkpt lat="42.371966000" lon="-2.588960000">
        <ele>816.20</ele>
        <time>2016-10-29T09:08:11Z</time>
      </trkpt>
      <trkpt lat="42.371967000" lon="-2.588959000">
        <ele>816.20</ele>
        <time>2016-10-29T09:08:12Z</time>
      </trkpt>
      <trkpt lat="42.371967000" lon="-2.588958000">
        <ele>816.10</ele>
        <time>2016-10-29T09:08:13Z</time>
      </trkpt>
      <trkpt lat="42.371968000" lon="-2.588958000">
        <ele>816.00</ele>
        <time>2016-10-29T09:08:14Z</time>
      </trkpt>
      <trkpt lat="42.371967000" lon="-2.588957000">
        <ele>815.90</ele>
        <time>2016-10-29T09:08:15Z</time>
      </trkpt>
      <trkpt lat="42.371968000" lon="-2.588957000">
        <ele>815.90</ele>
        <time>2016-10-29T09:08:16Z</time>
      </trkpt>
      <trkpt lat="42.371967000" lon="-2.588958000">
        <ele>815.80</ele>
        <time>2016-10-29T09:08:17Z</time>
      </trkpt>
      <trkpt lat="42.371967000" lon="-2.588958000">
        <ele>815.90</ele>
        <time>2016-10-29T09:08:18Z</time>
      </trkpt>
      <trkpt lat="42.371966000" lon="-2.588958000">
        <ele>816.00</ele>
        <time>2016-10-29T09:08:19Z</time>
      </trkpt>
      <trkpt lat="42.371966000" lon="-2.588958000">
        <ele>816.00</ele>
        <time>2016-10-29T09:08:20Z</time>
      </trkpt>
      <trkpt lat="42.371965000" lon="-2.588958000">
        <ele>816.10</ele>
        <time>2016-10-29T09:08:21Z</time>
      </trkpt>
      <trkpt lat="42.371964000" lon="-2.588958000">
        <ele>816.00</ele>
        <time>2016-10-29T09:08:22Z</time>
      </trkpt>
      <trkpt lat="42.371964000" lon="-2.588958000">
        <ele>815.90</ele>
        <time>2016-10-29T09:08:23Z</time>
      </trkpt>
      <trkpt lat="42.371963000" lon="-2.588958000">
        <ele>815.80</ele>
        <time>2016-10-29T09:08:24Z</time>
      </trkpt>
      <trkpt lat="42.371963000" lon="-2.588958000">
        <ele>815.60</ele>
        <time>2016-10-29T09:08:25Z</time>
      </trkpt>
      <trkpt lat="42.371962000" lon="-2.588958000">
        <ele>815.60</ele>
        <time>2016-10-29T09:08:26Z</time>
      </trkpt>
      <trkpt lat="42.371961000" lon="-2.588958000">
        <ele>815.50</ele>
        <time>2016-10-29T09:08:27Z</time>
      </trkpt>
      <trkpt lat="42.371960000" lon="-2.588958000">
        <ele>815.50</ele>
        <time>2016-10-29T09:08:28Z</time>
      </trkpt>
      <trkpt lat="42.371958000" lon="-2.588959000">
        <ele>815.50</ele>
        <time>2016-10-29T09:08:29Z</time>
      </trkpt>
      <trkpt lat="42.371957000" lon="-2.588959000">
        <ele>815.60</ele>
        <time>2016-10-29T09:08:30Z</time>
      </trkpt>
      <trkpt lat="42.371955000" lon="-2.588960000">
        <ele>815.60</ele>
        <time>2016-10-29T09:08:31Z</time>
      </trkpt>
      <trkpt lat="42.371954000" lon="-2.588960000">
        <ele>815.60</ele>
        <time>2016-10-29T09:08:32Z</time>
      </trkpt>
      <trkpt lat="42.371953000" lon="-2.588960000">
        <ele>815.60</ele>
        <time>2016-10-29T09:08:33Z</time>
      </trkpt>
      <trkpt lat="42.371951000" lon="-2.588961000">
        <ele>815.60</ele>
        <time>2016-10-29T09:08:34Z</time>
      </trkpt>
      <trkpt lat="42.371950000" lon="-2.588961000">
        <ele>815.50</ele>
        <time>2016-10-29T09:08:35Z</time>
      </trkpt>
      <trkpt lat="42.371949000" lon="-2.588961000">
        <ele>815.60</ele>
        <time>2016-10-29T09:08:36Z</time>
      </trkpt>
      <trkpt lat="42.371948000" lon="-2.588960000">
        <ele>815.60</ele>
        <time>2016-10-29T09:08:37Z</time>
      </trkpt>
      <trkpt lat="42.371947000" lon="-2.588960000">
        <ele>815.70</ele>
        <time>2016-10-29T09:08:38Z</time>
      </trkpt>
      <trkpt lat="42.371946000" lon="-2.588960000">
        <ele>815.70</ele>
        <time>2016-10-29T09:08:39Z</time>
      </trkpt>
      <trkpt lat="42.371945000" lon="-2.588961000">
        <ele>815.70</ele>
        <time>2016-10-29T09:08:40Z</time>
      </trkpt>
      <trkpt lat="42.371944000" lon="-2.588962000">
        <ele>815.70</ele>
        <time>2016-10-29T09:08:41Z</time>
      </trkpt>
      <trkpt lat="42.371944000" lon="-2.588962000">
        <ele>815.80</ele>
        <time>2016-10-29T09:08:42Z</time>
      </trkpt>
      <trkpt lat="42.371944000" lon="-2.588963000">
        <ele>815.80</ele>
        <time>2016-10-29T09:08:43Z</time>
      </trkpt>
      <trkpt lat="42.371943000" lon="-2.588964000">
        <ele>815.70</ele>
        <time>2016-10-29T09:08:44Z</time>
      </trkpt>
      <trkpt lat="42.371943000" lon="-2.588964000">
        <ele>815.60</ele>
        <time>2016-10-29T09:08:45Z</time>
      </trkpt>
      <trkpt lat="42.371943000" lon="-2.588964000">
        <ele>815.60</ele>
        <time>2016-10-29T09:08:46Z</time>
      </trkpt>
      <trkpt lat="42.371941000" lon="-2.588964000">
        <ele>815.50</ele>
        <time>2016-10-29T09:08:48Z</time>
      </trkpt>
      <trkpt lat="42.371942000" lon="-2.588964000">
        <ele>815.40</ele>
        <time>2016-10-29T09:08:49Z</time>
      </trkpt>
      <trkpt lat="42.371942000" lon="-2.588964000">
        <ele>815.60</ele>
        <time>2016-10-29T09:08:50Z</time>
      </trkpt>
      <trkpt lat="42.371943000" lon="-2.588963000">
        <ele>815.60</ele>
        <time>2016-10-29T09:08:51Z</time>
      </trkpt>
      <trkpt lat="42.371943000" lon="-2.588962000">
        <ele>815.70</ele>
        <time>2016-10-29T09:08:52Z</time>
      </trkpt>
      <trkpt lat="42.371944000" lon="-2.588962000">
        <ele>815.70</ele>
        <time>2016-10-29T09:08:53Z</time>
      </trkpt>
      <trkpt lat="42.371945000" lon="-2.588962000">
        <ele>815.70</ele>
        <time>2016-10-29T09:08:54Z</time>
      </trkpt>
      <trkpt lat="42.371945000" lon="-2.588962000">
        <ele>815.70</ele>
        <time>2016-10-29T09:08:55Z</time>
      </trkpt>
      <trkpt lat="42.371947000" lon="-2.588961000">
        <ele>815.60</ele>
        <time>2016-10-29T09:08:56Z</time>
      </trkpt>
      <trkpt lat="42.371948000" lon="-2.588962000">
        <ele>815.50</ele>
        <time>2016-10-29T09:08:57Z</time>
      </trkpt>
      <trkpt lat="42.371949000" lon="-2.588962000">
        <ele>815.50</ele>
        <time>2016-10-29T09:08:58Z</time>
      </trkpt>
      <trkpt lat="42.371951000" lon="-2.588961000">
        <ele>815.50</ele>
        <time>2016-10-29T09:08:59Z</time>
      </trkpt>
      <trkpt lat="42.371952000" lon="-2.588962000">
        <ele>815.70</ele>
        <time>2016-10-29T09:09:00Z</time>
      </trkpt>
      <trkpt lat="42.371953000" lon="-2.588962000">
        <ele>815.70</ele>
        <time>2016-10-29T09:09:01Z</time>
      </trkpt>
      <trkpt lat="42.371954000" lon="-2.588963000">
        <ele>815.80</ele>
        <time>2016-10-29T09:09:02Z</time>
      </trkpt>
      <trkpt lat="42.371953000" lon="-2.588965000">
        <ele>815.80</ele>
        <time>2016-10-29T09:09:03Z</time>
      </trkpt>
      <trkpt lat="42.371953000" lon="-2.588966000">
        <ele>815.70</ele>
        <time>2016-10-29T09:09:04Z</time>
      </trkpt>
      <trkpt lat="42.371954000" lon="-2.588966000">
        <ele>815.60</ele>
        <time>2016-10-29T09:09:05Z</time>
      </trkpt>
      <trkpt lat="42.371954000" lon="-2.588967000">
        <ele>815.50</ele>
        <time>2016-10-29T09:09:06Z</time>
      </trkpt>
      <trkpt lat="42.371953000" lon="-2.588969000">
        <ele>815.40</ele>
        <time>2016-10-29T09:09:07Z</time>
      </trkpt>
      <trkpt lat="42.371954000" lon="-2.588970000">
        <ele>815.40</ele>
        <time>2016-10-29T09:09:08Z</time>
      </trkpt>
      <trkpt lat="42.371954000" lon="-2.588971000">
        <ele>815.40</ele>
        <time>2016-10-29T09:09:09Z</time>
      </trkpt>
      <trkpt lat="42.371954000" lon="-2.588971000">
        <ele>815.40</ele>
        <time>2016-10-29T09:09:10Z</time>
      </trkpt>
      <trkpt lat="42.371955000" lon="-2.588972000">
        <ele>815.40</ele>
        <time>2016-10-29T09:09:11Z</time>
      </trkpt>
      <trkpt lat="42.371955000" lon="-2.588973000">
        <ele>815.40</ele>
        <time>2016-10-29T09:09:12Z</time>
      </trkpt>
      <trkpt lat="42.371956000" lon="-2.588974000">
        <ele>815.40</ele>
        <time>2016-10-29T09:09:13Z</time>
      </trkpt>
      <trkpt lat="42.371957000" lon="-2.588975000">
        <ele>815.40</ele>
        <time>2016-10-29T09:09:14Z</time>
      </trkpt>
      <trkpt lat="42.371957000" lon="-2.588976000">
        <ele>815.40</ele>
        <time>2016-10-29T09:09:15Z</time>
      </trkpt>
      <trkpt lat="42.371957000" lon="-2.588977000">
        <ele>815.40</ele>
        <time>2016-10-29T09:09:16Z</time>
      </trkpt>
      <trkpt lat="42.371957000" lon="-2.588977000">
        <ele>815.40</ele>
        <time>2016-10-29T09:09:17Z</time>
      </trkpt>
      <trkpt lat="42.371957000" lon="-2.588978000">
        <ele>815.40</ele>
        <time>2016-10-29T09:09:18Z</time>
      </trkpt>
      <trkpt lat="42.371958000" lon="-2.588978000">
        <ele>815.30</ele>
        <time>2016-10-29T09:09:19Z</time>
      </trkpt>
      <trkpt lat="42.371958000" lon="-2.588978000">
        <ele>815.30</ele>
        <time>2016-10-29T09:09:20Z</time>
      </trkpt>
      <trkpt lat="42.371959000" lon="-2.588978000">
        <ele>815.30</ele>
        <time>2016-10-29T09:09:21Z</time>
      </trkpt>
      <trkpt lat="42.371959000" lon="-2.588978000">
        <ele>815.30</ele>
        <time>2016-10-29T09:09:22Z</time>
      </trkpt>
      <trkpt lat="42.371960000" lon="-2.588978000">
        <ele>815.30</ele>
        <time>2016-10-29T09:09:23Z</time>
      </trkpt>
      <trkpt lat="42.371961000" lon="-2.588978000">
        <ele>815.20</ele>
        <time>2016-10-29T09:09:24Z</time>
      </trkpt>
      <trkpt lat="42.371962000" lon="-2.588978000">
        <ele>815.20</ele>
        <time>2016-10-29T09:09:25Z</time>
      </trkpt>
      <trkpt lat="42.371963000" lon="-2.588979000">
        <ele>815.20</ele>
        <time>2016-10-29T09:09:26Z</time>
      </trkpt>
      <trkpt lat="42.371964000" lon="-2.588978000">
        <ele>815.20</ele>
        <time>2016-10-29T09:09:27Z</time>
      </trkpt>
      <trkpt lat="42.371965000" lon="-2.588978000">
        <ele>815.10</ele>
        <time>2016-10-29T09:09:28Z</time>
      </trkpt>
      <trkpt lat="42.371967000" lon="-2.588977000">
        <ele>815.10</ele>
        <time>2016-10-29T09:09:29Z</time>
      </trkpt>
      <trkpt lat="42.371968000" lon="-2.588977000">
        <ele>814.90</ele>
        <time>2016-10-29T09:09:30Z</time>
      </trkpt>
      <trkpt lat="42.371970000" lon="-2.588975000">
        <ele>814.80</ele>
        <time>2016-10-29T09:09:31Z</time>
      </trkpt>
      <trkpt lat="42.371972000" lon="-2.588974000">
        <ele>814.70</ele>
        <time>2016-10-29T09:09:32Z</time>
      </trkpt>
      <trkpt lat="42.371973000" lon="-2.588973000">
        <ele>814.60</ele>
        <time>2016-10-29T09:09:33Z</time>
      </trkpt>
      <trkpt lat="42.371975000" lon="-2.588972000">
        <ele>814.80</ele>
        <time>2016-10-29T09:09:34Z</time>
      </trkpt>
      <trkpt lat="42.371975000" lon="-2.588970000">
        <ele>815.00</ele>
        <time>2016-10-29T09:09:35Z</time>
      </trkpt>
      <trkpt lat="42.371976000" lon="-2.588968000">
        <ele>815.10</ele>
        <time>2016-10-29T09:09:36Z</time>
      </trkpt>
      <trkpt lat="42.371977000" lon="-2.588966000">
        <ele>815.20</ele>
        <time>2016-10-29T09:09:37Z</time>
      </trkpt>
      <trkpt lat="42.371977000" lon="-2.588964000">
        <ele>815.20</ele>
        <time>2016-10-29T09:09:38Z</time>
      </trkpt>
      <trkpt lat="42.371978000" lon="-2.588963000">
        <ele>815.30</ele>
        <time>2016-10-29T09:09:39Z</time>
      </trkpt>
      <trkpt lat="42.371978000" lon="-2.588961000">
        <ele>815.20</ele>
        <time>2016-10-29T09:09:40Z</time>
      </trkpt>
      <trkpt lat="42.371979000" lon="-2.588959000">
        <ele>815.20</ele>
        <time>2016-10-29T09:09:41Z</time>
      </trkpt>
      <trkpt lat="42.371979000" lon="-2.588957000">
        <ele>815.20</ele>
        <time>2016-10-29T09:09:42Z</time>
      </trkpt>
      <trkpt lat="42.371979000" lon="-2.588956000">
        <ele>815.30</ele>
        <time>2016-10-29T09:09:43Z</time>
      </trkpt>
      <trkpt lat="42.371978000" lon="-2.588955000">
        <ele>815.40</ele>
        <time>2016-10-29T09:09:44Z</time>
      </trkpt>
      <trkpt lat="42.371977000" lon="-2.588953000">
        <ele>815.40</ele>
        <time>2016-10-29T09:09:45Z</time>
      </trkpt>
      <trkpt lat="42.371976000" lon="-2.588952000">
        <ele>815.50</ele>
        <time>2016-10-29T09:09:46Z</time>
      </trkpt>
      <trkpt lat="42.371975000" lon="-2.588951000">
        <ele>815.50</ele>
        <time>2016-10-29T09:09:47Z</time>
      </trkpt>
      <trkpt lat="42.371974000" lon="-2.588948000">
        <ele>815.30</ele>
        <time>2016-10-29T09:09:49Z</time>
      </trkpt>
      <trkpt lat="42.371973000" lon="-2.588948000">
        <ele>815.10</ele>
        <time>2016-10-29T09:09:50Z</time>
      </trkpt>
      <trkpt lat="42.371972000" lon="-2.588947000">
        <ele>815.00</ele>
        <time>2016-10-29T09:09:51Z</time>
      </trkpt>
      <trkpt lat="42.371971000" lon="-2.588947000">
        <ele>814.80</ele>
        <time>2016-10-29T09:09:52Z</time>
      </trkpt>
      <trkpt lat="42.371969000" lon="-2.588947000">
        <ele>814.70</ele>
        <time>2016-10-29T09:09:53Z</time>
      </trkpt>
      <trkpt lat="42.371968000" lon="-2.588948000">
        <ele>814.50</ele>
        <time>2016-10-29T09:09:54Z</time>
      </trkpt>
      <trkpt lat="42.371967000" lon="-2.588947000">
        <ele>814.40</ele>
        <time>2016-10-29T09:09:55Z</time>
      </trkpt>
      <trkpt lat="42.371966000" lon="-2.588947000">
        <ele>814.40</ele>
        <time>2016-10-29T09:09:56Z</time>
      </trkpt>
      <trkpt lat="42.371965000" lon="-2.588946000">
        <ele>814.40</ele>
        <time>2016-10-29T09:09:57Z</time>
      </trkpt>
      <trkpt lat="42.371965000" lon="-2.588946000">
        <ele>814.50</ele>
        <time>2016-10-29T09:09:58Z</time>
      </trkpt>
      <trkpt lat="42.371964000" lon="-2.588945000">
        <ele>814.60</ele>
        <time>2016-10-29T09:09:59Z</time>
      </trkpt>
      <trkpt lat="42.371964000" lon="-2.588945000">
        <ele>814.70</ele>
        <time>2016-10-29T09:10:00Z</time>
      </trkpt>
      <trkpt lat="42.371964000" lon="-2.588945000">
        <ele>814.80</ele>
        <time>2016-10-29T09:10:01Z</time>
      </trkpt>
      <trkpt lat="42.371964000" lon="-2.588945000">
        <ele>814.80</ele>
        <time>2016-10-29T09:10:02Z</time>
      </trkpt>
      <trkpt lat="42.371964000" lon="-2.588946000">
        <ele>814.80</ele>
        <time>2016-10-29T09:10:03Z</time>
      </trkpt>
      <trkpt lat="42.371964000" lon="-2.588946000">
        <ele>814.80</ele>
        <time>2016-10-29T09:10:04Z</time>
      </trkpt>
      <trkpt lat="42.371964000" lon="-2.588948000">
        <ele>814.80</ele>
        <time>2016-10-29T09:10:05Z</time>
      </trkpt>
      <trkpt lat="42.371964000" lon="-2.588949000">
        <ele>814.80</ele>
        <time>2016-10-29T09:10:06Z</time>
      </trkpt>
      <trkpt lat="42.371965000" lon="-2.588949000">
        <ele>814.80</ele>
        <time>2016-10-29T09:10:07Z</time>
      </trkpt>
      <trkpt lat="42.371965000" lon="-2.588950000">
        <ele>814.80</ele>
        <time>2016-10-29T09:10:08Z</time>
      </trkpt>
      <trkpt lat="42.371965000" lon="-2.588951000">
        <ele>814.80</ele>
        <time>2016-10-29T09:10:09Z</time>
      </trkpt>
      <trkpt lat="42.371965000" lon="-2.588951000">
        <ele>814.80</ele>
        <time>2016-10-29T09:10:10Z</time>
      </trkpt>
      <trkpt lat="42.371964000" lon="-2.588951000">
        <ele>814.80</ele>
        <time>2016-10-29T09:10:11Z</time>
      </trkpt>
      <trkpt lat="42.371965000" lon="-2.588951000">
        <ele>814.70</ele>
        <time>2016-10-29T09:10:12Z</time>
      </trkpt>
      <trkpt lat="42.371964000" lon="-2.588951000">
        <ele>814.70</ele>
        <time>2016-10-29T09:10:13Z</time>
      </trkpt>
      <trkpt lat="42.371965000" lon="-2.588951000">
        <ele>814.70</ele>
        <time>2016-10-29T09:10:14Z</time>
      </trkpt>
      <trkpt lat="42.371965000" lon="-2.588951000">
        <ele>814.60</ele>
        <time>2016-10-29T09:10:15Z</time>
      </trkpt>
      <trkpt lat="42.371965000" lon="-2.588951000">
        <ele>814.50</ele>
        <time>2016-10-29T09:10:16Z</time>
      </trkpt>
      <trkpt lat="42.371965000" lon="-2.588950000">
        <ele>814.40</ele>
        <time>2016-10-29T09:10:17Z</time>
      </trkpt>
      <trkpt lat="42.371965000" lon="-2.588949000">
        <ele>814.40</ele>
        <time>2016-10-29T09:10:18Z</time>
      </trkpt>
      <trkpt lat="42.371966000" lon="-2.588948000">
        <ele>814.30</ele>
        <time>2016-10-29T09:10:19Z</time>
      </trkpt>
      <trkpt lat="42.371966000" lon="-2.588947000">
        <ele>814.30</ele>
        <time>2016-10-29T09:10:20Z</time>
      </trkpt>
      <trkpt lat="42.371967000" lon="-2.588946000">
        <ele>814.40</ele>
        <time>2016-10-29T09:10:21Z</time>
      </trkpt>
      <trkpt lat="42.371968000" lon="-2.588945000">
        <ele>814.40</ele>
        <time>2016-10-29T09:10:22Z</time>
      </trkpt>
      <trkpt lat="42.371968000" lon="-2.588944000">
        <ele>814.40</ele>
        <time>2016-10-29T09:10:23Z</time>
      </trkpt>
      <trkpt lat="42.371969000" lon="-2.588943000">
        <ele>814.40</ele>
        <time>2016-10-29T09:10:24Z</time>
      </trkpt>
      <trkpt lat="42.371969000" lon="-2.588942000">
        <ele>814.40</ele>
        <time>2016-10-29T09:10:25Z</time>
      </trkpt>
      <trkpt lat="42.371970000" lon="-2.588941000">
        <ele>814.40</ele>
        <time>2016-10-29T09:10:26Z</time>
      </trkpt>
      <trkpt lat="42.371971000" lon="-2.588940000">
        <ele>814.40</ele>
        <time>2016-10-29T09:10:27Z</time>
      </trkpt>
      <trkpt lat="42.371971000" lon="-2.588938000">
        <ele>814.30</ele>
        <time>2016-10-29T09:10:28Z</time>
      </trkpt>
      <trkpt lat="42.371972000" lon="-2.588938000">
        <ele>814.30</ele>
        <time>2016-10-29T09:10:29Z</time>
      </trkpt>
      <trkpt lat="42.371973000" lon="-2.588937000">
        <ele>814.30</ele>
        <time>2016-10-29T09:10:30Z</time>
      </trkpt>
      <trkpt lat="42.371972000" lon="-2.588937000">
        <ele>814.30</ele>
        <time>2016-10-29T09:10:31Z</time>
      </trkpt>
      <trkpt lat="42.371973000" lon="-2.588936000">
        <ele>814.30</ele>
        <time>2016-10-29T09:10:32Z</time>
      </trkpt>
      <trkpt lat="42.371974000" lon="-2.588935000">
        <ele>814.30</ele>
        <time>2016-10-29T09:10:33Z</time>
      </trkpt>
      <trkpt lat="42.371975000" lon="-2.588934000">
        <ele>814.30</ele>
        <time>2016-10-29T09:10:34Z</time>
      </trkpt>
      <trkpt lat="42.371975000" lon="-2.588934000">
        <ele>814.30</ele>
        <time>2016-10-29T09:10:35Z</time>
      </trkpt>
      <trkpt lat="42.371975000" lon="-2.588933000">
        <ele>814.40</ele>
        <time>2016-10-29T09:10:36Z</time>
      </trkpt>
      <trkpt lat="42.371975000" lon="-2.588933000">
        <ele>814.50</ele>
        <time>2016-10-29T09:10:37Z</time>
      </trkpt>
      <trkpt lat="42.371976000" lon="-2.588933000">
        <ele>814.50</ele>
        <time>2016-10-29T09:10:38Z</time>
      </trkpt>
      <trkpt lat="42.371977000" lon="-2.588932000">
        <ele>814.60</ele>
        <time>2016-10-29T09:10:39Z</time>
      </trkpt>
      <trkpt lat="42.371978000" lon="-2.588932000">
        <ele>814.40</ele>
        <time>2016-10-29T09:10:40Z</time>
      </trkpt>
      <trkpt lat="42.371977000" lon="-2.588932000">
        <ele>814.30</ele>
        <time>2016-10-29T09:10:41Z</time>
      </trkpt>
      <trkpt lat="42.371978000" lon="-2.588932000">
        <ele>814.20</ele>
        <time>2016-10-29T09:10:42Z</time>
      </trkpt>
      <trkpt lat="42.371977000" lon="-2.588931000">
        <ele>814.10</ele>
        <time>2016-10-29T09:10:43Z</time>
      </trkpt>
      <trkpt lat="42.371978000" lon="-2.588931000">
        <ele>814.30</ele>
        <time>2016-10-29T09:10:44Z</time>
      </trkpt>
      <trkpt lat="42.371978000" lon="-2.588931000">
        <ele>814.40</ele>
        <time>2016-10-29T09:10:45Z</time>
      </trkpt>
      <trkpt lat="42.371978000" lon="-2.588930000">
        <ele>814.60</ele>
        <time>2016-10-29T09:10:46Z</time>
      </trkpt>
      <trkpt lat="42.371978000" lon="-2.588930000">
        <ele>814.60</ele>
        <time>2016-10-29T09:10:47Z</time>
      </trkpt>
      <trkpt lat="42.371978000" lon="-2.588930000">
        <ele>814.60</ele>
        <time>2016-10-29T09:10:48Z</time>
      </trkpt>
      <trkpt lat="42.371980000" lon="-2.588930000">
        <ele>814.50</ele>
        <time>2016-10-29T09:10:50Z</time>
      </trkpt>
      <trkpt lat="42.371980000" lon="-2.588930000">
        <ele>814.40</ele>
        <time>2016-10-29T09:10:51Z</time>
      </trkpt>
      <trkpt lat="42.371980000" lon="-2.588930000">
        <ele>814.30</ele>
        <time>2016-10-29T09:10:52Z</time>
      </trkpt>
      <trkpt lat="42.371981000" lon="-2.588930000">
        <ele>814.30</ele>
        <time>2016-10-29T09:10:53Z</time>
      </trkpt>
      <trkpt lat="42.371981000" lon="-2.588929000">
        <ele>814.20</ele>
        <time>2016-10-29T09:10:54Z</time>
      </trkpt>
      <trkpt lat="42.371981000" lon="-2.588929000">
        <ele>814.20</ele>
        <time>2016-10-29T09:10:55Z</time>
      </trkpt>
      <trkpt lat="42.371982000" lon="-2.588928000">
        <ele>814.20</ele>
        <time>2016-10-29T09:10:56Z</time>
      </trkpt>
      <trkpt lat="42.371981000" lon="-2.588928000">
        <ele>814.20</ele>
        <time>2016-10-29T09:10:57Z</time>
      </trkpt>
      <trkpt lat="42.371981000" lon="-2.588928000">
        <ele>814.20</ele>
        <time>2016-10-29T09:10:58Z</time>
      </trkpt>
      <trkpt lat="42.371981000" lon="-2.588928000">
        <ele>814.30</ele>
        <time>2016-10-29T09:10:59Z</time>
      </trkpt>
      <trkpt lat="42.371980000" lon="-2.588929000">
        <ele>814.30</ele>
        <time>2016-10-29T09:11:00Z</time>
      </trkpt>
      <trkpt lat="42.371980000" lon="-2.588928000">
        <ele>814.30</ele>
        <time>2016-10-29T09:11:01Z</time>
      </trkpt>
      <trkpt lat="42.371980000" lon="-2.588928000">
        <ele>814.10</ele>
        <time>2016-10-29T09:11:02Z</time>
      </trkpt>
      <trkpt lat="42.371981000" lon="-2.588928000">
        <ele>814.00</ele>
        <time>2016-10-29T09:11:03Z</time>
      </trkpt>
      <trkpt lat="42.371981000" lon="-2.588928000">
        <ele>813.90</ele>
        <time>2016-10-29T09:11:04Z</time>
      </trkpt>
      <trkpt lat="42.371982000" lon="-2.588928000">
        <ele>813.90</ele>
        <time>2016-10-29T09:11:05Z</time>
      </trkpt>
      <trkpt lat="42.371982000" lon="-2.588928000">
        <ele>813.90</ele>
        <time>2016-10-29T09:11:06Z</time>
      </trkpt>
      <trkpt lat="42.371983000" lon="-2.588928000">
        <ele>813.90</ele>
        <time>2016-10-29T09:11:07Z</time>
      </trkpt>
      <trkpt lat="42.371983000" lon="-2.588928000">
        <ele>813.90</ele>
        <time>2016-10-29T09:11:08Z</time>
      </trkpt>
      <trkpt lat="42.371982000" lon="-2.588928000">
        <ele>814.00</ele>
        <time>2016-10-29T09:11:09Z</time>
      </trkpt>
      <trkpt lat="42.371983000" lon="-2.588928000">
        <ele>814.00</ele>
        <time>2016-10-29T09:11:10Z</time>
      </trkpt>
      <trkpt lat="42.371982000" lon="-2.588929000">
        <ele>813.90</ele>
        <time>2016-10-29T09:11:11Z</time>
      </trkpt>
      <trkpt lat="42.371981000" lon="-2.588931000">
        <ele>814.00</ele>
        <time>2016-10-29T09:11:12Z</time>
      </trkpt>
      <trkpt lat="42.371980000" lon="-2.588931000">
        <ele>814.00</ele>
        <time>2016-10-29T09:11:13Z</time>
      </trkpt>
      <trkpt lat="42.371979000" lon="-2.588933000">
        <ele>814.00</ele>
        <time>2016-10-29T09:11:14Z</time>
      </trkpt>
      <trkpt lat="42.371978000" lon="-2.588934000">
        <ele>814.00</ele>
        <time>2016-10-29T09:11:15Z</time>
      </trkpt>
      <trkpt lat="42.371977000" lon="-2.588936000">
        <ele>814.00</ele>
        <time>2016-10-29T09:11:16Z</time>
      </trkpt>
      <trkpt lat="42.371976000" lon="-2.588938000">
        <ele>814.00</ele>
        <time>2016-10-29T09:11:17Z</time>
      </trkpt>
      <trkpt lat="42.371974000" lon="-2.588940000">
        <ele>814.00</ele>
        <time>2016-10-29T09:11:18Z</time>
      </trkpt>
      <trkpt lat="42.371974000" lon="-2.588942000">
        <ele>814.00</ele>
        <time>2016-10-29T09:11:19Z</time>
      </trkpt>
      <trkpt lat="42.371972000" lon="-2.588943000">
        <ele>814.00</ele>
        <time>2016-10-29T09:11:20Z</time>
      </trkpt>
      <trkpt lat="42.371971000" lon="-2.588944000">
        <ele>813.90</ele>
        <time>2016-10-29T09:11:21Z</time>
      </trkpt>
      <trkpt lat="42.371970000" lon="-2.588944000">
        <ele>813.80</ele>
        <time>2016-10-29T09:11:22Z</time>
      </trkpt>
      <trkpt lat="42.371968000" lon="-2.588945000">
        <ele>813.70</ele>
        <time>2016-10-29T09:11:23Z</time>
      </trkpt>
      <trkpt lat="42.371967000" lon="-2.588945000">
        <ele>813.60</ele>
        <time>2016-10-29T09:11:24Z</time>
      </trkpt>
      <trkpt lat="42.371965000" lon="-2.588945000">
        <ele>813.60</ele>
        <time>2016-10-29T09:11:25Z</time>
      </trkpt>
      <trkpt lat="42.371965000" lon="-2.588945000">
        <ele>813.50</ele>
        <time>2016-10-29T09:11:26Z</time>
      </trkpt>
      <trkpt lat="42.371964000" lon="-2.588945000">
        <ele>813.50</ele>
        <time>2016-10-29T09:11:27Z</time>
      </trkpt>
      <trkpt lat="42.371963000" lon="-2.588945000">
        <ele>813.50</ele>
        <time>2016-10-29T09:11:28Z</time>
      </trkpt>
      <trkpt lat="42.371962000" lon="-2.588945000">
        <ele>813.60</ele>
        <time>2016-10-29T09:11:29Z</time>
      </trkpt>
      <trkpt lat="42.371961000" lon="-2.588946000">
        <ele>813.60</ele>
        <time>2016-10-29T09:11:30Z</time>
      </trkpt>
      <trkpt lat="42.371960000" lon="-2.588945000">
        <ele>813.60</ele>
        <time>2016-10-29T09:11:31Z</time>
      </trkpt>
      <trkpt lat="42.371960000" lon="-2.588945000">
        <ele>813.60</ele>
        <time>2016-10-29T09:11:32Z</time>
      </trkpt>
      <trkpt lat="42.371959000" lon="-2.588946000">
        <ele>813.60</ele>
        <time>2016-10-29T09:11:33Z</time>
      </trkpt>
      <trkpt lat="42.371959000" lon="-2.588946000">
        <ele>813.70</ele>
        <time>2016-10-29T09:11:34Z</time>
      </trkpt>
      <trkpt lat="42.371959000" lon="-2.588946000">
        <ele>813.70</ele>
        <time>2016-10-29T09:11:35Z</time>
      </trkpt>
      <trkpt lat="42.371958000" lon="-2.588947000">
        <ele>813.80</ele>
        <time>2016-10-29T09:11:36Z</time>
      </trkpt>
      <trkpt lat="42.371959000" lon="-2.588948000">
        <ele>813.90</ele>
        <time>2016-10-29T09:11:37Z</time>
      </trkpt>
      <trkpt lat="42.371959000" lon="-2.588947000">
        <ele>814.00</ele>
        <time>2016-10-29T09:11:38Z</time>
      </trkpt>
      <trkpt lat="42.371960000" lon="-2.588947000">
        <ele>814.00</ele>
        <time>2016-10-29T09:11:39Z</time>
      </trkpt>
      <trkpt lat="42.371961000" lon="-2.588946000">
        <ele>813.80</ele>
        <time>2016-10-29T09:11:40Z</time>
      </trkpt>
      <trkpt lat="42.371963000" lon="-2.588946000">
        <ele>813.70</ele>
        <time>2016-10-29T09:11:41Z</time>
      </trkpt>
      <trkpt lat="42.371964000" lon="-2.588945000">
        <ele>813.60</ele>
        <time>2016-10-29T09:11:42Z</time>
      </trkpt>
      <trkpt lat="42.371965000" lon="-2.588945000">
        <ele>813.50</ele>
        <time>2016-10-29T09:11:43Z</time>
      </trkpt>
      <trkpt lat="42.371966000" lon="-2.588944000">
        <ele>813.50</ele>
        <time>2016-10-29T09:11:44Z</time>
      </trkpt>
      <trkpt lat="42.371967000" lon="-2.588944000">
        <ele>813.50</ele>
        <time>2016-10-29T09:11:45Z</time>
      </trkpt>
      <trkpt lat="42.371968000" lon="-2.588943000">
        <ele>813.70</ele>
        <time>2016-10-29T09:11:46Z</time>
      </trkpt>
      <trkpt lat="42.371969000" lon="-2.588943000">
        <ele>813.80</ele>
        <time>2016-10-29T09:11:47Z</time>
      </trkpt>
      <trkpt lat="42.371970000" lon="-2.588943000">
        <ele>813.70</ele>
        <time>2016-10-29T09:11:48Z</time>
      </trkpt>
      <trkpt lat="42.371971000" lon="-2.588942000">
        <ele>813.70</ele>
        <time>2016-10-29T09:11:49Z</time>
      </trkpt>
      <trkpt lat="42.371972000" lon="-2.588941000">
        <ele>813.60</ele>
        <time>2016-10-29T09:11:51Z</time>
      </trkpt>
      <trkpt lat="42.371973000" lon="-2.588939000">
        <ele>813.50</ele>
        <time>2016-10-29T09:11:52Z</time>
      </trkpt>
      <trkpt lat="42.371974000" lon="-2.588939000">
        <ele>813.50</ele>
        <time>2016-10-29T09:11:53Z</time>
      </trkpt>
      <trkpt lat="42.371974000" lon="-2.588939000">
        <ele>813.60</ele>
        <time>2016-10-29T09:11:54Z</time>
      </trkpt>
      <trkpt lat="42.371975000" lon="-2.588938000">
        <ele>813.70</ele>
        <time>2016-10-29T09:11:55Z</time>
      </trkpt>
      <trkpt lat="42.371977000" lon="-2.588938000">
        <ele>813.70</ele>
        <time>2016-10-29T09:11:56Z</time>
      </trkpt>
      <trkpt lat="42.371979000" lon="-2.588938000">
        <ele>813.80</ele>
        <time>2016-10-29T09:11:57Z</time>
      </trkpt>
      <trkpt lat="42.371982000" lon="-2.588937000">
        <ele>813.70</ele>
        <time>2016-10-29T09:11:58Z</time>
      </trkpt>
      <trkpt lat="42.371985000" lon="-2.588937000">
        <ele>813.70</ele>
        <time>2016-10-29T09:11:59Z</time>
      </trkpt>
      <trkpt lat="42.371987000" lon="-2.588938000">
        <ele>813.70</ele>
        <time>2016-10-29T09:12:00Z</time>
      </trkpt>
      <trkpt lat="42.371990000" lon="-2.588938000">
        <ele>813.60</ele>
        <time>2016-10-29T09:12:01Z</time>
      </trkpt>
      <trkpt lat="42.371993000" lon="-2.588938000">
        <ele>813.60</ele>
        <time>2016-10-29T09:12:02Z</time>
      </trkpt>
      <trkpt lat="42.371995000" lon="-2.588938000">
        <ele>813.60</ele>
        <time>2016-10-29T09:12:03Z</time>
      </trkpt>
      <trkpt lat="42.371998000" lon="-2.588938000">
        <ele>813.50</ele>
        <time>2016-10-29T09:12:04Z</time>
      </trkpt>
      <trkpt lat="42.372000000" lon="-2.588938000">
        <ele>813.40</ele>
        <time>2016-10-29T09:12:05Z</time>
      </trkpt>
      <trkpt lat="42.372002000" lon="-2.588937000">
        <ele>813.40</ele>
        <time>2016-10-29T09:12:06Z</time>
      </trkpt>
      <trkpt lat="42.372004000" lon="-2.588936000">
        <ele>813.40</ele>
        <time>2016-10-29T09:12:07Z</time>
      </trkpt>
      <trkpt lat="42.372005000" lon="-2.588935000">
        <ele>813.30</ele>
        <time>2016-10-29T09:12:08Z</time>
      </trkpt>
      <trkpt lat="42.372005000" lon="-2.588934000">
        <ele>813.20</ele>
        <time>2016-10-29T09:12:09Z</time>
      </trkpt>
      <trkpt lat="42.372006000" lon="-2.588932000">
        <ele>813.10</ele>
        <time>2016-10-29T09:12:10Z</time>
      </trkpt>
      <trkpt lat="42.372005000" lon="-2.588930000">
        <ele>813.00</ele>
        <time>2016-10-29T09:12:11Z</time>
      </trkpt>
      <trkpt lat="42.372005000" lon="-2.588927000">
        <ele>812.90</ele>
        <time>2016-10-29T09:12:12Z</time>
      </trkpt>
      <trkpt lat="42.372004000" lon="-2.588925000">
        <ele>812.90</ele>
        <time>2016-10-29T09:12:13Z</time>
      </trkpt>
      <trkpt lat="42.372004000" lon="-2.588923000">
        <ele>813.00</ele>
        <time>2016-10-29T09:12:14Z</time>
      </trkpt>
      <trkpt lat="42.372003000" lon="-2.588922000">
        <ele>813.00</ele>
        <time>2016-10-29T09:12:15Z</time>
      </trkpt>
      <trkpt lat="42.372002000" lon="-2.588921000">
        <ele>813.10</ele>
        <time>2016-10-29T09:12:16Z</time>
      </trkpt>
      <trkpt lat="42.372001000" lon="-2.588920000">
        <ele>813.10</ele>
        <time>2016-10-29T09:12:17Z</time>
      </trkpt>
      <trkpt lat="42.371998000" lon="-2.588920000">
        <ele>813.00</ele>
        <time>2016-10-29T09:12:18Z</time>
      </trkpt>
      <trkpt lat="42.371996000" lon="-2.588920000">
        <ele>813.00</ele>
        <time>2016-10-29T09:12:19Z</time>
      </trkpt>
      <trkpt lat="42.371993000" lon="-2.588920000">
        <ele>812.90</ele>
        <time>2016-10-29T09:12:20Z</time>
      </trkpt>
      <trkpt lat="42.371991000" lon="-2.588920000">
        <ele>812.80</ele>
        <time>2016-10-29T09:12:21Z</time>
      </trkpt>
      <trkpt lat="42.371988000" lon="-2.588921000">
        <ele>812.80</ele>
        <time>2016-10-29T09:12:22Z</time>
      </trkpt>
      <trkpt lat="42.371985000" lon="-2.588922000">
        <ele>812.70</ele>
        <time>2016-10-29T09:12:23Z</time>
      </trkpt>
      <trkpt lat="42.371983000" lon="-2.588923000">
        <ele>812.70</ele>
        <time>2016-10-29T09:12:24Z</time>
      </trkpt>
      <trkpt lat="42.371983000" lon="-2.588925000">
        <ele>812.70</ele>
        <time>2016-10-29T09:12:25Z</time>
      </trkpt>
      <trkpt lat="42.371983000" lon="-2.588927000">
        <ele>812.90</ele>
        <time>2016-10-29T09:12:26Z</time>
      </trkpt>
      <trkpt lat="42.371982000" lon="-2.588928000">
        <ele>813.00</ele>
        <time>2016-10-29T09:12:27Z</time>
      </trkpt>
      <trkpt lat="42.371982000" lon="-2.588929000">
        <ele>813.10</ele>
        <time>2016-10-29T09:12:28Z</time>
      </trkpt>
      <trkpt lat="42.371981000" lon="-2.588930000">
        <ele>813.10</ele>
        <time>2016-10-29T09:12:29Z</time>
      </trkpt>
      <trkpt lat="42.371980000" lon="-2.588931000">
        <ele>813.10</ele>
        <time>2016-10-29T09:12:30Z</time>
      </trkpt>
      <trkpt lat="42.371980000" lon="-2.588933000">
        <ele>813.10</ele>
        <time>2016-10-29T09:12:31Z</time>
      </trkpt>
      <trkpt lat="42.371980000" lon="-2.588934000">
        <ele>813.00</ele>
        <time>2016-10-29T09:12:32Z</time>
      </trkpt>
      <trkpt lat="42.371980000" lon="-2.588936000">
        <ele>813.00</ele>
        <time>2016-10-29T09:12:33Z</time>
      </trkpt>
      <trkpt lat="42.371981000" lon="-2.588938000">
        <ele>813.00</ele>
        <time>2016-10-29T09:12:34Z</time>
      </trkpt>
      <trkpt lat="42.371982000" lon="-2.588939000">
        <ele>813.00</ele>
        <time>2016-10-29T09:12:35Z</time>
      </trkpt>
      <trkpt lat="42.371983000" lon="-2.588940000">
        <ele>813.00</ele>
        <time>2016-10-29T09:12:36Z</time>
      </trkpt>
      <trkpt lat="42.371984000" lon="-2.588941000">
        <ele>812.90</ele>
        <time>2016-10-29T09:12:37Z</time>
      </trkpt>
      <trkpt lat="42.371984000" lon="-2.588943000">
        <ele>813.00</ele>
        <time>2016-10-29T09:12:38Z</time>
      </trkpt>
      <trkpt lat="42.371985000" lon="-2.588945000">
        <ele>813.00</ele>
        <time>2016-10-29T09:12:39Z</time>
      </trkpt>
      <trkpt lat="42.371985000" lon="-2.588944000">
        <ele>813.10</ele>
        <time>2016-10-29T09:12:40Z</time>
      </trkpt>
      <trkpt lat="42.371985000" lon="-2.588944000">
        <ele>813.10</ele>
        <time>2016-10-29T09:12:41Z</time>
      </trkpt>
      <trkpt lat="42.371984000" lon="-2.588945000">
        <ele>813.10</ele>
        <time>2016-10-29T09:12:42Z</time>
      </trkpt>
      <trkpt lat="42.371983000" lon="-2.588945000">
        <ele>813.10</ele>
        <time>2016-10-29T09:12:43Z</time>
      </trkpt>
      <trkpt lat="42.371983000" lon="-2.588944000">
        <ele>812.90</ele>
        <time>2016-10-29T09:12:44Z</time>
      </trkpt>
      <trkpt lat="42.371983000" lon="-2.588943000">
        <ele>812.80</ele>
        <time>2016-10-29T09:12:45Z</time>
      </trkpt>
      <trkpt lat="42.371983000" lon="-2.588942000">
        <ele>812.90</ele>
        <time>2016-10-29T09:12:46Z</time>
      </trkpt>
      <trkpt lat="42.371982000" lon="-2.588940000">
        <ele>812.90</ele>
        <time>2016-10-29T09:12:47Z</time>
      </trkpt>
      <trkpt lat="42.371982000" lon="-2.588939000">
        <ele>813.00</ele>
        <time>2016-10-29T09:12:48Z</time>
      </trkpt>
      <trkpt lat="42.371982000" lon="-2.588938000">
        <ele>813.00</ele>
        <time>2016-10-29T09:12:49Z</time>
      </trkpt>
      <trkpt lat="42.371982000" lon="-2.588937000">
        <ele>813.00</ele>
        <time>2016-10-29T09:12:50Z</time>
      </trkpt>
      <trkpt lat="42.371983000" lon="-2.588936000">
        <ele>812.90</ele>
        <time>2016-10-29T09:12:52Z</time>
      </trkpt>
      <trkpt lat="42.371982000" lon="-2.588937000">
        <ele>812.90</ele>
        <time>2016-10-29T09:12:53Z</time>
      </trkpt>
      <trkpt lat="42.371982000" lon="-2.588938000">
        <ele>812.80</ele>
        <time>2016-10-29T09:12:54Z</time>
      </trkpt>
      <trkpt lat="42.371982000" lon="-2.588938000">
        <ele>812.80</ele>
        <time>2016-10-29T09:12:55Z</time>
      </trkpt>
      <trkpt lat="42.371982000" lon="-2.588938000">
        <ele>812.70</ele>
        <time>2016-10-29T09:12:56Z</time>
      </trkpt>
      <trkpt lat="42.371982000" lon="-2.588938000">
        <ele>812.70</ele>
        <time>2016-10-29T09:12:57Z</time>
      </trkpt>
      <trkpt lat="42.371983000" lon="-2.588939000">
        <ele>812.70</ele>
        <time>2016-10-29T09:12:58Z</time>
      </trkpt>
      <trkpt lat="42.371983000" lon="-2.588940000">
        <ele>812.70</ele>
        <time>2016-10-29T09:12:59Z</time>
      </trkpt>
      <trkpt lat="42.371984000" lon="-2.588941000">
        <ele>812.70</ele>
        <time>2016-10-29T09:13:00Z</time>
      </trkpt>
      <trkpt lat="42.371985000" lon="-2.588942000">
        <ele>812.60</ele>
        <time>2016-10-29T09:13:01Z</time>
      </trkpt>
      <trkpt lat="42.371986000" lon="-2.588943000">
        <ele>812.60</ele>
        <time>2016-10-29T09:13:02Z</time>
      </trkpt>
      <trkpt lat="42.371987000" lon="-2.588944000">
        <ele>812.60</ele>
        <time>2016-10-29T09:13:03Z</time>
      </trkpt>
      <trkpt lat="42.371988000" lon="-2.588946000">
        <ele>812.70</ele>
        <time>2016-10-29T09:13:04Z</time>
      </trkpt>
      <trkpt lat="42.371990000" lon="-2.588947000">
        <ele>812.70</ele>
        <time>2016-10-29T09:13:05Z</time>
      </trkpt>
      <trkpt lat="42.371991000" lon="-2.588948000">
        <ele>812.70</ele>
        <time>2016-10-29T09:13:06Z</time>
      </trkpt>
      <trkpt lat="42.371993000" lon="-2.588949000">
        <ele>812.70</ele>
        <time>2016-10-29T09:13:07Z</time>
      </trkpt>
      <trkpt lat="42.371993000" lon="-2.588950000">
        <ele>812.50</ele>
        <time>2016-10-29T09:13:08Z</time>
      </trkpt>
      <trkpt lat="42.371993000" lon="-2.588951000">
        <ele>812.40</ele>
        <time>2016-10-29T09:13:09Z</time>
      </trkpt>
      <trkpt lat="42.371994000" lon="-2.588952000">
        <ele>812.30</ele>
        <time>2016-10-29T09:13:10Z</time>
      </trkpt>
      <trkpt lat="42.371994000" lon="-2.588952000">
        <ele>812.20</ele>
        <time>2016-10-29T09:13:11Z</time>
      </trkpt>
      <trkpt lat="42.371994000" lon="-2.588953000">
        <ele>812.20</ele>
        <time>2016-10-29T09:13:12Z</time>
      </trkpt>
      <trkpt lat="42.371995000" lon="-2.588953000">
        <ele>812.20</ele>
        <time>2016-10-29T09:13:13Z</time>
      </trkpt>
      <trkpt lat="42.371995000" lon="-2.588953000">
        <ele>812.30</ele>
        <time>2016-10-29T09:13:14Z</time>
      </trkpt>
      <trkpt lat="42.371996000" lon="-2.588953000">
        <ele>812.40</ele>
        <time>2016-10-29T09:13:15Z</time>
      </trkpt>
      <trkpt lat="42.371996000" lon="-2.588953000">
        <ele>812.40</ele>
        <time>2016-10-29T09:13:16Z</time>
      </trkpt>
      <trkpt lat="42.371996000" lon="-2.588953000">
        <ele>812.30</ele>
        <time>2016-10-29T09:13:17Z</time>
      </trkpt>
      <trkpt lat="42.371996000" lon="-2.588952000">
        <ele>812.40</ele>
        <time>2016-10-29T09:13:18Z</time>
      </trkpt>
      <trkpt lat="42.371996000" lon="-2.588951000">
        <ele>812.50</ele>
        <time>2016-10-29T09:13:19Z</time>
      </trkpt>
      <trkpt lat="42.371996000" lon="-2.588951000">
        <ele>812.60</ele>
        <time>2016-10-29T09:13:20Z</time>
      </trkpt>
      <trkpt lat="42.371996000" lon="-2.588950000">
        <ele>812.70</ele>
        <time>2016-10-29T09:13:21Z</time>
      </trkpt>
      <trkpt lat="42.371997000" lon="-2.588949000">
        <ele>812.80</ele>
        <time>2016-10-29T09:13:22Z</time>
      </trkpt>
      <trkpt lat="42.371997000" lon="-2.588949000">
        <ele>812.80</ele>
        <time>2016-10-29T09:13:23Z</time>
      </trkpt>
      <trkpt lat="42.371997000" lon="-2.588949000">
        <ele>812.80</ele>
        <time>2016-10-29T09:13:24Z</time>
      </trkpt>
      <trkpt lat="42.371996000" lon="-2.588950000">
        <ele>812.80</ele>
        <time>2016-10-29T09:13:25Z</time>
      </trkpt>
      <trkpt lat="42.371995000" lon="-2.588951000">
        <ele>812.80</ele>
        <time>2016-10-29T09:13:26Z</time>
      </trkpt>
      <trkpt lat="42.371994000" lon="-2.588952000">
        <ele>812.70</ele>
        <time>2016-10-29T09:13:27Z</time>
      </trkpt>
      <trkpt lat="42.371992000" lon="-2.588953000">
        <ele>812.60</ele>
        <time>2016-10-29T09:13:28Z</time>
      </trkpt>
      <trkpt lat="42.371990000" lon="-2.588954000">
        <ele>812.60</ele>
        <time>2016-10-29T09:13:29Z</time>
      </trkpt>
      <trkpt lat="42.371988000" lon="-2.588955000">
        <ele>812.60</ele>
        <time>2016-10-29T09:13:30Z</time>
      </trkpt>
      <trkpt lat="42.371986000" lon="-2.588955000">
        <ele>812.60</ele>
        <time>2016-10-29T09:13:31Z</time>
      </trkpt>
      <trkpt lat="42.371984000" lon="-2.588956000">
        <ele>812.40</ele>
        <time>2016-10-29T09:13:32Z</time>
      </trkpt>
      <trkpt lat="42.371982000" lon="-2.588957000">
        <ele>812.30</ele>
        <time>2016-10-29T09:13:33Z</time>
      </trkpt>
      <trkpt lat="42.371981000" lon="-2.588958000">
        <ele>812.20</ele>
        <time>2016-10-29T09:13:34Z</time>
      </trkpt>
      <trkpt lat="42.371980000" lon="-2.588958000">
        <ele>812.20</ele>
        <time>2016-10-29T09:13:35Z</time>
      </trkpt>
      <trkpt lat="42.371979000" lon="-2.588958000">
        <ele>812.10</ele>
        <time>2016-10-29T09:13:36Z</time>
      </trkpt>
      <trkpt lat="42.371977000" lon="-2.588959000">
        <ele>812.10</ele>
        <time>2016-10-29T09:13:37Z</time>
      </trkpt>
      <trkpt lat="42.371976000" lon="-2.588959000">
        <ele>812.10</ele>
        <time>2016-10-29T09:13:38Z</time>
      </trkpt>
      <trkpt lat="42.371975000" lon="-2.588960000">
        <ele>812.10</ele>
        <time>2016-10-29T09:13:39Z</time>
      </trkpt>
      <trkpt lat="42.371973000" lon="-2.588961000">
        <ele>812.20</ele>
        <time>2016-10-29T09:13:40Z</time>
      </trkpt>
      <trkpt lat="42.371972000" lon="-2.588963000">
        <ele>812.30</ele>
        <time>2016-10-29T09:13:41Z</time>
      </trkpt>
      <trkpt lat="42.371970000" lon="-2.588965000">
        <ele>812.30</ele>
        <time>2016-10-29T09:13:42Z</time>
      </trkpt>
      <trkpt lat="42.371970000" lon="-2.588966000">
        <ele>812.40</ele>
        <time>2016-10-29T09:13:43Z</time>
      </trkpt>
      <trkpt lat="42.371968000" lon="-2.588968000">
        <ele>812.50</ele>
        <time>2016-10-29T09:13:44Z</time>
      </trkpt>
      <trkpt lat="42.371967000" lon="-2.588971000">
        <ele>812.50</ele>
        <time>2016-10-29T09:13:45Z</time>
      </trkpt>
      <trkpt lat="42.371966000" lon="-2.588972000">
        <ele>812.50</ele>
        <time>2016-10-29T09:13:46Z</time>
      </trkpt>
      <trkpt lat="42.371966000" lon="-2.588973000">
        <ele>812.50</ele>
        <time>2016-10-29T09:13:47Z</time>
      </trkpt>
      <trkpt lat="42.371966000" lon="-2.588973000">
        <ele>812.50</ele>
        <time>2016-10-29T09:13:48Z</time>
      </trkpt>
      <trkpt lat="42.371964000" lon="-2.588974000">
        <ele>812.50</ele>
        <time>2016-10-29T09:13:49Z</time>
      </trkpt>
      <trkpt lat="42.371966000" lon="-2.588974000">
        <ele>812.40</ele>
        <time>2016-10-29T09:13:50Z</time>
      </trkpt>
      <trkpt lat="42.371966000" lon="-2.588974000">
        <ele>812.40</ele>
        <time>2016-10-29T09:13:51Z</time>
      </trkpt>
      <trkpt lat="42.371970000" lon="-2.588971000">
        <ele>812.40</ele>
        <time>2016-10-29T09:13:53Z</time>
      </trkpt>
      <trkpt lat="42.371971000" lon="-2.588971000">
        <ele>812.50</ele>
        <time>2016-10-29T09:13:54Z</time>
      </trkpt>
      <trkpt lat="42.371971000" lon="-2.588968000">
        <ele>812.60</ele>
        <time>2016-10-29T09:13:55Z</time>
      </trkpt>
      <trkpt lat="42.371971000" lon="-2.588969000">
        <ele>812.70</ele>
        <time>2016-10-29T09:13:56Z</time>
      </trkpt>
      <trkpt lat="42.371972000" lon="-2.588969000">
        <ele>812.70</ele>
        <time>2016-10-29T09:13:57Z</time>
      </trkpt>
      <trkpt lat="42.371973000" lon="-2.588968000">
        <ele>812.70</ele>
        <time>2016-10-29T09:13:58Z</time>
      </trkpt>
      <trkpt lat="42.371977000" lon="-2.588967000">
        <ele>812.80</ele>
        <time>2016-10-29T09:13:59Z</time>
      </trkpt>
      <trkpt lat="42.371980000" lon="-2.588965000">
        <ele>812.90</ele>
        <time>2016-10-29T09:14:00Z</time>
      </trkpt>
      <trkpt lat="42.371991000" lon="-2.588961000">
        <ele>813.00</ele>
        <time>2016-10-29T09:14:01Z</time>
      </trkpt>
      <trkpt lat="42.372007000" lon="-2.588945000">
        <ele>812.90</ele>
        <time>2016-10-29T09:14:02Z</time>
      </trkpt>
      <trkpt lat="42.372025000" lon="-2.588925000">
        <ele>812.90</ele>
        <time>2016-10-29T09:14:03Z</time>
      </trkpt>
      <trkpt lat="42.372049000" lon="-2.588902000">
        <ele>812.70</ele>
        <time>2016-10-29T09:14:04Z</time>
      </trkpt>
      <trkpt lat="42.372077000" lon="-2.588880000">
        <ele>812.50</ele>
        <time>2016-10-29T09:14:05Z</time>
      </trkpt>
      <trkpt lat="42.372110000" lon="-2.588854000">
        <ele>812.20</ele>
        <time>2016-10-29T09:14:06Z</time>
      </trkpt>
      <trkpt lat="42.372150000" lon="-2.588827000">
        <ele>812.00</ele>
        <time>2016-10-29T09:14:07Z</time>
      </trkpt>
      <trkpt lat="42.372188000" lon="-2.588788000">
        <ele>811.90</ele>
        <time>2016-10-29T09:14:08Z</time>
      </trkpt>
      <trkpt lat="42.372228000" lon="-2.588749000">
        <ele>811.80</ele>
        <time>2016-10-29T09:14:09Z</time>
      </trkpt>
      <trkpt lat="42.372270000" lon="-2.588711000">
        <ele>811.70</ele>
        <time>2016-10-29T09:14:10Z</time>
      </trkpt>
      <trkpt lat="42.372314000" lon="-2.588681000">
        <ele>811.60</ele>
        <time>2016-10-29T09:14:11Z</time>
      </trkpt>
      <trkpt lat="42.372367000" lon="-2.588651000">
        <ele>811.20</ele>
        <time>2016-10-29T09:14:12Z</time>
      </trkpt>
      <trkpt lat="42.372424000" lon="-2.588622000">
        <ele>810.90</ele>
        <time>2016-10-29T09:14:13Z</time>
      </trkpt>
      <trkpt lat="42.372476000" lon="-2.588584000">
        <ele>810.70</ele>
        <time>2016-10-29T09:14:14Z</time>
      </trkpt>
      <trkpt lat="42.372525000" lon="-2.588549000">
        <ele>810.40</ele>
        <time>2016-10-29T09:14:15Z</time>
      </trkpt>
      <trkpt lat="42.372576000" lon="-2.588512000">
        <ele>809.90</ele>
        <time>2016-10-29T09:14:16Z</time>
      </trkpt>
      <trkpt lat="42.372622000" lon="-2.588469000">
        <ele>809.40</ele>
        <time>2016-10-29T09:14:17Z</time>
      </trkpt>
      <trkpt lat="42.372658000" lon="-2.588419000">
        <ele>809.00</ele>
        <time>2016-10-29T09:14:18Z</time>
      </trkpt>
      <trkpt lat="42.372695000" lon="-2.588368000">
        <ele>808.60</ele>
        <time>2016-10-29T09:14:19Z</time>
      </trkpt>
      <trkpt lat="42.372735000" lon="-2.588323000">
        <ele>808.10</ele>
        <time>2016-10-29T09:14:20Z</time>
      </trkpt>
      <trkpt lat="42.372774000" lon="-2.588272000">
        <ele>807.70</ele>
        <time>2016-10-29T09:14:21Z</time>
      </trkpt>
      <trkpt lat="42.372809000" lon="-2.588218000">
        <ele>807.00</ele>
        <time>2016-10-29T09:14:22Z</time>
      </trkpt>
      <trkpt lat="42.372843000" lon="-2.588168000">
        <ele>806.40</ele>
        <time>2016-10-29T09:14:23Z</time>
      </trkpt>
      <trkpt lat="42.372876000" lon="-2.588124000">
        <ele>805.70</ele>
        <time>2016-10-29T09:14:24Z</time>
      </trkpt>
      <trkpt lat="42.372918000" lon="-2.588086000">
        <ele>805.20</ele>
        <time>2016-10-29T09:14:25Z</time>
      </trkpt>
      <trkpt lat="42.372965000" lon="-2.588055000">
        <ele>804.70</ele>
        <time>2016-10-29T09:14:26Z</time>
      </trkpt>
      <trkpt lat="42.373011000" lon="-2.588012000">
        <ele>804.10</ele>
        <time>2016-10-29T09:14:27Z</time>
      </trkpt>
      <trkpt lat="42.373058000" lon="-2.587962000">
        <ele>803.50</ele>
        <time>2016-10-29T09:14:28Z</time>
      </trkpt>
      <trkpt lat="42.373104000" lon="-2.587907000">
        <ele>803.00</ele>
        <time>2016-10-29T09:14:29Z</time>
      </trkpt>
      <trkpt lat="42.373149000" lon="-2.587849000">
        <ele>802.60</ele>
        <time>2016-10-29T09:14:30Z</time>
      </trkpt>
      <trkpt lat="42.373195000" lon="-2.587785000">
        <ele>802.20</ele>
        <time>2016-10-29T09:14:31Z</time>
      </trkpt>
      <trkpt lat="42.373240000" lon="-2.587720000">
        <ele>801.90</ele>
        <time>2016-10-29T09:14:32Z</time>
      </trkpt>
      <trkpt lat="42.373286000" lon="-2.587652000">
        <ele>801.60</ele>
        <time>2016-10-29T09:14:33Z</time>
      </trkpt>
      <trkpt lat="42.373336000" lon="-2.587584000">
        <ele>801.40</ele>
        <time>2016-10-29T09:14:34Z</time>
      </trkpt>
      <trkpt lat="42.373385000" lon="-2.587515000">
        <ele>800.90</ele>
        <time>2016-10-29T09:14:35Z</time>
      </trkpt>
      <trkpt lat="42.373438000" lon="-2.587440000">
        <ele>800.60</ele>
        <time>2016-10-29T09:14:36Z</time>
      </trkpt>
      <trkpt lat="42.373490000" lon="-2.587364000">
        <ele>799.90</ele>
        <time>2016-10-29T09:14:37Z</time>
      </trkpt>
      <trkpt lat="42.373543000" lon="-2.587282000">
        <ele>799.40</ele>
        <time>2016-10-29T09:14:38Z</time>
      </trkpt>
      <trkpt lat="42.373600000" lon="-2.587209000">
        <ele>798.90</ele>
        <time>2016-10-29T09:14:39Z</time>
      </trkpt>
      <trkpt lat="42.373658000" lon="-2.587134000">
        <ele>798.60</ele>
        <time>2016-10-29T09:14:40Z</time>
      </trkpt>
      <trkpt lat="42.373721000" lon="-2.587060000">
        <ele>798.20</ele>
        <time>2016-10-29T09:14:41Z</time>
      </trkpt>
      <trkpt lat="42.373782000" lon="-2.586981000">
        <ele>797.90</ele>
        <time>2016-10-29T09:14:42Z</time>
      </trkpt>
      <trkpt lat="42.373837000" lon="-2.586893000">
        <ele>797.50</ele>
        <time>2016-10-29T09:14:43Z</time>
      </trkpt>
      <trkpt lat="42.373894000" lon="-2.586805000">
        <ele>797.20</ele>
        <time>2016-10-29T09:14:44Z</time>
      </trkpt>
      <trkpt lat="42.373955000" lon="-2.586721000">
        <ele>796.60</ele>
        <time>2016-10-29T09:14:45Z</time>
      </trkpt>
      <trkpt lat="42.374018000" lon="-2.586639000">
        <ele>796.10</ele>
        <time>2016-10-29T09:14:46Z</time>
      </trkpt>
      <trkpt lat="42.374080000" lon="-2.586555000">
        <ele>795.60</ele>
        <time>2016-10-29T09:14:47Z</time>
      </trkpt>
      <trkpt lat="42.374136000" lon="-2.586475000">
        <ele>795.30</ele>
        <time>2016-10-29T09:14:48Z</time>
      </trkpt>
      <trkpt lat="42.374187000" lon="-2.586414000">
        <ele>794.30</ele>
        <time>2016-10-29T09:14:49Z</time>
      </trkpt>
      <trkpt lat="42.374236000" lon="-2.586357000">
        <ele>793.60</ele>
        <time>2016-10-29T09:14:50Z</time>
      </trkpt>
      <trkpt lat="42.374287000" lon="-2.586299000">
        <ele>792.90</ele>
        <time>2016-10-29T09:14:51Z</time>
      </trkpt>
      <trkpt lat="42.374343000" lon="-2.586252000">
        <ele>792.30</ele>
        <time>2016-10-29T09:14:52Z</time>
      </trkpt>
      <trkpt lat="42.374467000" lon="-2.586188000">
        <ele>790.90</ele>
        <time>2016-10-29T09:14:54Z</time>
      </trkpt>
      <trkpt lat="42.374536000" lon="-2.586173000">
        <ele>790.50</ele>
        <time>2016-10-29T09:14:55Z</time>
      </trkpt>
      <trkpt lat="42.374603000" lon="-2.586172000">
        <ele>790.10</ele>
        <time>2016-10-29T09:14:56Z</time>
      </trkpt>
      <trkpt lat="42.374673000" lon="-2.586179000">
        <ele>789.50</ele>
        <time>2016-10-29T09:14:57Z</time>
      </trkpt>
      <trkpt lat="42.374744000" lon="-2.586183000">
        <ele>789.00</ele>
        <time>2016-10-29T09:14:58Z</time>
      </trkpt>
      <trkpt lat="42.374814000" lon="-2.586171000">
        <ele>788.40</ele>
        <time>2016-10-29T09:14:59Z</time>
      </trkpt>
      <trkpt lat="42.374886000" lon="-2.586158000">
        <ele>788.10</ele>
        <time>2016-10-29T09:15:00Z</time>
      </trkpt>
      <trkpt lat="42.374959000" lon="-2.586136000">
        <ele>787.60</ele>
        <time>2016-10-29T09:15:01Z</time>
      </trkpt>
      <trkpt lat="42.375031000" lon="-2.586106000">
        <ele>787.30</ele>
        <time>2016-10-29T09:15:02Z</time>
      </trkpt>
      <trkpt lat="42.375092000" lon="-2.586066000">
        <ele>786.90</ele>
        <time>2016-10-29T09:15:03Z</time>
      </trkpt>
      <trkpt lat="42.375141000" lon="-2.586021000">
        <ele>786.60</ele>
        <time>2016-10-29T09:15:04Z</time>
      </trkpt>
      <trkpt lat="42.375172000" lon="-2.585955000">
        <ele>786.30</ele>
        <time>2016-10-29T09:15:05Z</time>
      </trkpt>
      <trkpt lat="42.375182000" lon="-2.585877000">
        <ele>786.20</ele>
        <time>2016-10-29T09:15:06Z</time>
      </trkpt>
      <trkpt lat="42.375187000" lon="-2.585802000">
        <ele>785.60</ele>
        <time>2016-10-29T09:15:07Z</time>
      </trkpt>
      <trkpt lat="42.375190000" lon="-2.585718000">
        <ele>785.10</ele>
        <time>2016-10-29T09:15:08Z</time>
      </trkpt>
      <trkpt lat="42.375190000" lon="-2.585629000">
        <ele>784.70</ele>
        <time>2016-10-29T09:15:09Z</time>
      </trkpt>
      <trkpt lat="42.375189000" lon="-2.585537000">
        <ele>784.30</ele>
        <time>2016-10-29T09:15:10Z</time>
      </trkpt>
      <trkpt lat="42.375182000" lon="-2.585443000">
        <ele>784.00</ele>
        <time>2016-10-29T09:15:11Z</time>
      </trkpt>
      <trkpt lat="42.375178000" lon="-2.585349000">
        <ele>783.80</ele>
        <time>2016-10-29T09:15:12Z</time>
      </trkpt>
      <trkpt lat="42.375174000" lon="-2.585256000">
        <ele>783.70</ele>
        <time>2016-10-29T09:15:13Z</time>
      </trkpt>
      <trkpt lat="42.375172000" lon="-2.585163000">
        <ele>783.60</ele>
        <time>2016-10-29T09:15:14Z</time>
      </trkpt>
      <trkpt lat="42.375168000" lon="-2.585064000">
        <ele>783.50</ele>
        <time>2016-10-29T09:15:15Z</time>
      </trkpt>
      <trkpt lat="42.375153000" lon="-2.584964000">
        <ele>783.40</ele>
        <time>2016-10-29T09:15:16Z</time>
      </trkpt>
      <trkpt lat="42.375127000" lon="-2.584868000">
        <ele>782.60</ele>
        <time>2016-10-29T09:15:17Z</time>
      </trkpt>
      <trkpt lat="42.375104000" lon="-2.584764000">
        <ele>782.00</ele>
        <time>2016-10-29T09:15:18Z</time>
      </trkpt>
      <trkpt lat="42.375095000" lon="-2.584653000">
        <ele>781.40</ele>
        <time>2016-10-29T09:15:19Z</time>
      </trkpt>
      <trkpt lat="42.375104000" lon="-2.584545000">
        <ele>781.00</ele>
        <time>2016-10-29T09:15:20Z</time>
      </trkpt>
      <trkpt lat="42.375120000" lon="-2.584435000">
        <ele>780.40</ele>
        <time>2016-10-29T09:15:21Z</time>
      </trkpt>
      <trkpt lat="42.375146000" lon="-2.584326000">
        <ele>779.90</ele>
        <time>2016-10-29T09:15:22Z</time>
      </trkpt>
      <trkpt lat="42.375181000" lon="-2.584223000">
        <ele>779.40</ele>
        <time>2016-10-29T09:15:23Z</time>
      </trkpt>
      <trkpt lat="42.375223000" lon="-2.584119000">
        <ele>779.00</ele>
        <time>2016-10-29T09:15:24Z</time>
      </trkpt>
      <trkpt lat="42.375262000" lon="-2.584011000">
        <ele>778.60</ele>
        <time>2016-10-29T09:15:25Z</time>
      </trkpt>
      <trkpt lat="42.375296000" lon="-2.583898000">
        <ele>778.20</ele>
        <time>2016-10-29T09:15:26Z</time>
      </trkpt>
      <trkpt lat="42.375332000" lon="-2.583787000">
        <ele>777.30</ele>
        <time>2016-10-29T09:15:27Z</time>
      </trkpt>
      <trkpt lat="42.375365000" lon="-2.583673000">
        <ele>776.60</ele>
        <time>2016-10-29T09:15:28Z</time>
      </trkpt>
      <trkpt lat="42.375401000" lon="-2.583561000">
        <ele>775.90</ele>
        <time>2016-10-29T09:15:29Z</time>
      </trkpt>
      <trkpt lat="42.375436000" lon="-2.583450000">
        <ele>775.30</ele>
        <time>2016-10-29T09:15:30Z</time>
      </trkpt>
      <trkpt lat="42.375466000" lon="-2.583342000">
        <ele>774.60</ele>
        <time>2016-10-29T09:15:31Z</time>
      </trkpt>
      <trkpt lat="42.375491000" lon="-2.583241000">
        <ele>774.00</ele>
        <time>2016-10-29T09:15:32Z</time>
      </trkpt>
      <trkpt lat="42.375512000" lon="-2.583141000">
        <ele>773.30</ele>
        <time>2016-10-29T09:15:33Z</time>
      </trkpt>
      <trkpt lat="42.375533000" lon="-2.583048000">
        <ele>772.70</ele>
        <time>2016-10-29T09:15:34Z</time>
      </trkpt>
      <trkpt lat="42.375560000" lon="-2.582952000">
        <ele>772.10</ele>
        <time>2016-10-29T09:15:35Z</time>
      </trkpt>
      <trkpt lat="42.375597000" lon="-2.582854000">
        <ele>771.70</ele>
        <time>2016-10-29T09:15:36Z</time>
      </trkpt>
      <trkpt lat="42.375638000" lon="-2.582757000">
        <ele>770.60</ele>
        <time>2016-10-29T09:15:37Z</time>
      </trkpt>
      <trkpt lat="42.375693000" lon="-2.582671000">
        <ele>769.80</ele>
        <time>2016-10-29T09:15:38Z</time>
      </trkpt>
      <trkpt lat="42.375756000" lon="-2.582595000">
        <ele>768.80</ele>
        <time>2016-10-29T09:15:39Z</time>
      </trkpt>
      <trkpt lat="42.375824000" lon="-2.582530000">
        <ele>768.00</ele>
        <time>2016-10-29T09:15:40Z</time>
      </trkpt>
      <trkpt lat="42.375897000" lon="-2.582468000">
        <ele>767.30</ele>
        <time>2016-10-29T09:15:41Z</time>
      </trkpt>
      <trkpt lat="42.375971000" lon="-2.582411000">
        <ele>766.70</ele>
        <time>2016-10-29T09:15:42Z</time>
      </trkpt>
      <trkpt lat="42.376048000" lon="-2.582356000">
        <ele>766.20</ele>
        <time>2016-10-29T09:15:43Z</time>
      </trkpt>
      <trkpt lat="42.376124000" lon="-2.582294000">
        <ele>765.80</ele>
        <time>2016-10-29T09:15:44Z</time>
      </trkpt>
      <trkpt lat="42.376203000" lon="-2.582228000">
        <ele>764.90</ele>
        <time>2016-10-29T09:15:45Z</time>
      </trkpt>
      <trkpt lat="42.376281000" lon="-2.582174000">
        <ele>764.20</ele>
        <time>2016-10-29T09:15:46Z</time>
      </trkpt>
      <trkpt lat="42.376349000" lon="-2.582122000">
        <ele>763.60</ele>
        <time>2016-10-29T09:15:47Z</time>
      </trkpt>
      <trkpt lat="42.376410000" lon="-2.582076000">
        <ele>763.20</ele>
        <time>2016-10-29T09:15:48Z</time>
      </trkpt>
      <trkpt lat="42.376459000" lon="-2.582032000">
        <ele>762.40</ele>
        <time>2016-10-29T09:15:49Z</time>
      </trkpt>
      <trkpt lat="42.376500000" lon="-2.581993000">
        <ele>761.80</ele>
        <time>2016-10-29T09:15:50Z</time>
      </trkpt>
      <trkpt lat="42.376527000" lon="-2.581960000">
        <ele>761.40</ele>
        <time>2016-10-29T09:15:51Z</time>
      </trkpt>
      <trkpt lat="42.376548000" lon="-2.581939000">
        <ele>761.00</ele>
        <time>2016-10-29T09:15:52Z</time>
      </trkpt>
      <trkpt lat="42.376565000" lon="-2.581928000">
        <ele>760.70</ele>
        <time>2016-10-29T09:15:53Z</time>
      </trkpt>
      <trkpt lat="42.376596000" lon="-2.581908000">
        <ele>760.40</ele>
        <time>2016-10-29T09:15:55Z</time>
      </trkpt>
      <trkpt lat="42.376607000" lon="-2.581895000">
        <ele>760.40</ele>
        <time>2016-10-29T09:15:56Z</time>
      </trkpt>
      <trkpt lat="42.376616000" lon="-2.581875000">
        <ele>760.30</ele>
        <time>2016-10-29T09:15:57Z</time>
      </trkpt>
      <trkpt lat="42.376610000" lon="-2.581846000">
        <ele>760.20</ele>
        <time>2016-10-29T09:15:58Z</time>
      </trkpt>
      <trkpt lat="42.376596000" lon="-2.581819000">
        <ele>760.20</ele>
        <time>2016-10-29T09:15:59Z</time>
      </trkpt>
      <trkpt lat="42.376584000" lon="-2.581801000">
        <ele>760.10</ele>
        <time>2016-10-29T09:16:00Z</time>
      </trkpt>
      <trkpt lat="42.376568000" lon="-2.581786000">
        <ele>760.10</ele>
        <time>2016-10-29T09:16:01Z</time>
      </trkpt>
      <trkpt lat="42.376549000" lon="-2.581770000">
        <ele>760.00</ele>
        <time>2016-10-29T09:16:02Z</time>
      </trkpt>
      <trkpt lat="42.376533000" lon="-2.581751000">
        <ele>760.00</ele>
        <time>2016-10-29T09:16:03Z</time>
      </trkpt>
      <trkpt lat="42.376517000" lon="-2.581734000">
        <ele>759.90</ele>
        <time>2016-10-29T09:16:04Z</time>
      </trkpt>
      <trkpt lat="42.376498000" lon="-2.581725000">
        <ele>759.90</ele>
        <time>2016-10-29T09:16:05Z</time>
      </trkpt>
      <trkpt lat="42.376475000" lon="-2.581708000">
        <ele>759.90</ele>
        <time>2016-10-29T09:16:06Z</time>
      </trkpt>
      <trkpt lat="42.376451000" lon="-2.581697000">
        <ele>759.90</ele>
        <time>2016-10-29T09:16:07Z</time>
      </trkpt>
      <trkpt lat="42.376428000" lon="-2.581690000">
        <ele>759.90</ele>
        <time>2016-10-29T09:16:08Z</time>
      </trkpt>
      <trkpt lat="42.376400000" lon="-2.581674000">
        <ele>760.00</ele>
        <time>2016-10-29T09:16:09Z</time>
      </trkpt>
      <trkpt lat="42.376370000" lon="-2.581660000">
        <ele>760.10</ele>
        <time>2016-10-29T09:16:10Z</time>
      </trkpt>
      <trkpt lat="42.376337000" lon="-2.581643000">
        <ele>760.00</ele>
        <time>2016-10-29T09:16:11Z</time>
      </trkpt>
      <trkpt lat="42.376300000" lon="-2.581624000">
        <ele>760.00</ele>
        <time>2016-10-29T09:16:12Z</time>
      </trkpt>
      <trkpt lat="42.376263000" lon="-2.581602000">
        <ele>760.00</ele>
        <time>2016-10-29T09:16:13Z</time>
      </trkpt>
      <trkpt lat="42.376225000" lon="-2.581590000">
        <ele>759.90</ele>
        <time>2016-10-29T09:16:14Z</time>
      </trkpt>
      <trkpt lat="42.376185000" lon="-2.581577000">
        <ele>759.90</ele>
        <time>2016-10-29T09:16:15Z</time>
      </trkpt>
      <trkpt lat="42.376148000" lon="-2.581571000">
        <ele>759.80</ele>
        <time>2016-10-29T09:16:16Z</time>
      </trkpt>
      <trkpt lat="42.376106000" lon="-2.581559000">
        <ele>759.70</ele>
        <time>2016-10-29T09:16:17Z</time>
      </trkpt>
      <trkpt lat="42.376067000" lon="-2.581554000">
        <ele>759.60</ele>
        <time>2016-10-29T09:16:18Z</time>
      </trkpt>
      <trkpt lat="42.376030000" lon="-2.581549000">
        <ele>759.60</ele>
        <time>2016-10-29T09:16:19Z</time>
      </trkpt>
      <trkpt lat="42.375993000" lon="-2.581543000">
        <ele>759.50</ele>
        <time>2016-10-29T09:16:20Z</time>
      </trkpt>
      <trkpt lat="42.375958000" lon="-2.581541000">
        <ele>759.40</ele>
        <time>2016-10-29T09:16:21Z</time>
      </trkpt>
      <trkpt lat="42.375915000" lon="-2.581537000">
        <ele>759.30</ele>
        <time>2016-10-29T09:16:22Z</time>
      </trkpt>
      <trkpt lat="42.375869000" lon="-2.581545000">
        <ele>759.00</ele>
        <time>2016-10-29T09:16:23Z</time>
      </trkpt>
      <trkpt lat="42.375819000" lon="-2.581557000">
        <ele>758.70</ele>
        <time>2016-10-29T09:16:24Z</time>
      </trkpt>
      <trkpt lat="42.375768000" lon="-2.581570000">
        <ele>758.50</ele>
        <time>2016-10-29T09:16:25Z</time>
      </trkpt>
      <trkpt lat="42.375714000" lon="-2.581594000">
        <ele>758.30</ele>
        <time>2016-10-29T09:16:26Z</time>
      </trkpt>
      <trkpt lat="42.375664000" lon="-2.581620000">
        <ele>758.00</ele>
        <time>2016-10-29T09:16:27Z</time>
      </trkpt>
      <trkpt lat="42.375610000" lon="-2.581646000">
        <ele>757.80</ele>
        <time>2016-10-29T09:16:28Z</time>
      </trkpt>
      <trkpt lat="42.375552000" lon="-2.581672000">
        <ele>757.50</ele>
        <time>2016-10-29T09:16:29Z</time>
      </trkpt>
      <trkpt lat="42.375493000" lon="-2.581702000">
        <ele>757.40</ele>
        <time>2016-10-29T09:16:30Z</time>
      </trkpt>
      <trkpt lat="42.375429000" lon="-2.581739000">
        <ele>757.00</ele>
        <time>2016-10-29T09:16:31Z</time>
      </trkpt>
      <trkpt lat="42.375360000" lon="-2.581778000">
        <ele>756.80</ele>
        <time>2016-10-29T09:16:32Z</time>
      </trkpt>
      <trkpt lat="42.375292000" lon="-2.581824000">
        <ele>756.20</ele>
        <time>2016-10-29T09:16:33Z</time>
      </trkpt>
      <trkpt lat="42.375220000" lon="-2.581869000">
        <ele>755.70</ele>
        <time>2016-10-29T09:16:34Z</time>
      </trkpt>
      <trkpt lat="42.375142000" lon="-2.581908000">
        <ele>754.70</ele>
        <time>2016-10-29T09:16:35Z</time>
      </trkpt>
      <trkpt lat="42.375057000" lon="-2.581937000">
        <ele>754.00</ele>
        <time>2016-10-29T09:16:36Z</time>
      </trkpt>
      <trkpt lat="42.374967000" lon="-2.581960000">
        <ele>753.00</ele>
        <time>2016-10-29T09:16:37Z</time>
      </trkpt>
      <trkpt lat="42.374873000" lon="-2.581978000">
        <ele>752.20</ele>
        <time>2016-10-29T09:16:38Z</time>
      </trkpt>
      <trkpt lat="42.374776000" lon="-2.581987000">
        <ele>751.60</ele>
        <time>2016-10-29T09:16:39Z</time>
      </trkpt>
      <trkpt lat="42.374676000" lon="-2.581999000">
        <ele>751.10</ele>
        <time>2016-10-29T09:16:40Z</time>
      </trkpt>
      <trkpt lat="42.374572000" lon="-2.582015000">
        <ele>750.50</ele>
        <time>2016-10-29T09:16:41Z</time>
      </trkpt>
      <trkpt lat="42.374467000" lon="-2.582027000">
        <ele>750.00</ele>
        <time>2016-10-29T09:16:42Z</time>
      </trkpt>
      <trkpt lat="42.374358000" lon="-2.582037000">
        <ele>749.50</ele>
        <time>2016-10-29T09:16:43Z</time>
      </trkpt>
      <trkpt lat="42.374247000" lon="-2.582048000">
        <ele>749.00</ele>
        <time>2016-10-29T09:16:44Z</time>
      </trkpt>
      <trkpt lat="42.374135000" lon="-2.582061000">
        <ele>748.00</ele>
        <time>2016-10-29T09:16:45Z</time>
      </trkpt>
      <trkpt lat="42.374023000" lon="-2.582072000">
        <ele>747.30</ele>
        <time>2016-10-29T09:16:46Z</time>
      </trkpt>
      <trkpt lat="42.373909000" lon="-2.582082000">
        <ele>746.30</ele>
        <time>2016-10-29T09:16:47Z</time>
      </trkpt>
      <trkpt lat="42.373794000" lon="-2.582095000">
        <ele>745.60</ele>
        <time>2016-10-29T09:16:48Z</time>
      </trkpt>
      <trkpt lat="42.373678000" lon="-2.582098000">
        <ele>744.70</ele>
        <time>2016-10-29T09:16:49Z</time>
      </trkpt>
      <trkpt lat="42.373563000" lon="-2.582110000">
        <ele>744.00</ele>
        <time>2016-10-29T09:16:50Z</time>
      </trkpt>
      <trkpt lat="42.373449000" lon="-2.582128000">
        <ele>743.40</ele>
        <time>2016-10-29T09:16:51Z</time>
      </trkpt>
      <trkpt lat="42.373336000" lon="-2.582139000">
        <ele>743.00</ele>
        <time>2016-10-29T09:16:52Z</time>
      </trkpt>
      <trkpt lat="42.373221000" lon="-2.582147000">
        <ele>742.00</ele>
        <time>2016-10-29T09:16:53Z</time>
      </trkpt>
      <trkpt lat="42.373117000" lon="-2.582159000">
        <ele>741.20</ele>
        <time>2016-10-29T09:16:54Z</time>
      </trkpt>
      <trkpt lat="42.372926000" lon="-2.582181000">
        <ele>740.10</ele>
        <time>2016-10-29T09:16:56Z</time>
      </trkpt>
      <trkpt lat="42.372833000" lon="-2.582188000">
        <ele>739.30</ele>
        <time>2016-10-29T09:16:57Z</time>
      </trkpt>
      <trkpt lat="42.372742000" lon="-2.582188000">
        <ele>738.60</ele>
        <time>2016-10-29T09:16:58Z</time>
      </trkpt>
      <trkpt lat="42.372657000" lon="-2.582180000">
        <ele>738.10</ele>
        <time>2016-10-29T09:16:59Z</time>
      </trkpt>
      <trkpt lat="42.372572000" lon="-2.582164000">
        <ele>737.60</ele>
        <time>2016-10-29T09:17:00Z</time>
      </trkpt>
      <trkpt lat="42.372492000" lon="-2.582136000">
        <ele>737.30</ele>
        <time>2016-10-29T09:17:01Z</time>
      </trkpt>
      <trkpt lat="42.372420000" lon="-2.582092000">
        <ele>737.10</ele>
        <time>2016-10-29T09:17:02Z</time>
      </trkpt>
      <trkpt lat="42.372350000" lon="-2.582042000">
        <ele>736.90</ele>
        <time>2016-10-29T09:17:03Z</time>
      </trkpt>
      <trkpt lat="42.372282000" lon="-2.581987000">
        <ele>736.80</ele>
        <time>2016-10-29T09:17:04Z</time>
      </trkpt>
      <trkpt lat="42.372220000" lon="-2.581923000">
        <ele>736.60</ele>
        <time>2016-10-29T09:17:05Z</time>
      </trkpt>
      <trkpt lat="42.372165000" lon="-2.581852000">
        <ele>736.50</ele>
        <time>2016-10-29T09:17:06Z</time>
      </trkpt>
      <trkpt lat="42.372116000" lon="-2.581776000">
        <ele>736.20</ele>
        <time>2016-10-29T09:17:07Z</time>
      </trkpt>
      <trkpt lat="42.372067000" lon="-2.581700000">
        <ele>736.00</ele>
        <time>2016-10-29T09:17:08Z</time>
      </trkpt>
      <trkpt lat="42.372020000" lon="-2.581624000">
        <ele>735.90</ele>
        <time>2016-10-29T09:17:09Z</time>
      </trkpt>
      <trkpt lat="42.371972000" lon="-2.581550000">
        <ele>735.80</ele>
        <time>2016-10-29T09:17:10Z</time>
      </trkpt>
      <trkpt lat="42.371926000" lon="-2.581479000">
        <ele>735.60</ele>
        <time>2016-10-29T09:17:11Z</time>
      </trkpt>
      <trkpt lat="42.371883000" lon="-2.581416000">
        <ele>735.40</ele>
        <time>2016-10-29T09:17:12Z</time>
      </trkpt>
      <trkpt lat="42.371847000" lon="-2.581354000">
        <ele>735.20</ele>
        <time>2016-10-29T09:17:13Z</time>
      </trkpt>
      <trkpt lat="42.371813000" lon="-2.581290000">
        <ele>735.10</ele>
        <time>2016-10-29T09:17:14Z</time>
      </trkpt>
      <trkpt lat="42.371775000" lon="-2.581220000">
        <ele>734.90</ele>
        <time>2016-10-29T09:17:15Z</time>
      </trkpt>
      <trkpt lat="42.371740000" lon="-2.581152000">
        <ele>734.70</ele>
        <time>2016-10-29T09:17:16Z</time>
      </trkpt>
      <trkpt lat="42.371709000" lon="-2.581088000">
        <ele>734.60</ele>
        <time>2016-10-29T09:17:17Z</time>
      </trkpt>
      <trkpt lat="42.371686000" lon="-2.581026000">
        <ele>734.40</ele>
        <time>2016-10-29T09:17:18Z</time>
      </trkpt>
      <trkpt lat="42.371671000" lon="-2.580972000">
        <ele>734.10</ele>
        <time>2016-10-29T09:17:19Z</time>
      </trkpt>
      <trkpt lat="42.371659000" lon="-2.580924000">
        <ele>733.90</ele>
        <time>2016-10-29T09:17:20Z</time>
      </trkpt>
      <trkpt lat="42.371645000" lon="-2.580880000">
        <ele>733.60</ele>
        <time>2016-10-29T09:17:21Z</time>
      </trkpt>
      <trkpt lat="42.371637000" lon="-2.580836000">
        <ele>733.40</ele>
        <time>2016-10-29T09:17:22Z</time>
      </trkpt>
      <trkpt lat="42.371640000" lon="-2.580792000">
        <ele>733.20</ele>
        <time>2016-10-29T09:17:23Z</time>
      </trkpt>
      <trkpt lat="42.371655000" lon="-2.580753000">
        <ele>733.10</ele>
        <time>2016-10-29T09:17:24Z</time>
      </trkpt>
      <trkpt lat="42.371680000" lon="-2.580729000">
        <ele>732.90</ele>
        <time>2016-10-29T09:17:25Z</time>
      </trkpt>
      <trkpt lat="42.371712000" lon="-2.580713000">
        <ele>732.90</ele>
        <time>2016-10-29T09:17:26Z</time>
      </trkpt>
      <trkpt lat="42.371756000" lon="-2.580698000">
        <ele>732.70</ele>
        <time>2016-10-29T09:17:27Z</time>
      </trkpt>
      <trkpt lat="42.371808000" lon="-2.580687000">
        <ele>732.60</ele>
        <time>2016-10-29T09:17:28Z</time>
      </trkpt>
      <trkpt lat="42.371865000" lon="-2.580670000">
        <ele>732.20</ele>
        <time>2016-10-29T09:17:29Z</time>
      </trkpt>
      <trkpt lat="42.371923000" lon="-2.580652000">
        <ele>731.80</ele>
        <time>2016-10-29T09:17:30Z</time>
      </trkpt>
      <trkpt lat="42.371984000" lon="-2.580635000">
        <ele>731.30</ele>
        <time>2016-10-29T09:17:31Z</time>
      </trkpt>
      <trkpt lat="42.372048000" lon="-2.580623000">
        <ele>730.90</ele>
        <time>2016-10-29T09:17:32Z</time>
      </trkpt>
      <trkpt lat="42.372117000" lon="-2.580613000">
        <ele>730.40</ele>
        <time>2016-10-29T09:17:33Z</time>
      </trkpt>
      <trkpt lat="42.372182000" lon="-2.580603000">
        <ele>730.10</ele>
        <time>2016-10-29T09:17:34Z</time>
      </trkpt>
      <trkpt lat="42.372247000" lon="-2.580587000">
        <ele>729.80</ele>
        <time>2016-10-29T09:17:35Z</time>
      </trkpt>
      <trkpt lat="42.372308000" lon="-2.580548000">
        <ele>729.60</ele>
        <time>2016-10-29T09:17:36Z</time>
      </trkpt>
      <trkpt lat="42.372350000" lon="-2.580483000">
        <ele>729.40</ele>
        <time>2016-10-29T09:17:37Z</time>
      </trkpt>
      <trkpt lat="42.372386000" lon="-2.580407000">
        <ele>729.30</ele>
        <time>2016-10-29T09:17:38Z</time>
      </trkpt>
      <trkpt lat="42.372420000" lon="-2.580327000">
        <ele>729.20</ele>
        <time>2016-10-29T09:17:39Z</time>
      </trkpt>
      <trkpt lat="42.372453000" lon="-2.580246000">
        <ele>729.10</ele>
        <time>2016-10-29T09:17:40Z</time>
      </trkpt>
      <trkpt lat="42.372485000" lon="-2.580172000">
        <ele>728.70</ele>
        <time>2016-10-29T09:17:41Z</time>
      </trkpt>
      <trkpt lat="42.372512000" lon="-2.580115000">
        <ele>728.50</ele>
        <time>2016-10-29T09:17:42Z</time>
      </trkpt>
      <trkpt lat="42.372544000" lon="-2.580076000">
        <ele>728.00</ele>
        <time>2016-10-29T09:17:43Z</time>
      </trkpt>
      <trkpt lat="42.372586000" lon="-2.580050000">
        <ele>727.60</ele>
        <time>2016-10-29T09:17:44Z</time>
      </trkpt>
      <trkpt lat="42.372634000" lon="-2.580033000">
        <ele>727.10</ele>
        <time>2016-10-29T09:17:45Z</time>
      </trkpt>
      <trkpt lat="42.372677000" lon="-2.580009000">
        <ele>726.70</ele>
        <time>2016-10-29T09:17:46Z</time>
      </trkpt>
      <trkpt lat="42.372713000" lon="-2.579974000">
        <ele>726.20</ele>
        <time>2016-10-29T09:17:47Z</time>
      </trkpt>
      <trkpt lat="42.372742000" lon="-2.579929000">
        <ele>725.80</ele>
        <time>2016-10-29T09:17:48Z</time>
      </trkpt>
      <trkpt lat="42.372771000" lon="-2.579877000">
        <ele>725.20</ele>
        <time>2016-10-29T09:17:49Z</time>
      </trkpt>
      <trkpt lat="42.372798000" lon="-2.579819000">
        <ele>724.70</ele>
        <time>2016-10-29T09:17:50Z</time>
      </trkpt>
      <trkpt lat="42.372829000" lon="-2.579758000">
        <ele>724.40</ele>
        <time>2016-10-29T09:17:51Z</time>
      </trkpt>
      <trkpt lat="42.372860000" lon="-2.579691000">
        <ele>724.10</ele>
        <time>2016-10-29T09:17:52Z</time>
      </trkpt>
      <trkpt lat="42.372894000" lon="-2.579620000">
        <ele>723.90</ele>
        <time>2016-10-29T09:17:53Z</time>
      </trkpt>
      <trkpt lat="42.372933000" lon="-2.579549000">
        <ele>723.60</ele>
        <time>2016-10-29T09:17:54Z</time>
      </trkpt>
      <trkpt lat="42.372972000" lon="-2.579472000">
        <ele>723.50</ele>
        <time>2016-10-29T09:17:55Z</time>
      </trkpt>
      <trkpt lat="42.373058000" lon="-2.579326000">
        <ele>722.90</ele>
        <time>2016-10-29T09:17:57Z</time>
      </trkpt>
      <trkpt lat="42.373104000" lon="-2.579248000">
        <ele>722.60</ele>
        <time>2016-10-29T09:17:58Z</time>
      </trkpt>
      <trkpt lat="42.373154000" lon="-2.579167000">
        <ele>722.20</ele>
        <time>2016-10-29T09:17:59Z</time>
      </trkpt>
      <trkpt lat="42.373203000" lon="-2.579082000">
        <ele>722.00</ele>
        <time>2016-10-29T09:18:00Z</time>
      </trkpt>
      <trkpt lat="42.373254000" lon="-2.578997000">
        <ele>721.30</ele>
        <time>2016-10-29T09:18:01Z</time>
      </trkpt>
      <trkpt lat="42.373307000" lon="-2.578906000">
        <ele>720.80</ele>
        <time>2016-10-29T09:18:02Z</time>
      </trkpt>
      <trkpt lat="42.373365000" lon="-2.578821000">
        <ele>719.90</ele>
        <time>2016-10-29T09:18:03Z</time>
      </trkpt>
      <trkpt lat="42.373424000" lon="-2.578735000">
        <ele>719.20</ele>
        <time>2016-10-29T09:18:04Z</time>
      </trkpt>
      <trkpt lat="42.373481000" lon="-2.578655000">
        <ele>718.70</ele>
        <time>2016-10-29T09:18:05Z</time>
      </trkpt>
      <trkpt lat="42.373540000" lon="-2.578581000">
        <ele>718.30</ele>
        <time>2016-10-29T09:18:06Z</time>
      </trkpt>
      <trkpt lat="42.373598000" lon="-2.578508000">
        <ele>717.50</ele>
        <time>2016-10-29T09:18:07Z</time>
      </trkpt>
      <trkpt lat="42.373656000" lon="-2.578428000">
        <ele>716.90</ele>
        <time>2016-10-29T09:18:08Z</time>
      </trkpt>
      <trkpt lat="42.373711000" lon="-2.578342000">
        <ele>716.40</ele>
        <time>2016-10-29T09:18:09Z</time>
      </trkpt>
      <trkpt lat="42.373766000" lon="-2.578256000">
        <ele>716.10</ele>
        <time>2016-10-29T09:18:10Z</time>
      </trkpt>
      <trkpt lat="42.373821000" lon="-2.578172000">
        <ele>715.70</ele>
        <time>2016-10-29T09:18:11Z</time>
      </trkpt>
      <trkpt lat="42.373871000" lon="-2.578081000">
        <ele>715.40</ele>
        <time>2016-10-29T09:18:12Z</time>
      </trkpt>
      <trkpt lat="42.373918000" lon="-2.577985000">
        <ele>715.10</ele>
        <time>2016-10-29T09:18:13Z</time>
      </trkpt>
      <trkpt lat="42.373966000" lon="-2.577888000">
        <ele>715.00</ele>
        <time>2016-10-29T09:18:14Z</time>
      </trkpt>
      <trkpt lat="42.374013000" lon="-2.577792000">
        <ele>714.20</ele>
        <time>2016-10-29T09:18:15Z</time>
      </trkpt>
      <trkpt lat="42.374059000" lon="-2.577694000">
        <ele>713.60</ele>
        <time>2016-10-29T09:18:16Z</time>
      </trkpt>
      <trkpt lat="42.374105000" lon="-2.577593000">
        <ele>712.90</ele>
        <time>2016-10-29T09:18:17Z</time>
      </trkpt>
      <trkpt lat="42.374150000" lon="-2.577498000">
        <ele>712.40</ele>
        <time>2016-10-29T09:18:18Z</time>
      </trkpt>
      <trkpt lat="42.374199000" lon="-2.577403000">
        <ele>711.60</ele>
        <time>2016-10-29T09:18:19Z</time>
      </trkpt>
      <trkpt lat="42.374245000" lon="-2.577322000">
        <ele>710.90</ele>
        <time>2016-10-29T09:18:20Z</time>
      </trkpt>
      <trkpt lat="42.374287000" lon="-2.577258000">
        <ele>710.20</ele>
        <time>2016-10-29T09:18:21Z</time>
      </trkpt>
      <trkpt lat="42.374325000" lon="-2.577208000">
        <ele>709.70</ele>
        <time>2016-10-29T09:18:22Z</time>
      </trkpt>
      <trkpt lat="42.374357000" lon="-2.577167000">
        <ele>709.20</ele>
        <time>2016-10-29T09:18:23Z</time>
      </trkpt>
      <trkpt lat="42.374387000" lon="-2.577138000">
        <ele>708.80</ele>
        <time>2016-10-29T09:18:24Z</time>
      </trkpt>
      <trkpt lat="42.374417000" lon="-2.577104000">
        <ele>708.30</ele>
        <time>2016-10-29T09:18:25Z</time>
      </trkpt>
      <trkpt lat="42.374449000" lon="-2.577065000">
        <ele>707.90</ele>
        <time>2016-10-29T09:18:26Z</time>
      </trkpt>
      <trkpt lat="42.374490000" lon="-2.577026000">
        <ele>707.60</ele>
        <time>2016-10-29T09:18:27Z</time>
      </trkpt>
      <trkpt lat="42.374537000" lon="-2.576991000">
        <ele>707.30</ele>
        <time>2016-10-29T09:18:28Z</time>
      </trkpt>
      <trkpt lat="42.374596000" lon="-2.576966000">
        <ele>707.00</ele>
        <time>2016-10-29T09:18:29Z</time>
      </trkpt>
      <trkpt lat="42.374660000" lon="-2.576944000">
        <ele>706.80</ele>
        <time>2016-10-29T09:18:30Z</time>
      </trkpt>
      <trkpt lat="42.374727000" lon="-2.576920000">
        <ele>706.60</ele>
        <time>2016-10-29T09:18:31Z</time>
      </trkpt>
      <trkpt lat="42.374798000" lon="-2.576893000">
        <ele>706.50</ele>
        <time>2016-10-29T09:18:32Z</time>
      </trkpt>
      <trkpt lat="42.374870000" lon="-2.576875000">
        <ele>706.00</ele>
        <time>2016-10-29T09:18:33Z</time>
      </trkpt>
      <trkpt lat="42.374946000" lon="-2.576860000">
        <ele>705.70</ele>
        <time>2016-10-29T09:18:34Z</time>
      </trkpt>
      <trkpt lat="42.375021000" lon="-2.576836000">
        <ele>705.30</ele>
        <time>2016-10-29T09:18:35Z</time>
      </trkpt>
      <trkpt lat="42.375093000" lon="-2.576808000">
        <ele>705.00</ele>
        <time>2016-10-29T09:18:36Z</time>
      </trkpt>
      <trkpt lat="42.375166000" lon="-2.576775000">
        <ele>704.70</ele>
        <time>2016-10-29T09:18:37Z</time>
      </trkpt>
      <trkpt lat="42.375237000" lon="-2.576737000">
        <ele>704.50</ele>
        <time>2016-10-29T09:18:38Z</time>
      </trkpt>
      <trkpt lat="42.375310000" lon="-2.576697000">
        <ele>704.00</ele>
        <time>2016-10-29T09:18:39Z</time>
      </trkpt>
      <trkpt lat="42.375380000" lon="-2.576654000">
        <ele>703.60</ele>
        <time>2016-10-29T09:18:40Z</time>
      </trkpt>
      <trkpt lat="42.375452000" lon="-2.576609000">
        <ele>703.20</ele>
        <time>2016-10-29T09:18:41Z</time>
      </trkpt>
      <trkpt lat="42.375521000" lon="-2.576562000">
        <ele>702.80</ele>
        <time>2016-10-29T09:18:42Z</time>
      </trkpt>
      <trkpt lat="42.375585000" lon="-2.576501000">
        <ele>702.70</ele>
        <time>2016-10-29T09:18:43Z</time>
      </trkpt>
      <trkpt lat="42.375643000" lon="-2.576424000">
        <ele>702.60</ele>
        <time>2016-10-29T09:18:44Z</time>
      </trkpt>
      <trkpt lat="42.375699000" lon="-2.576342000">
        <ele>702.50</ele>
        <time>2016-10-29T09:18:45Z</time>
      </trkpt>
      <trkpt lat="42.375754000" lon="-2.576260000">
        <ele>702.30</ele>
        <time>2016-10-29T09:18:46Z</time>
      </trkpt>
      <trkpt lat="42.375805000" lon="-2.576171000">
        <ele>701.90</ele>
        <time>2016-10-29T09:18:47Z</time>
      </trkpt>
      <trkpt lat="42.375859000" lon="-2.576085000">
        <ele>701.60</ele>
        <time>2016-10-29T09:18:48Z</time>
      </trkpt>
      <trkpt lat="42.375911000" lon="-2.576000000">
        <ele>701.20</ele>
        <time>2016-10-29T09:18:49Z</time>
      </trkpt>
      <trkpt lat="42.375966000" lon="-2.575915000">
        <ele>701.00</ele>
        <time>2016-10-29T09:18:50Z</time>
      </trkpt>
      <trkpt lat="42.376019000" lon="-2.575832000">
        <ele>700.30</ele>
        <time>2016-10-29T09:18:51Z</time>
      </trkpt>
      <trkpt lat="42.376065000" lon="-2.575742000">
        <ele>699.80</ele>
        <time>2016-10-29T09:18:52Z</time>
      </trkpt>
      <trkpt lat="42.376108000" lon="-2.575645000">
        <ele>699.50</ele>
        <time>2016-10-29T09:18:53Z</time>
      </trkpt>
      <trkpt lat="42.376149000" lon="-2.575542000">
        <ele>699.20</ele>
        <time>2016-10-29T09:18:54Z</time>
      </trkpt>
      <trkpt lat="42.376193000" lon="-2.575438000">
        <ele>698.90</ele>
        <time>2016-10-29T09:18:55Z</time>
      </trkpt>
      <trkpt lat="42.376241000" lon="-2.575339000">
        <ele>698.70</ele>
        <time>2016-10-29T09:18:56Z</time>
      </trkpt>
      <trkpt lat="42.376341000" lon="-2.575127000">
        <ele>697.20</ele>
        <time>2016-10-29T09:18:58Z</time>
      </trkpt>
      <trkpt lat="42.376388000" lon="-2.575027000">
        <ele>696.40</ele>
        <time>2016-10-29T09:18:59Z</time>
      </trkpt>
      <trkpt lat="42.376434000" lon="-2.574933000">
        <ele>695.70</ele>
        <time>2016-10-29T09:19:00Z</time>
      </trkpt>
      <trkpt lat="42.376478000" lon="-2.574836000">
        <ele>694.70</ele>
        <time>2016-10-29T09:19:01Z</time>
      </trkpt>
      <trkpt lat="42.376518000" lon="-2.574738000">
        <ele>693.90</ele>
        <time>2016-10-29T09:19:02Z</time>
      </trkpt>
      <trkpt lat="42.376560000" lon="-2.574635000">
        <ele>693.00</ele>
        <time>2016-10-29T09:19:03Z</time>
      </trkpt>
      <trkpt lat="42.376610000" lon="-2.574537000">
        <ele>692.20</ele>
        <time>2016-10-29T09:19:04Z</time>
      </trkpt>
      <trkpt lat="42.376664000" lon="-2.574442000">
        <ele>691.40</ele>
        <time>2016-10-29T09:19:05Z</time>
      </trkpt>
      <trkpt lat="42.376728000" lon="-2.574348000">
        <ele>690.80</ele>
        <time>2016-10-29T09:19:06Z</time>
      </trkpt>
      <trkpt lat="42.376796000" lon="-2.574259000">
        <ele>690.00</ele>
        <time>2016-10-29T09:19:07Z</time>
      </trkpt>
      <trkpt lat="42.376866000" lon="-2.574174000">
        <ele>689.30</ele>
        <time>2016-10-29T09:19:08Z</time>
      </trkpt>
      <trkpt lat="42.376933000" lon="-2.574084000">
        <ele>688.80</ele>
        <time>2016-10-29T09:19:09Z</time>
      </trkpt>
      <trkpt lat="42.376995000" lon="-2.573990000">
        <ele>688.30</ele>
        <time>2016-10-29T09:19:10Z</time>
      </trkpt>
      <trkpt lat="42.377052000" lon="-2.573892000">
        <ele>687.50</ele>
        <time>2016-10-29T09:19:11Z</time>
      </trkpt>
      <trkpt lat="42.377102000" lon="-2.573787000">
        <ele>686.90</ele>
        <time>2016-10-29T09:19:12Z</time>
      </trkpt>
      <trkpt lat="42.377151000" lon="-2.573678000">
        <ele>686.40</ele>
        <time>2016-10-29T09:19:13Z</time>
      </trkpt>
      <trkpt lat="42.377192000" lon="-2.573566000">
        <ele>686.10</ele>
        <time>2016-10-29T09:19:14Z</time>
      </trkpt>
      <trkpt lat="42.377225000" lon="-2.573457000">
        <ele>685.80</ele>
        <time>2016-10-29T09:19:15Z</time>
      </trkpt>
      <trkpt lat="42.377249000" lon="-2.573362000">
        <ele>685.60</ele>
        <time>2016-10-29T09:19:16Z</time>
      </trkpt>
      <trkpt lat="42.377273000" lon="-2.573273000">
        <ele>684.90</ele>
        <time>2016-10-29T09:19:17Z</time>
      </trkpt>
      <trkpt lat="42.377318000" lon="-2.573191000">
        <ele>684.40</ele>
        <time>2016-10-29T09:19:18Z</time>
      </trkpt>
      <trkpt lat="42.377379000" lon="-2.573133000">
        <ele>684.00</ele>
        <time>2016-10-29T09:19:19Z</time>
      </trkpt>
      <trkpt lat="42.377444000" lon="-2.573074000">
        <ele>683.70</ele>
        <time>2016-10-29T09:19:20Z</time>
      </trkpt>
      <trkpt lat="42.377512000" lon="-2.573020000">
        <ele>683.10</ele>
        <time>2016-10-29T09:19:21Z</time>
      </trkpt>
      <trkpt lat="42.377583000" lon="-2.572964000">
        <ele>682.60</ele>
        <time>2016-10-29T09:19:22Z</time>
      </trkpt>
      <trkpt lat="42.377650000" lon="-2.572899000">
        <ele>682.30</ele>
        <time>2016-10-29T09:19:23Z</time>
      </trkpt>
      <trkpt lat="42.377710000" lon="-2.572820000">
        <ele>682.00</ele>
        <time>2016-10-29T09:19:24Z</time>
      </trkpt>
      <trkpt lat="42.377769000" lon="-2.572731000">
        <ele>681.80</ele>
        <time>2016-10-29T09:19:25Z</time>
      </trkpt>
      <trkpt lat="42.377829000" lon="-2.572647000">
        <ele>681.70</ele>
        <time>2016-10-29T09:19:26Z</time>
      </trkpt>
      <trkpt lat="42.377896000" lon="-2.572566000">
        <ele>681.30</ele>
        <time>2016-10-29T09:19:27Z</time>
      </trkpt>
      <trkpt lat="42.377964000" lon="-2.572479000">
        <ele>681.00</ele>
        <time>2016-10-29T09:19:28Z</time>
      </trkpt>
      <trkpt lat="42.378027000" lon="-2.572393000">
        <ele>680.50</ele>
        <time>2016-10-29T09:19:29Z</time>
      </trkpt>
      <trkpt lat="42.378083000" lon="-2.572305000">
        <ele>680.10</ele>
        <time>2016-10-29T09:19:30Z</time>
      </trkpt>
      <trkpt lat="42.378134000" lon="-2.572212000">
        <ele>679.40</ele>
        <time>2016-10-29T09:19:31Z</time>
      </trkpt>
      <trkpt lat="42.378178000" lon="-2.572116000">
        <ele>678.90</ele>
        <time>2016-10-29T09:19:32Z</time>
      </trkpt>
      <trkpt lat="42.378213000" lon="-2.572023000">
        <ele>678.20</ele>
        <time>2016-10-29T09:19:33Z</time>
      </trkpt>
      <trkpt lat="42.378242000" lon="-2.571923000">
        <ele>677.80</ele>
        <time>2016-10-29T09:19:34Z</time>
      </trkpt>
      <trkpt lat="42.378272000" lon="-2.571830000">
        <ele>676.90</ele>
        <time>2016-10-29T09:19:35Z</time>
      </trkpt>
      <trkpt lat="42.378306000" lon="-2.571735000">
        <ele>676.30</ele>
        <time>2016-10-29T09:19:36Z</time>
      </trkpt>
      <trkpt lat="42.378337000" lon="-2.571634000">
        <ele>675.70</ele>
        <time>2016-10-29T09:19:37Z</time>
      </trkpt>
      <trkpt lat="42.378374000" lon="-2.571534000">
        <ele>675.20</ele>
        <time>2016-10-29T09:19:38Z</time>
      </trkpt>
      <trkpt lat="42.378415000" lon="-2.571431000">
        <ele>674.70</ele>
        <time>2016-10-29T09:19:39Z</time>
      </trkpt>
      <trkpt lat="42.378458000" lon="-2.571327000">
        <ele>674.40</ele>
        <time>2016-10-29T09:19:40Z</time>
      </trkpt>
      <trkpt lat="42.378501000" lon="-2.571219000">
        <ele>674.10</ele>
        <time>2016-10-29T09:19:41Z</time>
      </trkpt>
      <trkpt lat="42.378543000" lon="-2.571107000">
        <ele>673.80</ele>
        <time>2016-10-29T09:19:42Z</time>
      </trkpt>
      <trkpt lat="42.378583000" lon="-2.570998000">
        <ele>673.40</ele>
        <time>2016-10-29T09:19:43Z</time>
      </trkpt>
      <trkpt lat="42.378628000" lon="-2.570896000">
        <ele>673.10</ele>
        <time>2016-10-29T09:19:44Z</time>
      </trkpt>
      <trkpt lat="42.378682000" lon="-2.570806000">
        <ele>672.30</ele>
        <time>2016-10-29T09:19:45Z</time>
      </trkpt>
      <trkpt lat="42.378750000" lon="-2.570733000">
        <ele>671.80</ele>
        <time>2016-10-29T09:19:46Z</time>
      </trkpt>
      <trkpt lat="42.378819000" lon="-2.570664000">
        <ele>671.40</ele>
        <time>2016-10-29T09:19:47Z</time>
      </trkpt>
      <trkpt lat="42.378891000" lon="-2.570591000">
        <ele>671.10</ele>
        <time>2016-10-29T09:19:48Z</time>
      </trkpt>
      <trkpt lat="42.378960000" lon="-2.570510000">
        <ele>670.50</ele>
        <time>2016-10-29T09:19:49Z</time>
      </trkpt>
      <trkpt lat="42.379019000" lon="-2.570419000">
        <ele>670.20</ele>
        <time>2016-10-29T09:19:50Z</time>
      </trkpt>
      <trkpt lat="42.379074000" lon="-2.570320000">
        <ele>669.50</ele>
        <time>2016-10-29T09:19:51Z</time>
      </trkpt>
      <trkpt lat="42.379130000" lon="-2.570221000">
        <ele>669.00</ele>
        <time>2016-10-29T09:19:52Z</time>
      </trkpt>
      <trkpt lat="42.379189000" lon="-2.570124000">
        <ele>668.60</ele>
        <time>2016-10-29T09:19:53Z</time>
      </trkpt>
      <trkpt lat="42.379252000" lon="-2.570032000">
        <ele>668.20</ele>
        <time>2016-10-29T09:19:54Z</time>
      </trkpt>
      <trkpt lat="42.379312000" lon="-2.569934000">
        <ele>667.80</ele>
        <time>2016-10-29T09:19:55Z</time>
      </trkpt>
      <trkpt lat="42.379366000" lon="-2.569831000">
        <ele>667.50</ele>
        <time>2016-10-29T09:19:56Z</time>
      </trkpt>
      <trkpt lat="42.379413000" lon="-2.569723000">
        <ele>667.20</ele>
        <time>2016-10-29T09:19:57Z</time>
      </trkpt>
      <trkpt lat="42.379506000" lon="-2.569502000">
        <ele>666.50</ele>
        <time>2016-10-29T09:19:59Z</time>
      </trkpt>
      <trkpt lat="42.379554000" lon="-2.569397000">
        <ele>666.10</ele>
        <time>2016-10-29T09:20:00Z</time>
      </trkpt>
      <trkpt lat="42.379611000" lon="-2.569297000">
        <ele>665.50</ele>
        <time>2016-10-29T09:20:01Z</time>
      </trkpt>
      <trkpt lat="42.379670000" lon="-2.569199000">
        <ele>665.10</ele>
        <time>2016-10-29T09:20:02Z</time>
      </trkpt>
      <trkpt lat="42.379729000" lon="-2.569107000">
        <ele>664.10</ele>
        <time>2016-10-29T09:20:03Z</time>
      </trkpt>
      <trkpt lat="42.379773000" lon="-2.569026000">
        <ele>663.40</ele>
        <time>2016-10-29T09:20:04Z</time>
      </trkpt>
      <trkpt lat="42.379804000" lon="-2.568964000">
        <ele>662.80</ele>
        <time>2016-10-29T09:20:05Z</time>
      </trkpt>
      <trkpt lat="42.379829000" lon="-2.568912000">
        <ele>662.30</ele>
        <time>2016-10-29T09:20:06Z</time>
      </trkpt>
      <trkpt lat="42.379855000" lon="-2.568860000">
        <ele>661.90</ele>
        <time>2016-10-29T09:20:07Z</time>
      </trkpt>
      <trkpt lat="42.379879000" lon="-2.568805000">
        <ele>661.60</ele>
        <time>2016-10-29T09:20:08Z</time>
      </trkpt>
      <trkpt lat="42.379898000" lon="-2.568743000">
        <ele>661.10</ele>
        <time>2016-10-29T09:20:09Z</time>
      </trkpt>
      <trkpt lat="42.379921000" lon="-2.568672000">
        <ele>660.70</ele>
        <time>2016-10-29T09:20:10Z</time>
      </trkpt>
      <trkpt lat="42.379943000" lon="-2.568596000">
        <ele>660.40</ele>
        <time>2016-10-29T09:20:11Z</time>
      </trkpt>
      <trkpt lat="42.379969000" lon="-2.568515000">
        <ele>660.20</ele>
        <time>2016-10-29T09:20:12Z</time>
      </trkpt>
      <trkpt lat="42.379995000" lon="-2.568423000">
        <ele>660.00</ele>
        <time>2016-10-29T09:20:13Z</time>
      </trkpt>
      <trkpt lat="42.380020000" lon="-2.568328000">
        <ele>659.80</ele>
        <time>2016-10-29T09:20:14Z</time>
      </trkpt>
      <trkpt lat="42.380040000" lon="-2.568230000">
        <ele>659.70</ele>
        <time>2016-10-29T09:20:15Z</time>
      </trkpt>
      <trkpt lat="42.380049000" lon="-2.568127000">
        <ele>659.60</ele>
        <time>2016-10-29T09:20:16Z</time>
      </trkpt>
      <trkpt lat="42.380058000" lon="-2.568021000">
        <ele>659.20</ele>
        <time>2016-10-29T09:20:17Z</time>
      </trkpt>
      <trkpt lat="42.380083000" lon="-2.567919000">
        <ele>658.90</ele>
        <time>2016-10-29T09:20:18Z</time>
      </trkpt>
      <trkpt lat="42.380113000" lon="-2.567824000">
        <ele>658.40</ele>
        <time>2016-10-29T09:20:19Z</time>
      </trkpt>
      <trkpt lat="42.380148000" lon="-2.567731000">
        <ele>658.00</ele>
        <time>2016-10-29T09:20:20Z</time>
      </trkpt>
      <trkpt lat="42.380184000" lon="-2.567636000">
        <ele>657.70</ele>
        <time>2016-10-29T09:20:21Z</time>
      </trkpt>
      <trkpt lat="42.380216000" lon="-2.567543000">
        <ele>657.40</ele>
        <time>2016-10-29T09:20:22Z</time>
      </trkpt>
      <trkpt lat="42.380255000" lon="-2.567470000">
        <ele>656.80</ele>
        <time>2016-10-29T09:20:23Z</time>
      </trkpt>
      <trkpt lat="42.380301000" lon="-2.567428000">
        <ele>656.40</ele>
        <time>2016-10-29T09:20:24Z</time>
      </trkpt>
      <trkpt lat="42.380360000" lon="-2.567405000">
        <ele>656.00</ele>
        <time>2016-10-29T09:20:25Z</time>
      </trkpt>
      <trkpt lat="42.380421000" lon="-2.567382000">
        <ele>655.70</ele>
        <time>2016-10-29T09:20:26Z</time>
      </trkpt>
      <trkpt lat="42.380484000" lon="-2.567363000">
        <ele>655.20</ele>
        <time>2016-10-29T09:20:27Z</time>
      </trkpt>
      <trkpt lat="42.380547000" lon="-2.567341000">
        <ele>654.90</ele>
        <time>2016-10-29T09:20:28Z</time>
      </trkpt>
      <trkpt lat="42.380604000" lon="-2.567306000">
        <ele>654.60</ele>
        <time>2016-10-29T09:20:29Z</time>
      </trkpt>
      <trkpt lat="42.380635000" lon="-2.567248000">
        <ele>654.40</ele>
        <time>2016-10-29T09:20:30Z</time>
      </trkpt>
      <trkpt lat="42.380646000" lon="-2.567175000">
        <ele>654.20</ele>
        <time>2016-10-29T09:20:31Z</time>
      </trkpt>
      <trkpt lat="42.380645000" lon="-2.567089000">
        <ele>654.00</ele>
        <time>2016-10-29T09:20:32Z</time>
      </trkpt>
      <trkpt lat="42.380637000" lon="-2.567001000">
        <ele>653.80</ele>
        <time>2016-10-29T09:20:33Z</time>
      </trkpt>
      <trkpt lat="42.380628000" lon="-2.566910000">
        <ele>653.60</ele>
        <time>2016-10-29T09:20:34Z</time>
      </trkpt>
      <trkpt lat="42.380620000" lon="-2.566810000">
        <ele>653.40</ele>
        <time>2016-10-29T09:20:35Z</time>
      </trkpt>
      <trkpt lat="42.380608000" lon="-2.566708000">
        <ele>653.20</ele>
        <time>2016-10-29T09:20:36Z</time>
      </trkpt>
      <trkpt lat="42.380598000" lon="-2.566602000">
        <ele>652.70</ele>
        <time>2016-10-29T09:20:37Z</time>
      </trkpt>
      <trkpt lat="42.380589000" lon="-2.566495000">
        <ele>652.40</ele>
        <time>2016-10-29T09:20:38Z</time>
      </trkpt>
      <trkpt lat="42.380576000" lon="-2.566384000">
        <ele>652.00</ele>
        <time>2016-10-29T09:20:39Z</time>
      </trkpt>
      <trkpt lat="42.380572000" lon="-2.566271000">
        <ele>651.80</ele>
        <time>2016-10-29T09:20:40Z</time>
      </trkpt>
      <trkpt lat="42.380579000" lon="-2.566160000">
        <ele>651.00</ele>
        <time>2016-10-29T09:20:41Z</time>
      </trkpt>
      <trkpt lat="42.380591000" lon="-2.566059000">
        <ele>650.50</ele>
        <time>2016-10-29T09:20:42Z</time>
      </trkpt>
      <trkpt lat="42.380592000" lon="-2.565970000">
        <ele>649.80</ele>
        <time>2016-10-29T09:20:43Z</time>
      </trkpt>
      <trkpt lat="42.380604000" lon="-2.565868000">
        <ele>649.30</ele>
        <time>2016-10-29T09:20:44Z</time>
      </trkpt>
      <trkpt lat="42.380631000" lon="-2.565790000">
        <ele>648.90</ele>
        <time>2016-10-29T09:20:45Z</time>
      </trkpt>
      <trkpt lat="42.380664000" lon="-2.565711000">
        <ele>648.60</ele>
        <time>2016-10-29T09:20:46Z</time>
      </trkpt>
      <trkpt lat="42.380697000" lon="-2.565627000">
        <ele>648.20</ele>
        <time>2016-10-29T09:20:47Z</time>
      </trkpt>
      <trkpt lat="42.380723000" lon="-2.565548000">
        <ele>648.00</ele>
        <time>2016-10-29T09:20:48Z</time>
      </trkpt>
      <trkpt lat="42.380753000" lon="-2.565467000">
        <ele>647.70</ele>
        <time>2016-10-29T09:20:49Z</time>
      </trkpt>
      <trkpt lat="42.380788000" lon="-2.565376000">
        <ele>647.60</ele>
        <time>2016-10-29T09:20:50Z</time>
      </trkpt>
      <trkpt lat="42.380814000" lon="-2.565281000">
        <ele>647.30</ele>
        <time>2016-10-29T09:20:51Z</time>
      </trkpt>
      <trkpt lat="42.380833000" lon="-2.565182000">
        <ele>647.10</ele>
        <time>2016-10-29T09:20:52Z</time>
      </trkpt>
      <trkpt lat="42.380847000" lon="-2.565081000">
        <ele>646.80</ele>
        <time>2016-10-29T09:20:53Z</time>
      </trkpt>
      <trkpt lat="42.380862000" lon="-2.564979000">
        <ele>646.50</ele>
        <time>2016-10-29T09:20:54Z</time>
      </trkpt>
      <trkpt lat="42.380873000" lon="-2.564887000">
        <ele>646.30</ele>
        <time>2016-10-29T09:20:55Z</time>
      </trkpt>
      <trkpt lat="42.380892000" lon="-2.564803000">
        <ele>646.20</ele>
        <time>2016-10-29T09:20:56Z</time>
      </trkpt>
      <trkpt lat="42.380916000" lon="-2.564717000">
        <ele>646.40</ele>
        <time>2016-10-29T09:20:57Z</time>
      </trkpt>
      <trkpt lat="42.380946000" lon="-2.564634000">
        <ele>646.50</ele>
        <time>2016-10-29T09:20:58Z</time>
      </trkpt>
      <trkpt lat="42.381021000" lon="-2.564469000">
        <ele>646.70</ele>
        <time>2016-10-29T09:21:00Z</time>
      </trkpt>
      <trkpt lat="42.381058000" lon="-2.564384000">
        <ele>646.60</ele>
        <time>2016-10-29T09:21:01Z</time>
      </trkpt>
      <trkpt lat="42.381096000" lon="-2.564294000">
        <ele>646.60</ele>
        <time>2016-10-29T09:21:02Z</time>
      </trkpt>
      <trkpt lat="42.381129000" lon="-2.564203000">
        <ele>646.50</ele>
        <time>2016-10-29T09:21:03Z</time>
      </trkpt>
      <trkpt lat="42.381160000" lon="-2.564110000">
        <ele>646.40</ele>
        <time>2016-10-29T09:21:04Z</time>
      </trkpt>
      <trkpt lat="42.381186000" lon="-2.564016000">
        <ele>646.20</ele>
        <time>2016-10-29T09:21:05Z</time>
      </trkpt>
      <trkpt lat="42.381214000" lon="-2.563918000">
        <ele>646.10</ele>
        <time>2016-10-29T09:21:06Z</time>
      </trkpt>
      <trkpt lat="42.381247000" lon="-2.563817000">
        <ele>646.00</ele>
        <time>2016-10-29T09:21:07Z</time>
      </trkpt>
      <trkpt lat="42.381289000" lon="-2.563723000">
        <ele>645.80</ele>
        <time>2016-10-29T09:21:08Z</time>
      </trkpt>
      <trkpt lat="42.381335000" lon="-2.563629000">
        <ele>645.60</ele>
        <time>2016-10-29T09:21:09Z</time>
      </trkpt>
      <trkpt lat="42.381383000" lon="-2.563541000">
        <ele>645.30</ele>
        <time>2016-10-29T09:21:10Z</time>
      </trkpt>
      <trkpt lat="42.381436000" lon="-2.563461000">
        <ele>644.90</ele>
        <time>2016-10-29T09:21:11Z</time>
      </trkpt>
      <trkpt lat="42.381490000" lon="-2.563379000">
        <ele>644.50</ele>
        <time>2016-10-29T09:21:12Z</time>
      </trkpt>
      <trkpt lat="42.381546000" lon="-2.563297000">
        <ele>644.20</ele>
        <time>2016-10-29T09:21:13Z</time>
      </trkpt>
      <trkpt lat="42.381603000" lon="-2.563213000">
        <ele>644.00</ele>
        <time>2016-10-29T09:21:14Z</time>
      </trkpt>
      <trkpt lat="42.381663000" lon="-2.563126000">
        <ele>643.70</ele>
        <time>2016-10-29T09:21:15Z</time>
      </trkpt>
      <trkpt lat="42.381721000" lon="-2.563037000">
        <ele>643.50</ele>
        <time>2016-10-29T09:21:16Z</time>
      </trkpt>
      <trkpt lat="42.381786000" lon="-2.562949000">
        <ele>643.10</ele>
        <time>2016-10-29T09:21:17Z</time>
      </trkpt>
      <trkpt lat="42.381853000" lon="-2.562858000">
        <ele>642.80</ele>
        <time>2016-10-29T09:21:18Z</time>
      </trkpt>
      <trkpt lat="42.381915000" lon="-2.562760000">
        <ele>642.30</ele>
        <time>2016-10-29T09:21:19Z</time>
      </trkpt>
      <trkpt lat="42.381974000" lon="-2.562661000">
        <ele>641.90</ele>
        <time>2016-10-29T09:21:20Z</time>
      </trkpt>
      <trkpt lat="42.382029000" lon="-2.562553000">
        <ele>641.40</ele>
        <time>2016-10-29T09:21:21Z</time>
      </trkpt>
      <trkpt lat="42.382085000" lon="-2.562446000">
        <ele>641.10</ele>
        <time>2016-10-29T09:21:22Z</time>
      </trkpt>
      <trkpt lat="42.382137000" lon="-2.562334000">
        <ele>640.50</ele>
        <time>2016-10-29T09:21:23Z</time>
      </trkpt>
      <trkpt lat="42.382186000" lon="-2.562217000">
        <ele>640.10</ele>
        <time>2016-10-29T09:21:24Z</time>
      </trkpt>
      <trkpt lat="42.382233000" lon="-2.562095000">
        <ele>639.20</ele>
        <time>2016-10-29T09:21:25Z</time>
      </trkpt>
      <trkpt lat="42.382277000" lon="-2.561970000">
        <ele>638.60</ele>
        <time>2016-10-29T09:21:26Z</time>
      </trkpt>
      <trkpt lat="42.382322000" lon="-2.561845000">
        <ele>638.10</ele>
        <time>2016-10-29T09:21:27Z</time>
      </trkpt>
      <trkpt lat="42.382368000" lon="-2.561722000">
        <ele>637.70</ele>
        <time>2016-10-29T09:21:28Z</time>
      </trkpt>
      <trkpt lat="42.382414000" lon="-2.561596000">
        <ele>636.90</ele>
        <time>2016-10-29T09:21:29Z</time>
      </trkpt>
      <trkpt lat="42.382461000" lon="-2.561467000">
        <ele>636.40</ele>
        <time>2016-10-29T09:21:30Z</time>
      </trkpt>
      <trkpt lat="42.382507000" lon="-2.561336000">
        <ele>635.60</ele>
        <time>2016-10-29T09:21:31Z</time>
      </trkpt>
      <trkpt lat="42.382548000" lon="-2.561204000">
        <ele>634.90</ele>
        <time>2016-10-29T09:21:32Z</time>
      </trkpt>
      <trkpt lat="42.382585000" lon="-2.561068000">
        <ele>634.20</ele>
        <time>2016-10-29T09:21:33Z</time>
      </trkpt>
      <trkpt lat="42.382618000" lon="-2.560928000">
        <ele>633.60</ele>
        <time>2016-10-29T09:21:34Z</time>
      </trkpt>
      <trkpt lat="42.382644000" lon="-2.560786000">
        <ele>633.10</ele>
        <time>2016-10-29T09:21:35Z</time>
      </trkpt>
      <trkpt lat="42.382656000" lon="-2.560641000">
        <ele>632.70</ele>
        <time>2016-10-29T09:21:36Z</time>
      </trkpt>
      <trkpt lat="42.382659000" lon="-2.560498000">
        <ele>632.10</ele>
        <time>2016-10-29T09:21:37Z</time>
      </trkpt>
      <trkpt lat="42.382662000" lon="-2.560353000">
        <ele>631.60</ele>
        <time>2016-10-29T09:21:38Z</time>
      </trkpt>
      <trkpt lat="42.382662000" lon="-2.560209000">
        <ele>631.20</ele>
        <time>2016-10-29T09:21:39Z</time>
      </trkpt>
      <trkpt lat="42.382666000" lon="-2.560072000">
        <ele>630.90</ele>
        <time>2016-10-29T09:21:40Z</time>
      </trkpt>
      <trkpt lat="42.382669000" lon="-2.559941000">
        <ele>630.10</ele>
        <time>2016-10-29T09:21:41Z</time>
      </trkpt>
      <trkpt lat="42.382672000" lon="-2.559820000">
        <ele>629.50</ele>
        <time>2016-10-29T09:21:42Z</time>
      </trkpt>
      <trkpt lat="42.382665000" lon="-2.559705000">
        <ele>628.70</ele>
        <time>2016-10-29T09:21:43Z</time>
      </trkpt>
      <trkpt lat="42.382640000" lon="-2.559593000">
        <ele>628.10</ele>
        <time>2016-10-29T09:21:44Z</time>
      </trkpt>
      <trkpt lat="42.382599000" lon="-2.559487000">
        <ele>627.30</ele>
        <time>2016-10-29T09:21:45Z</time>
      </trkpt>
      <trkpt lat="42.382550000" lon="-2.559384000">
        <ele>626.60</ele>
        <time>2016-10-29T09:21:46Z</time>
      </trkpt>
      <trkpt lat="42.382498000" lon="-2.559279000">
        <ele>625.80</ele>
        <time>2016-10-29T09:21:47Z</time>
      </trkpt>
      <trkpt lat="42.382457000" lon="-2.559167000">
        <ele>625.20</ele>
        <time>2016-10-29T09:21:48Z</time>
      </trkpt>
      <trkpt lat="42.382432000" lon="-2.559047000">
        <ele>624.70</ele>
        <time>2016-10-29T09:21:49Z</time>
      </trkpt>
      <trkpt lat="42.382430000" lon="-2.558934000">
        <ele>624.40</ele>
        <time>2016-10-29T09:21:50Z</time>
      </trkpt>
      <trkpt lat="42.382448000" lon="-2.558824000">
        <ele>624.00</ele>
        <time>2016-10-29T09:21:51Z</time>
      </trkpt>
      <trkpt lat="42.382466000" lon="-2.558713000">
        <ele>623.70</ele>
        <time>2016-10-29T09:21:52Z</time>
      </trkpt>
      <trkpt lat="42.382477000" lon="-2.558600000">
        <ele>623.30</ele>
        <time>2016-10-29T09:21:53Z</time>
      </trkpt>
      <trkpt lat="42.382487000" lon="-2.558490000">
        <ele>623.00</ele>
        <time>2016-10-29T09:21:54Z</time>
      </trkpt>
      <trkpt lat="42.382495000" lon="-2.558382000">
        <ele>622.70</ele>
        <time>2016-10-29T09:21:55Z</time>
      </trkpt>
      <trkpt lat="42.382507000" lon="-2.558279000">
        <ele>622.40</ele>
        <time>2016-10-29T09:21:56Z</time>
      </trkpt>
      <trkpt lat="42.382518000" lon="-2.558178000">
        <ele>622.20</ele>
        <time>2016-10-29T09:21:57Z</time>
      </trkpt>
      <trkpt lat="42.382534000" lon="-2.558084000">
        <ele>622.10</ele>
        <time>2016-10-29T09:21:58Z</time>
      </trkpt>
      <trkpt lat="42.382546000" lon="-2.557994000">
        <ele>621.80</ele>
        <time>2016-10-29T09:21:59Z</time>
      </trkpt>
      <trkpt lat="42.382558000" lon="-2.557821000">
        <ele>621.30</ele>
        <time>2016-10-29T09:22:01Z</time>
      </trkpt>
      <trkpt lat="42.382560000" lon="-2.557739000">
        <ele>621.10</ele>
        <time>2016-10-29T09:22:02Z</time>
      </trkpt>
      <trkpt lat="42.382551000" lon="-2.557659000">
        <ele>621.10</ele>
        <time>2016-10-29T09:22:03Z</time>
      </trkpt>
      <trkpt lat="42.382524000" lon="-2.557587000">
        <ele>621.00</ele>
        <time>2016-10-29T09:22:04Z</time>
      </trkpt>
      <trkpt lat="42.382495000" lon="-2.557519000">
        <ele>621.20</ele>
        <time>2016-10-29T09:22:05Z</time>
      </trkpt>
      <trkpt lat="42.382462000" lon="-2.557460000">
        <ele>621.40</ele>
        <time>2016-10-29T09:22:06Z</time>
      </trkpt>
      <trkpt lat="42.382428000" lon="-2.557403000">
        <ele>621.60</ele>
        <time>2016-10-29T09:22:07Z</time>
      </trkpt>
      <trkpt lat="42.382393000" lon="-2.557349000">
        <ele>621.70</ele>
        <time>2016-10-29T09:22:08Z</time>
      </trkpt>
      <trkpt lat="42.382360000" lon="-2.557297000">
        <ele>621.90</ele>
        <time>2016-10-29T09:22:09Z</time>
      </trkpt>
      <trkpt lat="42.382325000" lon="-2.557244000">
        <ele>622.10</ele>
        <time>2016-10-29T09:22:10Z</time>
      </trkpt>
      <trkpt lat="42.382292000" lon="-2.557188000">
        <ele>622.40</ele>
        <time>2016-10-29T09:22:11Z</time>
      </trkpt>
      <trkpt lat="42.382261000" lon="-2.557134000">
        <ele>622.70</ele>
        <time>2016-10-29T09:22:12Z</time>
      </trkpt>
      <trkpt lat="42.382231000" lon="-2.557076000">
        <ele>622.90</ele>
        <time>2016-10-29T09:22:13Z</time>
      </trkpt>
      <trkpt lat="42.382197000" lon="-2.557019000">
        <ele>623.00</ele>
        <time>2016-10-29T09:22:14Z</time>
      </trkpt>
      <trkpt lat="42.382162000" lon="-2.556962000">
        <ele>623.10</ele>
        <time>2016-10-29T09:22:15Z</time>
      </trkpt>
      <trkpt lat="42.382129000" lon="-2.556904000">
        <ele>623.20</ele>
        <time>2016-10-29T09:22:16Z</time>
      </trkpt>
      <trkpt lat="42.382101000" lon="-2.556839000">
        <ele>623.40</ele>
        <time>2016-10-29T09:22:17Z</time>
      </trkpt>
      <trkpt lat="42.382072000" lon="-2.556774000">
        <ele>623.60</ele>
        <time>2016-10-29T09:22:18Z</time>
      </trkpt>
      <trkpt lat="42.382046000" lon="-2.556709000">
        <ele>623.80</ele>
        <time>2016-10-29T09:22:19Z</time>
      </trkpt>
      <trkpt lat="42.382026000" lon="-2.556643000">
        <ele>624.00</ele>
        <time>2016-10-29T09:22:20Z</time>
      </trkpt>
      <trkpt lat="42.382006000" lon="-2.556577000">
        <ele>624.20</ele>
        <time>2016-10-29T09:22:21Z</time>
      </trkpt>
      <trkpt lat="42.381988000" lon="-2.556507000">
        <ele>624.30</ele>
        <time>2016-10-29T09:22:22Z</time>
      </trkpt>
      <trkpt lat="42.381966000" lon="-2.556439000">
        <ele>624.20</ele>
        <time>2016-10-29T09:22:23Z</time>
      </trkpt>
      <trkpt lat="42.381945000" lon="-2.556369000">
        <ele>624.20</ele>
        <time>2016-10-29T09:22:24Z</time>
      </trkpt>
      <trkpt lat="42.381928000" lon="-2.556300000">
        <ele>624.10</ele>
        <time>2016-10-29T09:22:25Z</time>
      </trkpt>
      <trkpt lat="42.381909000" lon="-2.556226000">
        <ele>624.10</ele>
        <time>2016-10-29T09:22:26Z</time>
      </trkpt>
      <trkpt lat="42.381886000" lon="-2.556153000">
        <ele>624.20</ele>
        <time>2016-10-29T09:22:27Z</time>
      </trkpt>
      <trkpt lat="42.381864000" lon="-2.556083000">
        <ele>624.20</ele>
        <time>2016-10-29T09:22:28Z</time>
      </trkpt>
      <trkpt lat="42.381838000" lon="-2.556015000">
        <ele>624.30</ele>
        <time>2016-10-29T09:22:29Z</time>
      </trkpt>
      <trkpt lat="42.381809000" lon="-2.555948000">
        <ele>624.40</ele>
        <time>2016-10-29T09:22:30Z</time>
      </trkpt>
      <trkpt lat="42.381781000" lon="-2.555881000">
        <ele>624.60</ele>
        <time>2016-10-29T09:22:31Z</time>
      </trkpt>
      <trkpt lat="42.381753000" lon="-2.555815000">
        <ele>624.70</ele>
        <time>2016-10-29T09:22:32Z</time>
      </trkpt>
      <trkpt lat="42.381724000" lon="-2.555752000">
        <ele>624.70</ele>
        <time>2016-10-29T09:22:33Z</time>
      </trkpt>
      <trkpt lat="42.381694000" lon="-2.555694000">
        <ele>624.80</ele>
        <time>2016-10-29T09:22:34Z</time>
      </trkpt>
      <trkpt lat="42.381663000" lon="-2.555638000">
        <ele>624.90</ele>
        <time>2016-10-29T09:22:35Z</time>
      </trkpt>
      <trkpt lat="42.381639000" lon="-2.555586000">
        <ele>625.00</ele>
        <time>2016-10-29T09:22:36Z</time>
      </trkpt>
      <trkpt lat="42.381609000" lon="-2.555539000">
        <ele>625.20</ele>
        <time>2016-10-29T09:22:37Z</time>
      </trkpt>
      <trkpt lat="42.381582000" lon="-2.555501000">
        <ele>625.30</ele>
        <time>2016-10-29T09:22:38Z</time>
      </trkpt>
      <trkpt lat="42.381555000" lon="-2.555468000">
        <ele>625.40</ele>
        <time>2016-10-29T09:22:39Z</time>
      </trkpt>
      <trkpt lat="42.381534000" lon="-2.555435000">
        <ele>625.50</ele>
        <time>2016-10-29T09:22:40Z</time>
      </trkpt>
      <trkpt lat="42.381514000" lon="-2.555409000">
        <ele>625.30</ele>
        <time>2016-10-29T09:22:41Z</time>
      </trkpt>
      <trkpt lat="42.381503000" lon="-2.555389000">
        <ele>625.20</ele>
        <time>2016-10-29T09:22:42Z</time>
      </trkpt>
      <trkpt lat="42.381500000" lon="-2.555361000">
        <ele>625.10</ele>
        <time>2016-10-29T09:22:43Z</time>
      </trkpt>
      <trkpt lat="42.381503000" lon="-2.555327000">
        <ele>625.00</ele>
        <time>2016-10-29T09:22:44Z</time>
      </trkpt>
      <trkpt lat="42.381513000" lon="-2.555297000">
        <ele>625.00</ele>
        <time>2016-10-29T09:22:45Z</time>
      </trkpt>
      <trkpt lat="42.381530000" lon="-2.555262000">
        <ele>624.90</ele>
        <time>2016-10-29T09:22:46Z</time>
      </trkpt>
      <trkpt lat="42.381553000" lon="-2.555218000">
        <ele>624.80</ele>
        <time>2016-10-29T09:22:47Z</time>
      </trkpt>
      <trkpt lat="42.381578000" lon="-2.555179000">
        <ele>624.80</ele>
        <time>2016-10-29T09:22:48Z</time>
      </trkpt>
      <trkpt lat="42.381610000" lon="-2.555135000">
        <ele>624.60</ele>
        <time>2016-10-29T09:22:49Z</time>
      </trkpt>
      <trkpt lat="42.381643000" lon="-2.555094000">
        <ele>624.40</ele>
        <time>2016-10-29T09:22:50Z</time>
      </trkpt>
      <trkpt lat="42.381683000" lon="-2.555046000">
        <ele>624.30</ele>
        <time>2016-10-29T09:22:51Z</time>
      </trkpt>
      <trkpt lat="42.381718000" lon="-2.554995000">
        <ele>624.20</ele>
        <time>2016-10-29T09:22:52Z</time>
      </trkpt>
      <trkpt lat="42.381756000" lon="-2.554941000">
        <ele>623.90</ele>
        <time>2016-10-29T09:22:53Z</time>
      </trkpt>
      <trkpt lat="42.381793000" lon="-2.554882000">
        <ele>623.70</ele>
        <time>2016-10-29T09:22:54Z</time>
      </trkpt>
      <trkpt lat="42.381836000" lon="-2.554823000">
        <ele>623.50</ele>
        <time>2016-10-29T09:22:55Z</time>
      </trkpt>
      <trkpt lat="42.381882000" lon="-2.554761000">
        <ele>623.40</ele>
        <time>2016-10-29T09:22:56Z</time>
      </trkpt>
      <trkpt lat="42.381927000" lon="-2.554691000">
        <ele>623.10</ele>
        <time>2016-10-29T09:22:57Z</time>
      </trkpt>
      <trkpt lat="42.381974000" lon="-2.554624000">
        <ele>622.80</ele>
        <time>2016-10-29T09:22:58Z</time>
      </trkpt>
      <trkpt lat="42.382025000" lon="-2.554553000">
        <ele>622.50</ele>
        <time>2016-10-29T09:22:59Z</time>
      </trkpt>
      <trkpt lat="42.382073000" lon="-2.554482000">
        <ele>622.20</ele>
        <time>2016-10-29T09:23:00Z</time>
      </trkpt>
      <trkpt lat="42.382169000" lon="-2.554344000">
        <ele>621.00</ele>
        <time>2016-10-29T09:23:02Z</time>
      </trkpt>
      <trkpt lat="42.382213000" lon="-2.554282000">
        <ele>620.50</ele>
        <time>2016-10-29T09:23:03Z</time>
      </trkpt>
      <trkpt lat="42.382252000" lon="-2.554222000">
        <ele>620.10</ele>
        <time>2016-10-29T09:23:04Z</time>
      </trkpt>
      <trkpt lat="42.382286000" lon="-2.554166000">
        <ele>619.50</ele>
        <time>2016-10-29T09:23:05Z</time>
      </trkpt>
      <trkpt lat="42.382313000" lon="-2.554118000">
        <ele>619.00</ele>
        <time>2016-10-29T09:23:06Z</time>
      </trkpt>
      <trkpt lat="42.382330000" lon="-2.554077000">
        <ele>618.20</ele>
        <time>2016-10-29T09:23:07Z</time>
      </trkpt>
      <trkpt lat="42.382334000" lon="-2.554037000">
        <ele>617.60</ele>
        <time>2016-10-29T09:23:08Z</time>
      </trkpt>
      <trkpt lat="42.382330000" lon="-2.554003000">
        <ele>617.10</ele>
        <time>2016-10-29T09:23:09Z</time>
      </trkpt>
      <trkpt lat="42.382314000" lon="-2.553976000">
        <ele>616.60</ele>
        <time>2016-10-29T09:23:10Z</time>
      </trkpt>
      <trkpt lat="42.382298000" lon="-2.553957000">
        <ele>616.30</ele>
        <time>2016-10-29T09:23:11Z</time>
      </trkpt>
      <trkpt lat="42.382278000" lon="-2.553945000">
        <ele>616.10</ele>
        <time>2016-10-29T09:23:12Z</time>
      </trkpt>
      <trkpt lat="42.382262000" lon="-2.553929000">
        <ele>615.80</ele>
        <time>2016-10-29T09:23:13Z</time>
      </trkpt>
      <trkpt lat="42.382248000" lon="-2.553912000">
        <ele>615.60</ele>
        <time>2016-10-29T09:23:14Z</time>
      </trkpt>
      <trkpt lat="42.382245000" lon="-2.553907000">
        <ele>615.50</ele>
        <time>2016-10-29T09:23:15Z</time>
      </trkpt>
      <trkpt lat="42.382242000" lon="-2.553904000">
        <ele>615.40</ele>
        <time>2016-10-29T09:23:16Z</time>
      </trkpt>
      <trkpt lat="42.382238000" lon="-2.553904000">
        <ele>615.20</ele>
        <time>2016-10-29T09:23:17Z</time>
      </trkpt>
      <trkpt lat="42.382234000" lon="-2.553903000">
        <ele>615.10</ele>
        <time>2016-10-29T09:23:18Z</time>
      </trkpt>
      <trkpt lat="42.382231000" lon="-2.553902000">
        <ele>615.10</ele>
        <time>2016-10-29T09:23:19Z</time>
      </trkpt>
      <trkpt lat="42.382230000" lon="-2.553897000">
        <ele>615.00</ele>
        <time>2016-10-29T09:23:20Z</time>
      </trkpt>
      <trkpt lat="42.382226000" lon="-2.553895000">
        <ele>614.90</ele>
        <time>2016-10-29T09:23:21Z</time>
      </trkpt>
      <trkpt lat="42.382227000" lon="-2.553895000">
        <ele>614.70</ele>
        <time>2016-10-29T09:23:22Z</time>
      </trkpt>
      <trkpt lat="42.382227000" lon="-2.553893000">
        <ele>614.70</ele>
        <time>2016-10-29T09:23:23Z</time>
      </trkpt>
      <trkpt lat="42.382227000" lon="-2.553890000">
        <ele>614.70</ele>
        <time>2016-10-29T09:23:24Z</time>
      </trkpt>
      <trkpt lat="42.382226000" lon="-2.553888000">
        <ele>614.70</ele>
        <time>2016-10-29T09:23:25Z</time>
      </trkpt>
      <trkpt lat="42.382226000" lon="-2.553886000">
        <ele>614.70</ele>
        <time>2016-10-29T09:23:26Z</time>
      </trkpt>
      <trkpt lat="42.382226000" lon="-2.553883000">
        <ele>614.70</ele>
        <time>2016-10-29T09:23:27Z</time>
      </trkpt>
      <trkpt lat="42.382225000" lon="-2.553882000">
        <ele>614.60</ele>
        <time>2016-10-29T09:23:28Z</time>
      </trkpt>
      <trkpt lat="42.382225000" lon="-2.553880000">
        <ele>614.60</ele>
        <time>2016-10-29T09:23:29Z</time>
      </trkpt>
      <trkpt lat="42.382223000" lon="-2.553879000">
        <ele>614.60</ele>
        <time>2016-10-29T09:23:30Z</time>
      </trkpt>
      <trkpt lat="42.382223000" lon="-2.553879000">
        <ele>614.50</ele>
        <time>2016-10-29T09:23:31Z</time>
      </trkpt>
      <trkpt lat="42.382224000" lon="-2.553877000">
        <ele>614.50</ele>
        <time>2016-10-29T09:23:32Z</time>
      </trkpt>
      <trkpt lat="42.382224000" lon="-2.553876000">
        <ele>614.40</ele>
        <time>2016-10-29T09:23:33Z</time>
      </trkpt>
      <trkpt lat="42.382223000" lon="-2.553876000">
        <ele>614.40</ele>
        <time>2016-10-29T09:23:34Z</time>
      </trkpt>
      <trkpt lat="42.382224000" lon="-2.553874000">
        <ele>614.20</ele>
        <time>2016-10-29T09:23:35Z</time>
      </trkpt>
      <trkpt lat="42.382224000" lon="-2.553873000">
        <ele>614.10</ele>
        <time>2016-10-29T09:23:36Z</time>
      </trkpt>
      <trkpt lat="42.382225000" lon="-2.553870000">
        <ele>614.20</ele>
        <time>2016-10-29T09:23:37Z</time>
      </trkpt>
      <trkpt lat="42.382225000" lon="-2.553868000">
        <ele>614.30</ele>
        <time>2016-10-29T09:23:38Z</time>
      </trkpt>
      <trkpt lat="42.382225000" lon="-2.553868000">
        <ele>614.20</ele>
        <time>2016-10-29T09:23:39Z</time>
      </trkpt>
      <trkpt lat="42.382226000" lon="-2.553869000">
        <ele>614.10</ele>
        <time>2016-10-29T09:23:40Z</time>
      </trkpt>
      <trkpt lat="42.382226000" lon="-2.553868000">
        <ele>614.10</ele>
        <time>2016-10-29T09:23:41Z</time>
      </trkpt>
      <trkpt lat="42.382227000" lon="-2.553868000">
        <ele>614.10</ele>
        <time>2016-10-29T09:23:42Z</time>
      </trkpt>
      <trkpt lat="42.382227000" lon="-2.553868000">
        <ele>614.10</ele>
        <time>2016-10-29T09:23:43Z</time>
      </trkpt>
      <trkpt lat="42.382227000" lon="-2.553867000">
        <ele>614.00</ele>
        <time>2016-10-29T09:23:44Z</time>
      </trkpt>
      <trkpt lat="42.382226000" lon="-2.553867000">
        <ele>614.00</ele>
        <time>2016-10-29T09:23:45Z</time>
      </trkpt>
      <trkpt lat="42.382225000" lon="-2.553866000">
        <ele>614.00</ele>
        <time>2016-10-29T09:23:46Z</time>
      </trkpt>
      <trkpt lat="42.382224000" lon="-2.553866000">
        <ele>613.90</ele>
        <time>2016-10-29T09:23:47Z</time>
      </trkpt>
      <trkpt lat="42.382224000" lon="-2.553866000">
        <ele>613.90</ele>
        <time>2016-10-29T09:23:48Z</time>
      </trkpt>
      <trkpt lat="42.382223000" lon="-2.553866000">
        <ele>613.90</ele>
        <time>2016-10-29T09:23:49Z</time>
      </trkpt>
      <trkpt lat="42.382222000" lon="-2.553866000">
        <ele>614.00</ele>
        <time>2016-10-29T09:23:50Z</time>
      </trkpt>
      <trkpt lat="42.382221000" lon="-2.553867000">
        <ele>614.00</ele>
        <time>2016-10-29T09:23:51Z</time>
      </trkpt>
      <trkpt lat="42.382219000" lon="-2.553868000">
        <ele>614.00</ele>
        <time>2016-10-29T09:23:52Z</time>
      </trkpt>
      <trkpt lat="42.382219000" lon="-2.553867000">
        <ele>614.00</ele>
        <time>2016-10-29T09:23:53Z</time>
      </trkpt>
      <trkpt lat="42.382219000" lon="-2.553866000">
        <ele>614.00</ele>
        <time>2016-10-29T09:23:54Z</time>
      </trkpt>
      <trkpt lat="42.382220000" lon="-2.553865000">
        <ele>613.90</ele>
        <time>2016-10-29T09:23:55Z</time>
      </trkpt>
      <trkpt lat="42.382218000" lon="-2.553861000">
        <ele>613.90</ele>
        <time>2016-10-29T09:23:56Z</time>
      </trkpt>
      <trkpt lat="42.382211000" lon="-2.553850000">
        <ele>614.00</ele>
        <time>2016-10-29T09:23:57Z</time>
      </trkpt>
      <trkpt lat="42.382207000" lon="-2.553837000">
        <ele>614.00</ele>
        <time>2016-10-29T09:23:58Z</time>
      </trkpt>
      <trkpt lat="42.382198000" lon="-2.553820000">
        <ele>614.10</ele>
        <time>2016-10-29T09:23:59Z</time>
      </trkpt>
      <trkpt lat="42.382186000" lon="-2.553802000">
        <ele>614.10</ele>
        <time>2016-10-29T09:24:00Z</time>
      </trkpt>
      <trkpt lat="42.382175000" lon="-2.553780000">
        <ele>614.10</ele>
        <time>2016-10-29T09:24:01Z</time>
      </trkpt>
      <trkpt lat="42.382154000" lon="-2.553722000">
        <ele>614.20</ele>
        <time>2016-10-29T09:24:03Z</time>
      </trkpt>
      <trkpt lat="42.382146000" lon="-2.553690000">
        <ele>614.20</ele>
        <time>2016-10-29T09:24:04Z</time>
      </trkpt>
      <trkpt lat="42.382132000" lon="-2.553653000">
        <ele>614.20</ele>
        <time>2016-10-29T09:24:05Z</time>
      </trkpt>
      <trkpt lat="42.382112000" lon="-2.553607000">
        <ele>614.20</ele>
        <time>2016-10-29T09:24:06Z</time>
      </trkpt>
      <trkpt lat="42.382095000" lon="-2.553550000">
        <ele>614.20</ele>
        <time>2016-10-29T09:24:07Z</time>
      </trkpt>
      <trkpt lat="42.382074000" lon="-2.553484000">
        <ele>614.20</ele>
        <time>2016-10-29T09:24:08Z</time>
      </trkpt>
      <trkpt lat="42.382054000" lon="-2.553415000">
        <ele>613.80</ele>
        <time>2016-10-29T09:24:09Z</time>
      </trkpt>
      <trkpt lat="42.382034000" lon="-2.553347000">
        <ele>613.60</ele>
        <time>2016-10-29T09:24:10Z</time>
      </trkpt>
      <trkpt lat="42.382016000" lon="-2.553279000">
        <ele>613.20</ele>
        <time>2016-10-29T09:24:11Z</time>
      </trkpt>
      <trkpt lat="42.381994000" lon="-2.553210000">
        <ele>613.00</ele>
        <time>2016-10-29T09:24:12Z</time>
      </trkpt>
      <trkpt lat="42.381976000" lon="-2.553138000">
        <ele>612.80</ele>
        <time>2016-10-29T09:24:13Z</time>
      </trkpt>
      <trkpt lat="42.381953000" lon="-2.553068000">
        <ele>612.60</ele>
        <time>2016-10-29T09:24:14Z</time>
      </trkpt>
      <trkpt lat="42.381926000" lon="-2.553008000">
        <ele>612.40</ele>
        <time>2016-10-29T09:24:15Z</time>
      </trkpt>
      <trkpt lat="42.381889000" lon="-2.552957000">
        <ele>612.30</ele>
        <time>2016-10-29T09:24:16Z</time>
      </trkpt>
      <trkpt lat="42.381844000" lon="-2.552912000">
        <ele>611.90</ele>
        <time>2016-10-29T09:24:17Z</time>
      </trkpt>
      <trkpt lat="42.381796000" lon="-2.552867000">
        <ele>611.60</ele>
        <time>2016-10-29T09:24:18Z</time>
      </trkpt>
      <trkpt lat="42.381756000" lon="-2.552810000">
        <ele>611.30</ele>
        <time>2016-10-29T09:24:19Z</time>
      </trkpt>
      <trkpt lat="42.381736000" lon="-2.552730000">
        <ele>611.10</ele>
        <time>2016-10-29T09:24:20Z</time>
      </trkpt>
      <trkpt lat="42.381738000" lon="-2.552644000">
        <ele>611.00</ele>
        <time>2016-10-29T09:24:21Z</time>
      </trkpt>
      <trkpt lat="42.381766000" lon="-2.552565000">
        <ele>610.90</ele>
        <time>2016-10-29T09:24:22Z</time>
      </trkpt>
      <trkpt lat="42.381818000" lon="-2.552512000">
        <ele>610.50</ele>
        <time>2016-10-29T09:24:23Z</time>
      </trkpt>
      <trkpt lat="42.381877000" lon="-2.552467000">
        <ele>610.20</ele>
        <time>2016-10-29T09:24:24Z</time>
      </trkpt>
      <trkpt lat="42.381938000" lon="-2.552420000">
        <ele>609.80</ele>
        <time>2016-10-29T09:24:25Z</time>
      </trkpt>
      <trkpt lat="42.381999000" lon="-2.552371000">
        <ele>609.50</ele>
        <time>2016-10-29T09:24:26Z</time>
      </trkpt>
      <trkpt lat="42.382059000" lon="-2.552319000">
        <ele>609.20</ele>
        <time>2016-10-29T09:24:27Z</time>
      </trkpt>
      <trkpt lat="42.382119000" lon="-2.552263000">
        <ele>609.00</ele>
        <time>2016-10-29T09:24:28Z</time>
      </trkpt>
      <trkpt lat="42.382180000" lon="-2.552190000">
        <ele>608.50</ele>
        <time>2016-10-29T09:24:29Z</time>
      </trkpt>
      <trkpt lat="42.382235000" lon="-2.552113000">
        <ele>608.20</ele>
        <time>2016-10-29T09:24:30Z</time>
      </trkpt>
      <trkpt lat="42.382281000" lon="-2.552028000">
        <ele>607.90</ele>
        <time>2016-10-29T09:24:31Z</time>
      </trkpt>
      <trkpt lat="42.382321000" lon="-2.551944000">
        <ele>607.70</ele>
        <time>2016-10-29T09:24:32Z</time>
      </trkpt>
      <trkpt lat="42.382350000" lon="-2.551861000">
        <ele>607.30</ele>
        <time>2016-10-29T09:24:33Z</time>
      </trkpt>
      <trkpt lat="42.382358000" lon="-2.551778000">
        <ele>607.00</ele>
        <time>2016-10-29T09:24:34Z</time>
      </trkpt>
      <trkpt lat="42.382343000" lon="-2.551703000">
        <ele>606.50</ele>
        <time>2016-10-29T09:24:35Z</time>
      </trkpt>
      <trkpt lat="42.382303000" lon="-2.551642000">
        <ele>606.10</ele>
        <time>2016-10-29T09:24:36Z</time>
      </trkpt>
      <trkpt lat="42.382249000" lon="-2.551602000">
        <ele>605.80</ele>
        <time>2016-10-29T09:24:37Z</time>
      </trkpt>
      <trkpt lat="42.382194000" lon="-2.551566000">
        <ele>605.60</ele>
        <time>2016-10-29T09:24:38Z</time>
      </trkpt>
      <trkpt lat="42.382137000" lon="-2.551522000">
        <ele>605.60</ele>
        <time>2016-10-29T09:24:39Z</time>
      </trkpt>
      <trkpt lat="42.382085000" lon="-2.551469000">
        <ele>605.60</ele>
        <time>2016-10-29T09:24:40Z</time>
      </trkpt>
      <trkpt lat="42.382041000" lon="-2.551400000">
        <ele>605.80</ele>
        <time>2016-10-29T09:24:41Z</time>
      </trkpt>
      <trkpt lat="42.382015000" lon="-2.551316000">
        <ele>605.90</ele>
        <time>2016-10-29T09:24:42Z</time>
      </trkpt>
      <trkpt lat="42.381998000" lon="-2.551225000">
        <ele>605.90</ele>
        <time>2016-10-29T09:24:43Z</time>
      </trkpt>
      <trkpt lat="42.381977000" lon="-2.551136000">
        <ele>606.00</ele>
        <time>2016-10-29T09:24:44Z</time>
      </trkpt>
      <trkpt lat="42.381948000" lon="-2.551047000">
        <ele>606.00</ele>
        <time>2016-10-29T09:24:45Z</time>
      </trkpt>
      <trkpt lat="42.381913000" lon="-2.550963000">
        <ele>605.90</ele>
        <time>2016-10-29T09:24:46Z</time>
      </trkpt>
      <trkpt lat="42.381874000" lon="-2.550886000">
        <ele>605.90</ele>
        <time>2016-10-29T09:24:47Z</time>
      </trkpt>
      <trkpt lat="42.381834000" lon="-2.550811000">
        <ele>605.90</ele>
        <time>2016-10-29T09:24:48Z</time>
      </trkpt>
      <trkpt lat="42.381795000" lon="-2.550738000">
        <ele>606.00</ele>
        <time>2016-10-29T09:24:49Z</time>
      </trkpt>
      <trkpt lat="42.381759000" lon="-2.550666000">
        <ele>606.00</ele>
        <time>2016-10-29T09:24:50Z</time>
      </trkpt>
      <trkpt lat="42.381725000" lon="-2.550593000">
        <ele>606.00</ele>
        <time>2016-10-29T09:24:51Z</time>
      </trkpt>
      <trkpt lat="42.381696000" lon="-2.550525000">
        <ele>606.10</ele>
        <time>2016-10-29T09:24:52Z</time>
      </trkpt>
      <trkpt lat="42.381673000" lon="-2.550462000">
        <ele>606.10</ele>
        <time>2016-10-29T09:24:53Z</time>
      </trkpt>
      <trkpt lat="42.381657000" lon="-2.550395000">
        <ele>606.10</ele>
        <time>2016-10-29T09:24:54Z</time>
      </trkpt>
      <trkpt lat="42.381658000" lon="-2.550330000">
        <ele>606.20</ele>
        <time>2016-10-29T09:24:55Z</time>
      </trkpt>
      <trkpt lat="42.381680000" lon="-2.550271000">
        <ele>606.20</ele>
        <time>2016-10-29T09:24:56Z</time>
      </trkpt>
      <trkpt lat="42.381723000" lon="-2.550216000">
        <ele>606.20</ele>
        <time>2016-10-29T09:24:57Z</time>
      </trkpt>
      <trkpt lat="42.381773000" lon="-2.550157000">
        <ele>606.30</ele>
        <time>2016-10-29T09:24:58Z</time>
      </trkpt>
      <trkpt lat="42.381824000" lon="-2.550091000">
        <ele>606.20</ele>
        <time>2016-10-29T09:24:59Z</time>
      </trkpt>
      <trkpt lat="42.381868000" lon="-2.550008000">
        <ele>606.20</ele>
        <time>2016-10-29T09:25:00Z</time>
      </trkpt>
      <trkpt lat="42.381903000" lon="-2.549918000">
        <ele>605.90</ele>
        <time>2016-10-29T09:25:01Z</time>
      </trkpt>
      <trkpt lat="42.381934000" lon="-2.549824000">
        <ele>605.80</ele>
        <time>2016-10-29T09:25:02Z</time>
      </trkpt>
      <trkpt lat="42.381987000" lon="-2.549622000">
        <ele>605.00</ele>
        <time>2016-10-29T09:25:04Z</time>
      </trkpt>
      <trkpt lat="42.382013000" lon="-2.549520000">
        <ele>604.40</ele>
        <time>2016-10-29T09:25:05Z</time>
      </trkpt>
      <trkpt lat="42.382040000" lon="-2.549416000">
        <ele>604.00</ele>
        <time>2016-10-29T09:25:06Z</time>
      </trkpt>
      <trkpt lat="42.382071000" lon="-2.549312000">
        <ele>603.60</ele>
        <time>2016-10-29T09:25:07Z</time>
      </trkpt>
      <trkpt lat="42.382098000" lon="-2.549211000">
        <ele>603.30</ele>
        <time>2016-10-29T09:25:08Z</time>
      </trkpt>
      <trkpt lat="42.382124000" lon="-2.549112000">
        <ele>603.00</ele>
        <time>2016-10-29T09:25:09Z</time>
      </trkpt>
      <trkpt lat="42.382150000" lon="-2.549012000">
        <ele>602.80</ele>
        <time>2016-10-29T09:25:10Z</time>
      </trkpt>
      <trkpt lat="42.382177000" lon="-2.548911000">
        <ele>602.70</ele>
        <time>2016-10-29T09:25:11Z</time>
      </trkpt>
      <trkpt lat="42.382198000" lon="-2.548808000">
        <ele>602.60</ele>
        <time>2016-10-29T09:25:12Z</time>
      </trkpt>
      <trkpt lat="42.382214000" lon="-2.548707000">
        <ele>602.60</ele>
        <time>2016-10-29T09:25:13Z</time>
      </trkpt>
      <trkpt lat="42.382225000" lon="-2.548603000">
        <ele>602.60</ele>
        <time>2016-10-29T09:25:14Z</time>
      </trkpt>
      <trkpt lat="42.382232000" lon="-2.548503000">
        <ele>602.60</ele>
        <time>2016-10-29T09:25:15Z</time>
      </trkpt>
      <trkpt lat="42.382232000" lon="-2.548406000">
        <ele>602.70</ele>
        <time>2016-10-29T09:25:16Z</time>
      </trkpt>
      <trkpt lat="42.382229000" lon="-2.548312000">
        <ele>602.80</ele>
        <time>2016-10-29T09:25:17Z</time>
      </trkpt>
      <trkpt lat="42.382225000" lon="-2.548220000">
        <ele>602.80</ele>
        <time>2016-10-29T09:25:18Z</time>
      </trkpt>
      <trkpt lat="42.382222000" lon="-2.548130000">
        <ele>603.30</ele>
        <time>2016-10-29T09:25:19Z</time>
      </trkpt>
      <trkpt lat="42.382217000" lon="-2.548038000">
        <ele>603.70</ele>
        <time>2016-10-29T09:25:20Z</time>
      </trkpt>
      <trkpt lat="42.382210000" lon="-2.547944000">
        <ele>604.00</ele>
        <time>2016-10-29T09:25:21Z</time>
      </trkpt>
      <trkpt lat="42.382200000" lon="-2.547850000">
        <ele>604.20</ele>
        <time>2016-10-29T09:25:22Z</time>
      </trkpt>
      <trkpt lat="42.382187000" lon="-2.547758000">
        <ele>604.40</ele>
        <time>2016-10-29T09:25:23Z</time>
      </trkpt>
      <trkpt lat="42.382172000" lon="-2.547670000">
        <ele>604.50</ele>
        <time>2016-10-29T09:25:24Z</time>
      </trkpt>
      <trkpt lat="42.382156000" lon="-2.547588000">
        <ele>604.70</ele>
        <time>2016-10-29T09:25:25Z</time>
      </trkpt>
      <trkpt lat="42.382139000" lon="-2.547505000">
        <ele>604.90</ele>
        <time>2016-10-29T09:25:26Z</time>
      </trkpt>
      <trkpt lat="42.382126000" lon="-2.547426000">
        <ele>605.00</ele>
        <time>2016-10-29T09:25:27Z</time>
      </trkpt>
      <trkpt lat="42.382112000" lon="-2.547350000">
        <ele>605.20</ele>
        <time>2016-10-29T09:25:28Z</time>
      </trkpt>
      <trkpt lat="42.382100000" lon="-2.547276000">
        <ele>605.40</ele>
        <time>2016-10-29T09:25:29Z</time>
      </trkpt>
      <trkpt lat="42.382086000" lon="-2.547202000">
        <ele>605.50</ele>
        <time>2016-10-29T09:25:30Z</time>
      </trkpt>
      <trkpt lat="42.382072000" lon="-2.547128000">
        <ele>605.60</ele>
        <time>2016-10-29T09:25:31Z</time>
      </trkpt>
      <trkpt lat="42.382061000" lon="-2.547054000">
        <ele>605.70</ele>
        <time>2016-10-29T09:25:32Z</time>
      </trkpt>
      <trkpt lat="42.382051000" lon="-2.546980000">
        <ele>605.70</ele>
        <time>2016-10-29T09:25:33Z</time>
      </trkpt>
      <trkpt lat="42.382040000" lon="-2.546906000">
        <ele>605.70</ele>
        <time>2016-10-29T09:25:34Z</time>
      </trkpt>
      <trkpt lat="42.382028000" lon="-2.546831000">
        <ele>606.00</ele>
        <time>2016-10-29T09:25:35Z</time>
      </trkpt>
      <trkpt lat="42.382018000" lon="-2.546754000">
        <ele>606.20</ele>
        <time>2016-10-29T09:25:36Z</time>
      </trkpt>
      <trkpt lat="42.382007000" lon="-2.546679000">
        <ele>606.40</ele>
        <time>2016-10-29T09:25:37Z</time>
      </trkpt>
      <trkpt lat="42.381997000" lon="-2.546606000">
        <ele>606.50</ele>
        <time>2016-10-29T09:25:38Z</time>
      </trkpt>
      <trkpt lat="42.381983000" lon="-2.546529000">
        <ele>606.70</ele>
        <time>2016-10-29T09:25:39Z</time>
      </trkpt>
      <trkpt lat="42.381970000" lon="-2.546453000">
        <ele>606.80</ele>
        <time>2016-10-29T09:25:40Z</time>
      </trkpt>
      <trkpt lat="42.381959000" lon="-2.546377000">
        <ele>607.00</ele>
        <time>2016-10-29T09:25:41Z</time>
      </trkpt>
      <trkpt lat="42.381947000" lon="-2.546304000">
        <ele>607.20</ele>
        <time>2016-10-29T09:25:42Z</time>
      </trkpt>
      <trkpt lat="42.381939000" lon="-2.546232000">
        <ele>607.40</ele>
        <time>2016-10-29T09:25:43Z</time>
      </trkpt>
      <trkpt lat="42.381929000" lon="-2.546162000">
        <ele>607.50</ele>
        <time>2016-10-29T09:25:44Z</time>
      </trkpt>
      <trkpt lat="42.381919000" lon="-2.546094000">
        <ele>607.60</ele>
        <time>2016-10-29T09:25:45Z</time>
      </trkpt>
      <trkpt lat="42.381907000" lon="-2.546027000">
        <ele>607.70</ele>
        <time>2016-10-29T09:25:46Z</time>
      </trkpt>
      <trkpt lat="42.381899000" lon="-2.545957000">
        <ele>607.60</ele>
        <time>2016-10-29T09:25:47Z</time>
      </trkpt>
      <trkpt lat="42.381891000" lon="-2.545889000">
        <ele>607.50</ele>
        <time>2016-10-29T09:25:48Z</time>
      </trkpt>
      <trkpt lat="42.381884000" lon="-2.545818000">
        <ele>607.50</ele>
        <time>2016-10-29T09:25:49Z</time>
      </trkpt>
      <trkpt lat="42.381877000" lon="-2.545752000">
        <ele>607.40</ele>
        <time>2016-10-29T09:25:50Z</time>
      </trkpt>
      <trkpt lat="42.381867000" lon="-2.545685000">
        <ele>607.50</ele>
        <time>2016-10-29T09:25:51Z</time>
      </trkpt>
      <trkpt lat="42.381859000" lon="-2.545616000">
        <ele>607.60</ele>
        <time>2016-10-29T09:25:52Z</time>
      </trkpt>
      <trkpt lat="42.381850000" lon="-2.545545000">
        <ele>607.80</ele>
        <time>2016-10-29T09:25:53Z</time>
      </trkpt>
      <trkpt lat="42.381837000" lon="-2.545476000">
        <ele>607.90</ele>
        <time>2016-10-29T09:25:54Z</time>
      </trkpt>
      <trkpt lat="42.381823000" lon="-2.545409000">
        <ele>608.00</ele>
        <time>2016-10-29T09:25:55Z</time>
      </trkpt>
      <trkpt lat="42.381809000" lon="-2.545341000">
        <ele>608.00</ele>
        <time>2016-10-29T09:25:56Z</time>
      </trkpt>
      <trkpt lat="42.381796000" lon="-2.545276000">
        <ele>608.30</ele>
        <time>2016-10-29T09:25:57Z</time>
      </trkpt>
      <trkpt lat="42.381780000" lon="-2.545214000">
        <ele>608.50</ele>
        <time>2016-10-29T09:25:58Z</time>
      </trkpt>
      <trkpt lat="42.381766000" lon="-2.545151000">
        <ele>608.60</ele>
        <time>2016-10-29T09:25:59Z</time>
      </trkpt>
      <trkpt lat="42.381754000" lon="-2.545086000">
        <ele>608.70</ele>
        <time>2016-10-29T09:26:00Z</time>
      </trkpt>
      <trkpt lat="42.381741000" lon="-2.545023000">
        <ele>608.80</ele>
        <time>2016-10-29T09:26:01Z</time>
      </trkpt>
      <trkpt lat="42.381727000" lon="-2.544959000">
        <ele>608.80</ele>
        <time>2016-10-29T09:26:02Z</time>
      </trkpt>
      <trkpt lat="42.381714000" lon="-2.544893000">
        <ele>608.90</ele>
        <time>2016-10-29T09:26:03Z</time>
      </trkpt>
      <trkpt lat="42.381692000" lon="-2.544758000">
        <ele>609.10</ele>
        <time>2016-10-29T09:26:05Z</time>
      </trkpt>
      <trkpt lat="42.381680000" lon="-2.544692000">
        <ele>609.20</ele>
        <time>2016-10-29T09:26:06Z</time>
      </trkpt>
      <trkpt lat="42.381665000" lon="-2.544629000">
        <ele>609.20</ele>
        <time>2016-10-29T09:26:07Z</time>
      </trkpt>
      <trkpt lat="42.381651000" lon="-2.544562000">
        <ele>609.30</ele>
        <time>2016-10-29T09:26:08Z</time>
      </trkpt>
      <trkpt lat="42.381652000" lon="-2.544494000">
        <ele>609.20</ele>
        <time>2016-10-29T09:26:09Z</time>
      </trkpt>
      <trkpt lat="42.381666000" lon="-2.544425000">
        <ele>609.10</ele>
        <time>2016-10-29T09:26:10Z</time>
      </trkpt>
      <trkpt lat="42.381692000" lon="-2.544355000">
        <ele>609.00</ele>
        <time>2016-10-29T09:26:11Z</time>
      </trkpt>
      <trkpt lat="42.381726000" lon="-2.544288000">
        <ele>609.00</ele>
        <time>2016-10-29T09:26:12Z</time>
      </trkpt>
      <trkpt lat="42.381765000" lon="-2.544221000">
        <ele>609.00</ele>
        <time>2016-10-29T09:26:13Z</time>
      </trkpt>
      <trkpt lat="42.381806000" lon="-2.544153000">
        <ele>609.00</ele>
        <time>2016-10-29T09:26:14Z</time>
      </trkpt>
      <trkpt lat="42.381850000" lon="-2.544080000">
        <ele>609.00</ele>
        <time>2016-10-29T09:26:15Z</time>
      </trkpt>
      <trkpt lat="42.381891000" lon="-2.544003000">
        <ele>609.00</ele>
        <time>2016-10-29T09:26:16Z</time>
      </trkpt>
      <trkpt lat="42.381929000" lon="-2.543920000">
        <ele>608.60</ele>
        <time>2016-10-29T09:26:17Z</time>
      </trkpt>
      <trkpt lat="42.381966000" lon="-2.543831000">
        <ele>608.20</ele>
        <time>2016-10-29T09:26:18Z</time>
      </trkpt>
      <trkpt lat="42.382003000" lon="-2.543735000">
        <ele>607.90</ele>
        <time>2016-10-29T09:26:19Z</time>
      </trkpt>
      <trkpt lat="42.382039000" lon="-2.543634000">
        <ele>607.60</ele>
        <time>2016-10-29T09:26:20Z</time>
      </trkpt>
      <trkpt lat="42.382078000" lon="-2.543525000">
        <ele>607.00</ele>
        <time>2016-10-29T09:26:21Z</time>
      </trkpt>
      <trkpt lat="42.382113000" lon="-2.543405000">
        <ele>606.50</ele>
        <time>2016-10-29T09:26:22Z</time>
      </trkpt>
      <trkpt lat="42.382141000" lon="-2.543275000">
        <ele>605.70</ele>
        <time>2016-10-29T09:26:23Z</time>
      </trkpt>
      <trkpt lat="42.382156000" lon="-2.543137000">
        <ele>605.20</ele>
        <time>2016-10-29T09:26:24Z</time>
      </trkpt>
      <trkpt lat="42.382172000" lon="-2.542996000">
        <ele>604.20</ele>
        <time>2016-10-29T09:26:25Z</time>
      </trkpt>
      <trkpt lat="42.382198000" lon="-2.542849000">
        <ele>603.50</ele>
        <time>2016-10-29T09:26:26Z</time>
      </trkpt>
      <trkpt lat="42.382235000" lon="-2.542703000">
        <ele>602.70</ele>
        <time>2016-10-29T09:26:27Z</time>
      </trkpt>
      <trkpt lat="42.382281000" lon="-2.542559000">
        <ele>602.00</ele>
        <time>2016-10-29T09:26:28Z</time>
      </trkpt>
      <trkpt lat="42.382339000" lon="-2.542419000">
        <ele>600.60</ele>
        <time>2016-10-29T09:26:29Z</time>
      </trkpt>
      <trkpt lat="42.382399000" lon="-2.542281000">
        <ele>599.50</ele>
        <time>2016-10-29T09:26:30Z</time>
      </trkpt>
      <trkpt lat="42.382463000" lon="-2.542138000">
        <ele>598.00</ele>
        <time>2016-10-29T09:26:31Z</time>
      </trkpt>
      <trkpt lat="42.382528000" lon="-2.541994000">
        <ele>596.90</ele>
        <time>2016-10-29T09:26:32Z</time>
      </trkpt>
      <trkpt lat="42.382594000" lon="-2.541847000">
        <ele>595.00</ele>
        <time>2016-10-29T09:26:33Z</time>
      </trkpt>
      <trkpt lat="42.382658000" lon="-2.541695000">
        <ele>593.60</ele>
        <time>2016-10-29T09:26:34Z</time>
      </trkpt>
      <trkpt lat="42.382719000" lon="-2.541547000">
        <ele>591.70</ele>
        <time>2016-10-29T09:26:35Z</time>
      </trkpt>
      <trkpt lat="42.382779000" lon="-2.541402000">
        <ele>590.30</ele>
        <time>2016-10-29T09:26:36Z</time>
      </trkpt>
      <trkpt lat="42.382832000" lon="-2.541262000">
        <ele>588.80</ele>
        <time>2016-10-29T09:26:37Z</time>
      </trkpt>
      <trkpt lat="42.382881000" lon="-2.541133000">
        <ele>587.60</ele>
        <time>2016-10-29T09:26:38Z</time>
      </trkpt>
      <trkpt lat="42.382936000" lon="-2.541002000">
        <ele>586.40</ele>
        <time>2016-10-29T09:26:39Z</time>
      </trkpt>
      <trkpt lat="42.382997000" lon="-2.540881000">
        <ele>585.50</ele>
        <time>2016-10-29T09:26:40Z</time>
      </trkpt>
      <trkpt lat="42.383079000" lon="-2.540783000">
        <ele>584.10</ele>
        <time>2016-10-29T09:26:41Z</time>
      </trkpt>
      <trkpt lat="42.383180000" lon="-2.540712000">
        <ele>583.00</ele>
        <time>2016-10-29T09:26:42Z</time>
      </trkpt>
      <trkpt lat="42.383289000" lon="-2.540659000">
        <ele>581.40</ele>
        <time>2016-10-29T09:26:43Z</time>
      </trkpt>
      <trkpt lat="42.383403000" lon="-2.540605000">
        <ele>580.20</ele>
        <time>2016-10-29T09:26:44Z</time>
      </trkpt>
      <trkpt lat="42.383514000" lon="-2.540532000">
        <ele>578.70</ele>
        <time>2016-10-29T09:26:45Z</time>
      </trkpt>
      <trkpt lat="42.383620000" lon="-2.540448000">
        <ele>577.50</ele>
        <time>2016-10-29T09:26:46Z</time>
      </trkpt>
      <trkpt lat="42.383722000" lon="-2.540347000">
        <ele>576.20</ele>
        <time>2016-10-29T09:26:47Z</time>
      </trkpt>
      <trkpt lat="42.383823000" lon="-2.540237000">
        <ele>575.20</ele>
        <time>2016-10-29T09:26:48Z</time>
      </trkpt>
      <trkpt lat="42.383925000" lon="-2.540121000">
        <ele>573.50</ele>
        <time>2016-10-29T09:26:49Z</time>
      </trkpt>
      <trkpt lat="42.384024000" lon="-2.540001000">
        <ele>572.30</ele>
        <time>2016-10-29T09:26:50Z</time>
      </trkpt>
      <trkpt lat="42.384112000" lon="-2.539875000">
        <ele>571.00</ele>
        <time>2016-10-29T09:26:51Z</time>
      </trkpt>
      <trkpt lat="42.384188000" lon="-2.539733000">
        <ele>570.00</ele>
        <time>2016-10-29T09:26:52Z</time>
      </trkpt>
      <trkpt lat="42.384247000" lon="-2.539574000">
        <ele>568.40</ele>
        <time>2016-10-29T09:26:53Z</time>
      </trkpt>
      <trkpt lat="42.384287000" lon="-2.539406000">
        <ele>567.20</ele>
        <time>2016-10-29T09:26:54Z</time>
      </trkpt>
      <trkpt lat="42.384318000" lon="-2.539237000">
        <ele>565.40</ele>
        <time>2016-10-29T09:26:55Z</time>
      </trkpt>
      <trkpt lat="42.384354000" lon="-2.539074000">
        <ele>564.10</ele>
        <time>2016-10-29T09:26:56Z</time>
      </trkpt>
      <trkpt lat="42.384398000" lon="-2.538919000">
        <ele>562.50</ele>
        <time>2016-10-29T09:26:57Z</time>
      </trkpt>
      <trkpt lat="42.384450000" lon="-2.538773000">
        <ele>561.30</ele>
        <time>2016-10-29T09:26:58Z</time>
      </trkpt>
      <trkpt lat="42.384509000" lon="-2.538633000">
        <ele>560.20</ele>
        <time>2016-10-29T09:26:59Z</time>
      </trkpt>
      <trkpt lat="42.384569000" lon="-2.538495000">
        <ele>559.30</ele>
        <time>2016-10-29T09:27:00Z</time>
      </trkpt>
      <trkpt lat="42.384622000" lon="-2.538352000">
        <ele>558.70</ele>
        <time>2016-10-29T09:27:01Z</time>
      </trkpt>
      <trkpt lat="42.384662000" lon="-2.538198000">
        <ele>558.20</ele>
        <time>2016-10-29T09:27:02Z</time>
      </trkpt>
      <trkpt lat="42.384693000" lon="-2.538042000">
        <ele>557.10</ele>
        <time>2016-10-29T09:27:03Z</time>
      </trkpt>
      <trkpt lat="42.384713000" lon="-2.537884000">
        <ele>556.30</ele>
        <time>2016-10-29T09:27:04Z</time>
      </trkpt>
      <trkpt lat="42.384739000" lon="-2.537592000">
        <ele>553.70</ele>
        <time>2016-10-29T09:27:06Z</time>
      </trkpt>
      <trkpt lat="42.384760000" lon="-2.537460000">
        <ele>552.60</ele>
        <time>2016-10-29T09:27:07Z</time>
      </trkpt>
      <trkpt lat="42.384802000" lon="-2.537350000">
        <ele>551.80</ele>
        <time>2016-10-29T09:27:08Z</time>
      </trkpt>
      <trkpt lat="42.384867000" lon="-2.537266000">
        <ele>550.70</ele>
        <time>2016-10-29T09:27:09Z</time>
      </trkpt>
      <trkpt lat="42.384953000" lon="-2.537209000">
        <ele>549.90</ele>
        <time>2016-10-29T09:27:10Z</time>
      </trkpt>
      <trkpt lat="42.385046000" lon="-2.537165000">
        <ele>549.10</ele>
        <time>2016-10-29T09:27:11Z</time>
      </trkpt>
      <trkpt lat="42.385140000" lon="-2.537130000">
        <ele>548.50</ele>
        <time>2016-10-29T09:27:12Z</time>
      </trkpt>
      <trkpt lat="42.385235000" lon="-2.537097000">
        <ele>548.00</ele>
        <time>2016-10-29T09:27:13Z</time>
      </trkpt>
      <trkpt lat="42.385327000" lon="-2.537062000">
        <ele>547.60</ele>
        <time>2016-10-29T09:27:14Z</time>
      </trkpt>
      <trkpt lat="42.385419000" lon="-2.537023000">
        <ele>546.70</ele>
        <time>2016-10-29T09:27:15Z</time>
      </trkpt>
      <trkpt lat="42.385509000" lon="-2.536982000">
        <ele>546.00</ele>
        <time>2016-10-29T09:27:16Z</time>
      </trkpt>
      <trkpt lat="42.385596000" lon="-2.536932000">
        <ele>545.40</ele>
        <time>2016-10-29T09:27:17Z</time>
      </trkpt>
      <trkpt lat="42.385676000" lon="-2.536877000">
        <ele>545.00</ele>
        <time>2016-10-29T09:27:18Z</time>
      </trkpt>
      <trkpt lat="42.385752000" lon="-2.536812000">
        <ele>544.50</ele>
        <time>2016-10-29T09:27:19Z</time>
      </trkpt>
      <trkpt lat="42.385823000" lon="-2.536743000">
        <ele>544.10</ele>
        <time>2016-10-29T09:27:20Z</time>
      </trkpt>
      <trkpt lat="42.385890000" lon="-2.536668000">
        <ele>543.80</ele>
        <time>2016-10-29T09:27:21Z</time>
      </trkpt>
      <trkpt lat="42.385949000" lon="-2.536590000">
        <ele>543.60</ele>
        <time>2016-10-29T09:27:22Z</time>
      </trkpt>
      <trkpt lat="42.386007000" lon="-2.536513000">
        <ele>543.30</ele>
        <time>2016-10-29T09:27:23Z</time>
      </trkpt>
      <trkpt lat="42.386062000" lon="-2.536440000">
        <ele>543.00</ele>
        <time>2016-10-29T09:27:24Z</time>
      </trkpt>
      <trkpt lat="42.386115000" lon="-2.536363000">
        <ele>542.80</ele>
        <time>2016-10-29T09:27:25Z</time>
      </trkpt>
      <trkpt lat="42.386155000" lon="-2.536265000">
        <ele>542.60</ele>
        <time>2016-10-29T09:27:26Z</time>
      </trkpt>
      <trkpt lat="42.386187000" lon="-2.536186000">
        <ele>542.50</ele>
        <time>2016-10-29T09:27:27Z</time>
      </trkpt>
      <trkpt lat="42.386229000" lon="-2.536117000">
        <ele>542.40</ele>
        <time>2016-10-29T09:27:28Z</time>
      </trkpt>
      <trkpt lat="42.386293000" lon="-2.536070000">
        <ele>542.30</ele>
        <time>2016-10-29T09:27:29Z</time>
      </trkpt>
      <trkpt lat="42.386348000" lon="-2.536014000">
        <ele>542.20</ele>
        <time>2016-10-29T09:27:30Z</time>
      </trkpt>
      <trkpt lat="42.386382000" lon="-2.535944000">
        <ele>542.20</ele>
        <time>2016-10-29T09:27:31Z</time>
      </trkpt>
      <trkpt lat="42.386405000" lon="-2.535868000">
        <ele>542.10</ele>
        <time>2016-10-29T09:27:32Z</time>
      </trkpt>
      <trkpt lat="42.386415000" lon="-2.535789000">
        <ele>542.10</ele>
        <time>2016-10-29T09:27:33Z</time>
      </trkpt>
      <trkpt lat="42.386412000" lon="-2.535712000">
        <ele>542.00</ele>
        <time>2016-10-29T09:27:34Z</time>
      </trkpt>
      <trkpt lat="42.386408000" lon="-2.535640000">
        <ele>542.00</ele>
        <time>2016-10-29T09:27:35Z</time>
      </trkpt>
      <trkpt lat="42.386406000" lon="-2.535568000">
        <ele>542.00</ele>
        <time>2016-10-29T09:27:36Z</time>
      </trkpt>
      <trkpt lat="42.386404000" lon="-2.535493000">
        <ele>541.80</ele>
        <time>2016-10-29T09:27:37Z</time>
      </trkpt>
      <trkpt lat="42.386396000" lon="-2.535423000">
        <ele>541.70</ele>
        <time>2016-10-29T09:27:38Z</time>
      </trkpt>
      <trkpt lat="42.386378000" lon="-2.535361000">
        <ele>541.80</ele>
        <time>2016-10-29T09:27:39Z</time>
      </trkpt>
      <trkpt lat="42.386345000" lon="-2.535308000">
        <ele>541.90</ele>
        <time>2016-10-29T09:27:40Z</time>
      </trkpt>
      <trkpt lat="42.386304000" lon="-2.535271000">
        <ele>542.00</ele>
        <time>2016-10-29T09:27:41Z</time>
      </trkpt>
      <trkpt lat="42.386259000" lon="-2.535246000">
        <ele>542.00</ele>
        <time>2016-10-29T09:27:42Z</time>
      </trkpt>
      <trkpt lat="42.386213000" lon="-2.535227000">
        <ele>542.10</ele>
        <time>2016-10-29T09:27:43Z</time>
      </trkpt>
      <trkpt lat="42.386165000" lon="-2.535212000">
        <ele>542.20</ele>
        <time>2016-10-29T09:27:44Z</time>
      </trkpt>
      <trkpt lat="42.386117000" lon="-2.535190000">
        <ele>542.50</ele>
        <time>2016-10-29T09:27:45Z</time>
      </trkpt>
      <trkpt lat="42.386076000" lon="-2.535157000">
        <ele>542.60</ele>
        <time>2016-10-29T09:27:46Z</time>
      </trkpt>
      <trkpt lat="42.386040000" lon="-2.535112000">
        <ele>542.80</ele>
        <time>2016-10-29T09:27:47Z</time>
      </trkpt>
      <trkpt lat="42.386011000" lon="-2.535061000">
        <ele>543.00</ele>
        <time>2016-10-29T09:27:48Z</time>
      </trkpt>
      <trkpt lat="42.385985000" lon="-2.535003000">
        <ele>543.40</ele>
        <time>2016-10-29T09:27:49Z</time>
      </trkpt>
      <trkpt lat="42.385961000" lon="-2.534941000">
        <ele>543.70</ele>
        <time>2016-10-29T09:27:50Z</time>
      </trkpt>
      <trkpt lat="42.385937000" lon="-2.534890000">
        <ele>544.10</ele>
        <time>2016-10-29T09:27:51Z</time>
      </trkpt>
      <trkpt lat="42.385921000" lon="-2.534846000">
        <ele>544.40</ele>
        <time>2016-10-29T09:27:52Z</time>
      </trkpt>
      <trkpt lat="42.385910000" lon="-2.534806000">
        <ele>544.90</ele>
        <time>2016-10-29T09:27:53Z</time>
      </trkpt>
      <trkpt lat="42.385902000" lon="-2.534772000">
        <ele>545.20</ele>
        <time>2016-10-29T09:27:54Z</time>
      </trkpt>
      <trkpt lat="42.385898000" lon="-2.534742000">
        <ele>545.50</ele>
        <time>2016-10-29T09:27:55Z</time>
      </trkpt>
      <trkpt lat="42.385891000" lon="-2.534718000">
        <ele>545.70</ele>
        <time>2016-10-29T09:27:56Z</time>
      </trkpt>
      <trkpt lat="42.385886000" lon="-2.534692000">
        <ele>546.00</ele>
        <time>2016-10-29T09:27:57Z</time>
      </trkpt>
      <trkpt lat="42.385879000" lon="-2.534668000">
        <ele>546.20</ele>
        <time>2016-10-29T09:27:58Z</time>
      </trkpt>
      <trkpt lat="42.385867000" lon="-2.534645000">
        <ele>546.40</ele>
        <time>2016-10-29T09:27:59Z</time>
      </trkpt>
      <trkpt lat="42.385855000" lon="-2.534622000">
        <ele>546.60</ele>
        <time>2016-10-29T09:28:00Z</time>
      </trkpt>
      <trkpt lat="42.385844000" lon="-2.534596000">
        <ele>546.80</ele>
        <time>2016-10-29T09:28:01Z</time>
      </trkpt>
      <trkpt lat="42.385831000" lon="-2.534574000">
        <ele>547.00</ele>
        <time>2016-10-29T09:28:02Z</time>
      </trkpt>
      <trkpt lat="42.385817000" lon="-2.534548000">
        <ele>547.30</ele>
        <time>2016-10-29T09:28:03Z</time>
      </trkpt>
      <trkpt lat="42.385807000" lon="-2.534517000">
        <ele>547.60</ele>
        <time>2016-10-29T09:28:04Z</time>
      </trkpt>
      <trkpt lat="42.385796000" lon="-2.534492000">
        <ele>547.80</ele>
        <time>2016-10-29T09:28:05Z</time>
      </trkpt>
      <trkpt lat="42.385768000" lon="-2.534441000">
        <ele>548.10</ele>
        <time>2016-10-29T09:28:07Z</time>
      </trkpt>
      <trkpt lat="42.385757000" lon="-2.534412000">
        <ele>548.20</ele>
        <time>2016-10-29T09:28:08Z</time>
      </trkpt>
      <trkpt lat="42.385747000" lon="-2.534380000">
        <ele>548.40</ele>
        <time>2016-10-29T09:28:09Z</time>
      </trkpt>
      <trkpt lat="42.385733000" lon="-2.534350000">
        <ele>548.60</ele>
        <time>2016-10-29T09:28:10Z</time>
      </trkpt>
      <trkpt lat="42.385720000" lon="-2.534318000">
        <ele>548.80</ele>
        <time>2016-10-29T09:28:11Z</time>
      </trkpt>
      <trkpt lat="42.385708000" lon="-2.534289000">
        <ele>549.00</ele>
        <time>2016-10-29T09:28:12Z</time>
      </trkpt>
      <trkpt lat="42.385697000" lon="-2.534259000">
        <ele>549.30</ele>
        <time>2016-10-29T09:28:13Z</time>
      </trkpt>
      <trkpt lat="42.385685000" lon="-2.534230000">
        <ele>549.50</ele>
        <time>2016-10-29T09:28:14Z</time>
      </trkpt>
      <trkpt lat="42.385671000" lon="-2.534205000">
        <ele>549.70</ele>
        <time>2016-10-29T09:28:15Z</time>
      </trkpt>
      <trkpt lat="42.385659000" lon="-2.534177000">
        <ele>549.90</ele>
        <time>2016-10-29T09:28:16Z</time>
      </trkpt>
      <trkpt lat="42.385646000" lon="-2.534148000">
        <ele>550.00</ele>
        <time>2016-10-29T09:28:17Z</time>
      </trkpt>
      <trkpt lat="42.385631000" lon="-2.534121000">
        <ele>550.10</ele>
        <time>2016-10-29T09:28:18Z</time>
      </trkpt>
      <trkpt lat="42.385617000" lon="-2.534094000">
        <ele>550.20</ele>
        <time>2016-10-29T09:28:19Z</time>
      </trkpt>
      <trkpt lat="42.385603000" lon="-2.534063000">
        <ele>550.20</ele>
        <time>2016-10-29T09:28:20Z</time>
      </trkpt>
      <trkpt lat="42.385588000" lon="-2.534034000">
        <ele>550.20</ele>
        <time>2016-10-29T09:28:21Z</time>
      </trkpt>
      <trkpt lat="42.385576000" lon="-2.534006000">
        <ele>550.30</ele>
        <time>2016-10-29T09:28:22Z</time>
      </trkpt>
      <trkpt lat="42.385565000" lon="-2.533978000">
        <ele>550.40</ele>
        <time>2016-10-29T09:28:23Z</time>
      </trkpt>
      <trkpt lat="42.385555000" lon="-2.533949000">
        <ele>550.50</ele>
        <time>2016-10-29T09:28:24Z</time>
      </trkpt>
      <trkpt lat="42.385543000" lon="-2.533923000">
        <ele>550.70</ele>
        <time>2016-10-29T09:28:25Z</time>
      </trkpt>
      <trkpt lat="42.385534000" lon="-2.533898000">
        <ele>550.80</ele>
        <time>2016-10-29T09:28:26Z</time>
      </trkpt>
      <trkpt lat="42.385525000" lon="-2.533871000">
        <ele>551.00</ele>
        <time>2016-10-29T09:28:27Z</time>
      </trkpt>
      <trkpt lat="42.385512000" lon="-2.533844000">
        <ele>551.20</ele>
        <time>2016-10-29T09:28:28Z</time>
      </trkpt>
      <trkpt lat="42.385497000" lon="-2.533810000">
        <ele>551.20</ele>
        <time>2016-10-29T09:28:29Z</time>
      </trkpt>
      <trkpt lat="42.385480000" lon="-2.533775000">
        <ele>551.20</ele>
        <time>2016-10-29T09:28:30Z</time>
      </trkpt>
      <trkpt lat="42.385461000" lon="-2.533740000">
        <ele>551.50</ele>
        <time>2016-10-29T09:28:31Z</time>
      </trkpt>
      <trkpt lat="42.385445000" lon="-2.533702000">
        <ele>551.60</ele>
        <time>2016-10-29T09:28:32Z</time>
      </trkpt>
      <trkpt lat="42.385428000" lon="-2.533663000">
        <ele>551.60</ele>
        <time>2016-10-29T09:28:33Z</time>
      </trkpt>
      <trkpt lat="42.385410000" lon="-2.533625000">
        <ele>551.60</ele>
        <time>2016-10-29T09:28:34Z</time>
      </trkpt>
      <trkpt lat="42.385393000" lon="-2.533587000">
        <ele>551.70</ele>
        <time>2016-10-29T09:28:35Z</time>
      </trkpt>
      <trkpt lat="42.385377000" lon="-2.533549000">
        <ele>551.80</ele>
        <time>2016-10-29T09:28:36Z</time>
      </trkpt>
      <trkpt lat="42.385362000" lon="-2.533511000">
        <ele>551.80</ele>
        <time>2016-10-29T09:28:37Z</time>
      </trkpt>
      <trkpt lat="42.385348000" lon="-2.533472000">
        <ele>551.90</ele>
        <time>2016-10-29T09:28:38Z</time>
      </trkpt>
      <trkpt lat="42.385338000" lon="-2.533431000">
        <ele>552.00</ele>
        <time>2016-10-29T09:28:39Z</time>
      </trkpt>
      <trkpt lat="42.385329000" lon="-2.533390000">
        <ele>552.20</ele>
        <time>2016-10-29T09:28:40Z</time>
      </trkpt>
      <trkpt lat="42.385320000" lon="-2.533353000">
        <ele>552.40</ele>
        <time>2016-10-29T09:28:41Z</time>
      </trkpt>
      <trkpt lat="42.385312000" lon="-2.533313000">
        <ele>552.50</ele>
        <time>2016-10-29T09:28:42Z</time>
      </trkpt>
      <trkpt lat="42.385301000" lon="-2.533272000">
        <ele>552.60</ele>
        <time>2016-10-29T09:28:43Z</time>
      </trkpt>
      <trkpt lat="42.385293000" lon="-2.533231000">
        <ele>552.70</ele>
        <time>2016-10-29T09:28:44Z</time>
      </trkpt>
      <trkpt lat="42.385286000" lon="-2.533189000">
        <ele>552.90</ele>
        <time>2016-10-29T09:28:45Z</time>
      </trkpt>
      <trkpt lat="42.385276000" lon="-2.533148000">
        <ele>553.00</ele>
        <time>2016-10-29T09:28:46Z</time>
      </trkpt>
      <trkpt lat="42.385269000" lon="-2.533106000">
        <ele>553.10</ele>
        <time>2016-10-29T09:28:47Z</time>
      </trkpt>
      <trkpt lat="42.385260000" lon="-2.533066000">
        <ele>553.20</ele>
        <time>2016-10-29T09:28:48Z</time>
      </trkpt>
      <trkpt lat="42.385254000" lon="-2.533025000">
        <ele>553.30</ele>
        <time>2016-10-29T09:28:49Z</time>
      </trkpt>
      <trkpt lat="42.385246000" lon="-2.532985000">
        <ele>553.30</ele>
        <time>2016-10-29T09:28:50Z</time>
      </trkpt>
      <trkpt lat="42.385237000" lon="-2.532947000">
        <ele>553.30</ele>
        <time>2016-10-29T09:28:51Z</time>
      </trkpt>
      <trkpt lat="42.385234000" lon="-2.532909000">
        <ele>553.30</ele>
        <time>2016-10-29T09:28:52Z</time>
      </trkpt>
      <trkpt lat="42.385226000" lon="-2.532873000">
        <ele>553.50</ele>
        <time>2016-10-29T09:28:53Z</time>
      </trkpt>
      <trkpt lat="42.385219000" lon="-2.532830000">
        <ele>553.70</ele>
        <time>2016-10-29T09:28:54Z</time>
      </trkpt>
      <trkpt lat="42.385212000" lon="-2.532791000">
        <ele>553.80</ele>
        <time>2016-10-29T09:28:55Z</time>
      </trkpt>
      <trkpt lat="42.385206000" lon="-2.532748000">
        <ele>553.90</ele>
        <time>2016-10-29T09:28:56Z</time>
      </trkpt>
      <trkpt lat="42.385199000" lon="-2.532707000">
        <ele>553.90</ele>
        <time>2016-10-29T09:28:57Z</time>
      </trkpt>
      <trkpt lat="42.385195000" lon="-2.532665000">
        <ele>554.00</ele>
        <time>2016-10-29T09:28:58Z</time>
      </trkpt>
      <trkpt lat="42.385191000" lon="-2.532621000">
        <ele>553.90</ele>
        <time>2016-10-29T09:28:59Z</time>
      </trkpt>
      <trkpt lat="42.385185000" lon="-2.532580000">
        <ele>553.90</ele>
        <time>2016-10-29T09:29:00Z</time>
      </trkpt>
      <trkpt lat="42.385183000" lon="-2.532538000">
        <ele>554.10</ele>
        <time>2016-10-29T09:29:01Z</time>
      </trkpt>
      <trkpt lat="42.385181000" lon="-2.532496000">
        <ele>554.20</ele>
        <time>2016-10-29T09:29:02Z</time>
      </trkpt>
      <trkpt lat="42.385178000" lon="-2.532454000">
        <ele>554.30</ele>
        <time>2016-10-29T09:29:03Z</time>
      </trkpt>
      <trkpt lat="42.385173000" lon="-2.532411000">
        <ele>554.30</ele>
        <time>2016-10-29T09:29:04Z</time>
      </trkpt>
      <trkpt lat="42.385164000" lon="-2.532365000">
        <ele>554.40</ele>
        <time>2016-10-29T09:29:05Z</time>
      </trkpt>
      <trkpt lat="42.385158000" lon="-2.532320000">
        <ele>554.40</ele>
        <time>2016-10-29T09:29:06Z</time>
      </trkpt>
      <trkpt lat="42.385145000" lon="-2.532235000">
        <ele>554.90</ele>
        <time>2016-10-29T09:29:08Z</time>
      </trkpt>
      <trkpt lat="42.385138000" lon="-2.532194000">
        <ele>555.10</ele>
        <time>2016-10-29T09:29:09Z</time>
      </trkpt>
      <trkpt lat="42.385130000" lon="-2.532151000">
        <ele>555.30</ele>
        <time>2016-10-29T09:29:10Z</time>
      </trkpt>
      <trkpt lat="42.385122000" lon="-2.532108000">
        <ele>555.60</ele>
        <time>2016-10-29T09:29:11Z</time>
      </trkpt>
      <trkpt lat="42.385116000" lon="-2.532069000">
        <ele>555.80</ele>
        <time>2016-10-29T09:29:12Z</time>
      </trkpt>
      <trkpt lat="42.385107000" lon="-2.532029000">
        <ele>556.00</ele>
        <time>2016-10-29T09:29:13Z</time>
      </trkpt>
      <trkpt lat="42.385097000" lon="-2.531992000">
        <ele>556.20</ele>
        <time>2016-10-29T09:29:14Z</time>
      </trkpt>
      <trkpt lat="42.385090000" lon="-2.531956000">
        <ele>556.40</ele>
        <time>2016-10-29T09:29:15Z</time>
      </trkpt>
      <trkpt lat="42.385083000" lon="-2.531925000">
        <ele>556.50</ele>
        <time>2016-10-29T09:29:16Z</time>
      </trkpt>
      <trkpt lat="42.385079000" lon="-2.531891000">
        <ele>556.70</ele>
        <time>2016-10-29T09:29:17Z</time>
      </trkpt>
      <trkpt lat="42.385069000" lon="-2.531858000">
        <ele>556.80</ele>
        <time>2016-10-29T09:29:18Z</time>
      </trkpt>
      <trkpt lat="42.385060000" lon="-2.531821000">
        <ele>556.90</ele>
        <time>2016-10-29T09:29:19Z</time>
      </trkpt>
      <trkpt lat="42.385053000" lon="-2.531785000">
        <ele>557.00</ele>
        <time>2016-10-29T09:29:20Z</time>
      </trkpt>
      <trkpt lat="42.385048000" lon="-2.531745000">
        <ele>557.10</ele>
        <time>2016-10-29T09:29:21Z</time>
      </trkpt>
      <trkpt lat="42.385041000" lon="-2.531708000">
        <ele>557.20</ele>
        <time>2016-10-29T09:29:22Z</time>
      </trkpt>
      <trkpt lat="42.385031000" lon="-2.531668000">
        <ele>557.50</ele>
        <time>2016-10-29T09:29:23Z</time>
      </trkpt>
      <trkpt lat="42.385022000" lon="-2.531627000">
        <ele>557.70</ele>
        <time>2016-10-29T09:29:24Z</time>
      </trkpt>
      <trkpt lat="42.385015000" lon="-2.531588000">
        <ele>557.90</ele>
        <time>2016-10-29T09:29:25Z</time>
      </trkpt>
      <trkpt lat="42.385008000" lon="-2.531546000">
        <ele>558.10</ele>
        <time>2016-10-29T09:29:26Z</time>
      </trkpt>
      <trkpt lat="42.385001000" lon="-2.531504000">
        <ele>558.20</ele>
        <time>2016-10-29T09:29:27Z</time>
      </trkpt>
      <trkpt lat="42.384994000" lon="-2.531461000">
        <ele>558.40</ele>
        <time>2016-10-29T09:29:28Z</time>
      </trkpt>
      <trkpt lat="42.384987000" lon="-2.531418000">
        <ele>558.50</ele>
        <time>2016-10-29T09:29:29Z</time>
      </trkpt>
      <trkpt lat="42.384980000" lon="-2.531374000">
        <ele>558.70</ele>
        <time>2016-10-29T09:29:30Z</time>
      </trkpt>
      <trkpt lat="42.384973000" lon="-2.531331000">
        <ele>558.80</ele>
        <time>2016-10-29T09:29:31Z</time>
      </trkpt>
      <trkpt lat="42.384968000" lon="-2.531286000">
        <ele>558.80</ele>
        <time>2016-10-29T09:29:32Z</time>
      </trkpt>
      <trkpt lat="42.384964000" lon="-2.531242000">
        <ele>559.00</ele>
        <time>2016-10-29T09:29:33Z</time>
      </trkpt>
      <trkpt lat="42.384959000" lon="-2.531200000">
        <ele>559.10</ele>
        <time>2016-10-29T09:29:34Z</time>
      </trkpt>
      <trkpt lat="42.384952000" lon="-2.531159000">
        <ele>559.20</ele>
        <time>2016-10-29T09:29:35Z</time>
      </trkpt>
      <trkpt lat="42.384945000" lon="-2.531112000">
        <ele>559.30</ele>
        <time>2016-10-29T09:29:36Z</time>
      </trkpt>
      <trkpt lat="42.384938000" lon="-2.531068000">
        <ele>559.30</ele>
        <time>2016-10-29T09:29:37Z</time>
      </trkpt>
      <trkpt lat="42.384931000" lon="-2.531025000">
        <ele>559.30</ele>
        <time>2016-10-29T09:29:38Z</time>
      </trkpt>
      <trkpt lat="42.384927000" lon="-2.530984000">
        <ele>559.40</ele>
        <time>2016-10-29T09:29:39Z</time>
      </trkpt>
      <trkpt lat="42.384922000" lon="-2.530941000">
        <ele>559.50</ele>
        <time>2016-10-29T09:29:40Z</time>
      </trkpt>
      <trkpt lat="42.384916000" lon="-2.530896000">
        <ele>559.60</ele>
        <time>2016-10-29T09:29:41Z</time>
      </trkpt>
      <trkpt lat="42.384909000" lon="-2.530851000">
        <ele>559.60</ele>
        <time>2016-10-29T09:29:42Z</time>
      </trkpt>
      <trkpt lat="42.384902000" lon="-2.530806000">
        <ele>559.70</ele>
        <time>2016-10-29T09:29:43Z</time>
      </trkpt>
      <trkpt lat="42.384894000" lon="-2.530762000">
        <ele>559.80</ele>
        <time>2016-10-29T09:29:44Z</time>
      </trkpt>
      <trkpt lat="42.384886000" lon="-2.530720000">
        <ele>559.70</ele>
        <time>2016-10-29T09:29:45Z</time>
      </trkpt>
      <trkpt lat="42.384880000" lon="-2.530675000">
        <ele>559.70</ele>
        <time>2016-10-29T09:29:46Z</time>
      </trkpt>
      <trkpt lat="42.384872000" lon="-2.530627000">
        <ele>559.80</ele>
        <time>2016-10-29T09:29:47Z</time>
      </trkpt>
      <trkpt lat="42.384866000" lon="-2.530582000">
        <ele>559.80</ele>
        <time>2016-10-29T09:29:48Z</time>
      </trkpt>
      <trkpt lat="42.384867000" lon="-2.530533000">
        <ele>560.00</ele>
        <time>2016-10-29T09:29:49Z</time>
      </trkpt>
      <trkpt lat="42.384874000" lon="-2.530484000">
        <ele>560.20</ele>
        <time>2016-10-29T09:29:50Z</time>
      </trkpt>
      <trkpt lat="42.384890000" lon="-2.530436000">
        <ele>560.30</ele>
        <time>2016-10-29T09:29:51Z</time>
      </trkpt>
      <trkpt lat="42.384913000" lon="-2.530397000">
        <ele>560.40</ele>
        <time>2016-10-29T09:29:52Z</time>
      </trkpt>
      <trkpt lat="42.384939000" lon="-2.530365000">
        <ele>560.70</ele>
        <time>2016-10-29T09:29:53Z</time>
      </trkpt>
      <trkpt lat="42.384966000" lon="-2.530342000">
        <ele>560.90</ele>
        <time>2016-10-29T09:29:54Z</time>
      </trkpt>
      <trkpt lat="42.384998000" lon="-2.530318000">
        <ele>561.10</ele>
        <time>2016-10-29T09:29:55Z</time>
      </trkpt>
      <trkpt lat="42.385029000" lon="-2.530293000">
        <ele>561.20</ele>
        <time>2016-10-29T09:29:56Z</time>
      </trkpt>
      <trkpt lat="42.385058000" lon="-2.530265000">
        <ele>561.30</ele>
        <time>2016-10-29T09:29:57Z</time>
      </trkpt>
      <trkpt lat="42.385088000" lon="-2.530235000">
        <ele>561.40</ele>
        <time>2016-10-29T09:29:58Z</time>
      </trkpt>
      <trkpt lat="42.385118000" lon="-2.530203000">
        <ele>561.40</ele>
        <time>2016-10-29T09:29:59Z</time>
      </trkpt>
      <trkpt lat="42.385146000" lon="-2.530169000">
        <ele>561.50</ele>
        <time>2016-10-29T09:30:00Z</time>
      </trkpt>
      <trkpt lat="42.385174000" lon="-2.530135000">
        <ele>561.60</ele>
        <time>2016-10-29T09:30:01Z</time>
      </trkpt>
      <trkpt lat="42.385200000" lon="-2.530099000">
        <ele>561.70</ele>
        <time>2016-10-29T09:30:02Z</time>
      </trkpt>
      <trkpt lat="42.385223000" lon="-2.530055000">
        <ele>561.70</ele>
        <time>2016-10-29T09:30:03Z</time>
      </trkpt>
      <trkpt lat="42.385246000" lon="-2.530014000">
        <ele>561.80</ele>
        <time>2016-10-29T09:30:04Z</time>
      </trkpt>
      <trkpt lat="42.385270000" lon="-2.529971000">
        <ele>561.80</ele>
        <time>2016-10-29T09:30:05Z</time>
      </trkpt>
      <trkpt lat="42.385294000" lon="-2.529928000">
        <ele>561.80</ele>
        <time>2016-10-29T09:30:06Z</time>
      </trkpt>
      <trkpt lat="42.385323000" lon="-2.529884000">
        <ele>561.70</ele>
        <time>2016-10-29T09:30:07Z</time>
      </trkpt>
      <trkpt lat="42.385397000" lon="-2.529800000">
        <ele>561.40</ele>
        <time>2016-10-29T09:30:09Z</time>
      </trkpt>
      <trkpt lat="42.385436000" lon="-2.529770000">
        <ele>561.20</ele>
        <time>2016-10-29T09:30:10Z</time>
      </trkpt>
      <trkpt lat="42.385474000" lon="-2.529735000">
        <ele>561.10</ele>
        <time>2016-10-29T09:30:11Z</time>
      </trkpt>
      <trkpt lat="42.385513000" lon="-2.529706000">
        <ele>561.00</ele>
        <time>2016-10-29T09:30:12Z</time>
      </trkpt>
      <trkpt lat="42.385551000" lon="-2.529677000">
        <ele>561.10</ele>
        <time>2016-10-29T09:30:13Z</time>
      </trkpt>
      <trkpt lat="42.385590000" lon="-2.529648000">
        <ele>561.20</ele>
        <time>2016-10-29T09:30:14Z</time>
      </trkpt>
      <trkpt lat="42.385629000" lon="-2.529621000">
        <ele>561.30</ele>
        <time>2016-10-29T09:30:15Z</time>
      </trkpt>
      <trkpt lat="42.385666000" lon="-2.529594000">
        <ele>561.30</ele>
        <time>2016-10-29T09:30:16Z</time>
      </trkpt>
      <trkpt lat="42.385706000" lon="-2.529570000">
        <ele>561.30</ele>
        <time>2016-10-29T09:30:17Z</time>
      </trkpt>
      <trkpt lat="42.385741000" lon="-2.529539000">
        <ele>561.30</ele>
        <time>2016-10-29T09:30:18Z</time>
      </trkpt>
      <trkpt lat="42.385774000" lon="-2.529509000">
        <ele>560.90</ele>
        <time>2016-10-29T09:30:19Z</time>
      </trkpt>
      <trkpt lat="42.385808000" lon="-2.529484000">
        <ele>560.70</ele>
        <time>2016-10-29T09:30:20Z</time>
      </trkpt>
      <trkpt lat="42.385840000" lon="-2.529461000">
        <ele>560.50</ele>
        <time>2016-10-29T09:30:21Z</time>
      </trkpt>
      <trkpt lat="42.385871000" lon="-2.529440000">
        <ele>560.30</ele>
        <time>2016-10-29T09:30:22Z</time>
      </trkpt>
      <trkpt lat="42.385900000" lon="-2.529420000">
        <ele>560.50</ele>
        <time>2016-10-29T09:30:23Z</time>
      </trkpt>
      <trkpt lat="42.385930000" lon="-2.529397000">
        <ele>560.60</ele>
        <time>2016-10-29T09:30:24Z</time>
      </trkpt>
      <trkpt lat="42.385955000" lon="-2.529368000">
        <ele>560.70</ele>
        <time>2016-10-29T09:30:25Z</time>
      </trkpt>
      <trkpt lat="42.385977000" lon="-2.529337000">
        <ele>560.70</ele>
        <time>2016-10-29T09:30:26Z</time>
      </trkpt>
      <trkpt lat="42.385987000" lon="-2.529302000">
        <ele>560.80</ele>
        <time>2016-10-29T09:30:27Z</time>
      </trkpt>
      <trkpt lat="42.385992000" lon="-2.529271000">
        <ele>560.80</ele>
        <time>2016-10-29T09:30:28Z</time>
      </trkpt>
      <trkpt lat="42.385993000" lon="-2.529241000">
        <ele>560.90</ele>
        <time>2016-10-29T09:30:29Z</time>
      </trkpt>
      <trkpt lat="42.385991000" lon="-2.529212000">
        <ele>560.90</ele>
        <time>2016-10-29T09:30:30Z</time>
      </trkpt>
      <trkpt lat="42.385986000" lon="-2.529193000">
        <ele>561.00</ele>
        <time>2016-10-29T09:30:31Z</time>
      </trkpt>
      <trkpt lat="42.385978000" lon="-2.529179000">
        <ele>561.10</ele>
        <time>2016-10-29T09:30:32Z</time>
      </trkpt>
      <trkpt lat="42.385975000" lon="-2.529166000">
        <ele>561.30</ele>
        <time>2016-10-29T09:30:33Z</time>
      </trkpt>
      <trkpt lat="42.385972000" lon="-2.529148000">
        <ele>561.40</ele>
        <time>2016-10-29T09:30:34Z</time>
      </trkpt>
      <trkpt lat="42.385963000" lon="-2.529137000">
        <ele>561.50</ele>
        <time>2016-10-29T09:30:35Z</time>
      </trkpt>
      <trkpt lat="42.385953000" lon="-2.529125000">
        <ele>561.50</ele>
        <time>2016-10-29T09:30:36Z</time>
      </trkpt>
      <trkpt lat="42.385944000" lon="-2.529112000">
        <ele>561.60</ele>
        <time>2016-10-29T09:30:37Z</time>
      </trkpt>
      <trkpt lat="42.385936000" lon="-2.529106000">
        <ele>561.60</ele>
        <time>2016-10-29T09:30:38Z</time>
      </trkpt>
      <trkpt lat="42.385930000" lon="-2.529103000">
        <ele>561.60</ele>
        <time>2016-10-29T09:30:39Z</time>
      </trkpt>
      <trkpt lat="42.385925000" lon="-2.529107000">
        <ele>561.70</ele>
        <time>2016-10-29T09:30:40Z</time>
      </trkpt>
      <trkpt lat="42.385917000" lon="-2.529109000">
        <ele>561.80</ele>
        <time>2016-10-29T09:30:41Z</time>
      </trkpt>
      <trkpt lat="42.385903000" lon="-2.529107000">
        <ele>561.90</ele>
        <time>2016-10-29T09:30:42Z</time>
      </trkpt>
      <trkpt lat="42.385888000" lon="-2.529106000">
        <ele>562.00</ele>
        <time>2016-10-29T09:30:43Z</time>
      </trkpt>
      <trkpt lat="42.385868000" lon="-2.529106000">
        <ele>562.00</ele>
        <time>2016-10-29T09:30:44Z</time>
      </trkpt>
      <trkpt lat="42.385847000" lon="-2.529112000">
        <ele>562.10</ele>
        <time>2016-10-29T09:30:45Z</time>
      </trkpt>
      <trkpt lat="42.385825000" lon="-2.529110000">
        <ele>562.20</ele>
        <time>2016-10-29T09:30:46Z</time>
      </trkpt>
      <trkpt lat="42.385802000" lon="-2.529113000">
        <ele>562.20</ele>
        <time>2016-10-29T09:30:47Z</time>
      </trkpt>
      <trkpt lat="42.385777000" lon="-2.529112000">
        <ele>562.20</ele>
        <time>2016-10-29T09:30:48Z</time>
      </trkpt>
      <trkpt lat="42.385752000" lon="-2.529106000">
        <ele>562.30</ele>
        <time>2016-10-29T09:30:49Z</time>
      </trkpt>
      <trkpt lat="42.385729000" lon="-2.529102000">
        <ele>562.30</ele>
        <time>2016-10-29T09:30:50Z</time>
      </trkpt>
      <trkpt lat="42.385703000" lon="-2.529098000">
        <ele>562.30</ele>
        <time>2016-10-29T09:30:51Z</time>
      </trkpt>
      <trkpt lat="42.385678000" lon="-2.529091000">
        <ele>562.40</ele>
        <time>2016-10-29T09:30:52Z</time>
      </trkpt>
      <trkpt lat="42.385648000" lon="-2.529085000">
        <ele>562.50</ele>
        <time>2016-10-29T09:30:53Z</time>
      </trkpt>
      <trkpt lat="42.385617000" lon="-2.529075000">
        <ele>562.60</ele>
        <time>2016-10-29T09:30:54Z</time>
      </trkpt>
      <trkpt lat="42.385586000" lon="-2.529066000">
        <ele>562.70</ele>
        <time>2016-10-29T09:30:55Z</time>
      </trkpt>
      <trkpt lat="42.385554000" lon="-2.529055000">
        <ele>562.80</ele>
        <time>2016-10-29T09:30:56Z</time>
      </trkpt>
      <trkpt lat="42.385525000" lon="-2.529046000">
        <ele>562.90</ele>
        <time>2016-10-29T09:30:57Z</time>
      </trkpt>
      <trkpt lat="42.385494000" lon="-2.529038000">
        <ele>562.90</ele>
        <time>2016-10-29T09:30:58Z</time>
      </trkpt>
      <trkpt lat="42.385464000" lon="-2.529036000">
        <ele>563.00</ele>
        <time>2016-10-29T09:30:59Z</time>
      </trkpt>
      <trkpt lat="42.385434000" lon="-2.529031000">
        <ele>563.00</ele>
        <time>2016-10-29T09:31:00Z</time>
      </trkpt>
      <trkpt lat="42.385402000" lon="-2.529022000">
        <ele>563.10</ele>
        <time>2016-10-29T09:31:01Z</time>
      </trkpt>
      <trkpt lat="42.385371000" lon="-2.529015000">
        <ele>563.20</ele>
        <time>2016-10-29T09:31:02Z</time>
      </trkpt>
      <trkpt lat="42.385344000" lon="-2.529004000">
        <ele>563.30</ele>
        <time>2016-10-29T09:31:03Z</time>
      </trkpt>
      <trkpt lat="42.385316000" lon="-2.528990000">
        <ele>563.40</ele>
        <time>2016-10-29T09:31:04Z</time>
      </trkpt>
      <trkpt lat="42.385287000" lon="-2.528982000">
        <ele>563.40</ele>
        <time>2016-10-29T09:31:05Z</time>
      </trkpt>
      <trkpt lat="42.385261000" lon="-2.528969000">
        <ele>563.50</ele>
        <time>2016-10-29T09:31:06Z</time>
      </trkpt>
      <trkpt lat="42.385233000" lon="-2.528956000">
        <ele>563.50</ele>
        <time>2016-10-29T09:31:07Z</time>
      </trkpt>
      <trkpt lat="42.385209000" lon="-2.528948000">
        <ele>563.50</ele>
        <time>2016-10-29T09:31:08Z</time>
      </trkpt>
      <trkpt lat="42.385173000" lon="-2.528930000">
        <ele>563.80</ele>
        <time>2016-10-29T09:31:10Z</time>
      </trkpt>
      <trkpt lat="42.385162000" lon="-2.528904000">
        <ele>563.80</ele>
        <time>2016-10-29T09:31:11Z</time>
      </trkpt>
      <trkpt lat="42.385165000" lon="-2.528871000">
        <ele>563.90</ele>
        <time>2016-10-29T09:31:12Z</time>
      </trkpt>
      <trkpt lat="42.385171000" lon="-2.528835000">
        <ele>564.10</ele>
        <time>2016-10-29T09:31:13Z</time>
      </trkpt>
      <trkpt lat="42.385186000" lon="-2.528795000">
        <ele>564.20</ele>
        <time>2016-10-29T09:31:14Z</time>
      </trkpt>
      <trkpt lat="42.385200000" lon="-2.528754000">
        <ele>564.30</ele>
        <time>2016-10-29T09:31:15Z</time>
      </trkpt>
      <trkpt lat="42.385216000" lon="-2.528711000">
        <ele>564.30</ele>
        <time>2016-10-29T09:31:16Z</time>
      </trkpt>
      <trkpt lat="42.385231000" lon="-2.528667000">
        <ele>564.30</ele>
        <time>2016-10-29T09:31:17Z</time>
      </trkpt>
      <trkpt lat="42.385244000" lon="-2.528623000">
        <ele>564.30</ele>
        <time>2016-10-29T09:31:18Z</time>
      </trkpt>
      <trkpt lat="42.385256000" lon="-2.528582000">
        <ele>564.30</ele>
        <time>2016-10-29T09:31:19Z</time>
      </trkpt>
      <trkpt lat="42.385265000" lon="-2.528541000">
        <ele>564.30</ele>
        <time>2016-10-29T09:31:20Z</time>
      </trkpt>
      <trkpt lat="42.385271000" lon="-2.528501000">
        <ele>564.30</ele>
        <time>2016-10-29T09:31:21Z</time>
      </trkpt>
      <trkpt lat="42.385279000" lon="-2.528464000">
        <ele>564.30</ele>
        <time>2016-10-29T09:31:22Z</time>
      </trkpt>
      <trkpt lat="42.385287000" lon="-2.528425000">
        <ele>564.50</ele>
        <time>2016-10-29T09:31:23Z</time>
      </trkpt>
      <trkpt lat="42.385298000" lon="-2.528388000">
        <ele>564.60</ele>
        <time>2016-10-29T09:31:24Z</time>
      </trkpt>
      <trkpt lat="42.385308000" lon="-2.528350000">
        <ele>564.70</ele>
        <time>2016-10-29T09:31:25Z</time>
      </trkpt>
      <trkpt lat="42.385322000" lon="-2.528315000">
        <ele>564.70</ele>
        <time>2016-10-29T09:31:26Z</time>
      </trkpt>
      <trkpt lat="42.385336000" lon="-2.528278000">
        <ele>564.80</ele>
        <time>2016-10-29T09:31:27Z</time>
      </trkpt>
      <trkpt lat="42.385350000" lon="-2.528239000">
        <ele>564.90</ele>
        <time>2016-10-29T09:31:28Z</time>
      </trkpt>
      <trkpt lat="42.385366000" lon="-2.528203000">
        <ele>565.00</ele>
        <time>2016-10-29T09:31:29Z</time>
      </trkpt>
      <trkpt lat="42.385381000" lon="-2.528170000">
        <ele>565.10</ele>
        <time>2016-10-29T09:31:30Z</time>
      </trkpt>
      <trkpt lat="42.385394000" lon="-2.528133000">
        <ele>565.30</ele>
        <time>2016-10-29T09:31:31Z</time>
      </trkpt>
      <trkpt lat="42.385407000" lon="-2.528095000">
        <ele>565.40</ele>
        <time>2016-10-29T09:31:32Z</time>
      </trkpt>
      <trkpt lat="42.385421000" lon="-2.528060000">
        <ele>565.50</ele>
        <time>2016-10-29T09:31:33Z</time>
      </trkpt>
      <trkpt lat="42.385436000" lon="-2.528027000">
        <ele>565.50</ele>
        <time>2016-10-29T09:31:34Z</time>
      </trkpt>
      <trkpt lat="42.385449000" lon="-2.527993000">
        <ele>565.40</ele>
        <time>2016-10-29T09:31:35Z</time>
      </trkpt>
      <trkpt lat="42.385460000" lon="-2.527959000">
        <ele>565.40</ele>
        <time>2016-10-29T09:31:36Z</time>
      </trkpt>
      <trkpt lat="42.385471000" lon="-2.527925000">
        <ele>565.30</ele>
        <time>2016-10-29T09:31:37Z</time>
      </trkpt>
      <trkpt lat="42.385480000" lon="-2.527898000">
        <ele>565.30</ele>
        <time>2016-10-29T09:31:38Z</time>
      </trkpt>
      <trkpt lat="42.385489000" lon="-2.527875000">
        <ele>565.30</ele>
        <time>2016-10-29T09:31:39Z</time>
      </trkpt>
      <trkpt lat="42.385495000" lon="-2.527854000">
        <ele>565.20</ele>
        <time>2016-10-29T09:31:40Z</time>
      </trkpt>
      <trkpt lat="42.385506000" lon="-2.527841000">
        <ele>565.30</ele>
        <time>2016-10-29T09:31:41Z</time>
      </trkpt>
      <trkpt lat="42.385521000" lon="-2.527833000">
        <ele>565.40</ele>
        <time>2016-10-29T09:31:42Z</time>
      </trkpt>
      <trkpt lat="42.385542000" lon="-2.527830000">
        <ele>565.40</ele>
        <time>2016-10-29T09:31:43Z</time>
      </trkpt>
      <trkpt lat="42.385568000" lon="-2.527832000">
        <ele>565.40</ele>
        <time>2016-10-29T09:31:44Z</time>
      </trkpt>
      <trkpt lat="42.385596000" lon="-2.527837000">
        <ele>565.40</ele>
        <time>2016-10-29T09:31:45Z</time>
      </trkpt>
      <trkpt lat="42.385622000" lon="-2.527843000">
        <ele>565.40</ele>
        <time>2016-10-29T09:31:46Z</time>
      </trkpt>
      <trkpt lat="42.385651000" lon="-2.527847000">
        <ele>565.40</ele>
        <time>2016-10-29T09:31:47Z</time>
      </trkpt>
      <trkpt lat="42.385676000" lon="-2.527849000">
        <ele>565.30</ele>
        <time>2016-10-29T09:31:48Z</time>
      </trkpt>
      <trkpt lat="42.385697000" lon="-2.527842000">
        <ele>565.30</ele>
        <time>2016-10-29T09:31:49Z</time>
      </trkpt>
      <trkpt lat="42.385720000" lon="-2.527827000">
        <ele>565.30</ele>
        <time>2016-10-29T09:31:50Z</time>
      </trkpt>
      <trkpt lat="42.385743000" lon="-2.527820000">
        <ele>565.10</ele>
        <time>2016-10-29T09:31:51Z</time>
      </trkpt>
      <trkpt lat="42.385770000" lon="-2.527809000">
        <ele>565.00</ele>
        <time>2016-10-29T09:31:52Z</time>
      </trkpt>
      <trkpt lat="42.385794000" lon="-2.527792000">
        <ele>564.90</ele>
        <time>2016-10-29T09:31:53Z</time>
      </trkpt>
      <trkpt lat="42.385812000" lon="-2.527765000">
        <ele>564.80</ele>
        <time>2016-10-29T09:31:54Z</time>
      </trkpt>
      <trkpt lat="42.385819000" lon="-2.527729000">
        <ele>564.60</ele>
        <time>2016-10-29T09:31:55Z</time>
      </trkpt>
      <trkpt lat="42.385815000" lon="-2.527688000">
        <ele>564.40</ele>
        <time>2016-10-29T09:31:56Z</time>
      </trkpt>
      <trkpt lat="42.385812000" lon="-2.527635000">
        <ele>564.30</ele>
        <time>2016-10-29T09:31:57Z</time>
      </trkpt>
      <trkpt lat="42.385807000" lon="-2.527583000">
        <ele>564.20</ele>
        <time>2016-10-29T09:31:58Z</time>
      </trkpt>
      <trkpt lat="42.385801000" lon="-2.527528000">
        <ele>564.00</ele>
        <time>2016-10-29T09:31:59Z</time>
      </trkpt>
      <trkpt lat="42.385795000" lon="-2.527471000">
        <ele>563.90</ele>
        <time>2016-10-29T09:32:00Z</time>
      </trkpt>
      <trkpt lat="42.385788000" lon="-2.527414000">
        <ele>563.90</ele>
        <time>2016-10-29T09:32:01Z</time>
      </trkpt>
      <trkpt lat="42.385782000" lon="-2.527357000">
        <ele>563.90</ele>
        <time>2016-10-29T09:32:02Z</time>
      </trkpt>
      <trkpt lat="42.385775000" lon="-2.527301000">
        <ele>563.90</ele>
        <time>2016-10-29T09:32:03Z</time>
      </trkpt>
      <trkpt lat="42.385764000" lon="-2.527244000">
        <ele>563.90</ele>
        <time>2016-10-29T09:32:04Z</time>
      </trkpt>
      <trkpt lat="42.385751000" lon="-2.527191000">
        <ele>564.00</ele>
        <time>2016-10-29T09:32:05Z</time>
      </trkpt>
      <trkpt lat="42.385737000" lon="-2.527145000">
        <ele>564.00</ele>
        <time>2016-10-29T09:32:06Z</time>
      </trkpt>
      <trkpt lat="42.385721000" lon="-2.527099000">
        <ele>564.20</ele>
        <time>2016-10-29T09:32:07Z</time>
      </trkpt>
      <trkpt lat="42.385706000" lon="-2.527056000">
        <ele>564.40</ele>
        <time>2016-10-29T09:32:08Z</time>
      </trkpt>
      <trkpt lat="42.385691000" lon="-2.527015000">
        <ele>564.70</ele>
        <time>2016-10-29T09:32:09Z</time>
      </trkpt>
      <trkpt lat="42.385661000" lon="-2.526937000">
        <ele>565.30</ele>
        <time>2016-10-29T09:32:11Z</time>
      </trkpt>
      <trkpt lat="42.385652000" lon="-2.526898000">
        <ele>565.50</ele>
        <time>2016-10-29T09:32:12Z</time>
      </trkpt>
      <trkpt lat="42.385642000" lon="-2.526858000">
        <ele>565.80</ele>
        <time>2016-10-29T09:32:13Z</time>
      </trkpt>
      <trkpt lat="42.385628000" lon="-2.526822000">
        <ele>566.10</ele>
        <time>2016-10-29T09:32:14Z</time>
      </trkpt>
      <trkpt lat="42.385611000" lon="-2.526785000">
        <ele>566.30</ele>
        <time>2016-10-29T09:32:15Z</time>
      </trkpt>
      <trkpt lat="42.385597000" lon="-2.526745000">
        <ele>566.40</ele>
        <time>2016-10-29T09:32:16Z</time>
      </trkpt>
      <trkpt lat="42.385579000" lon="-2.526704000">
        <ele>566.60</ele>
        <time>2016-10-29T09:32:17Z</time>
      </trkpt>
      <trkpt lat="42.385561000" lon="-2.526662000">
        <ele>566.80</ele>
        <time>2016-10-29T09:32:18Z</time>
      </trkpt>
      <trkpt lat="42.385540000" lon="-2.526626000">
        <ele>567.00</ele>
        <time>2016-10-29T09:32:19Z</time>
      </trkpt>
      <trkpt lat="42.385523000" lon="-2.526587000">
        <ele>567.20</ele>
        <time>2016-10-29T09:32:20Z</time>
      </trkpt>
      <trkpt lat="42.385505000" lon="-2.526546000">
        <ele>567.40</ele>
        <time>2016-10-29T09:32:21Z</time>
      </trkpt>
      <trkpt lat="42.385487000" lon="-2.526502000">
        <ele>567.60</ele>
        <time>2016-10-29T09:32:22Z</time>
      </trkpt>
      <trkpt lat="42.385470000" lon="-2.526456000">
        <ele>567.70</ele>
        <time>2016-10-29T09:32:23Z</time>
      </trkpt>
      <trkpt lat="42.385456000" lon="-2.526407000">
        <ele>567.80</ele>
        <time>2016-10-29T09:32:24Z</time>
      </trkpt>
      <trkpt lat="42.385439000" lon="-2.526359000">
        <ele>567.90</ele>
        <time>2016-10-29T09:32:25Z</time>
      </trkpt>
      <trkpt lat="42.385418000" lon="-2.526312000">
        <ele>568.10</ele>
        <time>2016-10-29T09:32:26Z</time>
      </trkpt>
      <trkpt lat="42.385399000" lon="-2.526264000">
        <ele>568.10</ele>
        <time>2016-10-29T09:32:27Z</time>
      </trkpt>
      <trkpt lat="42.385381000" lon="-2.526209000">
        <ele>568.10</ele>
        <time>2016-10-29T09:32:28Z</time>
      </trkpt>
      <trkpt lat="42.385363000" lon="-2.526154000">
        <ele>568.10</ele>
        <time>2016-10-29T09:32:29Z</time>
      </trkpt>
      <trkpt lat="42.385344000" lon="-2.526102000">
        <ele>568.10</ele>
        <time>2016-10-29T09:32:30Z</time>
      </trkpt>
      <trkpt lat="42.385320000" lon="-2.526055000">
        <ele>568.10</ele>
        <time>2016-10-29T09:32:31Z</time>
      </trkpt>
      <trkpt lat="42.385293000" lon="-2.526009000">
        <ele>568.10</ele>
        <time>2016-10-29T09:32:32Z</time>
      </trkpt>
      <trkpt lat="42.385261000" lon="-2.525966000">
        <ele>568.20</ele>
        <time>2016-10-29T09:32:33Z</time>
      </trkpt>
      <trkpt lat="42.385230000" lon="-2.525923000">
        <ele>568.20</ele>
        <time>2016-10-29T09:32:34Z</time>
      </trkpt>
      <trkpt lat="42.385197000" lon="-2.525878000">
        <ele>568.30</ele>
        <time>2016-10-29T09:32:35Z</time>
      </trkpt>
      <trkpt lat="42.385165000" lon="-2.525834000">
        <ele>568.40</ele>
        <time>2016-10-29T09:32:36Z</time>
      </trkpt>
      <trkpt lat="42.385130000" lon="-2.525789000">
        <ele>568.40</ele>
        <time>2016-10-29T09:32:37Z</time>
      </trkpt>
      <trkpt lat="42.385096000" lon="-2.525743000">
        <ele>568.40</ele>
        <time>2016-10-29T09:32:38Z</time>
      </trkpt>
      <trkpt lat="42.385059000" lon="-2.525700000">
        <ele>568.40</ele>
        <time>2016-10-29T09:32:39Z</time>
      </trkpt>
      <trkpt lat="42.385023000" lon="-2.525658000">
        <ele>568.40</ele>
        <time>2016-10-29T09:32:40Z</time>
      </trkpt>
      <trkpt lat="42.384986000" lon="-2.525615000">
        <ele>568.40</ele>
        <time>2016-10-29T09:32:41Z</time>
      </trkpt>
      <trkpt lat="42.384949000" lon="-2.525570000">
        <ele>568.40</ele>
        <time>2016-10-29T09:32:42Z</time>
      </trkpt>
      <trkpt lat="42.384911000" lon="-2.525529000">
        <ele>568.40</ele>
        <time>2016-10-29T09:32:43Z</time>
      </trkpt>
      <trkpt lat="42.384876000" lon="-2.525484000">
        <ele>568.40</ele>
        <time>2016-10-29T09:32:44Z</time>
      </trkpt>
      <trkpt lat="42.384839000" lon="-2.525434000">
        <ele>568.40</ele>
        <time>2016-10-29T09:32:45Z</time>
      </trkpt>
      <trkpt lat="42.384804000" lon="-2.525382000">
        <ele>568.40</ele>
        <time>2016-10-29T09:32:46Z</time>
      </trkpt>
      <trkpt lat="42.384769000" lon="-2.525334000">
        <ele>568.30</ele>
        <time>2016-10-29T09:32:47Z</time>
      </trkpt>
      <trkpt lat="42.384738000" lon="-2.525284000">
        <ele>568.30</ele>
        <time>2016-10-29T09:32:48Z</time>
      </trkpt>
      <trkpt lat="42.384705000" lon="-2.525234000">
        <ele>568.40</ele>
        <time>2016-10-29T09:32:49Z</time>
      </trkpt>
      <trkpt lat="42.384673000" lon="-2.525182000">
        <ele>568.50</ele>
        <time>2016-10-29T09:32:50Z</time>
      </trkpt>
      <trkpt lat="42.384643000" lon="-2.525130000">
        <ele>568.60</ele>
        <time>2016-10-29T09:32:51Z</time>
      </trkpt>
      <trkpt lat="42.384611000" lon="-2.525079000">
        <ele>568.70</ele>
        <time>2016-10-29T09:32:52Z</time>
      </trkpt>
      <trkpt lat="42.384583000" lon="-2.525024000">
        <ele>568.90</ele>
        <time>2016-10-29T09:32:53Z</time>
      </trkpt>
      <trkpt lat="42.384551000" lon="-2.524972000">
        <ele>569.10</ele>
        <time>2016-10-29T09:32:54Z</time>
      </trkpt>
      <trkpt lat="42.384525000" lon="-2.524917000">
        <ele>569.20</ele>
        <time>2016-10-29T09:32:55Z</time>
      </trkpt>
      <trkpt lat="42.384502000" lon="-2.524860000">
        <ele>569.40</ele>
        <time>2016-10-29T09:32:56Z</time>
      </trkpt>
      <trkpt lat="42.384482000" lon="-2.524801000">
        <ele>569.50</ele>
        <time>2016-10-29T09:32:57Z</time>
      </trkpt>
      <trkpt lat="42.384464000" lon="-2.524740000">
        <ele>569.50</ele>
        <time>2016-10-29T09:32:58Z</time>
      </trkpt>
      <trkpt lat="42.384448000" lon="-2.524682000">
        <ele>569.60</ele>
        <time>2016-10-29T09:32:59Z</time>
      </trkpt>
      <trkpt lat="42.384435000" lon="-2.524618000">
        <ele>569.60</ele>
        <time>2016-10-29T09:33:00Z</time>
      </trkpt>
      <trkpt lat="42.384423000" lon="-2.524555000">
        <ele>569.70</ele>
        <time>2016-10-29T09:33:01Z</time>
      </trkpt>
      <trkpt lat="42.384410000" lon="-2.524494000">
        <ele>569.80</ele>
        <time>2016-10-29T09:33:02Z</time>
      </trkpt>
      <trkpt lat="42.384397000" lon="-2.524429000">
        <ele>570.10</ele>
        <time>2016-10-29T09:33:03Z</time>
      </trkpt>
      <trkpt lat="42.384383000" lon="-2.524361000">
        <ele>570.30</ele>
        <time>2016-10-29T09:33:04Z</time>
      </trkpt>
      <trkpt lat="42.384372000" lon="-2.524295000">
        <ele>570.60</ele>
        <time>2016-10-29T09:33:05Z</time>
      </trkpt>
      <trkpt lat="42.384361000" lon="-2.524229000">
        <ele>570.70</ele>
        <time>2016-10-29T09:33:06Z</time>
      </trkpt>
      <trkpt lat="42.384353000" lon="-2.524161000">
        <ele>571.00</ele>
        <time>2016-10-29T09:33:07Z</time>
      </trkpt>
      <trkpt lat="42.384348000" lon="-2.524094000">
        <ele>571.20</ele>
        <time>2016-10-29T09:33:08Z</time>
      </trkpt>
      <trkpt lat="42.384347000" lon="-2.524027000">
        <ele>571.40</ele>
        <time>2016-10-29T09:33:09Z</time>
      </trkpt>
      <trkpt lat="42.384348000" lon="-2.523963000">
        <ele>571.60</ele>
        <time>2016-10-29T09:33:10Z</time>
      </trkpt>
      <trkpt lat="42.384360000" lon="-2.523854000">
        <ele>572.30</ele>
        <time>2016-10-29T09:33:12Z</time>
      </trkpt>
      <trkpt lat="42.384366000" lon="-2.523806000">
        <ele>572.50</ele>
        <time>2016-10-29T09:33:13Z</time>
      </trkpt>
      <trkpt lat="42.384369000" lon="-2.523765000">
        <ele>572.60</ele>
        <time>2016-10-29T09:33:14Z</time>
      </trkpt>
      <trkpt lat="42.384375000" lon="-2.523734000">
        <ele>573.00</ele>
        <time>2016-10-29T09:33:15Z</time>
      </trkpt>
      <trkpt lat="42.384376000" lon="-2.523708000">
        <ele>573.20</ele>
        <time>2016-10-29T09:33:16Z</time>
      </trkpt>
      <trkpt lat="42.384381000" lon="-2.523683000">
        <ele>573.40</ele>
        <time>2016-10-29T09:33:17Z</time>
      </trkpt>
      <trkpt lat="42.384388000" lon="-2.523656000">
        <ele>573.60</ele>
        <time>2016-10-29T09:33:18Z</time>
      </trkpt>
      <trkpt lat="42.384393000" lon="-2.523628000">
        <ele>573.80</ele>
        <time>2016-10-29T09:33:19Z</time>
      </trkpt>
      <trkpt lat="42.384400000" lon="-2.523599000">
        <ele>573.90</ele>
        <time>2016-10-29T09:33:20Z</time>
      </trkpt>
      <trkpt lat="42.384408000" lon="-2.523571000">
        <ele>574.00</ele>
        <time>2016-10-29T09:33:21Z</time>
      </trkpt>
      <trkpt lat="42.384415000" lon="-2.523536000">
        <ele>574.10</ele>
        <time>2016-10-29T09:33:22Z</time>
      </trkpt>
      <trkpt lat="42.384425000" lon="-2.523503000">
        <ele>574.20</ele>
        <time>2016-10-29T09:33:23Z</time>
      </trkpt>
      <trkpt lat="42.384440000" lon="-2.523469000">
        <ele>574.20</ele>
        <time>2016-10-29T09:33:24Z</time>
      </trkpt>
      <trkpt lat="42.384455000" lon="-2.523430000">
        <ele>574.50</ele>
        <time>2016-10-29T09:33:25Z</time>
      </trkpt>
      <trkpt lat="42.384467000" lon="-2.523390000">
        <ele>574.70</ele>
        <time>2016-10-29T09:33:26Z</time>
      </trkpt>
      <trkpt lat="42.384480000" lon="-2.523350000">
        <ele>574.80</ele>
        <time>2016-10-29T09:33:27Z</time>
      </trkpt>
      <trkpt lat="42.384490000" lon="-2.523306000">
        <ele>574.90</ele>
        <time>2016-10-29T09:33:28Z</time>
      </trkpt>
      <trkpt lat="42.384495000" lon="-2.523258000">
        <ele>575.00</ele>
        <time>2016-10-29T09:33:29Z</time>
      </trkpt>
      <trkpt lat="42.384502000" lon="-2.523212000">
        <ele>575.00</ele>
        <time>2016-10-29T09:33:30Z</time>
      </trkpt>
      <trkpt lat="42.384508000" lon="-2.523164000">
        <ele>575.30</ele>
        <time>2016-10-29T09:33:31Z</time>
      </trkpt>
      <trkpt lat="42.384513000" lon="-2.523117000">
        <ele>575.60</ele>
        <time>2016-10-29T09:33:32Z</time>
      </trkpt>
      <trkpt lat="42.384518000" lon="-2.523068000">
        <ele>575.70</ele>
        <time>2016-10-29T09:33:33Z</time>
      </trkpt>
      <trkpt lat="42.384523000" lon="-2.523018000">
        <ele>575.90</ele>
        <time>2016-10-29T09:33:34Z</time>
      </trkpt>
      <trkpt lat="42.384527000" lon="-2.522967000">
        <ele>576.00</ele>
        <time>2016-10-29T09:33:35Z</time>
      </trkpt>
      <trkpt lat="42.384532000" lon="-2.522916000">
        <ele>576.10</ele>
        <time>2016-10-29T09:33:36Z</time>
      </trkpt>
      <trkpt lat="42.384538000" lon="-2.522866000">
        <ele>576.30</ele>
        <time>2016-10-29T09:33:37Z</time>
      </trkpt>
      <trkpt lat="42.384544000" lon="-2.522816000">
        <ele>576.50</ele>
        <time>2016-10-29T09:33:38Z</time>
      </trkpt>
      <trkpt lat="42.384554000" lon="-2.522767000">
        <ele>576.80</ele>
        <time>2016-10-29T09:33:39Z</time>
      </trkpt>
      <trkpt lat="42.384561000" lon="-2.522717000">
        <ele>577.00</ele>
        <time>2016-10-29T09:33:40Z</time>
      </trkpt>
      <trkpt lat="42.384569000" lon="-2.522667000">
        <ele>577.20</ele>
        <time>2016-10-29T09:33:41Z</time>
      </trkpt>
      <trkpt lat="42.384580000" lon="-2.522618000">
        <ele>577.30</ele>
        <time>2016-10-29T09:33:42Z</time>
      </trkpt>
      <trkpt lat="42.384596000" lon="-2.522571000">
        <ele>577.20</ele>
        <time>2016-10-29T09:33:43Z</time>
      </trkpt>
      <trkpt lat="42.384609000" lon="-2.522524000">
        <ele>577.20</ele>
        <time>2016-10-29T09:33:44Z</time>
      </trkpt>
      <trkpt lat="42.384621000" lon="-2.522476000">
        <ele>577.10</ele>
        <time>2016-10-29T09:33:45Z</time>
      </trkpt>
      <trkpt lat="42.384626000" lon="-2.522423000">
        <ele>577.10</ele>
        <time>2016-10-29T09:33:46Z</time>
      </trkpt>
      <trkpt lat="42.384636000" lon="-2.522368000">
        <ele>577.00</ele>
        <time>2016-10-29T09:33:47Z</time>
      </trkpt>
      <trkpt lat="42.384652000" lon="-2.522314000">
        <ele>577.00</ele>
        <time>2016-10-29T09:33:48Z</time>
      </trkpt>
      <trkpt lat="42.384670000" lon="-2.522256000">
        <ele>577.00</ele>
        <time>2016-10-29T09:33:49Z</time>
      </trkpt>
      <trkpt lat="42.384689000" lon="-2.522193000">
        <ele>577.00</ele>
        <time>2016-10-29T09:33:50Z</time>
      </trkpt>
      <trkpt lat="42.384713000" lon="-2.522133000">
        <ele>576.70</ele>
        <time>2016-10-29T09:33:51Z</time>
      </trkpt>
      <trkpt lat="42.384736000" lon="-2.522069000">
        <ele>576.50</ele>
        <time>2016-10-29T09:33:52Z</time>
      </trkpt>
      <trkpt lat="42.384761000" lon="-2.522007000">
        <ele>576.40</ele>
        <time>2016-10-29T09:33:53Z</time>
      </trkpt>
      <trkpt lat="42.384789000" lon="-2.521945000">
        <ele>576.20</ele>
        <time>2016-10-29T09:33:54Z</time>
      </trkpt>
      <trkpt lat="42.384815000" lon="-2.521880000">
        <ele>576.00</ele>
        <time>2016-10-29T09:33:55Z</time>
      </trkpt>
      <trkpt lat="42.384840000" lon="-2.521813000">
        <ele>575.90</ele>
        <time>2016-10-29T09:33:56Z</time>
      </trkpt>
      <trkpt lat="42.384868000" lon="-2.521743000">
        <ele>575.90</ele>
        <time>2016-10-29T09:33:57Z</time>
      </trkpt>
      <trkpt lat="42.384894000" lon="-2.521674000">
        <ele>575.90</ele>
        <time>2016-10-29T09:33:58Z</time>
      </trkpt>
      <trkpt lat="42.384918000" lon="-2.521598000">
        <ele>575.80</ele>
        <time>2016-10-29T09:33:59Z</time>
      </trkpt>
      <trkpt lat="42.384942000" lon="-2.521522000">
        <ele>575.80</ele>
        <time>2016-10-29T09:34:00Z</time>
      </trkpt>
      <trkpt lat="42.384964000" lon="-2.521441000">
        <ele>575.70</ele>
        <time>2016-10-29T09:34:01Z</time>
      </trkpt>
      <trkpt lat="42.384986000" lon="-2.521361000">
        <ele>575.70</ele>
        <time>2016-10-29T09:34:02Z</time>
      </trkpt>
      <trkpt lat="42.385011000" lon="-2.521277000">
        <ele>575.40</ele>
        <time>2016-10-29T09:34:03Z</time>
      </trkpt>
      <trkpt lat="42.385041000" lon="-2.521193000">
        <ele>575.10</ele>
        <time>2016-10-29T09:34:04Z</time>
      </trkpt>
      <trkpt lat="42.385073000" lon="-2.521114000">
        <ele>574.90</ele>
        <time>2016-10-29T09:34:05Z</time>
      </trkpt>
      <trkpt lat="42.385104000" lon="-2.521037000">
        <ele>574.80</ele>
        <time>2016-10-29T09:34:06Z</time>
      </trkpt>
      <trkpt lat="42.385136000" lon="-2.520959000">
        <ele>574.50</ele>
        <time>2016-10-29T09:34:07Z</time>
      </trkpt>
      <trkpt lat="42.385167000" lon="-2.520883000">
        <ele>574.40</ele>
        <time>2016-10-29T09:34:08Z</time>
      </trkpt>
      <trkpt lat="42.385196000" lon="-2.520808000">
        <ele>574.10</ele>
        <time>2016-10-29T09:34:09Z</time>
      </trkpt>
      <trkpt lat="42.385226000" lon="-2.520734000">
        <ele>573.90</ele>
        <time>2016-10-29T09:34:10Z</time>
      </trkpt>
      <trkpt lat="42.385252000" lon="-2.520658000">
        <ele>573.70</ele>
        <time>2016-10-29T09:34:11Z</time>
      </trkpt>
      <trkpt lat="42.385289000" lon="-2.520504000">
        <ele>573.30</ele>
        <time>2016-10-29T09:34:13Z</time>
      </trkpt>
      <trkpt lat="42.385304000" lon="-2.520426000">
        <ele>573.20</ele>
        <time>2016-10-29T09:34:14Z</time>
      </trkpt>
      <trkpt lat="42.385320000" lon="-2.520348000">
        <ele>572.90</ele>
        <time>2016-10-29T09:34:15Z</time>
      </trkpt>
      <trkpt lat="42.385342000" lon="-2.520273000">
        <ele>572.70</ele>
        <time>2016-10-29T09:34:16Z</time>
      </trkpt>
      <trkpt lat="42.385369000" lon="-2.520201000">
        <ele>572.40</ele>
        <time>2016-10-29T09:34:17Z</time>
      </trkpt>
      <trkpt lat="42.385405000" lon="-2.520132000">
        <ele>572.20</ele>
        <time>2016-10-29T09:34:18Z</time>
      </trkpt>
      <trkpt lat="42.385437000" lon="-2.520070000">
        <ele>571.90</ele>
        <time>2016-10-29T09:34:19Z</time>
      </trkpt>
      <trkpt lat="42.385472000" lon="-2.520008000">
        <ele>571.70</ele>
        <time>2016-10-29T09:34:20Z</time>
      </trkpt>
      <trkpt lat="42.385509000" lon="-2.519950000">
        <ele>571.50</ele>
        <time>2016-10-29T09:34:21Z</time>
      </trkpt>
      <trkpt lat="42.385545000" lon="-2.519891000">
        <ele>571.30</ele>
        <time>2016-10-29T09:34:22Z</time>
      </trkpt>
      <trkpt lat="42.385585000" lon="-2.519835000">
        <ele>571.10</ele>
        <time>2016-10-29T09:34:23Z</time>
      </trkpt>
      <trkpt lat="42.385627000" lon="-2.519781000">
        <ele>571.00</ele>
        <time>2016-10-29T09:34:24Z</time>
      </trkpt>
      <trkpt lat="42.385667000" lon="-2.519728000">
        <ele>570.90</ele>
        <time>2016-10-29T09:34:25Z</time>
      </trkpt>
      <trkpt lat="42.385709000" lon="-2.519678000">
        <ele>570.90</ele>
        <time>2016-10-29T09:34:26Z</time>
      </trkpt>
      <trkpt lat="42.385751000" lon="-2.519626000">
        <ele>570.60</ele>
        <time>2016-10-29T09:34:27Z</time>
      </trkpt>
      <trkpt lat="42.385789000" lon="-2.519565000">
        <ele>570.50</ele>
        <time>2016-10-29T09:34:28Z</time>
      </trkpt>
      <trkpt lat="42.385824000" lon="-2.519500000">
        <ele>570.30</ele>
        <time>2016-10-29T09:34:29Z</time>
      </trkpt>
      <trkpt lat="42.385861000" lon="-2.519432000">
        <ele>570.20</ele>
        <time>2016-10-29T09:34:30Z</time>
      </trkpt>
      <trkpt lat="42.385899000" lon="-2.519366000">
        <ele>570.10</ele>
        <time>2016-10-29T09:34:31Z</time>
      </trkpt>
      <trkpt lat="42.385946000" lon="-2.519307000">
        <ele>570.00</ele>
        <time>2016-10-29T09:34:32Z</time>
      </trkpt>
      <trkpt lat="42.386000000" lon="-2.519263000">
        <ele>569.80</ele>
        <time>2016-10-29T09:34:33Z</time>
      </trkpt>
      <trkpt lat="42.386061000" lon="-2.519227000">
        <ele>569.60</ele>
        <time>2016-10-29T09:34:34Z</time>
      </trkpt>
      <trkpt lat="42.386121000" lon="-2.519188000">
        <ele>569.40</ele>
        <time>2016-10-29T09:34:35Z</time>
      </trkpt>
      <trkpt lat="42.386183000" lon="-2.519146000">
        <ele>569.20</ele>
        <time>2016-10-29T09:34:36Z</time>
      </trkpt>
      <trkpt lat="42.386245000" lon="-2.519099000">
        <ele>568.90</ele>
        <time>2016-10-29T09:34:37Z</time>
      </trkpt>
      <trkpt lat="42.386303000" lon="-2.519046000">
        <ele>568.60</ele>
        <time>2016-10-29T09:34:38Z</time>
      </trkpt>
      <trkpt lat="42.386359000" lon="-2.518985000">
        <ele>568.30</ele>
        <time>2016-10-29T09:34:39Z</time>
      </trkpt>
      <trkpt lat="42.386411000" lon="-2.518916000">
        <ele>568.10</ele>
        <time>2016-10-29T09:34:40Z</time>
      </trkpt>
      <trkpt lat="42.386462000" lon="-2.518849000">
        <ele>567.90</ele>
        <time>2016-10-29T09:34:41Z</time>
      </trkpt>
      <trkpt lat="42.386511000" lon="-2.518782000">
        <ele>567.70</ele>
        <time>2016-10-29T09:34:42Z</time>
      </trkpt>
      <trkpt lat="42.386558000" lon="-2.518714000">
        <ele>567.50</ele>
        <time>2016-10-29T09:34:43Z</time>
      </trkpt>
      <trkpt lat="42.386609000" lon="-2.518652000">
        <ele>567.30</ele>
        <time>2016-10-29T09:34:44Z</time>
      </trkpt>
      <trkpt lat="42.386659000" lon="-2.518592000">
        <ele>567.00</ele>
        <time>2016-10-29T09:34:45Z</time>
      </trkpt>
      <trkpt lat="42.386703000" lon="-2.518527000">
        <ele>566.80</ele>
        <time>2016-10-29T09:34:46Z</time>
      </trkpt>
      <trkpt lat="42.386749000" lon="-2.518464000">
        <ele>566.60</ele>
        <time>2016-10-29T09:34:47Z</time>
      </trkpt>
      <trkpt lat="42.386791000" lon="-2.518397000">
        <ele>566.50</ele>
        <time>2016-10-29T09:34:48Z</time>
      </trkpt>
      <trkpt lat="42.386832000" lon="-2.518329000">
        <ele>566.30</ele>
        <time>2016-10-29T09:34:49Z</time>
      </trkpt>
      <trkpt lat="42.386875000" lon="-2.518261000">
        <ele>566.10</ele>
        <time>2016-10-29T09:34:50Z</time>
      </trkpt>
      <trkpt lat="42.386916000" lon="-2.518193000">
        <ele>566.00</ele>
        <time>2016-10-29T09:34:51Z</time>
      </trkpt>
      <trkpt lat="42.386960000" lon="-2.518129000">
        <ele>565.90</ele>
        <time>2016-10-29T09:34:52Z</time>
      </trkpt>
      <trkpt lat="42.387006000" lon="-2.518064000">
        <ele>565.80</ele>
        <time>2016-10-29T09:34:53Z</time>
      </trkpt>
      <trkpt lat="42.387053000" lon="-2.517999000">
        <ele>565.80</ele>
        <time>2016-10-29T09:34:54Z</time>
      </trkpt>
      <trkpt lat="42.387097000" lon="-2.517926000">
        <ele>565.70</ele>
        <time>2016-10-29T09:34:55Z</time>
      </trkpt>
      <trkpt lat="42.387139000" lon="-2.517848000">
        <ele>565.70</ele>
        <time>2016-10-29T09:34:56Z</time>
      </trkpt>
      <trkpt lat="42.387180000" lon="-2.517769000">
        <ele>565.60</ele>
        <time>2016-10-29T09:34:57Z</time>
      </trkpt>
      <trkpt lat="42.387225000" lon="-2.517693000">
        <ele>565.60</ele>
        <time>2016-10-29T09:34:58Z</time>
      </trkpt>
      <trkpt lat="42.387275000" lon="-2.517623000">
        <ele>565.10</ele>
        <time>2016-10-29T09:34:59Z</time>
      </trkpt>
      <trkpt lat="42.387328000" lon="-2.517556000">
        <ele>564.80</ele>
        <time>2016-10-29T09:35:00Z</time>
      </trkpt>
      <trkpt lat="42.387383000" lon="-2.517488000">
        <ele>564.50</ele>
        <time>2016-10-29T09:35:01Z</time>
      </trkpt>
      <trkpt lat="42.387439000" lon="-2.517423000">
        <ele>564.40</ele>
        <time>2016-10-29T09:35:02Z</time>
      </trkpt>
      <trkpt lat="42.387496000" lon="-2.517359000">
        <ele>564.10</ele>
        <time>2016-10-29T09:35:03Z</time>
      </trkpt>
      <trkpt lat="42.387556000" lon="-2.517297000">
        <ele>563.90</ele>
        <time>2016-10-29T09:35:04Z</time>
      </trkpt>
      <trkpt lat="42.387616000" lon="-2.517233000">
        <ele>563.70</ele>
        <time>2016-10-29T09:35:05Z</time>
      </trkpt>
      <trkpt lat="42.387668000" lon="-2.517166000">
        <ele>563.50</ele>
        <time>2016-10-29T09:35:06Z</time>
      </trkpt>
      <trkpt lat="42.387717000" lon="-2.517097000">
        <ele>563.20</ele>
        <time>2016-10-29T09:35:07Z</time>
      </trkpt>
      <trkpt lat="42.387761000" lon="-2.517027000">
        <ele>562.90</ele>
        <time>2016-10-29T09:35:08Z</time>
      </trkpt>
      <trkpt lat="42.387799000" lon="-2.516956000">
        <ele>562.60</ele>
        <time>2016-10-29T09:35:09Z</time>
      </trkpt>
      <trkpt lat="42.387840000" lon="-2.516899000">
        <ele>562.30</ele>
        <time>2016-10-29T09:35:10Z</time>
      </trkpt>
      <trkpt lat="42.387888000" lon="-2.516853000">
        <ele>561.90</ele>
        <time>2016-10-29T09:35:11Z</time>
      </trkpt>
      <trkpt lat="42.387941000" lon="-2.516811000">
        <ele>561.70</ele>
        <time>2016-10-29T09:35:12Z</time>
      </trkpt>
      <trkpt lat="42.388051000" lon="-2.516721000">
        <ele>561.20</ele>
        <time>2016-10-29T09:35:14Z</time>
      </trkpt>
      <trkpt lat="42.388105000" lon="-2.516671000">
        <ele>561.00</ele>
        <time>2016-10-29T09:35:15Z</time>
      </trkpt>
      <trkpt lat="42.388159000" lon="-2.516618000">
        <ele>560.90</ele>
        <time>2016-10-29T09:35:16Z</time>
      </trkpt>
      <trkpt lat="42.388214000" lon="-2.516562000">
        <ele>560.80</ele>
        <time>2016-10-29T09:35:17Z</time>
      </trkpt>
      <trkpt lat="42.388266000" lon="-2.516503000">
        <ele>560.70</ele>
        <time>2016-10-29T09:35:18Z</time>
      </trkpt>
      <trkpt lat="42.388318000" lon="-2.516441000">
        <ele>560.40</ele>
        <time>2016-10-29T09:35:19Z</time>
      </trkpt>
      <trkpt lat="42.388366000" lon="-2.516372000">
        <ele>560.20</ele>
        <time>2016-10-29T09:35:20Z</time>
      </trkpt>
      <trkpt lat="42.388414000" lon="-2.516297000">
        <ele>560.10</ele>
        <time>2016-10-29T09:35:21Z</time>
      </trkpt>
      <trkpt lat="42.388458000" lon="-2.516218000">
        <ele>560.00</ele>
        <time>2016-10-29T09:35:22Z</time>
      </trkpt>
      <trkpt lat="42.388502000" lon="-2.516138000">
        <ele>559.80</ele>
        <time>2016-10-29T09:35:23Z</time>
      </trkpt>
      <trkpt lat="42.388549000" lon="-2.516059000">
        <ele>559.60</ele>
        <time>2016-10-29T09:35:24Z</time>
      </trkpt>
      <trkpt lat="42.388596000" lon="-2.515978000">
        <ele>559.30</ele>
        <time>2016-10-29T09:35:25Z</time>
      </trkpt>
      <trkpt lat="42.388643000" lon="-2.515903000">
        <ele>559.00</ele>
        <time>2016-10-29T09:35:26Z</time>
      </trkpt>
      <trkpt lat="42.388691000" lon="-2.515822000">
        <ele>558.80</ele>
        <time>2016-10-29T09:35:27Z</time>
      </trkpt>
      <trkpt lat="42.388744000" lon="-2.515745000">
        <ele>558.60</ele>
        <time>2016-10-29T09:35:28Z</time>
      </trkpt>
      <trkpt lat="42.388803000" lon="-2.515676000">
        <ele>558.10</ele>
        <time>2016-10-29T09:35:29Z</time>
      </trkpt>
      <trkpt lat="42.388865000" lon="-2.515612000">
        <ele>557.70</ele>
        <time>2016-10-29T09:35:30Z</time>
      </trkpt>
      <trkpt lat="42.388931000" lon="-2.515554000">
        <ele>557.50</ele>
        <time>2016-10-29T09:35:31Z</time>
      </trkpt>
      <trkpt lat="42.388997000" lon="-2.515498000">
        <ele>557.30</ele>
        <time>2016-10-29T09:35:32Z</time>
      </trkpt>
      <trkpt lat="42.389065000" lon="-2.515443000">
        <ele>557.10</ele>
        <time>2016-10-29T09:35:33Z</time>
      </trkpt>
      <trkpt lat="42.389124000" lon="-2.515388000">
        <ele>556.90</ele>
        <time>2016-10-29T09:35:34Z</time>
      </trkpt>
      <trkpt lat="42.389167000" lon="-2.515326000">
        <ele>556.70</ele>
        <time>2016-10-29T09:35:35Z</time>
      </trkpt>
      <trkpt lat="42.389195000" lon="-2.515245000">
        <ele>556.50</ele>
        <time>2016-10-29T09:35:36Z</time>
      </trkpt>
      <trkpt lat="42.389207000" lon="-2.515160000">
        <ele>556.10</ele>
        <time>2016-10-29T09:35:37Z</time>
      </trkpt>
      <trkpt lat="42.389215000" lon="-2.515072000">
        <ele>555.80</ele>
        <time>2016-10-29T09:35:38Z</time>
      </trkpt>
      <trkpt lat="42.389219000" lon="-2.514978000">
        <ele>555.60</ele>
        <time>2016-10-29T09:35:39Z</time>
      </trkpt>
      <trkpt lat="42.389221000" lon="-2.514882000">
        <ele>555.50</ele>
        <time>2016-10-29T09:35:40Z</time>
      </trkpt>
      <trkpt lat="42.389227000" lon="-2.514786000">
        <ele>555.30</ele>
        <time>2016-10-29T09:35:41Z</time>
      </trkpt>
      <trkpt lat="42.389243000" lon="-2.514689000">
        <ele>555.20</ele>
        <time>2016-10-29T09:35:42Z</time>
      </trkpt>
      <trkpt lat="42.389266000" lon="-2.514593000">
        <ele>555.20</ele>
        <time>2016-10-29T09:35:43Z</time>
      </trkpt>
      <trkpt lat="42.389295000" lon="-2.514499000">
        <ele>555.10</ele>
        <time>2016-10-29T09:35:44Z</time>
      </trkpt>
      <trkpt lat="42.389331000" lon="-2.514410000">
        <ele>554.80</ele>
        <time>2016-10-29T09:35:45Z</time>
      </trkpt>
      <trkpt lat="42.389373000" lon="-2.514322000">
        <ele>554.60</ele>
        <time>2016-10-29T09:35:46Z</time>
      </trkpt>
      <trkpt lat="42.389420000" lon="-2.514237000">
        <ele>554.30</ele>
        <time>2016-10-29T09:35:47Z</time>
      </trkpt>
      <trkpt lat="42.389473000" lon="-2.514152000">
        <ele>554.20</ele>
        <time>2016-10-29T09:35:48Z</time>
      </trkpt>
      <trkpt lat="42.389526000" lon="-2.514069000">
        <ele>554.00</ele>
        <time>2016-10-29T09:35:49Z</time>
      </trkpt>
      <trkpt lat="42.389579000" lon="-2.513983000">
        <ele>553.90</ele>
        <time>2016-10-29T09:35:50Z</time>
      </trkpt>
      <trkpt lat="42.389629000" lon="-2.513897000">
        <ele>553.70</ele>
        <time>2016-10-29T09:35:51Z</time>
      </trkpt>
      <trkpt lat="42.389679000" lon="-2.513811000">
        <ele>553.50</ele>
        <time>2016-10-29T09:35:52Z</time>
      </trkpt>
      <trkpt lat="42.389731000" lon="-2.513723000">
        <ele>553.40</ele>
        <time>2016-10-29T09:35:53Z</time>
      </trkpt>
      <trkpt lat="42.389780000" lon="-2.513631000">
        <ele>553.30</ele>
        <time>2016-10-29T09:35:54Z</time>
      </trkpt>
      <trkpt lat="42.389830000" lon="-2.513537000">
        <ele>553.30</ele>
        <time>2016-10-29T09:35:55Z</time>
      </trkpt>
      <trkpt lat="42.389876000" lon="-2.513439000">
        <ele>553.20</ele>
        <time>2016-10-29T09:35:56Z</time>
      </trkpt>
      <trkpt lat="42.389922000" lon="-2.513341000">
        <ele>552.90</ele>
        <time>2016-10-29T09:35:57Z</time>
      </trkpt>
      <trkpt lat="42.389967000" lon="-2.513241000">
        <ele>552.60</ele>
        <time>2016-10-29T09:35:58Z</time>
      </trkpt>
      <trkpt lat="42.390011000" lon="-2.513143000">
        <ele>552.00</ele>
        <time>2016-10-29T09:35:59Z</time>
      </trkpt>
      <trkpt lat="42.390056000" lon="-2.513050000">
        <ele>551.50</ele>
        <time>2016-10-29T09:36:00Z</time>
      </trkpt>
      <trkpt lat="42.390109000" lon="-2.512965000">
        <ele>551.20</ele>
        <time>2016-10-29T09:36:01Z</time>
      </trkpt>
      <trkpt lat="42.390168000" lon="-2.512886000">
        <ele>551.00</ele>
        <time>2016-10-29T09:36:02Z</time>
      </trkpt>
      <trkpt lat="42.390233000" lon="-2.512817000">
        <ele>550.80</ele>
        <time>2016-10-29T09:36:03Z</time>
      </trkpt>
      <trkpt lat="42.390297000" lon="-2.512746000">
        <ele>550.60</ele>
        <time>2016-10-29T09:36:04Z</time>
      </trkpt>
      <trkpt lat="42.390353000" lon="-2.512659000">
        <ele>550.30</ele>
        <time>2016-10-29T09:36:05Z</time>
      </trkpt>
      <trkpt lat="42.390392000" lon="-2.512563000">
        <ele>550.10</ele>
        <time>2016-10-29T09:36:06Z</time>
      </trkpt>
      <trkpt lat="42.390418000" lon="-2.512466000">
        <ele>549.80</ele>
        <time>2016-10-29T09:36:07Z</time>
      </trkpt>
      <trkpt lat="42.390439000" lon="-2.512373000">
        <ele>549.60</ele>
        <time>2016-10-29T09:36:08Z</time>
      </trkpt>
      <trkpt lat="42.390454000" lon="-2.512282000">
        <ele>549.10</ele>
        <time>2016-10-29T09:36:09Z</time>
      </trkpt>
      <trkpt lat="42.390467000" lon="-2.512191000">
        <ele>548.80</ele>
        <time>2016-10-29T09:36:10Z</time>
      </trkpt>
      <trkpt lat="42.390473000" lon="-2.512096000">
        <ele>548.50</ele>
        <time>2016-10-29T09:36:11Z</time>
      </trkpt>
      <trkpt lat="42.390466000" lon="-2.511998000">
        <ele>548.30</ele>
        <time>2016-10-29T09:36:12Z</time>
      </trkpt>
      <trkpt lat="42.390447000" lon="-2.511903000">
        <ele>548.00</ele>
        <time>2016-10-29T09:36:13Z</time>
      </trkpt>
      <trkpt lat="42.390388000" lon="-2.511720000">
        <ele>547.20</ele>
        <time>2016-10-29T09:36:15Z</time>
      </trkpt>
      <trkpt lat="42.390368000" lon="-2.511624000">
        <ele>546.80</ele>
        <time>2016-10-29T09:36:16Z</time>
      </trkpt>
      <trkpt lat="42.390369000" lon="-2.511527000">
        <ele>546.40</ele>
        <time>2016-10-29T09:36:17Z</time>
      </trkpt>
      <trkpt lat="42.390384000" lon="-2.511429000">
        <ele>546.20</ele>
        <time>2016-10-29T09:36:18Z</time>
      </trkpt>
      <trkpt lat="42.390406000" lon="-2.511329000">
        <ele>545.90</ele>
        <time>2016-10-29T09:36:19Z</time>
      </trkpt>
      <trkpt lat="42.390423000" lon="-2.511227000">
        <ele>545.70</ele>
        <time>2016-10-29T09:36:20Z</time>
      </trkpt>
      <trkpt lat="42.390431000" lon="-2.511118000">
        <ele>545.60</ele>
        <time>2016-10-29T09:36:21Z</time>
      </trkpt>
      <trkpt lat="42.390433000" lon="-2.511015000">
        <ele>545.60</ele>
        <time>2016-10-29T09:36:22Z</time>
      </trkpt>
      <trkpt lat="42.390429000" lon="-2.510908000">
        <ele>545.50</ele>
        <time>2016-10-29T09:36:23Z</time>
      </trkpt>
      <trkpt lat="42.390421000" lon="-2.510803000">
        <ele>545.40</ele>
        <time>2016-10-29T09:36:24Z</time>
      </trkpt>
      <trkpt lat="42.390414000" lon="-2.510702000">
        <ele>545.30</ele>
        <time>2016-10-29T09:36:25Z</time>
      </trkpt>
      <trkpt lat="42.390405000" lon="-2.510600000">
        <ele>545.20</ele>
        <time>2016-10-29T09:36:26Z</time>
      </trkpt>
      <trkpt lat="42.390395000" lon="-2.510500000">
        <ele>545.10</ele>
        <time>2016-10-29T09:36:27Z</time>
      </trkpt>
      <trkpt lat="42.390383000" lon="-2.510399000">
        <ele>545.00</ele>
        <time>2016-10-29T09:36:28Z</time>
      </trkpt>
      <trkpt lat="42.390370000" lon="-2.510299000">
        <ele>545.00</ele>
        <time>2016-10-29T09:36:29Z</time>
      </trkpt>
      <trkpt lat="42.390357000" lon="-2.510201000">
        <ele>545.00</ele>
        <time>2016-10-29T09:36:30Z</time>
      </trkpt>
      <trkpt lat="42.390347000" lon="-2.510103000">
        <ele>544.90</ele>
        <time>2016-10-29T09:36:31Z</time>
      </trkpt>
      <trkpt lat="42.390339000" lon="-2.510004000">
        <ele>544.80</ele>
        <time>2016-10-29T09:36:32Z</time>
      </trkpt>
      <trkpt lat="42.390337000" lon="-2.509907000">
        <ele>544.80</ele>
        <time>2016-10-29T09:36:33Z</time>
      </trkpt>
      <trkpt lat="42.390339000" lon="-2.509810000">
        <ele>544.80</ele>
        <time>2016-10-29T09:36:34Z</time>
      </trkpt>
      <trkpt lat="42.390350000" lon="-2.509713000">
        <ele>544.80</ele>
        <time>2016-10-29T09:36:35Z</time>
      </trkpt>
      <trkpt lat="42.390368000" lon="-2.509616000">
        <ele>544.70</ele>
        <time>2016-10-29T09:36:36Z</time>
      </trkpt>
      <trkpt lat="42.390392000" lon="-2.509525000">
        <ele>544.80</ele>
        <time>2016-10-29T09:36:37Z</time>
      </trkpt>
      <trkpt lat="42.390419000" lon="-2.509437000">
        <ele>544.80</ele>
        <time>2016-10-29T09:36:38Z</time>
      </trkpt>
      <trkpt lat="42.390448000" lon="-2.509350000">
        <ele>544.80</ele>
        <time>2016-10-29T09:36:39Z</time>
      </trkpt>
      <trkpt lat="42.390481000" lon="-2.509264000">
        <ele>544.80</ele>
        <time>2016-10-29T09:36:40Z</time>
      </trkpt>
      <trkpt lat="42.390512000" lon="-2.509177000">
        <ele>544.80</ele>
        <time>2016-10-29T09:36:41Z</time>
      </trkpt>
      <trkpt lat="42.390542000" lon="-2.509090000">
        <ele>544.80</ele>
        <time>2016-10-29T09:36:42Z</time>
      </trkpt>
      <trkpt lat="42.390574000" lon="-2.509004000">
        <ele>545.00</ele>
        <time>2016-10-29T09:36:43Z</time>
      </trkpt>
      <trkpt lat="42.390603000" lon="-2.508913000">
        <ele>545.10</ele>
        <time>2016-10-29T09:36:44Z</time>
      </trkpt>
      <trkpt lat="42.390633000" lon="-2.508822000">
        <ele>545.30</ele>
        <time>2016-10-29T09:36:45Z</time>
      </trkpt>
      <trkpt lat="42.390658000" lon="-2.508729000">
        <ele>545.40</ele>
        <time>2016-10-29T09:36:46Z</time>
      </trkpt>
      <trkpt lat="42.390680000" lon="-2.508637000">
        <ele>545.40</ele>
        <time>2016-10-29T09:36:47Z</time>
      </trkpt>
      <trkpt lat="42.390700000" lon="-2.508543000">
        <ele>545.40</ele>
        <time>2016-10-29T09:36:48Z</time>
      </trkpt>
      <trkpt lat="42.390720000" lon="-2.508450000">
        <ele>545.40</ele>
        <time>2016-10-29T09:36:49Z</time>
      </trkpt>
      <trkpt lat="42.390739000" lon="-2.508359000">
        <ele>545.30</ele>
        <time>2016-10-29T09:36:50Z</time>
      </trkpt>
      <trkpt lat="42.390758000" lon="-2.508268000">
        <ele>545.30</ele>
        <time>2016-10-29T09:36:51Z</time>
      </trkpt>
      <trkpt lat="42.390777000" lon="-2.508177000">
        <ele>545.30</ele>
        <time>2016-10-29T09:36:52Z</time>
      </trkpt>
      <trkpt lat="42.390799000" lon="-2.508086000">
        <ele>545.30</ele>
        <time>2016-10-29T09:36:53Z</time>
      </trkpt>
      <trkpt lat="42.390818000" lon="-2.507994000">
        <ele>545.20</ele>
        <time>2016-10-29T09:36:54Z</time>
      </trkpt>
      <trkpt lat="42.390836000" lon="-2.507903000">
        <ele>545.20</ele>
        <time>2016-10-29T09:36:55Z</time>
      </trkpt>
      <trkpt lat="42.390852000" lon="-2.507813000">
        <ele>545.20</ele>
        <time>2016-10-29T09:36:56Z</time>
      </trkpt>
      <trkpt lat="42.390870000" lon="-2.507724000">
        <ele>545.20</ele>
        <time>2016-10-29T09:36:57Z</time>
      </trkpt>
      <trkpt lat="42.390891000" lon="-2.507638000">
        <ele>545.20</ele>
        <time>2016-10-29T09:36:58Z</time>
      </trkpt>
      <trkpt lat="42.390914000" lon="-2.507551000">
        <ele>545.20</ele>
        <time>2016-10-29T09:36:59Z</time>
      </trkpt>
      <trkpt lat="42.390935000" lon="-2.507466000">
        <ele>545.20</ele>
        <time>2016-10-29T09:37:00Z</time>
      </trkpt>
      <trkpt lat="42.390957000" lon="-2.507380000">
        <ele>545.20</ele>
        <time>2016-10-29T09:37:01Z</time>
      </trkpt>
      <trkpt lat="42.390979000" lon="-2.507291000">
        <ele>545.20</ele>
        <time>2016-10-29T09:37:02Z</time>
      </trkpt>
      <trkpt lat="42.391002000" lon="-2.507203000">
        <ele>545.10</ele>
        <time>2016-10-29T09:37:03Z</time>
      </trkpt>
      <trkpt lat="42.391025000" lon="-2.507115000">
        <ele>545.10</ele>
        <time>2016-10-29T09:37:04Z</time>
      </trkpt>
      <trkpt lat="42.391051000" lon="-2.507029000">
        <ele>545.10</ele>
        <time>2016-10-29T09:37:05Z</time>
      </trkpt>
      <trkpt lat="42.391075000" lon="-2.506942000">
        <ele>545.20</ele>
        <time>2016-10-29T09:37:06Z</time>
      </trkpt>
      <trkpt lat="42.391097000" lon="-2.506854000">
        <ele>545.10</ele>
        <time>2016-10-29T09:37:07Z</time>
      </trkpt>
      <trkpt lat="42.391116000" lon="-2.506764000">
        <ele>545.00</ele>
        <time>2016-10-29T09:37:08Z</time>
      </trkpt>
      <trkpt lat="42.391132000" lon="-2.506675000">
        <ele>545.00</ele>
        <time>2016-10-29T09:37:09Z</time>
      </trkpt>
      <trkpt lat="42.391144000" lon="-2.506585000">
        <ele>545.00</ele>
        <time>2016-10-29T09:37:10Z</time>
      </trkpt>
      <trkpt lat="42.391155000" lon="-2.506492000">
        <ele>545.00</ele>
        <time>2016-10-29T09:37:11Z</time>
      </trkpt>
      <trkpt lat="42.391166000" lon="-2.506401000">
        <ele>545.00</ele>
        <time>2016-10-29T09:37:12Z</time>
      </trkpt>
      <trkpt lat="42.391177000" lon="-2.506311000">
        <ele>545.00</ele>
        <time>2016-10-29T09:37:13Z</time>
      </trkpt>
      <trkpt lat="42.391187000" lon="-2.506222000">
        <ele>545.00</ele>
        <time>2016-10-29T09:37:14Z</time>
      </trkpt>
      <trkpt lat="42.391215000" lon="-2.506045000">
        <ele>544.90</ele>
        <time>2016-10-29T09:37:16Z</time>
      </trkpt>
      <trkpt lat="42.391232000" lon="-2.505957000">
        <ele>544.80</ele>
        <time>2016-10-29T09:37:17Z</time>
      </trkpt>
      <trkpt lat="42.391249000" lon="-2.505871000">
        <ele>544.70</ele>
        <time>2016-10-29T09:37:18Z</time>
      </trkpt>
      <trkpt lat="42.391270000" lon="-2.505789000">
        <ele>544.70</ele>
        <time>2016-10-29T09:37:19Z</time>
      </trkpt>
      <trkpt lat="42.391290000" lon="-2.505709000">
        <ele>544.60</ele>
        <time>2016-10-29T09:37:20Z</time>
      </trkpt>
      <trkpt lat="42.391313000" lon="-2.505633000">
        <ele>544.80</ele>
        <time>2016-10-29T09:37:21Z</time>
      </trkpt>
      <trkpt lat="42.391342000" lon="-2.505560000">
        <ele>544.90</ele>
        <time>2016-10-29T09:37:22Z</time>
      </trkpt>
      <trkpt lat="42.391370000" lon="-2.505483000">
        <ele>545.00</ele>
        <time>2016-10-29T09:37:23Z</time>
      </trkpt>
      <trkpt lat="42.391396000" lon="-2.505405000">
        <ele>545.10</ele>
        <time>2016-10-29T09:37:24Z</time>
      </trkpt>
      <trkpt lat="42.391420000" lon="-2.505323000">
        <ele>545.10</ele>
        <time>2016-10-29T09:37:25Z</time>
      </trkpt>
      <trkpt lat="42.391443000" lon="-2.505239000">
        <ele>545.20</ele>
        <time>2016-10-29T09:37:26Z</time>
      </trkpt>
      <trkpt lat="42.391460000" lon="-2.505155000">
        <ele>545.10</ele>
        <time>2016-10-29T09:37:27Z</time>
      </trkpt>
      <trkpt lat="42.391475000" lon="-2.505068000">
        <ele>545.10</ele>
        <time>2016-10-29T09:37:28Z</time>
      </trkpt>
      <trkpt lat="42.391489000" lon="-2.504981000">
        <ele>545.10</ele>
        <time>2016-10-29T09:37:29Z</time>
      </trkpt>
      <trkpt lat="42.391506000" lon="-2.504895000">
        <ele>545.10</ele>
        <time>2016-10-29T09:37:30Z</time>
      </trkpt>
      <trkpt lat="42.391525000" lon="-2.504811000">
        <ele>545.10</ele>
        <time>2016-10-29T09:37:31Z</time>
      </trkpt>
      <trkpt lat="42.391545000" lon="-2.504724000">
        <ele>545.10</ele>
        <time>2016-10-29T09:37:32Z</time>
      </trkpt>
      <trkpt lat="42.391568000" lon="-2.504640000">
        <ele>544.90</ele>
        <time>2016-10-29T09:37:33Z</time>
      </trkpt>
      <trkpt lat="42.391590000" lon="-2.504558000">
        <ele>544.80</ele>
        <time>2016-10-29T09:37:34Z</time>
      </trkpt>
      <trkpt lat="42.391614000" lon="-2.504477000">
        <ele>544.90</ele>
        <time>2016-10-29T09:37:35Z</time>
      </trkpt>
      <trkpt lat="42.391643000" lon="-2.504398000">
        <ele>544.90</ele>
        <time>2016-10-29T09:37:36Z</time>
      </trkpt>
      <trkpt lat="42.391676000" lon="-2.504322000">
        <ele>545.00</ele>
        <time>2016-10-29T09:37:37Z</time>
      </trkpt>
      <trkpt lat="42.391713000" lon="-2.504249000">
        <ele>545.00</ele>
        <time>2016-10-29T09:37:38Z</time>
      </trkpt>
      <trkpt lat="42.391757000" lon="-2.504180000">
        <ele>545.00</ele>
        <time>2016-10-29T09:37:39Z</time>
      </trkpt>
      <trkpt lat="42.391804000" lon="-2.504115000">
        <ele>545.10</ele>
        <time>2016-10-29T09:37:40Z</time>
      </trkpt>
      <trkpt lat="42.391852000" lon="-2.504050000">
        <ele>545.10</ele>
        <time>2016-10-29T09:37:41Z</time>
      </trkpt>
      <trkpt lat="42.391899000" lon="-2.503983000">
        <ele>545.10</ele>
        <time>2016-10-29T09:37:42Z</time>
      </trkpt>
      <trkpt lat="42.391941000" lon="-2.503910000">
        <ele>545.10</ele>
        <time>2016-10-29T09:37:43Z</time>
      </trkpt>
      <trkpt lat="42.391977000" lon="-2.503833000">
        <ele>545.10</ele>
        <time>2016-10-29T09:37:44Z</time>
      </trkpt>
      <trkpt lat="42.392008000" lon="-2.503752000">
        <ele>545.00</ele>
        <time>2016-10-29T09:37:45Z</time>
      </trkpt>
      <trkpt lat="42.392034000" lon="-2.503667000">
        <ele>545.00</ele>
        <time>2016-10-29T09:37:46Z</time>
      </trkpt>
      <trkpt lat="42.392061000" lon="-2.503585000">
        <ele>545.10</ele>
        <time>2016-10-29T09:37:47Z</time>
      </trkpt>
      <trkpt lat="42.392092000" lon="-2.503505000">
        <ele>545.20</ele>
        <time>2016-10-29T09:37:48Z</time>
      </trkpt>
      <trkpt lat="42.392121000" lon="-2.503422000">
        <ele>545.20</ele>
        <time>2016-10-29T09:37:49Z</time>
      </trkpt>
      <trkpt lat="42.392150000" lon="-2.503338000">
        <ele>545.30</ele>
        <time>2016-10-29T09:37:50Z</time>
      </trkpt>
      <trkpt lat="42.392178000" lon="-2.503253000">
        <ele>545.30</ele>
        <time>2016-10-29T09:37:51Z</time>
      </trkpt>
      <trkpt lat="42.392200000" lon="-2.503164000">
        <ele>545.30</ele>
        <time>2016-10-29T09:37:52Z</time>
      </trkpt>
      <trkpt lat="42.392215000" lon="-2.503074000">
        <ele>545.20</ele>
        <time>2016-10-29T09:37:53Z</time>
      </trkpt>
      <trkpt lat="42.392223000" lon="-2.502981000">
        <ele>545.10</ele>
        <time>2016-10-29T09:37:54Z</time>
      </trkpt>
      <trkpt lat="42.392228000" lon="-2.502886000">
        <ele>545.00</ele>
        <time>2016-10-29T09:37:55Z</time>
      </trkpt>
      <trkpt lat="42.392234000" lon="-2.502791000">
        <ele>544.90</ele>
        <time>2016-10-29T09:37:56Z</time>
      </trkpt>
      <trkpt lat="42.392240000" lon="-2.502696000">
        <ele>544.80</ele>
        <time>2016-10-29T09:37:57Z</time>
      </trkpt>
      <trkpt lat="42.392247000" lon="-2.502602000">
        <ele>544.80</ele>
        <time>2016-10-29T09:37:58Z</time>
      </trkpt>
      <trkpt lat="42.392255000" lon="-2.502510000">
        <ele>544.70</ele>
        <time>2016-10-29T09:37:59Z</time>
      </trkpt>
      <trkpt lat="42.392264000" lon="-2.502417000">
        <ele>544.60</ele>
        <time>2016-10-29T09:38:00Z</time>
      </trkpt>
      <trkpt lat="42.392275000" lon="-2.502327000">
        <ele>544.50</ele>
        <time>2016-10-29T09:38:01Z</time>
      </trkpt>
      <trkpt lat="42.392283000" lon="-2.502237000">
        <ele>544.40</ele>
        <time>2016-10-29T09:38:02Z</time>
      </trkpt>
      <trkpt lat="42.392290000" lon="-2.502144000">
        <ele>544.20</ele>
        <time>2016-10-29T09:38:03Z</time>
      </trkpt>
      <trkpt lat="42.392294000" lon="-2.502053000">
        <ele>544.00</ele>
        <time>2016-10-29T09:38:04Z</time>
      </trkpt>
      <trkpt lat="42.392291000" lon="-2.501963000">
        <ele>544.00</ele>
        <time>2016-10-29T09:38:05Z</time>
      </trkpt>
      <trkpt lat="42.392284000" lon="-2.501873000">
        <ele>544.00</ele>
        <time>2016-10-29T09:38:06Z</time>
      </trkpt>
      <trkpt lat="42.392273000" lon="-2.501782000">
        <ele>544.10</ele>
        <time>2016-10-29T09:38:07Z</time>
      </trkpt>
      <trkpt lat="42.392263000" lon="-2.501689000">
        <ele>544.10</ele>
        <time>2016-10-29T09:38:08Z</time>
      </trkpt>
      <trkpt lat="42.392258000" lon="-2.501594000">
        <ele>544.10</ele>
        <time>2016-10-29T09:38:09Z</time>
      </trkpt>
      <trkpt lat="42.392258000" lon="-2.501500000">
        <ele>544.10</ele>
        <time>2016-10-29T09:38:10Z</time>
      </trkpt>
      <trkpt lat="42.392265000" lon="-2.501406000">
        <ele>543.90</ele>
        <time>2016-10-29T09:38:11Z</time>
      </trkpt>
      <trkpt lat="42.392275000" lon="-2.501313000">
        <ele>543.80</ele>
        <time>2016-10-29T09:38:12Z</time>
      </trkpt>
      <trkpt lat="42.392287000" lon="-2.501221000">
        <ele>543.60</ele>
        <time>2016-10-29T09:38:13Z</time>
      </trkpt>
      <trkpt lat="42.392301000" lon="-2.501129000">
        <ele>543.50</ele>
        <time>2016-10-29T09:38:14Z</time>
      </trkpt>
      <trkpt lat="42.392318000" lon="-2.501040000">
        <ele>543.40</ele>
        <time>2016-10-29T09:38:15Z</time>
      </trkpt>
      <trkpt lat="42.392366000" lon="-2.500863000">
        <ele>543.30</ele>
        <time>2016-10-29T09:38:17Z</time>
      </trkpt>
      <trkpt lat="42.392391000" lon="-2.500774000">
        <ele>543.20</ele>
        <time>2016-10-29T09:38:18Z</time>
      </trkpt>
      <trkpt lat="42.392416000" lon="-2.500687000">
        <ele>543.20</ele>
        <time>2016-10-29T09:38:19Z</time>
      </trkpt>
      <trkpt lat="42.392441000" lon="-2.500602000">
        <ele>543.20</ele>
        <time>2016-10-29T09:38:20Z</time>
      </trkpt>
      <trkpt lat="42.392469000" lon="-2.500520000">
        <ele>543.40</ele>
        <time>2016-10-29T09:38:21Z</time>
      </trkpt>
      <trkpt lat="42.392499000" lon="-2.500440000">
        <ele>543.50</ele>
        <time>2016-10-29T09:38:22Z</time>
      </trkpt>
      <trkpt lat="42.392526000" lon="-2.500359000">
        <ele>543.60</ele>
        <time>2016-10-29T09:38:23Z</time>
      </trkpt>
      <trkpt lat="42.392555000" lon="-2.500279000">
        <ele>543.70</ele>
        <time>2016-10-29T09:38:24Z</time>
      </trkpt>
      <trkpt lat="42.392582000" lon="-2.500197000">
        <ele>543.80</ele>
        <time>2016-10-29T09:38:25Z</time>
      </trkpt>
      <trkpt lat="42.392609000" lon="-2.500116000">
        <ele>543.80</ele>
        <time>2016-10-29T09:38:26Z</time>
      </trkpt>
      <trkpt lat="42.392639000" lon="-2.500038000">
        <ele>543.70</ele>
        <time>2016-10-29T09:38:27Z</time>
      </trkpt>
      <trkpt lat="42.392671000" lon="-2.499959000">
        <ele>543.70</ele>
        <time>2016-10-29T09:38:28Z</time>
      </trkpt>
      <trkpt lat="42.392702000" lon="-2.499880000">
        <ele>543.60</ele>
        <time>2016-10-29T09:38:29Z</time>
      </trkpt>
      <trkpt lat="42.392736000" lon="-2.499801000">
        <ele>543.60</ele>
        <time>2016-10-29T09:38:30Z</time>
      </trkpt>
      <trkpt lat="42.392771000" lon="-2.499720000">
        <ele>543.60</ele>
        <time>2016-10-29T09:38:31Z</time>
      </trkpt>
      <trkpt lat="42.392810000" lon="-2.499645000">
        <ele>543.50</ele>
        <time>2016-10-29T09:38:32Z</time>
      </trkpt>
      <trkpt lat="42.392851000" lon="-2.499570000">
        <ele>543.60</ele>
        <time>2016-10-29T09:38:33Z</time>
      </trkpt>
      <trkpt lat="42.392892000" lon="-2.499498000">
        <ele>543.60</ele>
        <time>2016-10-29T09:38:34Z</time>
      </trkpt>
      <trkpt lat="42.392936000" lon="-2.499428000">
        <ele>543.70</ele>
        <time>2016-10-29T09:38:35Z</time>
      </trkpt>
      <trkpt lat="42.392980000" lon="-2.499359000">
        <ele>543.70</ele>
        <time>2016-10-29T09:38:36Z</time>
      </trkpt>
      <trkpt lat="42.393028000" lon="-2.499296000">
        <ele>543.70</ele>
        <time>2016-10-29T09:38:37Z</time>
      </trkpt>
      <trkpt lat="42.393082000" lon="-2.499238000">
        <ele>543.70</ele>
        <time>2016-10-29T09:38:38Z</time>
      </trkpt>
      <trkpt lat="42.393144000" lon="-2.499192000">
        <ele>543.60</ele>
        <time>2016-10-29T09:38:39Z</time>
      </trkpt>
      <trkpt lat="42.393208000" lon="-2.499149000">
        <ele>543.50</ele>
        <time>2016-10-29T09:38:40Z</time>
      </trkpt>
      <trkpt lat="42.393270000" lon="-2.499106000">
        <ele>543.30</ele>
        <time>2016-10-29T09:38:41Z</time>
      </trkpt>
      <trkpt lat="42.393328000" lon="-2.499059000">
        <ele>543.20</ele>
        <time>2016-10-29T09:38:42Z</time>
      </trkpt>
      <trkpt lat="42.393385000" lon="-2.499005000">
        <ele>543.10</ele>
        <time>2016-10-29T09:38:43Z</time>
      </trkpt>
      <trkpt lat="42.393442000" lon="-2.498952000">
        <ele>543.00</ele>
        <time>2016-10-29T09:38:44Z</time>
      </trkpt>
      <trkpt lat="42.393500000" lon="-2.498902000">
        <ele>542.90</ele>
        <time>2016-10-29T09:38:45Z</time>
      </trkpt>
      <trkpt lat="42.393559000" lon="-2.498854000">
        <ele>542.90</ele>
        <time>2016-10-29T09:38:46Z</time>
      </trkpt>
      <trkpt lat="42.393618000" lon="-2.498803000">
        <ele>543.10</ele>
        <time>2016-10-29T09:38:47Z</time>
      </trkpt>
      <trkpt lat="42.393680000" lon="-2.498758000">
        <ele>543.20</ele>
        <time>2016-10-29T09:38:48Z</time>
      </trkpt>
      <trkpt lat="42.393744000" lon="-2.498718000">
        <ele>543.30</ele>
        <time>2016-10-29T09:38:49Z</time>
      </trkpt>
      <trkpt lat="42.393810000" lon="-2.498684000">
        <ele>543.40</ele>
        <time>2016-10-29T09:38:50Z</time>
      </trkpt>
      <trkpt lat="42.393877000" lon="-2.498654000">
        <ele>543.20</ele>
        <time>2016-10-29T09:38:51Z</time>
      </trkpt>
      <trkpt lat="42.393941000" lon="-2.498622000">
        <ele>543.10</ele>
        <time>2016-10-29T09:38:52Z</time>
      </trkpt>
      <trkpt lat="42.394004000" lon="-2.498587000">
        <ele>542.90</ele>
        <time>2016-10-29T09:38:53Z</time>
      </trkpt>
      <trkpt lat="42.394064000" lon="-2.498548000">
        <ele>542.70</ele>
        <time>2016-10-29T09:38:54Z</time>
      </trkpt>
      <trkpt lat="42.394119000" lon="-2.498498000">
        <ele>542.60</ele>
        <time>2016-10-29T09:38:55Z</time>
      </trkpt>
      <trkpt lat="42.394168000" lon="-2.498436000">
        <ele>542.50</ele>
        <time>2016-10-29T09:38:56Z</time>
      </trkpt>
      <trkpt lat="42.394214000" lon="-2.498369000">
        <ele>542.30</ele>
        <time>2016-10-29T09:38:57Z</time>
      </trkpt>
      <trkpt lat="42.394256000" lon="-2.498294000">
        <ele>542.20</ele>
        <time>2016-10-29T09:38:58Z</time>
      </trkpt>
      <trkpt lat="42.394299000" lon="-2.498225000">
        <ele>542.10</ele>
        <time>2016-10-29T09:38:59Z</time>
      </trkpt>
      <trkpt lat="42.394344000" lon="-2.498153000">
        <ele>542.10</ele>
        <time>2016-10-29T09:39:00Z</time>
      </trkpt>
      <trkpt lat="42.394391000" lon="-2.498081000">
        <ele>541.90</ele>
        <time>2016-10-29T09:39:01Z</time>
      </trkpt>
      <trkpt lat="42.394437000" lon="-2.498008000">
        <ele>541.80</ele>
        <time>2016-10-29T09:39:02Z</time>
      </trkpt>
      <trkpt lat="42.394482000" lon="-2.497934000">
        <ele>541.70</ele>
        <time>2016-10-29T09:39:03Z</time>
      </trkpt>
      <trkpt lat="42.394526000" lon="-2.497863000">
        <ele>541.60</ele>
        <time>2016-10-29T09:39:04Z</time>
      </trkpt>
      <trkpt lat="42.394572000" lon="-2.497795000">
        <ele>541.60</ele>
        <time>2016-10-29T09:39:05Z</time>
      </trkpt>
      <trkpt lat="42.394615000" lon="-2.497728000">
        <ele>541.60</ele>
        <time>2016-10-29T09:39:06Z</time>
      </trkpt>
      <trkpt lat="42.394661000" lon="-2.497662000">
        <ele>541.60</ele>
        <time>2016-10-29T09:39:07Z</time>
      </trkpt>
      <trkpt lat="42.394706000" lon="-2.497598000">
        <ele>541.70</ele>
        <time>2016-10-29T09:39:08Z</time>
      </trkpt>
      <trkpt lat="42.394749000" lon="-2.497529000">
        <ele>541.70</ele>
        <time>2016-10-29T09:39:09Z</time>
      </trkpt>
      <trkpt lat="42.394794000" lon="-2.497464000">
        <ele>541.70</ele>
        <time>2016-10-29T09:39:10Z</time>
      </trkpt>
      <trkpt lat="42.394840000" lon="-2.497400000">
        <ele>541.70</ele>
        <time>2016-10-29T09:39:11Z</time>
      </trkpt>
      <trkpt lat="42.394886000" lon="-2.497336000">
        <ele>541.70</ele>
        <time>2016-10-29T09:39:12Z</time>
      </trkpt>
      <trkpt lat="42.394932000" lon="-2.497275000">
        <ele>541.50</ele>
        <time>2016-10-29T09:39:13Z</time>
      </trkpt>
      <trkpt lat="42.394981000" lon="-2.497218000">
        <ele>541.20</ele>
        <time>2016-10-29T09:39:14Z</time>
      </trkpt>
      <trkpt lat="42.395029000" lon="-2.497158000">
        <ele>541.30</ele>
        <time>2016-10-29T09:39:15Z</time>
      </trkpt>
      <trkpt lat="42.395076000" lon="-2.497096000">
        <ele>541.30</ele>
        <time>2016-10-29T09:39:16Z</time>
      </trkpt>
      <trkpt lat="42.395160000" lon="-2.496956000">
        <ele>541.20</ele>
        <time>2016-10-29T09:39:18Z</time>
      </trkpt>
      <trkpt lat="42.395198000" lon="-2.496879000">
        <ele>541.20</ele>
        <time>2016-10-29T09:39:19Z</time>
      </trkpt>
      <trkpt lat="42.395234000" lon="-2.496800000">
        <ele>541.20</ele>
        <time>2016-10-29T09:39:20Z</time>
      </trkpt>
      <trkpt lat="42.395265000" lon="-2.496716000">
        <ele>541.00</ele>
        <time>2016-10-29T09:39:21Z</time>
      </trkpt>
      <trkpt lat="42.395291000" lon="-2.496628000">
        <ele>540.80</ele>
        <time>2016-10-29T09:39:22Z</time>
      </trkpt>
      <trkpt lat="42.395308000" lon="-2.496537000">
        <ele>540.70</ele>
        <time>2016-10-29T09:39:23Z</time>
      </trkpt>
      <trkpt lat="42.395319000" lon="-2.496446000">
        <ele>540.60</ele>
        <time>2016-10-29T09:39:24Z</time>
      </trkpt>
      <trkpt lat="42.395330000" lon="-2.496357000">
        <ele>540.60</ele>
        <time>2016-10-29T09:39:25Z</time>
      </trkpt>
      <trkpt lat="42.395346000" lon="-2.496276000">
        <ele>540.50</ele>
        <time>2016-10-29T09:39:26Z</time>
      </trkpt>
      <trkpt lat="42.395376000" lon="-2.496204000">
        <ele>540.50</ele>
        <time>2016-10-29T09:39:27Z</time>
      </trkpt>
      <trkpt lat="42.395408000" lon="-2.496137000">
        <ele>540.50</ele>
        <time>2016-10-29T09:39:28Z</time>
      </trkpt>
      <trkpt lat="42.395443000" lon="-2.496072000">
        <ele>540.30</ele>
        <time>2016-10-29T09:39:29Z</time>
      </trkpt>
      <trkpt lat="42.395487000" lon="-2.496021000">
        <ele>540.20</ele>
        <time>2016-10-29T09:39:30Z</time>
      </trkpt>
      <trkpt lat="42.395543000" lon="-2.495977000">
        <ele>539.90</ele>
        <time>2016-10-29T09:39:31Z</time>
      </trkpt>
      <trkpt lat="42.395599000" lon="-2.495930000">
        <ele>539.60</ele>
        <time>2016-10-29T09:39:32Z</time>
      </trkpt>
      <trkpt lat="42.395659000" lon="-2.495880000">
        <ele>539.30</ele>
        <time>2016-10-29T09:39:33Z</time>
      </trkpt>
      <trkpt lat="42.395719000" lon="-2.495821000">
        <ele>539.00</ele>
        <time>2016-10-29T09:39:34Z</time>
      </trkpt>
      <trkpt lat="42.395778000" lon="-2.495762000">
        <ele>538.80</ele>
        <time>2016-10-29T09:39:35Z</time>
      </trkpt>
      <trkpt lat="42.395837000" lon="-2.495695000">
        <ele>538.70</ele>
        <time>2016-10-29T09:39:36Z</time>
      </trkpt>
      <trkpt lat="42.395894000" lon="-2.495627000">
        <ele>538.60</ele>
        <time>2016-10-29T09:39:37Z</time>
      </trkpt>
      <trkpt lat="42.395952000" lon="-2.495561000">
        <ele>538.50</ele>
        <time>2016-10-29T09:39:38Z</time>
      </trkpt>
      <trkpt lat="42.396005000" lon="-2.495492000">
        <ele>538.20</ele>
        <time>2016-10-29T09:39:39Z</time>
      </trkpt>
      <trkpt lat="42.396057000" lon="-2.495422000">
        <ele>537.90</ele>
        <time>2016-10-29T09:39:40Z</time>
      </trkpt>
      <trkpt lat="42.396105000" lon="-2.495351000">
        <ele>537.70</ele>
        <time>2016-10-29T09:39:41Z</time>
      </trkpt>
      <trkpt lat="42.396155000" lon="-2.495274000">
        <ele>537.50</ele>
        <time>2016-10-29T09:39:42Z</time>
      </trkpt>
      <trkpt lat="42.396198000" lon="-2.495201000">
        <ele>537.30</ele>
        <time>2016-10-29T09:39:43Z</time>
      </trkpt>
      <trkpt lat="42.396238000" lon="-2.495125000">
        <ele>537.20</ele>
        <time>2016-10-29T09:39:44Z</time>
      </trkpt>
      <trkpt lat="42.396276000" lon="-2.495050000">
        <ele>537.10</ele>
        <time>2016-10-29T09:39:45Z</time>
      </trkpt>
      <trkpt lat="42.396314000" lon="-2.494975000">
        <ele>537.00</ele>
        <time>2016-10-29T09:39:46Z</time>
      </trkpt>
      <trkpt lat="42.396351000" lon="-2.494903000">
        <ele>536.90</ele>
        <time>2016-10-29T09:39:47Z</time>
      </trkpt>
      <trkpt lat="42.396387000" lon="-2.494834000">
        <ele>536.90</ele>
        <time>2016-10-29T09:39:48Z</time>
      </trkpt>
      <trkpt lat="42.396421000" lon="-2.494769000">
        <ele>536.80</ele>
        <time>2016-10-29T09:39:49Z</time>
      </trkpt>
      <trkpt lat="42.396458000" lon="-2.494714000">
        <ele>536.80</ele>
        <time>2016-10-29T09:39:50Z</time>
      </trkpt>
      <trkpt lat="42.396502000" lon="-2.494671000">
        <ele>536.80</ele>
        <time>2016-10-29T09:39:51Z</time>
      </trkpt>
      <trkpt lat="42.396550000" lon="-2.494641000">
        <ele>536.80</ele>
        <time>2016-10-29T09:39:52Z</time>
      </trkpt>
      <trkpt lat="42.396605000" lon="-2.494625000">
        <ele>536.80</ele>
        <time>2016-10-29T09:39:53Z</time>
      </trkpt>
      <trkpt lat="42.396660000" lon="-2.494625000">
        <ele>536.80</ele>
        <time>2016-10-29T09:39:54Z</time>
      </trkpt>
      <trkpt lat="42.396717000" lon="-2.494630000">
        <ele>536.90</ele>
        <time>2016-10-29T09:39:55Z</time>
      </trkpt>
      <trkpt lat="42.396771000" lon="-2.494631000">
        <ele>537.00</ele>
        <time>2016-10-29T09:39:56Z</time>
      </trkpt>
      <trkpt lat="42.396827000" lon="-2.494621000">
        <ele>537.20</ele>
        <time>2016-10-29T09:39:57Z</time>
      </trkpt>
      <trkpt lat="42.396880000" lon="-2.494605000">
        <ele>537.30</ele>
        <time>2016-10-29T09:39:58Z</time>
      </trkpt>
      <trkpt lat="42.396928000" lon="-2.494586000">
        <ele>537.50</ele>
        <time>2016-10-29T09:39:59Z</time>
      </trkpt>
      <trkpt lat="42.396975000" lon="-2.494561000">
        <ele>537.50</ele>
        <time>2016-10-29T09:40:00Z</time>
      </trkpt>
      <trkpt lat="42.397021000" lon="-2.494537000">
        <ele>537.60</ele>
        <time>2016-10-29T09:40:01Z</time>
      </trkpt>
      <trkpt lat="42.397063000" lon="-2.494502000">
        <ele>537.60</ele>
        <time>2016-10-29T09:40:02Z</time>
      </trkpt>
      <trkpt lat="42.397103000" lon="-2.494461000">
        <ele>537.80</ele>
        <time>2016-10-29T09:40:03Z</time>
      </trkpt>
      <trkpt lat="42.397139000" lon="-2.494415000">
        <ele>537.90</ele>
        <time>2016-10-29T09:40:04Z</time>
      </trkpt>
      <trkpt lat="42.397174000" lon="-2.494367000">
        <ele>538.00</ele>
        <time>2016-10-29T09:40:05Z</time>
      </trkpt>
      <trkpt lat="42.397205000" lon="-2.494316000">
        <ele>538.10</ele>
        <time>2016-10-29T09:40:06Z</time>
      </trkpt>
      <trkpt lat="42.397222000" lon="-2.494255000">
        <ele>538.20</ele>
        <time>2016-10-29T09:40:07Z</time>
      </trkpt>
      <trkpt lat="42.397235000" lon="-2.494191000">
        <ele>538.20</ele>
        <time>2016-10-29T09:40:08Z</time>
      </trkpt>
      <trkpt lat="42.397243000" lon="-2.494128000">
        <ele>538.30</ele>
        <time>2016-10-29T09:40:09Z</time>
      </trkpt>
      <trkpt lat="42.397244000" lon="-2.494066000">
        <ele>538.40</ele>
        <time>2016-10-29T09:40:10Z</time>
      </trkpt>
      <trkpt lat="42.397240000" lon="-2.494003000">
        <ele>538.80</ele>
        <time>2016-10-29T09:40:11Z</time>
      </trkpt>
      <trkpt lat="42.397232000" lon="-2.493943000">
        <ele>539.10</ele>
        <time>2016-10-29T09:40:12Z</time>
      </trkpt>
      <trkpt lat="42.397222000" lon="-2.493886000">
        <ele>539.20</ele>
        <time>2016-10-29T09:40:13Z</time>
      </trkpt>
      <trkpt lat="42.397207000" lon="-2.493831000">
        <ele>539.50</ele>
        <time>2016-10-29T09:40:14Z</time>
      </trkpt>
      <trkpt lat="42.397195000" lon="-2.493777000">
        <ele>539.70</ele>
        <time>2016-10-29T09:40:15Z</time>
      </trkpt>
      <trkpt lat="42.397187000" lon="-2.493723000">
        <ele>539.80</ele>
        <time>2016-10-29T09:40:16Z</time>
      </trkpt>
      <trkpt lat="42.397184000" lon="-2.493667000">
        <ele>539.90</ele>
        <time>2016-10-29T09:40:17Z</time>
      </trkpt>
      <trkpt lat="42.397171000" lon="-2.493549000">
        <ele>540.00</ele>
        <time>2016-10-29T09:40:19Z</time>
      </trkpt>
      <trkpt lat="42.397159000" lon="-2.493490000">
        <ele>540.10</ele>
        <time>2016-10-29T09:40:20Z</time>
      </trkpt>
      <trkpt lat="42.397140000" lon="-2.493434000">
        <ele>540.20</ele>
        <time>2016-10-29T09:40:21Z</time>
      </trkpt>
      <trkpt lat="42.397118000" lon="-2.493373000">
        <ele>540.30</ele>
        <time>2016-10-29T09:40:22Z</time>
      </trkpt>
      <trkpt lat="42.397094000" lon="-2.493317000">
        <ele>540.30</ele>
        <time>2016-10-29T09:40:23Z</time>
      </trkpt>
      <trkpt lat="42.397070000" lon="-2.493259000">
        <ele>540.40</ele>
        <time>2016-10-29T09:40:24Z</time>
      </trkpt>
      <trkpt lat="42.397048000" lon="-2.493200000">
        <ele>540.50</ele>
        <time>2016-10-29T09:40:25Z</time>
      </trkpt>
      <trkpt lat="42.397028000" lon="-2.493141000">
        <ele>540.50</ele>
        <time>2016-10-29T09:40:26Z</time>
      </trkpt>
      <trkpt lat="42.397004000" lon="-2.493082000">
        <ele>540.50</ele>
        <time>2016-10-29T09:40:27Z</time>
      </trkpt>
      <trkpt lat="42.396986000" lon="-2.493027000">
        <ele>540.50</ele>
        <time>2016-10-29T09:40:28Z</time>
      </trkpt>
      <trkpt lat="42.396971000" lon="-2.492972000">
        <ele>540.50</ele>
        <time>2016-10-29T09:40:29Z</time>
      </trkpt>
      <trkpt lat="42.396962000" lon="-2.492916000">
        <ele>540.50</ele>
        <time>2016-10-29T09:40:30Z</time>
      </trkpt>
      <trkpt lat="42.396957000" lon="-2.492861000">
        <ele>540.50</ele>
        <time>2016-10-29T09:40:31Z</time>
      </trkpt>
      <trkpt lat="42.396950000" lon="-2.492808000">
        <ele>540.60</ele>
        <time>2016-10-29T09:40:32Z</time>
      </trkpt>
      <trkpt lat="42.396940000" lon="-2.492758000">
        <ele>540.70</ele>
        <time>2016-10-29T09:40:33Z</time>
      </trkpt>
      <trkpt lat="42.396933000" lon="-2.492709000">
        <ele>540.80</ele>
        <time>2016-10-29T09:40:34Z</time>
      </trkpt>
      <trkpt lat="42.396937000" lon="-2.492660000">
        <ele>540.80</ele>
        <time>2016-10-29T09:40:35Z</time>
      </trkpt>
      <trkpt lat="42.396958000" lon="-2.492613000">
        <ele>540.90</ele>
        <time>2016-10-29T09:40:36Z</time>
      </trkpt>
      <trkpt lat="42.396976000" lon="-2.492547000">
        <ele>540.90</ele>
        <time>2016-10-29T09:40:37Z</time>
      </trkpt>
      <trkpt lat="42.396995000" lon="-2.492473000">
        <ele>540.60</ele>
        <time>2016-10-29T09:40:38Z</time>
      </trkpt>
      <trkpt lat="42.397008000" lon="-2.492398000">
        <ele>540.40</ele>
        <time>2016-10-29T09:40:39Z</time>
      </trkpt>
      <trkpt lat="42.397020000" lon="-2.492330000">
        <ele>540.30</ele>
        <time>2016-10-29T09:40:40Z</time>
      </trkpt>
      <trkpt lat="42.397034000" lon="-2.492267000">
        <ele>540.20</ele>
        <time>2016-10-29T09:40:41Z</time>
      </trkpt>
      <trkpt lat="42.397051000" lon="-2.492207000">
        <ele>540.10</ele>
        <time>2016-10-29T09:40:42Z</time>
      </trkpt>
      <trkpt lat="42.397065000" lon="-2.492145000">
        <ele>540.00</ele>
        <time>2016-10-29T09:40:43Z</time>
      </trkpt>
      <trkpt lat="42.397079000" lon="-2.492081000">
        <ele>540.00</ele>
        <time>2016-10-29T09:40:44Z</time>
      </trkpt>
      <trkpt lat="42.397088000" lon="-2.492014000">
        <ele>540.00</ele>
        <time>2016-10-29T09:40:45Z</time>
      </trkpt>
      <trkpt lat="42.397098000" lon="-2.491942000">
        <ele>539.90</ele>
        <time>2016-10-29T09:40:46Z</time>
      </trkpt>
      <trkpt lat="42.397118000" lon="-2.491864000">
        <ele>539.90</ele>
        <time>2016-10-29T09:40:47Z</time>
      </trkpt>
      <trkpt lat="42.397147000" lon="-2.491790000">
        <ele>539.60</ele>
        <time>2016-10-29T09:40:48Z</time>
      </trkpt>
      <trkpt lat="42.397185000" lon="-2.491727000">
        <ele>539.40</ele>
        <time>2016-10-29T09:40:49Z</time>
      </trkpt>
      <trkpt lat="42.397230000" lon="-2.491683000">
        <ele>539.10</ele>
        <time>2016-10-29T09:40:50Z</time>
      </trkpt>
      <trkpt lat="42.397275000" lon="-2.491647000">
        <ele>538.80</ele>
        <time>2016-10-29T09:40:51Z</time>
      </trkpt>
      <trkpt lat="42.397325000" lon="-2.491628000">
        <ele>538.60</ele>
        <time>2016-10-29T09:40:52Z</time>
      </trkpt>
      <trkpt lat="42.397378000" lon="-2.491635000">
        <ele>538.50</ele>
        <time>2016-10-29T09:40:53Z</time>
      </trkpt>
      <trkpt lat="42.397429000" lon="-2.491647000">
        <ele>538.60</ele>
        <time>2016-10-29T09:40:54Z</time>
      </trkpt>
      <trkpt lat="42.397478000" lon="-2.491664000">
        <ele>538.60</ele>
        <time>2016-10-29T09:40:55Z</time>
      </trkpt>
      <trkpt lat="42.397526000" lon="-2.491676000">
        <ele>538.70</ele>
        <time>2016-10-29T09:40:56Z</time>
      </trkpt>
      <trkpt lat="42.397573000" lon="-2.491684000">
        <ele>538.70</ele>
        <time>2016-10-29T09:40:57Z</time>
      </trkpt>
      <trkpt lat="42.397620000" lon="-2.491675000">
        <ele>538.70</ele>
        <time>2016-10-29T09:40:58Z</time>
      </trkpt>
      <trkpt lat="42.397662000" lon="-2.491641000">
        <ele>538.60</ele>
        <time>2016-10-29T09:40:59Z</time>
      </trkpt>
      <trkpt lat="42.397700000" lon="-2.491602000">
        <ele>538.50</ele>
        <time>2016-10-29T09:41:00Z</time>
      </trkpt>
      <trkpt lat="42.397745000" lon="-2.491581000">
        <ele>538.40</ele>
        <time>2016-10-29T09:41:01Z</time>
      </trkpt>
      <trkpt lat="42.397790000" lon="-2.491569000">
        <ele>538.40</ele>
        <time>2016-10-29T09:41:02Z</time>
      </trkpt>
      <trkpt lat="42.397841000" lon="-2.491566000">
        <ele>538.50</ele>
        <time>2016-10-29T09:41:03Z</time>
      </trkpt>
      <trkpt lat="42.397891000" lon="-2.491559000">
        <ele>538.50</ele>
        <time>2016-10-29T09:41:04Z</time>
      </trkpt>
      <trkpt lat="42.397939000" lon="-2.491540000">
        <ele>538.50</ele>
        <time>2016-10-29T09:41:05Z</time>
      </trkpt>
      <trkpt lat="42.397978000" lon="-2.491513000">
        <ele>538.50</ele>
        <time>2016-10-29T09:41:06Z</time>
      </trkpt>
      <trkpt lat="42.398018000" lon="-2.491476000">
        <ele>538.50</ele>
        <time>2016-10-29T09:41:07Z</time>
      </trkpt>
      <trkpt lat="42.398047000" lon="-2.491432000">
        <ele>538.50</ele>
        <time>2016-10-29T09:41:08Z</time>
      </trkpt>
      <trkpt lat="42.398069000" lon="-2.491388000">
        <ele>538.40</ele>
        <time>2016-10-29T09:41:09Z</time>
      </trkpt>
      <trkpt lat="42.398086000" lon="-2.491341000">
        <ele>538.20</ele>
        <time>2016-10-29T09:41:10Z</time>
      </trkpt>
      <trkpt lat="42.398094000" lon="-2.491292000">
        <ele>538.00</ele>
        <time>2016-10-29T09:41:11Z</time>
      </trkpt>
      <trkpt lat="42.398099000" lon="-2.491245000">
        <ele>538.00</ele>
        <time>2016-10-29T09:41:12Z</time>
      </trkpt>
      <trkpt lat="42.398098000" lon="-2.491195000">
        <ele>537.90</ele>
        <time>2016-10-29T09:41:13Z</time>
      </trkpt>
      <trkpt lat="42.398092000" lon="-2.491142000">
        <ele>537.90</ele>
        <time>2016-10-29T09:41:14Z</time>
      </trkpt>
      <trkpt lat="42.398082000" lon="-2.491088000">
        <ele>537.90</ele>
        <time>2016-10-29T09:41:15Z</time>
      </trkpt>
      <trkpt lat="42.398072000" lon="-2.491042000">
        <ele>537.80</ele>
        <time>2016-10-29T09:41:16Z</time>
      </trkpt>
      <trkpt lat="42.398070000" lon="-2.490995000">
        <ele>537.80</ele>
        <time>2016-10-29T09:41:17Z</time>
      </trkpt>
      <trkpt lat="42.398077000" lon="-2.490962000">
        <ele>537.60</ele>
        <time>2016-10-29T09:41:18Z</time>
      </trkpt>
      <trkpt lat="42.398125000" lon="-2.490925000">
        <ele>537.10</ele>
        <time>2016-10-29T09:41:20Z</time>
      </trkpt>
      <trkpt lat="42.398170000" lon="-2.490910000">
        <ele>536.90</ele>
        <time>2016-10-29T09:41:21Z</time>
      </trkpt>
      <trkpt lat="42.398222000" lon="-2.490893000">
        <ele>536.50</ele>
        <time>2016-10-29T09:41:22Z</time>
      </trkpt>
      <trkpt lat="42.398276000" lon="-2.490868000">
        <ele>536.20</ele>
        <time>2016-10-29T09:41:23Z</time>
      </trkpt>
      <trkpt lat="42.398331000" lon="-2.490839000">
        <ele>535.20</ele>
        <time>2016-10-29T09:41:24Z</time>
      </trkpt>
      <trkpt lat="42.398389000" lon="-2.490808000">
        <ele>534.40</ele>
        <time>2016-10-29T09:41:25Z</time>
      </trkpt>
      <trkpt lat="42.398440000" lon="-2.490782000">
        <ele>533.80</ele>
        <time>2016-10-29T09:41:26Z</time>
      </trkpt>
      <trkpt lat="42.398478000" lon="-2.490754000">
        <ele>533.30</ele>
        <time>2016-10-29T09:41:27Z</time>
      </trkpt>
      <trkpt lat="42.398500000" lon="-2.490713000">
        <ele>533.00</ele>
        <time>2016-10-29T09:41:28Z</time>
      </trkpt>
      <trkpt lat="42.398514000" lon="-2.490673000">
        <ele>532.80</ele>
        <time>2016-10-29T09:41:29Z</time>
      </trkpt>
      <trkpt lat="42.398537000" lon="-2.490652000">
        <ele>532.10</ele>
        <time>2016-10-29T09:41:30Z</time>
      </trkpt>
      <trkpt lat="42.398569000" lon="-2.490640000">
        <ele>531.50</ele>
        <time>2016-10-29T09:41:31Z</time>
      </trkpt>
      <trkpt lat="42.398609000" lon="-2.490636000">
        <ele>530.80</ele>
        <time>2016-10-29T09:41:32Z</time>
      </trkpt>
      <trkpt lat="42.398660000" lon="-2.490638000">
        <ele>530.30</ele>
        <time>2016-10-29T09:41:33Z</time>
      </trkpt>
      <trkpt lat="42.398713000" lon="-2.490647000">
        <ele>529.60</ele>
        <time>2016-10-29T09:41:34Z</time>
      </trkpt>
      <trkpt lat="42.398760000" lon="-2.490655000">
        <ele>529.10</ele>
        <time>2016-10-29T09:41:35Z</time>
      </trkpt>
      <trkpt lat="42.398804000" lon="-2.490668000">
        <ele>528.30</ele>
        <time>2016-10-29T09:41:36Z</time>
      </trkpt>
      <trkpt lat="42.398839000" lon="-2.490686000">
        <ele>527.70</ele>
        <time>2016-10-29T09:41:37Z</time>
      </trkpt>
      <trkpt lat="42.398872000" lon="-2.490710000">
        <ele>526.80</ele>
        <time>2016-10-29T09:41:38Z</time>
      </trkpt>
      <trkpt lat="42.398903000" lon="-2.490736000">
        <ele>526.20</ele>
        <time>2016-10-29T09:41:39Z</time>
      </trkpt>
      <trkpt lat="42.398936000" lon="-2.490734000">
        <ele>525.40</ele>
        <time>2016-10-29T09:41:40Z</time>
      </trkpt>
      <trkpt lat="42.398955000" lon="-2.490706000">
        <ele>524.90</ele>
        <time>2016-10-29T09:41:41Z</time>
      </trkpt>
      <trkpt lat="42.398948000" lon="-2.490651000">
        <ele>524.20</ele>
        <time>2016-10-29T09:41:42Z</time>
      </trkpt>
      <trkpt lat="42.398933000" lon="-2.490586000">
        <ele>523.80</ele>
        <time>2016-10-29T09:41:43Z</time>
      </trkpt>
      <trkpt lat="42.398920000" lon="-2.490513000">
        <ele>523.40</ele>
        <time>2016-10-29T09:41:44Z</time>
      </trkpt>
      <trkpt lat="42.398902000" lon="-2.490439000">
        <ele>523.10</ele>
        <time>2016-10-29T09:41:45Z</time>
      </trkpt>
      <trkpt lat="42.398878000" lon="-2.490365000">
        <ele>522.80</ele>
        <time>2016-10-29T09:41:46Z</time>
      </trkpt>
      <trkpt lat="42.398849000" lon="-2.490287000">
        <ele>522.50</ele>
        <time>2016-10-29T09:41:47Z</time>
      </trkpt>
      <trkpt lat="42.398818000" lon="-2.490204000">
        <ele>522.00</ele>
        <time>2016-10-29T09:41:48Z</time>
      </trkpt>
      <trkpt lat="42.398784000" lon="-2.490114000">
        <ele>521.60</ele>
        <time>2016-10-29T09:41:49Z</time>
      </trkpt>
      <trkpt lat="42.398755000" lon="-2.490017000">
        <ele>520.60</ele>
        <time>2016-10-29T09:41:50Z</time>
      </trkpt>
      <trkpt lat="42.398725000" lon="-2.489917000">
        <ele>519.80</ele>
        <time>2016-10-29T09:41:51Z</time>
      </trkpt>
      <trkpt lat="42.398700000" lon="-2.489821000">
        <ele>519.20</ele>
        <time>2016-10-29T09:41:52Z</time>
      </trkpt>
      <trkpt lat="42.398681000" lon="-2.489737000">
        <ele>518.70</ele>
        <time>2016-10-29T09:41:53Z</time>
      </trkpt>
      <trkpt lat="42.398668000" lon="-2.489661000">
        <ele>518.00</ele>
        <time>2016-10-29T09:41:54Z</time>
      </trkpt>
      <trkpt lat="42.398667000" lon="-2.489596000">
        <ele>517.60</ele>
        <time>2016-10-29T09:41:55Z</time>
      </trkpt>
      <trkpt lat="42.398683000" lon="-2.489538000">
        <ele>517.10</ele>
        <time>2016-10-29T09:41:56Z</time>
      </trkpt>
      <trkpt lat="42.398716000" lon="-2.489484000">
        <ele>516.80</ele>
        <time>2016-10-29T09:41:57Z</time>
      </trkpt>
      <trkpt lat="42.398757000" lon="-2.489434000">
        <ele>516.20</ele>
        <time>2016-10-29T09:41:58Z</time>
      </trkpt>
      <trkpt lat="42.398803000" lon="-2.489381000">
        <ele>515.90</ele>
        <time>2016-10-29T09:41:59Z</time>
      </trkpt>
      <trkpt lat="42.398851000" lon="-2.489333000">
        <ele>515.40</ele>
        <time>2016-10-29T09:42:00Z</time>
      </trkpt>
      <trkpt lat="42.398905000" lon="-2.489303000">
        <ele>515.00</ele>
        <time>2016-10-29T09:42:01Z</time>
      </trkpt>
      <trkpt lat="42.398965000" lon="-2.489284000">
        <ele>514.60</ele>
        <time>2016-10-29T09:42:02Z</time>
      </trkpt>
      <trkpt lat="42.399034000" lon="-2.489265000">
        <ele>514.30</ele>
        <time>2016-10-29T09:42:03Z</time>
      </trkpt>
      <trkpt lat="42.399105000" lon="-2.489244000">
        <ele>513.70</ele>
        <time>2016-10-29T09:42:04Z</time>
      </trkpt>
      <trkpt lat="42.399173000" lon="-2.489209000">
        <ele>513.20</ele>
        <time>2016-10-29T09:42:05Z</time>
      </trkpt>
      <trkpt lat="42.399236000" lon="-2.489162000">
        <ele>512.70</ele>
        <time>2016-10-29T09:42:06Z</time>
      </trkpt>
      <trkpt lat="42.399289000" lon="-2.489099000">
        <ele>512.20</ele>
        <time>2016-10-29T09:42:07Z</time>
      </trkpt>
      <trkpt lat="42.399339000" lon="-2.489029000">
        <ele>511.30</ele>
        <time>2016-10-29T09:42:08Z</time>
      </trkpt>
      <trkpt lat="42.399386000" lon="-2.488967000">
        <ele>510.60</ele>
        <time>2016-10-29T09:42:09Z</time>
      </trkpt>
      <trkpt lat="42.399428000" lon="-2.488920000">
        <ele>509.90</ele>
        <time>2016-10-29T09:42:10Z</time>
      </trkpt>
      <trkpt lat="42.399462000" lon="-2.488889000">
        <ele>509.30</ele>
        <time>2016-10-29T09:42:11Z</time>
      </trkpt>
      <trkpt lat="42.399485000" lon="-2.488860000">
        <ele>508.30</ele>
        <time>2016-10-29T09:42:12Z</time>
      </trkpt>
      <trkpt lat="42.399493000" lon="-2.488829000">
        <ele>507.50</ele>
        <time>2016-10-29T09:42:13Z</time>
      </trkpt>
      <trkpt lat="42.399486000" lon="-2.488796000">
        <ele>506.60</ele>
        <time>2016-10-29T09:42:14Z</time>
      </trkpt>
      <trkpt lat="42.399472000" lon="-2.488766000">
        <ele>505.90</ele>
        <time>2016-10-29T09:42:15Z</time>
      </trkpt>
      <trkpt lat="42.399453000" lon="-2.488746000">
        <ele>505.20</ele>
        <time>2016-10-29T09:42:16Z</time>
      </trkpt>
      <trkpt lat="42.399438000" lon="-2.488722000">
        <ele>504.60</ele>
        <time>2016-10-29T09:42:17Z</time>
      </trkpt>
      <trkpt lat="42.399429000" lon="-2.488700000">
        <ele>504.10</ele>
        <time>2016-10-29T09:42:18Z</time>
      </trkpt>
      <trkpt lat="42.399419000" lon="-2.488681000">
        <ele>503.80</ele>
        <time>2016-10-29T09:42:19Z</time>
      </trkpt>
      <trkpt lat="42.399418000" lon="-2.488656000">
        <ele>503.40</ele>
        <time>2016-10-29T09:42:21Z</time>
      </trkpt>
      <trkpt lat="42.399419000" lon="-2.488649000">
        <ele>503.30</ele>
        <time>2016-10-29T09:42:22Z</time>
      </trkpt>
      <trkpt lat="42.399420000" lon="-2.488647000">
        <ele>503.20</ele>
        <time>2016-10-29T09:42:23Z</time>
      </trkpt>
      <trkpt lat="42.399423000" lon="-2.488643000">
        <ele>503.20</ele>
        <time>2016-10-29T09:42:24Z</time>
      </trkpt>
      <trkpt lat="42.399423000" lon="-2.488643000">
        <ele>503.20</ele>
        <time>2016-10-29T09:42:25Z</time>
      </trkpt>
      <trkpt lat="42.399423000" lon="-2.488643000">
        <ele>503.00</ele>
        <time>2016-10-29T09:42:26Z</time>
      </trkpt>
      <trkpt lat="42.399423000" lon="-2.488642000">
        <ele>502.90</ele>
        <time>2016-10-29T09:42:27Z</time>
      </trkpt>
      <trkpt lat="42.399424000" lon="-2.488642000">
        <ele>502.90</ele>
        <time>2016-10-29T09:42:28Z</time>
      </trkpt>
      <trkpt lat="42.399424000" lon="-2.488641000">
        <ele>502.80</ele>
        <time>2016-10-29T09:42:29Z</time>
      </trkpt>
      <trkpt lat="42.399423000" lon="-2.488639000">
        <ele>502.80</ele>
        <time>2016-10-29T09:42:30Z</time>
      </trkpt>
      <trkpt lat="42.399422000" lon="-2.488637000">
        <ele>502.90</ele>
        <time>2016-10-29T09:42:31Z</time>
      </trkpt>
      <trkpt lat="42.399422000" lon="-2.488636000">
        <ele>502.90</ele>
        <time>2016-10-29T09:42:32Z</time>
      </trkpt>
      <trkpt lat="42.399424000" lon="-2.488635000">
        <ele>502.90</ele>
        <time>2016-10-29T09:42:33Z</time>
      </trkpt>
      <trkpt lat="42.399424000" lon="-2.488635000">
        <ele>502.80</ele>
        <time>2016-10-29T09:42:34Z</time>
      </trkpt>
      <trkpt lat="42.399424000" lon="-2.488635000">
        <ele>502.70</ele>
        <time>2016-10-29T09:42:35Z</time>
      </trkpt>
      <trkpt lat="42.399425000" lon="-2.488635000">
        <ele>502.60</ele>
        <time>2016-10-29T09:42:36Z</time>
      </trkpt>
      <trkpt lat="42.399425000" lon="-2.488634000">
        <ele>502.50</ele>
        <time>2016-10-29T09:42:37Z</time>
      </trkpt>
      <trkpt lat="42.399425000" lon="-2.488634000">
        <ele>502.60</ele>
        <time>2016-10-29T09:42:38Z</time>
      </trkpt>
      <trkpt lat="42.399426000" lon="-2.488633000">
        <ele>502.60</ele>
        <time>2016-10-29T09:42:39Z</time>
      </trkpt>
      <trkpt lat="42.399426000" lon="-2.488632000">
        <ele>502.60</ele>
        <time>2016-10-29T09:42:40Z</time>
      </trkpt>
      <trkpt lat="42.399427000" lon="-2.488632000">
        <ele>502.70</ele>
        <time>2016-10-29T09:42:41Z</time>
      </trkpt>
      <trkpt lat="42.399427000" lon="-2.488633000">
        <ele>502.70</ele>
        <time>2016-10-29T09:42:42Z</time>
      </trkpt>
      <trkpt lat="42.399428000" lon="-2.488633000">
        <ele>502.70</ele>
        <time>2016-10-29T09:42:43Z</time>
      </trkpt>
      <trkpt lat="42.399429000" lon="-2.488634000">
        <ele>502.90</ele>
        <time>2016-10-29T09:42:44Z</time>
      </trkpt>
      <trkpt lat="42.399429000" lon="-2.488635000">
        <ele>502.90</ele>
        <time>2016-10-29T09:42:45Z</time>
      </trkpt>
      <trkpt lat="42.399430000" lon="-2.488636000">
        <ele>503.00</ele>
        <time>2016-10-29T09:42:46Z</time>
      </trkpt>
      <trkpt lat="42.399431000" lon="-2.488637000">
        <ele>503.10</ele>
        <time>2016-10-29T09:42:47Z</time>
      </trkpt>
      <trkpt lat="42.399431000" lon="-2.488638000">
        <ele>503.20</ele>
        <time>2016-10-29T09:42:48Z</time>
      </trkpt>
      <trkpt lat="42.399432000" lon="-2.488639000">
        <ele>503.20</ele>
        <time>2016-10-29T09:42:49Z</time>
      </trkpt>
      <trkpt lat="42.399433000" lon="-2.488640000">
        <ele>503.20</ele>
        <time>2016-10-29T09:42:50Z</time>
      </trkpt>
      <trkpt lat="42.399433000" lon="-2.488640000">
        <ele>503.30</ele>
        <time>2016-10-29T09:42:51Z</time>
      </trkpt>
      <trkpt lat="42.399433000" lon="-2.488641000">
        <ele>503.30</ele>
        <time>2016-10-29T09:42:52Z</time>
      </trkpt>
      <trkpt lat="42.399434000" lon="-2.488641000">
        <ele>503.40</ele>
        <time>2016-10-29T09:42:53Z</time>
      </trkpt>
      <trkpt lat="42.399433000" lon="-2.488641000">
        <ele>503.50</ele>
        <time>2016-10-29T09:42:54Z</time>
      </trkpt>
      <trkpt lat="42.399433000" lon="-2.488640000">
        <ele>503.60</ele>
        <time>2016-10-29T09:42:55Z</time>
      </trkpt>
      <trkpt lat="42.399432000" lon="-2.488640000">
        <ele>503.60</ele>
        <time>2016-10-29T09:42:56Z</time>
      </trkpt>
      <trkpt lat="42.399432000" lon="-2.488639000">
        <ele>503.60</ele>
        <time>2016-10-29T09:42:57Z</time>
      </trkpt>
      <trkpt lat="42.399431000" lon="-2.488638000">
        <ele>503.70</ele>
        <time>2016-10-29T09:42:58Z</time>
      </trkpt>
      <trkpt lat="42.399431000" lon="-2.488637000">
        <ele>503.70</ele>
        <time>2016-10-29T09:42:59Z</time>
      </trkpt>
      <trkpt lat="42.399431000" lon="-2.488637000">
        <ele>503.60</ele>
        <time>2016-10-29T09:43:00Z</time>
      </trkpt>
      <trkpt lat="42.399431000" lon="-2.488637000">
        <ele>503.50</ele>
        <time>2016-10-29T09:43:01Z</time>
      </trkpt>
      <trkpt lat="42.399431000" lon="-2.488637000">
        <ele>503.50</ele>
        <time>2016-10-29T09:43:02Z</time>
      </trkpt>
      <trkpt lat="42.399431000" lon="-2.488637000">
        <ele>503.50</ele>
        <time>2016-10-29T09:43:03Z</time>
      </trkpt>
      <trkpt lat="42.399431000" lon="-2.488637000">
        <ele>503.40</ele>
        <time>2016-10-29T09:43:04Z</time>
      </trkpt>
      <trkpt lat="42.399431000" lon="-2.488637000">
        <ele>503.40</ele>
        <time>2016-10-29T09:43:05Z</time>
      </trkpt>
      <trkpt lat="42.399431000" lon="-2.488637000">
        <ele>503.30</ele>
        <time>2016-10-29T09:43:06Z</time>
      </trkpt>
      <trkpt lat="42.399431000" lon="-2.488637000">
        <ele>503.30</ele>
        <time>2016-10-29T09:43:07Z</time>
      </trkpt>
      <trkpt lat="42.399428000" lon="-2.488630000">
        <ele>503.30</ele>
        <time>2016-10-29T09:43:08Z</time>
      </trkpt>
      <trkpt lat="42.399423000" lon="-2.488616000">
        <ele>503.30</ele>
        <time>2016-10-29T09:43:09Z</time>
      </trkpt>
      <trkpt lat="42.399412000" lon="-2.488593000">
        <ele>503.30</ele>
        <time>2016-10-29T09:43:10Z</time>
      </trkpt>
      <trkpt lat="42.399402000" lon="-2.488578000">
        <ele>503.30</ele>
        <time>2016-10-29T09:43:11Z</time>
      </trkpt>
      <trkpt lat="42.399394000" lon="-2.488559000">
        <ele>503.30</ele>
        <time>2016-10-29T09:43:12Z</time>
      </trkpt>
      <trkpt lat="42.399384000" lon="-2.488536000">
        <ele>503.40</ele>
        <time>2016-10-29T09:43:13Z</time>
      </trkpt>
      <trkpt lat="42.399373000" lon="-2.488509000">
        <ele>503.40</ele>
        <time>2016-10-29T09:43:14Z</time>
      </trkpt>
      <trkpt lat="42.399363000" lon="-2.488478000">
        <ele>503.40</ele>
        <time>2016-10-29T09:43:15Z</time>
      </trkpt>
      <trkpt lat="42.399352000" lon="-2.488444000">
        <ele>503.40</ele>
        <time>2016-10-29T09:43:16Z</time>
      </trkpt>
      <trkpt lat="42.399337000" lon="-2.488409000">
        <ele>503.40</ele>
        <time>2016-10-29T09:43:17Z</time>
      </trkpt>
      <trkpt lat="42.399325000" lon="-2.488369000">
        <ele>503.30</ele>
        <time>2016-10-29T09:43:18Z</time>
      </trkpt>
      <trkpt lat="42.399309000" lon="-2.488329000">
        <ele>503.20</ele>
        <time>2016-10-29T09:43:19Z</time>
      </trkpt>
      <trkpt lat="42.399292000" lon="-2.488287000">
        <ele>503.10</ele>
        <time>2016-10-29T09:43:20Z</time>
      </trkpt>
      <trkpt lat="42.399257000" lon="-2.488193000">
        <ele>503.20</ele>
        <time>2016-10-29T09:43:22Z</time>
      </trkpt>
      <trkpt lat="42.399240000" lon="-2.488144000">
        <ele>503.30</ele>
        <time>2016-10-29T09:43:23Z</time>
      </trkpt>
      <trkpt lat="42.399222000" lon="-2.488092000">
        <ele>503.30</ele>
        <time>2016-10-29T09:43:24Z</time>
      </trkpt>
      <trkpt lat="42.399202000" lon="-2.488039000">
        <ele>503.40</ele>
        <time>2016-10-29T09:43:25Z</time>
      </trkpt>
      <trkpt lat="42.399180000" lon="-2.487992000">
        <ele>503.40</ele>
        <time>2016-10-29T09:43:26Z</time>
      </trkpt>
      <trkpt lat="42.399156000" lon="-2.487948000">
        <ele>503.40</ele>
        <time>2016-10-29T09:43:27Z</time>
      </trkpt>
      <trkpt lat="42.399126000" lon="-2.487908000">
        <ele>503.60</ele>
        <time>2016-10-29T09:43:28Z</time>
      </trkpt>
      <trkpt lat="42.399090000" lon="-2.487872000">
        <ele>503.80</ele>
        <time>2016-10-29T09:43:29Z</time>
      </trkpt>
      <trkpt lat="42.399049000" lon="-2.487841000">
        <ele>503.90</ele>
        <time>2016-10-29T09:43:30Z</time>
      </trkpt>
      <trkpt lat="42.399008000" lon="-2.487815000">
        <ele>504.00</ele>
        <time>2016-10-29T09:43:31Z</time>
      </trkpt>
      <trkpt lat="42.398968000" lon="-2.487792000">
        <ele>504.00</ele>
        <time>2016-10-29T09:43:32Z</time>
      </trkpt>
      <trkpt lat="42.398929000" lon="-2.487767000">
        <ele>504.10</ele>
        <time>2016-10-29T09:43:33Z</time>
      </trkpt>
      <trkpt lat="42.398888000" lon="-2.487743000">
        <ele>504.00</ele>
        <time>2016-10-29T09:43:34Z</time>
      </trkpt>
      <trkpt lat="42.398848000" lon="-2.487718000">
        <ele>503.90</ele>
        <time>2016-10-29T09:43:35Z</time>
      </trkpt>
      <trkpt lat="42.398808000" lon="-2.487691000">
        <ele>503.90</ele>
        <time>2016-10-29T09:43:36Z</time>
      </trkpt>
      <trkpt lat="42.398764000" lon="-2.487668000">
        <ele>503.90</ele>
        <time>2016-10-29T09:43:37Z</time>
      </trkpt>
      <trkpt lat="42.398720000" lon="-2.487646000">
        <ele>503.80</ele>
        <time>2016-10-29T09:43:38Z</time>
      </trkpt>
      <trkpt lat="42.398680000" lon="-2.487616000">
        <ele>503.80</ele>
        <time>2016-10-29T09:43:39Z</time>
      </trkpt>
      <trkpt lat="42.398640000" lon="-2.487587000">
        <ele>503.80</ele>
        <time>2016-10-29T09:43:40Z</time>
      </trkpt>
      <trkpt lat="42.398602000" lon="-2.487556000">
        <ele>503.80</ele>
        <time>2016-10-29T09:43:41Z</time>
      </trkpt>
      <trkpt lat="42.398567000" lon="-2.487518000">
        <ele>503.90</ele>
        <time>2016-10-29T09:43:42Z</time>
      </trkpt>
      <trkpt lat="42.398537000" lon="-2.487468000">
        <ele>504.00</ele>
        <time>2016-10-29T09:43:43Z</time>
      </trkpt>
      <trkpt lat="42.398506000" lon="-2.487417000">
        <ele>504.10</ele>
        <time>2016-10-29T09:43:44Z</time>
      </trkpt>
      <trkpt lat="42.398477000" lon="-2.487364000">
        <ele>504.20</ele>
        <time>2016-10-29T09:43:45Z</time>
      </trkpt>
      <trkpt lat="42.398450000" lon="-2.487305000">
        <ele>504.20</ele>
        <time>2016-10-29T09:43:46Z</time>
      </trkpt>
      <trkpt lat="42.398421000" lon="-2.487252000">
        <ele>504.30</ele>
        <time>2016-10-29T09:43:47Z</time>
      </trkpt>
      <trkpt lat="42.398388000" lon="-2.487195000">
        <ele>504.10</ele>
        <time>2016-10-29T09:43:48Z</time>
      </trkpt>
      <trkpt lat="42.398354000" lon="-2.487142000">
        <ele>504.00</ele>
        <time>2016-10-29T09:43:49Z</time>
      </trkpt>
      <trkpt lat="42.398323000" lon="-2.487091000">
        <ele>503.90</ele>
        <time>2016-10-29T09:43:50Z</time>
      </trkpt>
      <trkpt lat="42.398289000" lon="-2.487043000">
        <ele>503.80</ele>
        <time>2016-10-29T09:43:51Z</time>
      </trkpt>
      <trkpt lat="42.398255000" lon="-2.486999000">
        <ele>503.70</ele>
        <time>2016-10-29T09:43:52Z</time>
      </trkpt>
      <trkpt lat="42.398222000" lon="-2.486953000">
        <ele>503.70</ele>
        <time>2016-10-29T09:43:53Z</time>
      </trkpt>
      <trkpt lat="42.398188000" lon="-2.486912000">
        <ele>503.60</ele>
        <time>2016-10-29T09:43:54Z</time>
      </trkpt>
      <trkpt lat="42.398158000" lon="-2.486868000">
        <ele>503.60</ele>
        <time>2016-10-29T09:43:55Z</time>
      </trkpt>
      <trkpt lat="42.398131000" lon="-2.486820000">
        <ele>503.80</ele>
        <time>2016-10-29T09:43:56Z</time>
      </trkpt>
      <trkpt lat="42.398110000" lon="-2.486763000">
        <ele>503.90</ele>
        <time>2016-10-29T09:43:57Z</time>
      </trkpt>
      <trkpt lat="42.398087000" lon="-2.486708000">
        <ele>504.00</ele>
        <time>2016-10-29T09:43:58Z</time>
      </trkpt>
      <trkpt lat="42.398066000" lon="-2.486651000">
        <ele>504.10</ele>
        <time>2016-10-29T09:43:59Z</time>
      </trkpt>
      <trkpt lat="42.398046000" lon="-2.486591000">
        <ele>504.20</ele>
        <time>2016-10-29T09:44:00Z</time>
      </trkpt>
      <trkpt lat="42.398034000" lon="-2.486527000">
        <ele>504.30</ele>
        <time>2016-10-29T09:44:01Z</time>
      </trkpt>
      <trkpt lat="42.398027000" lon="-2.486463000">
        <ele>504.40</ele>
        <time>2016-10-29T09:44:02Z</time>
      </trkpt>
      <trkpt lat="42.398016000" lon="-2.486398000">
        <ele>504.50</ele>
        <time>2016-10-29T09:44:03Z</time>
      </trkpt>
      <trkpt lat="42.397999000" lon="-2.486339000">
        <ele>504.50</ele>
        <time>2016-10-29T09:44:04Z</time>
      </trkpt>
      <trkpt lat="42.397974000" lon="-2.486279000">
        <ele>504.50</ele>
        <time>2016-10-29T09:44:05Z</time>
      </trkpt>
      <trkpt lat="42.397944000" lon="-2.486222000">
        <ele>504.40</ele>
        <time>2016-10-29T09:44:06Z</time>
      </trkpt>
      <trkpt lat="42.397910000" lon="-2.486167000">
        <ele>504.30</ele>
        <time>2016-10-29T09:44:07Z</time>
      </trkpt>
      <trkpt lat="42.397874000" lon="-2.486118000">
        <ele>504.30</ele>
        <time>2016-10-29T09:44:08Z</time>
      </trkpt>
      <trkpt lat="42.397835000" lon="-2.486071000">
        <ele>504.30</ele>
        <time>2016-10-29T09:44:09Z</time>
      </trkpt>
      <trkpt lat="42.397793000" lon="-2.486030000">
        <ele>504.30</ele>
        <time>2016-10-29T09:44:10Z</time>
      </trkpt>
      <trkpt lat="42.397757000" lon="-2.485995000">
        <ele>504.20</ele>
        <time>2016-10-29T09:44:11Z</time>
      </trkpt>
      <trkpt lat="42.397728000" lon="-2.485965000">
        <ele>504.20</ele>
        <time>2016-10-29T09:44:12Z</time>
      </trkpt>
      <trkpt lat="42.397708000" lon="-2.485930000">
        <ele>504.20</ele>
        <time>2016-10-29T09:44:13Z</time>
      </trkpt>
      <trkpt lat="42.397699000" lon="-2.485895000">
        <ele>504.10</ele>
        <time>2016-10-29T09:44:14Z</time>
      </trkpt>
      <trkpt lat="42.397707000" lon="-2.485859000">
        <ele>504.00</ele>
        <time>2016-10-29T09:44:15Z</time>
      </trkpt>
      <trkpt lat="42.397728000" lon="-2.485817000">
        <ele>503.90</ele>
        <time>2016-10-29T09:44:16Z</time>
      </trkpt>
      <trkpt lat="42.397755000" lon="-2.485770000">
        <ele>503.80</ele>
        <time>2016-10-29T09:44:17Z</time>
      </trkpt>
      <trkpt lat="42.397792000" lon="-2.485714000">
        <ele>503.40</ele>
        <time>2016-10-29T09:44:18Z</time>
      </trkpt>
      <trkpt lat="42.397841000" lon="-2.485659000">
        <ele>503.20</ele>
        <time>2016-10-29T09:44:19Z</time>
      </trkpt>
      <trkpt lat="42.397890000" lon="-2.485597000">
        <ele>502.50</ele>
        <time>2016-10-29T09:44:20Z</time>
      </trkpt>
      <trkpt lat="42.397941000" lon="-2.485531000">
        <ele>501.90</ele>
        <time>2016-10-29T09:44:21Z</time>
      </trkpt>
      <trkpt lat="42.398053000" lon="-2.485387000">
        <ele>501.20</ele>
        <time>2016-10-29T09:44:23Z</time>
      </trkpt>
      <trkpt lat="42.398105000" lon="-2.485303000">
        <ele>500.60</ele>
        <time>2016-10-29T09:44:24Z</time>
      </trkpt>
      <trkpt lat="42.398166000" lon="-2.485227000">
        <ele>500.20</ele>
        <time>2016-10-29T09:44:25Z</time>
      </trkpt>
      <trkpt lat="42.398228000" lon="-2.485145000">
        <ele>499.40</ele>
        <time>2016-10-29T09:44:26Z</time>
      </trkpt>
      <trkpt lat="42.398288000" lon="-2.485059000">
        <ele>498.80</ele>
        <time>2016-10-29T09:44:27Z</time>
      </trkpt>
      <trkpt lat="42.398354000" lon="-2.484978000">
        <ele>498.30</ele>
        <time>2016-10-29T09:44:28Z</time>
      </trkpt>
      <trkpt lat="42.398420000" lon="-2.484895000">
        <ele>497.80</ele>
        <time>2016-10-29T09:44:29Z</time>
      </trkpt>
      <trkpt lat="42.398488000" lon="-2.484812000">
        <ele>497.10</ele>
        <time>2016-10-29T09:44:30Z</time>
      </trkpt>
      <trkpt lat="42.398559000" lon="-2.484732000">
        <ele>496.50</ele>
        <time>2016-10-29T09:44:31Z</time>
      </trkpt>
      <trkpt lat="42.398634000" lon="-2.484660000">
        <ele>495.50</ele>
        <time>2016-10-29T09:44:32Z</time>
      </trkpt>
      <trkpt lat="42.398711000" lon="-2.484590000">
        <ele>494.80</ele>
        <time>2016-10-29T09:44:33Z</time>
      </trkpt>
      <trkpt lat="42.398786000" lon="-2.484515000">
        <ele>494.30</ele>
        <time>2016-10-29T09:44:34Z</time>
      </trkpt>
      <trkpt lat="42.398855000" lon="-2.484435000">
        <ele>493.90</ele>
        <time>2016-10-29T09:44:35Z</time>
      </trkpt>
      <trkpt lat="42.398915000" lon="-2.484345000">
        <ele>493.60</ele>
        <time>2016-10-29T09:44:36Z</time>
      </trkpt>
      <trkpt lat="42.398972000" lon="-2.484254000">
        <ele>493.40</ele>
        <time>2016-10-29T09:44:37Z</time>
      </trkpt>
      <trkpt lat="42.399025000" lon="-2.484165000">
        <ele>493.20</ele>
        <time>2016-10-29T09:44:38Z</time>
      </trkpt>
      <trkpt lat="42.399078000" lon="-2.484076000">
        <ele>493.00</ele>
        <time>2016-10-29T09:44:39Z</time>
      </trkpt>
      <trkpt lat="42.399130000" lon="-2.483993000">
        <ele>493.10</ele>
        <time>2016-10-29T09:44:40Z</time>
      </trkpt>
      <trkpt lat="42.399182000" lon="-2.483914000">
        <ele>493.10</ele>
        <time>2016-10-29T09:44:41Z</time>
      </trkpt>
      <trkpt lat="42.399236000" lon="-2.483836000">
        <ele>492.80</ele>
        <time>2016-10-29T09:44:42Z</time>
      </trkpt>
      <trkpt lat="42.399286000" lon="-2.483758000">
        <ele>492.50</ele>
        <time>2016-10-29T09:44:43Z</time>
      </trkpt>
      <trkpt lat="42.399334000" lon="-2.483679000">
        <ele>492.40</ele>
        <time>2016-10-29T09:44:44Z</time>
      </trkpt>
      <trkpt lat="42.399381000" lon="-2.483605000">
        <ele>492.30</ele>
        <time>2016-10-29T09:44:45Z</time>
      </trkpt>
      <trkpt lat="42.399426000" lon="-2.483529000">
        <ele>492.30</ele>
        <time>2016-10-29T09:44:46Z</time>
      </trkpt>
      <trkpt lat="42.399470000" lon="-2.483452000">
        <ele>492.20</ele>
        <time>2016-10-29T09:44:47Z</time>
      </trkpt>
      <trkpt lat="42.399515000" lon="-2.483373000">
        <ele>492.20</ele>
        <time>2016-10-29T09:44:48Z</time>
      </trkpt>
      <trkpt lat="42.399560000" lon="-2.483297000">
        <ele>492.20</ele>
        <time>2016-10-29T09:44:49Z</time>
      </trkpt>
      <trkpt lat="42.399607000" lon="-2.483219000">
        <ele>492.10</ele>
        <time>2016-10-29T09:44:50Z</time>
      </trkpt>
      <trkpt lat="42.399652000" lon="-2.483140000">
        <ele>492.00</ele>
        <time>2016-10-29T09:44:51Z</time>
      </trkpt>
      <trkpt lat="42.399696000" lon="-2.483063000">
        <ele>492.00</ele>
        <time>2016-10-29T09:44:52Z</time>
      </trkpt>
      <trkpt lat="42.399737000" lon="-2.482984000">
        <ele>491.90</ele>
        <time>2016-10-29T09:44:53Z</time>
      </trkpt>
      <trkpt lat="42.399770000" lon="-2.482899000">
        <ele>492.00</ele>
        <time>2016-10-29T09:44:54Z</time>
      </trkpt>
      <trkpt lat="42.399798000" lon="-2.482815000">
        <ele>492.10</ele>
        <time>2016-10-29T09:44:55Z</time>
      </trkpt>
      <trkpt lat="42.399833000" lon="-2.482737000">
        <ele>492.20</ele>
        <time>2016-10-29T09:44:56Z</time>
      </trkpt>
      <trkpt lat="42.399867000" lon="-2.482657000">
        <ele>492.20</ele>
        <time>2016-10-29T09:44:57Z</time>
      </trkpt>
      <trkpt lat="42.399898000" lon="-2.482576000">
        <ele>492.00</ele>
        <time>2016-10-29T09:44:58Z</time>
      </trkpt>
      <trkpt lat="42.399931000" lon="-2.482495000">
        <ele>491.80</ele>
        <time>2016-10-29T09:44:59Z</time>
      </trkpt>
      <trkpt lat="42.399967000" lon="-2.482413000">
        <ele>491.60</ele>
        <time>2016-10-29T09:45:00Z</time>
      </trkpt>
      <trkpt lat="42.400000000" lon="-2.482330000">
        <ele>491.50</ele>
        <time>2016-10-29T09:45:01Z</time>
      </trkpt>
      <trkpt lat="42.400032000" lon="-2.482247000">
        <ele>491.30</ele>
        <time>2016-10-29T09:45:02Z</time>
      </trkpt>
      <trkpt lat="42.400064000" lon="-2.482165000">
        <ele>491.20</ele>
        <time>2016-10-29T09:45:03Z</time>
      </trkpt>
      <trkpt lat="42.400094000" lon="-2.482083000">
        <ele>491.10</ele>
        <time>2016-10-29T09:45:04Z</time>
      </trkpt>
      <trkpt lat="42.400127000" lon="-2.482001000">
        <ele>491.00</ele>
        <time>2016-10-29T09:45:05Z</time>
      </trkpt>
      <trkpt lat="42.400158000" lon="-2.481921000">
        <ele>491.00</ele>
        <time>2016-10-29T09:45:06Z</time>
      </trkpt>
      <trkpt lat="42.400192000" lon="-2.481844000">
        <ele>490.90</ele>
        <time>2016-10-29T09:45:07Z</time>
      </trkpt>
      <trkpt lat="42.400224000" lon="-2.481766000">
        <ele>490.80</ele>
        <time>2016-10-29T09:45:08Z</time>
      </trkpt>
      <trkpt lat="42.400251000" lon="-2.481683000">
        <ele>490.70</ele>
        <time>2016-10-29T09:45:09Z</time>
      </trkpt>
      <trkpt lat="42.400279000" lon="-2.481600000">
        <ele>490.70</ele>
        <time>2016-10-29T09:45:10Z</time>
      </trkpt>
      <trkpt lat="42.400303000" lon="-2.481516000">
        <ele>490.70</ele>
        <time>2016-10-29T09:45:11Z</time>
      </trkpt>
      <trkpt lat="42.400326000" lon="-2.481435000">
        <ele>490.60</ele>
        <time>2016-10-29T09:45:12Z</time>
      </trkpt>
      <trkpt lat="42.400348000" lon="-2.481359000">
        <ele>490.60</ele>
        <time>2016-10-29T09:45:13Z</time>
      </trkpt>
      <trkpt lat="42.400369000" lon="-2.481285000">
        <ele>490.60</ele>
        <time>2016-10-29T09:45:14Z</time>
      </trkpt>
      <trkpt lat="42.400390000" lon="-2.481214000">
        <ele>490.60</ele>
        <time>2016-10-29T09:45:15Z</time>
      </trkpt>
      <trkpt lat="42.400416000" lon="-2.481148000">
        <ele>490.80</ele>
        <time>2016-10-29T09:45:16Z</time>
      </trkpt>
      <trkpt lat="42.400442000" lon="-2.481080000">
        <ele>490.90</ele>
        <time>2016-10-29T09:45:17Z</time>
      </trkpt>
      <trkpt lat="42.400469000" lon="-2.481016000">
        <ele>491.10</ele>
        <time>2016-10-29T09:45:18Z</time>
      </trkpt>
      <trkpt lat="42.400499000" lon="-2.480948000">
        <ele>491.20</ele>
        <time>2016-10-29T09:45:19Z</time>
      </trkpt>
      <trkpt lat="42.400529000" lon="-2.480882000">
        <ele>491.30</ele>
        <time>2016-10-29T09:45:20Z</time>
      </trkpt>
      <trkpt lat="42.400559000" lon="-2.480819000">
        <ele>491.40</ele>
        <time>2016-10-29T09:45:21Z</time>
      </trkpt>
      <trkpt lat="42.400593000" lon="-2.480754000">
        <ele>491.40</ele>
        <time>2016-10-29T09:45:22Z</time>
      </trkpt>
      <trkpt lat="42.400661000" lon="-2.480627000">
        <ele>491.40</ele>
        <time>2016-10-29T09:45:24Z</time>
      </trkpt>
      <trkpt lat="42.400697000" lon="-2.480567000">
        <ele>491.40</ele>
        <time>2016-10-29T09:45:25Z</time>
      </trkpt>
      <trkpt lat="42.400731000" lon="-2.480506000">
        <ele>491.70</ele>
        <time>2016-10-29T09:45:26Z</time>
      </trkpt>
      <trkpt lat="42.400765000" lon="-2.480442000">
        <ele>492.00</ele>
        <time>2016-10-29T09:45:27Z</time>
      </trkpt>
      <trkpt lat="42.400799000" lon="-2.480378000">
        <ele>492.20</ele>
        <time>2016-10-29T09:45:28Z</time>
      </trkpt>
      <trkpt lat="42.400834000" lon="-2.480311000">
        <ele>492.30</ele>
        <time>2016-10-29T09:45:29Z</time>
      </trkpt>
      <trkpt lat="42.400870000" lon="-2.480241000">
        <ele>492.50</ele>
        <time>2016-10-29T09:45:30Z</time>
      </trkpt>
      <trkpt lat="42.400909000" lon="-2.480169000">
        <ele>492.60</ele>
        <time>2016-10-29T09:45:31Z</time>
      </trkpt>
      <trkpt lat="42.400949000" lon="-2.480096000">
        <ele>492.70</ele>
        <time>2016-10-29T09:45:32Z</time>
      </trkpt>
      <trkpt lat="42.400988000" lon="-2.480021000">
        <ele>492.70</ele>
        <time>2016-10-29T09:45:33Z</time>
      </trkpt>
      <trkpt lat="42.401029000" lon="-2.479944000">
        <ele>492.60</ele>
        <time>2016-10-29T09:45:34Z</time>
      </trkpt>
      <trkpt lat="42.401068000" lon="-2.479864000">
        <ele>492.50</ele>
        <time>2016-10-29T09:45:35Z</time>
      </trkpt>
      <trkpt lat="42.401107000" lon="-2.479781000">
        <ele>492.40</ele>
        <time>2016-10-29T09:45:36Z</time>
      </trkpt>
      <trkpt lat="42.401147000" lon="-2.479697000">
        <ele>492.30</ele>
        <time>2016-10-29T09:45:37Z</time>
      </trkpt>
      <trkpt lat="42.401183000" lon="-2.479612000">
        <ele>492.20</ele>
        <time>2016-10-29T09:45:38Z</time>
      </trkpt>
      <trkpt lat="42.401220000" lon="-2.479527000">
        <ele>492.20</ele>
        <time>2016-10-29T09:45:39Z</time>
      </trkpt>
      <trkpt lat="42.401259000" lon="-2.479445000">
        <ele>492.10</ele>
        <time>2016-10-29T09:45:40Z</time>
      </trkpt>
      <trkpt lat="42.401298000" lon="-2.479362000">
        <ele>492.10</ele>
        <time>2016-10-29T09:45:41Z</time>
      </trkpt>
      <trkpt lat="42.401333000" lon="-2.479274000">
        <ele>492.10</ele>
        <time>2016-10-29T09:45:42Z</time>
      </trkpt>
      <trkpt lat="42.401368000" lon="-2.479185000">
        <ele>492.10</ele>
        <time>2016-10-29T09:45:43Z</time>
      </trkpt>
      <trkpt lat="42.401400000" lon="-2.479097000">
        <ele>491.80</ele>
        <time>2016-10-29T09:45:44Z</time>
      </trkpt>
      <trkpt lat="42.401434000" lon="-2.479010000">
        <ele>491.60</ele>
        <time>2016-10-29T09:45:45Z</time>
      </trkpt>
      <trkpt lat="42.401464000" lon="-2.478920000">
        <ele>491.40</ele>
        <time>2016-10-29T09:45:46Z</time>
      </trkpt>
      <trkpt lat="42.401493000" lon="-2.478833000">
        <ele>491.30</ele>
        <time>2016-10-29T09:45:47Z</time>
      </trkpt>
      <trkpt lat="42.401525000" lon="-2.478747000">
        <ele>491.20</ele>
        <time>2016-10-29T09:45:48Z</time>
      </trkpt>
      <trkpt lat="42.401556000" lon="-2.478661000">
        <ele>491.10</ele>
        <time>2016-10-29T09:45:49Z</time>
      </trkpt>
      <trkpt lat="42.401588000" lon="-2.478575000">
        <ele>490.90</ele>
        <time>2016-10-29T09:45:50Z</time>
      </trkpt>
      <trkpt lat="42.401617000" lon="-2.478493000">
        <ele>490.80</ele>
        <time>2016-10-29T09:45:51Z</time>
      </trkpt>
      <trkpt lat="42.401642000" lon="-2.478409000">
        <ele>490.80</ele>
        <time>2016-10-29T09:45:52Z</time>
      </trkpt>
      <trkpt lat="42.401668000" lon="-2.478325000">
        <ele>490.70</ele>
        <time>2016-10-29T09:45:53Z</time>
      </trkpt>
      <trkpt lat="42.401697000" lon="-2.478241000">
        <ele>490.40</ele>
        <time>2016-10-29T09:45:54Z</time>
      </trkpt>
      <trkpt lat="42.401722000" lon="-2.478158000">
        <ele>490.20</ele>
        <time>2016-10-29T09:45:55Z</time>
      </trkpt>
      <trkpt lat="42.401746000" lon="-2.478074000">
        <ele>490.00</ele>
        <time>2016-10-29T09:45:56Z</time>
      </trkpt>
      <trkpt lat="42.401777000" lon="-2.477997000">
        <ele>489.90</ele>
        <time>2016-10-29T09:45:57Z</time>
      </trkpt>
      <trkpt lat="42.401805000" lon="-2.477919000">
        <ele>489.80</ele>
        <time>2016-10-29T09:45:58Z</time>
      </trkpt>
      <trkpt lat="42.401834000" lon="-2.477841000">
        <ele>489.70</ele>
        <time>2016-10-29T09:45:59Z</time>
      </trkpt>
      <trkpt lat="42.401865000" lon="-2.477766000">
        <ele>489.70</ele>
        <time>2016-10-29T09:46:00Z</time>
      </trkpt>
      <trkpt lat="42.401893000" lon="-2.477688000">
        <ele>489.60</ele>
        <time>2016-10-29T09:46:01Z</time>
      </trkpt>
      <trkpt lat="42.401924000" lon="-2.477612000">
        <ele>489.60</ele>
        <time>2016-10-29T09:46:02Z</time>
      </trkpt>
      <trkpt lat="42.401958000" lon="-2.477539000">
        <ele>489.70</ele>
        <time>2016-10-29T09:46:03Z</time>
      </trkpt>
      <trkpt lat="42.401990000" lon="-2.477466000">
        <ele>489.80</ele>
        <time>2016-10-29T09:46:04Z</time>
      </trkpt>
      <trkpt lat="42.402020000" lon="-2.477393000">
        <ele>489.80</ele>
        <time>2016-10-29T09:46:05Z</time>
      </trkpt>
      <trkpt lat="42.402041000" lon="-2.477318000">
        <ele>489.90</ele>
        <time>2016-10-29T09:46:06Z</time>
      </trkpt>
      <trkpt lat="42.402050000" lon="-2.477240000">
        <ele>489.90</ele>
        <time>2016-10-29T09:46:07Z</time>
      </trkpt>
      <trkpt lat="42.402058000" lon="-2.477160000">
        <ele>489.90</ele>
        <time>2016-10-29T09:46:08Z</time>
      </trkpt>
      <trkpt lat="42.402066000" lon="-2.477078000">
        <ele>490.00</ele>
        <time>2016-10-29T09:46:09Z</time>
      </trkpt>
      <trkpt lat="42.402076000" lon="-2.476996000">
        <ele>490.00</ele>
        <time>2016-10-29T09:46:10Z</time>
      </trkpt>
      <trkpt lat="42.402092000" lon="-2.476910000">
        <ele>489.90</ele>
        <time>2016-10-29T09:46:11Z</time>
      </trkpt>
      <trkpt lat="42.402113000" lon="-2.476828000">
        <ele>489.80</ele>
        <time>2016-10-29T09:46:12Z</time>
      </trkpt>
      <trkpt lat="42.402134000" lon="-2.476744000">
        <ele>489.80</ele>
        <time>2016-10-29T09:46:13Z</time>
      </trkpt>
      <trkpt lat="42.402160000" lon="-2.476661000">
        <ele>489.70</ele>
        <time>2016-10-29T09:46:14Z</time>
      </trkpt>
      <trkpt lat="42.402187000" lon="-2.476579000">
        <ele>489.70</ele>
        <time>2016-10-29T09:46:15Z</time>
      </trkpt>
      <trkpt lat="42.402213000" lon="-2.476496000">
        <ele>489.80</ele>
        <time>2016-10-29T09:46:16Z</time>
      </trkpt>
      <trkpt lat="42.402241000" lon="-2.476417000">
        <ele>489.90</ele>
        <time>2016-10-29T09:46:17Z</time>
      </trkpt>
      <trkpt lat="42.402271000" lon="-2.476337000">
        <ele>489.90</ele>
        <time>2016-10-29T09:46:18Z</time>
      </trkpt>
      <trkpt lat="42.402304000" lon="-2.476265000">
        <ele>490.00</ele>
        <time>2016-10-29T09:46:19Z</time>
      </trkpt>
      <trkpt lat="42.402339000" lon="-2.476194000">
        <ele>490.00</ele>
        <time>2016-10-29T09:46:20Z</time>
      </trkpt>
      <trkpt lat="42.402377000" lon="-2.476123000">
        <ele>490.20</ele>
        <time>2016-10-29T09:46:21Z</time>
      </trkpt>
      <trkpt lat="42.402415000" lon="-2.476047000">
        <ele>490.40</ele>
        <time>2016-10-29T09:46:22Z</time>
      </trkpt>
      <trkpt lat="42.402453000" lon="-2.475974000">
        <ele>490.30</ele>
        <time>2016-10-29T09:46:23Z</time>
      </trkpt>
      <trkpt lat="42.402539000" lon="-2.475828000">
        <ele>490.20</ele>
        <time>2016-10-29T09:46:25Z</time>
      </trkpt>
      <trkpt lat="42.402586000" lon="-2.475757000">
        <ele>490.10</ele>
        <time>2016-10-29T09:46:26Z</time>
      </trkpt>
      <trkpt lat="42.402637000" lon="-2.475686000">
        <ele>489.90</ele>
        <time>2016-10-29T09:46:27Z</time>
      </trkpt>
      <trkpt lat="42.402691000" lon="-2.475616000">
        <ele>489.80</ele>
        <time>2016-10-29T09:46:28Z</time>
      </trkpt>
      <trkpt lat="42.402742000" lon="-2.475542000">
        <ele>489.30</ele>
        <time>2016-10-29T09:46:29Z</time>
      </trkpt>
      <trkpt lat="42.402796000" lon="-2.475473000">
        <ele>489.00</ele>
        <time>2016-10-29T09:46:30Z</time>
      </trkpt>
      <trkpt lat="42.402849000" lon="-2.475402000">
        <ele>488.80</ele>
        <time>2016-10-29T09:46:31Z</time>
      </trkpt>
      <trkpt lat="42.402901000" lon="-2.475332000">
        <ele>488.60</ele>
        <time>2016-10-29T09:46:32Z</time>
      </trkpt>
      <trkpt lat="42.402954000" lon="-2.475263000">
        <ele>488.50</ele>
        <time>2016-10-29T09:46:33Z</time>
      </trkpt>
      <trkpt lat="42.403007000" lon="-2.475193000">
        <ele>488.50</ele>
        <time>2016-10-29T09:46:34Z</time>
      </trkpt>
      <trkpt lat="42.403061000" lon="-2.475121000">
        <ele>488.40</ele>
        <time>2016-10-29T09:46:35Z</time>
      </trkpt>
      <trkpt lat="42.403116000" lon="-2.475049000">
        <ele>488.40</ele>
        <time>2016-10-29T09:46:36Z</time>
      </trkpt>
      <trkpt lat="42.403171000" lon="-2.474977000">
        <ele>488.00</ele>
        <time>2016-10-29T09:46:37Z</time>
      </trkpt>
      <trkpt lat="42.403226000" lon="-2.474901000">
        <ele>487.70</ele>
        <time>2016-10-29T09:46:38Z</time>
      </trkpt>
      <trkpt lat="42.403282000" lon="-2.474825000">
        <ele>487.50</ele>
        <time>2016-10-29T09:46:39Z</time>
      </trkpt>
      <trkpt lat="42.403336000" lon="-2.474746000">
        <ele>487.30</ele>
        <time>2016-10-29T09:46:40Z</time>
      </trkpt>
      <trkpt lat="42.403391000" lon="-2.474666000">
        <ele>487.30</ele>
        <time>2016-10-29T09:46:41Z</time>
      </trkpt>
      <trkpt lat="42.403446000" lon="-2.474584000">
        <ele>487.20</ele>
        <time>2016-10-29T09:46:42Z</time>
      </trkpt>
      <trkpt lat="42.403502000" lon="-2.474502000">
        <ele>487.20</ele>
        <time>2016-10-29T09:46:43Z</time>
      </trkpt>
      <trkpt lat="42.403557000" lon="-2.474417000">
        <ele>487.20</ele>
        <time>2016-10-29T09:46:44Z</time>
      </trkpt>
      <trkpt lat="42.403610000" lon="-2.474333000">
        <ele>486.80</ele>
        <time>2016-10-29T09:46:45Z</time>
      </trkpt>
      <trkpt lat="42.403665000" lon="-2.474248000">
        <ele>486.50</ele>
        <time>2016-10-29T09:46:46Z</time>
      </trkpt>
      <trkpt lat="42.403722000" lon="-2.474169000">
        <ele>486.20</ele>
        <time>2016-10-29T09:46:47Z</time>
      </trkpt>
      <trkpt lat="42.403776000" lon="-2.474091000">
        <ele>486.00</ele>
        <time>2016-10-29T09:46:48Z</time>
      </trkpt>
      <trkpt lat="42.403830000" lon="-2.474015000">
        <ele>485.70</ele>
        <time>2016-10-29T09:46:49Z</time>
      </trkpt>
      <trkpt lat="42.403884000" lon="-2.473941000">
        <ele>485.60</ele>
        <time>2016-10-29T09:46:50Z</time>
      </trkpt>
      <trkpt lat="42.403939000" lon="-2.473866000">
        <ele>485.50</ele>
        <time>2016-10-29T09:46:51Z</time>
      </trkpt>
      <trkpt lat="42.403995000" lon="-2.473795000">
        <ele>485.40</ele>
        <time>2016-10-29T09:46:52Z</time>
      </trkpt>
      <trkpt lat="42.404051000" lon="-2.473723000">
        <ele>485.60</ele>
        <time>2016-10-29T09:46:53Z</time>
      </trkpt>
      <trkpt lat="42.404104000" lon="-2.473648000">
        <ele>485.60</ele>
        <time>2016-10-29T09:46:54Z</time>
      </trkpt>
      <trkpt lat="42.404159000" lon="-2.473573000">
        <ele>485.70</ele>
        <time>2016-10-29T09:46:55Z</time>
      </trkpt>
      <trkpt lat="42.404214000" lon="-2.473502000">
        <ele>485.80</ele>
        <time>2016-10-29T09:46:56Z</time>
      </trkpt>
      <trkpt lat="42.404268000" lon="-2.473428000">
        <ele>485.70</ele>
        <time>2016-10-29T09:46:57Z</time>
      </trkpt>
      <trkpt lat="42.404320000" lon="-2.473352000">
        <ele>485.70</ele>
        <time>2016-10-29T09:46:58Z</time>
      </trkpt>
      <trkpt lat="42.404369000" lon="-2.473274000">
        <ele>485.60</ele>
        <time>2016-10-29T09:46:59Z</time>
      </trkpt>
      <trkpt lat="42.404415000" lon="-2.473195000">
        <ele>485.50</ele>
        <time>2016-10-29T09:47:00Z</time>
      </trkpt>
      <trkpt lat="42.404461000" lon="-2.473116000">
        <ele>485.50</ele>
        <time>2016-10-29T09:47:01Z</time>
      </trkpt>
      <trkpt lat="42.404503000" lon="-2.473038000">
        <ele>485.40</ele>
        <time>2016-10-29T09:47:02Z</time>
      </trkpt>
      <trkpt lat="42.404546000" lon="-2.472962000">
        <ele>485.40</ele>
        <time>2016-10-29T09:47:03Z</time>
      </trkpt>
      <trkpt lat="42.404590000" lon="-2.472885000">
        <ele>485.40</ele>
        <time>2016-10-29T09:47:04Z</time>
      </trkpt>
      <trkpt lat="42.404635000" lon="-2.472811000">
        <ele>485.30</ele>
        <time>2016-10-29T09:47:05Z</time>
      </trkpt>
      <trkpt lat="42.404681000" lon="-2.472740000">
        <ele>485.20</ele>
        <time>2016-10-29T09:47:06Z</time>
      </trkpt>
      <trkpt lat="42.404725000" lon="-2.472669000">
        <ele>485.20</ele>
        <time>2016-10-29T09:47:07Z</time>
      </trkpt>
      <trkpt lat="42.404771000" lon="-2.472596000">
        <ele>485.10</ele>
        <time>2016-10-29T09:47:08Z</time>
      </trkpt>
      <trkpt lat="42.404817000" lon="-2.472525000">
        <ele>485.10</ele>
        <time>2016-10-29T09:47:09Z</time>
      </trkpt>
      <trkpt lat="42.404863000" lon="-2.472456000">
        <ele>485.10</ele>
        <time>2016-10-29T09:47:10Z</time>
      </trkpt>
      <trkpt lat="42.404909000" lon="-2.472384000">
        <ele>485.00</ele>
        <time>2016-10-29T09:47:11Z</time>
      </trkpt>
      <trkpt lat="42.404956000" lon="-2.472316000">
        <ele>485.00</ele>
        <time>2016-10-29T09:47:12Z</time>
      </trkpt>
      <trkpt lat="42.405002000" lon="-2.472246000">
        <ele>484.90</ele>
        <time>2016-10-29T09:47:13Z</time>
      </trkpt>
      <trkpt lat="42.405048000" lon="-2.472176000">
        <ele>484.90</ele>
        <time>2016-10-29T09:47:14Z</time>
      </trkpt>
      <trkpt lat="42.405095000" lon="-2.472106000">
        <ele>485.10</ele>
        <time>2016-10-29T09:47:15Z</time>
      </trkpt>
      <trkpt lat="42.405142000" lon="-2.472039000">
        <ele>485.20</ele>
        <time>2016-10-29T09:47:16Z</time>
      </trkpt>
      <trkpt lat="42.405186000" lon="-2.471971000">
        <ele>485.30</ele>
        <time>2016-10-29T09:47:17Z</time>
      </trkpt>
      <trkpt lat="42.405235000" lon="-2.471906000">
        <ele>485.30</ele>
        <time>2016-10-29T09:47:18Z</time>
      </trkpt>
      <trkpt lat="42.405283000" lon="-2.471843000">
        <ele>485.40</ele>
        <time>2016-10-29T09:47:19Z</time>
      </trkpt>
      <trkpt lat="42.405329000" lon="-2.471782000">
        <ele>485.40</ele>
        <time>2016-10-29T09:47:20Z</time>
      </trkpt>
      <trkpt lat="42.405376000" lon="-2.471718000">
        <ele>485.50</ele>
        <time>2016-10-29T09:47:21Z</time>
      </trkpt>
      <trkpt lat="42.405420000" lon="-2.471652000">
        <ele>485.50</ele>
        <time>2016-10-29T09:47:22Z</time>
      </trkpt>
      <trkpt lat="42.405462000" lon="-2.471587000">
        <ele>485.60</ele>
        <time>2016-10-29T09:47:23Z</time>
      </trkpt>
      <trkpt lat="42.405504000" lon="-2.471523000">
        <ele>485.70</ele>
        <time>2016-10-29T09:47:24Z</time>
      </trkpt>
      <trkpt lat="42.405591000" lon="-2.471395000">
        <ele>486.00</ele>
        <time>2016-10-29T09:47:26Z</time>
      </trkpt>
      <trkpt lat="42.405630000" lon="-2.471327000">
        <ele>486.10</ele>
        <time>2016-10-29T09:47:27Z</time>
      </trkpt>
      <trkpt lat="42.405668000" lon="-2.471256000">
        <ele>486.10</ele>
        <time>2016-10-29T09:47:28Z</time>
      </trkpt>
      <trkpt lat="42.405708000" lon="-2.471186000">
        <ele>486.20</ele>
        <time>2016-10-29T09:47:29Z</time>
      </trkpt>
      <trkpt lat="42.405754000" lon="-2.471120000">
        <ele>486.20</ele>
        <time>2016-10-29T09:47:30Z</time>
      </trkpt>
      <trkpt lat="42.405800000" lon="-2.471056000">
        <ele>486.40</ele>
        <time>2016-10-29T09:47:31Z</time>
      </trkpt>
      <trkpt lat="42.405848000" lon="-2.470995000">
        <ele>486.60</ele>
        <time>2016-10-29T09:47:32Z</time>
      </trkpt>
      <trkpt lat="42.405898000" lon="-2.470933000">
        <ele>486.70</ele>
        <time>2016-10-29T09:47:33Z</time>
      </trkpt>
      <trkpt lat="42.405946000" lon="-2.470874000">
        <ele>486.80</ele>
        <time>2016-10-29T09:47:34Z</time>
      </trkpt>
      <trkpt lat="42.405999000" lon="-2.470816000">
        <ele>486.90</ele>
        <time>2016-10-29T09:47:35Z</time>
      </trkpt>
      <trkpt lat="42.406050000" lon="-2.470757000">
        <ele>486.90</ele>
        <time>2016-10-29T09:47:36Z</time>
      </trkpt>
      <trkpt lat="42.406100000" lon="-2.470691000">
        <ele>487.00</ele>
        <time>2016-10-29T09:47:37Z</time>
      </trkpt>
      <trkpt lat="42.406150000" lon="-2.470625000">
        <ele>487.00</ele>
        <time>2016-10-29T09:47:38Z</time>
      </trkpt>
      <trkpt lat="42.406200000" lon="-2.470556000">
        <ele>486.80</ele>
        <time>2016-10-29T09:47:39Z</time>
      </trkpt>
      <trkpt lat="42.406248000" lon="-2.470483000">
        <ele>486.70</ele>
        <time>2016-10-29T09:47:40Z</time>
      </trkpt>
      <trkpt lat="42.406292000" lon="-2.470406000">
        <ele>486.60</ele>
        <time>2016-10-29T09:47:41Z</time>
      </trkpt>
      <trkpt lat="42.406336000" lon="-2.470334000">
        <ele>486.50</ele>
        <time>2016-10-29T09:47:42Z</time>
      </trkpt>
      <trkpt lat="42.406381000" lon="-2.470265000">
        <ele>486.40</ele>
        <time>2016-10-29T09:47:43Z</time>
      </trkpt>
      <trkpt lat="42.406429000" lon="-2.470196000">
        <ele>486.30</ele>
        <time>2016-10-29T09:47:44Z</time>
      </trkpt>
      <trkpt lat="42.406478000" lon="-2.470125000">
        <ele>486.30</ele>
        <time>2016-10-29T09:47:45Z</time>
      </trkpt>
      <trkpt lat="42.406529000" lon="-2.470054000">
        <ele>486.20</ele>
        <time>2016-10-29T09:47:46Z</time>
      </trkpt>
      <trkpt lat="42.406576000" lon="-2.469979000">
        <ele>486.10</ele>
        <time>2016-10-29T09:47:47Z</time>
      </trkpt>
      <trkpt lat="42.406630000" lon="-2.469908000">
        <ele>486.00</ele>
        <time>2016-10-29T09:47:48Z</time>
      </trkpt>
      <trkpt lat="42.406684000" lon="-2.469834000">
        <ele>485.90</ele>
        <time>2016-10-29T09:47:49Z</time>
      </trkpt>
      <trkpt lat="42.406740000" lon="-2.469762000">
        <ele>485.80</ele>
        <time>2016-10-29T09:47:50Z</time>
      </trkpt>
      <trkpt lat="42.406796000" lon="-2.469690000">
        <ele>485.70</ele>
        <time>2016-10-29T09:47:51Z</time>
      </trkpt>
      <trkpt lat="42.406848000" lon="-2.469618000">
        <ele>485.50</ele>
        <time>2016-10-29T09:47:52Z</time>
      </trkpt>
      <trkpt lat="42.406905000" lon="-2.469550000">
        <ele>485.40</ele>
        <time>2016-10-29T09:47:53Z</time>
      </trkpt>
      <trkpt lat="42.406964000" lon="-2.469486000">
        <ele>485.30</ele>
        <time>2016-10-29T09:47:54Z</time>
      </trkpt>
      <trkpt lat="42.407024000" lon="-2.469420000">
        <ele>484.90</ele>
        <time>2016-10-29T09:47:55Z</time>
      </trkpt>
      <trkpt lat="42.407087000" lon="-2.469360000">
        <ele>484.60</ele>
        <time>2016-10-29T09:47:56Z</time>
      </trkpt>
      <trkpt lat="42.407153000" lon="-2.469304000">
        <ele>484.40</ele>
        <time>2016-10-29T09:47:57Z</time>
      </trkpt>
      <trkpt lat="42.407221000" lon="-2.469245000">
        <ele>484.30</ele>
        <time>2016-10-29T09:47:58Z</time>
      </trkpt>
      <trkpt lat="42.407283000" lon="-2.469178000">
        <ele>484.10</ele>
        <time>2016-10-29T09:47:59Z</time>
      </trkpt>
      <trkpt lat="42.407343000" lon="-2.469106000">
        <ele>484.00</ele>
        <time>2016-10-29T09:48:00Z</time>
      </trkpt>
      <trkpt lat="42.407400000" lon="-2.469028000">
        <ele>483.70</ele>
        <time>2016-10-29T09:48:01Z</time>
      </trkpt>
      <trkpt lat="42.407455000" lon="-2.468948000">
        <ele>483.40</ele>
        <time>2016-10-29T09:48:02Z</time>
      </trkpt>
      <trkpt lat="42.407504000" lon="-2.468865000">
        <ele>483.20</ele>
        <time>2016-10-29T09:48:03Z</time>
      </trkpt>
      <trkpt lat="42.407556000" lon="-2.468781000">
        <ele>483.10</ele>
        <time>2016-10-29T09:48:04Z</time>
      </trkpt>
      <trkpt lat="42.407605000" lon="-2.468696000">
        <ele>482.80</ele>
        <time>2016-10-29T09:48:05Z</time>
      </trkpt>
      <trkpt lat="42.407653000" lon="-2.468607000">
        <ele>482.50</ele>
        <time>2016-10-29T09:48:06Z</time>
      </trkpt>
      <trkpt lat="42.407697000" lon="-2.468518000">
        <ele>482.50</ele>
        <time>2016-10-29T09:48:07Z</time>
      </trkpt>
      <trkpt lat="42.407741000" lon="-2.468433000">
        <ele>482.50</ele>
        <time>2016-10-29T09:48:08Z</time>
      </trkpt>
      <trkpt lat="42.407786000" lon="-2.468346000">
        <ele>482.30</ele>
        <time>2016-10-29T09:48:09Z</time>
      </trkpt>
      <trkpt lat="42.407829000" lon="-2.468259000">
        <ele>482.20</ele>
        <time>2016-10-29T09:48:10Z</time>
      </trkpt>
      <trkpt lat="42.407871000" lon="-2.468168000">
        <ele>482.10</ele>
        <time>2016-10-29T09:48:11Z</time>
      </trkpt>
      <trkpt lat="42.407919000" lon="-2.468081000">
        <ele>482.00</ele>
        <time>2016-10-29T09:48:12Z</time>
      </trkpt>
      <trkpt lat="42.407967000" lon="-2.467993000">
        <ele>481.80</ele>
        <time>2016-10-29T09:48:13Z</time>
      </trkpt>
      <trkpt lat="42.408014000" lon="-2.467903000">
        <ele>481.70</ele>
        <time>2016-10-29T09:48:14Z</time>
      </trkpt>
      <trkpt lat="42.408062000" lon="-2.467812000">
        <ele>481.50</ele>
        <time>2016-10-29T09:48:15Z</time>
      </trkpt>
      <trkpt lat="42.408113000" lon="-2.467726000">
        <ele>481.30</ele>
        <time>2016-10-29T09:48:16Z</time>
      </trkpt>
      <trkpt lat="42.408165000" lon="-2.467648000">
        <ele>481.00</ele>
        <time>2016-10-29T09:48:17Z</time>
      </trkpt>
      <trkpt lat="42.408217000" lon="-2.467571000">
        <ele>480.80</ele>
        <time>2016-10-29T09:48:18Z</time>
      </trkpt>
      <trkpt lat="42.408272000" lon="-2.467498000">
        <ele>480.40</ele>
        <time>2016-10-29T09:48:19Z</time>
      </trkpt>
      <trkpt lat="42.408329000" lon="-2.467429000">
        <ele>480.10</ele>
        <time>2016-10-29T09:48:20Z</time>
      </trkpt>
      <trkpt lat="42.408382000" lon="-2.467363000">
        <ele>479.90</ele>
        <time>2016-10-29T09:48:21Z</time>
      </trkpt>
      <trkpt lat="42.408432000" lon="-2.467294000">
        <ele>479.80</ele>
        <time>2016-10-29T09:48:22Z</time>
      </trkpt>
      <trkpt lat="42.408480000" lon="-2.467224000">
        <ele>479.70</ele>
        <time>2016-10-29T09:48:23Z</time>
      </trkpt>
      <trkpt lat="42.408527000" lon="-2.467154000">
        <ele>479.70</ele>
        <time>2016-10-29T09:48:24Z</time>
      </trkpt>
      <trkpt lat="42.408581000" lon="-2.467085000">
        <ele>479.60</ele>
        <time>2016-10-29T09:48:25Z</time>
      </trkpt>
      <trkpt lat="42.408690000" lon="-2.466946000">
        <ele>479.50</ele>
        <time>2016-10-29T09:48:27Z</time>
      </trkpt>
      <trkpt lat="42.408745000" lon="-2.466878000">
        <ele>479.40</ele>
        <time>2016-10-29T09:48:28Z</time>
      </trkpt>
      <trkpt lat="42.408804000" lon="-2.466815000">
        <ele>479.20</ele>
        <time>2016-10-29T09:48:29Z</time>
      </trkpt>
      <trkpt lat="42.408867000" lon="-2.466758000">
        <ele>479.10</ele>
        <time>2016-10-29T09:48:30Z</time>
      </trkpt>
      <trkpt lat="42.408931000" lon="-2.466704000">
        <ele>479.10</ele>
        <time>2016-10-29T09:48:31Z</time>
      </trkpt>
      <trkpt lat="42.408995000" lon="-2.466652000">
        <ele>479.10</ele>
        <time>2016-10-29T09:48:32Z</time>
      </trkpt>
      <trkpt lat="42.409058000" lon="-2.466598000">
        <ele>479.10</ele>
        <time>2016-10-29T09:48:33Z</time>
      </trkpt>
      <trkpt lat="42.409120000" lon="-2.466542000">
        <ele>479.10</ele>
        <time>2016-10-29T09:48:34Z</time>
      </trkpt>
      <trkpt lat="42.409183000" lon="-2.466488000">
        <ele>479.10</ele>
        <time>2016-10-29T09:48:35Z</time>
      </trkpt>
      <trkpt lat="42.409251000" lon="-2.466441000">
        <ele>479.00</ele>
        <time>2016-10-29T09:48:36Z</time>
      </trkpt>
      <trkpt lat="42.409315000" lon="-2.466394000">
        <ele>479.00</ele>
        <time>2016-10-29T09:48:37Z</time>
      </trkpt>
      <trkpt lat="42.409379000" lon="-2.466355000">
        <ele>478.90</ele>
        <time>2016-10-29T09:48:38Z</time>
      </trkpt>
      <trkpt lat="42.409442000" lon="-2.466315000">
        <ele>478.80</ele>
        <time>2016-10-29T09:48:39Z</time>
      </trkpt>
      <trkpt lat="42.409506000" lon="-2.466282000">
        <ele>478.60</ele>
        <time>2016-10-29T09:48:40Z</time>
      </trkpt>
      <trkpt lat="42.409569000" lon="-2.466252000">
        <ele>478.70</ele>
        <time>2016-10-29T09:48:41Z</time>
      </trkpt>
      <trkpt lat="42.409632000" lon="-2.466225000">
        <ele>478.70</ele>
        <time>2016-10-29T09:48:42Z</time>
      </trkpt>
      <trkpt lat="42.409695000" lon="-2.466201000">
        <ele>478.60</ele>
        <time>2016-10-29T09:48:43Z</time>
      </trkpt>
      <trkpt lat="42.409755000" lon="-2.466181000">
        <ele>478.50</ele>
        <time>2016-10-29T09:48:44Z</time>
      </trkpt>
      <trkpt lat="42.409814000" lon="-2.466165000">
        <ele>478.60</ele>
        <time>2016-10-29T09:48:45Z</time>
      </trkpt>
      <trkpt lat="42.409872000" lon="-2.466151000">
        <ele>478.70</ele>
        <time>2016-10-29T09:48:46Z</time>
      </trkpt>
      <trkpt lat="42.409930000" lon="-2.466138000">
        <ele>478.80</ele>
        <time>2016-10-29T09:48:47Z</time>
      </trkpt>
      <trkpt lat="42.409987000" lon="-2.466129000">
        <ele>478.90</ele>
        <time>2016-10-29T09:48:48Z</time>
      </trkpt>
      <trkpt lat="42.410043000" lon="-2.466126000">
        <ele>479.00</ele>
        <time>2016-10-29T09:48:49Z</time>
      </trkpt>
      <trkpt lat="42.410103000" lon="-2.466129000">
        <ele>479.10</ele>
        <time>2016-10-29T09:48:50Z</time>
      </trkpt>
      <trkpt lat="42.410161000" lon="-2.466133000">
        <ele>479.10</ele>
        <time>2016-10-29T09:48:51Z</time>
      </trkpt>
      <trkpt lat="42.410222000" lon="-2.466140000">
        <ele>479.20</ele>
        <time>2016-10-29T09:48:52Z</time>
      </trkpt>
      <trkpt lat="42.410286000" lon="-2.466146000">
        <ele>479.20</ele>
        <time>2016-10-29T09:48:53Z</time>
      </trkpt>
      <trkpt lat="42.410349000" lon="-2.466155000">
        <ele>479.20</ele>
        <time>2016-10-29T09:48:54Z</time>
      </trkpt>
      <trkpt lat="42.410413000" lon="-2.466166000">
        <ele>479.20</ele>
        <time>2016-10-29T09:48:55Z</time>
      </trkpt>
      <trkpt lat="42.410479000" lon="-2.466180000">
        <ele>479.30</ele>
        <time>2016-10-29T09:48:56Z</time>
      </trkpt>
      <trkpt lat="42.410546000" lon="-2.466194000">
        <ele>479.10</ele>
        <time>2016-10-29T09:48:57Z</time>
      </trkpt>
      <trkpt lat="42.410613000" lon="-2.466207000">
        <ele>478.90</ele>
        <time>2016-10-29T09:48:58Z</time>
      </trkpt>
      <trkpt lat="42.410681000" lon="-2.466226000">
        <ele>478.80</ele>
        <time>2016-10-29T09:48:59Z</time>
      </trkpt>
      <trkpt lat="42.410751000" lon="-2.466253000">
        <ele>478.80</ele>
        <time>2016-10-29T09:49:00Z</time>
      </trkpt>
      <trkpt lat="42.410822000" lon="-2.466283000">
        <ele>478.70</ele>
        <time>2016-10-29T09:49:01Z</time>
      </trkpt>
      <trkpt lat="42.410891000" lon="-2.466316000">
        <ele>478.70</ele>
        <time>2016-10-29T09:49:02Z</time>
      </trkpt>
      <trkpt lat="42.410960000" lon="-2.466351000">
        <ele>478.60</ele>
        <time>2016-10-29T09:49:03Z</time>
      </trkpt>
      <trkpt lat="42.411030000" lon="-2.466387000">
        <ele>478.50</ele>
        <time>2016-10-29T09:49:04Z</time>
      </trkpt>
      <trkpt lat="42.411097000" lon="-2.466426000">
        <ele>478.40</ele>
        <time>2016-10-29T09:49:05Z</time>
      </trkpt>
      <trkpt lat="42.411164000" lon="-2.466468000">
        <ele>478.40</ele>
        <time>2016-10-29T09:49:06Z</time>
      </trkpt>
      <trkpt lat="42.411229000" lon="-2.466504000">
        <ele>478.40</ele>
        <time>2016-10-29T09:49:07Z</time>
      </trkpt>
      <trkpt lat="42.411294000" lon="-2.466539000">
        <ele>478.30</ele>
        <time>2016-10-29T09:49:08Z</time>
      </trkpt>
      <trkpt lat="42.411360000" lon="-2.466575000">
        <ele>478.10</ele>
        <time>2016-10-29T09:49:09Z</time>
      </trkpt>
      <trkpt lat="42.411423000" lon="-2.466605000">
        <ele>477.90</ele>
        <time>2016-10-29T09:49:10Z</time>
      </trkpt>
      <trkpt lat="42.411486000" lon="-2.466635000">
        <ele>477.70</ele>
        <time>2016-10-29T09:49:11Z</time>
      </trkpt>
      <trkpt lat="42.411546000" lon="-2.466661000">
        <ele>477.50</ele>
        <time>2016-10-29T09:49:12Z</time>
      </trkpt>
      <trkpt lat="42.411611000" lon="-2.466684000">
        <ele>477.40</ele>
        <time>2016-10-29T09:49:13Z</time>
      </trkpt>
      <trkpt lat="42.411677000" lon="-2.466703000">
        <ele>477.40</ele>
        <time>2016-10-29T09:49:14Z</time>
      </trkpt>
      <trkpt lat="42.411741000" lon="-2.466727000">
        <ele>477.30</ele>
        <time>2016-10-29T09:49:15Z</time>
      </trkpt>
      <trkpt lat="42.411804000" lon="-2.466748000">
        <ele>477.30</ele>
        <time>2016-10-29T09:49:16Z</time>
      </trkpt>
      <trkpt lat="42.411869000" lon="-2.466766000">
        <ele>477.20</ele>
        <time>2016-10-29T09:49:17Z</time>
      </trkpt>
      <trkpt lat="42.411930000" lon="-2.466788000">
        <ele>477.10</ele>
        <time>2016-10-29T09:49:18Z</time>
      </trkpt>
      <trkpt lat="42.411991000" lon="-2.466816000">
        <ele>477.10</ele>
        <time>2016-10-29T09:49:19Z</time>
      </trkpt>
      <trkpt lat="42.412052000" lon="-2.466840000">
        <ele>477.00</ele>
        <time>2016-10-29T09:49:20Z</time>
      </trkpt>
      <trkpt lat="42.412113000" lon="-2.466869000">
        <ele>477.00</ele>
        <time>2016-10-29T09:49:21Z</time>
      </trkpt>
      <trkpt lat="42.412174000" lon="-2.466902000">
        <ele>477.10</ele>
        <time>2016-10-29T09:49:22Z</time>
      </trkpt>
      <trkpt lat="42.412234000" lon="-2.466932000">
        <ele>477.10</ele>
        <time>2016-10-29T09:49:23Z</time>
      </trkpt>
      <trkpt lat="42.412294000" lon="-2.466961000">
        <ele>477.10</ele>
        <time>2016-10-29T09:49:24Z</time>
      </trkpt>
      <trkpt lat="42.412352000" lon="-2.466991000">
        <ele>477.30</ele>
        <time>2016-10-29T09:49:25Z</time>
      </trkpt>
      <trkpt lat="42.412410000" lon="-2.467020000">
        <ele>477.50</ele>
        <time>2016-10-29T09:49:26Z</time>
      </trkpt>
      <trkpt lat="42.412531000" lon="-2.467075000">
        <ele>477.30</ele>
        <time>2016-10-29T09:49:28Z</time>
      </trkpt>
      <trkpt lat="42.412593000" lon="-2.467096000">
        <ele>477.30</ele>
        <time>2016-10-29T09:49:29Z</time>
      </trkpt>
      <trkpt lat="42.412655000" lon="-2.467112000">
        <ele>477.20</ele>
        <time>2016-10-29T09:49:30Z</time>
      </trkpt>
      <trkpt lat="42.412719000" lon="-2.467125000">
        <ele>477.20</ele>
        <time>2016-10-29T09:49:31Z</time>
      </trkpt>
      <trkpt lat="42.412784000" lon="-2.467137000">
        <ele>477.20</ele>
        <time>2016-10-29T09:49:32Z</time>
      </trkpt>
      <trkpt lat="42.412847000" lon="-2.467148000">
        <ele>477.30</ele>
        <time>2016-10-29T09:49:33Z</time>
      </trkpt>
      <trkpt lat="42.412908000" lon="-2.467154000">
        <ele>477.40</ele>
        <time>2016-10-29T09:49:34Z</time>
      </trkpt>
      <trkpt lat="42.412969000" lon="-2.467153000">
        <ele>477.60</ele>
        <time>2016-10-29T09:49:35Z</time>
      </trkpt>
      <trkpt lat="42.413031000" lon="-2.467143000">
        <ele>477.70</ele>
        <time>2016-10-29T09:49:36Z</time>
      </trkpt>
      <trkpt lat="42.413093000" lon="-2.467132000">
        <ele>477.90</ele>
        <time>2016-10-29T09:49:37Z</time>
      </trkpt>
      <trkpt lat="42.413157000" lon="-2.467118000">
        <ele>477.90</ele>
        <time>2016-10-29T09:49:38Z</time>
      </trkpt>
      <trkpt lat="42.413230000" lon="-2.467099000">
        <ele>477.80</ele>
        <time>2016-10-29T09:49:39Z</time>
      </trkpt>
      <trkpt lat="42.413310000" lon="-2.467071000">
        <ele>477.70</ele>
        <time>2016-10-29T09:49:40Z</time>
      </trkpt>
      <trkpt lat="42.413395000" lon="-2.467027000">
        <ele>477.00</ele>
        <time>2016-10-29T09:49:41Z</time>
      </trkpt>
      <trkpt lat="42.413477000" lon="-2.466961000">
        <ele>476.50</ele>
        <time>2016-10-29T09:49:42Z</time>
      </trkpt>
      <trkpt lat="42.413548000" lon="-2.466877000">
        <ele>476.00</ele>
        <time>2016-10-29T09:49:43Z</time>
      </trkpt>
      <trkpt lat="42.413599000" lon="-2.466764000">
        <ele>475.60</ele>
        <time>2016-10-29T09:49:44Z</time>
      </trkpt>
      <trkpt lat="42.413664000" lon="-2.466685000">
        <ele>475.00</ele>
        <time>2016-10-29T09:49:45Z</time>
      </trkpt>
      <trkpt lat="42.413748000" lon="-2.466644000">
        <ele>474.60</ele>
        <time>2016-10-29T09:49:46Z</time>
      </trkpt>
      <trkpt lat="42.413832000" lon="-2.466642000">
        <ele>474.20</ele>
        <time>2016-10-29T09:49:47Z</time>
      </trkpt>
      <trkpt lat="42.413911000" lon="-2.466670000">
        <ele>474.00</ele>
        <time>2016-10-29T09:49:48Z</time>
      </trkpt>
      <trkpt lat="42.413977000" lon="-2.466729000">
        <ele>473.60</ele>
        <time>2016-10-29T09:49:49Z</time>
      </trkpt>
      <trkpt lat="42.414026000" lon="-2.466792000">
        <ele>473.30</ele>
        <time>2016-10-29T09:49:50Z</time>
      </trkpt>
      <trkpt lat="42.414073000" lon="-2.466851000">
        <ele>473.40</ele>
        <time>2016-10-29T09:49:51Z</time>
      </trkpt>
      <trkpt lat="42.414115000" lon="-2.466914000">
        <ele>473.50</ele>
        <time>2016-10-29T09:49:52Z</time>
      </trkpt>
      <trkpt lat="42.414154000" lon="-2.466979000">
        <ele>473.90</ele>
        <time>2016-10-29T09:49:53Z</time>
      </trkpt>
      <trkpt lat="42.414189000" lon="-2.467041000">
        <ele>474.20</ele>
        <time>2016-10-29T09:49:54Z</time>
      </trkpt>
      <trkpt lat="42.414218000" lon="-2.467102000">
        <ele>474.40</ele>
        <time>2016-10-29T09:49:55Z</time>
      </trkpt>
      <trkpt lat="42.414250000" lon="-2.467157000">
        <ele>474.60</ele>
        <time>2016-10-29T09:49:56Z</time>
      </trkpt>
      <trkpt lat="42.414282000" lon="-2.467211000">
        <ele>474.90</ele>
        <time>2016-10-29T09:49:57Z</time>
      </trkpt>
      <trkpt lat="42.414312000" lon="-2.467266000">
        <ele>475.10</ele>
        <time>2016-10-29T09:49:58Z</time>
      </trkpt>
      <trkpt lat="42.414341000" lon="-2.467322000">
        <ele>475.90</ele>
        <time>2016-10-29T09:49:59Z</time>
      </trkpt>
      <trkpt lat="42.414364000" lon="-2.467375000">
        <ele>476.40</ele>
        <time>2016-10-29T09:50:00Z</time>
      </trkpt>
      <trkpt lat="42.414392000" lon="-2.467426000">
        <ele>476.80</ele>
        <time>2016-10-29T09:50:01Z</time>
      </trkpt>
      <trkpt lat="42.414419000" lon="-2.467474000">
        <ele>477.20</ele>
        <time>2016-10-29T09:50:02Z</time>
      </trkpt>
      <trkpt lat="42.414448000" lon="-2.467522000">
        <ele>477.60</ele>
        <time>2016-10-29T09:50:03Z</time>
      </trkpt>
      <trkpt lat="42.414479000" lon="-2.467568000">
        <ele>477.90</ele>
        <time>2016-10-29T09:50:04Z</time>
      </trkpt>
      <trkpt lat="42.414514000" lon="-2.467609000">
        <ele>478.10</ele>
        <time>2016-10-29T09:50:05Z</time>
      </trkpt>
      <trkpt lat="42.414551000" lon="-2.467651000">
        <ele>478.30</ele>
        <time>2016-10-29T09:50:06Z</time>
      </trkpt>
      <trkpt lat="42.414585000" lon="-2.467692000">
        <ele>478.50</ele>
        <time>2016-10-29T09:50:07Z</time>
      </trkpt>
      <trkpt lat="42.414624000" lon="-2.467731000">
        <ele>478.60</ele>
        <time>2016-10-29T09:50:08Z</time>
      </trkpt>
      <trkpt lat="42.414665000" lon="-2.467765000">
        <ele>478.60</ele>
        <time>2016-10-29T09:50:09Z</time>
      </trkpt>
      <trkpt lat="42.414710000" lon="-2.467800000">
        <ele>478.70</ele>
        <time>2016-10-29T09:50:10Z</time>
      </trkpt>
      <trkpt lat="42.414759000" lon="-2.467828000">
        <ele>478.70</ele>
        <time>2016-10-29T09:50:11Z</time>
      </trkpt>
      <trkpt lat="42.414804000" lon="-2.467857000">
        <ele>478.80</ele>
        <time>2016-10-29T09:50:12Z</time>
      </trkpt>
      <trkpt lat="42.414850000" lon="-2.467884000">
        <ele>478.80</ele>
        <time>2016-10-29T09:50:13Z</time>
      </trkpt>
      <trkpt lat="42.414895000" lon="-2.467908000">
        <ele>478.80</ele>
        <time>2016-10-29T09:50:14Z</time>
      </trkpt>
      <trkpt lat="42.414942000" lon="-2.467931000">
        <ele>478.80</ele>
        <time>2016-10-29T09:50:15Z</time>
      </trkpt>
      <trkpt lat="42.414989000" lon="-2.467955000">
        <ele>478.80</ele>
        <time>2016-10-29T09:50:16Z</time>
      </trkpt>
      <trkpt lat="42.415035000" lon="-2.467978000">
        <ele>478.90</ele>
        <time>2016-10-29T09:50:17Z</time>
      </trkpt>
      <trkpt lat="42.415083000" lon="-2.468000000">
        <ele>479.00</ele>
        <time>2016-10-29T09:50:18Z</time>
      </trkpt>
      <trkpt lat="42.415131000" lon="-2.468018000">
        <ele>479.00</ele>
        <time>2016-10-29T09:50:19Z</time>
      </trkpt>
      <trkpt lat="42.415180000" lon="-2.468034000">
        <ele>479.00</ele>
        <time>2016-10-29T09:50:20Z</time>
      </trkpt>
      <trkpt lat="42.415229000" lon="-2.468049000">
        <ele>479.10</ele>
        <time>2016-10-29T09:50:21Z</time>
      </trkpt>
      <trkpt lat="42.415279000" lon="-2.468066000">
        <ele>479.10</ele>
        <time>2016-10-29T09:50:22Z</time>
      </trkpt>
      <trkpt lat="42.415329000" lon="-2.468079000">
        <ele>479.00</ele>
        <time>2016-10-29T09:50:23Z</time>
      </trkpt>
      <trkpt lat="42.415380000" lon="-2.468091000">
        <ele>478.90</ele>
        <time>2016-10-29T09:50:24Z</time>
      </trkpt>
      <trkpt lat="42.415432000" lon="-2.468108000">
        <ele>478.90</ele>
        <time>2016-10-29T09:50:25Z</time>
      </trkpt>
      <trkpt lat="42.415483000" lon="-2.468125000">
        <ele>478.90</ele>
        <time>2016-10-29T09:50:26Z</time>
      </trkpt>
      <trkpt lat="42.415532000" lon="-2.468140000">
        <ele>478.80</ele>
        <time>2016-10-29T09:50:27Z</time>
      </trkpt>
      <trkpt lat="42.415632000" lon="-2.468178000">
        <ele>478.80</ele>
        <time>2016-10-29T09:50:29Z</time>
      </trkpt>
      <trkpt lat="42.415682000" lon="-2.468198000">
        <ele>478.80</ele>
        <time>2016-10-29T09:50:30Z</time>
      </trkpt>
      <trkpt lat="42.415733000" lon="-2.468219000">
        <ele>478.80</ele>
        <time>2016-10-29T09:50:31Z</time>
      </trkpt>
      <trkpt lat="42.415786000" lon="-2.468242000">
        <ele>478.80</ele>
        <time>2016-10-29T09:50:32Z</time>
      </trkpt>
      <trkpt lat="42.415840000" lon="-2.468263000">
        <ele>478.70</ele>
        <time>2016-10-29T09:50:33Z</time>
      </trkpt>
      <trkpt lat="42.415893000" lon="-2.468280000">
        <ele>478.70</ele>
        <time>2016-10-29T09:50:34Z</time>
      </trkpt>
      <trkpt lat="42.415949000" lon="-2.468294000">
        <ele>478.80</ele>
        <time>2016-10-29T09:50:35Z</time>
      </trkpt>
      <trkpt lat="42.416002000" lon="-2.468306000">
        <ele>478.80</ele>
        <time>2016-10-29T09:50:36Z</time>
      </trkpt>
      <trkpt lat="42.416055000" lon="-2.468319000">
        <ele>478.90</ele>
        <time>2016-10-29T09:50:37Z</time>
      </trkpt>
      <trkpt lat="42.416107000" lon="-2.468333000">
        <ele>478.90</ele>
        <time>2016-10-29T09:50:38Z</time>
      </trkpt>
      <trkpt lat="42.416157000" lon="-2.468345000">
        <ele>479.00</ele>
        <time>2016-10-29T09:50:39Z</time>
      </trkpt>
      <trkpt lat="42.416211000" lon="-2.468354000">
        <ele>479.10</ele>
        <time>2016-10-29T09:50:40Z</time>
      </trkpt>
      <trkpt lat="42.416265000" lon="-2.468364000">
        <ele>479.10</ele>
        <time>2016-10-29T09:50:41Z</time>
      </trkpt>
      <trkpt lat="42.416320000" lon="-2.468374000">
        <ele>479.20</ele>
        <time>2016-10-29T09:50:42Z</time>
      </trkpt>
      <trkpt lat="42.416376000" lon="-2.468385000">
        <ele>479.10</ele>
        <time>2016-10-29T09:50:43Z</time>
      </trkpt>
      <trkpt lat="42.416432000" lon="-2.468393000">
        <ele>479.10</ele>
        <time>2016-10-29T09:50:44Z</time>
      </trkpt>
      <trkpt lat="42.416487000" lon="-2.468401000">
        <ele>479.00</ele>
        <time>2016-10-29T09:50:45Z</time>
      </trkpt>
      <trkpt lat="42.416541000" lon="-2.468406000">
        <ele>478.90</ele>
        <time>2016-10-29T09:50:46Z</time>
      </trkpt>
      <trkpt lat="42.416596000" lon="-2.468412000">
        <ele>478.80</ele>
        <time>2016-10-29T09:50:47Z</time>
      </trkpt>
      <trkpt lat="42.416652000" lon="-2.468421000">
        <ele>478.70</ele>
        <time>2016-10-29T09:50:48Z</time>
      </trkpt>
      <trkpt lat="42.416708000" lon="-2.468429000">
        <ele>478.70</ele>
        <time>2016-10-29T09:50:49Z</time>
      </trkpt>
      <trkpt lat="42.416763000" lon="-2.468436000">
        <ele>478.60</ele>
        <time>2016-10-29T09:50:50Z</time>
      </trkpt>
      <trkpt lat="42.416819000" lon="-2.468446000">
        <ele>478.70</ele>
        <time>2016-10-29T09:50:51Z</time>
      </trkpt>
      <trkpt lat="42.416876000" lon="-2.468453000">
        <ele>478.70</ele>
        <time>2016-10-29T09:50:52Z</time>
      </trkpt>
      <trkpt lat="42.416930000" lon="-2.468461000">
        <ele>478.70</ele>
        <time>2016-10-29T09:50:53Z</time>
      </trkpt>
      <trkpt lat="42.416986000" lon="-2.468470000">
        <ele>478.70</ele>
        <time>2016-10-29T09:50:54Z</time>
      </trkpt>
      <trkpt lat="42.417040000" lon="-2.468478000">
        <ele>478.70</ele>
        <time>2016-10-29T09:50:55Z</time>
      </trkpt>
      <trkpt lat="42.417096000" lon="-2.468488000">
        <ele>478.70</ele>
        <time>2016-10-29T09:50:56Z</time>
      </trkpt>
      <trkpt lat="42.417149000" lon="-2.468497000">
        <ele>478.70</ele>
        <time>2016-10-29T09:50:57Z</time>
      </trkpt>
      <trkpt lat="42.417204000" lon="-2.468506000">
        <ele>478.70</ele>
        <time>2016-10-29T09:50:58Z</time>
      </trkpt>
      <trkpt lat="42.417259000" lon="-2.468510000">
        <ele>478.80</ele>
        <time>2016-10-29T09:50:59Z</time>
      </trkpt>
      <trkpt lat="42.417314000" lon="-2.468516000">
        <ele>478.90</ele>
        <time>2016-10-29T09:51:00Z</time>
      </trkpt>
      <trkpt lat="42.417368000" lon="-2.468525000">
        <ele>479.10</ele>
        <time>2016-10-29T09:51:01Z</time>
      </trkpt>
      <trkpt lat="42.417424000" lon="-2.468533000">
        <ele>479.20</ele>
        <time>2016-10-29T09:51:02Z</time>
      </trkpt>
      <trkpt lat="42.417479000" lon="-2.468540000">
        <ele>479.20</ele>
        <time>2016-10-29T09:51:03Z</time>
      </trkpt>
      <trkpt lat="42.417536000" lon="-2.468547000">
        <ele>479.30</ele>
        <time>2016-10-29T09:51:04Z</time>
      </trkpt>
      <trkpt lat="42.417594000" lon="-2.468553000">
        <ele>479.30</ele>
        <time>2016-10-29T09:51:05Z</time>
      </trkpt>
      <trkpt lat="42.417652000" lon="-2.468561000">
        <ele>479.40</ele>
        <time>2016-10-29T09:51:06Z</time>
      </trkpt>
      <trkpt lat="42.417710000" lon="-2.468568000">
        <ele>479.40</ele>
        <time>2016-10-29T09:51:07Z</time>
      </trkpt>
      <trkpt lat="42.417769000" lon="-2.468570000">
        <ele>479.40</ele>
        <time>2016-10-29T09:51:08Z</time>
      </trkpt>
      <trkpt lat="42.417826000" lon="-2.468571000">
        <ele>479.40</ele>
        <time>2016-10-29T09:51:09Z</time>
      </trkpt>
      <trkpt lat="42.417885000" lon="-2.468569000">
        <ele>479.40</ele>
        <time>2016-10-29T09:51:10Z</time>
      </trkpt>
      <trkpt lat="42.417943000" lon="-2.468569000">
        <ele>479.40</ele>
        <time>2016-10-29T09:51:11Z</time>
      </trkpt>
      <trkpt lat="42.417999000" lon="-2.468569000">
        <ele>479.30</ele>
        <time>2016-10-29T09:51:12Z</time>
      </trkpt>
      <trkpt lat="42.418055000" lon="-2.468570000">
        <ele>479.30</ele>
        <time>2016-10-29T09:51:13Z</time>
      </trkpt>
      <trkpt lat="42.418111000" lon="-2.468569000">
        <ele>479.30</ele>
        <time>2016-10-29T09:51:14Z</time>
      </trkpt>
      <trkpt lat="42.418167000" lon="-2.468569000">
        <ele>479.30</ele>
        <time>2016-10-29T09:51:15Z</time>
      </trkpt>
      <trkpt lat="42.418223000" lon="-2.468570000">
        <ele>479.40</ele>
        <time>2016-10-29T09:51:16Z</time>
      </trkpt>
      <trkpt lat="42.418278000" lon="-2.468566000">
        <ele>479.40</ele>
        <time>2016-10-29T09:51:17Z</time>
      </trkpt>
      <trkpt lat="42.418335000" lon="-2.468562000">
        <ele>479.40</ele>
        <time>2016-10-29T09:51:18Z</time>
      </trkpt>
      <trkpt lat="42.418391000" lon="-2.468557000">
        <ele>479.30</ele>
        <time>2016-10-29T09:51:19Z</time>
      </trkpt>
      <trkpt lat="42.418448000" lon="-2.468548000">
        <ele>479.30</ele>
        <time>2016-10-29T09:51:20Z</time>
      </trkpt>
      <trkpt lat="42.418503000" lon="-2.468540000">
        <ele>479.20</ele>
        <time>2016-10-29T09:51:21Z</time>
      </trkpt>
      <trkpt lat="42.418560000" lon="-2.468528000">
        <ele>479.20</ele>
        <time>2016-10-29T09:51:22Z</time>
      </trkpt>
      <trkpt lat="42.418618000" lon="-2.468517000">
        <ele>479.20</ele>
        <time>2016-10-29T09:51:23Z</time>
      </trkpt>
      <trkpt lat="42.418676000" lon="-2.468504000">
        <ele>479.20</ele>
        <time>2016-10-29T09:51:24Z</time>
      </trkpt>
      <trkpt lat="42.418736000" lon="-2.468494000">
        <ele>479.20</ele>
        <time>2016-10-29T09:51:25Z</time>
      </trkpt>
      <trkpt lat="42.418795000" lon="-2.468485000">
        <ele>479.30</ele>
        <time>2016-10-29T09:51:26Z</time>
      </trkpt>
      <trkpt lat="42.418853000" lon="-2.468476000">
        <ele>479.30</ele>
        <time>2016-10-29T09:51:27Z</time>
      </trkpt>
      <trkpt lat="42.418909000" lon="-2.468464000">
        <ele>479.30</ele>
        <time>2016-10-29T09:51:28Z</time>
      </trkpt>
      <trkpt lat="42.419028000" lon="-2.468440000">
        <ele>479.30</ele>
        <time>2016-10-29T09:51:30Z</time>
      </trkpt>
      <trkpt lat="42.419091000" lon="-2.468428000">
        <ele>479.20</ele>
        <time>2016-10-29T09:51:31Z</time>
      </trkpt>
      <trkpt lat="42.419153000" lon="-2.468415000">
        <ele>479.00</ele>
        <time>2016-10-29T09:51:32Z</time>
      </trkpt>
      <trkpt lat="42.419213000" lon="-2.468398000">
        <ele>478.80</ele>
        <time>2016-10-29T09:51:33Z</time>
      </trkpt>
      <trkpt lat="42.419275000" lon="-2.468385000">
        <ele>478.70</ele>
        <time>2016-10-29T09:51:34Z</time>
      </trkpt>
      <trkpt lat="42.419337000" lon="-2.468373000">
        <ele>478.60</ele>
        <time>2016-10-29T09:51:35Z</time>
      </trkpt>
      <trkpt lat="42.419397000" lon="-2.468364000">
        <ele>478.50</ele>
        <time>2016-10-29T09:51:36Z</time>
      </trkpt>
      <trkpt lat="42.419456000" lon="-2.468352000">
        <ele>478.30</ele>
        <time>2016-10-29T09:51:37Z</time>
      </trkpt>
      <trkpt lat="42.419515000" lon="-2.468343000">
        <ele>478.20</ele>
        <time>2016-10-29T09:51:38Z</time>
      </trkpt>
      <trkpt lat="42.419575000" lon="-2.468337000">
        <ele>478.10</ele>
        <time>2016-10-29T09:51:39Z</time>
      </trkpt>
      <trkpt lat="42.419632000" lon="-2.468335000">
        <ele>478.00</ele>
        <time>2016-10-29T09:51:40Z</time>
      </trkpt>
      <trkpt lat="42.419688000" lon="-2.468334000">
        <ele>477.90</ele>
        <time>2016-10-29T09:51:41Z</time>
      </trkpt>
      <trkpt lat="42.419741000" lon="-2.468330000">
        <ele>477.90</ele>
        <time>2016-10-29T09:51:42Z</time>
      </trkpt>
      <trkpt lat="42.419792000" lon="-2.468328000">
        <ele>477.80</ele>
        <time>2016-10-29T09:51:43Z</time>
      </trkpt>
      <trkpt lat="42.419836000" lon="-2.468327000">
        <ele>477.80</ele>
        <time>2016-10-29T09:51:44Z</time>
      </trkpt>
      <trkpt lat="42.419873000" lon="-2.468325000">
        <ele>477.70</ele>
        <time>2016-10-29T09:51:45Z</time>
      </trkpt>
      <trkpt lat="42.419904000" lon="-2.468323000">
        <ele>477.70</ele>
        <time>2016-10-29T09:51:46Z</time>
      </trkpt>
      <trkpt lat="42.419939000" lon="-2.468320000">
        <ele>477.50</ele>
        <time>2016-10-29T09:51:47Z</time>
      </trkpt>
      <trkpt lat="42.419980000" lon="-2.468316000">
        <ele>477.30</ele>
        <time>2016-10-29T09:51:48Z</time>
      </trkpt>
      <trkpt lat="42.420026000" lon="-2.468310000">
        <ele>477.20</ele>
        <time>2016-10-29T09:51:49Z</time>
      </trkpt>
      <trkpt lat="42.420076000" lon="-2.468299000">
        <ele>477.10</ele>
        <time>2016-10-29T09:51:50Z</time>
      </trkpt>
      <trkpt lat="42.420129000" lon="-2.468288000">
        <ele>477.00</ele>
        <time>2016-10-29T09:51:51Z</time>
      </trkpt>
      <trkpt lat="42.420183000" lon="-2.468278000">
        <ele>476.90</ele>
        <time>2016-10-29T09:51:52Z</time>
      </trkpt>
      <trkpt lat="42.420238000" lon="-2.468266000">
        <ele>476.80</ele>
        <time>2016-10-29T09:51:53Z</time>
      </trkpt>
      <trkpt lat="42.420293000" lon="-2.468253000">
        <ele>476.80</ele>
        <time>2016-10-29T09:51:54Z</time>
      </trkpt>
      <trkpt lat="42.420351000" lon="-2.468236000">
        <ele>476.80</ele>
        <time>2016-10-29T09:51:55Z</time>
      </trkpt>
      <trkpt lat="42.420409000" lon="-2.468220000">
        <ele>476.70</ele>
        <time>2016-10-29T09:51:56Z</time>
      </trkpt>
      <trkpt lat="42.420467000" lon="-2.468206000">
        <ele>476.70</ele>
        <time>2016-10-29T09:51:57Z</time>
      </trkpt>
      <trkpt lat="42.420527000" lon="-2.468192000">
        <ele>476.70</ele>
        <time>2016-10-29T09:51:58Z</time>
      </trkpt>
      <trkpt lat="42.420586000" lon="-2.468177000">
        <ele>476.70</ele>
        <time>2016-10-29T09:51:59Z</time>
      </trkpt>
      <trkpt lat="42.420643000" lon="-2.468160000">
        <ele>476.70</ele>
        <time>2016-10-29T09:52:00Z</time>
      </trkpt>
      <trkpt lat="42.420701000" lon="-2.468143000">
        <ele>476.70</ele>
        <time>2016-10-29T09:52:01Z</time>
      </trkpt>
      <trkpt lat="42.420757000" lon="-2.468127000">
        <ele>476.60</ele>
        <time>2016-10-29T09:52:02Z</time>
      </trkpt>
      <trkpt lat="42.420814000" lon="-2.468110000">
        <ele>476.60</ele>
        <time>2016-10-29T09:52:03Z</time>
      </trkpt>
      <trkpt lat="42.420870000" lon="-2.468094000">
        <ele>476.60</ele>
        <time>2016-10-29T09:52:04Z</time>
      </trkpt>
      <trkpt lat="42.420925000" lon="-2.468077000">
        <ele>476.60</ele>
        <time>2016-10-29T09:52:05Z</time>
      </trkpt>
      <trkpt lat="42.420982000" lon="-2.468059000">
        <ele>476.60</ele>
        <time>2016-10-29T09:52:06Z</time>
      </trkpt>
      <trkpt lat="42.421038000" lon="-2.468038000">
        <ele>476.60</ele>
        <time>2016-10-29T09:52:07Z</time>
      </trkpt>
      <trkpt lat="42.421095000" lon="-2.468020000">
        <ele>476.60</ele>
        <time>2016-10-29T09:52:08Z</time>
      </trkpt>
      <trkpt lat="42.421153000" lon="-2.468003000">
        <ele>476.60</ele>
        <time>2016-10-29T09:52:09Z</time>
      </trkpt>
      <trkpt lat="42.421214000" lon="-2.467986000">
        <ele>476.60</ele>
        <time>2016-10-29T09:52:10Z</time>
      </trkpt>
      <trkpt lat="42.421273000" lon="-2.467966000">
        <ele>476.60</ele>
        <time>2016-10-29T09:52:11Z</time>
      </trkpt>
      <trkpt lat="42.421331000" lon="-2.467945000">
        <ele>476.60</ele>
        <time>2016-10-29T09:52:12Z</time>
      </trkpt>
      <trkpt lat="42.421389000" lon="-2.467925000">
        <ele>476.60</ele>
        <time>2016-10-29T09:52:13Z</time>
      </trkpt>
      <trkpt lat="42.421448000" lon="-2.467908000">
        <ele>476.60</ele>
        <time>2016-10-29T09:52:14Z</time>
      </trkpt>
      <trkpt lat="42.421505000" lon="-2.467891000">
        <ele>476.60</ele>
        <time>2016-10-29T09:52:15Z</time>
      </trkpt>
      <trkpt lat="42.421561000" lon="-2.467876000">
        <ele>476.60</ele>
        <time>2016-10-29T09:52:16Z</time>
      </trkpt>
      <trkpt lat="42.421618000" lon="-2.467857000">
        <ele>476.50</ele>
        <time>2016-10-29T09:52:17Z</time>
      </trkpt>
      <trkpt lat="42.421675000" lon="-2.467837000">
        <ele>476.40</ele>
        <time>2016-10-29T09:52:18Z</time>
      </trkpt>
      <trkpt lat="42.421730000" lon="-2.467816000">
        <ele>476.50</ele>
        <time>2016-10-29T09:52:19Z</time>
      </trkpt>
      <trkpt lat="42.421784000" lon="-2.467790000">
        <ele>476.50</ele>
        <time>2016-10-29T09:52:20Z</time>
      </trkpt>
      <trkpt lat="42.421838000" lon="-2.467765000">
        <ele>476.40</ele>
        <time>2016-10-29T09:52:21Z</time>
      </trkpt>
      <trkpt lat="42.421890000" lon="-2.467731000">
        <ele>476.30</ele>
        <time>2016-10-29T09:52:22Z</time>
      </trkpt>
      <trkpt lat="42.421941000" lon="-2.467698000">
        <ele>476.40</ele>
        <time>2016-10-29T09:52:23Z</time>
      </trkpt>
      <trkpt lat="42.421990000" lon="-2.467662000">
        <ele>476.40</ele>
        <time>2016-10-29T09:52:24Z</time>
      </trkpt>
      <trkpt lat="42.422041000" lon="-2.467623000">
        <ele>476.50</ele>
        <time>2016-10-29T09:52:25Z</time>
      </trkpt>
      <trkpt lat="42.422089000" lon="-2.467586000">
        <ele>476.60</ele>
        <time>2016-10-29T09:52:26Z</time>
      </trkpt>
      <trkpt lat="42.422135000" lon="-2.467549000">
        <ele>476.60</ele>
        <time>2016-10-29T09:52:27Z</time>
      </trkpt>
      <trkpt lat="42.422180000" lon="-2.467515000">
        <ele>476.70</ele>
        <time>2016-10-29T09:52:28Z</time>
      </trkpt>
      <trkpt lat="42.422223000" lon="-2.467477000">
        <ele>476.80</ele>
        <time>2016-10-29T09:52:29Z</time>
      </trkpt>
      <trkpt lat="42.422304000" lon="-2.467402000">
        <ele>477.00</ele>
        <time>2016-10-29T09:52:31Z</time>
      </trkpt>
      <trkpt lat="42.422343000" lon="-2.467370000">
        <ele>477.10</ele>
        <time>2016-10-29T09:52:32Z</time>
      </trkpt>
      <trkpt lat="42.422381000" lon="-2.467338000">
        <ele>477.10</ele>
        <time>2016-10-29T09:52:33Z</time>
      </trkpt>
      <trkpt lat="42.422418000" lon="-2.467303000">
        <ele>477.20</ele>
        <time>2016-10-29T09:52:34Z</time>
      </trkpt>
      <trkpt lat="42.422455000" lon="-2.467272000">
        <ele>477.30</ele>
        <time>2016-10-29T09:52:35Z</time>
      </trkpt>
      <trkpt lat="42.422492000" lon="-2.467244000">
        <ele>477.40</ele>
        <time>2016-10-29T09:52:36Z</time>
      </trkpt>
      <trkpt lat="42.422532000" lon="-2.467217000">
        <ele>477.30</ele>
        <time>2016-10-29T09:52:37Z</time>
      </trkpt>
      <trkpt lat="42.422576000" lon="-2.467186000">
        <ele>477.20</ele>
        <time>2016-10-29T09:52:38Z</time>
      </trkpt>
      <trkpt lat="42.422618000" lon="-2.467154000">
        <ele>477.00</ele>
        <time>2016-10-29T09:52:39Z</time>
      </trkpt>
      <trkpt lat="42.422662000" lon="-2.467121000">
        <ele>476.90</ele>
        <time>2016-10-29T09:52:40Z</time>
      </trkpt>
      <trkpt lat="42.422706000" lon="-2.467089000">
        <ele>476.80</ele>
        <time>2016-10-29T09:52:41Z</time>
      </trkpt>
      <trkpt lat="42.422752000" lon="-2.467057000">
        <ele>476.70</ele>
        <time>2016-10-29T09:52:42Z</time>
      </trkpt>
      <trkpt lat="42.422799000" lon="-2.467024000">
        <ele>476.60</ele>
        <time>2016-10-29T09:52:43Z</time>
      </trkpt>
      <trkpt lat="42.422845000" lon="-2.466988000">
        <ele>476.60</ele>
        <time>2016-10-29T09:52:44Z</time>
      </trkpt>
      <trkpt lat="42.422891000" lon="-2.466953000">
        <ele>476.70</ele>
        <time>2016-10-29T09:52:45Z</time>
      </trkpt>
      <trkpt lat="42.422938000" lon="-2.466917000">
        <ele>476.80</ele>
        <time>2016-10-29T09:52:46Z</time>
      </trkpt>
      <trkpt lat="42.422985000" lon="-2.466881000">
        <ele>476.80</ele>
        <time>2016-10-29T09:52:47Z</time>
      </trkpt>
      <trkpt lat="42.423035000" lon="-2.466846000">
        <ele>476.90</ele>
        <time>2016-10-29T09:52:48Z</time>
      </trkpt>
      <trkpt lat="42.423085000" lon="-2.466809000">
        <ele>476.70</ele>
        <time>2016-10-29T09:52:49Z</time>
      </trkpt>
      <trkpt lat="42.423133000" lon="-2.466773000">
        <ele>476.50</ele>
        <time>2016-10-29T09:52:50Z</time>
      </trkpt>
      <trkpt lat="42.423182000" lon="-2.466734000">
        <ele>476.40</ele>
        <time>2016-10-29T09:52:51Z</time>
      </trkpt>
      <trkpt lat="42.423231000" lon="-2.466694000">
        <ele>476.40</ele>
        <time>2016-10-29T09:52:52Z</time>
      </trkpt>
      <trkpt lat="42.423280000" lon="-2.466650000">
        <ele>476.30</ele>
        <time>2016-10-29T09:52:53Z</time>
      </trkpt>
      <trkpt lat="42.423327000" lon="-2.466606000">
        <ele>476.30</ele>
        <time>2016-10-29T09:52:54Z</time>
      </trkpt>
      <trkpt lat="42.423374000" lon="-2.466559000">
        <ele>476.20</ele>
        <time>2016-10-29T09:52:55Z</time>
      </trkpt>
      <trkpt lat="42.423417000" lon="-2.466507000">
        <ele>476.20</ele>
        <time>2016-10-29T09:52:56Z</time>
      </trkpt>
      <trkpt lat="42.423460000" lon="-2.466453000">
        <ele>476.00</ele>
        <time>2016-10-29T09:52:57Z</time>
      </trkpt>
      <trkpt lat="42.423504000" lon="-2.466401000">
        <ele>475.90</ele>
        <time>2016-10-29T09:52:58Z</time>
      </trkpt>
      <trkpt lat="42.423545000" lon="-2.466342000">
        <ele>475.70</ele>
        <time>2016-10-29T09:52:59Z</time>
      </trkpt>
      <trkpt lat="42.423588000" lon="-2.466280000">
        <ele>475.60</ele>
        <time>2016-10-29T09:53:00Z</time>
      </trkpt>
      <trkpt lat="42.423631000" lon="-2.466221000">
        <ele>475.40</ele>
        <time>2016-10-29T09:53:01Z</time>
      </trkpt>
      <trkpt lat="42.423671000" lon="-2.466159000">
        <ele>475.20</ele>
        <time>2016-10-29T09:53:02Z</time>
      </trkpt>
      <trkpt lat="42.423714000" lon="-2.466094000">
        <ele>475.00</ele>
        <time>2016-10-29T09:53:03Z</time>
      </trkpt>
      <trkpt lat="42.423755000" lon="-2.466024000">
        <ele>474.80</ele>
        <time>2016-10-29T09:53:04Z</time>
      </trkpt>
      <trkpt lat="42.423799000" lon="-2.465955000">
        <ele>474.60</ele>
        <time>2016-10-29T09:53:05Z</time>
      </trkpt>
      <trkpt lat="42.423842000" lon="-2.465881000">
        <ele>474.50</ele>
        <time>2016-10-29T09:53:06Z</time>
      </trkpt>
      <trkpt lat="42.423885000" lon="-2.465806000">
        <ele>474.10</ele>
        <time>2016-10-29T09:53:07Z</time>
      </trkpt>
      <trkpt lat="42.423929000" lon="-2.465734000">
        <ele>473.80</ele>
        <time>2016-10-29T09:53:08Z</time>
      </trkpt>
      <trkpt lat="42.423971000" lon="-2.465657000">
        <ele>473.40</ele>
        <time>2016-10-29T09:53:09Z</time>
      </trkpt>
      <trkpt lat="42.424014000" lon="-2.465580000">
        <ele>473.10</ele>
        <time>2016-10-29T09:53:10Z</time>
      </trkpt>
      <trkpt lat="42.424058000" lon="-2.465498000">
        <ele>472.90</ele>
        <time>2016-10-29T09:53:11Z</time>
      </trkpt>
      <trkpt lat="42.424104000" lon="-2.465417000">
        <ele>472.70</ele>
        <time>2016-10-29T09:53:12Z</time>
      </trkpt>
      <trkpt lat="42.424151000" lon="-2.465336000">
        <ele>472.60</ele>
        <time>2016-10-29T09:53:13Z</time>
      </trkpt>
      <trkpt lat="42.424196000" lon="-2.465251000">
        <ele>472.50</ele>
        <time>2016-10-29T09:53:14Z</time>
      </trkpt>
      <trkpt lat="42.424242000" lon="-2.465164000">
        <ele>472.30</ele>
        <time>2016-10-29T09:53:15Z</time>
      </trkpt>
      <trkpt lat="42.424290000" lon="-2.465080000">
        <ele>472.10</ele>
        <time>2016-10-29T09:53:16Z</time>
      </trkpt>
      <trkpt lat="42.424337000" lon="-2.464996000">
        <ele>471.70</ele>
        <time>2016-10-29T09:53:17Z</time>
      </trkpt>
      <trkpt lat="42.424389000" lon="-2.464915000">
        <ele>471.50</ele>
        <time>2016-10-29T09:53:18Z</time>
      </trkpt>
      <trkpt lat="42.424442000" lon="-2.464839000">
        <ele>471.10</ele>
        <time>2016-10-29T09:53:19Z</time>
      </trkpt>
      <trkpt lat="42.424500000" lon="-2.464768000">
        <ele>470.80</ele>
        <time>2016-10-29T09:53:20Z</time>
      </trkpt>
      <trkpt lat="42.424563000" lon="-2.464696000">
        <ele>470.30</ele>
        <time>2016-10-29T09:53:21Z</time>
      </trkpt>
      <trkpt lat="42.424631000" lon="-2.464633000">
        <ele>470.00</ele>
        <time>2016-10-29T09:53:22Z</time>
      </trkpt>
      <trkpt lat="42.424707000" lon="-2.464574000">
        <ele>469.70</ele>
        <time>2016-10-29T09:53:23Z</time>
      </trkpt>
      <trkpt lat="42.424786000" lon="-2.464511000">
        <ele>469.50</ele>
        <time>2016-10-29T09:53:24Z</time>
      </trkpt>
      <trkpt lat="42.424868000" lon="-2.464453000">
        <ele>469.10</ele>
        <time>2016-10-29T09:53:25Z</time>
      </trkpt>
      <trkpt lat="42.424954000" lon="-2.464397000">
        <ele>468.80</ele>
        <time>2016-10-29T09:53:26Z</time>
      </trkpt>
      <trkpt lat="42.425042000" lon="-2.464343000">
        <ele>468.00</ele>
        <time>2016-10-29T09:53:27Z</time>
      </trkpt>
      <trkpt lat="42.425130000" lon="-2.464288000">
        <ele>467.40</ele>
        <time>2016-10-29T09:53:28Z</time>
      </trkpt>
      <trkpt lat="42.425222000" lon="-2.464230000">
        <ele>466.70</ele>
        <time>2016-10-29T09:53:29Z</time>
      </trkpt>
      <trkpt lat="42.425316000" lon="-2.464172000">
        <ele>466.10</ele>
        <time>2016-10-29T09:53:30Z</time>
      </trkpt>
      <trkpt lat="42.425511000" lon="-2.464052000">
        <ele>464.90</ele>
        <time>2016-10-29T09:53:32Z</time>
      </trkpt>
      <trkpt lat="42.425607000" lon="-2.463990000">
        <ele>463.80</ele>
        <time>2016-10-29T09:53:33Z</time>
      </trkpt>
      <trkpt lat="42.425694000" lon="-2.463938000">
        <ele>463.10</ele>
        <time>2016-10-29T09:53:34Z</time>
      </trkpt>
      <trkpt lat="42.425767000" lon="-2.463895000">
        <ele>462.50</ele>
        <time>2016-10-29T09:53:35Z</time>
      </trkpt>
      <trkpt lat="42.425825000" lon="-2.463852000">
        <ele>462.00</ele>
        <time>2016-10-29T09:53:36Z</time>
      </trkpt>
      <trkpt lat="42.425882000" lon="-2.463812000">
        <ele>461.50</ele>
        <time>2016-10-29T09:53:37Z</time>
      </trkpt>
      <trkpt lat="42.425938000" lon="-2.463780000">
        <ele>461.10</ele>
        <time>2016-10-29T09:53:38Z</time>
      </trkpt>
      <trkpt lat="42.425998000" lon="-2.463753000">
        <ele>460.50</ele>
        <time>2016-10-29T09:53:39Z</time>
      </trkpt>
      <trkpt lat="42.426059000" lon="-2.463720000">
        <ele>460.00</ele>
        <time>2016-10-29T09:53:40Z</time>
      </trkpt>
      <trkpt lat="42.426118000" lon="-2.463677000">
        <ele>459.40</ele>
        <time>2016-10-29T09:53:41Z</time>
      </trkpt>
      <trkpt lat="42.426182000" lon="-2.463634000">
        <ele>459.00</ele>
        <time>2016-10-29T09:53:42Z</time>
      </trkpt>
      <trkpt lat="42.426251000" lon="-2.463583000">
        <ele>458.70</ele>
        <time>2016-10-29T09:53:43Z</time>
      </trkpt>
      <trkpt lat="42.426318000" lon="-2.463541000">
        <ele>458.40</ele>
        <time>2016-10-29T09:53:44Z</time>
      </trkpt>
      <trkpt lat="42.426379000" lon="-2.463503000">
        <ele>458.30</ele>
        <time>2016-10-29T09:53:45Z</time>
      </trkpt>
      <trkpt lat="42.426442000" lon="-2.463467000">
        <ele>458.10</ele>
        <time>2016-10-29T09:53:46Z</time>
      </trkpt>
      <trkpt lat="42.426501000" lon="-2.463426000">
        <ele>457.80</ele>
        <time>2016-10-29T09:53:47Z</time>
      </trkpt>
      <trkpt lat="42.426559000" lon="-2.463387000">
        <ele>457.60</ele>
        <time>2016-10-29T09:53:48Z</time>
      </trkpt>
      <trkpt lat="42.426615000" lon="-2.463345000">
        <ele>457.30</ele>
        <time>2016-10-29T09:53:49Z</time>
      </trkpt>
      <trkpt lat="42.426669000" lon="-2.463300000">
        <ele>457.10</ele>
        <time>2016-10-29T09:53:50Z</time>
      </trkpt>
      <trkpt lat="42.426721000" lon="-2.463253000">
        <ele>456.80</ele>
        <time>2016-10-29T09:53:51Z</time>
      </trkpt>
      <trkpt lat="42.426770000" lon="-2.463200000">
        <ele>456.70</ele>
        <time>2016-10-29T09:53:52Z</time>
      </trkpt>
      <trkpt lat="42.426817000" lon="-2.463142000">
        <ele>456.50</ele>
        <time>2016-10-29T09:53:53Z</time>
      </trkpt>
      <trkpt lat="42.426861000" lon="-2.463081000">
        <ele>456.40</ele>
        <time>2016-10-29T09:53:54Z</time>
      </trkpt>
      <trkpt lat="42.426898000" lon="-2.463016000">
        <ele>456.40</ele>
        <time>2016-10-29T09:53:55Z</time>
      </trkpt>
      <trkpt lat="42.426927000" lon="-2.462938000">
        <ele>456.30</ele>
        <time>2016-10-29T09:53:56Z</time>
      </trkpt>
      <trkpt lat="42.426956000" lon="-2.462857000">
        <ele>456.30</ele>
        <time>2016-10-29T09:53:57Z</time>
      </trkpt>
      <trkpt lat="42.426984000" lon="-2.462775000">
        <ele>456.30</ele>
        <time>2016-10-29T09:53:58Z</time>
      </trkpt>
      <trkpt lat="42.427015000" lon="-2.462692000">
        <ele>456.00</ele>
        <time>2016-10-29T09:53:59Z</time>
      </trkpt>
      <trkpt lat="42.427045000" lon="-2.462608000">
        <ele>455.90</ele>
        <time>2016-10-29T09:54:00Z</time>
      </trkpt>
      <trkpt lat="42.427081000" lon="-2.462536000">
        <ele>455.40</ele>
        <time>2016-10-29T09:54:01Z</time>
      </trkpt>
      <trkpt lat="42.427120000" lon="-2.462462000">
        <ele>455.00</ele>
        <time>2016-10-29T09:54:02Z</time>
      </trkpt>
      <trkpt lat="42.427163000" lon="-2.462393000">
        <ele>454.70</ele>
        <time>2016-10-29T09:54:03Z</time>
      </trkpt>
      <trkpt lat="42.427197000" lon="-2.462314000">
        <ele>454.50</ele>
        <time>2016-10-29T09:54:04Z</time>
      </trkpt>
      <trkpt lat="42.427234000" lon="-2.462241000">
        <ele>454.30</ele>
        <time>2016-10-29T09:54:05Z</time>
      </trkpt>
      <trkpt lat="42.427270000" lon="-2.462171000">
        <ele>454.20</ele>
        <time>2016-10-29T09:54:06Z</time>
      </trkpt>
      <trkpt lat="42.427307000" lon="-2.462098000">
        <ele>454.20</ele>
        <time>2016-10-29T09:54:07Z</time>
      </trkpt>
      <trkpt lat="42.427344000" lon="-2.462027000">
        <ele>454.20</ele>
        <time>2016-10-29T09:54:08Z</time>
      </trkpt>
      <trkpt lat="42.427382000" lon="-2.461959000">
        <ele>454.10</ele>
        <time>2016-10-29T09:54:09Z</time>
      </trkpt>
      <trkpt lat="42.427427000" lon="-2.461901000">
        <ele>454.10</ele>
        <time>2016-10-29T09:54:10Z</time>
      </trkpt>
      <trkpt lat="42.427470000" lon="-2.461848000">
        <ele>454.10</ele>
        <time>2016-10-29T09:54:11Z</time>
      </trkpt>
      <trkpt lat="42.427519000" lon="-2.461803000">
        <ele>454.10</ele>
        <time>2016-10-29T09:54:12Z</time>
      </trkpt>
      <trkpt lat="42.427558000" lon="-2.461753000">
        <ele>454.10</ele>
        <time>2016-10-29T09:54:13Z</time>
      </trkpt>
      <trkpt lat="42.427597000" lon="-2.461699000">
        <ele>454.00</ele>
        <time>2016-10-29T09:54:14Z</time>
      </trkpt>
      <trkpt lat="42.427639000" lon="-2.461646000">
        <ele>453.90</ele>
        <time>2016-10-29T09:54:15Z</time>
      </trkpt>
      <trkpt lat="42.427679000" lon="-2.461588000">
        <ele>453.80</ele>
        <time>2016-10-29T09:54:16Z</time>
      </trkpt>
      <trkpt lat="42.427715000" lon="-2.461528000">
        <ele>453.70</ele>
        <time>2016-10-29T09:54:17Z</time>
      </trkpt>
      <trkpt lat="42.427751000" lon="-2.461468000">
        <ele>453.70</ele>
        <time>2016-10-29T09:54:18Z</time>
      </trkpt>
      <trkpt lat="42.427786000" lon="-2.461406000">
        <ele>453.60</ele>
        <time>2016-10-29T09:54:19Z</time>
      </trkpt>
      <trkpt lat="42.427819000" lon="-2.461342000">
        <ele>453.50</ele>
        <time>2016-10-29T09:54:20Z</time>
      </trkpt>
      <trkpt lat="42.427845000" lon="-2.461270000">
        <ele>453.40</ele>
        <time>2016-10-29T09:54:21Z</time>
      </trkpt>
      <trkpt lat="42.427870000" lon="-2.461200000">
        <ele>453.40</ele>
        <time>2016-10-29T09:54:22Z</time>
      </trkpt>
      <trkpt lat="42.427901000" lon="-2.461127000">
        <ele>453.30</ele>
        <time>2016-10-29T09:54:23Z</time>
      </trkpt>
      <trkpt lat="42.427936000" lon="-2.461056000">
        <ele>453.30</ele>
        <time>2016-10-29T09:54:24Z</time>
      </trkpt>
      <trkpt lat="42.427972000" lon="-2.460978000">
        <ele>453.30</ele>
        <time>2016-10-29T09:54:25Z</time>
      </trkpt>
      <trkpt lat="42.428008000" lon="-2.460900000">
        <ele>453.30</ele>
        <time>2016-10-29T09:54:26Z</time>
      </trkpt>
      <trkpt lat="42.428048000" lon="-2.460822000">
        <ele>452.80</ele>
        <time>2016-10-29T09:54:27Z</time>
      </trkpt>
      <trkpt lat="42.428085000" lon="-2.460759000">
        <ele>452.50</ele>
        <time>2016-10-29T09:54:28Z</time>
      </trkpt>
      <trkpt lat="42.428114000" lon="-2.460701000">
        <ele>452.20</ele>
        <time>2016-10-29T09:54:29Z</time>
      </trkpt>
      <trkpt lat="42.428140000" lon="-2.460642000">
        <ele>452.00</ele>
        <time>2016-10-29T09:54:30Z</time>
      </trkpt>
      <trkpt lat="42.428166000" lon="-2.460574000">
        <ele>451.60</ele>
        <time>2016-10-29T09:54:31Z</time>
      </trkpt>
      <trkpt lat="42.428256000" lon="-2.460451000">
        <ele>450.60</ele>
        <time>2016-10-29T09:54:33Z</time>
      </trkpt>
      <trkpt lat="42.428316000" lon="-2.460397000">
        <ele>450.10</ele>
        <time>2016-10-29T09:54:34Z</time>
      </trkpt>
      <trkpt lat="42.428390000" lon="-2.460360000">
        <ele>449.60</ele>
        <time>2016-10-29T09:54:35Z</time>
      </trkpt>
      <trkpt lat="42.428469000" lon="-2.460331000">
        <ele>449.20</ele>
        <time>2016-10-29T09:54:36Z</time>
      </trkpt>
      <trkpt lat="42.428548000" lon="-2.460313000">
        <ele>448.30</ele>
        <time>2016-10-29T09:54:37Z</time>
      </trkpt>
      <trkpt lat="42.428626000" lon="-2.460303000">
        <ele>447.60</ele>
        <time>2016-10-29T09:54:38Z</time>
      </trkpt>
      <trkpt lat="42.428705000" lon="-2.460310000">
        <ele>447.00</ele>
        <time>2016-10-29T09:54:39Z</time>
      </trkpt>
      <trkpt lat="42.428782000" lon="-2.460313000">
        <ele>446.60</ele>
        <time>2016-10-29T09:54:40Z</time>
      </trkpt>
      <trkpt lat="42.428857000" lon="-2.460322000">
        <ele>446.10</ele>
        <time>2016-10-29T09:54:41Z</time>
      </trkpt>
      <trkpt lat="42.428926000" lon="-2.460334000">
        <ele>445.70</ele>
        <time>2016-10-29T09:54:42Z</time>
      </trkpt>
      <trkpt lat="42.428989000" lon="-2.460346000">
        <ele>445.40</ele>
        <time>2016-10-29T09:54:43Z</time>
      </trkpt>
      <trkpt lat="42.429048000" lon="-2.460366000">
        <ele>445.20</ele>
        <time>2016-10-29T09:54:44Z</time>
      </trkpt>
      <trkpt lat="42.429109000" lon="-2.460394000">
        <ele>445.00</ele>
        <time>2016-10-29T09:54:45Z</time>
      </trkpt>
      <trkpt lat="42.429168000" lon="-2.460423000">
        <ele>444.80</ele>
        <time>2016-10-29T09:54:46Z</time>
      </trkpt>
      <trkpt lat="42.429229000" lon="-2.460448000">
        <ele>444.50</ele>
        <time>2016-10-29T09:54:47Z</time>
      </trkpt>
      <trkpt lat="42.429288000" lon="-2.460484000">
        <ele>444.30</ele>
        <time>2016-10-29T09:54:48Z</time>
      </trkpt>
      <trkpt lat="42.429347000" lon="-2.460523000">
        <ele>444.20</ele>
        <time>2016-10-29T09:54:49Z</time>
      </trkpt>
      <trkpt lat="42.429412000" lon="-2.460567000">
        <ele>444.10</ele>
        <time>2016-10-29T09:54:50Z</time>
      </trkpt>
      <trkpt lat="42.429476000" lon="-2.460613000">
        <ele>444.00</ele>
        <time>2016-10-29T09:54:51Z</time>
      </trkpt>
      <trkpt lat="42.429537000" lon="-2.460663000">
        <ele>443.90</ele>
        <time>2016-10-29T09:54:52Z</time>
      </trkpt>
      <trkpt lat="42.429601000" lon="-2.460706000">
        <ele>443.70</ele>
        <time>2016-10-29T09:54:53Z</time>
      </trkpt>
      <trkpt lat="42.429662000" lon="-2.460751000">
        <ele>443.50</ele>
        <time>2016-10-29T09:54:54Z</time>
      </trkpt>
      <trkpt lat="42.429726000" lon="-2.460792000">
        <ele>443.30</ele>
        <time>2016-10-29T09:54:55Z</time>
      </trkpt>
      <trkpt lat="42.429790000" lon="-2.460836000">
        <ele>443.10</ele>
        <time>2016-10-29T09:54:56Z</time>
      </trkpt>
      <trkpt lat="42.429850000" lon="-2.460875000">
        <ele>442.90</ele>
        <time>2016-10-29T09:54:57Z</time>
      </trkpt>
      <trkpt lat="42.429917000" lon="-2.460904000">
        <ele>442.70</ele>
        <time>2016-10-29T09:54:58Z</time>
      </trkpt>
      <trkpt lat="42.429989000" lon="-2.460930000">
        <ele>442.70</ele>
        <time>2016-10-29T09:54:59Z</time>
      </trkpt>
      <trkpt lat="42.430059000" lon="-2.460957000">
        <ele>442.70</ele>
        <time>2016-10-29T09:55:00Z</time>
      </trkpt>
      <trkpt lat="42.430128000" lon="-2.460985000">
        <ele>442.40</ele>
        <time>2016-10-29T09:55:01Z</time>
      </trkpt>
      <trkpt lat="42.430198000" lon="-2.461012000">
        <ele>442.20</ele>
        <time>2016-10-29T09:55:02Z</time>
      </trkpt>
      <trkpt lat="42.430266000" lon="-2.461038000">
        <ele>442.20</ele>
        <time>2016-10-29T09:55:03Z</time>
      </trkpt>
      <trkpt lat="42.430333000" lon="-2.461066000">
        <ele>442.20</ele>
        <time>2016-10-29T09:55:04Z</time>
      </trkpt>
      <trkpt lat="42.430399000" lon="-2.461099000">
        <ele>442.20</ele>
        <time>2016-10-29T09:55:05Z</time>
      </trkpt>
      <trkpt lat="42.430464000" lon="-2.461127000">
        <ele>442.20</ele>
        <time>2016-10-29T09:55:06Z</time>
      </trkpt>
      <trkpt lat="42.430530000" lon="-2.461155000">
        <ele>442.20</ele>
        <time>2016-10-29T09:55:07Z</time>
      </trkpt>
      <trkpt lat="42.430598000" lon="-2.461177000">
        <ele>442.10</ele>
        <time>2016-10-29T09:55:08Z</time>
      </trkpt>
      <trkpt lat="42.430663000" lon="-2.461195000">
        <ele>442.30</ele>
        <time>2016-10-29T09:55:09Z</time>
      </trkpt>
      <trkpt lat="42.430725000" lon="-2.461206000">
        <ele>442.40</ele>
        <time>2016-10-29T09:55:10Z</time>
      </trkpt>
      <trkpt lat="42.430778000" lon="-2.461208000">
        <ele>442.60</ele>
        <time>2016-10-29T09:55:11Z</time>
      </trkpt>
      <trkpt lat="42.430829000" lon="-2.461194000">
        <ele>442.70</ele>
        <time>2016-10-29T09:55:12Z</time>
      </trkpt>
      <trkpt lat="42.430880000" lon="-2.461171000">
        <ele>442.80</ele>
        <time>2016-10-29T09:55:13Z</time>
      </trkpt>
      <trkpt lat="42.430928000" lon="-2.461143000">
        <ele>442.90</ele>
        <time>2016-10-29T09:55:14Z</time>
      </trkpt>
      <trkpt lat="42.430973000" lon="-2.461110000">
        <ele>443.00</ele>
        <time>2016-10-29T09:55:15Z</time>
      </trkpt>
      <trkpt lat="42.431015000" lon="-2.461072000">
        <ele>443.00</ele>
        <time>2016-10-29T09:55:16Z</time>
      </trkpt>
      <trkpt lat="42.431052000" lon="-2.461035000">
        <ele>443.10</ele>
        <time>2016-10-29T09:55:17Z</time>
      </trkpt>
      <trkpt lat="42.431091000" lon="-2.461006000">
        <ele>443.10</ele>
        <time>2016-10-29T09:55:18Z</time>
      </trkpt>
      <trkpt lat="42.431131000" lon="-2.460984000">
        <ele>443.20</ele>
        <time>2016-10-29T09:55:19Z</time>
      </trkpt>
      <trkpt lat="42.431173000" lon="-2.460970000">
        <ele>443.20</ele>
        <time>2016-10-29T09:55:20Z</time>
      </trkpt>
      <trkpt lat="42.431219000" lon="-2.460960000">
        <ele>443.30</ele>
        <time>2016-10-29T09:55:21Z</time>
      </trkpt>
      <trkpt lat="42.431263000" lon="-2.460959000">
        <ele>443.30</ele>
        <time>2016-10-29T09:55:22Z</time>
      </trkpt>
      <trkpt lat="42.431309000" lon="-2.460961000">
        <ele>443.50</ele>
        <time>2016-10-29T09:55:23Z</time>
      </trkpt>
      <trkpt lat="42.431353000" lon="-2.460962000">
        <ele>443.70</ele>
        <time>2016-10-29T09:55:24Z</time>
      </trkpt>
      <trkpt lat="42.431400000" lon="-2.460962000">
        <ele>443.80</ele>
        <time>2016-10-29T09:55:25Z</time>
      </trkpt>
      <trkpt lat="42.431447000" lon="-2.460959000">
        <ele>443.90</ele>
        <time>2016-10-29T09:55:26Z</time>
      </trkpt>
      <trkpt lat="42.431496000" lon="-2.460957000">
        <ele>443.80</ele>
        <time>2016-10-29T09:55:27Z</time>
      </trkpt>
      <trkpt lat="42.431547000" lon="-2.460959000">
        <ele>443.80</ele>
        <time>2016-10-29T09:55:28Z</time>
      </trkpt>
      <trkpt lat="42.431598000" lon="-2.460957000">
        <ele>443.80</ele>
        <time>2016-10-29T09:55:29Z</time>
      </trkpt>
      <trkpt lat="42.431650000" lon="-2.460956000">
        <ele>443.70</ele>
        <time>2016-10-29T09:55:30Z</time>
      </trkpt>
      <trkpt lat="42.431703000" lon="-2.460957000">
        <ele>443.70</ele>
        <time>2016-10-29T09:55:31Z</time>
      </trkpt>
      <trkpt lat="42.431754000" lon="-2.460957000">
        <ele>443.70</ele>
        <time>2016-10-29T09:55:32Z</time>
      </trkpt>
      <trkpt lat="42.431861000" lon="-2.460957000">
        <ele>443.80</ele>
        <time>2016-10-29T09:55:34Z</time>
      </trkpt>
      <trkpt lat="42.431916000" lon="-2.460958000">
        <ele>443.80</ele>
        <time>2016-10-29T09:55:35Z</time>
      </trkpt>
      <trkpt lat="42.431973000" lon="-2.460960000">
        <ele>443.90</ele>
        <time>2016-10-29T09:55:36Z</time>
      </trkpt>
      <trkpt lat="42.432034000" lon="-2.460958000">
        <ele>443.60</ele>
        <time>2016-10-29T09:55:37Z</time>
      </trkpt>
      <trkpt lat="42.432094000" lon="-2.460943000">
        <ele>443.30</ele>
        <time>2016-10-29T09:55:38Z</time>
      </trkpt>
      <trkpt lat="42.432157000" lon="-2.460918000">
        <ele>443.10</ele>
        <time>2016-10-29T09:55:39Z</time>
      </trkpt>
      <trkpt lat="42.432220000" lon="-2.460889000">
        <ele>442.90</ele>
        <time>2016-10-29T09:55:40Z</time>
      </trkpt>
      <trkpt lat="42.432278000" lon="-2.460852000">
        <ele>442.80</ele>
        <time>2016-10-29T09:55:41Z</time>
      </trkpt>
      <trkpt lat="42.432332000" lon="-2.460807000">
        <ele>442.70</ele>
        <time>2016-10-29T09:55:42Z</time>
      </trkpt>
      <trkpt lat="42.432385000" lon="-2.460758000">
        <ele>442.20</ele>
        <time>2016-10-29T09:55:43Z</time>
      </trkpt>
      <trkpt lat="42.432437000" lon="-2.460720000">
        <ele>441.80</ele>
        <time>2016-10-29T09:55:44Z</time>
      </trkpt>
      <trkpt lat="42.432493000" lon="-2.460700000">
        <ele>441.00</ele>
        <time>2016-10-29T09:55:45Z</time>
      </trkpt>
      <trkpt lat="42.432558000" lon="-2.460702000">
        <ele>440.40</ele>
        <time>2016-10-29T09:55:46Z</time>
      </trkpt>
      <trkpt lat="42.432629000" lon="-2.460712000">
        <ele>439.80</ele>
        <time>2016-10-29T09:55:47Z</time>
      </trkpt>
      <trkpt lat="42.432705000" lon="-2.460720000">
        <ele>439.30</ele>
        <time>2016-10-29T09:55:48Z</time>
      </trkpt>
      <trkpt lat="42.432783000" lon="-2.460728000">
        <ele>439.00</ele>
        <time>2016-10-29T09:55:49Z</time>
      </trkpt>
      <trkpt lat="42.432866000" lon="-2.460739000">
        <ele>438.80</ele>
        <time>2016-10-29T09:55:50Z</time>
      </trkpt>
      <trkpt lat="42.432950000" lon="-2.460748000">
        <ele>438.50</ele>
        <time>2016-10-29T09:55:51Z</time>
      </trkpt>
      <trkpt lat="42.433038000" lon="-2.460747000">
        <ele>438.20</ele>
        <time>2016-10-29T09:55:52Z</time>
      </trkpt>
      <trkpt lat="42.433123000" lon="-2.460753000">
        <ele>438.00</ele>
        <time>2016-10-29T09:55:53Z</time>
      </trkpt>
      <trkpt lat="42.433202000" lon="-2.460751000">
        <ele>437.90</ele>
        <time>2016-10-29T09:55:54Z</time>
      </trkpt>
      <trkpt lat="42.433277000" lon="-2.460734000">
        <ele>437.90</ele>
        <time>2016-10-29T09:55:55Z</time>
      </trkpt>
      <trkpt lat="42.433338000" lon="-2.460699000">
        <ele>438.00</ele>
        <time>2016-10-29T09:55:56Z</time>
      </trkpt>
      <trkpt lat="42.433383000" lon="-2.460647000">
        <ele>438.40</ele>
        <time>2016-10-29T09:55:57Z</time>
      </trkpt>
      <trkpt lat="42.433419000" lon="-2.460584000">
        <ele>438.70</ele>
        <time>2016-10-29T09:55:58Z</time>
      </trkpt>
      <trkpt lat="42.433453000" lon="-2.460526000">
        <ele>439.00</ele>
        <time>2016-10-29T09:55:59Z</time>
      </trkpt>
      <trkpt lat="42.433490000" lon="-2.460469000">
        <ele>439.20</ele>
        <time>2016-10-29T09:56:00Z</time>
      </trkpt>
      <trkpt lat="42.433523000" lon="-2.460416000">
        <ele>439.40</ele>
        <time>2016-10-29T09:56:01Z</time>
      </trkpt>
      <trkpt lat="42.433554000" lon="-2.460353000">
        <ele>439.50</ele>
        <time>2016-10-29T09:56:02Z</time>
      </trkpt>
      <trkpt lat="42.433579000" lon="-2.460294000">
        <ele>439.50</ele>
        <time>2016-10-29T09:56:03Z</time>
      </trkpt>
      <trkpt lat="42.433602000" lon="-2.460233000">
        <ele>439.50</ele>
        <time>2016-10-29T09:56:04Z</time>
      </trkpt>
      <trkpt lat="42.433626000" lon="-2.460173000">
        <ele>439.40</ele>
        <time>2016-10-29T09:56:05Z</time>
      </trkpt>
      <trkpt lat="42.433658000" lon="-2.460121000">
        <ele>439.40</ele>
        <time>2016-10-29T09:56:06Z</time>
      </trkpt>
      <trkpt lat="42.433696000" lon="-2.460074000">
        <ele>439.30</ele>
        <time>2016-10-29T09:56:07Z</time>
      </trkpt>
      <trkpt lat="42.433741000" lon="-2.460034000">
        <ele>439.20</ele>
        <time>2016-10-29T09:56:08Z</time>
      </trkpt>
      <trkpt lat="42.433789000" lon="-2.459997000">
        <ele>439.10</ele>
        <time>2016-10-29T09:56:09Z</time>
      </trkpt>
      <trkpt lat="42.433842000" lon="-2.459960000">
        <ele>439.10</ele>
        <time>2016-10-29T09:56:10Z</time>
      </trkpt>
      <trkpt lat="42.433893000" lon="-2.459930000">
        <ele>439.10</ele>
        <time>2016-10-29T09:56:11Z</time>
      </trkpt>
      <trkpt lat="42.433942000" lon="-2.459905000">
        <ele>439.00</ele>
        <time>2016-10-29T09:56:12Z</time>
      </trkpt>
      <trkpt lat="42.433993000" lon="-2.459878000">
        <ele>438.70</ele>
        <time>2016-10-29T09:56:13Z</time>
      </trkpt>
      <trkpt lat="42.434033000" lon="-2.459844000">
        <ele>438.50</ele>
        <time>2016-10-29T09:56:14Z</time>
      </trkpt>
      <trkpt lat="42.434056000" lon="-2.459796000">
        <ele>438.30</ele>
        <time>2016-10-29T09:56:15Z</time>
      </trkpt>
      <trkpt lat="42.434060000" lon="-2.459739000">
        <ele>438.10</ele>
        <time>2016-10-29T09:56:16Z</time>
      </trkpt>
      <trkpt lat="42.434049000" lon="-2.459682000">
        <ele>437.90</ele>
        <time>2016-10-29T09:56:17Z</time>
      </trkpt>
      <trkpt lat="42.434036000" lon="-2.459619000">
        <ele>437.70</ele>
        <time>2016-10-29T09:56:18Z</time>
      </trkpt>
      <trkpt lat="42.434022000" lon="-2.459554000">
        <ele>437.40</ele>
        <time>2016-10-29T09:56:19Z</time>
      </trkpt>
      <trkpt lat="42.434011000" lon="-2.459484000">
        <ele>437.30</ele>
        <time>2016-10-29T09:56:20Z</time>
      </trkpt>
      <trkpt lat="42.433999000" lon="-2.459413000">
        <ele>437.20</ele>
        <time>2016-10-29T09:56:21Z</time>
      </trkpt>
      <trkpt lat="42.433988000" lon="-2.459343000">
        <ele>437.20</ele>
        <time>2016-10-29T09:56:22Z</time>
      </trkpt>
      <trkpt lat="42.433975000" lon="-2.459275000">
        <ele>437.10</ele>
        <time>2016-10-29T09:56:23Z</time>
      </trkpt>
      <trkpt lat="42.433962000" lon="-2.459206000">
        <ele>437.10</ele>
        <time>2016-10-29T09:56:24Z</time>
      </trkpt>
      <trkpt lat="42.433952000" lon="-2.459136000">
        <ele>437.00</ele>
        <time>2016-10-29T09:56:25Z</time>
      </trkpt>
      <trkpt lat="42.433938000" lon="-2.459066000">
        <ele>437.00</ele>
        <time>2016-10-29T09:56:26Z</time>
      </trkpt>
      <trkpt lat="42.433923000" lon="-2.458996000">
        <ele>436.90</ele>
        <time>2016-10-29T09:56:27Z</time>
      </trkpt>
      <trkpt lat="42.433915000" lon="-2.458926000">
        <ele>436.90</ele>
        <time>2016-10-29T09:56:28Z</time>
      </trkpt>
      <trkpt lat="42.433908000" lon="-2.458855000">
        <ele>436.80</ele>
        <time>2016-10-29T09:56:29Z</time>
      </trkpt>
      <trkpt lat="42.433914000" lon="-2.458785000">
        <ele>436.80</ele>
        <time>2016-10-29T09:56:30Z</time>
      </trkpt>
      <trkpt lat="42.433949000" lon="-2.458734000">
        <ele>436.60</ele>
        <time>2016-10-29T09:56:31Z</time>
      </trkpt>
      <trkpt lat="42.433997000" lon="-2.458706000">
        <ele>436.50</ele>
        <time>2016-10-29T09:56:32Z</time>
      </trkpt>
      <trkpt lat="42.434051000" lon="-2.458684000">
        <ele>436.50</ele>
        <time>2016-10-29T09:56:33Z</time>
      </trkpt>
      <trkpt lat="42.434162000" lon="-2.458649000">
        <ele>436.50</ele>
        <time>2016-10-29T09:56:35Z</time>
      </trkpt>
      <trkpt lat="42.434220000" lon="-2.458632000">
        <ele>436.40</ele>
        <time>2016-10-29T09:56:36Z</time>
      </trkpt>
      <trkpt lat="42.434281000" lon="-2.458616000">
        <ele>436.40</ele>
        <time>2016-10-29T09:56:37Z</time>
      </trkpt>
      <trkpt lat="42.434343000" lon="-2.458598000">
        <ele>436.40</ele>
        <time>2016-10-29T09:56:38Z</time>
      </trkpt>
      <trkpt lat="42.434404000" lon="-2.458578000">
        <ele>436.20</ele>
        <time>2016-10-29T09:56:39Z</time>
      </trkpt>
      <trkpt lat="42.434465000" lon="-2.458559000">
        <ele>436.00</ele>
        <time>2016-10-29T09:56:40Z</time>
      </trkpt>
      <trkpt lat="42.434525000" lon="-2.458543000">
        <ele>435.90</ele>
        <time>2016-10-29T09:56:41Z</time>
      </trkpt>
      <trkpt lat="42.434585000" lon="-2.458524000">
        <ele>435.80</ele>
        <time>2016-10-29T09:56:42Z</time>
      </trkpt>
      <trkpt lat="42.434643000" lon="-2.458505000">
        <ele>435.60</ele>
        <time>2016-10-29T09:56:43Z</time>
      </trkpt>
      <trkpt lat="42.434703000" lon="-2.458483000">
        <ele>435.40</ele>
        <time>2016-10-29T09:56:44Z</time>
      </trkpt>
      <trkpt lat="42.434762000" lon="-2.458464000">
        <ele>435.30</ele>
        <time>2016-10-29T09:56:45Z</time>
      </trkpt>
      <trkpt lat="42.434820000" lon="-2.458446000">
        <ele>435.20</ele>
        <time>2016-10-29T09:56:46Z</time>
      </trkpt>
      <trkpt lat="42.434880000" lon="-2.458425000">
        <ele>435.20</ele>
        <time>2016-10-29T09:56:47Z</time>
      </trkpt>
      <trkpt lat="42.434939000" lon="-2.458395000">
        <ele>435.10</ele>
        <time>2016-10-29T09:56:48Z</time>
      </trkpt>
      <trkpt lat="42.434999000" lon="-2.458365000">
        <ele>435.10</ele>
        <time>2016-10-29T09:56:49Z</time>
      </trkpt>
      <trkpt lat="42.435059000" lon="-2.458336000">
        <ele>435.00</ele>
        <time>2016-10-29T09:56:50Z</time>
      </trkpt>
      <trkpt lat="42.435117000" lon="-2.458319000">
        <ele>434.80</ele>
        <time>2016-10-29T09:56:51Z</time>
      </trkpt>
      <trkpt lat="42.435177000" lon="-2.458304000">
        <ele>434.70</ele>
        <time>2016-10-29T09:56:52Z</time>
      </trkpt>
      <trkpt lat="42.435231000" lon="-2.458281000">
        <ele>434.20</ele>
        <time>2016-10-29T09:56:53Z</time>
      </trkpt>
      <trkpt lat="42.435277000" lon="-2.458269000">
        <ele>433.90</ele>
        <time>2016-10-29T09:56:54Z</time>
      </trkpt>
      <trkpt lat="42.435314000" lon="-2.458261000">
        <ele>433.60</ele>
        <time>2016-10-29T09:56:55Z</time>
      </trkpt>
      <trkpt lat="42.435346000" lon="-2.458252000">
        <ele>433.40</ele>
        <time>2016-10-29T09:56:56Z</time>
      </trkpt>
      <trkpt lat="42.435374000" lon="-2.458238000">
        <ele>433.20</ele>
        <time>2016-10-29T09:56:57Z</time>
      </trkpt>
      <trkpt lat="42.435400000" lon="-2.458224000">
        <ele>433.20</ele>
        <time>2016-10-29T09:56:58Z</time>
      </trkpt>
      <trkpt lat="42.435432000" lon="-2.458218000">
        <ele>433.20</ele>
        <time>2016-10-29T09:56:59Z</time>
      </trkpt>
      <trkpt lat="42.435470000" lon="-2.458208000">
        <ele>433.20</ele>
        <time>2016-10-29T09:57:00Z</time>
      </trkpt>
      <trkpt lat="42.435511000" lon="-2.458199000">
        <ele>433.30</ele>
        <time>2016-10-29T09:57:01Z</time>
      </trkpt>
      <trkpt lat="42.435552000" lon="-2.458184000">
        <ele>433.40</ele>
        <time>2016-10-29T09:57:02Z</time>
      </trkpt>
      <trkpt lat="42.435593000" lon="-2.458171000">
        <ele>433.30</ele>
        <time>2016-10-29T09:57:03Z</time>
      </trkpt>
      <trkpt lat="42.435636000" lon="-2.458162000">
        <ele>433.30</ele>
        <time>2016-10-29T09:57:04Z</time>
      </trkpt>
      <trkpt lat="42.435681000" lon="-2.458153000">
        <ele>433.30</ele>
        <time>2016-10-29T09:57:05Z</time>
      </trkpt>
      <trkpt lat="42.435725000" lon="-2.458140000">
        <ele>433.30</ele>
        <time>2016-10-29T09:57:06Z</time>
      </trkpt>
      <trkpt lat="42.435772000" lon="-2.458128000">
        <ele>433.30</ele>
        <time>2016-10-29T09:57:07Z</time>
      </trkpt>
      <trkpt lat="42.435818000" lon="-2.458113000">
        <ele>433.30</ele>
        <time>2016-10-29T09:57:08Z</time>
      </trkpt>
      <trkpt lat="42.435864000" lon="-2.458095000">
        <ele>433.10</ele>
        <time>2016-10-29T09:57:09Z</time>
      </trkpt>
      <trkpt lat="42.435910000" lon="-2.458082000">
        <ele>433.00</ele>
        <time>2016-10-29T09:57:10Z</time>
      </trkpt>
      <trkpt lat="42.435956000" lon="-2.458066000">
        <ele>432.80</ele>
        <time>2016-10-29T09:57:11Z</time>
      </trkpt>
      <trkpt lat="42.436001000" lon="-2.458053000">
        <ele>432.60</ele>
        <time>2016-10-29T09:57:12Z</time>
      </trkpt>
      <trkpt lat="42.436044000" lon="-2.458035000">
        <ele>432.50</ele>
        <time>2016-10-29T09:57:13Z</time>
      </trkpt>
      <trkpt lat="42.436086000" lon="-2.458016000">
        <ele>432.40</ele>
        <time>2016-10-29T09:57:14Z</time>
      </trkpt>
      <trkpt lat="42.436120000" lon="-2.457981000">
        <ele>432.50</ele>
        <time>2016-10-29T09:57:15Z</time>
      </trkpt>
      <trkpt lat="42.436168000" lon="-2.457968000">
        <ele>432.50</ele>
        <time>2016-10-29T09:57:16Z</time>
      </trkpt>
      <trkpt lat="42.436219000" lon="-2.457956000">
        <ele>432.50</ele>
        <time>2016-10-29T09:57:17Z</time>
      </trkpt>
      <trkpt lat="42.436271000" lon="-2.457941000">
        <ele>432.60</ele>
        <time>2016-10-29T09:57:18Z</time>
      </trkpt>
      <trkpt lat="42.436326000" lon="-2.457929000">
        <ele>432.70</ele>
        <time>2016-10-29T09:57:19Z</time>
      </trkpt>
      <trkpt lat="42.436380000" lon="-2.457920000">
        <ele>432.70</ele>
        <time>2016-10-29T09:57:20Z</time>
      </trkpt>
      <trkpt lat="42.436432000" lon="-2.457906000">
        <ele>432.80</ele>
        <time>2016-10-29T09:57:21Z</time>
      </trkpt>
      <trkpt lat="42.436485000" lon="-2.457890000">
        <ele>432.80</ele>
        <time>2016-10-29T09:57:22Z</time>
      </trkpt>
      <trkpt lat="42.436539000" lon="-2.457876000">
        <ele>432.80</ele>
        <time>2016-10-29T09:57:23Z</time>
      </trkpt>
      <trkpt lat="42.436590000" lon="-2.457863000">
        <ele>432.80</ele>
        <time>2016-10-29T09:57:24Z</time>
      </trkpt>
      <trkpt lat="42.436641000" lon="-2.457851000">
        <ele>432.70</ele>
        <time>2016-10-29T09:57:25Z</time>
      </trkpt>
      <trkpt lat="42.436693000" lon="-2.457840000">
        <ele>432.60</ele>
        <time>2016-10-29T09:57:26Z</time>
      </trkpt>
      <trkpt lat="42.436744000" lon="-2.457832000">
        <ele>432.50</ele>
        <time>2016-10-29T09:57:27Z</time>
      </trkpt>
      <trkpt lat="42.436796000" lon="-2.457822000">
        <ele>432.50</ele>
        <time>2016-10-29T09:57:28Z</time>
      </trkpt>
      <trkpt lat="42.436847000" lon="-2.457812000">
        <ele>432.30</ele>
        <time>2016-10-29T09:57:29Z</time>
      </trkpt>
      <trkpt lat="42.436896000" lon="-2.457799000">
        <ele>432.20</ele>
        <time>2016-10-29T09:57:30Z</time>
      </trkpt>
      <trkpt lat="42.436946000" lon="-2.457787000">
        <ele>432.10</ele>
        <time>2016-10-29T09:57:31Z</time>
      </trkpt>
      <trkpt lat="42.436996000" lon="-2.457775000">
        <ele>432.00</ele>
        <time>2016-10-29T09:57:32Z</time>
      </trkpt>
      <trkpt lat="42.437050000" lon="-2.457763000">
        <ele>432.00</ele>
        <time>2016-10-29T09:57:33Z</time>
      </trkpt>
      <trkpt lat="42.437103000" lon="-2.457754000">
        <ele>432.00</ele>
        <time>2016-10-29T09:57:34Z</time>
      </trkpt>
      <trkpt lat="42.437210000" lon="-2.457744000">
        <ele>432.20</ele>
        <time>2016-10-29T09:57:36Z</time>
      </trkpt>
      <trkpt lat="42.437266000" lon="-2.457736000">
        <ele>432.10</ele>
        <time>2016-10-29T09:57:37Z</time>
      </trkpt>
      <trkpt lat="42.437322000" lon="-2.457730000">
        <ele>432.10</ele>
        <time>2016-10-29T09:57:38Z</time>
      </trkpt>
      <trkpt lat="42.437380000" lon="-2.457726000">
        <ele>432.00</ele>
        <time>2016-10-29T09:57:39Z</time>
      </trkpt>
      <trkpt lat="42.437438000" lon="-2.457719000">
        <ele>432.00</ele>
        <time>2016-10-29T09:57:40Z</time>
      </trkpt>
      <trkpt lat="42.437499000" lon="-2.457714000">
        <ele>431.90</ele>
        <time>2016-10-29T09:57:41Z</time>
      </trkpt>
      <trkpt lat="42.437558000" lon="-2.457708000">
        <ele>431.90</ele>
        <time>2016-10-29T09:57:42Z</time>
      </trkpt>
      <trkpt lat="42.437618000" lon="-2.457708000">
        <ele>431.90</ele>
        <time>2016-10-29T09:57:43Z</time>
      </trkpt>
      <trkpt lat="42.437676000" lon="-2.457709000">
        <ele>431.90</ele>
        <time>2016-10-29T09:57:44Z</time>
      </trkpt>
      <trkpt lat="42.437733000" lon="-2.457716000">
        <ele>431.70</ele>
        <time>2016-10-29T09:57:45Z</time>
      </trkpt>
      <trkpt lat="42.437791000" lon="-2.457719000">
        <ele>431.60</ele>
        <time>2016-10-29T09:57:46Z</time>
      </trkpt>
      <trkpt lat="42.437848000" lon="-2.457723000">
        <ele>431.50</ele>
        <time>2016-10-29T09:57:47Z</time>
      </trkpt>
      <trkpt lat="42.437905000" lon="-2.457722000">
        <ele>431.50</ele>
        <time>2016-10-29T09:57:48Z</time>
      </trkpt>
      <trkpt lat="42.437960000" lon="-2.457721000">
        <ele>431.40</ele>
        <time>2016-10-29T09:57:49Z</time>
      </trkpt>
      <trkpt lat="42.438016000" lon="-2.457717000">
        <ele>431.30</ele>
        <time>2016-10-29T09:57:50Z</time>
      </trkpt>
      <trkpt lat="42.438070000" lon="-2.457711000">
        <ele>431.30</ele>
        <time>2016-10-29T09:57:51Z</time>
      </trkpt>
      <trkpt lat="42.438122000" lon="-2.457711000">
        <ele>431.20</ele>
        <time>2016-10-29T09:57:52Z</time>
      </trkpt>
      <trkpt lat="42.438175000" lon="-2.457708000">
        <ele>431.20</ele>
        <time>2016-10-29T09:57:53Z</time>
      </trkpt>
      <trkpt lat="42.438228000" lon="-2.457705000">
        <ele>431.20</ele>
        <time>2016-10-29T09:57:54Z</time>
      </trkpt>
      <trkpt lat="42.438282000" lon="-2.457705000">
        <ele>431.20</ele>
        <time>2016-10-29T09:57:55Z</time>
      </trkpt>
      <trkpt lat="42.438337000" lon="-2.457705000">
        <ele>431.10</ele>
        <time>2016-10-29T09:57:56Z</time>
      </trkpt>
      <trkpt lat="42.438391000" lon="-2.457702000">
        <ele>431.10</ele>
        <time>2016-10-29T09:57:57Z</time>
      </trkpt>
      <trkpt lat="42.438448000" lon="-2.457700000">
        <ele>431.10</ele>
        <time>2016-10-29T09:57:58Z</time>
      </trkpt>
      <trkpt lat="42.438503000" lon="-2.457697000">
        <ele>431.10</ele>
        <time>2016-10-29T09:57:59Z</time>
      </trkpt>
      <trkpt lat="42.438554000" lon="-2.457693000">
        <ele>431.00</ele>
        <time>2016-10-29T09:58:00Z</time>
      </trkpt>
      <trkpt lat="42.438604000" lon="-2.457690000">
        <ele>431.00</ele>
        <time>2016-10-29T09:58:01Z</time>
      </trkpt>
      <trkpt lat="42.438656000" lon="-2.457684000">
        <ele>430.90</ele>
        <time>2016-10-29T09:58:02Z</time>
      </trkpt>
      <trkpt lat="42.438704000" lon="-2.457686000">
        <ele>430.90</ele>
        <time>2016-10-29T09:58:03Z</time>
      </trkpt>
      <trkpt lat="42.438751000" lon="-2.457690000">
        <ele>430.80</ele>
        <time>2016-10-29T09:58:04Z</time>
      </trkpt>
      <trkpt lat="42.438798000" lon="-2.457693000">
        <ele>430.70</ele>
        <time>2016-10-29T09:58:05Z</time>
      </trkpt>
      <trkpt lat="42.438845000" lon="-2.457692000">
        <ele>430.70</ele>
        <time>2016-10-29T09:58:06Z</time>
      </trkpt>
      <trkpt lat="42.438889000" lon="-2.457692000">
        <ele>431.00</ele>
        <time>2016-10-29T09:58:07Z</time>
      </trkpt>
      <trkpt lat="42.438935000" lon="-2.457696000">
        <ele>431.20</ele>
        <time>2016-10-29T09:58:08Z</time>
      </trkpt>
      <trkpt lat="42.438981000" lon="-2.457698000">
        <ele>431.30</ele>
        <time>2016-10-29T09:58:09Z</time>
      </trkpt>
      <trkpt lat="42.439028000" lon="-2.457699000">
        <ele>431.50</ele>
        <time>2016-10-29T09:58:10Z</time>
      </trkpt>
      <trkpt lat="42.439075000" lon="-2.457702000">
        <ele>431.50</ele>
        <time>2016-10-29T09:58:11Z</time>
      </trkpt>
      <trkpt lat="42.439119000" lon="-2.457698000">
        <ele>431.60</ele>
        <time>2016-10-29T09:58:12Z</time>
      </trkpt>
      <trkpt lat="42.439164000" lon="-2.457695000">
        <ele>431.70</ele>
        <time>2016-10-29T09:58:13Z</time>
      </trkpt>
      <trkpt lat="42.439212000" lon="-2.457691000">
        <ele>431.70</ele>
        <time>2016-10-29T09:58:14Z</time>
      </trkpt>
      <trkpt lat="42.439258000" lon="-2.457690000">
        <ele>431.70</ele>
        <time>2016-10-29T09:58:15Z</time>
      </trkpt>
      <trkpt lat="42.439306000" lon="-2.457690000">
        <ele>431.70</ele>
        <time>2016-10-29T09:58:16Z</time>
      </trkpt>
      <trkpt lat="42.439353000" lon="-2.457693000">
        <ele>431.70</ele>
        <time>2016-10-29T09:58:17Z</time>
      </trkpt>
      <trkpt lat="42.439400000" lon="-2.457695000">
        <ele>431.80</ele>
        <time>2016-10-29T09:58:18Z</time>
      </trkpt>
      <trkpt lat="42.439448000" lon="-2.457698000">
        <ele>431.80</ele>
        <time>2016-10-29T09:58:19Z</time>
      </trkpt>
      <trkpt lat="42.439498000" lon="-2.457700000">
        <ele>431.90</ele>
        <time>2016-10-29T09:58:20Z</time>
      </trkpt>
      <trkpt lat="42.439548000" lon="-2.457704000">
        <ele>431.90</ele>
        <time>2016-10-29T09:58:21Z</time>
      </trkpt>
      <trkpt lat="42.439599000" lon="-2.457706000">
        <ele>432.00</ele>
        <time>2016-10-29T09:58:22Z</time>
      </trkpt>
      <trkpt lat="42.439648000" lon="-2.457709000">
        <ele>431.70</ele>
        <time>2016-10-29T09:58:23Z</time>
      </trkpt>
      <trkpt lat="42.439699000" lon="-2.457703000">
        <ele>431.60</ele>
        <time>2016-10-29T09:58:24Z</time>
      </trkpt>
      <trkpt lat="42.439751000" lon="-2.457698000">
        <ele>431.40</ele>
        <time>2016-10-29T09:58:25Z</time>
      </trkpt>
      <trkpt lat="42.439805000" lon="-2.457699000">
        <ele>431.30</ele>
        <time>2016-10-29T09:58:26Z</time>
      </trkpt>
      <trkpt lat="42.439858000" lon="-2.457695000">
        <ele>431.20</ele>
        <time>2016-10-29T09:58:27Z</time>
      </trkpt>
      <trkpt lat="42.439911000" lon="-2.457697000">
        <ele>431.10</ele>
        <time>2016-10-29T09:58:28Z</time>
      </trkpt>
      <trkpt lat="42.439965000" lon="-2.457695000">
        <ele>431.00</ele>
        <time>2016-10-29T09:58:29Z</time>
      </trkpt>
      <trkpt lat="42.440019000" lon="-2.457694000">
        <ele>431.00</ele>
        <time>2016-10-29T09:58:30Z</time>
      </trkpt>
      <trkpt lat="42.440072000" lon="-2.457691000">
        <ele>430.80</ele>
        <time>2016-10-29T09:58:31Z</time>
      </trkpt>
      <trkpt lat="42.440123000" lon="-2.457683000">
        <ele>430.70</ele>
        <time>2016-10-29T09:58:32Z</time>
      </trkpt>
      <trkpt lat="42.440174000" lon="-2.457677000">
        <ele>430.40</ele>
        <time>2016-10-29T09:58:33Z</time>
      </trkpt>
      <trkpt lat="42.440222000" lon="-2.457666000">
        <ele>430.30</ele>
        <time>2016-10-29T09:58:34Z</time>
      </trkpt>
      <trkpt lat="42.440272000" lon="-2.457657000">
        <ele>430.10</ele>
        <time>2016-10-29T09:58:35Z</time>
      </trkpt>
      <trkpt lat="42.440379000" lon="-2.457641000">
        <ele>429.80</ele>
        <time>2016-10-29T09:58:37Z</time>
      </trkpt>
      <trkpt lat="42.440433000" lon="-2.457632000">
        <ele>429.70</ele>
        <time>2016-10-29T09:58:38Z</time>
      </trkpt>
      <trkpt lat="42.440487000" lon="-2.457623000">
        <ele>429.60</ele>
        <time>2016-10-29T09:58:39Z</time>
      </trkpt>
      <trkpt lat="42.440543000" lon="-2.457617000">
        <ele>429.50</ele>
        <time>2016-10-29T09:58:40Z</time>
      </trkpt>
      <trkpt lat="42.440599000" lon="-2.457609000">
        <ele>429.40</ele>
        <time>2016-10-29T09:58:41Z</time>
      </trkpt>
      <trkpt lat="42.440655000" lon="-2.457595000">
        <ele>429.40</ele>
        <time>2016-10-29T09:58:42Z</time>
      </trkpt>
      <trkpt lat="42.440710000" lon="-2.457581000">
        <ele>429.30</ele>
        <time>2016-10-29T09:58:43Z</time>
      </trkpt>
      <trkpt lat="42.440762000" lon="-2.457569000">
        <ele>429.30</ele>
        <time>2016-10-29T09:58:44Z</time>
      </trkpt>
      <trkpt lat="42.440816000" lon="-2.457558000">
        <ele>429.20</ele>
        <time>2016-10-29T09:58:45Z</time>
      </trkpt>
      <trkpt lat="42.440873000" lon="-2.457547000">
        <ele>429.20</ele>
        <time>2016-10-29T09:58:46Z</time>
      </trkpt>
      <trkpt lat="42.440929000" lon="-2.457535000">
        <ele>429.10</ele>
        <time>2016-10-29T09:58:47Z</time>
      </trkpt>
      <trkpt lat="42.440985000" lon="-2.457526000">
        <ele>429.10</ele>
        <time>2016-10-29T09:58:48Z</time>
      </trkpt>
      <trkpt lat="42.441036000" lon="-2.457521000">
        <ele>429.10</ele>
        <time>2016-10-29T09:58:49Z</time>
      </trkpt>
      <trkpt lat="42.441089000" lon="-2.457519000">
        <ele>429.00</ele>
        <time>2016-10-29T09:58:50Z</time>
      </trkpt>
      <trkpt lat="42.441142000" lon="-2.457523000">
        <ele>428.90</ele>
        <time>2016-10-29T09:58:51Z</time>
      </trkpt>
      <trkpt lat="42.441189000" lon="-2.457531000">
        <ele>428.80</ele>
        <time>2016-10-29T09:58:52Z</time>
      </trkpt>
      <trkpt lat="42.441234000" lon="-2.457545000">
        <ele>428.60</ele>
        <time>2016-10-29T09:58:53Z</time>
      </trkpt>
      <trkpt lat="42.441276000" lon="-2.457565000">
        <ele>428.40</ele>
        <time>2016-10-29T09:58:54Z</time>
      </trkpt>
      <trkpt lat="42.441314000" lon="-2.457584000">
        <ele>428.30</ele>
        <time>2016-10-29T09:58:55Z</time>
      </trkpt>
      <trkpt lat="42.441348000" lon="-2.457601000">
        <ele>428.20</ele>
        <time>2016-10-29T09:58:56Z</time>
      </trkpt>
      <trkpt lat="42.441379000" lon="-2.457622000">
        <ele>428.20</ele>
        <time>2016-10-29T09:58:57Z</time>
      </trkpt>
      <trkpt lat="42.441409000" lon="-2.457649000">
        <ele>428.20</ele>
        <time>2016-10-29T09:58:58Z</time>
      </trkpt>
      <trkpt lat="42.441429000" lon="-2.457687000">
        <ele>428.20</ele>
        <time>2016-10-29T09:58:59Z</time>
      </trkpt>
      <trkpt lat="42.441433000" lon="-2.457728000">
        <ele>428.20</ele>
        <time>2016-10-29T09:59:00Z</time>
      </trkpt>
      <trkpt lat="42.441419000" lon="-2.457766000">
        <ele>428.20</ele>
        <time>2016-10-29T09:59:01Z</time>
      </trkpt>
      <trkpt lat="42.441400000" lon="-2.457809000">
        <ele>428.20</ele>
        <time>2016-10-29T09:59:02Z</time>
      </trkpt>
      <trkpt lat="42.441377000" lon="-2.457853000">
        <ele>428.10</ele>
        <time>2016-10-29T09:59:03Z</time>
      </trkpt>
      <trkpt lat="42.441349000" lon="-2.457899000">
        <ele>428.10</ele>
        <time>2016-10-29T09:59:04Z</time>
      </trkpt>
      <trkpt lat="42.441317000" lon="-2.457943000">
        <ele>428.00</ele>
        <time>2016-10-29T09:59:05Z</time>
      </trkpt>
      <trkpt lat="42.441287000" lon="-2.457985000">
        <ele>427.90</ele>
        <time>2016-10-29T09:59:06Z</time>
      </trkpt>
      <trkpt lat="42.441256000" lon="-2.458025000">
        <ele>427.90</ele>
        <time>2016-10-29T09:59:07Z</time>
      </trkpt>
      <trkpt lat="42.441224000" lon="-2.458064000">
        <ele>427.80</ele>
        <time>2016-10-29T09:59:08Z</time>
      </trkpt>
      <trkpt lat="42.441199000" lon="-2.458109000">
        <ele>427.90</ele>
        <time>2016-10-29T09:59:09Z</time>
      </trkpt>
      <trkpt lat="42.441181000" lon="-2.458149000">
        <ele>427.90</ele>
        <time>2016-10-29T09:59:10Z</time>
      </trkpt>
      <trkpt lat="42.441171000" lon="-2.458172000">
        <ele>427.90</ele>
        <time>2016-10-29T09:59:11Z</time>
      </trkpt>
      <trkpt lat="42.441163000" lon="-2.458187000">
        <ele>427.90</ele>
        <time>2016-10-29T09:59:12Z</time>
      </trkpt>
      <trkpt lat="42.441160000" lon="-2.458201000">
        <ele>428.00</ele>
        <time>2016-10-29T09:59:13Z</time>
      </trkpt>
      <trkpt lat="42.441161000" lon="-2.458220000">
        <ele>428.00</ele>
        <time>2016-10-29T09:59:14Z</time>
      </trkpt>
      <trkpt lat="42.441167000" lon="-2.458246000">
        <ele>428.00</ele>
        <time>2016-10-29T09:59:15Z</time>
      </trkpt>
      <trkpt lat="42.441179000" lon="-2.458278000">
        <ele>428.00</ele>
        <time>2016-10-29T09:59:16Z</time>
      </trkpt>
      <trkpt lat="42.441200000" lon="-2.458305000">
        <ele>428.00</ele>
        <time>2016-10-29T09:59:17Z</time>
      </trkpt>
      <trkpt lat="42.441222000" lon="-2.458328000">
        <ele>428.00</ele>
        <time>2016-10-29T09:59:18Z</time>
      </trkpt>
      <trkpt lat="42.441249000" lon="-2.458340000">
        <ele>428.00</ele>
        <time>2016-10-29T09:59:19Z</time>
      </trkpt>
      <trkpt lat="42.441273000" lon="-2.458348000">
        <ele>428.00</ele>
        <time>2016-10-29T09:59:20Z</time>
      </trkpt>
      <trkpt lat="42.441298000" lon="-2.458353000">
        <ele>428.00</ele>
        <time>2016-10-29T09:59:21Z</time>
      </trkpt>
      <trkpt lat="42.441323000" lon="-2.458360000">
        <ele>427.80</ele>
        <time>2016-10-29T09:59:22Z</time>
      </trkpt>
      <trkpt lat="42.441351000" lon="-2.458368000">
        <ele>427.70</ele>
        <time>2016-10-29T09:59:23Z</time>
      </trkpt>
      <trkpt lat="42.441381000" lon="-2.458375000">
        <ele>427.70</ele>
        <time>2016-10-29T09:59:24Z</time>
      </trkpt>
      <trkpt lat="42.441413000" lon="-2.458379000">
        <ele>427.70</ele>
        <time>2016-10-29T09:59:25Z</time>
      </trkpt>
      <trkpt lat="42.441453000" lon="-2.458384000">
        <ele>427.60</ele>
        <time>2016-10-29T09:59:26Z</time>
      </trkpt>
      <trkpt lat="42.441496000" lon="-2.458386000">
        <ele>427.60</ele>
        <time>2016-10-29T09:59:27Z</time>
      </trkpt>
      <trkpt lat="42.441541000" lon="-2.458395000">
        <ele>427.60</ele>
        <time>2016-10-29T09:59:28Z</time>
      </trkpt>
      <trkpt lat="42.441588000" lon="-2.458403000">
        <ele>427.60</ele>
        <time>2016-10-29T09:59:29Z</time>
      </trkpt>
      <trkpt lat="42.441638000" lon="-2.458406000">
        <ele>427.60</ele>
        <time>2016-10-29T09:59:30Z</time>
      </trkpt>
      <trkpt lat="42.441693000" lon="-2.458412000">
        <ele>427.60</ele>
        <time>2016-10-29T09:59:31Z</time>
      </trkpt>
      <trkpt lat="42.441747000" lon="-2.458420000">
        <ele>427.50</ele>
        <time>2016-10-29T09:59:32Z</time>
      </trkpt>
      <trkpt lat="42.441801000" lon="-2.458428000">
        <ele>427.40</ele>
        <time>2016-10-29T09:59:33Z</time>
      </trkpt>
      <trkpt lat="42.441854000" lon="-2.458441000">
        <ele>427.20</ele>
        <time>2016-10-29T09:59:34Z</time>
      </trkpt>
      <trkpt lat="42.441909000" lon="-2.458454000">
        <ele>427.00</ele>
        <time>2016-10-29T09:59:35Z</time>
      </trkpt>
      <trkpt lat="42.441964000" lon="-2.458469000">
        <ele>427.00</ele>
        <time>2016-10-29T09:59:36Z</time>
      </trkpt>
      <trkpt lat="42.442072000" lon="-2.458491000">
        <ele>426.90</ele>
        <time>2016-10-29T09:59:38Z</time>
      </trkpt>
      <trkpt lat="42.442127000" lon="-2.458506000">
        <ele>426.80</ele>
        <time>2016-10-29T09:59:39Z</time>
      </trkpt>
      <trkpt lat="42.442185000" lon="-2.458521000">
        <ele>426.80</ele>
        <time>2016-10-29T09:59:40Z</time>
      </trkpt>
      <trkpt lat="42.442240000" lon="-2.458546000">
        <ele>426.80</ele>
        <time>2016-10-29T09:59:41Z</time>
      </trkpt>
      <trkpt lat="42.442292000" lon="-2.458578000">
        <ele>426.80</ele>
        <time>2016-10-29T09:59:42Z</time>
      </trkpt>
      <trkpt lat="42.442345000" lon="-2.458605000">
        <ele>426.80</ele>
        <time>2016-10-29T09:59:43Z</time>
      </trkpt>
      <trkpt lat="42.442398000" lon="-2.458621000">
        <ele>426.80</ele>
        <time>2016-10-29T09:59:44Z</time>
      </trkpt>
      <trkpt lat="42.442452000" lon="-2.458631000">
        <ele>426.80</ele>
        <time>2016-10-29T09:59:45Z</time>
      </trkpt>
      <trkpt lat="42.442507000" lon="-2.458640000">
        <ele>426.80</ele>
        <time>2016-10-29T09:59:46Z</time>
      </trkpt>
      <trkpt lat="42.442566000" lon="-2.458652000">
        <ele>426.80</ele>
        <time>2016-10-29T09:59:47Z</time>
      </trkpt>
      <trkpt lat="42.442626000" lon="-2.458659000">
        <ele>426.80</ele>
        <time>2016-10-29T09:59:48Z</time>
      </trkpt>
      <trkpt lat="42.442686000" lon="-2.458665000">
        <ele>426.80</ele>
        <time>2016-10-29T09:59:49Z</time>
      </trkpt>
      <trkpt lat="42.442747000" lon="-2.458672000">
        <ele>426.80</ele>
        <time>2016-10-29T09:59:50Z</time>
      </trkpt>
      <trkpt lat="42.442805000" lon="-2.458677000">
        <ele>426.80</ele>
        <time>2016-10-29T09:59:51Z</time>
      </trkpt>
      <trkpt lat="42.442865000" lon="-2.458679000">
        <ele>426.90</ele>
        <time>2016-10-29T09:59:52Z</time>
      </trkpt>
      <trkpt lat="42.442922000" lon="-2.458683000">
        <ele>426.90</ele>
        <time>2016-10-29T09:59:53Z</time>
      </trkpt>
      <trkpt lat="42.442979000" lon="-2.458691000">
        <ele>426.90</ele>
        <time>2016-10-29T09:59:54Z</time>
      </trkpt>
      <trkpt lat="42.443035000" lon="-2.458702000">
        <ele>426.90</ele>
        <time>2016-10-29T09:59:55Z</time>
      </trkpt>
      <trkpt lat="42.443095000" lon="-2.458712000">
        <ele>426.70</ele>
        <time>2016-10-29T09:59:56Z</time>
      </trkpt>
      <trkpt lat="42.443150000" lon="-2.458722000">
        <ele>426.60</ele>
        <time>2016-10-29T09:59:57Z</time>
      </trkpt>
      <trkpt lat="42.443207000" lon="-2.458728000">
        <ele>426.50</ele>
        <time>2016-10-29T09:59:58Z</time>
      </trkpt>
      <trkpt lat="42.443265000" lon="-2.458736000">
        <ele>426.40</ele>
        <time>2016-10-29T09:59:59Z</time>
      </trkpt>
      <trkpt lat="42.443320000" lon="-2.458744000">
        <ele>426.40</ele>
        <time>2016-10-29T10:00:00Z</time>
      </trkpt>
      <trkpt lat="42.443377000" lon="-2.458753000">
        <ele>426.40</ele>
        <time>2016-10-29T10:00:01Z</time>
      </trkpt>
      <trkpt lat="42.443433000" lon="-2.458760000">
        <ele>426.40</ele>
        <time>2016-10-29T10:00:02Z</time>
      </trkpt>
      <trkpt lat="42.443488000" lon="-2.458769000">
        <ele>426.40</ele>
        <time>2016-10-29T10:00:03Z</time>
      </trkpt>
      <trkpt lat="42.443542000" lon="-2.458770000">
        <ele>426.40</ele>
        <time>2016-10-29T10:00:04Z</time>
      </trkpt>
      <trkpt lat="42.443594000" lon="-2.458780000">
        <ele>426.40</ele>
        <time>2016-10-29T10:00:05Z</time>
      </trkpt>
      <trkpt lat="42.443646000" lon="-2.458795000">
        <ele>426.40</ele>
        <time>2016-10-29T10:00:06Z</time>
      </trkpt>
      <trkpt lat="42.443699000" lon="-2.458815000">
        <ele>426.40</ele>
        <time>2016-10-29T10:00:07Z</time>
      </trkpt>
      <trkpt lat="42.443751000" lon="-2.458837000">
        <ele>426.40</ele>
        <time>2016-10-29T10:00:08Z</time>
      </trkpt>
      <trkpt lat="42.443805000" lon="-2.458850000">
        <ele>426.40</ele>
        <time>2016-10-29T10:00:09Z</time>
      </trkpt>
      <trkpt lat="42.443860000" lon="-2.458859000">
        <ele>426.40</ele>
        <time>2016-10-29T10:00:10Z</time>
      </trkpt>
      <trkpt lat="42.443915000" lon="-2.458865000">
        <ele>426.30</ele>
        <time>2016-10-29T10:00:11Z</time>
      </trkpt>
      <trkpt lat="42.443973000" lon="-2.458871000">
        <ele>426.30</ele>
        <time>2016-10-29T10:00:12Z</time>
      </trkpt>
      <trkpt lat="42.444030000" lon="-2.458873000">
        <ele>426.30</ele>
        <time>2016-10-29T10:00:13Z</time>
      </trkpt>
      <trkpt lat="42.444086000" lon="-2.458878000">
        <ele>426.30</ele>
        <time>2016-10-29T10:00:14Z</time>
      </trkpt>
      <trkpt lat="42.444143000" lon="-2.458883000">
        <ele>426.50</ele>
        <time>2016-10-29T10:00:15Z</time>
      </trkpt>
      <trkpt lat="42.444201000" lon="-2.458892000">
        <ele>426.60</ele>
        <time>2016-10-29T10:00:16Z</time>
      </trkpt>
      <trkpt lat="42.444256000" lon="-2.458898000">
        <ele>426.50</ele>
        <time>2016-10-29T10:00:17Z</time>
      </trkpt>
      <trkpt lat="42.444307000" lon="-2.458909000">
        <ele>426.50</ele>
        <time>2016-10-29T10:00:18Z</time>
      </trkpt>
      <trkpt lat="42.444353000" lon="-2.458909000">
        <ele>426.60</ele>
        <time>2016-10-29T10:00:19Z</time>
      </trkpt>
      <trkpt lat="42.444389000" lon="-2.458891000">
        <ele>426.70</ele>
        <time>2016-10-29T10:00:20Z</time>
      </trkpt>
      <trkpt lat="42.444434000" lon="-2.458854000">
        <ele>426.40</ele>
        <time>2016-10-29T10:00:21Z</time>
      </trkpt>
      <trkpt lat="42.444486000" lon="-2.458820000">
        <ele>426.30</ele>
        <time>2016-10-29T10:00:22Z</time>
      </trkpt>
      <trkpt lat="42.444539000" lon="-2.458786000">
        <ele>425.90</ele>
        <time>2016-10-29T10:00:23Z</time>
      </trkpt>
      <trkpt lat="42.444595000" lon="-2.458752000">
        <ele>425.60</ele>
        <time>2016-10-29T10:00:24Z</time>
      </trkpt>
      <trkpt lat="42.444654000" lon="-2.458723000">
        <ele>425.40</ele>
        <time>2016-10-29T10:00:25Z</time>
      </trkpt>
      <trkpt lat="42.444716000" lon="-2.458699000">
        <ele>425.20</ele>
        <time>2016-10-29T10:00:26Z</time>
      </trkpt>
      <trkpt lat="42.444780000" lon="-2.458678000">
        <ele>425.10</ele>
        <time>2016-10-29T10:00:27Z</time>
      </trkpt>
      <trkpt lat="42.444843000" lon="-2.458662000">
        <ele>425.00</ele>
        <time>2016-10-29T10:00:28Z</time>
      </trkpt>
      <trkpt lat="42.444908000" lon="-2.458644000">
        <ele>424.80</ele>
        <time>2016-10-29T10:00:29Z</time>
      </trkpt>
      <trkpt lat="42.444969000" lon="-2.458636000">
        <ele>424.70</ele>
        <time>2016-10-29T10:00:30Z</time>
      </trkpt>
      <trkpt lat="42.445033000" lon="-2.458627000">
        <ele>424.50</ele>
        <time>2016-10-29T10:00:31Z</time>
      </trkpt>
      <trkpt lat="42.445100000" lon="-2.458617000">
        <ele>424.30</ele>
        <time>2016-10-29T10:00:32Z</time>
      </trkpt>
      <trkpt lat="42.445169000" lon="-2.458608000">
        <ele>424.20</ele>
        <time>2016-10-29T10:00:33Z</time>
      </trkpt>
      <trkpt lat="42.445237000" lon="-2.458597000">
        <ele>424.00</ele>
        <time>2016-10-29T10:00:34Z</time>
      </trkpt>
      <trkpt lat="42.445307000" lon="-2.458587000">
        <ele>424.00</ele>
        <time>2016-10-29T10:00:35Z</time>
      </trkpt>
      <trkpt lat="42.445377000" lon="-2.458582000">
        <ele>423.90</ele>
        <time>2016-10-29T10:00:36Z</time>
      </trkpt>
      <trkpt lat="42.445447000" lon="-2.458577000">
        <ele>423.90</ele>
        <time>2016-10-29T10:00:37Z</time>
      </trkpt>
      <trkpt lat="42.445583000" lon="-2.458566000">
        <ele>423.80</ele>
        <time>2016-10-29T10:00:39Z</time>
      </trkpt>
      <trkpt lat="42.445653000" lon="-2.458563000">
        <ele>423.80</ele>
        <time>2016-10-29T10:00:40Z</time>
      </trkpt>
      <trkpt lat="42.445721000" lon="-2.458562000">
        <ele>423.60</ele>
        <time>2016-10-29T10:00:41Z</time>
      </trkpt>
      <trkpt lat="42.445791000" lon="-2.458567000">
        <ele>423.50</ele>
        <time>2016-10-29T10:00:42Z</time>
      </trkpt>
      <trkpt lat="42.445861000" lon="-2.458574000">
        <ele>423.30</ele>
        <time>2016-10-29T10:00:43Z</time>
      </trkpt>
      <trkpt lat="42.445928000" lon="-2.458582000">
        <ele>423.30</ele>
        <time>2016-10-29T10:00:44Z</time>
      </trkpt>
      <trkpt lat="42.445996000" lon="-2.458590000">
        <ele>423.20</ele>
        <time>2016-10-29T10:00:45Z</time>
      </trkpt>
      <trkpt lat="42.446063000" lon="-2.458590000">
        <ele>423.10</ele>
        <time>2016-10-29T10:00:46Z</time>
      </trkpt>
      <trkpt lat="42.446128000" lon="-2.458577000">
        <ele>423.30</ele>
        <time>2016-10-29T10:00:47Z</time>
      </trkpt>
      <trkpt lat="42.446188000" lon="-2.458549000">
        <ele>423.40</ele>
        <time>2016-10-29T10:00:48Z</time>
      </trkpt>
      <trkpt lat="42.446247000" lon="-2.458512000">
        <ele>423.30</ele>
        <time>2016-10-29T10:00:49Z</time>
      </trkpt>
      <trkpt lat="42.446303000" lon="-2.458470000">
        <ele>423.20</ele>
        <time>2016-10-29T10:00:50Z</time>
      </trkpt>
      <trkpt lat="42.446359000" lon="-2.458430000">
        <ele>423.10</ele>
        <time>2016-10-29T10:00:51Z</time>
      </trkpt>
      <trkpt lat="42.446418000" lon="-2.458392000">
        <ele>423.10</ele>
        <time>2016-10-29T10:00:52Z</time>
      </trkpt>
      <trkpt lat="42.446478000" lon="-2.458352000">
        <ele>422.90</ele>
        <time>2016-10-29T10:00:53Z</time>
      </trkpt>
      <trkpt lat="42.446541000" lon="-2.458313000">
        <ele>422.80</ele>
        <time>2016-10-29T10:00:54Z</time>
      </trkpt>
      <trkpt lat="42.446603000" lon="-2.458276000">
        <ele>422.70</ele>
        <time>2016-10-29T10:00:55Z</time>
      </trkpt>
      <trkpt lat="42.446666000" lon="-2.458237000">
        <ele>422.60</ele>
        <time>2016-10-29T10:00:56Z</time>
      </trkpt>
      <trkpt lat="42.446730000" lon="-2.458209000">
        <ele>422.50</ele>
        <time>2016-10-29T10:00:57Z</time>
      </trkpt>
      <trkpt lat="42.446797000" lon="-2.458184000">
        <ele>422.50</ele>
        <time>2016-10-29T10:00:58Z</time>
      </trkpt>
      <trkpt lat="42.446864000" lon="-2.458158000">
        <ele>422.60</ele>
        <time>2016-10-29T10:00:59Z</time>
      </trkpt>
      <trkpt lat="42.446929000" lon="-2.458132000">
        <ele>422.60</ele>
        <time>2016-10-29T10:01:00Z</time>
      </trkpt>
      <trkpt lat="42.446992000" lon="-2.458104000">
        <ele>422.60</ele>
        <time>2016-10-29T10:01:01Z</time>
      </trkpt>
      <trkpt lat="42.447057000" lon="-2.458078000">
        <ele>422.50</ele>
        <time>2016-10-29T10:01:02Z</time>
      </trkpt>
      <trkpt lat="42.447120000" lon="-2.458052000">
        <ele>422.40</ele>
        <time>2016-10-29T10:01:03Z</time>
      </trkpt>
      <trkpt lat="42.447183000" lon="-2.458022000">
        <ele>422.40</ele>
        <time>2016-10-29T10:01:04Z</time>
      </trkpt>
      <trkpt lat="42.447243000" lon="-2.457988000">
        <ele>422.20</ele>
        <time>2016-10-29T10:01:05Z</time>
      </trkpt>
      <trkpt lat="42.447302000" lon="-2.457952000">
        <ele>422.10</ele>
        <time>2016-10-29T10:01:06Z</time>
      </trkpt>
      <trkpt lat="42.447360000" lon="-2.457913000">
        <ele>422.20</ele>
        <time>2016-10-29T10:01:07Z</time>
      </trkpt>
      <trkpt lat="42.447417000" lon="-2.457871000">
        <ele>422.20</ele>
        <time>2016-10-29T10:01:08Z</time>
      </trkpt>
      <trkpt lat="42.447476000" lon="-2.457832000">
        <ele>422.10</ele>
        <time>2016-10-29T10:01:09Z</time>
      </trkpt>
      <trkpt lat="42.447536000" lon="-2.457799000">
        <ele>422.00</ele>
        <time>2016-10-29T10:01:10Z</time>
      </trkpt>
      <trkpt lat="42.447599000" lon="-2.457767000">
        <ele>422.00</ele>
        <time>2016-10-29T10:01:11Z</time>
      </trkpt>
      <trkpt lat="42.447662000" lon="-2.457736000">
        <ele>422.00</ele>
        <time>2016-10-29T10:01:12Z</time>
      </trkpt>
      <trkpt lat="42.447726000" lon="-2.457711000">
        <ele>422.00</ele>
        <time>2016-10-29T10:01:13Z</time>
      </trkpt>
      <trkpt lat="42.447790000" lon="-2.457689000">
        <ele>422.00</ele>
        <time>2016-10-29T10:01:14Z</time>
      </trkpt>
      <trkpt lat="42.447854000" lon="-2.457672000">
        <ele>421.90</ele>
        <time>2016-10-29T10:01:15Z</time>
      </trkpt>
      <trkpt lat="42.447919000" lon="-2.457651000">
        <ele>421.90</ele>
        <time>2016-10-29T10:01:16Z</time>
      </trkpt>
      <trkpt lat="42.447983000" lon="-2.457627000">
        <ele>421.70</ele>
        <time>2016-10-29T10:01:17Z</time>
      </trkpt>
      <trkpt lat="42.448045000" lon="-2.457590000">
        <ele>421.60</ele>
        <time>2016-10-29T10:01:18Z</time>
      </trkpt>
      <trkpt lat="42.448103000" lon="-2.457537000">
        <ele>421.40</ele>
        <time>2016-10-29T10:01:19Z</time>
      </trkpt>
      <trkpt lat="42.448154000" lon="-2.457474000">
        <ele>421.30</ele>
        <time>2016-10-29T10:01:20Z</time>
      </trkpt>
      <trkpt lat="42.448198000" lon="-2.457405000">
        <ele>421.10</ele>
        <time>2016-10-29T10:01:21Z</time>
      </trkpt>
      <trkpt lat="42.448243000" lon="-2.457340000">
        <ele>421.00</ele>
        <time>2016-10-29T10:01:22Z</time>
      </trkpt>
      <trkpt lat="42.448284000" lon="-2.457275000">
        <ele>420.60</ele>
        <time>2016-10-29T10:01:23Z</time>
      </trkpt>
      <trkpt lat="42.448325000" lon="-2.457208000">
        <ele>420.40</ele>
        <time>2016-10-29T10:01:24Z</time>
      </trkpt>
      <trkpt lat="42.448368000" lon="-2.457142000">
        <ele>420.00</ele>
        <time>2016-10-29T10:01:25Z</time>
      </trkpt>
      <trkpt lat="42.448412000" lon="-2.457079000">
        <ele>419.80</ele>
        <time>2016-10-29T10:01:26Z</time>
      </trkpt>
      <trkpt lat="42.448455000" lon="-2.457016000">
        <ele>419.60</ele>
        <time>2016-10-29T10:01:27Z</time>
      </trkpt>
      <trkpt lat="42.448496000" lon="-2.456949000">
        <ele>419.40</ele>
        <time>2016-10-29T10:01:28Z</time>
      </trkpt>
      <trkpt lat="42.448539000" lon="-2.456881000">
        <ele>419.30</ele>
        <time>2016-10-29T10:01:29Z</time>
      </trkpt>
      <trkpt lat="42.448583000" lon="-2.456816000">
        <ele>419.20</ele>
        <time>2016-10-29T10:01:30Z</time>
      </trkpt>
      <trkpt lat="42.448629000" lon="-2.456754000">
        <ele>419.30</ele>
        <time>2016-10-29T10:01:31Z</time>
      </trkpt>
      <trkpt lat="42.448675000" lon="-2.456692000">
        <ele>419.30</ele>
        <time>2016-10-29T10:01:32Z</time>
      </trkpt>
      <trkpt lat="42.448723000" lon="-2.456629000">
        <ele>419.40</ele>
        <time>2016-10-29T10:01:33Z</time>
      </trkpt>
      <trkpt lat="42.448772000" lon="-2.456568000">
        <ele>419.50</ele>
        <time>2016-10-29T10:01:34Z</time>
      </trkpt>
      <trkpt lat="42.448819000" lon="-2.456509000">
        <ele>419.50</ele>
        <time>2016-10-29T10:01:35Z</time>
      </trkpt>
      <trkpt lat="42.448866000" lon="-2.456447000">
        <ele>419.50</ele>
        <time>2016-10-29T10:01:36Z</time>
      </trkpt>
      <trkpt lat="42.448913000" lon="-2.456384000">
        <ele>419.30</ele>
        <time>2016-10-29T10:01:37Z</time>
      </trkpt>
      <trkpt lat="42.448959000" lon="-2.456326000">
        <ele>419.10</ele>
        <time>2016-10-29T10:01:38Z</time>
      </trkpt>
      <trkpt lat="42.449046000" lon="-2.456207000">
        <ele>418.80</ele>
        <time>2016-10-29T10:01:40Z</time>
      </trkpt>
      <trkpt lat="42.449085000" lon="-2.456154000">
        <ele>418.70</ele>
        <time>2016-10-29T10:01:41Z</time>
      </trkpt>
      <trkpt lat="42.449119000" lon="-2.456107000">
        <ele>418.60</ele>
        <time>2016-10-29T10:01:42Z</time>
      </trkpt>
      <trkpt lat="42.449151000" lon="-2.456071000">
        <ele>418.50</ele>
        <time>2016-10-29T10:01:43Z</time>
      </trkpt>
      <trkpt lat="42.449181000" lon="-2.456034000">
        <ele>418.50</ele>
        <time>2016-10-29T10:01:44Z</time>
      </trkpt>
      <trkpt lat="42.449209000" lon="-2.455994000">
        <ele>418.50</ele>
        <time>2016-10-29T10:01:45Z</time>
      </trkpt>
      <trkpt lat="42.449237000" lon="-2.455950000">
        <ele>418.50</ele>
        <time>2016-10-29T10:01:46Z</time>
      </trkpt>
      <trkpt lat="42.449268000" lon="-2.455904000">
        <ele>418.50</ele>
        <time>2016-10-29T10:01:47Z</time>
      </trkpt>
      <trkpt lat="42.449299000" lon="-2.455860000">
        <ele>418.50</ele>
        <time>2016-10-29T10:01:48Z</time>
      </trkpt>
      <trkpt lat="42.449332000" lon="-2.455811000">
        <ele>418.40</ele>
        <time>2016-10-29T10:01:49Z</time>
      </trkpt>
      <trkpt lat="42.449366000" lon="-2.455764000">
        <ele>418.40</ele>
        <time>2016-10-29T10:01:50Z</time>
      </trkpt>
      <trkpt lat="42.449402000" lon="-2.455721000">
        <ele>418.30</ele>
        <time>2016-10-29T10:01:51Z</time>
      </trkpt>
      <trkpt lat="42.449436000" lon="-2.455678000">
        <ele>418.20</ele>
        <time>2016-10-29T10:01:52Z</time>
      </trkpt>
      <trkpt lat="42.449474000" lon="-2.455635000">
        <ele>418.00</ele>
        <time>2016-10-29T10:01:53Z</time>
      </trkpt>
      <trkpt lat="42.449520000" lon="-2.455605000">
        <ele>417.90</ele>
        <time>2016-10-29T10:01:54Z</time>
      </trkpt>
      <trkpt lat="42.449569000" lon="-2.455593000">
        <ele>417.80</ele>
        <time>2016-10-29T10:01:55Z</time>
      </trkpt>
      <trkpt lat="42.449621000" lon="-2.455592000">
        <ele>417.70</ele>
        <time>2016-10-29T10:01:56Z</time>
      </trkpt>
      <trkpt lat="42.449669000" lon="-2.455586000">
        <ele>417.70</ele>
        <time>2016-10-29T10:01:57Z</time>
      </trkpt>
      <trkpt lat="42.449722000" lon="-2.455576000">
        <ele>417.70</ele>
        <time>2016-10-29T10:01:58Z</time>
      </trkpt>
      <trkpt lat="42.449779000" lon="-2.455564000">
        <ele>417.70</ele>
        <time>2016-10-29T10:01:59Z</time>
      </trkpt>
      <trkpt lat="42.449832000" lon="-2.455547000">
        <ele>417.70</ele>
        <time>2016-10-29T10:02:00Z</time>
      </trkpt>
      <trkpt lat="42.449888000" lon="-2.455529000">
        <ele>417.70</ele>
        <time>2016-10-29T10:02:01Z</time>
      </trkpt>
      <trkpt lat="42.449943000" lon="-2.455513000">
        <ele>417.70</ele>
        <time>2016-10-29T10:02:02Z</time>
      </trkpt>
      <trkpt lat="42.450000000" lon="-2.455490000">
        <ele>417.60</ele>
        <time>2016-10-29T10:02:03Z</time>
      </trkpt>
      <trkpt lat="42.450060000" lon="-2.455460000">
        <ele>417.60</ele>
        <time>2016-10-29T10:02:04Z</time>
      </trkpt>
      <trkpt lat="42.450122000" lon="-2.455439000">
        <ele>417.40</ele>
        <time>2016-10-29T10:02:05Z</time>
      </trkpt>
      <trkpt lat="42.450185000" lon="-2.455416000">
        <ele>417.30</ele>
        <time>2016-10-29T10:02:06Z</time>
      </trkpt>
      <trkpt lat="42.450247000" lon="-2.455395000">
        <ele>417.20</ele>
        <time>2016-10-29T10:02:07Z</time>
      </trkpt>
      <trkpt lat="42.450309000" lon="-2.455376000">
        <ele>417.10</ele>
        <time>2016-10-29T10:02:08Z</time>
      </trkpt>
      <trkpt lat="42.450371000" lon="-2.455358000">
        <ele>417.00</ele>
        <time>2016-10-29T10:02:09Z</time>
      </trkpt>
      <trkpt lat="42.450433000" lon="-2.455346000">
        <ele>416.90</ele>
        <time>2016-10-29T10:02:10Z</time>
      </trkpt>
      <trkpt lat="42.450494000" lon="-2.455335000">
        <ele>416.90</ele>
        <time>2016-10-29T10:02:11Z</time>
      </trkpt>
      <trkpt lat="42.450555000" lon="-2.455323000">
        <ele>416.80</ele>
        <time>2016-10-29T10:02:12Z</time>
      </trkpt>
      <trkpt lat="42.450615000" lon="-2.455308000">
        <ele>416.80</ele>
        <time>2016-10-29T10:02:13Z</time>
      </trkpt>
      <trkpt lat="42.450672000" lon="-2.455288000">
        <ele>416.70</ele>
        <time>2016-10-29T10:02:14Z</time>
      </trkpt>
      <trkpt lat="42.450730000" lon="-2.455265000">
        <ele>416.60</ele>
        <time>2016-10-29T10:02:15Z</time>
      </trkpt>
      <trkpt lat="42.450787000" lon="-2.455243000">
        <ele>416.60</ele>
        <time>2016-10-29T10:02:16Z</time>
      </trkpt>
      <trkpt lat="42.450846000" lon="-2.455223000">
        <ele>416.50</ele>
        <time>2016-10-29T10:02:17Z</time>
      </trkpt>
      <trkpt lat="42.450906000" lon="-2.455200000">
        <ele>416.50</ele>
        <time>2016-10-29T10:02:18Z</time>
      </trkpt>
      <trkpt lat="42.450966000" lon="-2.455178000">
        <ele>416.30</ele>
        <time>2016-10-29T10:02:19Z</time>
      </trkpt>
      <trkpt lat="42.451026000" lon="-2.455154000">
        <ele>416.20</ele>
        <time>2016-10-29T10:02:20Z</time>
      </trkpt>
      <trkpt lat="42.451087000" lon="-2.455136000">
        <ele>416.30</ele>
        <time>2016-10-29T10:02:21Z</time>
      </trkpt>
      <trkpt lat="42.451149000" lon="-2.455113000">
        <ele>416.30</ele>
        <time>2016-10-29T10:02:22Z</time>
      </trkpt>
      <trkpt lat="42.451209000" lon="-2.455097000">
        <ele>416.20</ele>
        <time>2016-10-29T10:02:23Z</time>
      </trkpt>
      <trkpt lat="42.451268000" lon="-2.455082000">
        <ele>416.10</ele>
        <time>2016-10-29T10:02:24Z</time>
      </trkpt>
      <trkpt lat="42.451326000" lon="-2.455070000">
        <ele>416.10</ele>
        <time>2016-10-29T10:02:25Z</time>
      </trkpt>
      <trkpt lat="42.451381000" lon="-2.455058000">
        <ele>416.10</ele>
        <time>2016-10-29T10:02:26Z</time>
      </trkpt>
      <trkpt lat="42.451437000" lon="-2.455044000">
        <ele>415.90</ele>
        <time>2016-10-29T10:02:27Z</time>
      </trkpt>
      <trkpt lat="42.451494000" lon="-2.455025000">
        <ele>415.80</ele>
        <time>2016-10-29T10:02:28Z</time>
      </trkpt>
      <trkpt lat="42.451551000" lon="-2.455008000">
        <ele>415.70</ele>
        <time>2016-10-29T10:02:29Z</time>
      </trkpt>
      <trkpt lat="42.451607000" lon="-2.454993000">
        <ele>415.50</ele>
        <time>2016-10-29T10:02:30Z</time>
      </trkpt>
      <trkpt lat="42.451663000" lon="-2.454979000">
        <ele>415.20</ele>
        <time>2016-10-29T10:02:31Z</time>
      </trkpt>
      <trkpt lat="42.451716000" lon="-2.454960000">
        <ele>415.00</ele>
        <time>2016-10-29T10:02:32Z</time>
      </trkpt>
      <trkpt lat="42.451771000" lon="-2.454941000">
        <ele>414.80</ele>
        <time>2016-10-29T10:02:33Z</time>
      </trkpt>
      <trkpt lat="42.451825000" lon="-2.454927000">
        <ele>414.70</ele>
        <time>2016-10-29T10:02:34Z</time>
      </trkpt>
      <trkpt lat="42.451880000" lon="-2.454904000">
        <ele>414.50</ele>
        <time>2016-10-29T10:02:35Z</time>
      </trkpt>
      <trkpt lat="42.451936000" lon="-2.454893000">
        <ele>414.50</ele>
        <time>2016-10-29T10:02:36Z</time>
      </trkpt>
      <trkpt lat="42.451992000" lon="-2.454874000">
        <ele>414.50</ele>
        <time>2016-10-29T10:02:37Z</time>
      </trkpt>
      <trkpt lat="42.452045000" lon="-2.454854000">
        <ele>414.50</ele>
        <time>2016-10-29T10:02:38Z</time>
      </trkpt>
      <trkpt lat="42.452096000" lon="-2.454835000">
        <ele>414.50</ele>
        <time>2016-10-29T10:02:39Z</time>
      </trkpt>
      <trkpt lat="42.452195000" lon="-2.454816000">
        <ele>414.40</ele>
        <time>2016-10-29T10:02:41Z</time>
      </trkpt>
      <trkpt lat="42.452237000" lon="-2.454802000">
        <ele>414.40</ele>
        <time>2016-10-29T10:02:42Z</time>
      </trkpt>
      <trkpt lat="42.452277000" lon="-2.454780000">
        <ele>414.40</ele>
        <time>2016-10-29T10:02:43Z</time>
      </trkpt>
      <trkpt lat="42.452316000" lon="-2.454768000">
        <ele>414.40</ele>
        <time>2016-10-29T10:02:44Z</time>
      </trkpt>
      <trkpt lat="42.452359000" lon="-2.454759000">
        <ele>414.30</ele>
        <time>2016-10-29T10:02:45Z</time>
      </trkpt>
      <trkpt lat="42.452404000" lon="-2.454762000">
        <ele>414.30</ele>
        <time>2016-10-29T10:02:46Z</time>
      </trkpt>
      <trkpt lat="42.452451000" lon="-2.454777000">
        <ele>414.20</ele>
        <time>2016-10-29T10:02:47Z</time>
      </trkpt>
      <trkpt lat="42.452495000" lon="-2.454793000">
        <ele>414.10</ele>
        <time>2016-10-29T10:02:48Z</time>
      </trkpt>
      <trkpt lat="42.452540000" lon="-2.454805000">
        <ele>414.10</ele>
        <time>2016-10-29T10:02:49Z</time>
      </trkpt>
      <trkpt lat="42.452587000" lon="-2.454809000">
        <ele>414.10</ele>
        <time>2016-10-29T10:02:50Z</time>
      </trkpt>
      <trkpt lat="42.452636000" lon="-2.454809000">
        <ele>414.00</ele>
        <time>2016-10-29T10:02:51Z</time>
      </trkpt>
      <trkpt lat="42.452682000" lon="-2.454798000">
        <ele>414.00</ele>
        <time>2016-10-29T10:02:52Z</time>
      </trkpt>
      <trkpt lat="42.452727000" lon="-2.454785000">
        <ele>413.90</ele>
        <time>2016-10-29T10:02:53Z</time>
      </trkpt>
      <trkpt lat="42.452769000" lon="-2.454769000">
        <ele>413.80</ele>
        <time>2016-10-29T10:02:54Z</time>
      </trkpt>
      <trkpt lat="42.452811000" lon="-2.454756000">
        <ele>413.70</ele>
        <time>2016-10-29T10:02:55Z</time>
      </trkpt>
      <trkpt lat="42.452851000" lon="-2.454739000">
        <ele>413.70</ele>
        <time>2016-10-29T10:02:56Z</time>
      </trkpt>
      <trkpt lat="42.452892000" lon="-2.454723000">
        <ele>413.60</ele>
        <time>2016-10-29T10:02:57Z</time>
      </trkpt>
      <trkpt lat="42.452934000" lon="-2.454700000">
        <ele>413.60</ele>
        <time>2016-10-29T10:02:58Z</time>
      </trkpt>
      <trkpt lat="42.452974000" lon="-2.454687000">
        <ele>413.40</ele>
        <time>2016-10-29T10:02:59Z</time>
      </trkpt>
      <trkpt lat="42.453016000" lon="-2.454672000">
        <ele>413.30</ele>
        <time>2016-10-29T10:03:00Z</time>
      </trkpt>
      <trkpt lat="42.453057000" lon="-2.454653000">
        <ele>413.20</ele>
        <time>2016-10-29T10:03:01Z</time>
      </trkpt>
      <trkpt lat="42.453099000" lon="-2.454639000">
        <ele>413.20</ele>
        <time>2016-10-29T10:03:02Z</time>
      </trkpt>
      <trkpt lat="42.453139000" lon="-2.454620000">
        <ele>413.20</ele>
        <time>2016-10-29T10:03:03Z</time>
      </trkpt>
      <trkpt lat="42.453184000" lon="-2.454606000">
        <ele>413.20</ele>
        <time>2016-10-29T10:03:04Z</time>
      </trkpt>
      <trkpt lat="42.453227000" lon="-2.454590000">
        <ele>413.30</ele>
        <time>2016-10-29T10:03:05Z</time>
      </trkpt>
      <trkpt lat="42.453270000" lon="-2.454580000">
        <ele>413.40</ele>
        <time>2016-10-29T10:03:06Z</time>
      </trkpt>
      <trkpt lat="42.453313000" lon="-2.454570000">
        <ele>413.30</ele>
        <time>2016-10-29T10:03:07Z</time>
      </trkpt>
      <trkpt lat="42.453355000" lon="-2.454556000">
        <ele>413.30</ele>
        <time>2016-10-29T10:03:08Z</time>
      </trkpt>
      <trkpt lat="42.453394000" lon="-2.454539000">
        <ele>413.20</ele>
        <time>2016-10-29T10:03:09Z</time>
      </trkpt>
      <trkpt lat="42.453433000" lon="-2.454521000">
        <ele>413.10</ele>
        <time>2016-10-29T10:03:10Z</time>
      </trkpt>
      <trkpt lat="42.453470000" lon="-2.454497000">
        <ele>413.10</ele>
        <time>2016-10-29T10:03:11Z</time>
      </trkpt>
      <trkpt lat="42.453507000" lon="-2.454478000">
        <ele>413.00</ele>
        <time>2016-10-29T10:03:12Z</time>
      </trkpt>
      <trkpt lat="42.453543000" lon="-2.454453000">
        <ele>412.90</ele>
        <time>2016-10-29T10:03:13Z</time>
      </trkpt>
      <trkpt lat="42.453582000" lon="-2.454440000">
        <ele>412.80</ele>
        <time>2016-10-29T10:03:14Z</time>
      </trkpt>
      <trkpt lat="42.453623000" lon="-2.454445000">
        <ele>412.90</ele>
        <time>2016-10-29T10:03:15Z</time>
      </trkpt>
      <trkpt lat="42.453664000" lon="-2.454466000">
        <ele>412.90</ele>
        <time>2016-10-29T10:03:16Z</time>
      </trkpt>
      <trkpt lat="42.453695000" lon="-2.454509000">
        <ele>413.00</ele>
        <time>2016-10-29T10:03:17Z</time>
      </trkpt>
      <trkpt lat="42.453715000" lon="-2.454563000">
        <ele>413.00</ele>
        <time>2016-10-29T10:03:18Z</time>
      </trkpt>
      <trkpt lat="42.453732000" lon="-2.454623000">
        <ele>413.10</ele>
        <time>2016-10-29T10:03:19Z</time>
      </trkpt>
      <trkpt lat="42.453744000" lon="-2.454681000">
        <ele>413.20</ele>
        <time>2016-10-29T10:03:20Z</time>
      </trkpt>
      <trkpt lat="42.453753000" lon="-2.454729000">
        <ele>413.30</ele>
        <time>2016-10-29T10:03:21Z</time>
      </trkpt>
      <trkpt lat="42.453765000" lon="-2.454768000">
        <ele>413.40</ele>
        <time>2016-10-29T10:03:22Z</time>
      </trkpt>
      <trkpt lat="42.453782000" lon="-2.454797000">
        <ele>413.40</ele>
        <time>2016-10-29T10:03:23Z</time>
      </trkpt>
      <trkpt lat="42.453804000" lon="-2.454820000">
        <ele>413.40</ele>
        <time>2016-10-29T10:03:24Z</time>
      </trkpt>
      <trkpt lat="42.453827000" lon="-2.454837000">
        <ele>413.30</ele>
        <time>2016-10-29T10:03:25Z</time>
      </trkpt>
      <trkpt lat="42.453840000" lon="-2.454863000">
        <ele>413.20</ele>
        <time>2016-10-29T10:03:26Z</time>
      </trkpt>
      <trkpt lat="42.453857000" lon="-2.454888000">
        <ele>413.20</ele>
        <time>2016-10-29T10:03:27Z</time>
      </trkpt>
      <trkpt lat="42.453870000" lon="-2.454923000">
        <ele>413.10</ele>
        <time>2016-10-29T10:03:28Z</time>
      </trkpt>
      <trkpt lat="42.453874000" lon="-2.454966000">
        <ele>413.10</ele>
        <time>2016-10-29T10:03:29Z</time>
      </trkpt>
      <trkpt lat="42.453882000" lon="-2.455013000">
        <ele>413.10</ele>
        <time>2016-10-29T10:03:30Z</time>
      </trkpt>
      <trkpt lat="42.453889000" lon="-2.455059000">
        <ele>413.10</ele>
        <time>2016-10-29T10:03:31Z</time>
      </trkpt>
      <trkpt lat="42.453896000" lon="-2.455111000">
        <ele>413.10</ele>
        <time>2016-10-29T10:03:32Z</time>
      </trkpt>
      <trkpt lat="42.453903000" lon="-2.455167000">
        <ele>413.10</ele>
        <time>2016-10-29T10:03:33Z</time>
      </trkpt>
      <trkpt lat="42.453911000" lon="-2.455226000">
        <ele>413.10</ele>
        <time>2016-10-29T10:03:34Z</time>
      </trkpt>
      <trkpt lat="42.453920000" lon="-2.455283000">
        <ele>413.30</ele>
        <time>2016-10-29T10:03:35Z</time>
      </trkpt>
      <trkpt lat="42.453929000" lon="-2.455339000">
        <ele>413.50</ele>
        <time>2016-10-29T10:03:36Z</time>
      </trkpt>
      <trkpt lat="42.453938000" lon="-2.455396000">
        <ele>413.60</ele>
        <time>2016-10-29T10:03:37Z</time>
      </trkpt>
      <trkpt lat="42.453947000" lon="-2.455449000">
        <ele>413.70</ele>
        <time>2016-10-29T10:03:38Z</time>
      </trkpt>
      <trkpt lat="42.453958000" lon="-2.455504000">
        <ele>413.70</ele>
        <time>2016-10-29T10:03:39Z</time>
      </trkpt>
      <trkpt lat="42.453967000" lon="-2.455562000">
        <ele>413.80</ele>
        <time>2016-10-29T10:03:40Z</time>
      </trkpt>
      <trkpt lat="42.453985000" lon="-2.455673000">
        <ele>413.80</ele>
        <time>2016-10-29T10:03:42Z</time>
      </trkpt>
      <trkpt lat="42.453993000" lon="-2.455726000">
        <ele>413.80</ele>
        <time>2016-10-29T10:03:43Z</time>
      </trkpt>
      <trkpt lat="42.454002000" lon="-2.455777000">
        <ele>413.70</ele>
        <time>2016-10-29T10:03:44Z</time>
      </trkpt>
      <trkpt lat="42.454012000" lon="-2.455830000">
        <ele>413.80</ele>
        <time>2016-10-29T10:03:45Z</time>
      </trkpt>
      <trkpt lat="42.454021000" lon="-2.455882000">
        <ele>413.80</ele>
        <time>2016-10-29T10:03:46Z</time>
      </trkpt>
      <trkpt lat="42.454029000" lon="-2.455938000">
        <ele>413.70</ele>
        <time>2016-10-29T10:03:47Z</time>
      </trkpt>
      <trkpt lat="42.454039000" lon="-2.455993000">
        <ele>413.70</ele>
        <time>2016-10-29T10:03:48Z</time>
      </trkpt>
      <trkpt lat="42.454048000" lon="-2.456048000">
        <ele>413.80</ele>
        <time>2016-10-29T10:03:49Z</time>
      </trkpt>
      <trkpt lat="42.454057000" lon="-2.456104000">
        <ele>413.90</ele>
        <time>2016-10-29T10:03:50Z</time>
      </trkpt>
      <trkpt lat="42.454063000" lon="-2.456159000">
        <ele>413.90</ele>
        <time>2016-10-29T10:03:51Z</time>
      </trkpt>
      <trkpt lat="42.454072000" lon="-2.456214000">
        <ele>413.90</ele>
        <time>2016-10-29T10:03:52Z</time>
      </trkpt>
      <trkpt lat="42.454082000" lon="-2.456265000">
        <ele>414.10</ele>
        <time>2016-10-29T10:03:53Z</time>
      </trkpt>
      <trkpt lat="42.454090000" lon="-2.456322000">
        <ele>414.20</ele>
        <time>2016-10-29T10:03:54Z</time>
      </trkpt>
      <trkpt lat="42.454098000" lon="-2.456379000">
        <ele>414.30</ele>
        <time>2016-10-29T10:03:55Z</time>
      </trkpt>
      <trkpt lat="42.454105000" lon="-2.456435000">
        <ele>414.30</ele>
        <time>2016-10-29T10:03:56Z</time>
      </trkpt>
      <trkpt lat="42.454112000" lon="-2.456482000">
        <ele>414.40</ele>
        <time>2016-10-29T10:03:57Z</time>
      </trkpt>
      <trkpt lat="42.454120000" lon="-2.456520000">
        <ele>414.40</ele>
        <time>2016-10-29T10:03:58Z</time>
      </trkpt>
      <trkpt lat="42.454133000" lon="-2.456563000">
        <ele>414.40</ele>
        <time>2016-10-29T10:03:59Z</time>
      </trkpt>
      <trkpt lat="42.454150000" lon="-2.456601000">
        <ele>414.40</ele>
        <time>2016-10-29T10:04:00Z</time>
      </trkpt>
      <trkpt lat="42.454179000" lon="-2.456631000">
        <ele>414.40</ele>
        <time>2016-10-29T10:04:01Z</time>
      </trkpt>
      <trkpt lat="42.454213000" lon="-2.456661000">
        <ele>414.50</ele>
        <time>2016-10-29T10:04:02Z</time>
      </trkpt>
      <trkpt lat="42.454249000" lon="-2.456697000">
        <ele>414.20</ele>
        <time>2016-10-29T10:04:03Z</time>
      </trkpt>
      <trkpt lat="42.454295000" lon="-2.456736000">
        <ele>414.00</ele>
        <time>2016-10-29T10:04:04Z</time>
      </trkpt>
      <trkpt lat="42.454342000" lon="-2.456777000">
        <ele>413.90</ele>
        <time>2016-10-29T10:04:05Z</time>
      </trkpt>
      <trkpt lat="42.454391000" lon="-2.456810000">
        <ele>413.80</ele>
        <time>2016-10-29T10:04:06Z</time>
      </trkpt>
      <trkpt lat="42.454436000" lon="-2.456853000">
        <ele>413.50</ele>
        <time>2016-10-29T10:04:07Z</time>
      </trkpt>
      <trkpt lat="42.454487000" lon="-2.456867000">
        <ele>413.30</ele>
        <time>2016-10-29T10:04:08Z</time>
      </trkpt>
      <trkpt lat="42.454542000" lon="-2.456886000">
        <ele>413.10</ele>
        <time>2016-10-29T10:04:09Z</time>
      </trkpt>
      <trkpt lat="42.454587000" lon="-2.456916000">
        <ele>412.90</ele>
        <time>2016-10-29T10:04:10Z</time>
      </trkpt>
      <trkpt lat="42.454614000" lon="-2.456974000">
        <ele>412.80</ele>
        <time>2016-10-29T10:04:11Z</time>
      </trkpt>
      <trkpt lat="42.454642000" lon="-2.457025000">
        <ele>412.70</ele>
        <time>2016-10-29T10:04:12Z</time>
      </trkpt>
      <trkpt lat="42.454679000" lon="-2.457069000">
        <ele>412.80</ele>
        <time>2016-10-29T10:04:13Z</time>
      </trkpt>
      <trkpt lat="42.454714000" lon="-2.457108000">
        <ele>412.80</ele>
        <time>2016-10-29T10:04:14Z</time>
      </trkpt>
      <trkpt lat="42.454749000" lon="-2.457139000">
        <ele>413.20</ele>
        <time>2016-10-29T10:04:15Z</time>
      </trkpt>
      <trkpt lat="42.454783000" lon="-2.457170000">
        <ele>413.60</ele>
        <time>2016-10-29T10:04:16Z</time>
      </trkpt>
      <trkpt lat="42.454814000" lon="-2.457199000">
        <ele>413.80</ele>
        <time>2016-10-29T10:04:17Z</time>
      </trkpt>
      <trkpt lat="42.454844000" lon="-2.457231000">
        <ele>414.00</ele>
        <time>2016-10-29T10:04:18Z</time>
      </trkpt>
      <trkpt lat="42.454876000" lon="-2.457263000">
        <ele>414.30</ele>
        <time>2016-10-29T10:04:19Z</time>
      </trkpt>
      <trkpt lat="42.454905000" lon="-2.457298000">
        <ele>414.60</ele>
        <time>2016-10-29T10:04:20Z</time>
      </trkpt>
      <trkpt lat="42.454935000" lon="-2.457334000">
        <ele>414.80</ele>
        <time>2016-10-29T10:04:21Z</time>
      </trkpt>
      <trkpt lat="42.454950000" lon="-2.457387000">
        <ele>414.90</ele>
        <time>2016-10-29T10:04:22Z</time>
      </trkpt>
      <trkpt lat="42.454959000" lon="-2.457440000">
        <ele>415.00</ele>
        <time>2016-10-29T10:04:23Z</time>
      </trkpt>
      <trkpt lat="42.454968000" lon="-2.457500000">
        <ele>415.00</ele>
        <time>2016-10-29T10:04:24Z</time>
      </trkpt>
      <trkpt lat="42.454977000" lon="-2.457560000">
        <ele>415.00</ele>
        <time>2016-10-29T10:04:25Z</time>
      </trkpt>
      <trkpt lat="42.454986000" lon="-2.457618000">
        <ele>415.10</ele>
        <time>2016-10-29T10:04:26Z</time>
      </trkpt>
      <trkpt lat="42.454995000" lon="-2.457680000">
        <ele>415.20</ele>
        <time>2016-10-29T10:04:27Z</time>
      </trkpt>
      <trkpt lat="42.455004000" lon="-2.457739000">
        <ele>415.20</ele>
        <time>2016-10-29T10:04:28Z</time>
      </trkpt>
      <trkpt lat="42.455012000" lon="-2.457794000">
        <ele>415.20</ele>
        <time>2016-10-29T10:04:29Z</time>
      </trkpt>
      <trkpt lat="42.455021000" lon="-2.457849000">
        <ele>415.30</ele>
        <time>2016-10-29T10:04:30Z</time>
      </trkpt>
      <trkpt lat="42.455030000" lon="-2.457902000">
        <ele>415.30</ele>
        <time>2016-10-29T10:04:31Z</time>
      </trkpt>
      <trkpt lat="42.455038000" lon="-2.457952000">
        <ele>415.30</ele>
        <time>2016-10-29T10:04:32Z</time>
      </trkpt>
      <trkpt lat="42.455048000" lon="-2.457995000">
        <ele>415.40</ele>
        <time>2016-10-29T10:04:33Z</time>
      </trkpt>
      <trkpt lat="42.455062000" lon="-2.458033000">
        <ele>415.40</ele>
        <time>2016-10-29T10:04:34Z</time>
      </trkpt>
      <trkpt lat="42.455084000" lon="-2.458059000">
        <ele>415.50</ele>
        <time>2016-10-29T10:04:35Z</time>
      </trkpt>
      <trkpt lat="42.455111000" lon="-2.458065000">
        <ele>415.40</ele>
        <time>2016-10-29T10:04:36Z</time>
      </trkpt>
      <trkpt lat="42.455138000" lon="-2.458062000">
        <ele>415.40</ele>
        <time>2016-10-29T10:04:37Z</time>
      </trkpt>
      <trkpt lat="42.455167000" lon="-2.458057000">
        <ele>415.30</ele>
        <time>2016-10-29T10:04:38Z</time>
      </trkpt>
      <trkpt lat="42.455195000" lon="-2.458048000">
        <ele>415.30</ele>
        <time>2016-10-29T10:04:39Z</time>
      </trkpt>
      <trkpt lat="42.455228000" lon="-2.458036000">
        <ele>415.30</ele>
        <time>2016-10-29T10:04:40Z</time>
      </trkpt>
      <trkpt lat="42.455265000" lon="-2.458021000">
        <ele>415.30</ele>
        <time>2016-10-29T10:04:41Z</time>
      </trkpt>
      <trkpt lat="42.455331000" lon="-2.457946000">
        <ele>415.20</ele>
        <time>2016-10-29T10:04:43Z</time>
      </trkpt>
      <trkpt lat="42.455364000" lon="-2.457901000">
        <ele>415.20</ele>
        <time>2016-10-29T10:04:44Z</time>
      </trkpt>
      <trkpt lat="42.455401000" lon="-2.457856000">
        <ele>415.20</ele>
        <time>2016-10-29T10:04:45Z</time>
      </trkpt>
      <trkpt lat="42.455447000" lon="-2.457815000">
        <ele>415.20</ele>
        <time>2016-10-29T10:04:46Z</time>
      </trkpt>
      <trkpt lat="42.455494000" lon="-2.457775000">
        <ele>415.20</ele>
        <time>2016-10-29T10:04:47Z</time>
      </trkpt>
      <trkpt lat="42.455548000" lon="-2.457759000">
        <ele>414.80</ele>
        <time>2016-10-29T10:04:48Z</time>
      </trkpt>
      <trkpt lat="42.455601000" lon="-2.457787000">
        <ele>414.40</ele>
        <time>2016-10-29T10:04:49Z</time>
      </trkpt>
      <trkpt lat="42.455652000" lon="-2.457826000">
        <ele>414.00</ele>
        <time>2016-10-29T10:04:50Z</time>
      </trkpt>
      <trkpt lat="42.455705000" lon="-2.457861000">
        <ele>413.70</ele>
        <time>2016-10-29T10:04:51Z</time>
      </trkpt>
      <trkpt lat="42.455758000" lon="-2.457898000">
        <ele>413.20</ele>
        <time>2016-10-29T10:04:52Z</time>
      </trkpt>
      <trkpt lat="42.455814000" lon="-2.457934000">
        <ele>412.90</ele>
        <time>2016-10-29T10:04:53Z</time>
      </trkpt>
      <trkpt lat="42.455863000" lon="-2.457962000">
        <ele>412.40</ele>
        <time>2016-10-29T10:04:54Z</time>
      </trkpt>
      <trkpt lat="42.455909000" lon="-2.457964000">
        <ele>412.00</ele>
        <time>2016-10-29T10:04:55Z</time>
      </trkpt>
      <trkpt lat="42.455953000" lon="-2.457950000">
        <ele>412.00</ele>
        <time>2016-10-29T10:04:56Z</time>
      </trkpt>
      <trkpt lat="42.455996000" lon="-2.457934000">
        <ele>411.90</ele>
        <time>2016-10-29T10:04:57Z</time>
      </trkpt>
      <trkpt lat="42.456033000" lon="-2.457922000">
        <ele>412.00</ele>
        <time>2016-10-29T10:04:58Z</time>
      </trkpt>
      <trkpt lat="42.456069000" lon="-2.457916000">
        <ele>412.00</ele>
        <time>2016-10-29T10:04:59Z</time>
      </trkpt>
      <trkpt lat="42.456100000" lon="-2.457922000">
        <ele>412.10</ele>
        <time>2016-10-29T10:05:00Z</time>
      </trkpt>
      <trkpt lat="42.456123000" lon="-2.457947000">
        <ele>412.10</ele>
        <time>2016-10-29T10:05:01Z</time>
      </trkpt>
      <trkpt lat="42.456141000" lon="-2.457990000">
        <ele>412.40</ele>
        <time>2016-10-29T10:05:02Z</time>
      </trkpt>
      <trkpt lat="42.456154000" lon="-2.458043000">
        <ele>412.60</ele>
        <time>2016-10-29T10:05:03Z</time>
      </trkpt>
      <trkpt lat="42.456166000" lon="-2.458100000">
        <ele>412.70</ele>
        <time>2016-10-29T10:05:04Z</time>
      </trkpt>
      <trkpt lat="42.456176000" lon="-2.458162000">
        <ele>412.80</ele>
        <time>2016-10-29T10:05:05Z</time>
      </trkpt>
      <trkpt lat="42.456187000" lon="-2.458226000">
        <ele>413.10</ele>
        <time>2016-10-29T10:05:06Z</time>
      </trkpt>
      <trkpt lat="42.456197000" lon="-2.458292000">
        <ele>413.30</ele>
        <time>2016-10-29T10:05:07Z</time>
      </trkpt>
      <trkpt lat="42.456208000" lon="-2.458358000">
        <ele>413.40</ele>
        <time>2016-10-29T10:05:08Z</time>
      </trkpt>
      <trkpt lat="42.456218000" lon="-2.458424000">
        <ele>413.50</ele>
        <time>2016-10-29T10:05:09Z</time>
      </trkpt>
      <trkpt lat="42.456229000" lon="-2.458489000">
        <ele>413.60</ele>
        <time>2016-10-29T10:05:10Z</time>
      </trkpt>
      <trkpt lat="42.456239000" lon="-2.458555000">
        <ele>413.60</ele>
        <time>2016-10-29T10:05:11Z</time>
      </trkpt>
      <trkpt lat="42.456252000" lon="-2.458621000">
        <ele>413.70</ele>
        <time>2016-10-29T10:05:12Z</time>
      </trkpt>
      <trkpt lat="42.456263000" lon="-2.458684000">
        <ele>413.80</ele>
        <time>2016-10-29T10:05:13Z</time>
      </trkpt>
      <trkpt lat="42.456277000" lon="-2.458749000">
        <ele>413.80</ele>
        <time>2016-10-29T10:05:14Z</time>
      </trkpt>
      <trkpt lat="42.456289000" lon="-2.458815000">
        <ele>413.90</ele>
        <time>2016-10-29T10:05:15Z</time>
      </trkpt>
      <trkpt lat="42.456300000" lon="-2.458881000">
        <ele>413.90</ele>
        <time>2016-10-29T10:05:16Z</time>
      </trkpt>
      <trkpt lat="42.456310000" lon="-2.458943000">
        <ele>413.90</ele>
        <time>2016-10-29T10:05:17Z</time>
      </trkpt>
      <trkpt lat="42.456318000" lon="-2.459005000">
        <ele>413.80</ele>
        <time>2016-10-29T10:05:18Z</time>
      </trkpt>
      <trkpt lat="42.456329000" lon="-2.459061000">
        <ele>413.60</ele>
        <time>2016-10-29T10:05:19Z</time>
      </trkpt>
      <trkpt lat="42.456339000" lon="-2.459113000">
        <ele>413.50</ele>
        <time>2016-10-29T10:05:20Z</time>
      </trkpt>
      <trkpt lat="42.456351000" lon="-2.459158000">
        <ele>413.50</ele>
        <time>2016-10-29T10:05:21Z</time>
      </trkpt>
      <trkpt lat="42.456353000" lon="-2.459206000">
        <ele>413.40</ele>
        <time>2016-10-29T10:05:22Z</time>
      </trkpt>
      <trkpt lat="42.456361000" lon="-2.459258000">
        <ele>413.40</ele>
        <time>2016-10-29T10:05:23Z</time>
      </trkpt>
      <trkpt lat="42.456369000" lon="-2.459314000">
        <ele>413.30</ele>
        <time>2016-10-29T10:05:24Z</time>
      </trkpt>
      <trkpt lat="42.456382000" lon="-2.459369000">
        <ele>413.20</ele>
        <time>2016-10-29T10:05:25Z</time>
      </trkpt>
      <trkpt lat="42.456392000" lon="-2.459425000">
        <ele>413.10</ele>
        <time>2016-10-29T10:05:26Z</time>
      </trkpt>
      <trkpt lat="42.456405000" lon="-2.459483000">
        <ele>413.10</ele>
        <time>2016-10-29T10:05:27Z</time>
      </trkpt>
      <trkpt lat="42.456415000" lon="-2.459540000">
        <ele>413.00</ele>
        <time>2016-10-29T10:05:28Z</time>
      </trkpt>
      <trkpt lat="42.456425000" lon="-2.459599000">
        <ele>413.00</ele>
        <time>2016-10-29T10:05:29Z</time>
      </trkpt>
      <trkpt lat="42.456432000" lon="-2.459655000">
        <ele>413.00</ele>
        <time>2016-10-29T10:05:30Z</time>
      </trkpt>
      <trkpt lat="42.456439000" lon="-2.459711000">
        <ele>413.00</ele>
        <time>2016-10-29T10:05:31Z</time>
      </trkpt>
      <trkpt lat="42.456448000" lon="-2.459769000">
        <ele>413.30</ele>
        <time>2016-10-29T10:05:32Z</time>
      </trkpt>
      <trkpt lat="42.456459000" lon="-2.459825000">
        <ele>413.50</ele>
        <time>2016-10-29T10:05:33Z</time>
      </trkpt>
      <trkpt lat="42.456468000" lon="-2.459884000">
        <ele>413.40</ele>
        <time>2016-10-29T10:05:34Z</time>
      </trkpt>
      <trkpt lat="42.456476000" lon="-2.459941000">
        <ele>413.30</ele>
        <time>2016-10-29T10:05:35Z</time>
      </trkpt>
      <trkpt lat="42.456485000" lon="-2.459996000">
        <ele>413.30</ele>
        <time>2016-10-29T10:05:36Z</time>
      </trkpt>
      <trkpt lat="42.456494000" lon="-2.460049000">
        <ele>413.20</ele>
        <time>2016-10-29T10:05:37Z</time>
      </trkpt>
      <trkpt lat="42.456499000" lon="-2.460094000">
        <ele>413.20</ele>
        <time>2016-10-29T10:05:38Z</time>
      </trkpt>
      <trkpt lat="42.456507000" lon="-2.460140000">
        <ele>413.10</ele>
        <time>2016-10-29T10:05:39Z</time>
      </trkpt>
      <trkpt lat="42.456515000" lon="-2.460182000">
        <ele>413.10</ele>
        <time>2016-10-29T10:05:40Z</time>
      </trkpt>
      <trkpt lat="42.456524000" lon="-2.460226000">
        <ele>413.10</ele>
        <time>2016-10-29T10:05:41Z</time>
      </trkpt>
      <trkpt lat="42.456534000" lon="-2.460272000">
        <ele>413.10</ele>
        <time>2016-10-29T10:05:42Z</time>
      </trkpt>
      <trkpt lat="42.456548000" lon="-2.460367000">
        <ele>413.00</ele>
        <time>2016-10-29T10:05:44Z</time>
      </trkpt>
      <trkpt lat="42.456556000" lon="-2.460411000">
        <ele>413.10</ele>
        <time>2016-10-29T10:05:45Z</time>
      </trkpt>
      <trkpt lat="42.456568000" lon="-2.460453000">
        <ele>413.10</ele>
        <time>2016-10-29T10:05:46Z</time>
      </trkpt>
      <trkpt lat="42.456580000" lon="-2.460491000">
        <ele>413.10</ele>
        <time>2016-10-29T10:05:47Z</time>
      </trkpt>
      <trkpt lat="42.456589000" lon="-2.460525000">
        <ele>413.10</ele>
        <time>2016-10-29T10:05:48Z</time>
      </trkpt>
      <trkpt lat="42.456605000" lon="-2.460558000">
        <ele>413.10</ele>
        <time>2016-10-29T10:05:49Z</time>
      </trkpt>
      <trkpt lat="42.456622000" lon="-2.460598000">
        <ele>413.20</ele>
        <time>2016-10-29T10:05:50Z</time>
      </trkpt>
      <trkpt lat="42.456638000" lon="-2.460644000">
        <ele>413.30</ele>
        <time>2016-10-29T10:05:51Z</time>
      </trkpt>
      <trkpt lat="42.456656000" lon="-2.460691000">
        <ele>413.30</ele>
        <time>2016-10-29T10:05:52Z</time>
      </trkpt>
      <trkpt lat="42.456671000" lon="-2.460745000">
        <ele>413.40</ele>
        <time>2016-10-29T10:05:53Z</time>
      </trkpt>
      <trkpt lat="42.456686000" lon="-2.460799000">
        <ele>413.40</ele>
        <time>2016-10-29T10:05:54Z</time>
      </trkpt>
      <trkpt lat="42.456695000" lon="-2.460857000">
        <ele>413.40</ele>
        <time>2016-10-29T10:05:55Z</time>
      </trkpt>
      <trkpt lat="42.456708000" lon="-2.460913000">
        <ele>413.50</ele>
        <time>2016-10-29T10:05:56Z</time>
      </trkpt>
      <trkpt lat="42.456718000" lon="-2.460968000">
        <ele>413.60</ele>
        <time>2016-10-29T10:05:57Z</time>
      </trkpt>
      <trkpt lat="42.456729000" lon="-2.461020000">
        <ele>413.60</ele>
        <time>2016-10-29T10:05:58Z</time>
      </trkpt>
      <trkpt lat="42.456738000" lon="-2.461074000">
        <ele>413.70</ele>
        <time>2016-10-29T10:05:59Z</time>
      </trkpt>
      <trkpt lat="42.456746000" lon="-2.461131000">
        <ele>413.70</ele>
        <time>2016-10-29T10:06:00Z</time>
      </trkpt>
      <trkpt lat="42.456754000" lon="-2.461188000">
        <ele>413.70</ele>
        <time>2016-10-29T10:06:01Z</time>
      </trkpt>
      <trkpt lat="42.456762000" lon="-2.461235000">
        <ele>413.70</ele>
        <time>2016-10-29T10:06:02Z</time>
      </trkpt>
      <trkpt lat="42.456770000" lon="-2.461284000">
        <ele>413.70</ele>
        <time>2016-10-29T10:06:03Z</time>
      </trkpt>
      <trkpt lat="42.456781000" lon="-2.461327000">
        <ele>413.70</ele>
        <time>2016-10-29T10:06:04Z</time>
      </trkpt>
      <trkpt lat="42.456792000" lon="-2.461370000">
        <ele>413.70</ele>
        <time>2016-10-29T10:06:05Z</time>
      </trkpt>
      <trkpt lat="42.456808000" lon="-2.461404000">
        <ele>413.80</ele>
        <time>2016-10-29T10:06:06Z</time>
      </trkpt>
      <trkpt lat="42.456830000" lon="-2.461433000">
        <ele>413.80</ele>
        <time>2016-10-29T10:06:07Z</time>
      </trkpt>
      <trkpt lat="42.456858000" lon="-2.461457000">
        <ele>413.90</ele>
        <time>2016-10-29T10:06:08Z</time>
      </trkpt>
      <trkpt lat="42.456899000" lon="-2.461461000">
        <ele>414.00</ele>
        <time>2016-10-29T10:06:09Z</time>
      </trkpt>
      <trkpt lat="42.456940000" lon="-2.461445000">
        <ele>414.00</ele>
        <time>2016-10-29T10:06:10Z</time>
      </trkpt>
      <trkpt lat="42.456981000" lon="-2.461428000">
        <ele>413.90</ele>
        <time>2016-10-29T10:06:11Z</time>
      </trkpt>
      <trkpt lat="42.457020000" lon="-2.461410000">
        <ele>414.00</ele>
        <time>2016-10-29T10:06:12Z</time>
      </trkpt>
      <trkpt lat="42.457059000" lon="-2.461394000">
        <ele>414.00</ele>
        <time>2016-10-29T10:06:13Z</time>
      </trkpt>
      <trkpt lat="42.457098000" lon="-2.461380000">
        <ele>414.10</ele>
        <time>2016-10-29T10:06:14Z</time>
      </trkpt>
      <trkpt lat="42.457140000" lon="-2.461364000">
        <ele>414.10</ele>
        <time>2016-10-29T10:06:15Z</time>
      </trkpt>
      <trkpt lat="42.457180000" lon="-2.461346000">
        <ele>414.10</ele>
        <time>2016-10-29T10:06:16Z</time>
      </trkpt>
      <trkpt lat="42.457219000" lon="-2.461324000">
        <ele>414.10</ele>
        <time>2016-10-29T10:06:17Z</time>
      </trkpt>
      <trkpt lat="42.457258000" lon="-2.461300000">
        <ele>414.10</ele>
        <time>2016-10-29T10:06:18Z</time>
      </trkpt>
      <trkpt lat="42.457298000" lon="-2.461283000">
        <ele>414.10</ele>
        <time>2016-10-29T10:06:19Z</time>
      </trkpt>
      <trkpt lat="42.457340000" lon="-2.461260000">
        <ele>414.10</ele>
        <time>2016-10-29T10:06:20Z</time>
      </trkpt>
      <trkpt lat="42.457383000" lon="-2.461236000">
        <ele>414.10</ele>
        <time>2016-10-29T10:06:21Z</time>
      </trkpt>
      <trkpt lat="42.457430000" lon="-2.461211000">
        <ele>414.10</ele>
        <time>2016-10-29T10:06:22Z</time>
      </trkpt>
      <trkpt lat="42.457477000" lon="-2.461190000">
        <ele>414.10</ele>
        <time>2016-10-29T10:06:23Z</time>
      </trkpt>
      <trkpt lat="42.457526000" lon="-2.461177000">
        <ele>414.10</ele>
        <time>2016-10-29T10:06:24Z</time>
      </trkpt>
      <trkpt lat="42.457573000" lon="-2.461161000">
        <ele>414.10</ele>
        <time>2016-10-29T10:06:25Z</time>
      </trkpt>
      <trkpt lat="42.457617000" lon="-2.461145000">
        <ele>414.10</ele>
        <time>2016-10-29T10:06:26Z</time>
      </trkpt>
      <trkpt lat="42.457659000" lon="-2.461120000">
        <ele>414.00</ele>
        <time>2016-10-29T10:06:27Z</time>
      </trkpt>
      <trkpt lat="42.457701000" lon="-2.461095000">
        <ele>413.80</ele>
        <time>2016-10-29T10:06:28Z</time>
      </trkpt>
      <trkpt lat="42.457747000" lon="-2.461076000">
        <ele>413.60</ele>
        <time>2016-10-29T10:06:29Z</time>
      </trkpt>
      <trkpt lat="42.457791000" lon="-2.461052000">
        <ele>413.50</ele>
        <time>2016-10-29T10:06:30Z</time>
      </trkpt>
      <trkpt lat="42.457837000" lon="-2.461032000">
        <ele>413.40</ele>
        <time>2016-10-29T10:06:31Z</time>
      </trkpt>
      <trkpt lat="42.457884000" lon="-2.461010000">
        <ele>413.40</ele>
        <time>2016-10-29T10:06:32Z</time>
      </trkpt>
      <trkpt lat="42.457930000" lon="-2.460990000">
        <ele>413.40</ele>
        <time>2016-10-29T10:06:33Z</time>
      </trkpt>
      <trkpt lat="42.457978000" lon="-2.460971000">
        <ele>413.30</ele>
        <time>2016-10-29T10:06:34Z</time>
      </trkpt>
      <trkpt lat="42.458023000" lon="-2.460948000">
        <ele>413.30</ele>
        <time>2016-10-29T10:06:35Z</time>
      </trkpt>
      <trkpt lat="42.458068000" lon="-2.460924000">
        <ele>413.30</ele>
        <time>2016-10-29T10:06:36Z</time>
      </trkpt>
      <trkpt lat="42.458113000" lon="-2.460904000">
        <ele>413.30</ele>
        <time>2016-10-29T10:06:37Z</time>
      </trkpt>
      <trkpt lat="42.458162000" lon="-2.460885000">
        <ele>413.30</ele>
        <time>2016-10-29T10:06:38Z</time>
      </trkpt>
      <trkpt lat="42.458212000" lon="-2.460865000">
        <ele>413.30</ele>
        <time>2016-10-29T10:06:39Z</time>
      </trkpt>
      <trkpt lat="42.458261000" lon="-2.460842000">
        <ele>413.30</ele>
        <time>2016-10-29T10:06:40Z</time>
      </trkpt>
      <trkpt lat="42.458311000" lon="-2.460822000">
        <ele>413.20</ele>
        <time>2016-10-29T10:06:41Z</time>
      </trkpt>
      <trkpt lat="42.458361000" lon="-2.460810000">
        <ele>413.20</ele>
        <time>2016-10-29T10:06:42Z</time>
      </trkpt>
      <trkpt lat="42.458413000" lon="-2.460794000">
        <ele>412.90</ele>
        <time>2016-10-29T10:06:43Z</time>
      </trkpt>
      <trkpt lat="42.458512000" lon="-2.460758000">
        <ele>412.50</ele>
        <time>2016-10-29T10:06:45Z</time>
      </trkpt>
      <trkpt lat="42.458563000" lon="-2.460742000">
        <ele>412.40</ele>
        <time>2016-10-29T10:06:46Z</time>
      </trkpt>
      <trkpt lat="42.458611000" lon="-2.460724000">
        <ele>412.30</ele>
        <time>2016-10-29T10:06:47Z</time>
      </trkpt>
      <trkpt lat="42.458661000" lon="-2.460706000">
        <ele>412.20</ele>
        <time>2016-10-29T10:06:48Z</time>
      </trkpt>
      <trkpt lat="42.458707000" lon="-2.460684000">
        <ele>412.10</ele>
        <time>2016-10-29T10:06:49Z</time>
      </trkpt>
      <trkpt lat="42.458750000" lon="-2.460660000">
        <ele>412.00</ele>
        <time>2016-10-29T10:06:50Z</time>
      </trkpt>
      <trkpt lat="42.458795000" lon="-2.460639000">
        <ele>411.90</ele>
        <time>2016-10-29T10:06:51Z</time>
      </trkpt>
      <trkpt lat="42.458841000" lon="-2.460619000">
        <ele>411.80</ele>
        <time>2016-10-29T10:06:52Z</time>
      </trkpt>
      <trkpt lat="42.458884000" lon="-2.460595000">
        <ele>411.90</ele>
        <time>2016-10-29T10:06:53Z</time>
      </trkpt>
      <trkpt lat="42.458920000" lon="-2.460569000">
        <ele>412.00</ele>
        <time>2016-10-29T10:06:54Z</time>
      </trkpt>
      <trkpt lat="42.458942000" lon="-2.460535000">
        <ele>412.00</ele>
        <time>2016-10-29T10:06:55Z</time>
      </trkpt>
      <trkpt lat="42.458960000" lon="-2.460501000">
        <ele>412.10</ele>
        <time>2016-10-29T10:06:56Z</time>
      </trkpt>
      <trkpt lat="42.458980000" lon="-2.460476000">
        <ele>412.10</ele>
        <time>2016-10-29T10:06:57Z</time>
      </trkpt>
      <trkpt lat="42.458992000" lon="-2.460469000">
        <ele>412.10</ele>
        <time>2016-10-29T10:06:58Z</time>
      </trkpt>
      <trkpt lat="42.458999000" lon="-2.460469000">
        <ele>412.10</ele>
        <time>2016-10-29T10:06:59Z</time>
      </trkpt>
      <trkpt lat="42.459005000" lon="-2.460469000">
        <ele>412.10</ele>
        <time>2016-10-29T10:07:00Z</time>
      </trkpt>
      <trkpt lat="42.459008000" lon="-2.460471000">
        <ele>412.20</ele>
        <time>2016-10-29T10:07:01Z</time>
      </trkpt>
      <trkpt lat="42.459004000" lon="-2.460470000">
        <ele>412.20</ele>
        <time>2016-10-29T10:07:02Z</time>
      </trkpt>
      <trkpt lat="42.459012000" lon="-2.460467000">
        <ele>412.00</ele>
        <time>2016-10-29T10:07:03Z</time>
      </trkpt>
      <trkpt lat="42.459024000" lon="-2.460476000">
        <ele>411.90</ele>
        <time>2016-10-29T10:07:04Z</time>
      </trkpt>
      <trkpt lat="42.459037000" lon="-2.460485000">
        <ele>412.00</ele>
        <time>2016-10-29T10:07:05Z</time>
      </trkpt>
      <trkpt lat="42.459053000" lon="-2.460497000">
        <ele>412.10</ele>
        <time>2016-10-29T10:07:06Z</time>
      </trkpt>
      <trkpt lat="42.459070000" lon="-2.460513000">
        <ele>412.10</ele>
        <time>2016-10-29T10:07:07Z</time>
      </trkpt>
      <trkpt lat="42.459089000" lon="-2.460534000">
        <ele>412.20</ele>
        <time>2016-10-29T10:07:08Z</time>
      </trkpt>
      <trkpt lat="42.459113000" lon="-2.460561000">
        <ele>412.40</ele>
        <time>2016-10-29T10:07:09Z</time>
      </trkpt>
      <trkpt lat="42.459136000" lon="-2.460587000">
        <ele>412.60</ele>
        <time>2016-10-29T10:07:10Z</time>
      </trkpt>
      <trkpt lat="42.459155000" lon="-2.460615000">
        <ele>412.80</ele>
        <time>2016-10-29T10:07:11Z</time>
      </trkpt>
      <trkpt lat="42.459174000" lon="-2.460642000">
        <ele>412.90</ele>
        <time>2016-10-29T10:07:12Z</time>
      </trkpt>
      <trkpt lat="42.459184000" lon="-2.460668000">
        <ele>413.00</ele>
        <time>2016-10-29T10:07:13Z</time>
      </trkpt>
      <trkpt lat="42.459198000" lon="-2.460707000">
        <ele>413.10</ele>
        <time>2016-10-29T10:07:14Z</time>
      </trkpt>
      <trkpt lat="42.459216000" lon="-2.460749000">
        <ele>413.20</ele>
        <time>2016-10-29T10:07:15Z</time>
      </trkpt>
      <trkpt lat="42.459237000" lon="-2.460789000">
        <ele>413.30</ele>
        <time>2016-10-29T10:07:16Z</time>
      </trkpt>
      <trkpt lat="42.459257000" lon="-2.460830000">
        <ele>413.30</ele>
        <time>2016-10-29T10:07:17Z</time>
      </trkpt>
      <trkpt lat="42.459276000" lon="-2.460869000">
        <ele>413.30</ele>
        <time>2016-10-29T10:07:18Z</time>
      </trkpt>
      <trkpt lat="42.459296000" lon="-2.460908000">
        <ele>413.30</ele>
        <time>2016-10-29T10:07:19Z</time>
      </trkpt>
      <trkpt lat="42.459317000" lon="-2.460950000">
        <ele>413.30</ele>
        <time>2016-10-29T10:07:20Z</time>
      </trkpt>
      <trkpt lat="42.459338000" lon="-2.460990000">
        <ele>413.40</ele>
        <time>2016-10-29T10:07:21Z</time>
      </trkpt>
      <trkpt lat="42.459357000" lon="-2.461028000">
        <ele>413.40</ele>
        <time>2016-10-29T10:07:22Z</time>
      </trkpt>
      <trkpt lat="42.459374000" lon="-2.461066000">
        <ele>413.40</ele>
        <time>2016-10-29T10:07:23Z</time>
      </trkpt>
      <trkpt lat="42.459388000" lon="-2.461102000">
        <ele>413.30</ele>
        <time>2016-10-29T10:07:24Z</time>
      </trkpt>
      <trkpt lat="42.459403000" lon="-2.461140000">
        <ele>413.40</ele>
        <time>2016-10-29T10:07:25Z</time>
      </trkpt>
      <trkpt lat="42.459417000" lon="-2.461178000">
        <ele>413.50</ele>
        <time>2016-10-29T10:07:26Z</time>
      </trkpt>
      <trkpt lat="42.459431000" lon="-2.461215000">
        <ele>413.50</ele>
        <time>2016-10-29T10:07:27Z</time>
      </trkpt>
      <trkpt lat="42.459446000" lon="-2.461245000">
        <ele>413.60</ele>
        <time>2016-10-29T10:07:28Z</time>
      </trkpt>
      <trkpt lat="42.459462000" lon="-2.461279000">
        <ele>413.70</ele>
        <time>2016-10-29T10:07:29Z</time>
      </trkpt>
      <trkpt lat="42.459477000" lon="-2.461306000">
        <ele>413.90</ele>
        <time>2016-10-29T10:07:30Z</time>
      </trkpt>
      <trkpt lat="42.459492000" lon="-2.461336000">
        <ele>414.10</ele>
        <time>2016-10-29T10:07:31Z</time>
      </trkpt>
      <trkpt lat="42.459510000" lon="-2.461372000">
        <ele>414.20</ele>
        <time>2016-10-29T10:07:32Z</time>
      </trkpt>
      <trkpt lat="42.459529000" lon="-2.461406000">
        <ele>414.30</ele>
        <time>2016-10-29T10:07:33Z</time>
      </trkpt>
      <trkpt lat="42.459543000" lon="-2.461442000">
        <ele>414.50</ele>
        <time>2016-10-29T10:07:34Z</time>
      </trkpt>
      <trkpt lat="42.459558000" lon="-2.461477000">
        <ele>414.60</ele>
        <time>2016-10-29T10:07:35Z</time>
      </trkpt>
      <trkpt lat="42.459575000" lon="-2.461513000">
        <ele>414.80</ele>
        <time>2016-10-29T10:07:36Z</time>
      </trkpt>
      <trkpt lat="42.459590000" lon="-2.461545000">
        <ele>414.90</ele>
        <time>2016-10-29T10:07:37Z</time>
      </trkpt>
      <trkpt lat="42.459603000" lon="-2.461579000">
        <ele>414.90</ele>
        <time>2016-10-29T10:07:38Z</time>
      </trkpt>
      <trkpt lat="42.459618000" lon="-2.461615000">
        <ele>415.00</ele>
        <time>2016-10-29T10:07:39Z</time>
      </trkpt>
      <trkpt lat="42.459636000" lon="-2.461648000">
        <ele>415.00</ele>
        <time>2016-10-29T10:07:40Z</time>
      </trkpt>
      <trkpt lat="42.459655000" lon="-2.461680000">
        <ele>415.10</ele>
        <time>2016-10-29T10:07:41Z</time>
      </trkpt>
      <trkpt lat="42.459670000" lon="-2.461718000">
        <ele>415.10</ele>
        <time>2016-10-29T10:07:42Z</time>
      </trkpt>
      <trkpt lat="42.459692000" lon="-2.461752000">
        <ele>415.10</ele>
        <time>2016-10-29T10:07:43Z</time>
      </trkpt>
      <trkpt lat="42.459717000" lon="-2.461788000">
        <ele>415.20</ele>
        <time>2016-10-29T10:07:44Z</time>
      </trkpt>
      <trkpt lat="42.459769000" lon="-2.461856000">
        <ele>415.30</ele>
        <time>2016-10-29T10:07:46Z</time>
      </trkpt>
      <trkpt lat="42.459796000" lon="-2.461891000">
        <ele>415.30</ele>
        <time>2016-10-29T10:07:47Z</time>
      </trkpt>
      <trkpt lat="42.459821000" lon="-2.461931000">
        <ele>415.30</ele>
        <time>2016-10-29T10:07:48Z</time>
      </trkpt>
      <trkpt lat="42.459851000" lon="-2.461975000">
        <ele>415.30</ele>
        <time>2016-10-29T10:07:49Z</time>
      </trkpt>
      <trkpt lat="42.459882000" lon="-2.462013000">
        <ele>415.30</ele>
        <time>2016-10-29T10:07:50Z</time>
      </trkpt>
      <trkpt lat="42.459912000" lon="-2.462051000">
        <ele>415.30</ele>
        <time>2016-10-29T10:07:51Z</time>
      </trkpt>
      <trkpt lat="42.459944000" lon="-2.462091000">
        <ele>415.30</ele>
        <time>2016-10-29T10:07:52Z</time>
      </trkpt>
      <trkpt lat="42.459976000" lon="-2.462127000">
        <ele>415.30</ele>
        <time>2016-10-29T10:07:53Z</time>
      </trkpt>
      <trkpt lat="42.460011000" lon="-2.462159000">
        <ele>415.20</ele>
        <time>2016-10-29T10:07:54Z</time>
      </trkpt>
      <trkpt lat="42.460048000" lon="-2.462192000">
        <ele>415.20</ele>
        <time>2016-10-29T10:07:55Z</time>
      </trkpt>
      <trkpt lat="42.460081000" lon="-2.462226000">
        <ele>415.10</ele>
        <time>2016-10-29T10:07:56Z</time>
      </trkpt>
      <trkpt lat="42.460114000" lon="-2.462271000">
        <ele>415.00</ele>
        <time>2016-10-29T10:07:57Z</time>
      </trkpt>
      <trkpt lat="42.460150000" lon="-2.462312000">
        <ele>415.00</ele>
        <time>2016-10-29T10:07:58Z</time>
      </trkpt>
      <trkpt lat="42.460188000" lon="-2.462354000">
        <ele>414.90</ele>
        <time>2016-10-29T10:07:59Z</time>
      </trkpt>
      <trkpt lat="42.460223000" lon="-2.462401000">
        <ele>414.90</ele>
        <time>2016-10-29T10:08:00Z</time>
      </trkpt>
      <trkpt lat="42.460252000" lon="-2.462444000">
        <ele>414.90</ele>
        <time>2016-10-29T10:08:01Z</time>
      </trkpt>
      <trkpt lat="42.460272000" lon="-2.462491000">
        <ele>414.90</ele>
        <time>2016-10-29T10:08:02Z</time>
      </trkpt>
      <trkpt lat="42.460292000" lon="-2.462536000">
        <ele>414.90</ele>
        <time>2016-10-29T10:08:03Z</time>
      </trkpt>
      <trkpt lat="42.460311000" lon="-2.462587000">
        <ele>415.00</ele>
        <time>2016-10-29T10:08:04Z</time>
      </trkpt>
      <trkpt lat="42.460328000" lon="-2.462640000">
        <ele>415.00</ele>
        <time>2016-10-29T10:08:05Z</time>
      </trkpt>
      <trkpt lat="42.460346000" lon="-2.462688000">
        <ele>415.00</ele>
        <time>2016-10-29T10:08:06Z</time>
      </trkpt>
      <trkpt lat="42.460360000" lon="-2.462733000">
        <ele>415.00</ele>
        <time>2016-10-29T10:08:07Z</time>
      </trkpt>
      <trkpt lat="42.460379000" lon="-2.462781000">
        <ele>415.00</ele>
        <time>2016-10-29T10:08:08Z</time>
      </trkpt>
      <trkpt lat="42.460395000" lon="-2.462829000">
        <ele>415.00</ele>
        <time>2016-10-29T10:08:09Z</time>
      </trkpt>
      <trkpt lat="42.460411000" lon="-2.462872000">
        <ele>414.90</ele>
        <time>2016-10-29T10:08:10Z</time>
      </trkpt>
      <trkpt lat="42.460427000" lon="-2.462920000">
        <ele>414.90</ele>
        <time>2016-10-29T10:08:11Z</time>
      </trkpt>
      <trkpt lat="42.460445000" lon="-2.462967000">
        <ele>414.90</ele>
        <time>2016-10-29T10:08:12Z</time>
      </trkpt>
      <trkpt lat="42.460463000" lon="-2.463010000">
        <ele>414.90</ele>
        <time>2016-10-29T10:08:13Z</time>
      </trkpt>
      <trkpt lat="42.460484000" lon="-2.463053000">
        <ele>414.90</ele>
        <time>2016-10-29T10:08:14Z</time>
      </trkpt>
      <trkpt lat="42.460504000" lon="-2.463097000">
        <ele>414.90</ele>
        <time>2016-10-29T10:08:15Z</time>
      </trkpt>
      <trkpt lat="42.460520000" lon="-2.463140000">
        <ele>414.90</ele>
        <time>2016-10-29T10:08:16Z</time>
      </trkpt>
      <trkpt lat="42.460536000" lon="-2.463184000">
        <ele>414.90</ele>
        <time>2016-10-29T10:08:17Z</time>
      </trkpt>
      <trkpt lat="42.460556000" lon="-2.463229000">
        <ele>414.70</ele>
        <time>2016-10-29T10:08:18Z</time>
      </trkpt>
      <trkpt lat="42.460579000" lon="-2.463281000">
        <ele>414.70</ele>
        <time>2016-10-29T10:08:19Z</time>
      </trkpt>
      <trkpt lat="42.460603000" lon="-2.463337000">
        <ele>414.60</ele>
        <time>2016-10-29T10:08:20Z</time>
      </trkpt>
      <trkpt lat="42.460627000" lon="-2.463396000">
        <ele>414.50</ele>
        <time>2016-10-29T10:08:21Z</time>
      </trkpt>
      <trkpt lat="42.460649000" lon="-2.463456000">
        <ele>414.40</ele>
        <time>2016-10-29T10:08:22Z</time>
      </trkpt>
      <trkpt lat="42.460671000" lon="-2.463525000">
        <ele>414.20</ele>
        <time>2016-10-29T10:08:23Z</time>
      </trkpt>
      <trkpt lat="42.460691000" lon="-2.463592000">
        <ele>414.00</ele>
        <time>2016-10-29T10:08:24Z</time>
      </trkpt>
      <trkpt lat="42.460717000" lon="-2.463629000">
        <ele>413.80</ele>
        <time>2016-10-29T10:08:25Z</time>
      </trkpt>
      <trkpt lat="42.460745000" lon="-2.463652000">
        <ele>413.70</ele>
        <time>2016-10-29T10:08:26Z</time>
      </trkpt>
      <trkpt lat="42.460777000" lon="-2.463669000">
        <ele>413.60</ele>
        <time>2016-10-29T10:08:27Z</time>
      </trkpt>
      <trkpt lat="42.460810000" lon="-2.463684000">
        <ele>413.40</ele>
        <time>2016-10-29T10:08:28Z</time>
      </trkpt>
      <trkpt lat="42.460843000" lon="-2.463702000">
        <ele>413.20</ele>
        <time>2016-10-29T10:08:29Z</time>
      </trkpt>
      <trkpt lat="42.460878000" lon="-2.463722000">
        <ele>413.00</ele>
        <time>2016-10-29T10:08:30Z</time>
      </trkpt>
      <trkpt lat="42.460910000" lon="-2.463737000">
        <ele>412.90</ele>
        <time>2016-10-29T10:08:31Z</time>
      </trkpt>
      <trkpt lat="42.460940000" lon="-2.463751000">
        <ele>412.80</ele>
        <time>2016-10-29T10:08:32Z</time>
      </trkpt>
      <trkpt lat="42.460973000" lon="-2.463764000">
        <ele>412.70</ele>
        <time>2016-10-29T10:08:33Z</time>
      </trkpt>
      <trkpt lat="42.461007000" lon="-2.463771000">
        <ele>412.70</ele>
        <time>2016-10-29T10:08:34Z</time>
      </trkpt>
      <trkpt lat="42.461021000" lon="-2.463780000">
        <ele>412.60</ele>
        <time>2016-10-29T10:08:35Z</time>
      </trkpt>
      <trkpt lat="42.461023000" lon="-2.463807000">
        <ele>412.60</ele>
        <time>2016-10-29T10:08:36Z</time>
      </trkpt>
      <trkpt lat="42.461023000" lon="-2.463829000">
        <ele>412.50</ele>
        <time>2016-10-29T10:08:37Z</time>
      </trkpt>
      <trkpt lat="42.461021000" lon="-2.463854000">
        <ele>412.60</ele>
        <time>2016-10-29T10:08:38Z</time>
      </trkpt>
      <trkpt lat="42.461015000" lon="-2.463876000">
        <ele>412.60</ele>
        <time>2016-10-29T10:08:39Z</time>
      </trkpt>
      <trkpt lat="42.461009000" lon="-2.463896000">
        <ele>412.50</ele>
        <time>2016-10-29T10:08:40Z</time>
      </trkpt>
      <trkpt lat="42.461009000" lon="-2.463896000">
        <ele>412.50</ele>
        <time>2016-10-29T10:08:40Z</time>
      </trkpt>
    </trkseg>
  </trk>
</gpx>
